<?xml version="1.0" encoding="UTF-8" standalone="no" ?>
<gpx xmlns="http://www.topografix.com/GPX/1/1" xmlns:xsi="http://www.w3.org/2001/XMLSchema-instance" xsi:schemaLocation="http://www.topografix.com/GPX/1/1 http://www.topografix.com/GPX/1/1/gpx.xsd" version="1.1" creator="VisuGPX - https://www.visugpx.com">
  <metadata>
    <name>Trail des Cabornis - 10/03/2013 - 27 kms / 1200 m D </name>
    <desc><![CDATA[Trail des Cabornis au départ de Chasselay (69).
Parcours 27 kms / 1200 m D ]]></desc>
  </metadata>
  <trk>
    <name><![CDATA[Track_2013_03_10_09_01_35]]></name>
    <trkseg>
      <trkpt lat="45.87477" lon="4.77041">
        <ele>229.9</ele>
        <time>2013-03-10T08:01:35.21Z</time>
      </trkpt>
      <trkpt lat="45.87478" lon="4.77042">
        <ele>228.8</ele>
        <time>2013-03-10T08:01:43.56Z</time>
      </trkpt>
      <trkpt lat="45.87478" lon="4.77042">
        <ele>229.6</ele>
        <time>2013-03-10T08:01:59.64Z</time>
      </trkpt>
      <trkpt lat="45.87477" lon="4.77041">
        <ele>228.8</ele>
        <time>2013-03-10T08:02:10.58Z</time>
      </trkpt>
      <trkpt lat="45.87476" lon="4.7704">
        <ele>228.9</ele>
        <time>2013-03-10T08:02:11.58Z</time>
      </trkpt>
      <trkpt lat="45.87473" lon="4.77041">
        <ele>229</ele>
        <time>2013-03-10T08:02:12.58Z</time>
      </trkpt>
      <trkpt lat="45.8747" lon="4.77042">
        <ele>229</ele>
        <time>2013-03-10T08:02:13.65Z</time>
      </trkpt>
      <trkpt lat="45.87462" lon="4.77044">
        <ele>229.2</ele>
        <time>2013-03-10T08:02:15.58Z</time>
      </trkpt>
      <trkpt lat="45.87458" lon="4.77044">
        <ele>229.3</ele>
        <time>2013-03-10T08:02:16.64Z</time>
      </trkpt>
      <trkpt lat="45.87449" lon="4.77044">
        <ele>229.5</ele>
        <time>2013-03-10T08:02:18.56Z</time>
      </trkpt>
      <trkpt lat="45.87446" lon="4.77044">
        <ele>229.6</ele>
        <time>2013-03-10T08:02:19.58Z</time>
      </trkpt>
      <trkpt lat="45.87443" lon="4.77047">
        <ele>229.7</ele>
        <time>2013-03-10T08:02:20.63Z</time>
      </trkpt>
      <trkpt lat="45.8744" lon="4.77053">
        <ele>230.1</ele>
        <time>2013-03-10T08:02:22.56Z</time>
      </trkpt>
      <trkpt lat="45.8744" lon="4.77058">
        <ele>230.2</ele>
        <time>2013-03-10T08:02:23.56Z</time>
      </trkpt>
      <trkpt lat="45.87438" lon="4.77062">
        <ele>230.2</ele>
        <time>2013-03-10T08:02:24.56Z</time>
      </trkpt>
      <trkpt lat="45.87437" lon="4.77066">
        <ele>230.3</ele>
        <time>2013-03-10T08:02:25.56Z</time>
      </trkpt>
      <trkpt lat="45.87435" lon="4.77069">
        <ele>230.4</ele>
        <time>2013-03-10T08:02:26.56Z</time>
      </trkpt>
      <trkpt lat="45.87431" lon="4.77071">
        <ele>230.5</ele>
        <time>2013-03-10T08:02:27.56Z</time>
      </trkpt>
      <trkpt lat="45.87426" lon="4.77072">
        <ele>230.6</ele>
        <time>2013-03-10T08:02:28.64Z</time>
      </trkpt>
      <trkpt lat="45.87417" lon="4.77075">
        <ele>231</ele>
        <time>2013-03-10T08:02:30.56Z</time>
      </trkpt>
      <trkpt lat="45.87414" lon="4.77077">
        <ele>231.1</ele>
        <time>2013-03-10T08:02:31.56Z</time>
      </trkpt>
      <trkpt lat="45.87409" lon="4.77077">
        <ele>231.3</ele>
        <time>2013-03-10T08:02:32.56Z</time>
      </trkpt>
      <trkpt lat="45.87406" lon="4.77077">
        <ele>231.4</ele>
        <time>2013-03-10T08:02:33.69Z</time>
      </trkpt>
      <trkpt lat="45.87398" lon="4.77077">
        <ele>231.7</ele>
        <time>2013-03-10T08:02:35.58Z</time>
      </trkpt>
      <trkpt lat="45.87393" lon="4.77078">
        <ele>231.8</ele>
        <time>2013-03-10T08:02:36.62Z</time>
      </trkpt>
      <trkpt lat="45.87385" lon="4.77078">
        <ele>232.1</ele>
        <time>2013-03-10T08:02:38.64Z</time>
      </trkpt>
      <trkpt lat="45.87377" lon="4.77078">
        <ele>232.4</ele>
        <time>2013-03-10T08:02:40.56Z</time>
      </trkpt>
      <trkpt lat="45.87373" lon="4.77076">
        <ele>232.6</ele>
        <time>2013-03-10T08:02:41.58Z</time>
      </trkpt>
      <trkpt lat="45.87369" lon="4.77075">
        <ele>232.7</ele>
        <time>2013-03-10T08:02:42.71Z</time>
      </trkpt>
      <trkpt lat="45.87362" lon="4.77074">
        <ele>233</ele>
        <time>2013-03-10T08:02:44.58Z</time>
      </trkpt>
      <trkpt lat="45.87359" lon="4.77073">
        <ele>233.1</ele>
        <time>2013-03-10T08:02:45.57Z</time>
      </trkpt>
      <trkpt lat="45.87355" lon="4.77073">
        <ele>233.1</ele>
        <time>2013-03-10T08:02:46.63Z</time>
      </trkpt>
      <trkpt lat="45.87347" lon="4.77071">
        <ele>233.3</ele>
        <time>2013-03-10T08:02:48.65Z</time>
      </trkpt>
      <trkpt lat="45.87341" lon="4.77073">
        <ele>233.5</ele>
        <time>2013-03-10T08:02:50.57Z</time>
      </trkpt>
      <trkpt lat="45.87339" lon="4.77074">
        <ele>233.5</ele>
        <time>2013-03-10T08:02:51.57Z</time>
      </trkpt>
      <trkpt lat="45.87338" lon="4.77077">
        <ele>233.6</ele>
        <time>2013-03-10T08:02:52.57Z</time>
      </trkpt>
      <trkpt lat="45.87339" lon="4.77081">
        <ele>233.7</ele>
        <time>2013-03-10T08:02:53.64Z</time>
      </trkpt>
      <trkpt lat="45.87339" lon="4.7709">
        <ele>233.9</ele>
        <time>2013-03-10T08:02:55.57Z</time>
      </trkpt>
      <trkpt lat="45.87339" lon="4.77094">
        <ele>233.9</ele>
        <time>2013-03-10T08:02:56.56Z</time>
      </trkpt>
      <trkpt lat="45.87339" lon="4.77099">
        <ele>233.9</ele>
        <time>2013-03-10T08:02:57.56Z</time>
      </trkpt>
      <trkpt lat="45.87339" lon="4.77104">
        <ele>234</ele>
        <time>2013-03-10T08:02:58.56Z</time>
      </trkpt>
      <trkpt lat="45.87336" lon="4.77109">
        <ele>236.3</ele>
        <time>2013-03-10T08:02:59.64Z</time>
      </trkpt>
      <trkpt lat="45.8733" lon="4.77114">
        <ele>234.2</ele>
        <time>2013-03-10T08:03:01.63Z</time>
      </trkpt>
      <trkpt lat="45.87323" lon="4.7712">
        <ele>234.6</ele>
        <time>2013-03-10T08:03:03.56Z</time>
      </trkpt>
      <trkpt lat="45.8732" lon="4.77121">
        <ele>234.7</ele>
        <time>2013-03-10T08:03:04.56Z</time>
      </trkpt>
      <trkpt lat="45.87317" lon="4.77123">
        <ele>234.8</ele>
        <time>2013-03-10T08:03:05.56Z</time>
      </trkpt>
      <trkpt lat="45.87314" lon="4.77124">
        <ele>234.8</ele>
        <time>2013-03-10T08:03:06.56Z</time>
      </trkpt>
      <trkpt lat="45.87311" lon="4.77126">
        <ele>234.9</ele>
        <time>2013-03-10T08:03:07.56Z</time>
      </trkpt>
      <trkpt lat="45.87308" lon="4.77127">
        <ele>235</ele>
        <time>2013-03-10T08:03:08.56Z</time>
      </trkpt>
      <trkpt lat="45.87306" lon="4.7713">
        <ele>235</ele>
        <time>2013-03-10T08:03:09.57Z</time>
      </trkpt>
      <trkpt lat="45.87304" lon="4.77132">
        <ele>235</ele>
        <time>2013-03-10T08:03:10.71Z</time>
      </trkpt>
      <trkpt lat="45.873" lon="4.77134">
        <ele>235.2</ele>
        <time>2013-03-10T08:03:12.58Z</time>
      </trkpt>
      <trkpt lat="45.87297" lon="4.77135">
        <ele>235.3</ele>
        <time>2013-03-10T08:03:13.65Z</time>
      </trkpt>
      <trkpt lat="45.87292" lon="4.77135">
        <ele>235.4</ele>
        <time>2013-03-10T08:03:15.56Z</time>
      </trkpt>
      <trkpt lat="45.87284" lon="4.77136">
        <ele>235.7</ele>
        <time>2013-03-10T08:03:17.56Z</time>
      </trkpt>
      <trkpt lat="45.87279" lon="4.77137">
        <ele>235.9</ele>
        <time>2013-03-10T08:03:18.56Z</time>
      </trkpt>
      <trkpt lat="45.87273" lon="4.77142">
        <ele>236.2</ele>
        <time>2013-03-10T08:03:19.57Z</time>
      </trkpt>
      <trkpt lat="45.87268" lon="4.77145">
        <ele>236.4</ele>
        <time>2013-03-10T08:03:20.62Z</time>
      </trkpt>
      <trkpt lat="45.87258" lon="4.77148">
        <ele>237</ele>
        <time>2013-03-10T08:03:22.56Z</time>
      </trkpt>
      <trkpt lat="45.87253" lon="4.7715">
        <ele>237.2</ele>
        <time>2013-03-10T08:03:23.58Z</time>
      </trkpt>
      <trkpt lat="45.87249" lon="4.7715">
        <ele>237.5</ele>
        <time>2013-03-10T08:03:24.67Z</time>
      </trkpt>
      <trkpt lat="45.87242" lon="4.77149">
        <ele>237.9</ele>
        <time>2013-03-10T08:03:26.66Z</time>
      </trkpt>
      <trkpt lat="45.87236" lon="4.77146">
        <ele>238.3</ele>
        <time>2013-03-10T08:03:28.65Z</time>
      </trkpt>
      <trkpt lat="45.8723" lon="4.77145">
        <ele>238.7</ele>
        <time>2013-03-10T08:03:30.66Z</time>
      </trkpt>
      <trkpt lat="45.87224" lon="4.77145">
        <ele>239.1</ele>
        <time>2013-03-10T08:03:32.66Z</time>
      </trkpt>
      <trkpt lat="45.87217" lon="4.77146">
        <ele>239.8</ele>
        <time>2013-03-10T08:03:34.56Z</time>
      </trkpt>
      <trkpt lat="45.87214" lon="4.77147">
        <ele>240.1</ele>
        <time>2013-03-10T08:03:35.66Z</time>
      </trkpt>
      <trkpt lat="45.87211" lon="4.77147">
        <ele>240.4</ele>
        <time>2013-03-10T08:03:36.57Z</time>
      </trkpt>
      <trkpt lat="45.87208" lon="4.77147">
        <ele>240.7</ele>
        <time>2013-03-10T08:03:37.66Z</time>
      </trkpt>
      <trkpt lat="45.87205" lon="4.77147">
        <ele>240.9</ele>
        <time>2013-03-10T08:03:38.56Z</time>
      </trkpt>
      <trkpt lat="45.87202" lon="4.77147">
        <ele>241.2</ele>
        <time>2013-03-10T08:03:39.66Z</time>
      </trkpt>
      <trkpt lat="45.87199" lon="4.77147">
        <ele>241.5</ele>
        <time>2013-03-10T08:03:40.56Z</time>
      </trkpt>
      <trkpt lat="45.87197" lon="4.77146">
        <ele>241.8</ele>
        <time>2013-03-10T08:03:41.66Z</time>
      </trkpt>
      <trkpt lat="45.8719" lon="4.77145">
        <ele>242.4</ele>
        <time>2013-03-10T08:03:43.66Z</time>
      </trkpt>
      <trkpt lat="45.87183" lon="4.77145">
        <ele>242.9</ele>
        <time>2013-03-10T08:03:45.56Z</time>
      </trkpt>
      <trkpt lat="45.8718" lon="4.77144">
        <ele>243.2</ele>
        <time>2013-03-10T08:03:46.66Z</time>
      </trkpt>
      <trkpt lat="45.87177" lon="4.77144">
        <ele>243.4</ele>
        <time>2013-03-10T08:03:47.56Z</time>
      </trkpt>
      <trkpt lat="45.87173" lon="4.77144">
        <ele>243.7</ele>
        <time>2013-03-10T08:03:48.66Z</time>
      </trkpt>
      <trkpt lat="45.87167" lon="4.77143">
        <ele>244.1</ele>
        <time>2013-03-10T08:03:50.61Z</time>
      </trkpt>
      <trkpt lat="45.87163" lon="4.77143">
        <ele>244.5</ele>
        <time>2013-03-10T08:03:51.56Z</time>
      </trkpt>
      <trkpt lat="45.8716" lon="4.77143">
        <ele>244.9</ele>
        <time>2013-03-10T08:03:52.66Z</time>
      </trkpt>
      <trkpt lat="45.87157" lon="4.77143">
        <ele>245.2</ele>
        <time>2013-03-10T08:03:53.56Z</time>
      </trkpt>
      <trkpt lat="45.87154" lon="4.77143">
        <ele>245.5</ele>
        <time>2013-03-10T08:03:54.66Z</time>
      </trkpt>
      <trkpt lat="45.87151" lon="4.77142">
        <ele>245.8</ele>
        <time>2013-03-10T08:03:55.56Z</time>
      </trkpt>
      <trkpt lat="45.87148" lon="4.77142">
        <ele>246.2</ele>
        <time>2013-03-10T08:03:56.66Z</time>
      </trkpt>
      <trkpt lat="45.87144" lon="4.77143">
        <ele>246.5</ele>
        <time>2013-03-10T08:03:57.56Z</time>
      </trkpt>
      <trkpt lat="45.87142" lon="4.77143">
        <ele>246.8</ele>
        <time>2013-03-10T08:03:58.66Z</time>
      </trkpt>
      <trkpt lat="45.87136" lon="4.77142">
        <ele>250</ele>
        <time>2013-03-10T08:04:00.65Z</time>
      </trkpt>
      <trkpt lat="45.87133" lon="4.77143">
        <ele>247.6</ele>
        <time>2013-03-10T08:04:01.56Z</time>
      </trkpt>
      <trkpt lat="45.8713" lon="4.77144">
        <ele>247.8</ele>
        <time>2013-03-10T08:04:02.66Z</time>
      </trkpt>
      <trkpt lat="45.87127" lon="4.77145">
        <ele>248.1</ele>
        <time>2013-03-10T08:04:03.56Z</time>
      </trkpt>
      <trkpt lat="45.87124" lon="4.77145">
        <ele>248.3</ele>
        <time>2013-03-10T08:04:04.66Z</time>
      </trkpt>
      <trkpt lat="45.87121" lon="4.77145">
        <ele>248.5</ele>
        <time>2013-03-10T08:04:05.56Z</time>
      </trkpt>
      <trkpt lat="45.87118" lon="4.77145">
        <ele>248.8</ele>
        <time>2013-03-10T08:04:06.65Z</time>
      </trkpt>
      <trkpt lat="45.87111" lon="4.77146">
        <ele>249.3</ele>
        <time>2013-03-10T08:04:08.67Z</time>
      </trkpt>
      <trkpt lat="45.87105" lon="4.77145">
        <ele>249.9</ele>
        <time>2013-03-10T08:04:10.65Z</time>
      </trkpt>
      <trkpt lat="45.871" lon="4.77144">
        <ele>250.5</ele>
        <time>2013-03-10T08:04:12.65Z</time>
      </trkpt>
      <trkpt lat="45.87097" lon="4.77145">
        <ele>250.9</ele>
        <time>2013-03-10T08:04:13.56Z</time>
      </trkpt>
      <trkpt lat="45.87094" lon="4.77145">
        <ele>251.3</ele>
        <time>2013-03-10T08:04:14.65Z</time>
      </trkpt>
      <trkpt lat="45.8709" lon="4.77145">
        <ele>251.6</ele>
        <time>2013-03-10T08:04:15.56Z</time>
      </trkpt>
      <trkpt lat="45.87087" lon="4.77145">
        <ele>252</ele>
        <time>2013-03-10T08:04:16.61Z</time>
      </trkpt>
      <trkpt lat="45.87084" lon="4.77145">
        <ele>252.4</ele>
        <time>2013-03-10T08:04:17.56Z</time>
      </trkpt>
      <trkpt lat="45.87081" lon="4.77146">
        <ele>252.8</ele>
        <time>2013-03-10T08:04:18.65Z</time>
      </trkpt>
      <trkpt lat="45.87074" lon="4.77147">
        <ele>253.5</ele>
        <time>2013-03-10T08:04:20.65Z</time>
      </trkpt>
      <trkpt lat="45.87071" lon="4.77148">
        <ele>253.9</ele>
        <time>2013-03-10T08:04:21.56Z</time>
      </trkpt>
      <trkpt lat="45.87068" lon="4.77147">
        <ele>254.3</ele>
        <time>2013-03-10T08:04:22.65Z</time>
      </trkpt>
      <trkpt lat="45.87065" lon="4.77147">
        <ele>254.4</ele>
        <time>2013-03-10T08:04:23.56Z</time>
      </trkpt>
      <trkpt lat="45.87063" lon="4.77146">
        <ele>254.5</ele>
        <time>2013-03-10T08:04:24.65Z</time>
      </trkpt>
      <trkpt lat="45.8706" lon="4.77146">
        <ele>254.9</ele>
        <time>2013-03-10T08:04:25.56Z</time>
      </trkpt>
      <trkpt lat="45.87057" lon="4.77146">
        <ele>255.2</ele>
        <time>2013-03-10T08:04:26.65Z</time>
      </trkpt>
      <trkpt lat="45.87055" lon="4.77146">
        <ele>255.3</ele>
        <time>2013-03-10T08:04:27.56Z</time>
      </trkpt>
      <trkpt lat="45.87052" lon="4.77145">
        <ele>255.7</ele>
        <time>2013-03-10T08:04:28.66Z</time>
      </trkpt>
      <trkpt lat="45.87046" lon="4.77146">
        <ele>256.4</ele>
        <time>2013-03-10T08:04:30.57Z</time>
      </trkpt>
      <trkpt lat="45.87044" lon="4.77147">
        <ele>256.9</ele>
        <time>2013-03-10T08:04:31.65Z</time>
      </trkpt>
      <trkpt lat="45.87041" lon="4.77148">
        <ele>257.4</ele>
        <time>2013-03-10T08:04:32.56Z</time>
      </trkpt>
      <trkpt lat="45.87039" lon="4.77148">
        <ele>257.8</ele>
        <time>2013-03-10T08:04:33.69Z</time>
      </trkpt>
      <trkpt lat="45.87033" lon="4.77147">
        <ele>258.3</ele>
        <time>2013-03-10T08:04:35.56Z</time>
      </trkpt>
      <trkpt lat="45.87029" lon="4.77146">
        <ele>258.6</ele>
        <time>2013-03-10T08:04:36.65Z</time>
      </trkpt>
      <trkpt lat="45.87026" lon="4.77146">
        <ele>258.9</ele>
        <time>2013-03-10T08:04:37.56Z</time>
      </trkpt>
      <trkpt lat="45.87023" lon="4.77146">
        <ele>259.1</ele>
        <time>2013-03-10T08:04:38.67Z</time>
      </trkpt>
      <trkpt lat="45.87017" lon="4.77149">
        <ele>260.1</ele>
        <time>2013-03-10T08:04:40.63Z</time>
      </trkpt>
      <trkpt lat="45.87012" lon="4.77148">
        <ele>260.3</ele>
        <time>2013-03-10T08:04:42.65Z</time>
      </trkpt>
      <trkpt lat="45.87008" lon="4.77148">
        <ele>260.4</ele>
        <time>2013-03-10T08:04:43.56Z</time>
      </trkpt>
      <trkpt lat="45.87005" lon="4.77148">
        <ele>260.6</ele>
        <time>2013-03-10T08:04:44.66Z</time>
      </trkpt>
      <trkpt lat="45.87003" lon="4.77148">
        <ele>260.7</ele>
        <time>2013-03-10T08:04:45.56Z</time>
      </trkpt>
      <trkpt lat="45.87" lon="4.77147">
        <ele>260.8</ele>
        <time>2013-03-10T08:04:46.64Z</time>
      </trkpt>
      <trkpt lat="45.86994" lon="4.77147">
        <ele>261.4</ele>
        <time>2013-03-10T08:04:48.66Z</time>
      </trkpt>
      <trkpt lat="45.86987" lon="4.77147">
        <ele>261.9</ele>
        <time>2013-03-10T08:04:50.65Z</time>
      </trkpt>
      <trkpt lat="45.86982" lon="4.77146">
        <ele>262.3</ele>
        <time>2013-03-10T08:04:52.64Z</time>
      </trkpt>
      <trkpt lat="45.86978" lon="4.77145">
        <ele>262.6</ele>
        <time>2013-03-10T08:04:53.56Z</time>
      </trkpt>
      <trkpt lat="45.86976" lon="4.77143">
        <ele>262.8</ele>
        <time>2013-03-10T08:04:54.64Z</time>
      </trkpt>
      <trkpt lat="45.86973" lon="4.77141">
        <ele>263</ele>
        <time>2013-03-10T08:04:55.56Z</time>
      </trkpt>
      <trkpt lat="45.86971" lon="4.77139">
        <ele>263.1</ele>
        <time>2013-03-10T08:04:56.64Z</time>
      </trkpt>
      <trkpt lat="45.86969" lon="4.77134">
        <ele>262.7</ele>
        <time>2013-03-10T08:04:57.56Z</time>
      </trkpt>
      <trkpt lat="45.86967" lon="4.7713">
        <ele>262.4</ele>
        <time>2013-03-10T08:04:58.66Z</time>
      </trkpt>
      <trkpt lat="45.86963" lon="4.77123">
        <ele>267.3</ele>
        <time>2013-03-10T08:05:00.64Z</time>
      </trkpt>
      <trkpt lat="45.86959" lon="4.77114">
        <ele>261.3</ele>
        <time>2013-03-10T08:05:02.64Z</time>
      </trkpt>
      <trkpt lat="45.86957" lon="4.77111">
        <ele>261</ele>
        <time>2013-03-10T08:05:03.56Z</time>
      </trkpt>
      <trkpt lat="45.86955" lon="4.77106">
        <ele>260.7</ele>
        <time>2013-03-10T08:05:04.64Z</time>
      </trkpt>
      <trkpt lat="45.86953" lon="4.77101">
        <ele>260.4</ele>
        <time>2013-03-10T08:05:05.56Z</time>
      </trkpt>
      <trkpt lat="45.86951" lon="4.77096">
        <ele>260.2</ele>
        <time>2013-03-10T08:05:06.64Z</time>
      </trkpt>
      <trkpt lat="45.86948" lon="4.77091">
        <ele>260.1</ele>
        <time>2013-03-10T08:05:07.56Z</time>
      </trkpt>
      <trkpt lat="45.86946" lon="4.77088">
        <ele>260</ele>
        <time>2013-03-10T08:05:08.65Z</time>
      </trkpt>
      <trkpt lat="45.86942" lon="4.7708">
        <ele>260</ele>
        <time>2013-03-10T08:05:10.65Z</time>
      </trkpt>
      <trkpt lat="45.8694" lon="4.77077">
        <ele>259.9</ele>
        <time>2013-03-10T08:05:11.64Z</time>
      </trkpt>
      <trkpt lat="45.86937" lon="4.77075">
        <ele>260</ele>
        <time>2013-03-10T08:05:12.64Z</time>
      </trkpt>
      <trkpt lat="45.86934" lon="4.77074">
        <ele>260.1</ele>
        <time>2013-03-10T08:05:13.67Z</time>
      </trkpt>
      <trkpt lat="45.86927" lon="4.77072">
        <ele>260.2</ele>
        <time>2013-03-10T08:05:15.56Z</time>
      </trkpt>
      <trkpt lat="45.86923" lon="4.77071">
        <ele>260.3</ele>
        <time>2013-03-10T08:05:16.57Z</time>
      </trkpt>
      <trkpt lat="45.8692" lon="4.7707">
        <ele>260.4</ele>
        <time>2013-03-10T08:05:17.56Z</time>
      </trkpt>
      <trkpt lat="45.86917" lon="4.77069">
        <ele>260.5</ele>
        <time>2013-03-10T08:05:18.56Z</time>
      </trkpt>
      <trkpt lat="45.86913" lon="4.77067">
        <ele>260.6</ele>
        <time>2013-03-10T08:05:19.64Z</time>
      </trkpt>
      <trkpt lat="45.8691" lon="4.77065">
        <ele>260.7</ele>
        <time>2013-03-10T08:05:20.64Z</time>
      </trkpt>
      <trkpt lat="45.86906" lon="4.77064">
        <ele>260.8</ele>
        <time>2013-03-10T08:05:21.64Z</time>
      </trkpt>
      <trkpt lat="45.86903" lon="4.77063">
        <ele>260.9</ele>
        <time>2013-03-10T08:05:22.64Z</time>
      </trkpt>
      <trkpt lat="45.86895" lon="4.77061">
        <ele>261.1</ele>
        <time>2013-03-10T08:05:24.64Z</time>
      </trkpt>
      <trkpt lat="45.86891" lon="4.77059">
        <ele>261.2</ele>
        <time>2013-03-10T08:05:25.64Z</time>
      </trkpt>
      <trkpt lat="45.86888" lon="4.77057">
        <ele>261.2</ele>
        <time>2013-03-10T08:05:26.64Z</time>
      </trkpt>
      <trkpt lat="45.86882" lon="4.77054">
        <ele>261.5</ele>
        <time>2013-03-10T08:05:28.67Z</time>
      </trkpt>
      <trkpt lat="45.86876" lon="4.77051">
        <ele>261.9</ele>
        <time>2013-03-10T08:05:30.56Z</time>
      </trkpt>
      <trkpt lat="45.86872" lon="4.7705">
        <ele>262.1</ele>
        <time>2013-03-10T08:05:31.56Z</time>
      </trkpt>
      <trkpt lat="45.86868" lon="4.77049">
        <ele>262.3</ele>
        <time>2013-03-10T08:05:32.56Z</time>
      </trkpt>
      <trkpt lat="45.86866" lon="4.77048">
        <ele>262.4</ele>
        <time>2013-03-10T08:05:33.57Z</time>
      </trkpt>
      <trkpt lat="45.86863" lon="4.77046">
        <ele>262.5</ele>
        <time>2013-03-10T08:05:34.63Z</time>
      </trkpt>
      <trkpt lat="45.8686" lon="4.77044">
        <ele>262.6</ele>
        <time>2013-03-10T08:05:35.63Z</time>
      </trkpt>
      <trkpt lat="45.86858" lon="4.77043">
        <ele>262.8</ele>
        <time>2013-03-10T08:05:36.64Z</time>
      </trkpt>
      <trkpt lat="45.86854" lon="4.77043">
        <ele>263</ele>
        <time>2013-03-10T08:05:37.63Z</time>
      </trkpt>
      <trkpt lat="45.86851" lon="4.77041">
        <ele>263.2</ele>
        <time>2013-03-10T08:05:38.71Z</time>
      </trkpt>
      <trkpt lat="45.86844" lon="4.77039">
        <ele>263.7</ele>
        <time>2013-03-10T08:05:40.56Z</time>
      </trkpt>
      <trkpt lat="45.8684" lon="4.77037">
        <ele>263.8</ele>
        <time>2013-03-10T08:05:41.57Z</time>
      </trkpt>
      <trkpt lat="45.86837" lon="4.77036">
        <ele>264</ele>
        <time>2013-03-10T08:05:42.56Z</time>
      </trkpt>
      <trkpt lat="45.86834" lon="4.77035">
        <ele>264.2</ele>
        <time>2013-03-10T08:05:43.56Z</time>
      </trkpt>
      <trkpt lat="45.8683" lon="4.77035">
        <ele>264.4</ele>
        <time>2013-03-10T08:05:44.56Z</time>
      </trkpt>
      <trkpt lat="45.86827" lon="4.77033">
        <ele>264.5</ele>
        <time>2013-03-10T08:05:45.56Z</time>
      </trkpt>
      <trkpt lat="45.86823" lon="4.77032">
        <ele>264.6</ele>
        <time>2013-03-10T08:05:46.56Z</time>
      </trkpt>
      <trkpt lat="45.8682" lon="4.77031">
        <ele>264.6</ele>
        <time>2013-03-10T08:05:47.56Z</time>
      </trkpt>
      <trkpt lat="45.86817" lon="4.7703">
        <ele>264.7</ele>
        <time>2013-03-10T08:05:48.56Z</time>
      </trkpt>
      <trkpt lat="45.86814" lon="4.77028">
        <ele>264.7</ele>
        <time>2013-03-10T08:05:49.56Z</time>
      </trkpt>
      <trkpt lat="45.86811" lon="4.77028">
        <ele>264.8</ele>
        <time>2013-03-10T08:05:50.57Z</time>
      </trkpt>
      <trkpt lat="45.86808" lon="4.77027">
        <ele>265</ele>
        <time>2013-03-10T08:05:51.63Z</time>
      </trkpt>
      <trkpt lat="45.86805" lon="4.77027">
        <ele>265.2</ele>
        <time>2013-03-10T08:05:52.63Z</time>
      </trkpt>
      <trkpt lat="45.86803" lon="4.77026">
        <ele>265.4</ele>
        <time>2013-03-10T08:05:53.66Z</time>
      </trkpt>
      <trkpt lat="45.86796" lon="4.77028">
        <ele>265.7</ele>
        <time>2013-03-10T08:05:55.56Z</time>
      </trkpt>
      <trkpt lat="45.86793" lon="4.77029">
        <ele>266</ele>
        <time>2013-03-10T08:05:56.56Z</time>
      </trkpt>
      <trkpt lat="45.8679" lon="4.7703">
        <ele>266.2</ele>
        <time>2013-03-10T08:05:57.56Z</time>
      </trkpt>
      <trkpt lat="45.86787" lon="4.77031">
        <ele>266.5</ele>
        <time>2013-03-10T08:05:58.56Z</time>
      </trkpt>
      <trkpt lat="45.86785" lon="4.77032">
        <ele>269.7</ele>
        <time>2013-03-10T08:05:59.68Z</time>
      </trkpt>
      <trkpt lat="45.86781" lon="4.77034">
        <ele>267</ele>
        <time>2013-03-10T08:06:01.56Z</time>
      </trkpt>
      <trkpt lat="45.86777" lon="4.77036">
        <ele>267.4</ele>
        <time>2013-03-10T08:06:02.56Z</time>
      </trkpt>
      <trkpt lat="45.86774" lon="4.77038">
        <ele>267.8</ele>
        <time>2013-03-10T08:06:03.56Z</time>
      </trkpt>
      <trkpt lat="45.8677" lon="4.7704">
        <ele>268.2</ele>
        <time>2013-03-10T08:06:04.56Z</time>
      </trkpt>
      <trkpt lat="45.86766" lon="4.77041">
        <ele>268.5</ele>
        <time>2013-03-10T08:06:05.56Z</time>
      </trkpt>
      <trkpt lat="45.86763" lon="4.77042">
        <ele>268.9</ele>
        <time>2013-03-10T08:06:06.56Z</time>
      </trkpt>
      <trkpt lat="45.8676" lon="4.77042">
        <ele>269.1</ele>
        <time>2013-03-10T08:06:07.56Z</time>
      </trkpt>
      <trkpt lat="45.86758" lon="4.77043">
        <ele>269.3</ele>
        <time>2013-03-10T08:06:08.56Z</time>
      </trkpt>
      <trkpt lat="45.86755" lon="4.77044">
        <ele>269.4</ele>
        <time>2013-03-10T08:06:09.56Z</time>
      </trkpt>
      <trkpt lat="45.86752" lon="4.77046">
        <ele>269.5</ele>
        <time>2013-03-10T08:06:10.56Z</time>
      </trkpt>
      <trkpt lat="45.8675" lon="4.77047">
        <ele>269.6</ele>
        <time>2013-03-10T08:06:11.56Z</time>
      </trkpt>
      <trkpt lat="45.86747" lon="4.77048">
        <ele>269.8</ele>
        <time>2013-03-10T08:06:12.56Z</time>
      </trkpt>
      <trkpt lat="45.86744" lon="4.77049">
        <ele>270</ele>
        <time>2013-03-10T08:06:13.56Z</time>
      </trkpt>
      <trkpt lat="45.86741" lon="4.7705">
        <ele>270.2</ele>
        <time>2013-03-10T08:06:14.56Z</time>
      </trkpt>
      <trkpt lat="45.86737" lon="4.77051">
        <ele>270.3</ele>
        <time>2013-03-10T08:06:15.56Z</time>
      </trkpt>
      <trkpt lat="45.86733" lon="4.77052">
        <ele>270.6</ele>
        <time>2013-03-10T08:06:16.57Z</time>
      </trkpt>
      <trkpt lat="45.8673" lon="4.77052">
        <ele>270.8</ele>
        <time>2013-03-10T08:06:17.56Z</time>
      </trkpt>
      <trkpt lat="45.86727" lon="4.77053">
        <ele>270.9</ele>
        <time>2013-03-10T08:06:18.56Z</time>
      </trkpt>
      <trkpt lat="45.86723" lon="4.77054">
        <ele>271.1</ele>
        <time>2013-03-10T08:06:19.56Z</time>
      </trkpt>
      <trkpt lat="45.8672" lon="4.77055">
        <ele>271.3</ele>
        <time>2013-03-10T08:06:20.56Z</time>
      </trkpt>
      <trkpt lat="45.86718" lon="4.77055">
        <ele>271.6</ele>
        <time>2013-03-10T08:06:21.56Z</time>
      </trkpt>
      <trkpt lat="45.86715" lon="4.77055">
        <ele>271.9</ele>
        <time>2013-03-10T08:06:22.56Z</time>
      </trkpt>
      <trkpt lat="45.86712" lon="4.77055">
        <ele>272.2</ele>
        <time>2013-03-10T08:06:23.56Z</time>
      </trkpt>
      <trkpt lat="45.86709" lon="4.77056">
        <ele>272.5</ele>
        <time>2013-03-10T08:06:24.56Z</time>
      </trkpt>
      <trkpt lat="45.86706" lon="4.77055">
        <ele>272.8</ele>
        <time>2013-03-10T08:06:25.56Z</time>
      </trkpt>
      <trkpt lat="45.86703" lon="4.77055">
        <ele>273.1</ele>
        <time>2013-03-10T08:06:26.56Z</time>
      </trkpt>
      <trkpt lat="45.86701" lon="4.77055">
        <ele>273.5</ele>
        <time>2013-03-10T08:06:27.56Z</time>
      </trkpt>
      <trkpt lat="45.86698" lon="4.77054">
        <ele>273.9</ele>
        <time>2013-03-10T08:06:28.56Z</time>
      </trkpt>
      <trkpt lat="45.86695" lon="4.77054">
        <ele>274.3</ele>
        <time>2013-03-10T08:06:29.58Z</time>
      </trkpt>
      <trkpt lat="45.86692" lon="4.77053">
        <ele>274.9</ele>
        <time>2013-03-10T08:06:30.56Z</time>
      </trkpt>
      <trkpt lat="45.8669" lon="4.77054">
        <ele>275.3</ele>
        <time>2013-03-10T08:06:31.56Z</time>
      </trkpt>
      <trkpt lat="45.86687" lon="4.77054">
        <ele>276</ele>
        <time>2013-03-10T08:06:32.56Z</time>
      </trkpt>
      <trkpt lat="45.86684" lon="4.77055">
        <ele>276.4</ele>
        <time>2013-03-10T08:06:33.57Z</time>
      </trkpt>
      <trkpt lat="45.86682" lon="4.77056">
        <ele>276.6</ele>
        <time>2013-03-10T08:06:34.62Z</time>
      </trkpt>
      <trkpt lat="45.8668" lon="4.77057">
        <ele>277.1</ele>
        <time>2013-03-10T08:06:35.62Z</time>
      </trkpt>
      <trkpt lat="45.86678" lon="4.77058">
        <ele>277.5</ele>
        <time>2013-03-10T08:06:36.6Z</time>
      </trkpt>
      <trkpt lat="45.86675" lon="4.7706">
        <ele>277.9</ele>
        <time>2013-03-10T08:06:37.63Z</time>
      </trkpt>
      <trkpt lat="45.86673" lon="4.77062">
        <ele>278.2</ele>
        <time>2013-03-10T08:06:38.73Z</time>
      </trkpt>
      <trkpt lat="45.86668" lon="4.77066">
        <ele>278.6</ele>
        <time>2013-03-10T08:06:40.62Z</time>
      </trkpt>
      <trkpt lat="45.86666" lon="4.77068">
        <ele>279</ele>
        <time>2013-03-10T08:06:41.62Z</time>
      </trkpt>
      <trkpt lat="45.86661" lon="4.77071">
        <ele>279.6</ele>
        <time>2013-03-10T08:06:43.73Z</time>
      </trkpt>
      <trkpt lat="45.86656" lon="4.77075">
        <ele>280</ele>
        <time>2013-03-10T08:06:45.56Z</time>
      </trkpt>
      <trkpt lat="45.86655" lon="4.77077">
        <ele>280</ele>
        <time>2013-03-10T08:06:46.56Z</time>
      </trkpt>
      <trkpt lat="45.86653" lon="4.77078">
        <ele>280.2</ele>
        <time>2013-03-10T08:06:47.56Z</time>
      </trkpt>
      <trkpt lat="45.86651" lon="4.7708">
        <ele>280.3</ele>
        <time>2013-03-10T08:06:48.56Z</time>
      </trkpt>
      <trkpt lat="45.86649" lon="4.77083">
        <ele>280.3</ele>
        <time>2013-03-10T08:06:49.56Z</time>
      </trkpt>
      <trkpt lat="45.86647" lon="4.77084">
        <ele>280.5</ele>
        <time>2013-03-10T08:06:50.67Z</time>
      </trkpt>
      <trkpt lat="45.86642" lon="4.77089">
        <ele>281.2</ele>
        <time>2013-03-10T08:06:52.56Z</time>
      </trkpt>
      <trkpt lat="45.86639" lon="4.77091">
        <ele>281.5</ele>
        <time>2013-03-10T08:06:53.56Z</time>
      </trkpt>
      <trkpt lat="45.86637" lon="4.77092">
        <ele>281.7</ele>
        <time>2013-03-10T08:06:54.56Z</time>
      </trkpt>
      <trkpt lat="45.86634" lon="4.77095">
        <ele>282.1</ele>
        <time>2013-03-10T08:06:55.58Z</time>
      </trkpt>
      <trkpt lat="45.86631" lon="4.77096">
        <ele>282.5</ele>
        <time>2013-03-10T08:06:56.56Z</time>
      </trkpt>
      <trkpt lat="45.86628" lon="4.77098">
        <ele>282.8</ele>
        <time>2013-03-10T08:06:57.56Z</time>
      </trkpt>
      <trkpt lat="45.86626" lon="4.771">
        <ele>283.1</ele>
        <time>2013-03-10T08:06:58.56Z</time>
      </trkpt>
      <trkpt lat="45.86623" lon="4.77102">
        <ele>284.8</ele>
        <time>2013-03-10T08:06:59.64Z</time>
      </trkpt>
      <trkpt lat="45.86619" lon="4.77104">
        <ele>283.7</ele>
        <time>2013-03-10T08:07:01.56Z</time>
      </trkpt>
      <trkpt lat="45.86617" lon="4.77105">
        <ele>283.9</ele>
        <time>2013-03-10T08:07:02.56Z</time>
      </trkpt>
      <trkpt lat="45.86615" lon="4.77105">
        <ele>284.2</ele>
        <time>2013-03-10T08:07:03.56Z</time>
      </trkpt>
      <trkpt lat="45.86613" lon="4.77105">
        <ele>284.5</ele>
        <time>2013-03-10T08:07:04.56Z</time>
      </trkpt>
      <trkpt lat="45.86611" lon="4.77106">
        <ele>284.8</ele>
        <time>2013-03-10T08:07:05.56Z</time>
      </trkpt>
      <trkpt lat="45.86608" lon="4.77106">
        <ele>285.2</ele>
        <time>2013-03-10T08:07:06.56Z</time>
      </trkpt>
      <trkpt lat="45.86605" lon="4.77107">
        <ele>285.5</ele>
        <time>2013-03-10T08:07:07.56Z</time>
      </trkpt>
      <trkpt lat="45.86602" lon="4.77108">
        <ele>285.8</ele>
        <time>2013-03-10T08:07:08.56Z</time>
      </trkpt>
      <trkpt lat="45.86599" lon="4.77109">
        <ele>286</ele>
        <time>2013-03-10T08:07:09.57Z</time>
      </trkpt>
      <trkpt lat="45.86597" lon="4.7711">
        <ele>286.2</ele>
        <time>2013-03-10T08:07:10.56Z</time>
      </trkpt>
      <trkpt lat="45.86594" lon="4.77111">
        <ele>286.4</ele>
        <time>2013-03-10T08:07:11.56Z</time>
      </trkpt>
      <trkpt lat="45.86592" lon="4.77113">
        <ele>286.6</ele>
        <time>2013-03-10T08:07:12.56Z</time>
      </trkpt>
      <trkpt lat="45.8659" lon="4.77114">
        <ele>286.9</ele>
        <time>2013-03-10T08:07:13.56Z</time>
      </trkpt>
      <trkpt lat="45.86588" lon="4.77114">
        <ele>287.1</ele>
        <time>2013-03-10T08:07:14.56Z</time>
      </trkpt>
      <trkpt lat="45.86586" lon="4.77115">
        <ele>287.3</ele>
        <time>2013-03-10T08:07:15.56Z</time>
      </trkpt>
      <trkpt lat="45.86583" lon="4.77115">
        <ele>287.5</ele>
        <time>2013-03-10T08:07:16.57Z</time>
      </trkpt>
      <trkpt lat="45.86581" lon="4.77116">
        <ele>288</ele>
        <time>2013-03-10T08:07:17.61Z</time>
      </trkpt>
      <trkpt lat="45.86579" lon="4.77117">
        <ele>288.1</ele>
        <time>2013-03-10T08:07:18.66Z</time>
      </trkpt>
      <trkpt lat="45.86575" lon="4.77121">
        <ele>288.3</ele>
        <time>2013-03-10T08:07:20.61Z</time>
      </trkpt>
      <trkpt lat="45.86572" lon="4.77123">
        <ele>288.5</ele>
        <time>2013-03-10T08:07:21.61Z</time>
      </trkpt>
      <trkpt lat="45.8657" lon="4.77126">
        <ele>288.6</ele>
        <time>2013-03-10T08:07:22.61Z</time>
      </trkpt>
      <trkpt lat="45.86566" lon="4.77128">
        <ele>288.9</ele>
        <time>2013-03-10T08:07:23.68Z</time>
      </trkpt>
      <trkpt lat="45.86561" lon="4.7713">
        <ele>289.4</ele>
        <time>2013-03-10T08:07:25.61Z</time>
      </trkpt>
      <trkpt lat="45.86557" lon="4.77131">
        <ele>290</ele>
        <time>2013-03-10T08:07:27.61Z</time>
      </trkpt>
      <trkpt lat="45.86554" lon="4.77132">
        <ele>290.2</ele>
        <time>2013-03-10T08:07:28.7Z</time>
      </trkpt>
      <trkpt lat="45.8655" lon="4.77135">
        <ele>290.4</ele>
        <time>2013-03-10T08:07:30.6Z</time>
      </trkpt>
      <trkpt lat="45.86547" lon="4.77137">
        <ele>290.6</ele>
        <time>2013-03-10T08:07:31.62Z</time>
      </trkpt>
      <trkpt lat="45.86541" lon="4.7714">
        <ele>291.1</ele>
        <time>2013-03-10T08:07:33.68Z</time>
      </trkpt>
      <trkpt lat="45.86536" lon="4.77141">
        <ele>291.7</ele>
        <time>2013-03-10T08:07:35.62Z</time>
      </trkpt>
      <trkpt lat="45.86529" lon="4.77144">
        <ele>292.5</ele>
        <time>2013-03-10T08:07:37.58Z</time>
      </trkpt>
      <trkpt lat="45.86526" lon="4.77145">
        <ele>292.7</ele>
        <time>2013-03-10T08:07:38.73Z</time>
      </trkpt>
      <trkpt lat="45.8652" lon="4.77148">
        <ele>293.4</ele>
        <time>2013-03-10T08:07:40.6Z</time>
      </trkpt>
      <trkpt lat="45.86517" lon="4.77148">
        <ele>293.7</ele>
        <time>2013-03-10T08:07:41.6Z</time>
      </trkpt>
      <trkpt lat="45.86515" lon="4.77148">
        <ele>294.1</ele>
        <time>2013-03-10T08:07:42.6Z</time>
      </trkpt>
      <trkpt lat="45.86512" lon="4.77147">
        <ele>294.5</ele>
        <time>2013-03-10T08:07:43.69Z</time>
      </trkpt>
      <trkpt lat="45.86506" lon="4.77146">
        <ele>295.2</ele>
        <time>2013-03-10T08:07:45.6Z</time>
      </trkpt>
      <trkpt lat="45.86504" lon="4.77146">
        <ele>295.5</ele>
        <time>2013-03-10T08:07:46.6Z</time>
      </trkpt>
      <trkpt lat="45.86502" lon="4.77146">
        <ele>295.8</ele>
        <time>2013-03-10T08:07:47.62Z</time>
      </trkpt>
      <trkpt lat="45.86499" lon="4.77146">
        <ele>296.2</ele>
        <time>2013-03-10T08:07:48.65Z</time>
      </trkpt>
      <trkpt lat="45.86494" lon="4.77147">
        <ele>297.1</ele>
        <time>2013-03-10T08:07:50.65Z</time>
      </trkpt>
      <trkpt lat="45.8649" lon="4.77143">
        <ele>297.8</ele>
        <time>2013-03-10T08:07:52.56Z</time>
      </trkpt>
      <trkpt lat="45.86489" lon="4.77141">
        <ele>298</ele>
        <time>2013-03-10T08:07:53.56Z</time>
      </trkpt>
      <trkpt lat="45.86488" lon="4.77139">
        <ele>298.2</ele>
        <time>2013-03-10T08:07:54.56Z</time>
      </trkpt>
      <trkpt lat="45.86487" lon="4.77137">
        <ele>298.5</ele>
        <time>2013-03-10T08:07:55.6Z</time>
      </trkpt>
      <trkpt lat="45.86487" lon="4.77135">
        <ele>299</ele>
        <time>2013-03-10T08:07:56.6Z</time>
      </trkpt>
      <trkpt lat="45.86486" lon="4.77133">
        <ele>299.5</ele>
        <time>2013-03-10T08:07:57.62Z</time>
      </trkpt>
      <trkpt lat="45.86485" lon="4.77131">
        <ele>300</ele>
        <time>2013-03-10T08:07:58.66Z</time>
      </trkpt>
      <trkpt lat="45.86485" lon="4.77128">
        <ele>303.4</ele>
        <time>2013-03-10T08:07:59.59Z</time>
      </trkpt>
      <trkpt lat="45.86484" lon="4.77124">
        <ele>301.3</ele>
        <time>2013-03-10T08:08:01.57Z</time>
      </trkpt>
      <trkpt lat="45.86483" lon="4.77122">
        <ele>301.7</ele>
        <time>2013-03-10T08:08:02.56Z</time>
      </trkpt>
      <trkpt lat="45.86484" lon="4.77119">
        <ele>302.1</ele>
        <time>2013-03-10T08:08:03.56Z</time>
      </trkpt>
      <trkpt lat="45.86484" lon="4.77116">
        <ele>302.5</ele>
        <time>2013-03-10T08:08:04.56Z</time>
      </trkpt>
      <trkpt lat="45.86484" lon="4.77113">
        <ele>303</ele>
        <time>2013-03-10T08:08:05.56Z</time>
      </trkpt>
      <trkpt lat="45.86484" lon="4.7711">
        <ele>303.5</ele>
        <time>2013-03-10T08:08:06.6Z</time>
      </trkpt>
      <trkpt lat="45.86485" lon="4.77107">
        <ele>303.9</ele>
        <time>2013-03-10T08:08:07.63Z</time>
      </trkpt>
      <trkpt lat="45.86485" lon="4.77103">
        <ele>304.7</ele>
        <time>2013-03-10T08:08:09.56Z</time>
      </trkpt>
      <trkpt lat="45.86484" lon="4.77102">
        <ele>305</ele>
        <time>2013-03-10T08:08:10.56Z</time>
      </trkpt>
      <trkpt lat="45.86483" lon="4.77101">
        <ele>305.5</ele>
        <time>2013-03-10T08:08:11.56Z</time>
      </trkpt>
      <trkpt lat="45.86483" lon="4.77099">
        <ele>306</ele>
        <time>2013-03-10T08:08:12.57Z</time>
      </trkpt>
      <trkpt lat="45.86482" lon="4.77096">
        <ele>306.6</ele>
        <time>2013-03-10T08:08:13.56Z</time>
      </trkpt>
      <trkpt lat="45.86482" lon="4.77093">
        <ele>307.3</ele>
        <time>2013-03-10T08:08:14.59Z</time>
      </trkpt>
      <trkpt lat="45.86481" lon="4.7709">
        <ele>308</ele>
        <time>2013-03-10T08:08:15.59Z</time>
      </trkpt>
      <trkpt lat="45.86481" lon="4.77087">
        <ele>308.7</ele>
        <time>2013-03-10T08:08:16.65Z</time>
      </trkpt>
      <trkpt lat="45.86481" lon="4.7708">
        <ele>309.9</ele>
        <time>2013-03-10T08:08:18.67Z</time>
      </trkpt>
      <trkpt lat="45.8648" lon="4.77075">
        <ele>310.6</ele>
        <time>2013-03-10T08:08:20.56Z</time>
      </trkpt>
      <trkpt lat="45.86479" lon="4.77072">
        <ele>311</ele>
        <time>2013-03-10T08:08:21.56Z</time>
      </trkpt>
      <trkpt lat="45.86479" lon="4.77071">
        <ele>311.3</ele>
        <time>2013-03-10T08:08:22.56Z</time>
      </trkpt>
      <trkpt lat="45.86477" lon="4.77069">
        <ele>311.7</ele>
        <time>2013-03-10T08:08:23.56Z</time>
      </trkpt>
      <trkpt lat="45.86477" lon="4.77067">
        <ele>312</ele>
        <time>2013-03-10T08:08:24.59Z</time>
      </trkpt>
      <trkpt lat="45.86477" lon="4.77064">
        <ele>312.4</ele>
        <time>2013-03-10T08:08:25.59Z</time>
      </trkpt>
      <trkpt lat="45.86476" lon="4.77061">
        <ele>312.8</ele>
        <time>2013-03-10T08:08:26.62Z</time>
      </trkpt>
      <trkpt lat="45.86475" lon="4.77058">
        <ele>313.4</ele>
        <time>2013-03-10T08:08:28.56Z</time>
      </trkpt>
      <trkpt lat="45.86474" lon="4.77057">
        <ele>313.6</ele>
        <time>2013-03-10T08:08:29.59Z</time>
      </trkpt>
      <trkpt lat="45.86473" lon="4.77055">
        <ele>313.9</ele>
        <time>2013-03-10T08:08:30.59Z</time>
      </trkpt>
      <trkpt lat="45.86473" lon="4.77052">
        <ele>314.3</ele>
        <time>2013-03-10T08:08:31.59Z</time>
      </trkpt>
      <trkpt lat="45.86473" lon="4.7705">
        <ele>314.6</ele>
        <time>2013-03-10T08:08:32.62Z</time>
      </trkpt>
      <trkpt lat="45.86473" lon="4.77042">
        <ele>315.3</ele>
        <time>2013-03-10T08:08:34.59Z</time>
      </trkpt>
      <trkpt lat="45.86475" lon="4.77039">
        <ele>315.3</ele>
        <time>2013-03-10T08:08:35.59Z</time>
      </trkpt>
      <trkpt lat="45.86477" lon="4.77037">
        <ele>315.2</ele>
        <time>2013-03-10T08:08:36.62Z</time>
      </trkpt>
      <trkpt lat="45.86481" lon="4.77035">
        <ele>314.7</ele>
        <time>2013-03-10T08:08:38.65Z</time>
      </trkpt>
      <trkpt lat="45.86487" lon="4.77033">
        <ele>313.8</ele>
        <time>2013-03-10T08:08:40.63Z</time>
      </trkpt>
      <trkpt lat="45.86493" lon="4.7703">
        <ele>313.1</ele>
        <time>2013-03-10T08:08:42.56Z</time>
      </trkpt>
      <trkpt lat="45.86495" lon="4.77029">
        <ele>312.8</ele>
        <time>2013-03-10T08:08:43.56Z</time>
      </trkpt>
      <trkpt lat="45.86498" lon="4.77026">
        <ele>312.5</ele>
        <time>2013-03-10T08:08:44.59Z</time>
      </trkpt>
      <trkpt lat="45.86501" lon="4.77023">
        <ele>312.4</ele>
        <time>2013-03-10T08:08:45.59Z</time>
      </trkpt>
      <trkpt lat="45.86503" lon="4.7702">
        <ele>312.4</ele>
        <time>2013-03-10T08:08:46.63Z</time>
      </trkpt>
      <trkpt lat="45.86509" lon="4.77016">
        <ele>311.9</ele>
        <time>2013-03-10T08:08:48.56Z</time>
      </trkpt>
      <trkpt lat="45.86513" lon="4.77014">
        <ele>311.6</ele>
        <time>2013-03-10T08:08:49.59Z</time>
      </trkpt>
      <trkpt lat="45.86517" lon="4.77013">
        <ele>311.2</ele>
        <time>2013-03-10T08:08:50.74Z</time>
      </trkpt>
      <trkpt lat="45.86525" lon="4.77009">
        <ele>310.5</ele>
        <time>2013-03-10T08:08:52.58Z</time>
      </trkpt>
      <trkpt lat="45.86529" lon="4.77006">
        <ele>310.1</ele>
        <time>2013-03-10T08:08:53.7Z</time>
      </trkpt>
      <trkpt lat="45.86537" lon="4.77003">
        <ele>309.3</ele>
        <time>2013-03-10T08:08:55.56Z</time>
      </trkpt>
      <trkpt lat="45.8654" lon="4.77001">
        <ele>309.1</ele>
        <time>2013-03-10T08:08:56.56Z</time>
      </trkpt>
      <trkpt lat="45.86544" lon="4.77001">
        <ele>308.6</ele>
        <time>2013-03-10T08:08:57.56Z</time>
      </trkpt>
      <trkpt lat="45.86548" lon="4.77">
        <ele>308.1</ele>
        <time>2013-03-10T08:08:58.56Z</time>
      </trkpt>
      <trkpt lat="45.86552" lon="4.77">
        <ele>319.4</ele>
        <time>2013-03-10T08:08:59.59Z</time>
      </trkpt>
      <trkpt lat="45.86556" lon="4.76999">
        <ele>307.1</ele>
        <time>2013-03-10T08:09:00.58Z</time>
      </trkpt>
      <trkpt lat="45.86559" lon="4.76998">
        <ele>306.8</ele>
        <time>2013-03-10T08:09:01.59Z</time>
      </trkpt>
      <trkpt lat="45.86562" lon="4.76998">
        <ele>306.5</ele>
        <time>2013-03-10T08:09:02.62Z</time>
      </trkpt>
      <trkpt lat="45.86567" lon="4.76997">
        <ele>306.1</ele>
        <time>2013-03-10T08:09:04.56Z</time>
      </trkpt>
      <trkpt lat="45.86569" lon="4.76996">
        <ele>305.9</ele>
        <time>2013-03-10T08:09:05.58Z</time>
      </trkpt>
      <trkpt lat="45.86572" lon="4.76994">
        <ele>305.7</ele>
        <time>2013-03-10T08:09:06.58Z</time>
      </trkpt>
      <trkpt lat="45.86574" lon="4.76993">
        <ele>305.5</ele>
        <time>2013-03-10T08:09:07.62Z</time>
      </trkpt>
      <trkpt lat="45.86581" lon="4.7699">
        <ele>305</ele>
        <time>2013-03-10T08:09:09.58Z</time>
      </trkpt>
      <trkpt lat="45.86585" lon="4.76987">
        <ele>304.8</ele>
        <time>2013-03-10T08:09:10.63Z</time>
      </trkpt>
      <trkpt lat="45.86593" lon="4.76984">
        <ele>303.9</ele>
        <time>2013-03-10T08:09:12.56Z</time>
      </trkpt>
      <trkpt lat="45.86596" lon="4.76982">
        <ele>303.7</ele>
        <time>2013-03-10T08:09:13.56Z</time>
      </trkpt>
      <trkpt lat="45.86599" lon="4.7698">
        <ele>303.4</ele>
        <time>2013-03-10T08:09:14.58Z</time>
      </trkpt>
      <trkpt lat="45.86602" lon="4.7698">
        <ele>303</ele>
        <time>2013-03-10T08:09:15.58Z</time>
      </trkpt>
      <trkpt lat="45.86605" lon="4.76978">
        <ele>302.7</ele>
        <time>2013-03-10T08:09:16.63Z</time>
      </trkpt>
      <trkpt lat="45.86608" lon="4.76975">
        <ele>302.3</ele>
        <time>2013-03-10T08:09:17.56Z</time>
      </trkpt>
      <trkpt lat="45.86612" lon="4.76974">
        <ele>301.7</ele>
        <time>2013-03-10T08:09:18.65Z</time>
      </trkpt>
      <trkpt lat="45.86621" lon="4.7697">
        <ele>300.7</ele>
        <time>2013-03-10T08:09:20.56Z</time>
      </trkpt>
      <trkpt lat="45.86624" lon="4.76968">
        <ele>300.3</ele>
        <time>2013-03-10T08:09:21.56Z</time>
      </trkpt>
      <trkpt lat="45.86628" lon="4.76965">
        <ele>300</ele>
        <time>2013-03-10T08:09:22.56Z</time>
      </trkpt>
      <trkpt lat="45.86632" lon="4.76963">
        <ele>299.6</ele>
        <time>2013-03-10T08:09:23.67Z</time>
      </trkpt>
      <trkpt lat="45.8664" lon="4.76958">
        <ele>298.9</ele>
        <time>2013-03-10T08:09:25.56Z</time>
      </trkpt>
      <trkpt lat="45.86644" lon="4.76956">
        <ele>298.4</ele>
        <time>2013-03-10T08:09:26.56Z</time>
      </trkpt>
      <trkpt lat="45.86648" lon="4.76953">
        <ele>298.1</ele>
        <time>2013-03-10T08:09:27.56Z</time>
      </trkpt>
      <trkpt lat="45.86652" lon="4.7695">
        <ele>297.8</ele>
        <time>2013-03-10T08:09:28.56Z</time>
      </trkpt>
      <trkpt lat="45.86656" lon="4.76947">
        <ele>297.4</ele>
        <time>2013-03-10T08:09:29.56Z</time>
      </trkpt>
      <trkpt lat="45.86659" lon="4.76944">
        <ele>297.1</ele>
        <time>2013-03-10T08:09:30.57Z</time>
      </trkpt>
      <trkpt lat="45.86664" lon="4.76942">
        <ele>296.5</ele>
        <time>2013-03-10T08:09:31.57Z</time>
      </trkpt>
      <trkpt lat="45.86668" lon="4.7694">
        <ele>296</ele>
        <time>2013-03-10T08:09:32.63Z</time>
      </trkpt>
      <trkpt lat="45.86677" lon="4.76935">
        <ele>294.9</ele>
        <time>2013-03-10T08:09:34.56Z</time>
      </trkpt>
      <trkpt lat="45.8668" lon="4.76932">
        <ele>294.5</ele>
        <time>2013-03-10T08:09:35.56Z</time>
      </trkpt>
      <trkpt lat="45.86684" lon="4.76929">
        <ele>294.1</ele>
        <time>2013-03-10T08:09:36.56Z</time>
      </trkpt>
      <trkpt lat="45.86688" lon="4.76927">
        <ele>293.6</ele>
        <time>2013-03-10T08:09:37.56Z</time>
      </trkpt>
      <trkpt lat="45.86691" lon="4.76924">
        <ele>293.2</ele>
        <time>2013-03-10T08:09:38.56Z</time>
      </trkpt>
      <trkpt lat="45.86694" lon="4.7692">
        <ele>292.9</ele>
        <time>2013-03-10T08:09:39.57Z</time>
      </trkpt>
      <trkpt lat="45.86697" lon="4.76916">
        <ele>292.6</ele>
        <time>2013-03-10T08:09:40.69Z</time>
      </trkpt>
      <trkpt lat="45.86703" lon="4.76907">
        <ele>292.1</ele>
        <time>2013-03-10T08:09:42.62Z</time>
      </trkpt>
      <trkpt lat="45.86707" lon="4.76897">
        <ele>291.5</ele>
        <time>2013-03-10T08:09:44.69Z</time>
      </trkpt>
      <trkpt lat="45.86713" lon="4.76886">
        <ele>290.7</ele>
        <time>2013-03-10T08:09:46.62Z</time>
      </trkpt>
      <trkpt lat="45.86718" lon="4.76876">
        <ele>289.7</ele>
        <time>2013-03-10T08:09:48.56Z</time>
      </trkpt>
      <trkpt lat="45.86721" lon="4.76871">
        <ele>289.2</ele>
        <time>2013-03-10T08:09:49.58Z</time>
      </trkpt>
      <trkpt lat="45.86724" lon="4.76867">
        <ele>288.8</ele>
        <time>2013-03-10T08:09:50.66Z</time>
      </trkpt>
      <trkpt lat="45.8673" lon="4.76863">
        <ele>287.9</ele>
        <time>2013-03-10T08:09:52.61Z</time>
      </trkpt>
      <trkpt lat="45.86735" lon="4.76864">
        <ele>287.2</ele>
        <time>2013-03-10T08:09:54.57Z</time>
      </trkpt>
      <trkpt lat="45.86738" lon="4.76864">
        <ele>286.8</ele>
        <time>2013-03-10T08:09:55.62Z</time>
      </trkpt>
      <trkpt lat="45.86744" lon="4.76867">
        <ele>286.1</ele>
        <time>2013-03-10T08:09:57.57Z</time>
      </trkpt>
      <trkpt lat="45.86748" lon="4.76869">
        <ele>285.6</ele>
        <time>2013-03-10T08:09:58.69Z</time>
      </trkpt>
      <trkpt lat="45.86755" lon="4.76869">
        <ele>299.8</ele>
        <time>2013-03-10T08:10:00.56Z</time>
      </trkpt>
      <trkpt lat="45.86758" lon="4.76868">
        <ele>284.1</ele>
        <time>2013-03-10T08:10:01.56Z</time>
      </trkpt>
      <trkpt lat="45.86761" lon="4.76865">
        <ele>283.6</ele>
        <time>2013-03-10T08:10:02.56Z</time>
      </trkpt>
      <trkpt lat="45.86762" lon="4.76861">
        <ele>283.2</ele>
        <time>2013-03-10T08:10:03.56Z</time>
      </trkpt>
      <trkpt lat="45.86763" lon="4.76857">
        <ele>283.1</ele>
        <time>2013-03-10T08:10:04.58Z</time>
      </trkpt>
      <trkpt lat="45.86762" lon="4.76853">
        <ele>283.2</ele>
        <time>2013-03-10T08:10:05.57Z</time>
      </trkpt>
      <trkpt lat="45.8676" lon="4.76848">
        <ele>283.4</ele>
        <time>2013-03-10T08:10:06.62Z</time>
      </trkpt>
      <trkpt lat="45.86758" lon="4.7684">
        <ele>283.7</ele>
        <time>2013-03-10T08:10:08.56Z</time>
      </trkpt>
      <trkpt lat="45.86757" lon="4.76836">
        <ele>283.8</ele>
        <time>2013-03-10T08:10:09.65Z</time>
      </trkpt>
      <trkpt lat="45.86754" lon="4.76827">
        <ele>284.1</ele>
        <time>2013-03-10T08:10:11.58Z</time>
      </trkpt>
      <trkpt lat="45.86752" lon="4.76824">
        <ele>284.3</ele>
        <time>2013-03-10T08:10:12.66Z</time>
      </trkpt>
      <trkpt lat="45.86749" lon="4.76817">
        <ele>284.5</ele>
        <time>2013-03-10T08:10:14.66Z</time>
      </trkpt>
      <trkpt lat="45.86745" lon="4.7681">
        <ele>284.8</ele>
        <time>2013-03-10T08:10:16.62Z</time>
      </trkpt>
      <trkpt lat="45.8674" lon="4.76805">
        <ele>285</ele>
        <time>2013-03-10T08:10:18.69Z</time>
      </trkpt>
      <trkpt lat="45.86735" lon="4.76802">
        <ele>285.4</ele>
        <time>2013-03-10T08:10:20.57Z</time>
      </trkpt>
      <trkpt lat="45.86733" lon="4.76802">
        <ele>285.7</ele>
        <time>2013-03-10T08:10:21.69Z</time>
      </trkpt>
      <trkpt lat="45.86727" lon="4.76801">
        <ele>286.3</ele>
        <time>2013-03-10T08:10:23.56Z</time>
      </trkpt>
      <trkpt lat="45.86724" lon="4.76802">
        <ele>286.7</ele>
        <time>2013-03-10T08:10:24.66Z</time>
      </trkpt>
      <trkpt lat="45.86718" lon="4.76805">
        <ele>287.4</ele>
        <time>2013-03-10T08:10:26.66Z</time>
      </trkpt>
      <trkpt lat="45.86716" lon="4.76807">
        <ele>287.8</ele>
        <time>2013-03-10T08:10:27.56Z</time>
      </trkpt>
      <trkpt lat="45.86713" lon="4.76808">
        <ele>288.1</ele>
        <time>2013-03-10T08:10:28.66Z</time>
      </trkpt>
      <trkpt lat="45.86708" lon="4.76811">
        <ele>288.9</ele>
        <time>2013-03-10T08:10:30.66Z</time>
      </trkpt>
      <trkpt lat="45.86702" lon="4.76814">
        <ele>289.7</ele>
        <time>2013-03-10T08:10:32.56Z</time>
      </trkpt>
      <trkpt lat="45.86699" lon="4.76816">
        <ele>290.2</ele>
        <time>2013-03-10T08:10:33.71Z</time>
      </trkpt>
      <trkpt lat="45.86694" lon="4.7682">
        <ele>291.1</ele>
        <time>2013-03-10T08:10:35.56Z</time>
      </trkpt>
      <trkpt lat="45.86691" lon="4.76822">
        <ele>291.5</ele>
        <time>2013-03-10T08:10:36.66Z</time>
      </trkpt>
      <trkpt lat="45.86688" lon="4.76824">
        <ele>291.8</ele>
        <time>2013-03-10T08:10:37.56Z</time>
      </trkpt>
      <trkpt lat="45.86686" lon="4.76826">
        <ele>292.1</ele>
        <time>2013-03-10T08:10:38.66Z</time>
      </trkpt>
      <trkpt lat="45.8668" lon="4.7683">
        <ele>292.7</ele>
        <time>2013-03-10T08:10:40.66Z</time>
      </trkpt>
      <trkpt lat="45.86676" lon="4.76833">
        <ele>293.3</ele>
        <time>2013-03-10T08:10:42.57Z</time>
      </trkpt>
      <trkpt lat="45.86673" lon="4.76834">
        <ele>293.5</ele>
        <time>2013-03-10T08:10:43.68Z</time>
      </trkpt>
      <trkpt lat="45.86668" lon="4.76837">
        <ele>294</ele>
        <time>2013-03-10T08:10:45.56Z</time>
      </trkpt>
      <trkpt lat="45.86665" lon="4.76839">
        <ele>294.3</ele>
        <time>2013-03-10T08:10:46.7Z</time>
      </trkpt>
      <trkpt lat="45.8666" lon="4.76843">
        <ele>294.7</ele>
        <time>2013-03-10T08:10:48.56Z</time>
      </trkpt>
      <trkpt lat="45.86657" lon="4.76844">
        <ele>294.9</ele>
        <time>2013-03-10T08:10:49.65Z</time>
      </trkpt>
      <trkpt lat="45.86654" lon="4.76845">
        <ele>295.1</ele>
        <time>2013-03-10T08:10:50.57Z</time>
      </trkpt>
      <trkpt lat="45.86652" lon="4.76847">
        <ele>295.3</ele>
        <time>2013-03-10T08:10:51.69Z</time>
      </trkpt>
      <trkpt lat="45.86646" lon="4.76851">
        <ele>295.8</ele>
        <time>2013-03-10T08:10:53.56Z</time>
      </trkpt>
      <trkpt lat="45.86644" lon="4.76853">
        <ele>296.1</ele>
        <time>2013-03-10T08:10:54.65Z</time>
      </trkpt>
      <trkpt lat="45.86639" lon="4.76857">
        <ele>296.7</ele>
        <time>2013-03-10T08:10:56.65Z</time>
      </trkpt>
      <trkpt lat="45.86634" lon="4.76862">
        <ele>297.4</ele>
        <time>2013-03-10T08:10:58.68Z</time>
      </trkpt>
      <trkpt lat="45.86631" lon="4.76864">
        <ele>295.6</ele>
        <time>2013-03-10T08:10:59.7Z</time>
      </trkpt>
      <trkpt lat="45.86628" lon="4.76867">
        <ele>298.2</ele>
        <time>2013-03-10T08:11:00.69Z</time>
      </trkpt>
      <trkpt lat="45.86622" lon="4.76872">
        <ele>298.8</ele>
        <time>2013-03-10T08:11:02.56Z</time>
      </trkpt>
      <trkpt lat="45.8662" lon="4.76874">
        <ele>299</ele>
        <time>2013-03-10T08:11:03.66Z</time>
      </trkpt>
      <trkpt lat="45.86615" lon="4.76877">
        <ele>299.4</ele>
        <time>2013-03-10T08:11:05.56Z</time>
      </trkpt>
      <trkpt lat="45.86613" lon="4.76879">
        <ele>299.5</ele>
        <time>2013-03-10T08:11:06.65Z</time>
      </trkpt>
      <trkpt lat="45.86611" lon="4.76881">
        <ele>299.8</ele>
        <time>2013-03-10T08:11:07.56Z</time>
      </trkpt>
      <trkpt lat="45.86608" lon="4.76883">
        <ele>300.1</ele>
        <time>2013-03-10T08:11:08.67Z</time>
      </trkpt>
      <trkpt lat="45.86604" lon="4.76886">
        <ele>300.6</ele>
        <time>2013-03-10T08:11:10.56Z</time>
      </trkpt>
      <trkpt lat="45.86602" lon="4.76888">
        <ele>300.9</ele>
        <time>2013-03-10T08:11:11.65Z</time>
      </trkpt>
      <trkpt lat="45.86598" lon="4.76892">
        <ele>301.6</ele>
        <time>2013-03-10T08:11:13.65Z</time>
      </trkpt>
      <trkpt lat="45.86594" lon="4.76896">
        <ele>302.2</ele>
        <time>2013-03-10T08:11:15.69Z</time>
      </trkpt>
      <trkpt lat="45.86589" lon="4.76897">
        <ele>302.7</ele>
        <time>2013-03-10T08:11:17.56Z</time>
      </trkpt>
      <trkpt lat="45.86588" lon="4.76898">
        <ele>302.9</ele>
        <time>2013-03-10T08:11:18.66Z</time>
      </trkpt>
      <trkpt lat="45.86583" lon="4.76902">
        <ele>303.5</ele>
        <time>2013-03-10T08:11:20.65Z</time>
      </trkpt>
      <trkpt lat="45.86581" lon="4.76904">
        <ele>303.7</ele>
        <time>2013-03-10T08:11:21.56Z</time>
      </trkpt>
      <trkpt lat="45.86579" lon="4.76906">
        <ele>304</ele>
        <time>2013-03-10T08:11:22.65Z</time>
      </trkpt>
      <trkpt lat="45.86577" lon="4.76908">
        <ele>304.3</ele>
        <time>2013-03-10T08:11:23.56Z</time>
      </trkpt>
      <trkpt lat="45.86575" lon="4.76909">
        <ele>304.5</ele>
        <time>2013-03-10T08:11:24.65Z</time>
      </trkpt>
      <trkpt lat="45.86574" lon="4.76911">
        <ele>304.7</ele>
        <time>2013-03-10T08:11:25.56Z</time>
      </trkpt>
      <trkpt lat="45.86572" lon="4.76912">
        <ele>305</ele>
        <time>2013-03-10T08:11:26.65Z</time>
      </trkpt>
      <trkpt lat="45.86569" lon="4.76914">
        <ele>305.4</ele>
        <time>2013-03-10T08:11:27.56Z</time>
      </trkpt>
      <trkpt lat="45.86567" lon="4.76916">
        <ele>305.7</ele>
        <time>2013-03-10T08:11:28.66Z</time>
      </trkpt>
      <trkpt lat="45.86563" lon="4.7692">
        <ele>306.3</ele>
        <time>2013-03-10T08:11:30.64Z</time>
      </trkpt>
      <trkpt lat="45.86559" lon="4.76923">
        <ele>306.9</ele>
        <time>2013-03-10T08:11:32.56Z</time>
      </trkpt>
      <trkpt lat="45.86557" lon="4.76925">
        <ele>307.2</ele>
        <time>2013-03-10T08:11:33.71Z</time>
      </trkpt>
      <trkpt lat="45.86552" lon="4.76929">
        <ele>307.7</ele>
        <time>2013-03-10T08:11:35.64Z</time>
      </trkpt>
      <trkpt lat="45.8655" lon="4.76931">
        <ele>307.9</ele>
        <time>2013-03-10T08:11:36.57Z</time>
      </trkpt>
      <trkpt lat="45.86548" lon="4.76933">
        <ele>308.2</ele>
        <time>2013-03-10T08:11:37.64Z</time>
      </trkpt>
      <trkpt lat="45.86544" lon="4.76939">
        <ele>308.6</ele>
        <time>2013-03-10T08:11:39.64Z</time>
      </trkpt>
      <trkpt lat="45.86542" lon="4.76941">
        <ele>308.9</ele>
        <time>2013-03-10T08:11:40.56Z</time>
      </trkpt>
      <trkpt lat="45.8654" lon="4.76943">
        <ele>309.1</ele>
        <time>2013-03-10T08:11:41.64Z</time>
      </trkpt>
      <trkpt lat="45.86537" lon="4.76945">
        <ele>309.4</ele>
        <time>2013-03-10T08:11:42.56Z</time>
      </trkpt>
      <trkpt lat="45.86535" lon="4.76947">
        <ele>309.6</ele>
        <time>2013-03-10T08:11:43.67Z</time>
      </trkpt>
      <trkpt lat="45.8653" lon="4.7695">
        <ele>310.2</ele>
        <time>2013-03-10T08:11:45.57Z</time>
      </trkpt>
      <trkpt lat="45.86528" lon="4.76952">
        <ele>310.6</ele>
        <time>2013-03-10T08:11:46.64Z</time>
      </trkpt>
      <trkpt lat="45.86524" lon="4.76954">
        <ele>311.3</ele>
        <time>2013-03-10T08:11:48.56Z</time>
      </trkpt>
      <trkpt lat="45.86521" lon="4.76956">
        <ele>311.7</ele>
        <time>2013-03-10T08:11:49.64Z</time>
      </trkpt>
      <trkpt lat="45.86517" lon="4.7696">
        <ele>312.4</ele>
        <time>2013-03-10T08:11:51.64Z</time>
      </trkpt>
      <trkpt lat="45.86515" lon="4.76961">
        <ele>312.7</ele>
        <time>2013-03-10T08:11:52.56Z</time>
      </trkpt>
      <trkpt lat="45.86512" lon="4.76962">
        <ele>313</ele>
        <time>2013-03-10T08:11:53.69Z</time>
      </trkpt>
      <trkpt lat="45.86507" lon="4.76965">
        <ele>313.6</ele>
        <time>2013-03-10T08:11:55.56Z</time>
      </trkpt>
      <trkpt lat="45.86505" lon="4.76966">
        <ele>313.7</ele>
        <time>2013-03-10T08:11:56.64Z</time>
      </trkpt>
      <trkpt lat="45.86501" lon="4.76968">
        <ele>314.1</ele>
        <time>2013-03-10T08:11:58.56Z</time>
      </trkpt>
      <trkpt lat="45.86498" lon="4.76968">
        <ele>309.1</ele>
        <time>2013-03-10T08:11:59.59Z</time>
      </trkpt>
      <trkpt lat="45.86496" lon="4.76968">
        <ele>314.8</ele>
        <time>2013-03-10T08:12:00.64Z</time>
      </trkpt>
      <trkpt lat="45.86491" lon="4.76967">
        <ele>315.4</ele>
        <time>2013-03-10T08:12:02.64Z</time>
      </trkpt>
      <trkpt lat="45.86489" lon="4.76968">
        <ele>315.8</ele>
        <time>2013-03-10T08:12:03.66Z</time>
      </trkpt>
      <trkpt lat="45.86484" lon="4.76968">
        <ele>316.5</ele>
        <time>2013-03-10T08:12:05.56Z</time>
      </trkpt>
      <trkpt lat="45.86482" lon="4.76968">
        <ele>316.8</ele>
        <time>2013-03-10T08:12:06.56Z</time>
      </trkpt>
      <trkpt lat="45.8648" lon="4.76967">
        <ele>317.1</ele>
        <time>2013-03-10T08:12:07.56Z</time>
      </trkpt>
      <trkpt lat="45.86478" lon="4.76966">
        <ele>317.4</ele>
        <time>2013-03-10T08:12:08.56Z</time>
      </trkpt>
      <trkpt lat="45.86475" lon="4.76966">
        <ele>317.8</ele>
        <time>2013-03-10T08:12:09.64Z</time>
      </trkpt>
      <trkpt lat="45.86473" lon="4.76965">
        <ele>318.2</ele>
        <time>2013-03-10T08:12:10.62Z</time>
      </trkpt>
      <trkpt lat="45.86471" lon="4.76966">
        <ele>318.5</ele>
        <time>2013-03-10T08:12:11.63Z</time>
      </trkpt>
      <trkpt lat="45.86469" lon="4.76967">
        <ele>318.8</ele>
        <time>2013-03-10T08:12:12.64Z</time>
      </trkpt>
      <trkpt lat="45.86467" lon="4.76968">
        <ele>319.1</ele>
        <time>2013-03-10T08:12:13.72Z</time>
      </trkpt>
      <trkpt lat="45.86462" lon="4.76965">
        <ele>320.1</ele>
        <time>2013-03-10T08:12:15.56Z</time>
      </trkpt>
      <trkpt lat="45.86459" lon="4.76964">
        <ele>320.5</ele>
        <time>2013-03-10T08:12:16.57Z</time>
      </trkpt>
      <trkpt lat="45.86457" lon="4.76963">
        <ele>320.9</ele>
        <time>2013-03-10T08:12:17.56Z</time>
      </trkpt>
      <trkpt lat="45.86455" lon="4.76962">
        <ele>321.2</ele>
        <time>2013-03-10T08:12:18.56Z</time>
      </trkpt>
      <trkpt lat="45.86454" lon="4.76962">
        <ele>321.4</ele>
        <time>2013-03-10T08:12:19.56Z</time>
      </trkpt>
      <trkpt lat="45.86453" lon="4.76962">
        <ele>321.6</ele>
        <time>2013-03-10T08:12:20.56Z</time>
      </trkpt>
      <trkpt lat="45.86451" lon="4.76961">
        <ele>321.9</ele>
        <time>2013-03-10T08:12:21.56Z</time>
      </trkpt>
      <trkpt lat="45.86449" lon="4.76961">
        <ele>322.2</ele>
        <time>2013-03-10T08:12:22.56Z</time>
      </trkpt>
      <trkpt lat="45.86447" lon="4.7696">
        <ele>322.6</ele>
        <time>2013-03-10T08:12:23.56Z</time>
      </trkpt>
      <trkpt lat="45.86445" lon="4.76959">
        <ele>323</ele>
        <time>2013-03-10T08:12:24.56Z</time>
      </trkpt>
      <trkpt lat="45.86442" lon="4.76958">
        <ele>323.4</ele>
        <time>2013-03-10T08:12:25.56Z</time>
      </trkpt>
      <trkpt lat="45.86439" lon="4.76956">
        <ele>323.7</ele>
        <time>2013-03-10T08:12:26.56Z</time>
      </trkpt>
      <trkpt lat="45.86437" lon="4.76955">
        <ele>324</ele>
        <time>2013-03-10T08:12:27.56Z</time>
      </trkpt>
      <trkpt lat="45.86435" lon="4.76954">
        <ele>324.3</ele>
        <time>2013-03-10T08:12:28.56Z</time>
      </trkpt>
      <trkpt lat="45.86432" lon="4.76953">
        <ele>324.8</ele>
        <time>2013-03-10T08:12:29.56Z</time>
      </trkpt>
      <trkpt lat="45.86429" lon="4.76952">
        <ele>325.2</ele>
        <time>2013-03-10T08:12:30.56Z</time>
      </trkpt>
      <trkpt lat="45.86427" lon="4.76951">
        <ele>325.6</ele>
        <time>2013-03-10T08:12:31.56Z</time>
      </trkpt>
      <trkpt lat="45.86425" lon="4.7695">
        <ele>325.8</ele>
        <time>2013-03-10T08:12:32.56Z</time>
      </trkpt>
      <trkpt lat="45.86423" lon="4.76948">
        <ele>326.1</ele>
        <time>2013-03-10T08:12:33.57Z</time>
      </trkpt>
      <trkpt lat="45.86421" lon="4.76947">
        <ele>326.4</ele>
        <time>2013-03-10T08:12:34.63Z</time>
      </trkpt>
      <trkpt lat="45.86417" lon="4.76944">
        <ele>326.9</ele>
        <time>2013-03-10T08:12:36.61Z</time>
      </trkpt>
      <trkpt lat="45.86415" lon="4.76943">
        <ele>327.2</ele>
        <time>2013-03-10T08:12:37.63Z</time>
      </trkpt>
      <trkpt lat="45.86413" lon="4.76941">
        <ele>327.5</ele>
        <time>2013-03-10T08:12:38.67Z</time>
      </trkpt>
      <trkpt lat="45.86408" lon="4.76938">
        <ele>328.1</ele>
        <time>2013-03-10T08:12:40.63Z</time>
      </trkpt>
      <trkpt lat="45.86406" lon="4.76937">
        <ele>328.5</ele>
        <time>2013-03-10T08:12:41.63Z</time>
      </trkpt>
      <trkpt lat="45.86401" lon="4.76936">
        <ele>329.2</ele>
        <time>2013-03-10T08:12:43.65Z</time>
      </trkpt>
      <trkpt lat="45.86396" lon="4.76934">
        <ele>330</ele>
        <time>2013-03-10T08:12:45.63Z</time>
      </trkpt>
      <trkpt lat="45.86393" lon="4.76932">
        <ele>330.4</ele>
        <time>2013-03-10T08:12:46.63Z</time>
      </trkpt>
      <trkpt lat="45.86389" lon="4.7693">
        <ele>330.9</ele>
        <time>2013-03-10T08:12:47.63Z</time>
      </trkpt>
      <trkpt lat="45.86384" lon="4.76927">
        <ele>331.3</ele>
        <time>2013-03-10T08:12:49.56Z</time>
      </trkpt>
      <trkpt lat="45.8638" lon="4.76927">
        <ele>331.6</ele>
        <time>2013-03-10T08:12:50.57Z</time>
      </trkpt>
      <trkpt lat="45.86377" lon="4.76925">
        <ele>331.7</ele>
        <time>2013-03-10T08:12:51.63Z</time>
      </trkpt>
      <trkpt lat="45.86373" lon="4.76924">
        <ele>332</ele>
        <time>2013-03-10T08:12:53.64Z</time>
      </trkpt>
      <trkpt lat="45.86367" lon="4.76921">
        <ele>332.2</ele>
        <time>2013-03-10T08:12:55.62Z</time>
      </trkpt>
      <trkpt lat="45.86364" lon="4.76921">
        <ele>332.3</ele>
        <time>2013-03-10T08:12:56.63Z</time>
      </trkpt>
      <trkpt lat="45.86358" lon="4.7692">
        <ele>332.7</ele>
        <time>2013-03-10T08:12:58.68Z</time>
      </trkpt>
      <trkpt lat="45.86352" lon="4.76918">
        <ele>331.3</ele>
        <time>2013-03-10T08:13:00.63Z</time>
      </trkpt>
      <trkpt lat="45.86346" lon="4.76916">
        <ele>333</ele>
        <time>2013-03-10T08:13:02.63Z</time>
      </trkpt>
      <trkpt lat="45.86341" lon="4.76916">
        <ele>333.3</ele>
        <time>2013-03-10T08:13:04.56Z</time>
      </trkpt>
      <trkpt lat="45.86338" lon="4.76915">
        <ele>333.4</ele>
        <time>2013-03-10T08:13:05.56Z</time>
      </trkpt>
      <trkpt lat="45.86334" lon="4.76915">
        <ele>333.6</ele>
        <time>2013-03-10T08:13:06.56Z</time>
      </trkpt>
      <trkpt lat="45.86331" lon="4.76915">
        <ele>333.8</ele>
        <time>2013-03-10T08:13:07.56Z</time>
      </trkpt>
      <trkpt lat="45.86328" lon="4.76915">
        <ele>333.9</ele>
        <time>2013-03-10T08:13:08.65Z</time>
      </trkpt>
      <trkpt lat="45.86323" lon="4.76916">
        <ele>334.2</ele>
        <time>2013-03-10T08:13:10.56Z</time>
      </trkpt>
      <trkpt lat="45.86319" lon="4.76916">
        <ele>334.4</ele>
        <time>2013-03-10T08:13:11.56Z</time>
      </trkpt>
      <trkpt lat="45.86316" lon="4.76916">
        <ele>334.5</ele>
        <time>2013-03-10T08:13:12.56Z</time>
      </trkpt>
      <trkpt lat="45.86313" lon="4.76916">
        <ele>334.7</ele>
        <time>2013-03-10T08:13:13.56Z</time>
      </trkpt>
      <trkpt lat="45.86309" lon="4.76917">
        <ele>334.9</ele>
        <time>2013-03-10T08:13:14.62Z</time>
      </trkpt>
      <trkpt lat="45.86306" lon="4.76917">
        <ele>335</ele>
        <time>2013-03-10T08:13:15.63Z</time>
      </trkpt>
      <trkpt lat="45.86302" lon="4.76917">
        <ele>335.2</ele>
        <time>2013-03-10T08:13:16.59Z</time>
      </trkpt>
      <trkpt lat="45.86296" lon="4.76915">
        <ele>335.1</ele>
        <time>2013-03-10T08:13:18.56Z</time>
      </trkpt>
      <trkpt lat="45.86292" lon="4.76915">
        <ele>335.1</ele>
        <time>2013-03-10T08:13:19.56Z</time>
      </trkpt>
      <trkpt lat="45.86289" lon="4.76915">
        <ele>335.2</ele>
        <time>2013-03-10T08:13:20.62Z</time>
      </trkpt>
      <trkpt lat="45.86286" lon="4.76914">
        <ele>335.3</ele>
        <time>2013-03-10T08:13:21.62Z</time>
      </trkpt>
      <trkpt lat="45.86279" lon="4.76913">
        <ele>335.3</ele>
        <time>2013-03-10T08:13:23.67Z</time>
      </trkpt>
      <trkpt lat="45.86273" lon="4.76911">
        <ele>335.4</ele>
        <time>2013-03-10T08:13:25.56Z</time>
      </trkpt>
      <trkpt lat="45.8627" lon="4.76911">
        <ele>335.5</ele>
        <time>2013-03-10T08:13:26.56Z</time>
      </trkpt>
      <trkpt lat="45.86266" lon="4.7691">
        <ele>335.7</ele>
        <time>2013-03-10T08:13:27.56Z</time>
      </trkpt>
      <trkpt lat="45.86262" lon="4.7691">
        <ele>335.9</ele>
        <time>2013-03-10T08:13:28.56Z</time>
      </trkpt>
      <trkpt lat="45.86259" lon="4.76909">
        <ele>336</ele>
        <time>2013-03-10T08:13:29.56Z</time>
      </trkpt>
      <trkpt lat="45.86256" lon="4.76909">
        <ele>336.2</ele>
        <time>2013-03-10T08:13:30.56Z</time>
      </trkpt>
      <trkpt lat="45.86252" lon="4.76909">
        <ele>336.5</ele>
        <time>2013-03-10T08:13:31.57Z</time>
      </trkpt>
      <trkpt lat="45.86249" lon="4.76909">
        <ele>336.6</ele>
        <time>2013-03-10T08:13:32.56Z</time>
      </trkpt>
      <trkpt lat="45.86246" lon="4.76909">
        <ele>336.6</ele>
        <time>2013-03-10T08:13:33.57Z</time>
      </trkpt>
      <trkpt lat="45.86242" lon="4.76908">
        <ele>336.6</ele>
        <time>2013-03-10T08:13:34.61Z</time>
      </trkpt>
      <trkpt lat="45.86239" lon="4.76908">
        <ele>336.6</ele>
        <time>2013-03-10T08:13:35.63Z</time>
      </trkpt>
      <trkpt lat="45.86232" lon="4.76906">
        <ele>336.5</ele>
        <time>2013-03-10T08:13:37.63Z</time>
      </trkpt>
      <trkpt lat="45.86227" lon="4.76897">
        <ele>335.7</ele>
        <time>2013-03-10T08:13:39.63Z</time>
      </trkpt>
      <trkpt lat="45.86224" lon="4.76886">
        <ele>334.4</ele>
        <time>2013-03-10T08:13:41.7Z</time>
      </trkpt>
      <trkpt lat="45.86221" lon="4.76876">
        <ele>333.1</ele>
        <time>2013-03-10T08:13:43.56Z</time>
      </trkpt>
      <trkpt lat="45.86219" lon="4.7687">
        <ele>332.3</ele>
        <time>2013-03-10T08:13:44.61Z</time>
      </trkpt>
      <trkpt lat="45.86217" lon="4.76865">
        <ele>331.6</ele>
        <time>2013-03-10T08:13:45.62Z</time>
      </trkpt>
      <trkpt lat="45.86214" lon="4.76856">
        <ele>330.4</ele>
        <time>2013-03-10T08:13:47.56Z</time>
      </trkpt>
      <trkpt lat="45.86212" lon="4.76851">
        <ele>329.8</ele>
        <time>2013-03-10T08:13:48.56Z</time>
      </trkpt>
      <trkpt lat="45.8621" lon="4.76846">
        <ele>329.1</ele>
        <time>2013-03-10T08:13:49.56Z</time>
      </trkpt>
      <trkpt lat="45.8621" lon="4.76842">
        <ele>328.6</ele>
        <time>2013-03-10T08:13:50.57Z</time>
      </trkpt>
      <trkpt lat="45.86212" lon="4.76837">
        <ele>328.1</ele>
        <time>2013-03-10T08:13:51.62Z</time>
      </trkpt>
      <trkpt lat="45.86219" lon="4.76829">
        <ele>327.4</ele>
        <time>2013-03-10T08:13:53.56Z</time>
      </trkpt>
      <trkpt lat="45.86223" lon="4.76825">
        <ele>327.1</ele>
        <time>2013-03-10T08:13:54.56Z</time>
      </trkpt>
      <trkpt lat="45.86227" lon="4.76822">
        <ele>326.5</ele>
        <time>2013-03-10T08:13:55.56Z</time>
      </trkpt>
      <trkpt lat="45.86231" lon="4.76819">
        <ele>326</ele>
        <time>2013-03-10T08:13:56.56Z</time>
      </trkpt>
      <trkpt lat="45.86234" lon="4.76816">
        <ele>325.6</ele>
        <time>2013-03-10T08:13:57.56Z</time>
      </trkpt>
      <trkpt lat="45.86238" lon="4.76814">
        <ele>325.1</ele>
        <time>2013-03-10T08:13:58.56Z</time>
      </trkpt>
      <trkpt lat="45.86242" lon="4.76811">
        <ele>334.4</ele>
        <time>2013-03-10T08:13:59.64Z</time>
      </trkpt>
      <trkpt lat="45.86247" lon="4.76804">
        <ele>323.9</ele>
        <time>2013-03-10T08:14:01.62Z</time>
      </trkpt>
      <trkpt lat="45.86249" lon="4.76795">
        <ele>322.9</ele>
        <time>2013-03-10T08:14:03.75Z</time>
      </trkpt>
      <trkpt lat="45.86246" lon="4.76785">
        <ele>321.9</ele>
        <time>2013-03-10T08:14:05.61Z</time>
      </trkpt>
      <trkpt lat="45.86244" lon="4.7678">
        <ele>321.5</ele>
        <time>2013-03-10T08:14:06.63Z</time>
      </trkpt>
      <trkpt lat="45.86238" lon="4.76772">
        <ele>320.6</ele>
        <time>2013-03-10T08:14:08.68Z</time>
      </trkpt>
      <trkpt lat="45.86232" lon="4.76766">
        <ele>319.8</ele>
        <time>2013-03-10T08:14:10.61Z</time>
      </trkpt>
      <trkpt lat="45.86225" lon="4.76761">
        <ele>319</ele>
        <time>2013-03-10T08:14:12.7Z</time>
      </trkpt>
      <trkpt lat="45.86219" lon="4.76761">
        <ele>318.7</ele>
        <time>2013-03-10T08:14:14.56Z</time>
      </trkpt>
      <trkpt lat="45.86215" lon="4.76762">
        <ele>318.4</ele>
        <time>2013-03-10T08:14:15.56Z</time>
      </trkpt>
      <trkpt lat="45.86211" lon="4.76764">
        <ele>318.3</ele>
        <time>2013-03-10T08:14:16.57Z</time>
      </trkpt>
      <trkpt lat="45.86207" lon="4.76766">
        <ele>318.2</ele>
        <time>2013-03-10T08:14:17.6Z</time>
      </trkpt>
      <trkpt lat="45.86203" lon="4.76768">
        <ele>318.1</ele>
        <time>2013-03-10T08:14:18.75Z</time>
      </trkpt>
      <trkpt lat="45.86194" lon="4.76771">
        <ele>317.7</ele>
        <time>2013-03-10T08:14:20.62Z</time>
      </trkpt>
      <trkpt lat="45.86189" lon="4.76777">
        <ele>318</ele>
        <time>2013-03-10T08:14:22.62Z</time>
      </trkpt>
      <trkpt lat="45.86182" lon="4.76783">
        <ele>318.1</ele>
        <time>2013-03-10T08:14:24.57Z</time>
      </trkpt>
      <trkpt lat="45.86179" lon="4.76786">
        <ele>318.2</ele>
        <time>2013-03-10T08:14:25.56Z</time>
      </trkpt>
      <trkpt lat="45.86176" lon="4.76788">
        <ele>318.1</ele>
        <time>2013-03-10T08:14:26.56Z</time>
      </trkpt>
      <trkpt lat="45.86173" lon="4.7679">
        <ele>318.1</ele>
        <time>2013-03-10T08:14:27.56Z</time>
      </trkpt>
      <trkpt lat="45.86169" lon="4.76793">
        <ele>318.1</ele>
        <time>2013-03-10T08:14:28.56Z</time>
      </trkpt>
      <trkpt lat="45.86166" lon="4.76795">
        <ele>318</ele>
        <time>2013-03-10T08:14:29.6Z</time>
      </trkpt>
      <trkpt lat="45.86163" lon="4.76797">
        <ele>318.1</ele>
        <time>2013-03-10T08:14:30.63Z</time>
      </trkpt>
      <trkpt lat="45.86157" lon="4.76802">
        <ele>318.6</ele>
        <time>2013-03-10T08:14:32.56Z</time>
      </trkpt>
      <trkpt lat="45.86154" lon="4.76805">
        <ele>318.9</ele>
        <time>2013-03-10T08:14:33.57Z</time>
      </trkpt>
      <trkpt lat="45.86152" lon="4.76808">
        <ele>319.2</ele>
        <time>2013-03-10T08:14:34.7Z</time>
      </trkpt>
      <trkpt lat="45.86147" lon="4.76813">
        <ele>319.7</ele>
        <time>2013-03-10T08:14:36.56Z</time>
      </trkpt>
      <trkpt lat="45.86144" lon="4.76817">
        <ele>320.1</ele>
        <time>2013-03-10T08:14:37.57Z</time>
      </trkpt>
      <trkpt lat="45.86141" lon="4.7682">
        <ele>320.2</ele>
        <time>2013-03-10T08:14:38.56Z</time>
      </trkpt>
      <trkpt lat="45.86138" lon="4.76822">
        <ele>320.3</ele>
        <time>2013-03-10T08:14:39.56Z</time>
      </trkpt>
      <trkpt lat="45.86135" lon="4.76825">
        <ele>320.2</ele>
        <time>2013-03-10T08:14:40.56Z</time>
      </trkpt>
      <trkpt lat="45.86131" lon="4.76826">
        <ele>320.1</ele>
        <time>2013-03-10T08:14:41.56Z</time>
      </trkpt>
      <trkpt lat="45.86128" lon="4.76828">
        <ele>319.9</ele>
        <time>2013-03-10T08:14:42.56Z</time>
      </trkpt>
      <trkpt lat="45.86125" lon="4.7683">
        <ele>319.9</ele>
        <time>2013-03-10T08:14:43.56Z</time>
      </trkpt>
      <trkpt lat="45.86122" lon="4.76831">
        <ele>319.8</ele>
        <time>2013-03-10T08:14:44.56Z</time>
      </trkpt>
      <trkpt lat="45.86118" lon="4.76833">
        <ele>319.7</ele>
        <time>2013-03-10T08:14:45.56Z</time>
      </trkpt>
      <trkpt lat="45.86114" lon="4.76834">
        <ele>319.4</ele>
        <time>2013-03-10T08:14:46.56Z</time>
      </trkpt>
      <trkpt lat="45.86111" lon="4.76835">
        <ele>319.3</ele>
        <time>2013-03-10T08:14:47.56Z</time>
      </trkpt>
      <trkpt lat="45.86107" lon="4.76837">
        <ele>319.3</ele>
        <time>2013-03-10T08:14:48.56Z</time>
      </trkpt>
      <trkpt lat="45.86103" lon="4.76837">
        <ele>319.3</ele>
        <time>2013-03-10T08:14:49.56Z</time>
      </trkpt>
      <trkpt lat="45.86099" lon="4.76839">
        <ele>319.4</ele>
        <time>2013-03-10T08:14:50.57Z</time>
      </trkpt>
      <trkpt lat="45.86095" lon="4.7684">
        <ele>319.4</ele>
        <time>2013-03-10T08:14:51.6Z</time>
      </trkpt>
      <trkpt lat="45.8609" lon="4.7684">
        <ele>319.4</ele>
        <time>2013-03-10T08:14:52.63Z</time>
      </trkpt>
      <trkpt lat="45.86082" lon="4.76841">
        <ele>319.5</ele>
        <time>2013-03-10T08:14:54.56Z</time>
      </trkpt>
      <trkpt lat="45.86078" lon="4.76842">
        <ele>319.8</ele>
        <time>2013-03-10T08:14:55.56Z</time>
      </trkpt>
      <trkpt lat="45.86075" lon="4.76841">
        <ele>320</ele>
        <time>2013-03-10T08:14:56.56Z</time>
      </trkpt>
      <trkpt lat="45.86072" lon="4.76839">
        <ele>319.9</ele>
        <time>2013-03-10T08:14:57.56Z</time>
      </trkpt>
      <trkpt lat="45.86069" lon="4.76836">
        <ele>319.7</ele>
        <time>2013-03-10T08:14:58.56Z</time>
      </trkpt>
      <trkpt lat="45.86067" lon="4.76831">
        <ele>327.9</ele>
        <time>2013-03-10T08:14:59.59Z</time>
      </trkpt>
      <trkpt lat="45.86064" lon="4.76828">
        <ele>320</ele>
        <time>2013-03-10T08:15:00.56Z</time>
      </trkpt>
      <trkpt lat="45.86062" lon="4.76825">
        <ele>320.3</ele>
        <time>2013-03-10T08:15:01.56Z</time>
      </trkpt>
      <trkpt lat="45.86061" lon="4.76822">
        <ele>320.6</ele>
        <time>2013-03-10T08:15:02.56Z</time>
      </trkpt>
      <trkpt lat="45.86059" lon="4.76819">
        <ele>320.8</ele>
        <time>2013-03-10T08:15:03.56Z</time>
      </trkpt>
      <trkpt lat="45.86059" lon="4.76815">
        <ele>321</ele>
        <time>2013-03-10T08:15:04.56Z</time>
      </trkpt>
      <trkpt lat="45.86059" lon="4.76811">
        <ele>321.1</ele>
        <time>2013-03-10T08:15:05.56Z</time>
      </trkpt>
      <trkpt lat="45.86058" lon="4.76807">
        <ele>321.2</ele>
        <time>2013-03-10T08:15:06.59Z</time>
      </trkpt>
      <trkpt lat="45.86059" lon="4.76803">
        <ele>321.5</ele>
        <time>2013-03-10T08:15:07.63Z</time>
      </trkpt>
      <trkpt lat="45.8606" lon="4.76791">
        <ele>322.4</ele>
        <time>2013-03-10T08:15:09.56Z</time>
      </trkpt>
      <trkpt lat="45.86061" lon="4.76785">
        <ele>322.6</ele>
        <time>2013-03-10T08:15:10.56Z</time>
      </trkpt>
      <trkpt lat="45.86062" lon="4.76781">
        <ele>322.5</ele>
        <time>2013-03-10T08:15:11.56Z</time>
      </trkpt>
      <trkpt lat="45.86064" lon="4.76778">
        <ele>322.4</ele>
        <time>2013-03-10T08:15:12.59Z</time>
      </trkpt>
      <trkpt lat="45.86066" lon="4.76774">
        <ele>322.2</ele>
        <time>2013-03-10T08:15:13.69Z</time>
      </trkpt>
      <trkpt lat="45.86069" lon="4.76765">
        <ele>322.4</ele>
        <time>2013-03-10T08:15:15.56Z</time>
      </trkpt>
      <trkpt lat="45.8607" lon="4.7676">
        <ele>322.5</ele>
        <time>2013-03-10T08:15:16.57Z</time>
      </trkpt>
      <trkpt lat="45.86072" lon="4.76755">
        <ele>322.6</ele>
        <time>2013-03-10T08:15:17.56Z</time>
      </trkpt>
      <trkpt lat="45.86073" lon="4.76751">
        <ele>322.8</ele>
        <time>2013-03-10T08:15:18.56Z</time>
      </trkpt>
      <trkpt lat="45.86074" lon="4.76747">
        <ele>323</ele>
        <time>2013-03-10T08:15:19.61Z</time>
      </trkpt>
      <trkpt lat="45.86076" lon="4.76736">
        <ele>323.7</ele>
        <time>2013-03-10T08:15:21.56Z</time>
      </trkpt>
      <trkpt lat="45.86077" lon="4.76732">
        <ele>324</ele>
        <time>2013-03-10T08:15:22.56Z</time>
      </trkpt>
      <trkpt lat="45.86078" lon="4.76727">
        <ele>324.5</ele>
        <time>2013-03-10T08:15:23.65Z</time>
      </trkpt>
      <trkpt lat="45.86079" lon="4.76718">
        <ele>324.9</ele>
        <time>2013-03-10T08:15:25.56Z</time>
      </trkpt>
      <trkpt lat="45.86079" lon="4.76714">
        <ele>325</ele>
        <time>2013-03-10T08:15:26.56Z</time>
      </trkpt>
      <trkpt lat="45.86079" lon="4.76709">
        <ele>325.1</ele>
        <time>2013-03-10T08:15:27.56Z</time>
      </trkpt>
      <trkpt lat="45.86078" lon="4.76704">
        <ele>325.3</ele>
        <time>2013-03-10T08:15:28.56Z</time>
      </trkpt>
      <trkpt lat="45.86078" lon="4.767">
        <ele>325.5</ele>
        <time>2013-03-10T08:15:29.59Z</time>
      </trkpt>
      <trkpt lat="45.86077" lon="4.76697">
        <ele>325.7</ele>
        <time>2013-03-10T08:15:30.59Z</time>
      </trkpt>
      <trkpt lat="45.86075" lon="4.76694">
        <ele>325.9</ele>
        <time>2013-03-10T08:15:31.63Z</time>
      </trkpt>
      <trkpt lat="45.8607" lon="4.7669">
        <ele>326.4</ele>
        <time>2013-03-10T08:15:33.57Z</time>
      </trkpt>
      <trkpt lat="45.86068" lon="4.76689">
        <ele>326.6</ele>
        <time>2013-03-10T08:15:34.7Z</time>
      </trkpt>
      <trkpt lat="45.86062" lon="4.76687">
        <ele>327.1</ele>
        <time>2013-03-10T08:15:36.56Z</time>
      </trkpt>
      <trkpt lat="45.8606" lon="4.76686">
        <ele>327.3</ele>
        <time>2013-03-10T08:15:37.56Z</time>
      </trkpt>
      <trkpt lat="45.86058" lon="4.76685">
        <ele>327.5</ele>
        <time>2013-03-10T08:15:38.56Z</time>
      </trkpt>
      <trkpt lat="45.86055" lon="4.76685">
        <ele>327.7</ele>
        <time>2013-03-10T08:15:39.56Z</time>
      </trkpt>
      <trkpt lat="45.86052" lon="4.76685">
        <ele>327.8</ele>
        <time>2013-03-10T08:15:40.56Z</time>
      </trkpt>
      <trkpt lat="45.8605" lon="4.76685">
        <ele>328</ele>
        <time>2013-03-10T08:15:41.58Z</time>
      </trkpt>
      <trkpt lat="45.86048" lon="4.76686">
        <ele>328.1</ele>
        <time>2013-03-10T08:15:42.58Z</time>
      </trkpt>
      <trkpt lat="45.86046" lon="4.76687">
        <ele>328.3</ele>
        <time>2013-03-10T08:15:43.64Z</time>
      </trkpt>
      <trkpt lat="45.86041" lon="4.76689">
        <ele>328.7</ele>
        <time>2013-03-10T08:15:45.56Z</time>
      </trkpt>
      <trkpt lat="45.86039" lon="4.76691">
        <ele>329</ele>
        <time>2013-03-10T08:15:46.58Z</time>
      </trkpt>
      <trkpt lat="45.86037" lon="4.76693">
        <ele>329.2</ele>
        <time>2013-03-10T08:15:47.58Z</time>
      </trkpt>
      <trkpt lat="45.86036" lon="4.76695">
        <ele>329.5</ele>
        <time>2013-03-10T08:15:48.68Z</time>
      </trkpt>
      <trkpt lat="45.86031" lon="4.76698">
        <ele>330</ele>
        <time>2013-03-10T08:15:50.57Z</time>
      </trkpt>
      <trkpt lat="45.86029" lon="4.767">
        <ele>330.3</ele>
        <time>2013-03-10T08:15:51.58Z</time>
      </trkpt>
      <trkpt lat="45.86027" lon="4.76702">
        <ele>330.6</ele>
        <time>2013-03-10T08:15:52.62Z</time>
      </trkpt>
      <trkpt lat="45.86024" lon="4.76707">
        <ele>331.1</ele>
        <time>2013-03-10T08:15:54.56Z</time>
      </trkpt>
      <trkpt lat="45.86022" lon="4.76711">
        <ele>331.5</ele>
        <time>2013-03-10T08:15:55.58Z</time>
      </trkpt>
      <trkpt lat="45.8602" lon="4.76714">
        <ele>331.8</ele>
        <time>2013-03-10T08:15:56.7Z</time>
      </trkpt>
      <trkpt lat="45.86015" lon="4.7672">
        <ele>332.3</ele>
        <time>2013-03-10T08:15:58.65Z</time>
      </trkpt>
      <trkpt lat="45.86011" lon="4.76725">
        <ele>333.2</ele>
        <time>2013-03-10T08:16:00.58Z</time>
      </trkpt>
      <trkpt lat="45.86008" lon="4.76726">
        <ele>333.1</ele>
        <time>2013-03-10T08:16:01.58Z</time>
      </trkpt>
      <trkpt lat="45.86005" lon="4.76728">
        <ele>333.3</ele>
        <time>2013-03-10T08:16:02.58Z</time>
      </trkpt>
      <trkpt lat="45.86003" lon="4.76729">
        <ele>333.5</ele>
        <time>2013-03-10T08:16:03.67Z</time>
      </trkpt>
      <trkpt lat="45.85997" lon="4.76733">
        <ele>334.4</ele>
        <time>2013-03-10T08:16:05.56Z</time>
      </trkpt>
      <trkpt lat="45.85994" lon="4.76735">
        <ele>334.9</ele>
        <time>2013-03-10T08:16:06.56Z</time>
      </trkpt>
      <trkpt lat="45.85991" lon="4.76735">
        <ele>335.2</ele>
        <time>2013-03-10T08:16:07.61Z</time>
      </trkpt>
      <trkpt lat="45.85985" lon="4.76736">
        <ele>335.8</ele>
        <time>2013-03-10T08:16:09.58Z</time>
      </trkpt>
      <trkpt lat="45.85983" lon="4.76736">
        <ele>336</ele>
        <time>2013-03-10T08:16:10.63Z</time>
      </trkpt>
      <trkpt lat="45.85978" lon="4.76736">
        <ele>336.5</ele>
        <time>2013-03-10T08:16:12.56Z</time>
      </trkpt>
      <trkpt lat="45.85975" lon="4.76736">
        <ele>336.8</ele>
        <time>2013-03-10T08:16:13.56Z</time>
      </trkpt>
      <trkpt lat="45.85972" lon="4.76736">
        <ele>337</ele>
        <time>2013-03-10T08:16:14.56Z</time>
      </trkpt>
      <trkpt lat="45.85971" lon="4.76736">
        <ele>337.1</ele>
        <time>2013-03-10T08:16:15.56Z</time>
      </trkpt>
      <trkpt lat="45.85969" lon="4.76737">
        <ele>337.3</ele>
        <time>2013-03-10T08:16:16.57Z</time>
      </trkpt>
      <trkpt lat="45.85967" lon="4.76737">
        <ele>337.5</ele>
        <time>2013-03-10T08:16:17.57Z</time>
      </trkpt>
      <trkpt lat="45.85964" lon="4.76737">
        <ele>337.7</ele>
        <time>2013-03-10T08:16:18.66Z</time>
      </trkpt>
      <trkpt lat="45.85959" lon="4.76737">
        <ele>338</ele>
        <time>2013-03-10T08:16:20.56Z</time>
      </trkpt>
      <trkpt lat="45.85956" lon="4.76736">
        <ele>338.2</ele>
        <time>2013-03-10T08:16:21.56Z</time>
      </trkpt>
      <trkpt lat="45.85953" lon="4.76736">
        <ele>338.4</ele>
        <time>2013-03-10T08:16:22.56Z</time>
      </trkpt>
      <trkpt lat="45.8595" lon="4.76736">
        <ele>338.6</ele>
        <time>2013-03-10T08:16:23.56Z</time>
      </trkpt>
      <trkpt lat="45.85948" lon="4.76736">
        <ele>338.8</ele>
        <time>2013-03-10T08:16:24.7Z</time>
      </trkpt>
      <trkpt lat="45.8594" lon="4.76738">
        <ele>339.2</ele>
        <time>2013-03-10T08:16:26.57Z</time>
      </trkpt>
      <trkpt lat="45.85938" lon="4.76739">
        <ele>339.2</ele>
        <time>2013-03-10T08:16:27.63Z</time>
      </trkpt>
      <trkpt lat="45.85933" lon="4.76741">
        <ele>339.6</ele>
        <time>2013-03-10T08:16:29.57Z</time>
      </trkpt>
      <trkpt lat="45.8593" lon="4.76742">
        <ele>339.7</ele>
        <time>2013-03-10T08:16:30.62Z</time>
      </trkpt>
      <trkpt lat="45.85926" lon="4.76746">
        <ele>340.3</ele>
        <time>2013-03-10T08:16:32.57Z</time>
      </trkpt>
      <trkpt lat="45.85925" lon="4.76749">
        <ele>340.8</ele>
        <time>2013-03-10T08:16:33.7Z</time>
      </trkpt>
      <trkpt lat="45.85922" lon="4.76755">
        <ele>341.6</ele>
        <time>2013-03-10T08:16:35.56Z</time>
      </trkpt>
      <trkpt lat="45.85922" lon="4.76758">
        <ele>341.9</ele>
        <time>2013-03-10T08:16:36.56Z</time>
      </trkpt>
      <trkpt lat="45.85921" lon="4.76762">
        <ele>342.3</ele>
        <time>2013-03-10T08:16:37.56Z</time>
      </trkpt>
      <trkpt lat="45.85919" lon="4.76765">
        <ele>342.7</ele>
        <time>2013-03-10T08:16:38.56Z</time>
      </trkpt>
      <trkpt lat="45.85918" lon="4.76768">
        <ele>343</ele>
        <time>2013-03-10T08:16:39.61Z</time>
      </trkpt>
      <trkpt lat="45.85917" lon="4.76775">
        <ele>343.7</ele>
        <time>2013-03-10T08:16:41.56Z</time>
      </trkpt>
      <trkpt lat="45.85916" lon="4.76779">
        <ele>344</ele>
        <time>2013-03-10T08:16:42.56Z</time>
      </trkpt>
      <trkpt lat="45.85915" lon="4.76782">
        <ele>344.4</ele>
        <time>2013-03-10T08:16:43.56Z</time>
      </trkpt>
      <trkpt lat="45.85915" lon="4.76785">
        <ele>344.7</ele>
        <time>2013-03-10T08:16:44.56Z</time>
      </trkpt>
      <trkpt lat="45.85914" lon="4.76789">
        <ele>345.2</ele>
        <time>2013-03-10T08:16:45.56Z</time>
      </trkpt>
      <trkpt lat="45.85914" lon="4.76792">
        <ele>345.7</ele>
        <time>2013-03-10T08:16:46.56Z</time>
      </trkpt>
      <trkpt lat="45.85914" lon="4.76796">
        <ele>346.2</ele>
        <time>2013-03-10T08:16:47.58Z</time>
      </trkpt>
      <trkpt lat="45.85913" lon="4.76799">
        <ele>346.5</ele>
        <time>2013-03-10T08:16:48.66Z</time>
      </trkpt>
      <trkpt lat="45.85912" lon="4.76806">
        <ele>347.4</ele>
        <time>2013-03-10T08:16:50.57Z</time>
      </trkpt>
      <trkpt lat="45.85911" lon="4.76812">
        <ele>348</ele>
        <time>2013-03-10T08:16:52.62Z</time>
      </trkpt>
      <trkpt lat="45.8591" lon="4.76817">
        <ele>348.5</ele>
        <time>2013-03-10T08:16:54.57Z</time>
      </trkpt>
      <trkpt lat="45.8591" lon="4.76821">
        <ele>348.9</ele>
        <time>2013-03-10T08:16:55.57Z</time>
      </trkpt>
      <trkpt lat="45.8591" lon="4.76824">
        <ele>349.4</ele>
        <time>2013-03-10T08:16:56.62Z</time>
      </trkpt>
      <trkpt lat="45.85909" lon="4.7683">
        <ele>350.1</ele>
        <time>2013-03-10T08:16:58.56Z</time>
      </trkpt>
      <trkpt lat="45.85909" lon="4.76833">
        <ele>345.7</ele>
        <time>2013-03-10T08:16:59.62Z</time>
      </trkpt>
      <trkpt lat="45.85907" lon="4.76839">
        <ele>350.9</ele>
        <time>2013-03-10T08:17:01.66Z</time>
      </trkpt>
      <trkpt lat="45.85906" lon="4.76844">
        <ele>351.3</ele>
        <time>2013-03-10T08:17:03.73Z</time>
      </trkpt>
      <trkpt lat="45.85905" lon="4.76852">
        <ele>352</ele>
        <time>2013-03-10T08:17:05.56Z</time>
      </trkpt>
      <trkpt lat="45.85905" lon="4.76854">
        <ele>352.3</ele>
        <time>2013-03-10T08:17:06.66Z</time>
      </trkpt>
      <trkpt lat="45.85904" lon="4.76859">
        <ele>352.8</ele>
        <time>2013-03-10T08:17:08.68Z</time>
      </trkpt>
      <trkpt lat="45.85903" lon="4.76865">
        <ele>353.5</ele>
        <time>2013-03-10T08:17:10.56Z</time>
      </trkpt>
      <trkpt lat="45.85903" lon="4.76868">
        <ele>353.9</ele>
        <time>2013-03-10T08:17:11.66Z</time>
      </trkpt>
      <trkpt lat="45.85902" lon="4.76871">
        <ele>354.3</ele>
        <time>2013-03-10T08:17:12.56Z</time>
      </trkpt>
      <trkpt lat="45.85902" lon="4.76876">
        <ele>354.8</ele>
        <time>2013-03-10T08:17:13.67Z</time>
      </trkpt>
      <trkpt lat="45.859" lon="4.76882">
        <ele>355.7</ele>
        <time>2013-03-10T08:17:15.56Z</time>
      </trkpt>
      <trkpt lat="45.859" lon="4.76884">
        <ele>355.9</ele>
        <time>2013-03-10T08:17:16.61Z</time>
      </trkpt>
      <trkpt lat="45.859" lon="4.76886">
        <ele>356.3</ele>
        <time>2013-03-10T08:17:17.56Z</time>
      </trkpt>
      <trkpt lat="45.85901" lon="4.7689">
        <ele>356.6</ele>
        <time>2013-03-10T08:17:18.66Z</time>
      </trkpt>
      <trkpt lat="45.85902" lon="4.76894">
        <ele>357.1</ele>
        <time>2013-03-10T08:17:20.66Z</time>
      </trkpt>
      <trkpt lat="45.85905" lon="4.76901">
        <ele>357.6</ele>
        <time>2013-03-10T08:17:22.66Z</time>
      </trkpt>
      <trkpt lat="45.85906" lon="4.76904">
        <ele>357.9</ele>
        <time>2013-03-10T08:17:23.56Z</time>
      </trkpt>
      <trkpt lat="45.85907" lon="4.76906">
        <ele>358</ele>
        <time>2013-03-10T08:17:24.66Z</time>
      </trkpt>
      <trkpt lat="45.85909" lon="4.76913">
        <ele>358.5</ele>
        <time>2013-03-10T08:17:26.56Z</time>
      </trkpt>
      <trkpt lat="45.85909" lon="4.76917">
        <ele>358.8</ele>
        <time>2013-03-10T08:17:27.66Z</time>
      </trkpt>
      <trkpt lat="45.8591" lon="4.7692">
        <ele>358.9</ele>
        <time>2013-03-10T08:17:28.56Z</time>
      </trkpt>
      <trkpt lat="45.85911" lon="4.76923">
        <ele>359</ele>
        <time>2013-03-10T08:17:29.66Z</time>
      </trkpt>
      <trkpt lat="45.8591" lon="4.76927">
        <ele>359.1</ele>
        <time>2013-03-10T08:17:30.56Z</time>
      </trkpt>
      <trkpt lat="45.85911" lon="4.76931">
        <ele>359.3</ele>
        <time>2013-03-10T08:17:31.66Z</time>
      </trkpt>
      <trkpt lat="45.8591" lon="4.76934">
        <ele>359.5</ele>
        <time>2013-03-10T08:17:32.56Z</time>
      </trkpt>
      <trkpt lat="45.8591" lon="4.76936">
        <ele>359.6</ele>
        <time>2013-03-10T08:17:33.68Z</time>
      </trkpt>
      <trkpt lat="45.85911" lon="4.76943">
        <ele>359.8</ele>
        <time>2013-03-10T08:17:35.56Z</time>
      </trkpt>
      <trkpt lat="45.85911" lon="4.76948">
        <ele>359.8</ele>
        <time>2013-03-10T08:17:36.7Z</time>
      </trkpt>
      <trkpt lat="45.85912" lon="4.76954">
        <ele>359.8</ele>
        <time>2013-03-10T08:17:38.56Z</time>
      </trkpt>
      <trkpt lat="45.85913" lon="4.76958">
        <ele>359.7</ele>
        <time>2013-03-10T08:17:39.64Z</time>
      </trkpt>
      <trkpt lat="45.85913" lon="4.76964">
        <ele>359.8</ele>
        <time>2013-03-10T08:17:41.56Z</time>
      </trkpt>
      <trkpt lat="45.85913" lon="4.76967">
        <ele>359.9</ele>
        <time>2013-03-10T08:17:42.65Z</time>
      </trkpt>
      <trkpt lat="45.85913" lon="4.76971">
        <ele>359.9</ele>
        <time>2013-03-10T08:17:43.56Z</time>
      </trkpt>
      <trkpt lat="45.85913" lon="4.76975">
        <ele>359.8</ele>
        <time>2013-03-10T08:17:44.65Z</time>
      </trkpt>
      <trkpt lat="45.85913" lon="4.76979">
        <ele>359.8</ele>
        <time>2013-03-10T08:17:45.56Z</time>
      </trkpt>
      <trkpt lat="45.85913" lon="4.76982">
        <ele>359.7</ele>
        <time>2013-03-10T08:17:46.65Z</time>
      </trkpt>
      <trkpt lat="45.85914" lon="4.76985">
        <ele>359.4</ele>
        <time>2013-03-10T08:17:47.56Z</time>
      </trkpt>
      <trkpt lat="45.85915" lon="4.76987">
        <ele>359.1</ele>
        <time>2013-03-10T08:17:48.67Z</time>
      </trkpt>
      <trkpt lat="45.85915" lon="4.76994">
        <ele>358.8</ele>
        <time>2013-03-10T08:17:50.61Z</time>
      </trkpt>
      <trkpt lat="45.85915" lon="4.76996">
        <ele>358.6</ele>
        <time>2013-03-10T08:17:51.56Z</time>
      </trkpt>
      <trkpt lat="45.85916" lon="4.76999">
        <ele>358.4</ele>
        <time>2013-03-10T08:17:52.65Z</time>
      </trkpt>
      <trkpt lat="45.85916" lon="4.77001">
        <ele>358.3</ele>
        <time>2013-03-10T08:17:53.66Z</time>
      </trkpt>
      <trkpt lat="45.85917" lon="4.77007">
        <ele>358.3</ele>
        <time>2013-03-10T08:17:55.56Z</time>
      </trkpt>
      <trkpt lat="45.85918" lon="4.77011">
        <ele>358.2</ele>
        <time>2013-03-10T08:17:56.65Z</time>
      </trkpt>
      <trkpt lat="45.85921" lon="4.77014">
        <ele>358</ele>
        <time>2013-03-10T08:17:57.56Z</time>
      </trkpt>
      <trkpt lat="45.85923" lon="4.77017">
        <ele>358</ele>
        <time>2013-03-10T08:17:58.66Z</time>
      </trkpt>
      <trkpt lat="45.85928" lon="4.77022">
        <ele>365.9</ele>
        <time>2013-03-10T08:18:00.65Z</time>
      </trkpt>
      <trkpt lat="45.85931" lon="4.77023">
        <ele>358.3</ele>
        <time>2013-03-10T08:18:02.65Z</time>
      </trkpt>
      <trkpt lat="45.85933" lon="4.77022">
        <ele>358</ele>
        <time>2013-03-10T08:18:03.56Z</time>
      </trkpt>
      <trkpt lat="45.85935" lon="4.77022">
        <ele>357.8</ele>
        <time>2013-03-10T08:18:04.65Z</time>
      </trkpt>
      <trkpt lat="45.85938" lon="4.77022">
        <ele>357.6</ele>
        <time>2013-03-10T08:18:05.56Z</time>
      </trkpt>
      <trkpt lat="45.8594" lon="4.77021">
        <ele>357.4</ele>
        <time>2013-03-10T08:18:06.65Z</time>
      </trkpt>
      <trkpt lat="45.85942" lon="4.7702">
        <ele>357</ele>
        <time>2013-03-10T08:18:07.56Z</time>
      </trkpt>
      <trkpt lat="45.85944" lon="4.77019">
        <ele>356.5</ele>
        <time>2013-03-10T08:18:08.74Z</time>
      </trkpt>
      <trkpt lat="45.85949" lon="4.77018">
        <ele>356.6</ele>
        <time>2013-03-10T08:18:10.56Z</time>
      </trkpt>
      <trkpt lat="45.85952" lon="4.77017">
        <ele>356.6</ele>
        <time>2013-03-10T08:18:11.65Z</time>
      </trkpt>
      <trkpt lat="45.85955" lon="4.77015">
        <ele>356.4</ele>
        <time>2013-03-10T08:18:12.56Z</time>
      </trkpt>
      <trkpt lat="45.85957" lon="4.77013">
        <ele>356.1</ele>
        <time>2013-03-10T08:18:13.67Z</time>
      </trkpt>
      <trkpt lat="45.85963" lon="4.77008">
        <ele>355.4</ele>
        <time>2013-03-10T08:18:15.56Z</time>
      </trkpt>
      <trkpt lat="45.85965" lon="4.77004">
        <ele>354.9</ele>
        <time>2013-03-10T08:18:16.67Z</time>
      </trkpt>
      <trkpt lat="45.85971" lon="4.76999">
        <ele>354.4</ele>
        <time>2013-03-10T08:18:18.56Z</time>
      </trkpt>
      <trkpt lat="45.85974" lon="4.76998">
        <ele>354.4</ele>
        <time>2013-03-10T08:18:19.56Z</time>
      </trkpt>
      <trkpt lat="45.85977" lon="4.76997">
        <ele>354</ele>
        <time>2013-03-10T08:18:20.65Z</time>
      </trkpt>
      <trkpt lat="45.8598" lon="4.76997">
        <ele>353.8</ele>
        <time>2013-03-10T08:18:21.56Z</time>
      </trkpt>
      <trkpt lat="45.85983" lon="4.76996">
        <ele>353.5</ele>
        <time>2013-03-10T08:18:22.64Z</time>
      </trkpt>
      <trkpt lat="45.85991" lon="4.76996">
        <ele>353.3</ele>
        <time>2013-03-10T08:18:24.64Z</time>
      </trkpt>
      <trkpt lat="45.85994" lon="4.76997">
        <ele>353.4</ele>
        <time>2013-03-10T08:18:25.56Z</time>
      </trkpt>
      <trkpt lat="45.85998" lon="4.76998">
        <ele>353.5</ele>
        <time>2013-03-10T08:18:26.65Z</time>
      </trkpt>
      <trkpt lat="45.86002" lon="4.76998">
        <ele>353.3</ele>
        <time>2013-03-10T08:18:27.56Z</time>
      </trkpt>
      <trkpt lat="45.86006" lon="4.76997">
        <ele>353.1</ele>
        <time>2013-03-10T08:18:28.67Z</time>
      </trkpt>
      <trkpt lat="45.86015" lon="4.76997">
        <ele>353.1</ele>
        <time>2013-03-10T08:18:30.56Z</time>
      </trkpt>
      <trkpt lat="45.86019" lon="4.76996">
        <ele>353</ele>
        <time>2013-03-10T08:18:31.64Z</time>
      </trkpt>
      <trkpt lat="45.86028" lon="4.76995">
        <ele>352.7</ele>
        <time>2013-03-10T08:18:33.73Z</time>
      </trkpt>
      <trkpt lat="45.86035" lon="4.76994">
        <ele>352.4</ele>
        <time>2013-03-10T08:18:35.56Z</time>
      </trkpt>
      <trkpt lat="45.86039" lon="4.76993">
        <ele>352.4</ele>
        <time>2013-03-10T08:18:36.64Z</time>
      </trkpt>
      <trkpt lat="45.86042" lon="4.76992">
        <ele>352.1</ele>
        <time>2013-03-10T08:18:37.56Z</time>
      </trkpt>
      <trkpt lat="45.86046" lon="4.7699">
        <ele>351.7</ele>
        <time>2013-03-10T08:18:38.69Z</time>
      </trkpt>
      <trkpt lat="45.86053" lon="4.76986">
        <ele>350.9</ele>
        <time>2013-03-10T08:18:40.56Z</time>
      </trkpt>
      <trkpt lat="45.86057" lon="4.76984">
        <ele>350.4</ele>
        <time>2013-03-10T08:18:41.64Z</time>
      </trkpt>
      <trkpt lat="45.86061" lon="4.76982">
        <ele>349.9</ele>
        <time>2013-03-10T08:18:42.56Z</time>
      </trkpt>
      <trkpt lat="45.86064" lon="4.7698">
        <ele>349.4</ele>
        <time>2013-03-10T08:18:43.65Z</time>
      </trkpt>
      <trkpt lat="45.86072" lon="4.76977">
        <ele>348.3</ele>
        <time>2013-03-10T08:18:45.64Z</time>
      </trkpt>
      <trkpt lat="45.86076" lon="4.76975">
        <ele>347.8</ele>
        <time>2013-03-10T08:18:46.56Z</time>
      </trkpt>
      <trkpt lat="45.8608" lon="4.76974">
        <ele>347.4</ele>
        <time>2013-03-10T08:18:47.56Z</time>
      </trkpt>
      <trkpt lat="45.86084" lon="4.76972">
        <ele>346.8</ele>
        <time>2013-03-10T08:18:48.56Z</time>
      </trkpt>
      <trkpt lat="45.86088" lon="4.7697">
        <ele>346.2</ele>
        <time>2013-03-10T08:18:49.56Z</time>
      </trkpt>
      <trkpt lat="45.86092" lon="4.76968">
        <ele>345.6</ele>
        <time>2013-03-10T08:18:50.57Z</time>
      </trkpt>
      <trkpt lat="45.86096" lon="4.76967">
        <ele>345</ele>
        <time>2013-03-10T08:18:51.56Z</time>
      </trkpt>
      <trkpt lat="45.861" lon="4.76965">
        <ele>344.5</ele>
        <time>2013-03-10T08:18:52.56Z</time>
      </trkpt>
      <trkpt lat="45.86104" lon="4.76963">
        <ele>344</ele>
        <time>2013-03-10T08:18:53.56Z</time>
      </trkpt>
      <trkpt lat="45.86108" lon="4.76961">
        <ele>343.5</ele>
        <time>2013-03-10T08:18:54.64Z</time>
      </trkpt>
      <trkpt lat="45.86117" lon="4.76958">
        <ele>342.6</ele>
        <time>2013-03-10T08:18:56.64Z</time>
      </trkpt>
      <trkpt lat="45.86125" lon="4.76954">
        <ele>341.6</ele>
        <time>2013-03-10T08:18:58.67Z</time>
      </trkpt>
      <trkpt lat="45.86133" lon="4.76952">
        <ele>361.5</ele>
        <time>2013-03-10T08:19:00.63Z</time>
      </trkpt>
      <trkpt lat="45.86141" lon="4.76949">
        <ele>339.8</ele>
        <time>2013-03-10T08:19:02.7Z</time>
      </trkpt>
      <trkpt lat="45.86149" lon="4.76946">
        <ele>339.3</ele>
        <time>2013-03-10T08:19:04.56Z</time>
      </trkpt>
      <trkpt lat="45.86153" lon="4.76945">
        <ele>339</ele>
        <time>2013-03-10T08:19:05.56Z</time>
      </trkpt>
      <trkpt lat="45.86157" lon="4.76944">
        <ele>338.9</ele>
        <time>2013-03-10T08:19:06.56Z</time>
      </trkpt>
      <trkpt lat="45.8616" lon="4.76945">
        <ele>339</ele>
        <time>2013-03-10T08:19:07.56Z</time>
      </trkpt>
      <trkpt lat="45.86162" lon="4.76948">
        <ele>339.5</ele>
        <time>2013-03-10T08:19:08.56Z</time>
      </trkpt>
      <trkpt lat="45.86163" lon="4.76952">
        <ele>340.1</ele>
        <time>2013-03-10T08:19:09.61Z</time>
      </trkpt>
      <trkpt lat="45.86164" lon="4.76957">
        <ele>340.9</ele>
        <time>2013-03-10T08:19:10.63Z</time>
      </trkpt>
      <trkpt lat="45.86164" lon="4.7696">
        <ele>341.3</ele>
        <time>2013-03-10T08:19:11.63Z</time>
      </trkpt>
      <trkpt lat="45.86164" lon="4.76967">
        <ele>342.3</ele>
        <time>2013-03-10T08:19:13.64Z</time>
      </trkpt>
      <trkpt lat="45.86165" lon="4.76973">
        <ele>343.2</ele>
        <time>2013-03-10T08:19:15.63Z</time>
      </trkpt>
      <trkpt lat="45.86167" lon="4.76981">
        <ele>344.2</ele>
        <time>2013-03-10T08:19:17.63Z</time>
      </trkpt>
      <trkpt lat="45.86167" lon="4.76984">
        <ele>344.7</ele>
        <time>2013-03-10T08:19:18.67Z</time>
      </trkpt>
      <trkpt lat="45.86167" lon="4.76992">
        <ele>345.8</ele>
        <time>2013-03-10T08:19:20.63Z</time>
      </trkpt>
      <trkpt lat="45.86167" lon="4.76995">
        <ele>346.3</ele>
        <time>2013-03-10T08:19:21.63Z</time>
      </trkpt>
      <trkpt lat="45.86168" lon="4.77003">
        <ele>347.5</ele>
        <time>2013-03-10T08:19:23.66Z</time>
      </trkpt>
      <trkpt lat="45.86168" lon="4.77009">
        <ele>348.6</ele>
        <time>2013-03-10T08:19:25.63Z</time>
      </trkpt>
      <trkpt lat="45.86169" lon="4.77011">
        <ele>349.1</ele>
        <time>2013-03-10T08:19:26.63Z</time>
      </trkpt>
      <trkpt lat="45.86169" lon="4.77015">
        <ele>349.8</ele>
        <time>2013-03-10T08:19:27.64Z</time>
      </trkpt>
      <trkpt lat="45.86169" lon="4.77019">
        <ele>350.4</ele>
        <time>2013-03-10T08:19:28.69Z</time>
      </trkpt>
      <trkpt lat="45.8617" lon="4.77024">
        <ele>351.3</ele>
        <time>2013-03-10T08:19:30.63Z</time>
      </trkpt>
      <trkpt lat="45.8617" lon="4.77027">
        <ele>351.8</ele>
        <time>2013-03-10T08:19:31.63Z</time>
      </trkpt>
      <trkpt lat="45.8617" lon="4.77031">
        <ele>352.5</ele>
        <time>2013-03-10T08:19:32.63Z</time>
      </trkpt>
      <trkpt lat="45.8617" lon="4.77034">
        <ele>353.2</ele>
        <time>2013-03-10T08:19:33.69Z</time>
      </trkpt>
      <trkpt lat="45.8617" lon="4.77038">
        <ele>353.8</ele>
        <time>2013-03-10T08:19:35.63Z</time>
      </trkpt>
      <trkpt lat="45.86172" lon="4.77044">
        <ele>354.8</ele>
        <time>2013-03-10T08:19:37.61Z</time>
      </trkpt>
      <trkpt lat="45.86172" lon="4.77047">
        <ele>355.4</ele>
        <time>2013-03-10T08:19:38.73Z</time>
      </trkpt>
      <trkpt lat="45.86173" lon="4.7705">
        <ele>356.1</ele>
        <time>2013-03-10T08:19:40.56Z</time>
      </trkpt>
      <trkpt lat="45.86174" lon="4.77052">
        <ele>356.3</ele>
        <time>2013-03-10T08:19:41.57Z</time>
      </trkpt>
      <trkpt lat="45.86174" lon="4.77054">
        <ele>356.8</ele>
        <time>2013-03-10T08:19:42.56Z</time>
      </trkpt>
      <trkpt lat="45.86175" lon="4.77058">
        <ele>357.4</ele>
        <time>2013-03-10T08:19:43.56Z</time>
      </trkpt>
      <trkpt lat="45.86175" lon="4.77061">
        <ele>357.8</ele>
        <time>2013-03-10T08:19:44.56Z</time>
      </trkpt>
      <trkpt lat="45.86175" lon="4.77062">
        <ele>358.1</ele>
        <time>2013-03-10T08:19:45.62Z</time>
      </trkpt>
      <trkpt lat="45.86175" lon="4.77064">
        <ele>358.3</ele>
        <time>2013-03-10T08:19:46.62Z</time>
      </trkpt>
      <trkpt lat="45.86175" lon="4.77065">
        <ele>358.6</ele>
        <time>2013-03-10T08:19:47.62Z</time>
      </trkpt>
      <trkpt lat="45.86175" lon="4.77068">
        <ele>358.9</ele>
        <time>2013-03-10T08:19:48.65Z</time>
      </trkpt>
      <trkpt lat="45.86175" lon="4.77075">
        <ele>360</ele>
        <time>2013-03-10T08:19:50.58Z</time>
      </trkpt>
      <trkpt lat="45.86174" lon="4.77077">
        <ele>360.4</ele>
        <time>2013-03-10T08:19:51.6Z</time>
      </trkpt>
      <trkpt lat="45.86175" lon="4.77079">
        <ele>360.8</ele>
        <time>2013-03-10T08:19:52.63Z</time>
      </trkpt>
      <trkpt lat="45.86174" lon="4.77082">
        <ele>361.2</ele>
        <time>2013-03-10T08:19:53.66Z</time>
      </trkpt>
      <trkpt lat="45.86174" lon="4.77088">
        <ele>362</ele>
        <time>2013-03-10T08:19:55.56Z</time>
      </trkpt>
      <trkpt lat="45.86174" lon="4.77091">
        <ele>362.3</ele>
        <time>2013-03-10T08:19:56.56Z</time>
      </trkpt>
      <trkpt lat="45.86174" lon="4.77094">
        <ele>362.6</ele>
        <time>2013-03-10T08:19:57.56Z</time>
      </trkpt>
      <trkpt lat="45.86174" lon="4.77096">
        <ele>362.9</ele>
        <time>2013-03-10T08:19:58.56Z</time>
      </trkpt>
      <trkpt lat="45.86173" lon="4.77099">
        <ele>359.8</ele>
        <time>2013-03-10T08:19:59.59Z</time>
      </trkpt>
      <trkpt lat="45.86172" lon="4.77102">
        <ele>363.6</ele>
        <time>2013-03-10T08:20:00.63Z</time>
      </trkpt>
      <trkpt lat="45.86173" lon="4.77106">
        <ele>364</ele>
        <time>2013-03-10T08:20:02.61Z</time>
      </trkpt>
      <trkpt lat="45.86173" lon="4.77109">
        <ele>364.2</ele>
        <time>2013-03-10T08:20:03.65Z</time>
      </trkpt>
      <trkpt lat="45.86173" lon="4.77116">
        <ele>365</ele>
        <time>2013-03-10T08:20:05.56Z</time>
      </trkpt>
      <trkpt lat="45.86173" lon="4.77119">
        <ele>365.3</ele>
        <time>2013-03-10T08:20:06.56Z</time>
      </trkpt>
      <trkpt lat="45.86172" lon="4.77121">
        <ele>365.5</ele>
        <time>2013-03-10T08:20:07.56Z</time>
      </trkpt>
      <trkpt lat="45.86172" lon="4.77124">
        <ele>365.8</ele>
        <time>2013-03-10T08:20:08.56Z</time>
      </trkpt>
      <trkpt lat="45.86173" lon="4.77127">
        <ele>366.1</ele>
        <time>2013-03-10T08:20:09.56Z</time>
      </trkpt>
      <trkpt lat="45.86172" lon="4.7713">
        <ele>366.4</ele>
        <time>2013-03-10T08:20:10.56Z</time>
      </trkpt>
      <trkpt lat="45.86171" lon="4.77133">
        <ele>366.7</ele>
        <time>2013-03-10T08:20:11.56Z</time>
      </trkpt>
      <trkpt lat="45.86171" lon="4.77135">
        <ele>367</ele>
        <time>2013-03-10T08:20:12.56Z</time>
      </trkpt>
      <trkpt lat="45.8617" lon="4.77137">
        <ele>367.3</ele>
        <time>2013-03-10T08:20:13.56Z</time>
      </trkpt>
      <trkpt lat="45.86169" lon="4.77139">
        <ele>367.6</ele>
        <time>2013-03-10T08:20:14.62Z</time>
      </trkpt>
      <trkpt lat="45.86168" lon="4.77141">
        <ele>367.9</ele>
        <time>2013-03-10T08:20:15.62Z</time>
      </trkpt>
      <trkpt lat="45.86167" lon="4.77143">
        <ele>368.1</ele>
        <time>2013-03-10T08:20:16.57Z</time>
      </trkpt>
      <trkpt lat="45.86166" lon="4.77144">
        <ele>368.2</ele>
        <time>2013-03-10T08:20:17.62Z</time>
      </trkpt>
      <trkpt lat="45.86165" lon="4.77147">
        <ele>368.4</ele>
        <time>2013-03-10T08:20:18.75Z</time>
      </trkpt>
      <trkpt lat="45.86162" lon="4.77151">
        <ele>369</ele>
        <time>2013-03-10T08:20:20.63Z</time>
      </trkpt>
      <trkpt lat="45.86161" lon="4.77155">
        <ele>369.4</ele>
        <time>2013-03-10T08:20:22.62Z</time>
      </trkpt>
      <trkpt lat="45.8616" lon="4.77157">
        <ele>369.6</ele>
        <time>2013-03-10T08:20:23.74Z</time>
      </trkpt>
      <trkpt lat="45.86157" lon="4.77163">
        <ele>370.2</ele>
        <time>2013-03-10T08:20:25.62Z</time>
      </trkpt>
      <trkpt lat="45.86156" lon="4.77168">
        <ele>370.6</ele>
        <time>2013-03-10T08:20:27.61Z</time>
      </trkpt>
      <trkpt lat="45.86155" lon="4.7717">
        <ele>370.7</ele>
        <time>2013-03-10T08:20:28.75Z</time>
      </trkpt>
      <trkpt lat="45.86152" lon="4.77174">
        <ele>371.1</ele>
        <time>2013-03-10T08:20:30.61Z</time>
      </trkpt>
      <trkpt lat="45.86151" lon="4.77176">
        <ele>371.2</ele>
        <time>2013-03-10T08:20:31.61Z</time>
      </trkpt>
      <trkpt lat="45.86149" lon="4.77179">
        <ele>371.5</ele>
        <time>2013-03-10T08:20:32.61Z</time>
      </trkpt>
      <trkpt lat="45.86147" lon="4.77181">
        <ele>371.9</ele>
        <time>2013-03-10T08:20:33.75Z</time>
      </trkpt>
      <trkpt lat="45.86143" lon="4.77183">
        <ele>372.7</ele>
        <time>2013-03-10T08:20:35.61Z</time>
      </trkpt>
      <trkpt lat="45.86141" lon="4.77184">
        <ele>373.1</ele>
        <time>2013-03-10T08:20:36.61Z</time>
      </trkpt>
      <trkpt lat="45.86139" lon="4.77184">
        <ele>373.6</ele>
        <time>2013-03-10T08:20:37.62Z</time>
      </trkpt>
      <trkpt lat="45.86136" lon="4.77185">
        <ele>374.1</ele>
        <time>2013-03-10T08:20:38.66Z</time>
      </trkpt>
      <trkpt lat="45.86132" lon="4.77184">
        <ele>374.8</ele>
        <time>2013-03-10T08:20:40.63Z</time>
      </trkpt>
      <trkpt lat="45.86128" lon="4.77185">
        <ele>375.5</ele>
        <time>2013-03-10T08:20:42.61Z</time>
      </trkpt>
      <trkpt lat="45.86125" lon="4.77184">
        <ele>376</ele>
        <time>2013-03-10T08:20:43.73Z</time>
      </trkpt>
      <trkpt lat="45.86121" lon="4.77183">
        <ele>376.6</ele>
        <time>2013-03-10T08:20:45.61Z</time>
      </trkpt>
      <trkpt lat="45.86119" lon="4.77183">
        <ele>377</ele>
        <time>2013-03-10T08:20:46.61Z</time>
      </trkpt>
      <trkpt lat="45.86116" lon="4.77184">
        <ele>377.4</ele>
        <time>2013-03-10T08:20:47.61Z</time>
      </trkpt>
      <trkpt lat="45.86113" lon="4.77183">
        <ele>377.8</ele>
        <time>2013-03-10T08:20:48.69Z</time>
      </trkpt>
      <trkpt lat="45.86109" lon="4.77182">
        <ele>378.5</ele>
        <time>2013-03-10T08:20:50.66Z</time>
      </trkpt>
      <trkpt lat="45.86104" lon="4.77182">
        <ele>379.2</ele>
        <time>2013-03-10T08:20:52.56Z</time>
      </trkpt>
      <trkpt lat="45.86101" lon="4.77181">
        <ele>379.6</ele>
        <time>2013-03-10T08:20:53.56Z</time>
      </trkpt>
      <trkpt lat="45.861" lon="4.7718">
        <ele>379.8</ele>
        <time>2013-03-10T08:20:54.56Z</time>
      </trkpt>
      <trkpt lat="45.86098" lon="4.7718">
        <ele>380.1</ele>
        <time>2013-03-10T08:20:55.56Z</time>
      </trkpt>
      <trkpt lat="45.86096" lon="4.7718">
        <ele>380.4</ele>
        <time>2013-03-10T08:20:56.61Z</time>
      </trkpt>
      <trkpt lat="45.86093" lon="4.7718">
        <ele>380.8</ele>
        <time>2013-03-10T08:20:57.61Z</time>
      </trkpt>
      <trkpt lat="45.86091" lon="4.77179">
        <ele>381.1</ele>
        <time>2013-03-10T08:20:58.69Z</time>
      </trkpt>
      <trkpt lat="45.86087" lon="4.77178">
        <ele>377.8</ele>
        <time>2013-03-10T08:21:00.6Z</time>
      </trkpt>
      <trkpt lat="45.86084" lon="4.77177">
        <ele>381.9</ele>
        <time>2013-03-10T08:21:01.62Z</time>
      </trkpt>
      <trkpt lat="45.86082" lon="4.77176">
        <ele>382.2</ele>
        <time>2013-03-10T08:21:02.62Z</time>
      </trkpt>
      <trkpt lat="45.8608" lon="4.77175">
        <ele>382.4</ele>
        <time>2013-03-10T08:21:03.65Z</time>
      </trkpt>
      <trkpt lat="45.86076" lon="4.77175">
        <ele>382.8</ele>
        <time>2013-03-10T08:21:05.56Z</time>
      </trkpt>
      <trkpt lat="45.86073" lon="4.77174">
        <ele>383</ele>
        <time>2013-03-10T08:21:06.56Z</time>
      </trkpt>
      <trkpt lat="45.86071" lon="4.77174">
        <ele>383.2</ele>
        <time>2013-03-10T08:21:07.56Z</time>
      </trkpt>
      <trkpt lat="45.8607" lon="4.77174">
        <ele>383.4</ele>
        <time>2013-03-10T08:21:08.56Z</time>
      </trkpt>
      <trkpt lat="45.86068" lon="4.77175">
        <ele>383.7</ele>
        <time>2013-03-10T08:21:09.6Z</time>
      </trkpt>
      <trkpt lat="45.86065" lon="4.77175">
        <ele>384.1</ele>
        <time>2013-03-10T08:21:10.63Z</time>
      </trkpt>
      <trkpt lat="45.86061" lon="4.77177">
        <ele>384.8</ele>
        <time>2013-03-10T08:21:12.56Z</time>
      </trkpt>
      <trkpt lat="45.86059" lon="4.77178">
        <ele>385.2</ele>
        <time>2013-03-10T08:21:13.56Z</time>
      </trkpt>
      <trkpt lat="45.86058" lon="4.7718">
        <ele>385.7</ele>
        <time>2013-03-10T08:21:14.56Z</time>
      </trkpt>
      <trkpt lat="45.86056" lon="4.77182">
        <ele>386.1</ele>
        <time>2013-03-10T08:21:15.56Z</time>
      </trkpt>
      <trkpt lat="45.86056" lon="4.77183">
        <ele>386.4</ele>
        <time>2013-03-10T08:21:16.57Z</time>
      </trkpt>
      <trkpt lat="45.86055" lon="4.77185">
        <ele>386.7</ele>
        <time>2013-03-10T08:21:17.6Z</time>
      </trkpt>
      <trkpt lat="45.86055" lon="4.77188">
        <ele>387.1</ele>
        <time>2013-03-10T08:21:18.66Z</time>
      </trkpt>
      <trkpt lat="45.86055" lon="4.77192">
        <ele>387.8</ele>
        <time>2013-03-10T08:21:20.56Z</time>
      </trkpt>
      <trkpt lat="45.86055" lon="4.77194">
        <ele>388</ele>
        <time>2013-03-10T08:21:21.56Z</time>
      </trkpt>
      <trkpt lat="45.86055" lon="4.77196">
        <ele>388.2</ele>
        <time>2013-03-10T08:21:22.56Z</time>
      </trkpt>
      <trkpt lat="45.86055" lon="4.77198">
        <ele>388.3</ele>
        <time>2013-03-10T08:21:23.56Z</time>
      </trkpt>
      <trkpt lat="45.86055" lon="4.772">
        <ele>388.4</ele>
        <time>2013-03-10T08:21:24.6Z</time>
      </trkpt>
      <trkpt lat="45.86055" lon="4.77202">
        <ele>388.6</ele>
        <time>2013-03-10T08:21:25.6Z</time>
      </trkpt>
      <trkpt lat="45.86055" lon="4.77204">
        <ele>388.7</ele>
        <time>2013-03-10T08:21:26.6Z</time>
      </trkpt>
      <trkpt lat="45.86054" lon="4.77206">
        <ele>389</ele>
        <time>2013-03-10T08:21:27.6Z</time>
      </trkpt>
      <trkpt lat="45.86054" lon="4.77209">
        <ele>389.3</ele>
        <time>2013-03-10T08:21:28.67Z</time>
      </trkpt>
      <trkpt lat="45.86053" lon="4.77216">
        <ele>390</ele>
        <time>2013-03-10T08:21:30.6Z</time>
      </trkpt>
      <trkpt lat="45.86051" lon="4.77218">
        <ele>390.4</ele>
        <time>2013-03-10T08:21:31.6Z</time>
      </trkpt>
      <trkpt lat="45.8605" lon="4.77221">
        <ele>390.9</ele>
        <time>2013-03-10T08:21:32.6Z</time>
      </trkpt>
      <trkpt lat="45.86049" lon="4.77223">
        <ele>391.2</ele>
        <time>2013-03-10T08:21:33.71Z</time>
      </trkpt>
      <trkpt lat="45.86047" lon="4.77227">
        <ele>392</ele>
        <time>2013-03-10T08:21:35.56Z</time>
      </trkpt>
      <trkpt lat="45.86045" lon="4.77229">
        <ele>392.5</ele>
        <time>2013-03-10T08:21:36.56Z</time>
      </trkpt>
      <trkpt lat="45.86043" lon="4.7723">
        <ele>392.9</ele>
        <time>2013-03-10T08:21:37.56Z</time>
      </trkpt>
      <trkpt lat="45.86042" lon="4.77231">
        <ele>393.2</ele>
        <time>2013-03-10T08:21:38.56Z</time>
      </trkpt>
      <trkpt lat="45.86041" lon="4.77232">
        <ele>393.6</ele>
        <time>2013-03-10T08:21:39.6Z</time>
      </trkpt>
      <trkpt lat="45.86039" lon="4.77233">
        <ele>394.1</ele>
        <time>2013-03-10T08:21:40.6Z</time>
      </trkpt>
      <trkpt lat="45.86037" lon="4.77234">
        <ele>394.6</ele>
        <time>2013-03-10T08:21:41.6Z</time>
      </trkpt>
      <trkpt lat="45.86035" lon="4.77235">
        <ele>395</ele>
        <time>2013-03-10T08:21:42.6Z</time>
      </trkpt>
      <trkpt lat="45.86034" lon="4.77236">
        <ele>395.3</ele>
        <time>2013-03-10T08:21:43.7Z</time>
      </trkpt>
      <trkpt lat="45.86031" lon="4.77238">
        <ele>396</ele>
        <time>2013-03-10T08:21:45.56Z</time>
      </trkpt>
      <trkpt lat="45.86029" lon="4.77239">
        <ele>396.5</ele>
        <time>2013-03-10T08:21:46.56Z</time>
      </trkpt>
      <trkpt lat="45.86027" lon="4.77239">
        <ele>396.9</ele>
        <time>2013-03-10T08:21:47.56Z</time>
      </trkpt>
      <trkpt lat="45.86026" lon="4.7724">
        <ele>397.2</ele>
        <time>2013-03-10T08:21:48.56Z</time>
      </trkpt>
      <trkpt lat="45.86025" lon="4.7724">
        <ele>397.5</ele>
        <time>2013-03-10T08:21:49.59Z</time>
      </trkpt>
      <trkpt lat="45.86024" lon="4.77242">
        <ele>397.8</ele>
        <time>2013-03-10T08:21:50.67Z</time>
      </trkpt>
      <trkpt lat="45.86022" lon="4.77244">
        <ele>398.3</ele>
        <time>2013-03-10T08:21:52.59Z</time>
      </trkpt>
      <trkpt lat="45.86022" lon="4.77246">
        <ele>398.6</ele>
        <time>2013-03-10T08:21:53.66Z</time>
      </trkpt>
      <trkpt lat="45.86023" lon="4.77251">
        <ele>398.8</ele>
        <time>2013-03-10T08:21:55.56Z</time>
      </trkpt>
      <trkpt lat="45.86025" lon="4.77251">
        <ele>398.7</ele>
        <time>2013-03-10T08:21:56.56Z</time>
      </trkpt>
      <trkpt lat="45.86025" lon="4.77253">
        <ele>398.7</ele>
        <time>2013-03-10T08:21:57.56Z</time>
      </trkpt>
      <trkpt lat="45.86026" lon="4.77255">
        <ele>398.7</ele>
        <time>2013-03-10T08:21:58.56Z</time>
      </trkpt>
      <trkpt lat="45.86027" lon="4.77258">
        <ele>401.1</ele>
        <time>2013-03-10T08:21:59.64Z</time>
      </trkpt>
      <trkpt lat="45.86028" lon="4.77265">
        <ele>399</ele>
        <time>2013-03-10T08:22:01.56Z</time>
      </trkpt>
      <trkpt lat="45.86029" lon="4.77268">
        <ele>399.1</ele>
        <time>2013-03-10T08:22:02.56Z</time>
      </trkpt>
      <trkpt lat="45.86028" lon="4.77272">
        <ele>399.6</ele>
        <time>2013-03-10T08:22:03.56Z</time>
      </trkpt>
      <trkpt lat="45.86027" lon="4.77275">
        <ele>400</ele>
        <time>2013-03-10T08:22:04.56Z</time>
      </trkpt>
      <trkpt lat="45.86027" lon="4.77277">
        <ele>400.3</ele>
        <time>2013-03-10T08:22:05.59Z</time>
      </trkpt>
      <trkpt lat="45.86027" lon="4.77279">
        <ele>400.2</ele>
        <time>2013-03-10T08:22:06.62Z</time>
      </trkpt>
      <trkpt lat="45.86026" lon="4.77284">
        <ele>400.1</ele>
        <time>2013-03-10T08:22:08.56Z</time>
      </trkpt>
      <trkpt lat="45.86026" lon="4.77287">
        <ele>399.9</ele>
        <time>2013-03-10T08:22:09.56Z</time>
      </trkpt>
      <trkpt lat="45.86026" lon="4.77289">
        <ele>399.7</ele>
        <time>2013-03-10T08:22:10.56Z</time>
      </trkpt>
      <trkpt lat="45.86026" lon="4.77291">
        <ele>399.6</ele>
        <time>2013-03-10T08:22:11.58Z</time>
      </trkpt>
      <trkpt lat="45.86027" lon="4.77294">
        <ele>399.3</ele>
        <time>2013-03-10T08:22:12.59Z</time>
      </trkpt>
      <trkpt lat="45.86027" lon="4.77297">
        <ele>399.1</ele>
        <time>2013-03-10T08:22:13.69Z</time>
      </trkpt>
      <trkpt lat="45.86026" lon="4.77305">
        <ele>398.7</ele>
        <time>2013-03-10T08:22:15.56Z</time>
      </trkpt>
      <trkpt lat="45.86026" lon="4.77309">
        <ele>398.3</ele>
        <time>2013-03-10T08:22:16.64Z</time>
      </trkpt>
      <trkpt lat="45.86027" lon="4.77316">
        <ele>397.3</ele>
        <time>2013-03-10T08:22:18.57Z</time>
      </trkpt>
      <trkpt lat="45.86027" lon="4.77319">
        <ele>397</ele>
        <time>2013-03-10T08:22:19.59Z</time>
      </trkpt>
      <trkpt lat="45.86028" lon="4.77322">
        <ele>396.3</ele>
        <time>2013-03-10T08:22:20.59Z</time>
      </trkpt>
      <trkpt lat="45.86028" lon="4.77326">
        <ele>395.9</ele>
        <time>2013-03-10T08:22:21.59Z</time>
      </trkpt>
      <trkpt lat="45.86027" lon="4.77331">
        <ele>395.9</ele>
        <time>2013-03-10T08:22:22.71Z</time>
      </trkpt>
      <trkpt lat="45.86025" lon="4.77338">
        <ele>396.5</ele>
        <time>2013-03-10T08:22:24.56Z</time>
      </trkpt>
      <trkpt lat="45.86025" lon="4.77341">
        <ele>396.6</ele>
        <time>2013-03-10T08:22:25.56Z</time>
      </trkpt>
      <trkpt lat="45.86026" lon="4.77343">
        <ele>396.3</ele>
        <time>2013-03-10T08:22:26.56Z</time>
      </trkpt>
      <trkpt lat="45.86026" lon="4.77346">
        <ele>396.5</ele>
        <time>2013-03-10T08:22:27.56Z</time>
      </trkpt>
      <trkpt lat="45.86026" lon="4.77349">
        <ele>396.4</ele>
        <time>2013-03-10T08:22:28.66Z</time>
      </trkpt>
      <trkpt lat="45.86028" lon="4.77355">
        <ele>395.9</ele>
        <time>2013-03-10T08:22:30.56Z</time>
      </trkpt>
      <trkpt lat="45.86029" lon="4.77359">
        <ele>395.5</ele>
        <time>2013-03-10T08:22:31.58Z</time>
      </trkpt>
      <trkpt lat="45.8603" lon="4.77362">
        <ele>395.1</ele>
        <time>2013-03-10T08:22:32.56Z</time>
      </trkpt>
      <trkpt lat="45.86032" lon="4.77365">
        <ele>395.2</ele>
        <time>2013-03-10T08:22:33.57Z</time>
      </trkpt>
      <trkpt lat="45.86034" lon="4.77368">
        <ele>395.4</ele>
        <time>2013-03-10T08:22:34.56Z</time>
      </trkpt>
      <trkpt lat="45.86035" lon="4.77371">
        <ele>395.6</ele>
        <time>2013-03-10T08:22:35.56Z</time>
      </trkpt>
      <trkpt lat="45.86037" lon="4.77374">
        <ele>395.6</ele>
        <time>2013-03-10T08:22:36.56Z</time>
      </trkpt>
      <trkpt lat="45.86039" lon="4.77376">
        <ele>395.6</ele>
        <time>2013-03-10T08:22:37.58Z</time>
      </trkpt>
      <trkpt lat="45.8604" lon="4.77378">
        <ele>395.6</ele>
        <time>2013-03-10T08:22:38.65Z</time>
      </trkpt>
      <trkpt lat="45.86043" lon="4.77382">
        <ele>395.8</ele>
        <time>2013-03-10T08:22:40.58Z</time>
      </trkpt>
      <trkpt lat="45.86044" lon="4.77384">
        <ele>395.9</ele>
        <time>2013-03-10T08:22:41.62Z</time>
      </trkpt>
      <trkpt lat="45.86046" lon="4.77389">
        <ele>396.6</ele>
        <time>2013-03-10T08:22:43.56Z</time>
      </trkpt>
      <trkpt lat="45.86048" lon="4.77392">
        <ele>397.1</ele>
        <time>2013-03-10T08:22:44.58Z</time>
      </trkpt>
      <trkpt lat="45.8605" lon="4.77395">
        <ele>397.8</ele>
        <time>2013-03-10T08:22:45.58Z</time>
      </trkpt>
      <trkpt lat="45.86051" lon="4.77398">
        <ele>398.5</ele>
        <time>2013-03-10T08:22:46.63Z</time>
      </trkpt>
      <trkpt lat="45.86054" lon="4.77404">
        <ele>399.4</ele>
        <time>2013-03-10T08:22:48.56Z</time>
      </trkpt>
      <trkpt lat="45.86055" lon="4.77407">
        <ele>400.1</ele>
        <time>2013-03-10T08:22:49.58Z</time>
      </trkpt>
      <trkpt lat="45.86056" lon="4.7741">
        <ele>400.5</ele>
        <time>2013-03-10T08:22:50.67Z</time>
      </trkpt>
      <trkpt lat="45.8606" lon="4.77414">
        <ele>401</ele>
        <time>2013-03-10T08:22:52.59Z</time>
      </trkpt>
      <trkpt lat="45.86062" lon="4.77417">
        <ele>401.7</ele>
        <time>2013-03-10T08:22:53.66Z</time>
      </trkpt>
      <trkpt lat="45.86065" lon="4.77424">
        <ele>403</ele>
        <time>2013-03-10T08:22:55.62Z</time>
      </trkpt>
      <trkpt lat="45.86068" lon="4.77431">
        <ele>404.4</ele>
        <time>2013-03-10T08:22:57.56Z</time>
      </trkpt>
      <trkpt lat="45.8607" lon="4.77435">
        <ele>405.2</ele>
        <time>2013-03-10T08:22:58.56Z</time>
      </trkpt>
      <trkpt lat="45.86072" lon="4.77439">
        <ele>419.7</ele>
        <time>2013-03-10T08:22:59.69Z</time>
      </trkpt>
      <trkpt lat="45.86074" lon="4.77444">
        <ele>407.3</ele>
        <time>2013-03-10T08:23:01.56Z</time>
      </trkpt>
      <trkpt lat="45.86075" lon="4.77448">
        <ele>407.8</ele>
        <time>2013-03-10T08:23:02.56Z</time>
      </trkpt>
      <trkpt lat="45.86075" lon="4.77451">
        <ele>408.4</ele>
        <time>2013-03-10T08:23:03.56Z</time>
      </trkpt>
      <trkpt lat="45.86077" lon="4.77454">
        <ele>408.8</ele>
        <time>2013-03-10T08:23:04.62Z</time>
      </trkpt>
      <trkpt lat="45.86079" lon="4.7746">
        <ele>409.3</ele>
        <time>2013-03-10T08:23:06.56Z</time>
      </trkpt>
      <trkpt lat="45.86079" lon="4.77463">
        <ele>409.9</ele>
        <time>2013-03-10T08:23:07.56Z</time>
      </trkpt>
      <trkpt lat="45.86079" lon="4.77466">
        <ele>410.6</ele>
        <time>2013-03-10T08:23:08.57Z</time>
      </trkpt>
      <trkpt lat="45.8608" lon="4.77469">
        <ele>411.3</ele>
        <time>2013-03-10T08:23:09.62Z</time>
      </trkpt>
      <trkpt lat="45.86077" lon="4.77472">
        <ele>412.4</ele>
        <time>2013-03-10T08:23:11.57Z</time>
      </trkpt>
      <trkpt lat="45.86076" lon="4.77473">
        <ele>412.9</ele>
        <time>2013-03-10T08:23:12.65Z</time>
      </trkpt>
      <trkpt lat="45.86072" lon="4.77475">
        <ele>413.8</ele>
        <time>2013-03-10T08:23:14.58Z</time>
      </trkpt>
      <trkpt lat="45.86071" lon="4.77476">
        <ele>414.1</ele>
        <time>2013-03-10T08:23:15.62Z</time>
      </trkpt>
      <trkpt lat="45.8607" lon="4.77477">
        <ele>414.5</ele>
        <time>2013-03-10T08:23:16.63Z</time>
      </trkpt>
      <trkpt lat="45.86065" lon="4.77479">
        <ele>415.7</ele>
        <time>2013-03-10T08:23:18.56Z</time>
      </trkpt>
      <trkpt lat="45.86063" lon="4.7748">
        <ele>416.2</ele>
        <time>2013-03-10T08:23:19.62Z</time>
      </trkpt>
      <trkpt lat="45.8606" lon="4.77482">
        <ele>416.9</ele>
        <time>2013-03-10T08:23:21.56Z</time>
      </trkpt>
      <trkpt lat="45.86058" lon="4.77481">
        <ele>417.3</ele>
        <time>2013-03-10T08:23:22.57Z</time>
      </trkpt>
      <trkpt lat="45.86058" lon="4.7748">
        <ele>417.5</ele>
        <time>2013-03-10T08:23:23.67Z</time>
      </trkpt>
      <trkpt lat="45.86053" lon="4.77479">
        <ele>418.5</ele>
        <time>2013-03-10T08:23:25.56Z</time>
      </trkpt>
      <trkpt lat="45.86051" lon="4.77478">
        <ele>418.9</ele>
        <time>2013-03-10T08:23:26.56Z</time>
      </trkpt>
      <trkpt lat="45.8605" lon="4.77478">
        <ele>419.2</ele>
        <time>2013-03-10T08:23:27.58Z</time>
      </trkpt>
      <trkpt lat="45.86048" lon="4.77477">
        <ele>419.6</ele>
        <time>2013-03-10T08:23:28.66Z</time>
      </trkpt>
      <trkpt lat="45.86046" lon="4.77478">
        <ele>420.1</ele>
        <time>2013-03-10T08:23:30.57Z</time>
      </trkpt>
      <trkpt lat="45.86045" lon="4.77479">
        <ele>420.4</ele>
        <time>2013-03-10T08:23:31.56Z</time>
      </trkpt>
      <trkpt lat="45.86043" lon="4.77479">
        <ele>420.8</ele>
        <time>2013-03-10T08:23:32.57Z</time>
      </trkpt>
      <trkpt lat="45.86041" lon="4.77479">
        <ele>421.2</ele>
        <time>2013-03-10T08:23:33.71Z</time>
      </trkpt>
      <trkpt lat="45.86038" lon="4.77479">
        <ele>421.9</ele>
        <time>2013-03-10T08:23:35.56Z</time>
      </trkpt>
      <trkpt lat="45.86036" lon="4.77478">
        <ele>422.3</ele>
        <time>2013-03-10T08:23:36.56Z</time>
      </trkpt>
      <trkpt lat="45.86034" lon="4.77478">
        <ele>422.7</ele>
        <time>2013-03-10T08:23:37.56Z</time>
      </trkpt>
      <trkpt lat="45.86032" lon="4.77478">
        <ele>423</ele>
        <time>2013-03-10T08:23:38.56Z</time>
      </trkpt>
      <trkpt lat="45.86031" lon="4.77478">
        <ele>423.3</ele>
        <time>2013-03-10T08:23:39.56Z</time>
      </trkpt>
      <trkpt lat="45.8603" lon="4.77479">
        <ele>423.6</ele>
        <time>2013-03-10T08:23:40.63Z</time>
      </trkpt>
      <trkpt lat="45.86025" lon="4.77481">
        <ele>424.7</ele>
        <time>2013-03-10T08:23:42.56Z</time>
      </trkpt>
      <trkpt lat="45.86023" lon="4.77481">
        <ele>425.2</ele>
        <time>2013-03-10T08:23:43.56Z</time>
      </trkpt>
      <trkpt lat="45.86021" lon="4.77481">
        <ele>425.6</ele>
        <time>2013-03-10T08:23:44.62Z</time>
      </trkpt>
      <trkpt lat="45.86018" lon="4.77481">
        <ele>426.3</ele>
        <time>2013-03-10T08:23:46.57Z</time>
      </trkpt>
      <trkpt lat="45.86017" lon="4.77481">
        <ele>426.5</ele>
        <time>2013-03-10T08:23:47.58Z</time>
      </trkpt>
      <trkpt lat="45.86014" lon="4.77483">
        <ele>427.3</ele>
        <time>2013-03-10T08:23:50.62Z</time>
      </trkpt>
      <trkpt lat="45.86011" lon="4.77483">
        <ele>428.1</ele>
        <time>2013-03-10T08:23:52.66Z</time>
      </trkpt>
      <trkpt lat="45.86009" lon="4.77484">
        <ele>428.5</ele>
        <time>2013-03-10T08:23:53.56Z</time>
      </trkpt>
      <trkpt lat="45.86007" lon="4.77484">
        <ele>429</ele>
        <time>2013-03-10T08:23:54.66Z</time>
      </trkpt>
      <trkpt lat="45.86002" lon="4.77487">
        <ele>429.9</ele>
        <time>2013-03-10T08:23:56.66Z</time>
      </trkpt>
      <trkpt lat="45.86" lon="4.77486">
        <ele>430.5</ele>
        <time>2013-03-10T08:23:58.67Z</time>
      </trkpt>
      <trkpt lat="45.85997" lon="4.77485">
        <ele>433.9</ele>
        <time>2013-03-10T08:24:00.66Z</time>
      </trkpt>
      <trkpt lat="45.85995" lon="4.77484">
        <ele>431.9</ele>
        <time>2013-03-10T08:24:01.56Z</time>
      </trkpt>
      <trkpt lat="45.85993" lon="4.77483">
        <ele>432.6</ele>
        <time>2013-03-10T08:24:02.66Z</time>
      </trkpt>
      <trkpt lat="45.85991" lon="4.77482">
        <ele>433.2</ele>
        <time>2013-03-10T08:24:03.56Z</time>
      </trkpt>
      <trkpt lat="45.85989" lon="4.7748">
        <ele>433.7</ele>
        <time>2013-03-10T08:24:04.66Z</time>
      </trkpt>
      <trkpt lat="45.85989" lon="4.7748">
        <ele>433.9</ele>
        <time>2013-03-10T08:24:05.56Z</time>
      </trkpt>
      <trkpt lat="45.85987" lon="4.77478">
        <ele>434.5</ele>
        <time>2013-03-10T08:24:07.57Z</time>
      </trkpt>
      <trkpt lat="45.85986" lon="4.77476">
        <ele>434.9</ele>
        <time>2013-03-10T08:24:08.67Z</time>
      </trkpt>
      <trkpt lat="45.85982" lon="4.77474">
        <ele>436.1</ele>
        <time>2013-03-10T08:24:10.66Z</time>
      </trkpt>
      <trkpt lat="45.85981" lon="4.77473">
        <ele>436.4</ele>
        <time>2013-03-10T08:24:11.56Z</time>
      </trkpt>
      <trkpt lat="45.8598" lon="4.77473">
        <ele>436.7</ele>
        <time>2013-03-10T08:24:12.66Z</time>
      </trkpt>
      <trkpt lat="45.85979" lon="4.77473">
        <ele>436.9</ele>
        <time>2013-03-10T08:24:13.56Z</time>
      </trkpt>
      <trkpt lat="45.85978" lon="4.77474">
        <ele>437.3</ele>
        <time>2013-03-10T08:24:14.66Z</time>
      </trkpt>
      <trkpt lat="45.85976" lon="4.77474">
        <ele>437.8</ele>
        <time>2013-03-10T08:24:15.56Z</time>
      </trkpt>
      <trkpt lat="45.85975" lon="4.77474">
        <ele>438.2</ele>
        <time>2013-03-10T08:24:16.61Z</time>
      </trkpt>
      <trkpt lat="45.85973" lon="4.77474">
        <ele>438.5</ele>
        <time>2013-03-10T08:24:18.69Z</time>
      </trkpt>
      <trkpt lat="45.85971" lon="4.77474">
        <ele>439.2</ele>
        <time>2013-03-10T08:24:20.66Z</time>
      </trkpt>
      <trkpt lat="45.85969" lon="4.77473">
        <ele>439.6</ele>
        <time>2013-03-10T08:24:21.56Z</time>
      </trkpt>
      <trkpt lat="45.85967" lon="4.77473">
        <ele>440.1</ele>
        <time>2013-03-10T08:24:22.66Z</time>
      </trkpt>
      <trkpt lat="45.85966" lon="4.77473">
        <ele>440.6</ele>
        <time>2013-03-10T08:24:23.56Z</time>
      </trkpt>
      <trkpt lat="45.85965" lon="4.77473">
        <ele>440.9</ele>
        <time>2013-03-10T08:24:24.71Z</time>
      </trkpt>
      <trkpt lat="45.85963" lon="4.77473">
        <ele>441.3</ele>
        <time>2013-03-10T08:24:26.56Z</time>
      </trkpt>
      <trkpt lat="45.85961" lon="4.77474">
        <ele>441.8</ele>
        <time>2013-03-10T08:24:28.56Z</time>
      </trkpt>
      <trkpt lat="45.8596" lon="4.77473">
        <ele>442.1</ele>
        <time>2013-03-10T08:24:29.65Z</time>
      </trkpt>
      <trkpt lat="45.85959" lon="4.77473">
        <ele>442.4</ele>
        <time>2013-03-10T08:24:30.56Z</time>
      </trkpt>
      <trkpt lat="45.85957" lon="4.77473">
        <ele>442.7</ele>
        <time>2013-03-10T08:24:31.65Z</time>
      </trkpt>
      <trkpt lat="45.85956" lon="4.77473">
        <ele>443.1</ele>
        <time>2013-03-10T08:24:32.56Z</time>
      </trkpt>
      <trkpt lat="45.85955" lon="4.77473">
        <ele>443.4</ele>
        <time>2013-03-10T08:24:33.7Z</time>
      </trkpt>
      <trkpt lat="45.85953" lon="4.77475">
        <ele>443.6</ele>
        <time>2013-03-10T08:24:35.57Z</time>
      </trkpt>
      <trkpt lat="45.85952" lon="4.77476">
        <ele>443.9</ele>
        <time>2013-03-10T08:24:36.66Z</time>
      </trkpt>
      <trkpt lat="45.85949" lon="4.77476">
        <ele>444.4</ele>
        <time>2013-03-10T08:24:37.56Z</time>
      </trkpt>
      <trkpt lat="45.85947" lon="4.77476">
        <ele>444.9</ele>
        <time>2013-03-10T08:24:38.69Z</time>
      </trkpt>
      <trkpt lat="45.85945" lon="4.77474">
        <ele>445.7</ele>
        <time>2013-03-10T08:24:40.56Z</time>
      </trkpt>
      <trkpt lat="45.85943" lon="4.77474">
        <ele>446.1</ele>
        <time>2013-03-10T08:24:41.65Z</time>
      </trkpt>
      <trkpt lat="45.85941" lon="4.77473">
        <ele>446.6</ele>
        <time>2013-03-10T08:24:42.56Z</time>
      </trkpt>
      <trkpt lat="45.85939" lon="4.77472">
        <ele>447.2</ele>
        <time>2013-03-10T08:24:43.7Z</time>
      </trkpt>
      <trkpt lat="45.85934" lon="4.7747">
        <ele>448.2</ele>
        <time>2013-03-10T08:24:45.56Z</time>
      </trkpt>
      <trkpt lat="45.85933" lon="4.77469">
        <ele>448.5</ele>
        <time>2013-03-10T08:24:46.63Z</time>
      </trkpt>
      <trkpt lat="45.85931" lon="4.77469">
        <ele>448.8</ele>
        <time>2013-03-10T08:24:47.56Z</time>
      </trkpt>
      <trkpt lat="45.8593" lon="4.77469">
        <ele>449.1</ele>
        <time>2013-03-10T08:24:48.67Z</time>
      </trkpt>
      <trkpt lat="45.85928" lon="4.77469">
        <ele>449.7</ele>
        <time>2013-03-10T08:24:50.6Z</time>
      </trkpt>
      <trkpt lat="45.85925" lon="4.77468">
        <ele>450.2</ele>
        <time>2013-03-10T08:24:51.56Z</time>
      </trkpt>
      <trkpt lat="45.85923" lon="4.77469">
        <ele>450.8</ele>
        <time>2013-03-10T08:24:52.71Z</time>
      </trkpt>
      <trkpt lat="45.85919" lon="4.77469">
        <ele>451.6</ele>
        <time>2013-03-10T08:24:54.56Z</time>
      </trkpt>
      <trkpt lat="45.85917" lon="4.77469">
        <ele>452</ele>
        <time>2013-03-10T08:24:55.65Z</time>
      </trkpt>
      <trkpt lat="45.85915" lon="4.7747">
        <ele>452.2</ele>
        <time>2013-03-10T08:24:56.56Z</time>
      </trkpt>
      <trkpt lat="45.85913" lon="4.7747">
        <ele>452.5</ele>
        <time>2013-03-10T08:24:57.65Z</time>
      </trkpt>
      <trkpt lat="45.85911" lon="4.7747">
        <ele>452.7</ele>
        <time>2013-03-10T08:24:58.56Z</time>
      </trkpt>
      <trkpt lat="45.85909" lon="4.7747">
        <ele>451.9</ele>
        <time>2013-03-10T08:24:59.59Z</time>
      </trkpt>
      <trkpt lat="45.85903" lon="4.77469">
        <ele>453.6</ele>
        <time>2013-03-10T08:25:01.65Z</time>
      </trkpt>
      <trkpt lat="45.85901" lon="4.77469">
        <ele>453.9</ele>
        <time>2013-03-10T08:25:02.56Z</time>
      </trkpt>
      <trkpt lat="45.85899" lon="4.77469">
        <ele>454.2</ele>
        <time>2013-03-10T08:25:03.69Z</time>
      </trkpt>
      <trkpt lat="45.85893" lon="4.77469">
        <ele>454.7</ele>
        <time>2013-03-10T08:25:05.56Z</time>
      </trkpt>
      <trkpt lat="45.85891" lon="4.77468">
        <ele>455</ele>
        <time>2013-03-10T08:25:06.65Z</time>
      </trkpt>
      <trkpt lat="45.8589" lon="4.77467">
        <ele>455.3</ele>
        <time>2013-03-10T08:25:07.56Z</time>
      </trkpt>
      <trkpt lat="45.85888" lon="4.77467">
        <ele>455.5</ele>
        <time>2013-03-10T08:25:08.66Z</time>
      </trkpt>
      <trkpt lat="45.85884" lon="4.77466">
        <ele>455.7</ele>
        <time>2013-03-10T08:25:10.64Z</time>
      </trkpt>
      <trkpt lat="45.85882" lon="4.77465">
        <ele>455.8</ele>
        <time>2013-03-10T08:25:11.56Z</time>
      </trkpt>
      <trkpt lat="45.85879" lon="4.77465">
        <ele>455.9</ele>
        <time>2013-03-10T08:25:12.64Z</time>
      </trkpt>
      <trkpt lat="45.85877" lon="4.77465">
        <ele>456</ele>
        <time>2013-03-10T08:25:13.56Z</time>
      </trkpt>
      <trkpt lat="45.85874" lon="4.77466">
        <ele>456.1</ele>
        <time>2013-03-10T08:25:14.64Z</time>
      </trkpt>
      <trkpt lat="45.85872" lon="4.77467">
        <ele>456.1</ele>
        <time>2013-03-10T08:25:15.56Z</time>
      </trkpt>
      <trkpt lat="45.8587" lon="4.77467">
        <ele>456.2</ele>
        <time>2013-03-10T08:25:16.62Z</time>
      </trkpt>
      <trkpt lat="45.85865" lon="4.77467">
        <ele>456.4</ele>
        <time>2013-03-10T08:25:18.56Z</time>
      </trkpt>
      <trkpt lat="45.85862" lon="4.77467">
        <ele>456.5</ele>
        <time>2013-03-10T08:25:19.64Z</time>
      </trkpt>
      <trkpt lat="45.85859" lon="4.77466">
        <ele>457</ele>
        <time>2013-03-10T08:25:21.64Z</time>
      </trkpt>
      <trkpt lat="45.85858" lon="4.77466">
        <ele>457.3</ele>
        <time>2013-03-10T08:25:22.56Z</time>
      </trkpt>
      <trkpt lat="45.85856" lon="4.77466">
        <ele>457.4</ele>
        <time>2013-03-10T08:25:23.65Z</time>
      </trkpt>
      <trkpt lat="45.85853" lon="4.77465">
        <ele>458.1</ele>
        <time>2013-03-10T08:25:25.64Z</time>
      </trkpt>
      <trkpt lat="45.85851" lon="4.77466">
        <ele>458.2</ele>
        <time>2013-03-10T08:25:26.56Z</time>
      </trkpt>
      <trkpt lat="45.85849" lon="4.77466">
        <ele>458.5</ele>
        <time>2013-03-10T08:25:27.64Z</time>
      </trkpt>
      <trkpt lat="45.85847" lon="4.77466">
        <ele>458.8</ele>
        <time>2013-03-10T08:25:28.56Z</time>
      </trkpt>
      <trkpt lat="45.85845" lon="4.77466">
        <ele>459.1</ele>
        <time>2013-03-10T08:25:29.64Z</time>
      </trkpt>
      <trkpt lat="45.85841" lon="4.77467">
        <ele>459.6</ele>
        <time>2013-03-10T08:25:31.64Z</time>
      </trkpt>
      <trkpt lat="45.85838" lon="4.77467">
        <ele>460.1</ele>
        <time>2013-03-10T08:25:32.56Z</time>
      </trkpt>
      <trkpt lat="45.85836" lon="4.77466">
        <ele>460.6</ele>
        <time>2013-03-10T08:25:33.72Z</time>
      </trkpt>
      <trkpt lat="45.85832" lon="4.77466">
        <ele>461</ele>
        <time>2013-03-10T08:25:35.56Z</time>
      </trkpt>
      <trkpt lat="45.8583" lon="4.77465">
        <ele>461.3</ele>
        <time>2013-03-10T08:25:36.64Z</time>
      </trkpt>
      <trkpt lat="45.85828" lon="4.77464">
        <ele>461.6</ele>
        <time>2013-03-10T08:25:37.64Z</time>
      </trkpt>
      <trkpt lat="45.85825" lon="4.7746">
        <ele>462.4</ele>
        <time>2013-03-10T08:25:39.57Z</time>
      </trkpt>
      <trkpt lat="45.85824" lon="4.77459">
        <ele>462.8</ele>
        <time>2013-03-10T08:25:40.57Z</time>
      </trkpt>
      <trkpt lat="45.85823" lon="4.77457">
        <ele>463.2</ele>
        <time>2013-03-10T08:25:41.57Z</time>
      </trkpt>
      <trkpt lat="45.85822" lon="4.77455">
        <ele>463.6</ele>
        <time>2013-03-10T08:25:42.57Z</time>
      </trkpt>
      <trkpt lat="45.8582" lon="4.77454">
        <ele>463.9</ele>
        <time>2013-03-10T08:25:43.57Z</time>
      </trkpt>
      <trkpt lat="45.85818" lon="4.77452">
        <ele>464.5</ele>
        <time>2013-03-10T08:25:44.64Z</time>
      </trkpt>
      <trkpt lat="45.85816" lon="4.7745">
        <ele>464.9</ele>
        <time>2013-03-10T08:25:45.64Z</time>
      </trkpt>
      <trkpt lat="45.85815" lon="4.77449">
        <ele>465.3</ele>
        <time>2013-03-10T08:25:46.64Z</time>
      </trkpt>
      <trkpt lat="45.85811" lon="4.77448">
        <ele>465.9</ele>
        <time>2013-03-10T08:25:48.64Z</time>
      </trkpt>
      <trkpt lat="45.85806" lon="4.77446">
        <ele>466.7</ele>
        <time>2013-03-10T08:25:50.57Z</time>
      </trkpt>
      <trkpt lat="45.85804" lon="4.77445">
        <ele>467.1</ele>
        <time>2013-03-10T08:25:51.57Z</time>
      </trkpt>
      <trkpt lat="45.85802" lon="4.77445">
        <ele>467.5</ele>
        <time>2013-03-10T08:25:52.57Z</time>
      </trkpt>
      <trkpt lat="45.85801" lon="4.77445">
        <ele>467.7</ele>
        <time>2013-03-10T08:25:53.57Z</time>
      </trkpt>
      <trkpt lat="45.85799" lon="4.77445">
        <ele>468.1</ele>
        <time>2013-03-10T08:25:54.57Z</time>
      </trkpt>
      <trkpt lat="45.85797" lon="4.77445">
        <ele>468.5</ele>
        <time>2013-03-10T08:25:55.56Z</time>
      </trkpt>
      <trkpt lat="45.85795" lon="4.77444">
        <ele>468.8</ele>
        <time>2013-03-10T08:25:56.56Z</time>
      </trkpt>
      <trkpt lat="45.85794" lon="4.77443">
        <ele>469</ele>
        <time>2013-03-10T08:25:57.56Z</time>
      </trkpt>
      <trkpt lat="45.85792" lon="4.77443">
        <ele>469.3</ele>
        <time>2013-03-10T08:25:58.56Z</time>
      </trkpt>
      <trkpt lat="45.8579" lon="4.77441">
        <ele>468.6</ele>
        <time>2013-03-10T08:25:59.59Z</time>
      </trkpt>
      <trkpt lat="45.85788" lon="4.77441">
        <ele>469.9</ele>
        <time>2013-03-10T08:26:00.63Z</time>
      </trkpt>
      <trkpt lat="45.85786" lon="4.77441">
        <ele>470.1</ele>
        <time>2013-03-10T08:26:01.63Z</time>
      </trkpt>
      <trkpt lat="45.85784" lon="4.7744">
        <ele>470.4</ele>
        <time>2013-03-10T08:26:02.61Z</time>
      </trkpt>
      <trkpt lat="45.8578" lon="4.77439">
        <ele>471</ele>
        <time>2013-03-10T08:26:04.63Z</time>
      </trkpt>
      <trkpt lat="45.85778" lon="4.77436">
        <ele>471.1</ele>
        <time>2013-03-10T08:26:05.63Z</time>
      </trkpt>
      <trkpt lat="45.85776" lon="4.77435">
        <ele>471.2</ele>
        <time>2013-03-10T08:26:06.71Z</time>
      </trkpt>
      <trkpt lat="45.85771" lon="4.77433">
        <ele>471.4</ele>
        <time>2013-03-10T08:26:08.56Z</time>
      </trkpt>
      <trkpt lat="45.85769" lon="4.77432">
        <ele>471.6</ele>
        <time>2013-03-10T08:26:09.56Z</time>
      </trkpt>
      <trkpt lat="45.85767" lon="4.77431">
        <ele>471.7</ele>
        <time>2013-03-10T08:26:10.56Z</time>
      </trkpt>
      <trkpt lat="45.85765" lon="4.77432">
        <ele>472</ele>
        <time>2013-03-10T08:26:11.56Z</time>
      </trkpt>
      <trkpt lat="45.85763" lon="4.77433">
        <ele>472.4</ele>
        <time>2013-03-10T08:26:12.56Z</time>
      </trkpt>
      <trkpt lat="45.85761" lon="4.77434">
        <ele>472.7</ele>
        <time>2013-03-10T08:26:13.56Z</time>
      </trkpt>
      <trkpt lat="45.85758" lon="4.77434">
        <ele>473.1</ele>
        <time>2013-03-10T08:26:14.56Z</time>
      </trkpt>
      <trkpt lat="45.85756" lon="4.77434">
        <ele>473.3</ele>
        <time>2013-03-10T08:26:15.56Z</time>
      </trkpt>
      <trkpt lat="45.85753" lon="4.77434">
        <ele>473.5</ele>
        <time>2013-03-10T08:26:16.57Z</time>
      </trkpt>
      <trkpt lat="45.85751" lon="4.77434">
        <ele>473.7</ele>
        <time>2013-03-10T08:26:17.58Z</time>
      </trkpt>
      <trkpt lat="45.85749" lon="4.77434">
        <ele>474</ele>
        <time>2013-03-10T08:26:18.56Z</time>
      </trkpt>
      <trkpt lat="45.85746" lon="4.77434">
        <ele>474.3</ele>
        <time>2013-03-10T08:26:19.63Z</time>
      </trkpt>
      <trkpt lat="45.85744" lon="4.77434">
        <ele>474.6</ele>
        <time>2013-03-10T08:26:20.63Z</time>
      </trkpt>
      <trkpt lat="45.85742" lon="4.77435">
        <ele>474.9</ele>
        <time>2013-03-10T08:26:21.63Z</time>
      </trkpt>
      <trkpt lat="45.8574" lon="4.77434">
        <ele>475.2</ele>
        <time>2013-03-10T08:26:22.63Z</time>
      </trkpt>
      <trkpt lat="45.85737" lon="4.77434">
        <ele>475.4</ele>
        <time>2013-03-10T08:26:23.65Z</time>
      </trkpt>
      <trkpt lat="45.85732" lon="4.77433">
        <ele>476</ele>
        <time>2013-03-10T08:26:25.56Z</time>
      </trkpt>
      <trkpt lat="45.85729" lon="4.77434">
        <ele>476.4</ele>
        <time>2013-03-10T08:26:26.56Z</time>
      </trkpt>
      <trkpt lat="45.85726" lon="4.77434">
        <ele>476.8</ele>
        <time>2013-03-10T08:26:27.56Z</time>
      </trkpt>
      <trkpt lat="45.85724" lon="4.77436">
        <ele>477.1</ele>
        <time>2013-03-10T08:26:28.56Z</time>
      </trkpt>
      <trkpt lat="45.85724" lon="4.77439">
        <ele>477.4</ele>
        <time>2013-03-10T08:26:29.56Z</time>
      </trkpt>
      <trkpt lat="45.85725" lon="4.77441">
        <ele>477.5</ele>
        <time>2013-03-10T08:26:30.56Z</time>
      </trkpt>
      <trkpt lat="45.85725" lon="4.77445">
        <ele>477.7</ele>
        <time>2013-03-10T08:26:31.56Z</time>
      </trkpt>
      <trkpt lat="45.85725" lon="4.77449">
        <ele>477.4</ele>
        <time>2013-03-10T08:26:32.56Z</time>
      </trkpt>
      <trkpt lat="45.85724" lon="4.77452">
        <ele>477.3</ele>
        <time>2013-03-10T08:26:33.57Z</time>
      </trkpt>
      <trkpt lat="45.85723" lon="4.77455">
        <ele>477.2</ele>
        <time>2013-03-10T08:26:34.62Z</time>
      </trkpt>
      <trkpt lat="45.85723" lon="4.77458">
        <ele>477</ele>
        <time>2013-03-10T08:26:35.62Z</time>
      </trkpt>
      <trkpt lat="45.85723" lon="4.7746">
        <ele>476.9</ele>
        <time>2013-03-10T08:26:36.62Z</time>
      </trkpt>
      <trkpt lat="45.85722" lon="4.77463">
        <ele>476.7</ele>
        <time>2013-03-10T08:26:37.62Z</time>
      </trkpt>
      <trkpt lat="45.85721" lon="4.77467">
        <ele>476.6</ele>
        <time>2013-03-10T08:26:38.68Z</time>
      </trkpt>
      <trkpt lat="45.85718" lon="4.77476">
        <ele>475.9</ele>
        <time>2013-03-10T08:26:40.56Z</time>
      </trkpt>
      <trkpt lat="45.85718" lon="4.7748">
        <ele>475.4</ele>
        <time>2013-03-10T08:26:41.56Z</time>
      </trkpt>
      <trkpt lat="45.85717" lon="4.77483">
        <ele>475.1</ele>
        <time>2013-03-10T08:26:42.62Z</time>
      </trkpt>
      <trkpt lat="45.85716" lon="4.77487">
        <ele>474.7</ele>
        <time>2013-03-10T08:26:43.66Z</time>
      </trkpt>
      <trkpt lat="45.85715" lon="4.77494">
        <ele>473.9</ele>
        <time>2013-03-10T08:26:45.56Z</time>
      </trkpt>
      <trkpt lat="45.85714" lon="4.77497">
        <ele>473.6</ele>
        <time>2013-03-10T08:26:46.56Z</time>
      </trkpt>
      <trkpt lat="45.85713" lon="4.77501">
        <ele>473.3</ele>
        <time>2013-03-10T08:26:47.56Z</time>
      </trkpt>
      <trkpt lat="45.85712" lon="4.77504">
        <ele>473</ele>
        <time>2013-03-10T08:26:48.56Z</time>
      </trkpt>
      <trkpt lat="45.85711" lon="4.77508">
        <ele>472.7</ele>
        <time>2013-03-10T08:26:49.56Z</time>
      </trkpt>
      <trkpt lat="45.85711" lon="4.77514">
        <ele>472.1</ele>
        <time>2013-03-10T08:26:50.57Z</time>
      </trkpt>
      <trkpt lat="45.8571" lon="4.77519">
        <ele>471.7</ele>
        <time>2013-03-10T08:26:51.62Z</time>
      </trkpt>
      <trkpt lat="45.85709" lon="4.77524">
        <ele>471.3</ele>
        <time>2013-03-10T08:26:52.62Z</time>
      </trkpt>
      <trkpt lat="45.85708" lon="4.77529">
        <ele>471</ele>
        <time>2013-03-10T08:26:53.73Z</time>
      </trkpt>
      <trkpt lat="45.85705" lon="4.77538">
        <ele>470.4</ele>
        <time>2013-03-10T08:26:55.62Z</time>
      </trkpt>
      <trkpt lat="45.85703" lon="4.77547">
        <ele>469.8</ele>
        <time>2013-03-10T08:26:57.62Z</time>
      </trkpt>
      <trkpt lat="45.85702" lon="4.77552">
        <ele>469.6</ele>
        <time>2013-03-10T08:26:58.69Z</time>
      </trkpt>
      <trkpt lat="45.857" lon="4.77557">
        <ele>482.4</ele>
        <time>2013-03-10T08:26:59.59Z</time>
      </trkpt>
      <trkpt lat="45.85697" lon="4.77566">
        <ele>469.5</ele>
        <time>2013-03-10T08:27:01.56Z</time>
      </trkpt>
      <trkpt lat="45.85697" lon="4.7757">
        <ele>469.3</ele>
        <time>2013-03-10T08:27:02.56Z</time>
      </trkpt>
      <trkpt lat="45.85696" lon="4.77575">
        <ele>469.3</ele>
        <time>2013-03-10T08:27:03.56Z</time>
      </trkpt>
      <trkpt lat="45.85695" lon="4.77579">
        <ele>469.3</ele>
        <time>2013-03-10T08:27:04.62Z</time>
      </trkpt>
      <trkpt lat="45.85693" lon="4.77588">
        <ele>469</ele>
        <time>2013-03-10T08:27:06.62Z</time>
      </trkpt>
      <trkpt lat="45.85692" lon="4.77593">
        <ele>468.7</ele>
        <time>2013-03-10T08:27:07.63Z</time>
      </trkpt>
      <trkpt lat="45.85691" lon="4.77602">
        <ele>468.2</ele>
        <time>2013-03-10T08:27:09.56Z</time>
      </trkpt>
      <trkpt lat="45.85692" lon="4.77606">
        <ele>467.6</ele>
        <time>2013-03-10T08:27:10.56Z</time>
      </trkpt>
      <trkpt lat="45.85692" lon="4.77609">
        <ele>467.1</ele>
        <time>2013-03-10T08:27:11.56Z</time>
      </trkpt>
      <trkpt lat="45.85692" lon="4.77613">
        <ele>466.6</ele>
        <time>2013-03-10T08:27:12.56Z</time>
      </trkpt>
      <trkpt lat="45.85692" lon="4.77617">
        <ele>466.3</ele>
        <time>2013-03-10T08:27:13.56Z</time>
      </trkpt>
      <trkpt lat="45.85692" lon="4.77621">
        <ele>466.1</ele>
        <time>2013-03-10T08:27:14.56Z</time>
      </trkpt>
      <trkpt lat="45.85691" lon="4.77626">
        <ele>465.8</ele>
        <time>2013-03-10T08:27:15.61Z</time>
      </trkpt>
      <trkpt lat="45.85691" lon="4.77631">
        <ele>465.3</ele>
        <time>2013-03-10T08:27:16.67Z</time>
      </trkpt>
      <trkpt lat="45.85691" lon="4.77641">
        <ele>464.3</ele>
        <time>2013-03-10T08:27:18.58Z</time>
      </trkpt>
      <trkpt lat="45.8569" lon="4.77646">
        <ele>463.7</ele>
        <time>2013-03-10T08:27:19.56Z</time>
      </trkpt>
      <trkpt lat="45.8569" lon="4.77652">
        <ele>463.4</ele>
        <time>2013-03-10T08:27:20.56Z</time>
      </trkpt>
      <trkpt lat="45.85689" lon="4.77656">
        <ele>463.2</ele>
        <time>2013-03-10T08:27:21.61Z</time>
      </trkpt>
      <trkpt lat="45.85688" lon="4.77661">
        <ele>462.9</ele>
        <time>2013-03-10T08:27:22.61Z</time>
      </trkpt>
      <trkpt lat="45.85687" lon="4.77666">
        <ele>462.6</ele>
        <time>2013-03-10T08:27:23.67Z</time>
      </trkpt>
      <trkpt lat="45.85686" lon="4.77675">
        <ele>462.5</ele>
        <time>2013-03-10T08:27:25.56Z</time>
      </trkpt>
      <trkpt lat="45.85685" lon="4.7768">
        <ele>462.5</ele>
        <time>2013-03-10T08:27:26.56Z</time>
      </trkpt>
      <trkpt lat="45.85684" lon="4.77685">
        <ele>462.4</ele>
        <time>2013-03-10T08:27:27.61Z</time>
      </trkpt>
      <trkpt lat="45.85684" lon="4.77689">
        <ele>462.1</ele>
        <time>2013-03-10T08:27:28.64Z</time>
      </trkpt>
      <trkpt lat="45.85684" lon="4.77697">
        <ele>461.8</ele>
        <time>2013-03-10T08:27:30.56Z</time>
      </trkpt>
      <trkpt lat="45.85683" lon="4.77702">
        <ele>461.6</ele>
        <time>2013-03-10T08:27:31.56Z</time>
      </trkpt>
      <trkpt lat="45.85683" lon="4.77706">
        <ele>461.5</ele>
        <time>2013-03-10T08:27:32.56Z</time>
      </trkpt>
      <trkpt lat="45.85682" lon="4.77711">
        <ele>461.5</ele>
        <time>2013-03-10T08:27:33.69Z</time>
      </trkpt>
      <trkpt lat="45.85679" lon="4.77719">
        <ele>461.9</ele>
        <time>2013-03-10T08:27:35.56Z</time>
      </trkpt>
      <trkpt lat="45.85678" lon="4.77723">
        <ele>462.2</ele>
        <time>2013-03-10T08:27:36.56Z</time>
      </trkpt>
      <trkpt lat="45.85676" lon="4.77727">
        <ele>462.4</ele>
        <time>2013-03-10T08:27:37.56Z</time>
      </trkpt>
      <trkpt lat="45.85676" lon="4.77732">
        <ele>462.2</ele>
        <time>2013-03-10T08:27:38.56Z</time>
      </trkpt>
      <trkpt lat="45.85675" lon="4.77738">
        <ele>462.1</ele>
        <time>2013-03-10T08:27:39.56Z</time>
      </trkpt>
      <trkpt lat="45.85674" lon="4.77742">
        <ele>461.7</ele>
        <time>2013-03-10T08:27:40.56Z</time>
      </trkpt>
      <trkpt lat="45.85674" lon="4.77747">
        <ele>461.4</ele>
        <time>2013-03-10T08:27:41.57Z</time>
      </trkpt>
      <trkpt lat="45.85673" lon="4.77752">
        <ele>461.2</ele>
        <time>2013-03-10T08:27:42.56Z</time>
      </trkpt>
      <trkpt lat="45.85673" lon="4.77756">
        <ele>460.6</ele>
        <time>2013-03-10T08:27:43.56Z</time>
      </trkpt>
      <trkpt lat="45.85673" lon="4.77761">
        <ele>460.5</ele>
        <time>2013-03-10T08:27:44.57Z</time>
      </trkpt>
      <trkpt lat="45.85672" lon="4.77764">
        <ele>460.3</ele>
        <time>2013-03-10T08:27:45.59Z</time>
      </trkpt>
      <trkpt lat="45.85672" lon="4.77768">
        <ele>460.1</ele>
        <time>2013-03-10T08:27:46.61Z</time>
      </trkpt>
      <trkpt lat="45.85671" lon="4.77772">
        <ele>460.1</ele>
        <time>2013-03-10T08:27:47.62Z</time>
      </trkpt>
      <trkpt lat="45.8567" lon="4.77775">
        <ele>460.1</ele>
        <time>2013-03-10T08:27:48.66Z</time>
      </trkpt>
      <trkpt lat="45.85668" lon="4.77781">
        <ele>460.2</ele>
        <time>2013-03-10T08:27:50.66Z</time>
      </trkpt>
      <trkpt lat="45.85665" lon="4.77791">
        <ele>460.4</ele>
        <time>2013-03-10T08:27:52.56Z</time>
      </trkpt>
      <trkpt lat="45.85664" lon="4.77796">
        <ele>460.1</ele>
        <time>2013-03-10T08:27:53.56Z</time>
      </trkpt>
      <trkpt lat="45.85663" lon="4.778">
        <ele>460.1</ele>
        <time>2013-03-10T08:27:54.56Z</time>
      </trkpt>
      <trkpt lat="45.85662" lon="4.77804">
        <ele>459.9</ele>
        <time>2013-03-10T08:27:55.56Z</time>
      </trkpt>
      <trkpt lat="45.85661" lon="4.77808">
        <ele>459.8</ele>
        <time>2013-03-10T08:27:56.56Z</time>
      </trkpt>
      <trkpt lat="45.8566" lon="4.77812">
        <ele>459.7</ele>
        <time>2013-03-10T08:27:57.57Z</time>
      </trkpt>
      <trkpt lat="45.85658" lon="4.77816">
        <ele>459.7</ele>
        <time>2013-03-10T08:27:58.56Z</time>
      </trkpt>
      <trkpt lat="45.85657" lon="4.7782">
        <ele>475.2</ele>
        <time>2013-03-10T08:27:59.64Z</time>
      </trkpt>
      <trkpt lat="45.85653" lon="4.77826">
        <ele>460</ele>
        <time>2013-03-10T08:28:01.56Z</time>
      </trkpt>
      <trkpt lat="45.85651" lon="4.77829">
        <ele>460.1</ele>
        <time>2013-03-10T08:28:02.56Z</time>
      </trkpt>
      <trkpt lat="45.8565" lon="4.77833">
        <ele>460</ele>
        <time>2013-03-10T08:28:03.56Z</time>
      </trkpt>
      <trkpt lat="45.85649" lon="4.77837">
        <ele>459.7</ele>
        <time>2013-03-10T08:28:04.6Z</time>
      </trkpt>
      <trkpt lat="45.85648" lon="4.77842">
        <ele>459.5</ele>
        <time>2013-03-10T08:28:05.6Z</time>
      </trkpt>
      <trkpt lat="45.85645" lon="4.77845">
        <ele>459.6</ele>
        <time>2013-03-10T08:28:06.62Z</time>
      </trkpt>
      <trkpt lat="45.85644" lon="4.77852">
        <ele>459.1</ele>
        <time>2013-03-10T08:28:08.56Z</time>
      </trkpt>
      <trkpt lat="45.85642" lon="4.77855">
        <ele>459</ele>
        <time>2013-03-10T08:28:09.58Z</time>
      </trkpt>
      <trkpt lat="45.85641" lon="4.77858">
        <ele>459</ele>
        <time>2013-03-10T08:28:10.56Z</time>
      </trkpt>
      <trkpt lat="45.85638" lon="4.77862">
        <ele>459</ele>
        <time>2013-03-10T08:28:11.56Z</time>
      </trkpt>
      <trkpt lat="45.85635" lon="4.77866">
        <ele>458.6</ele>
        <time>2013-03-10T08:28:12.56Z</time>
      </trkpt>
      <trkpt lat="45.85633" lon="4.7787">
        <ele>458.2</ele>
        <time>2013-03-10T08:28:13.56Z</time>
      </trkpt>
      <trkpt lat="45.8563" lon="4.77874">
        <ele>457.9</ele>
        <time>2013-03-10T08:28:14.6Z</time>
      </trkpt>
      <trkpt lat="45.85628" lon="4.77879">
        <ele>457.5</ele>
        <time>2013-03-10T08:28:15.6Z</time>
      </trkpt>
      <trkpt lat="45.85627" lon="4.77883">
        <ele>457.1</ele>
        <time>2013-03-10T08:28:16.65Z</time>
      </trkpt>
      <trkpt lat="45.85628" lon="4.77891">
        <ele>456.2</ele>
        <time>2013-03-10T08:28:18.56Z</time>
      </trkpt>
      <trkpt lat="45.85628" lon="4.77895">
        <ele>455.9</ele>
        <time>2013-03-10T08:28:19.6Z</time>
      </trkpt>
      <trkpt lat="45.85629" lon="4.779">
        <ele>455.7</ele>
        <time>2013-03-10T08:28:20.62Z</time>
      </trkpt>
      <trkpt lat="45.8563" lon="4.77907">
        <ele>455.4</ele>
        <time>2013-03-10T08:28:22.6Z</time>
      </trkpt>
      <trkpt lat="45.85629" lon="4.77911">
        <ele>455.3</ele>
        <time>2013-03-10T08:28:23.72Z</time>
      </trkpt>
      <trkpt lat="45.85628" lon="4.77918">
        <ele>455</ele>
        <time>2013-03-10T08:28:25.6Z</time>
      </trkpt>
      <trkpt lat="45.85627" lon="4.77922">
        <ele>454.4</ele>
        <time>2013-03-10T08:28:26.6Z</time>
      </trkpt>
      <trkpt lat="45.85626" lon="4.77927">
        <ele>453.8</ele>
        <time>2013-03-10T08:28:27.6Z</time>
      </trkpt>
      <trkpt lat="45.85624" lon="4.77931">
        <ele>453.6</ele>
        <time>2013-03-10T08:28:28.68Z</time>
      </trkpt>
      <trkpt lat="45.8562" lon="4.77938">
        <ele>453.6</ele>
        <time>2013-03-10T08:28:30.6Z</time>
      </trkpt>
      <trkpt lat="45.85618" lon="4.77942">
        <ele>453.6</ele>
        <time>2013-03-10T08:28:31.62Z</time>
      </trkpt>
      <trkpt lat="45.85613" lon="4.77947">
        <ele>454.3</ele>
        <time>2013-03-10T08:28:33.68Z</time>
      </trkpt>
      <trkpt lat="45.85609" lon="4.77951">
        <ele>455</ele>
        <time>2013-03-10T08:28:35.58Z</time>
      </trkpt>
      <trkpt lat="45.85609" lon="4.77953">
        <ele>455.1</ele>
        <time>2013-03-10T08:28:36.56Z</time>
      </trkpt>
      <trkpt lat="45.85609" lon="4.77954">
        <ele>454.9</ele>
        <time>2013-03-10T08:28:37.56Z</time>
      </trkpt>
      <trkpt lat="45.85609" lon="4.77956">
        <ele>454.7</ele>
        <time>2013-03-10T08:28:38.56Z</time>
      </trkpt>
      <trkpt lat="45.85609" lon="4.77958">
        <ele>454.7</ele>
        <time>2013-03-10T08:28:39.56Z</time>
      </trkpt>
      <trkpt lat="45.8561" lon="4.77959">
        <ele>454.5</ele>
        <time>2013-03-10T08:28:40.59Z</time>
      </trkpt>
      <trkpt lat="45.8561" lon="4.77961">
        <ele>454.4</ele>
        <time>2013-03-10T08:28:41.63Z</time>
      </trkpt>
      <trkpt lat="45.8561" lon="4.77965">
        <ele>454</ele>
        <time>2013-03-10T08:28:43.56Z</time>
      </trkpt>
      <trkpt lat="45.85611" lon="4.77967">
        <ele>453.5</ele>
        <time>2013-03-10T08:28:44.56Z</time>
      </trkpt>
      <trkpt lat="45.85611" lon="4.77969">
        <ele>453.2</ele>
        <time>2013-03-10T08:28:45.56Z</time>
      </trkpt>
      <trkpt lat="45.85612" lon="4.77972">
        <ele>452.8</ele>
        <time>2013-03-10T08:28:46.57Z</time>
      </trkpt>
      <trkpt lat="45.85614" lon="4.77975">
        <ele>452.7</ele>
        <time>2013-03-10T08:28:47.57Z</time>
      </trkpt>
      <trkpt lat="45.85614" lon="4.77978">
        <ele>452.8</ele>
        <time>2013-03-10T08:28:48.56Z</time>
      </trkpt>
      <trkpt lat="45.85614" lon="4.7798">
        <ele>453.1</ele>
        <time>2013-03-10T08:28:49.56Z</time>
      </trkpt>
      <trkpt lat="45.85614" lon="4.77981">
        <ele>453.2</ele>
        <time>2013-03-10T08:28:50.57Z</time>
      </trkpt>
      <trkpt lat="45.85614" lon="4.77984">
        <ele>453.4</ele>
        <time>2013-03-10T08:28:51.59Z</time>
      </trkpt>
      <trkpt lat="45.85614" lon="4.77986">
        <ele>453.8</ele>
        <time>2013-03-10T08:28:52.59Z</time>
      </trkpt>
      <trkpt lat="45.85613" lon="4.77988">
        <ele>454.3</ele>
        <time>2013-03-10T08:28:53.68Z</time>
      </trkpt>
      <trkpt lat="45.85613" lon="4.77992">
        <ele>454.6</ele>
        <time>2013-03-10T08:28:55.56Z</time>
      </trkpt>
      <trkpt lat="45.85615" lon="4.77995">
        <ele>454.6</ele>
        <time>2013-03-10T08:28:56.56Z</time>
      </trkpt>
      <trkpt lat="45.85615" lon="4.77997">
        <ele>454.7</ele>
        <time>2013-03-10T08:28:57.56Z</time>
      </trkpt>
      <trkpt lat="45.85616" lon="4.77999">
        <ele>454.6</ele>
        <time>2013-03-10T08:28:58.56Z</time>
      </trkpt>
      <trkpt lat="45.85617" lon="4.78">
        <ele>473.6</ele>
        <time>2013-03-10T08:28:59.59Z</time>
      </trkpt>
      <trkpt lat="45.85618" lon="4.78001">
        <ele>454.5</ele>
        <time>2013-03-10T08:29:00.59Z</time>
      </trkpt>
      <trkpt lat="45.85618" lon="4.78003">
        <ele>454.7</ele>
        <time>2013-03-10T08:29:01.58Z</time>
      </trkpt>
      <trkpt lat="45.85618" lon="4.78005">
        <ele>455.1</ele>
        <time>2013-03-10T08:29:02.59Z</time>
      </trkpt>
      <trkpt lat="45.85618" lon="4.78008">
        <ele>455.8</ele>
        <time>2013-03-10T08:29:03.74Z</time>
      </trkpt>
      <trkpt lat="45.85617" lon="4.78014">
        <ele>457.4</ele>
        <time>2013-03-10T08:29:05.59Z</time>
      </trkpt>
      <trkpt lat="45.85617" lon="4.78015">
        <ele>457.7</ele>
        <time>2013-03-10T08:29:06.61Z</time>
      </trkpt>
      <trkpt lat="45.85618" lon="4.78019">
        <ele>458.3</ele>
        <time>2013-03-10T08:29:08.56Z</time>
      </trkpt>
      <trkpt lat="45.85618" lon="4.78022">
        <ele>458.9</ele>
        <time>2013-03-10T08:29:09.59Z</time>
      </trkpt>
      <trkpt lat="45.85618" lon="4.78024">
        <ele>459.2</ele>
        <time>2013-03-10T08:29:10.59Z</time>
      </trkpt>
      <trkpt lat="45.85619" lon="4.78026">
        <ele>459.5</ele>
        <time>2013-03-10T08:29:11.58Z</time>
      </trkpt>
      <trkpt lat="45.85619" lon="4.78028">
        <ele>460</ele>
        <time>2013-03-10T08:29:12.58Z</time>
      </trkpt>
      <trkpt lat="45.8562" lon="4.78031">
        <ele>460.2</ele>
        <time>2013-03-10T08:29:14.58Z</time>
      </trkpt>
      <trkpt lat="45.85621" lon="4.78033">
        <ele>460.4</ele>
        <time>2013-03-10T08:29:15.58Z</time>
      </trkpt>
      <trkpt lat="45.85623" lon="4.78036">
        <ele>460.6</ele>
        <time>2013-03-10T08:29:16.64Z</time>
      </trkpt>
      <trkpt lat="45.85627" lon="4.78043">
        <ele>461.1</ele>
        <time>2013-03-10T08:29:18.56Z</time>
      </trkpt>
      <trkpt lat="45.85629" lon="4.78045">
        <ele>461.1</ele>
        <time>2013-03-10T08:29:19.61Z</time>
      </trkpt>
      <trkpt lat="45.85632" lon="4.7805">
        <ele>461.5</ele>
        <time>2013-03-10T08:29:21.58Z</time>
      </trkpt>
      <trkpt lat="45.85634" lon="4.78052">
        <ele>461.6</ele>
        <time>2013-03-10T08:29:22.59Z</time>
      </trkpt>
      <trkpt lat="45.85635" lon="4.78052">
        <ele>461.3</ele>
        <time>2013-03-10T08:29:23.64Z</time>
      </trkpt>
      <trkpt lat="45.85637" lon="4.78051">
        <ele>460.4</ele>
        <time>2013-03-10T08:29:25.57Z</time>
      </trkpt>
      <trkpt lat="45.85638" lon="4.78049">
        <ele>459.8</ele>
        <time>2013-03-10T08:29:26.56Z</time>
      </trkpt>
      <trkpt lat="45.85638" lon="4.78048">
        <ele>459.2</ele>
        <time>2013-03-10T08:29:27.66Z</time>
      </trkpt>
      <trkpt lat="45.8564" lon="4.78046">
        <ele>458.3</ele>
        <time>2013-03-10T08:29:29.56Z</time>
      </trkpt>
      <trkpt lat="45.85641" lon="4.78044">
        <ele>457.8</ele>
        <time>2013-03-10T08:29:30.56Z</time>
      </trkpt>
      <trkpt lat="45.85641" lon="4.78043">
        <ele>457.3</ele>
        <time>2013-03-10T08:29:31.56Z</time>
      </trkpt>
      <trkpt lat="45.85642" lon="4.78042">
        <ele>456.9</ele>
        <time>2013-03-10T08:29:32.56Z</time>
      </trkpt>
      <trkpt lat="45.85642" lon="4.7804">
        <ele>456.4</ele>
        <time>2013-03-10T08:29:33.73Z</time>
      </trkpt>
      <trkpt lat="45.85646" lon="4.78038">
        <ele>455</ele>
        <time>2013-03-10T08:29:35.59Z</time>
      </trkpt>
      <trkpt lat="45.85648" lon="4.78036">
        <ele>454</ele>
        <time>2013-03-10T08:29:36.58Z</time>
      </trkpt>
      <trkpt lat="45.85649" lon="4.78033">
        <ele>452.9</ele>
        <time>2013-03-10T08:29:37.58Z</time>
      </trkpt>
      <trkpt lat="45.8565" lon="4.7803">
        <ele>452.1</ele>
        <time>2013-03-10T08:29:38.75Z</time>
      </trkpt>
      <trkpt lat="45.8565" lon="4.78023">
        <ele>450.6</ele>
        <time>2013-03-10T08:29:40.56Z</time>
      </trkpt>
      <trkpt lat="45.85651" lon="4.7802">
        <ele>449.8</ele>
        <time>2013-03-10T08:29:41.57Z</time>
      </trkpt>
      <trkpt lat="45.85652" lon="4.78017">
        <ele>449</ele>
        <time>2013-03-10T08:29:42.56Z</time>
      </trkpt>
      <trkpt lat="45.85652" lon="4.78014">
        <ele>448.4</ele>
        <time>2013-03-10T08:29:43.56Z</time>
      </trkpt>
      <trkpt lat="45.85654" lon="4.78012">
        <ele>447.7</ele>
        <time>2013-03-10T08:29:44.56Z</time>
      </trkpt>
      <trkpt lat="45.85655" lon="4.78009">
        <ele>446.9</ele>
        <time>2013-03-10T08:29:45.56Z</time>
      </trkpt>
      <trkpt lat="45.85656" lon="4.78007">
        <ele>446</ele>
        <time>2013-03-10T08:29:46.56Z</time>
      </trkpt>
      <trkpt lat="45.85658" lon="4.78005">
        <ele>445.2</ele>
        <time>2013-03-10T08:29:47.57Z</time>
      </trkpt>
      <trkpt lat="45.8566" lon="4.78002">
        <ele>444.2</ele>
        <time>2013-03-10T08:29:48.56Z</time>
      </trkpt>
      <trkpt lat="45.85661" lon="4.77999">
        <ele>443.3</ele>
        <time>2013-03-10T08:29:49.58Z</time>
      </trkpt>
      <trkpt lat="45.85662" lon="4.77997">
        <ele>442.7</ele>
        <time>2013-03-10T08:29:50.63Z</time>
      </trkpt>
      <trkpt lat="45.85664" lon="4.77995">
        <ele>441.9</ele>
        <time>2013-03-10T08:29:51.56Z</time>
      </trkpt>
      <trkpt lat="45.85666" lon="4.77992">
        <ele>441</ele>
        <time>2013-03-10T08:29:52.57Z</time>
      </trkpt>
      <trkpt lat="45.85669" lon="4.7799">
        <ele>440.1</ele>
        <time>2013-03-10T08:29:53.7Z</time>
      </trkpt>
      <trkpt lat="45.85673" lon="4.77988">
        <ele>438.6</ele>
        <time>2013-03-10T08:29:55.56Z</time>
      </trkpt>
      <trkpt lat="45.85675" lon="4.77986">
        <ele>437.9</ele>
        <time>2013-03-10T08:29:56.57Z</time>
      </trkpt>
      <trkpt lat="45.85677" lon="4.77985">
        <ele>437.1</ele>
        <time>2013-03-10T08:29:57.58Z</time>
      </trkpt>
      <trkpt lat="45.8568" lon="4.77983">
        <ele>436.1</ele>
        <time>2013-03-10T08:29:58.69Z</time>
      </trkpt>
      <trkpt lat="45.85686" lon="4.77983">
        <ele>478.6</ele>
        <time>2013-03-10T08:30:00.57Z</time>
      </trkpt>
      <trkpt lat="45.85689" lon="4.77983">
        <ele>433.4</ele>
        <time>2013-03-10T08:30:01.58Z</time>
      </trkpt>
      <trkpt lat="45.85696" lon="4.77985">
        <ele>431.9</ele>
        <time>2013-03-10T08:30:03.65Z</time>
      </trkpt>
      <trkpt lat="45.85699" lon="4.77986">
        <ele>431.1</ele>
        <time>2013-03-10T08:30:05.57Z</time>
      </trkpt>
      <trkpt lat="45.85701" lon="4.77984">
        <ele>430.2</ele>
        <time>2013-03-10T08:30:06.63Z</time>
      </trkpt>
      <trkpt lat="45.85703" lon="4.77979">
        <ele>428.8</ele>
        <time>2013-03-10T08:30:08.56Z</time>
      </trkpt>
      <trkpt lat="45.85705" lon="4.77976">
        <ele>427.8</ele>
        <time>2013-03-10T08:30:09.57Z</time>
      </trkpt>
      <trkpt lat="45.85707" lon="4.77974">
        <ele>426.7</ele>
        <time>2013-03-10T08:30:10.58Z</time>
      </trkpt>
      <trkpt lat="45.85709" lon="4.77971">
        <ele>425.8</ele>
        <time>2013-03-10T08:30:11.62Z</time>
      </trkpt>
      <trkpt lat="45.85714" lon="4.77966">
        <ele>424.8</ele>
        <time>2013-03-10T08:30:13.56Z</time>
      </trkpt>
      <trkpt lat="45.85716" lon="4.77965">
        <ele>424.1</ele>
        <time>2013-03-10T08:30:14.65Z</time>
      </trkpt>
      <trkpt lat="45.85723" lon="4.77962">
        <ele>422.2</ele>
        <time>2013-03-10T08:30:16.62Z</time>
      </trkpt>
      <trkpt lat="45.85731" lon="4.77961">
        <ele>420.2</ele>
        <time>2013-03-10T08:30:18.56Z</time>
      </trkpt>
      <trkpt lat="45.85735" lon="4.77963">
        <ele>419.1</ele>
        <time>2013-03-10T08:30:19.58Z</time>
      </trkpt>
      <trkpt lat="45.85738" lon="4.77966">
        <ele>418.3</ele>
        <time>2013-03-10T08:30:20.57Z</time>
      </trkpt>
      <trkpt lat="45.85741" lon="4.77969">
        <ele>417.4</ele>
        <time>2013-03-10T08:30:21.58Z</time>
      </trkpt>
      <trkpt lat="45.85743" lon="4.77971">
        <ele>416.8</ele>
        <time>2013-03-10T08:30:22.69Z</time>
      </trkpt>
      <trkpt lat="45.85748" lon="4.77973">
        <ele>415.6</ele>
        <time>2013-03-10T08:30:24.56Z</time>
      </trkpt>
      <trkpt lat="45.85751" lon="4.77972">
        <ele>414.9</ele>
        <time>2013-03-10T08:30:25.56Z</time>
      </trkpt>
      <trkpt lat="45.85753" lon="4.77971">
        <ele>414.4</ele>
        <time>2013-03-10T08:30:26.56Z</time>
      </trkpt>
      <trkpt lat="45.85755" lon="4.77969">
        <ele>414.1</ele>
        <time>2013-03-10T08:30:27.56Z</time>
      </trkpt>
      <trkpt lat="45.85756" lon="4.77967">
        <ele>413.8</ele>
        <time>2013-03-10T08:30:28.66Z</time>
      </trkpt>
      <trkpt lat="45.8576" lon="4.77965">
        <ele>413</ele>
        <time>2013-03-10T08:30:30.56Z</time>
      </trkpt>
      <trkpt lat="45.85763" lon="4.77965">
        <ele>412.4</ele>
        <time>2013-03-10T08:30:31.56Z</time>
      </trkpt>
      <trkpt lat="45.85766" lon="4.77965">
        <ele>411.7</ele>
        <time>2013-03-10T08:30:32.56Z</time>
      </trkpt>
      <trkpt lat="45.85769" lon="4.77965">
        <ele>411</ele>
        <time>2013-03-10T08:30:33.57Z</time>
      </trkpt>
      <trkpt lat="45.85775" lon="4.77965">
        <ele>409.5</ele>
        <time>2013-03-10T08:30:35.57Z</time>
      </trkpt>
      <trkpt lat="45.85779" lon="4.77965">
        <ele>408.8</ele>
        <time>2013-03-10T08:30:36.66Z</time>
      </trkpt>
      <trkpt lat="45.85784" lon="4.77967">
        <ele>407.6</ele>
        <time>2013-03-10T08:30:38.67Z</time>
      </trkpt>
      <trkpt lat="45.85792" lon="4.77965">
        <ele>406.1</ele>
        <time>2013-03-10T08:30:40.56Z</time>
      </trkpt>
      <trkpt lat="45.85795" lon="4.77965">
        <ele>405.5</ele>
        <time>2013-03-10T08:30:41.66Z</time>
      </trkpt>
      <trkpt lat="45.85801" lon="4.77964">
        <ele>404.1</ele>
        <time>2013-03-10T08:30:43.69Z</time>
      </trkpt>
      <trkpt lat="45.85806" lon="4.77962">
        <ele>403.2</ele>
        <time>2013-03-10T08:30:45.56Z</time>
      </trkpt>
      <trkpt lat="45.8581" lon="4.77961">
        <ele>402.3</ele>
        <time>2013-03-10T08:30:46.66Z</time>
      </trkpt>
      <trkpt lat="45.85814" lon="4.77959">
        <ele>401.4</ele>
        <time>2013-03-10T08:30:47.56Z</time>
      </trkpt>
      <trkpt lat="45.85817" lon="4.77958">
        <ele>400.6</ele>
        <time>2013-03-10T08:30:48.66Z</time>
      </trkpt>
      <trkpt lat="45.85823" lon="4.77958">
        <ele>399.1</ele>
        <time>2013-03-10T08:30:50.61Z</time>
      </trkpt>
      <trkpt lat="45.85826" lon="4.77956">
        <ele>398.5</ele>
        <time>2013-03-10T08:30:51.56Z</time>
      </trkpt>
      <trkpt lat="45.85828" lon="4.77955">
        <ele>397.9</ele>
        <time>2013-03-10T08:30:52.64Z</time>
      </trkpt>
      <trkpt lat="45.85831" lon="4.77956">
        <ele>397.2</ele>
        <time>2013-03-10T08:30:53.56Z</time>
      </trkpt>
      <trkpt lat="45.85833" lon="4.77957">
        <ele>396.6</ele>
        <time>2013-03-10T08:30:54.66Z</time>
      </trkpt>
      <trkpt lat="45.85835" lon="4.77956">
        <ele>396.2</ele>
        <time>2013-03-10T08:30:55.56Z</time>
      </trkpt>
      <trkpt lat="45.85838" lon="4.77958">
        <ele>395.7</ele>
        <time>2013-03-10T08:30:56.66Z</time>
      </trkpt>
      <trkpt lat="45.85843" lon="4.7796">
        <ele>394.7</ele>
        <time>2013-03-10T08:30:58.67Z</time>
      </trkpt>
      <trkpt lat="45.85848" lon="4.77958">
        <ele>442.6</ele>
        <time>2013-03-10T08:31:00.7Z</time>
      </trkpt>
      <trkpt lat="45.85851" lon="4.77959">
        <ele>393.3</ele>
        <time>2013-03-10T08:31:02.56Z</time>
      </trkpt>
      <trkpt lat="45.85853" lon="4.7796">
        <ele>392.9</ele>
        <time>2013-03-10T08:31:03.66Z</time>
      </trkpt>
      <trkpt lat="45.85857" lon="4.77964">
        <ele>392.1</ele>
        <time>2013-03-10T08:31:05.66Z</time>
      </trkpt>
      <trkpt lat="45.85859" lon="4.77965">
        <ele>391.6</ele>
        <time>2013-03-10T08:31:06.56Z</time>
      </trkpt>
      <trkpt lat="45.85862" lon="4.77966">
        <ele>391.1</ele>
        <time>2013-03-10T08:31:07.66Z</time>
      </trkpt>
      <trkpt lat="45.85864" lon="4.77965">
        <ele>390.8</ele>
        <time>2013-03-10T08:31:08.56Z</time>
      </trkpt>
      <trkpt lat="45.85866" lon="4.77965">
        <ele>390.4</ele>
        <time>2013-03-10T08:31:09.66Z</time>
      </trkpt>
      <trkpt lat="45.85869" lon="4.77965">
        <ele>390</ele>
        <time>2013-03-10T08:31:10.56Z</time>
      </trkpt>
      <trkpt lat="45.85872" lon="4.77964">
        <ele>389.4</ele>
        <time>2013-03-10T08:31:11.66Z</time>
      </trkpt>
      <trkpt lat="45.85875" lon="4.77963">
        <ele>389.1</ele>
        <time>2013-03-10T08:31:12.56Z</time>
      </trkpt>
      <trkpt lat="45.85877" lon="4.77961">
        <ele>388.6</ele>
        <time>2013-03-10T08:31:13.67Z</time>
      </trkpt>
      <trkpt lat="45.85883" lon="4.77959">
        <ele>387.6</ele>
        <time>2013-03-10T08:31:15.64Z</time>
      </trkpt>
      <trkpt lat="45.85885" lon="4.77959">
        <ele>387.2</ele>
        <time>2013-03-10T08:31:16.57Z</time>
      </trkpt>
      <trkpt lat="45.85888" lon="4.77959">
        <ele>386.8</ele>
        <time>2013-03-10T08:31:17.56Z</time>
      </trkpt>
      <trkpt lat="45.85891" lon="4.77959">
        <ele>386.3</ele>
        <time>2013-03-10T08:31:18.68Z</time>
      </trkpt>
      <trkpt lat="45.85898" lon="4.77959">
        <ele>385.5</ele>
        <time>2013-03-10T08:31:20.56Z</time>
      </trkpt>
      <trkpt lat="45.85902" lon="4.77958">
        <ele>385.1</ele>
        <time>2013-03-10T08:31:21.65Z</time>
      </trkpt>
      <trkpt lat="45.85907" lon="4.77958">
        <ele>384.5</ele>
        <time>2013-03-10T08:31:23.56Z</time>
      </trkpt>
      <trkpt lat="45.8591" lon="4.77958">
        <ele>384.2</ele>
        <time>2013-03-10T08:31:24.65Z</time>
      </trkpt>
      <trkpt lat="45.85912" lon="4.77957">
        <ele>383.9</ele>
        <time>2013-03-10T08:31:25.56Z</time>
      </trkpt>
      <trkpt lat="45.85914" lon="4.77957">
        <ele>383.6</ele>
        <time>2013-03-10T08:31:26.65Z</time>
      </trkpt>
      <trkpt lat="45.85918" lon="4.77955">
        <ele>383</ele>
        <time>2013-03-10T08:31:27.56Z</time>
      </trkpt>
      <trkpt lat="45.85928" lon="4.77952">
        <ele>381.2</ele>
        <time>2013-03-10T08:31:29.56Z</time>
      </trkpt>
      <trkpt lat="45.85933" lon="4.77951">
        <ele>380.4</ele>
        <time>2013-03-10T08:31:30.65Z</time>
      </trkpt>
      <trkpt lat="45.85938" lon="4.77951">
        <ele>379.7</ele>
        <time>2013-03-10T08:31:31.56Z</time>
      </trkpt>
      <trkpt lat="45.85943" lon="4.77952">
        <ele>379</ele>
        <time>2013-03-10T08:31:32.65Z</time>
      </trkpt>
      <trkpt lat="45.85948" lon="4.77951">
        <ele>378.4</ele>
        <time>2013-03-10T08:31:33.57Z</time>
      </trkpt>
      <trkpt lat="45.85951" lon="4.77951">
        <ele>377.9</ele>
        <time>2013-03-10T08:31:34.65Z</time>
      </trkpt>
      <trkpt lat="45.85955" lon="4.7795">
        <ele>377.3</ele>
        <time>2013-03-10T08:31:35.56Z</time>
      </trkpt>
      <trkpt lat="45.85959" lon="4.77949">
        <ele>376.6</ele>
        <time>2013-03-10T08:31:36.65Z</time>
      </trkpt>
      <trkpt lat="45.85967" lon="4.77948">
        <ele>375.4</ele>
        <time>2013-03-10T08:31:38.66Z</time>
      </trkpt>
      <trkpt lat="45.85975" lon="4.77945">
        <ele>373.9</ele>
        <time>2013-03-10T08:31:40.56Z</time>
      </trkpt>
      <trkpt lat="45.85979" lon="4.77942">
        <ele>373.4</ele>
        <time>2013-03-10T08:31:41.65Z</time>
      </trkpt>
      <trkpt lat="45.85984" lon="4.7794">
        <ele>372.9</ele>
        <time>2013-03-10T08:31:42.56Z</time>
      </trkpt>
      <trkpt lat="45.85988" lon="4.77938">
        <ele>372.2</ele>
        <time>2013-03-10T08:31:43.65Z</time>
      </trkpt>
      <trkpt lat="45.85997" lon="4.77933">
        <ele>370.3</ele>
        <time>2013-03-10T08:31:45.56Z</time>
      </trkpt>
      <trkpt lat="45.86" lon="4.77931">
        <ele>369.6</ele>
        <time>2013-03-10T08:31:46.65Z</time>
      </trkpt>
      <trkpt lat="45.86006" lon="4.77927">
        <ele>369.1</ele>
        <time>2013-03-10T08:31:48.66Z</time>
      </trkpt>
      <trkpt lat="45.86012" lon="4.77922">
        <ele>368.1</ele>
        <time>2013-03-10T08:31:50.57Z</time>
      </trkpt>
      <trkpt lat="45.86015" lon="4.7792">
        <ele>367.3</ele>
        <time>2013-03-10T08:31:51.65Z</time>
      </trkpt>
      <trkpt lat="45.86019" lon="4.77917">
        <ele>366.6</ele>
        <time>2013-03-10T08:31:52.56Z</time>
      </trkpt>
      <trkpt lat="45.86021" lon="4.77915">
        <ele>366</ele>
        <time>2013-03-10T08:31:53.66Z</time>
      </trkpt>
      <trkpt lat="45.86028" lon="4.77912">
        <ele>365</ele>
        <time>2013-03-10T08:31:55.56Z</time>
      </trkpt>
      <trkpt lat="45.86031" lon="4.7791">
        <ele>365</ele>
        <time>2013-03-10T08:31:56.64Z</time>
      </trkpt>
      <trkpt lat="45.86035" lon="4.77908">
        <ele>365.1</ele>
        <time>2013-03-10T08:31:57.56Z</time>
      </trkpt>
      <trkpt lat="45.86039" lon="4.77906">
        <ele>364.9</ele>
        <time>2013-03-10T08:31:58.68Z</time>
      </trkpt>
      <trkpt lat="45.86047" lon="4.77902">
        <ele>422.6</ele>
        <time>2013-03-10T08:32:00.56Z</time>
      </trkpt>
      <trkpt lat="45.86051" lon="4.779">
        <ele>364</ele>
        <time>2013-03-10T08:32:01.64Z</time>
      </trkpt>
      <trkpt lat="45.86057" lon="4.77894">
        <ele>362.1</ele>
        <time>2013-03-10T08:32:03.67Z</time>
      </trkpt>
      <trkpt lat="45.86064" lon="4.7789">
        <ele>361.4</ele>
        <time>2013-03-10T08:32:05.56Z</time>
      </trkpt>
      <trkpt lat="45.86068" lon="4.77888">
        <ele>361.1</ele>
        <time>2013-03-10T08:32:06.64Z</time>
      </trkpt>
      <trkpt lat="45.86072" lon="4.77886">
        <ele>360.9</ele>
        <time>2013-03-10T08:32:07.56Z</time>
      </trkpt>
      <trkpt lat="45.86075" lon="4.77883">
        <ele>360.4</ele>
        <time>2013-03-10T08:32:08.65Z</time>
      </trkpt>
      <trkpt lat="45.86082" lon="4.77878">
        <ele>359.6</ele>
        <time>2013-03-10T08:32:10.64Z</time>
      </trkpt>
      <trkpt lat="45.8609" lon="4.77873">
        <ele>359.5</ele>
        <time>2013-03-10T08:32:12.64Z</time>
      </trkpt>
      <trkpt lat="45.86094" lon="4.77871">
        <ele>359.7</ele>
        <time>2013-03-10T08:32:13.56Z</time>
      </trkpt>
      <trkpt lat="45.86098" lon="4.77868">
        <ele>359.3</ele>
        <time>2013-03-10T08:32:14.64Z</time>
      </trkpt>
      <trkpt lat="45.86101" lon="4.77865">
        <ele>358.7</ele>
        <time>2013-03-10T08:32:15.56Z</time>
      </trkpt>
      <trkpt lat="45.86105" lon="4.77861">
        <ele>358</ele>
        <time>2013-03-10T08:32:16.67Z</time>
      </trkpt>
      <trkpt lat="45.86112" lon="4.77853">
        <ele>356.9</ele>
        <time>2013-03-10T08:32:18.66Z</time>
      </trkpt>
      <trkpt lat="45.86118" lon="4.77848">
        <ele>356.9</ele>
        <time>2013-03-10T08:32:20.64Z</time>
      </trkpt>
      <trkpt lat="45.86121" lon="4.77844">
        <ele>356.5</ele>
        <time>2013-03-10T08:32:21.56Z</time>
      </trkpt>
      <trkpt lat="45.86124" lon="4.77839">
        <ele>355.8</ele>
        <time>2013-03-10T08:32:22.64Z</time>
      </trkpt>
      <trkpt lat="45.8613" lon="4.77834">
        <ele>356</ele>
        <time>2013-03-10T08:32:24.64Z</time>
      </trkpt>
      <trkpt lat="45.86134" lon="4.77831">
        <ele>356.2</ele>
        <time>2013-03-10T08:32:25.56Z</time>
      </trkpt>
      <trkpt lat="45.86136" lon="4.77829">
        <ele>356.4</ele>
        <time>2013-03-10T08:32:26.64Z</time>
      </trkpt>
      <trkpt lat="45.86139" lon="4.77826">
        <ele>356.6</ele>
        <time>2013-03-10T08:32:27.64Z</time>
      </trkpt>
      <trkpt lat="45.86142" lon="4.77824">
        <ele>356.5</ele>
        <time>2013-03-10T08:32:28.67Z</time>
      </trkpt>
      <trkpt lat="45.86149" lon="4.77818">
        <ele>356</ele>
        <time>2013-03-10T08:32:30.56Z</time>
      </trkpt>
      <trkpt lat="45.86153" lon="4.77816">
        <ele>355.8</ele>
        <time>2013-03-10T08:32:31.56Z</time>
      </trkpt>
      <trkpt lat="45.86158" lon="4.77815">
        <ele>355.9</ele>
        <time>2013-03-10T08:32:32.56Z</time>
      </trkpt>
      <trkpt lat="45.86162" lon="4.77814">
        <ele>355.9</ele>
        <time>2013-03-10T08:32:33.57Z</time>
      </trkpt>
      <trkpt lat="45.86166" lon="4.77813">
        <ele>355.9</ele>
        <time>2013-03-10T08:32:34.64Z</time>
      </trkpt>
      <trkpt lat="45.86173" lon="4.77814">
        <ele>355.9</ele>
        <time>2013-03-10T08:32:36.57Z</time>
      </trkpt>
      <trkpt lat="45.86176" lon="4.77814">
        <ele>355.9</ele>
        <time>2013-03-10T08:32:37.56Z</time>
      </trkpt>
      <trkpt lat="45.86179" lon="4.77815">
        <ele>356</ele>
        <time>2013-03-10T08:32:38.56Z</time>
      </trkpt>
      <trkpt lat="45.86182" lon="4.77816">
        <ele>356</ele>
        <time>2013-03-10T08:32:39.56Z</time>
      </trkpt>
      <trkpt lat="45.86185" lon="4.77816">
        <ele>356</ele>
        <time>2013-03-10T08:32:40.56Z</time>
      </trkpt>
      <trkpt lat="45.86188" lon="4.77816">
        <ele>355.9</ele>
        <time>2013-03-10T08:32:41.57Z</time>
      </trkpt>
      <trkpt lat="45.86193" lon="4.77816">
        <ele>355.8</ele>
        <time>2013-03-10T08:32:42.56Z</time>
      </trkpt>
      <trkpt lat="45.86196" lon="4.77816">
        <ele>355.5</ele>
        <time>2013-03-10T08:32:43.56Z</time>
      </trkpt>
      <trkpt lat="45.86201" lon="4.77817">
        <ele>355.2</ele>
        <time>2013-03-10T08:32:44.56Z</time>
      </trkpt>
      <trkpt lat="45.86205" lon="4.77817">
        <ele>354.7</ele>
        <time>2013-03-10T08:32:45.56Z</time>
      </trkpt>
      <trkpt lat="45.86209" lon="4.77817">
        <ele>354.5</ele>
        <time>2013-03-10T08:32:46.56Z</time>
      </trkpt>
      <trkpt lat="45.86213" lon="4.77818">
        <ele>354.3</ele>
        <time>2013-03-10T08:32:47.56Z</time>
      </trkpt>
      <trkpt lat="45.86217" lon="4.77818">
        <ele>354</ele>
        <time>2013-03-10T08:32:48.56Z</time>
      </trkpt>
      <trkpt lat="45.86221" lon="4.77817">
        <ele>353.5</ele>
        <time>2013-03-10T08:32:49.56Z</time>
      </trkpt>
      <trkpt lat="45.86226" lon="4.77817">
        <ele>353</ele>
        <time>2013-03-10T08:32:50.57Z</time>
      </trkpt>
      <trkpt lat="45.86229" lon="4.77818">
        <ele>352.9</ele>
        <time>2013-03-10T08:32:51.56Z</time>
      </trkpt>
      <trkpt lat="45.86233" lon="4.7782">
        <ele>352.9</ele>
        <time>2013-03-10T08:32:52.56Z</time>
      </trkpt>
      <trkpt lat="45.86237" lon="4.77821">
        <ele>352.8</ele>
        <time>2013-03-10T08:32:53.56Z</time>
      </trkpt>
      <trkpt lat="45.8624" lon="4.77822">
        <ele>352.7</ele>
        <time>2013-03-10T08:32:54.56Z</time>
      </trkpt>
      <trkpt lat="45.86245" lon="4.77824">
        <ele>352.8</ele>
        <time>2013-03-10T08:32:55.56Z</time>
      </trkpt>
      <trkpt lat="45.86249" lon="4.77826">
        <ele>353</ele>
        <time>2013-03-10T08:32:56.56Z</time>
      </trkpt>
      <trkpt lat="45.86251" lon="4.77828">
        <ele>353.2</ele>
        <time>2013-03-10T08:32:57.56Z</time>
      </trkpt>
      <trkpt lat="45.86253" lon="4.77829">
        <ele>353.3</ele>
        <time>2013-03-10T08:32:58.56Z</time>
      </trkpt>
      <trkpt lat="45.86255" lon="4.77829">
        <ele>395.7</ele>
        <time>2013-03-10T08:32:59.59Z</time>
      </trkpt>
      <trkpt lat="45.86258" lon="4.7783">
        <ele>353.3</ele>
        <time>2013-03-10T08:33:00.63Z</time>
      </trkpt>
      <trkpt lat="45.86265" lon="4.77831">
        <ele>352.7</ele>
        <time>2013-03-10T08:33:02.63Z</time>
      </trkpt>
      <trkpt lat="45.86269" lon="4.77832">
        <ele>352.6</ele>
        <time>2013-03-10T08:33:03.65Z</time>
      </trkpt>
      <trkpt lat="45.86276" lon="4.77836">
        <ele>352.8</ele>
        <time>2013-03-10T08:33:05.56Z</time>
      </trkpt>
      <trkpt lat="45.86279" lon="4.77837">
        <ele>352.6</ele>
        <time>2013-03-10T08:33:06.56Z</time>
      </trkpt>
      <trkpt lat="45.86283" lon="4.77839">
        <ele>352.2</ele>
        <time>2013-03-10T08:33:07.56Z</time>
      </trkpt>
      <trkpt lat="45.86287" lon="4.77841">
        <ele>351.7</ele>
        <time>2013-03-10T08:33:08.56Z</time>
      </trkpt>
      <trkpt lat="45.86291" lon="4.77844">
        <ele>351.2</ele>
        <time>2013-03-10T08:33:09.56Z</time>
      </trkpt>
      <trkpt lat="45.86296" lon="4.77847">
        <ele>350.6</ele>
        <time>2013-03-10T08:33:10.56Z</time>
      </trkpt>
      <trkpt lat="45.863" lon="4.7785">
        <ele>350</ele>
        <time>2013-03-10T08:33:11.56Z</time>
      </trkpt>
      <trkpt lat="45.86304" lon="4.77854">
        <ele>349.2</ele>
        <time>2013-03-10T08:33:12.56Z</time>
      </trkpt>
      <trkpt lat="45.8631" lon="4.77858">
        <ele>348.1</ele>
        <time>2013-03-10T08:33:13.56Z</time>
      </trkpt>
      <trkpt lat="45.86316" lon="4.77862">
        <ele>346.4</ele>
        <time>2013-03-10T08:33:14.63Z</time>
      </trkpt>
      <trkpt lat="45.86322" lon="4.77866">
        <ele>345.1</ele>
        <time>2013-03-10T08:33:15.63Z</time>
      </trkpt>
      <trkpt lat="45.86331" lon="4.7787">
        <ele>343.4</ele>
        <time>2013-03-10T08:33:17.63Z</time>
      </trkpt>
      <trkpt lat="45.86337" lon="4.7787">
        <ele>342.4</ele>
        <time>2013-03-10T08:33:19.56Z</time>
      </trkpt>
      <trkpt lat="45.8634" lon="4.77869">
        <ele>342.3</ele>
        <time>2013-03-10T08:33:20.56Z</time>
      </trkpt>
      <trkpt lat="45.86343" lon="4.77869">
        <ele>342.2</ele>
        <time>2013-03-10T08:33:21.56Z</time>
      </trkpt>
      <trkpt lat="45.86346" lon="4.77869">
        <ele>342.2</ele>
        <time>2013-03-10T08:33:22.56Z</time>
      </trkpt>
      <trkpt lat="45.8635" lon="4.77869">
        <ele>342.2</ele>
        <time>2013-03-10T08:33:23.56Z</time>
      </trkpt>
      <trkpt lat="45.86353" lon="4.77868">
        <ele>341.9</ele>
        <time>2013-03-10T08:33:24.56Z</time>
      </trkpt>
      <trkpt lat="45.86356" lon="4.77866">
        <ele>341.5</ele>
        <time>2013-03-10T08:33:25.56Z</time>
      </trkpt>
      <trkpt lat="45.8636" lon="4.77865">
        <ele>341.2</ele>
        <time>2013-03-10T08:33:26.57Z</time>
      </trkpt>
      <trkpt lat="45.86362" lon="4.77864">
        <ele>340.8</ele>
        <time>2013-03-10T08:33:27.56Z</time>
      </trkpt>
      <trkpt lat="45.86365" lon="4.77862">
        <ele>340.8</ele>
        <time>2013-03-10T08:33:28.56Z</time>
      </trkpt>
      <trkpt lat="45.86368" lon="4.77861">
        <ele>340.7</ele>
        <time>2013-03-10T08:33:29.56Z</time>
      </trkpt>
      <trkpt lat="45.86371" lon="4.77861">
        <ele>341</ele>
        <time>2013-03-10T08:33:30.56Z</time>
      </trkpt>
      <trkpt lat="45.86374" lon="4.77861">
        <ele>341.4</ele>
        <time>2013-03-10T08:33:31.56Z</time>
      </trkpt>
      <trkpt lat="45.86376" lon="4.77861">
        <ele>341.7</ele>
        <time>2013-03-10T08:33:32.56Z</time>
      </trkpt>
      <trkpt lat="45.86379" lon="4.77861">
        <ele>341.9</ele>
        <time>2013-03-10T08:33:33.57Z</time>
      </trkpt>
      <trkpt lat="45.86381" lon="4.7786">
        <ele>341.9</ele>
        <time>2013-03-10T08:33:34.62Z</time>
      </trkpt>
      <trkpt lat="45.86384" lon="4.77859">
        <ele>341.9</ele>
        <time>2013-03-10T08:33:35.62Z</time>
      </trkpt>
      <trkpt lat="45.86387" lon="4.77858">
        <ele>342</ele>
        <time>2013-03-10T08:33:36.62Z</time>
      </trkpt>
      <trkpt lat="45.86389" lon="4.77856">
        <ele>341.8</ele>
        <time>2013-03-10T08:33:37.69Z</time>
      </trkpt>
      <trkpt lat="45.86396" lon="4.77856">
        <ele>342</ele>
        <time>2013-03-10T08:33:39.56Z</time>
      </trkpt>
      <trkpt lat="45.864" lon="4.77856">
        <ele>342</ele>
        <time>2013-03-10T08:33:40.56Z</time>
      </trkpt>
      <trkpt lat="45.86404" lon="4.77856">
        <ele>342.1</ele>
        <time>2013-03-10T08:33:41.57Z</time>
      </trkpt>
      <trkpt lat="45.86407" lon="4.77855">
        <ele>342</ele>
        <time>2013-03-10T08:33:42.56Z</time>
      </trkpt>
      <trkpt lat="45.86412" lon="4.77855">
        <ele>342</ele>
        <time>2013-03-10T08:33:43.56Z</time>
      </trkpt>
      <trkpt lat="45.86417" lon="4.77855">
        <ele>342.1</ele>
        <time>2013-03-10T08:33:44.56Z</time>
      </trkpt>
      <trkpt lat="45.86421" lon="4.77855">
        <ele>342.3</ele>
        <time>2013-03-10T08:33:45.56Z</time>
      </trkpt>
      <trkpt lat="45.86425" lon="4.77854">
        <ele>342.3</ele>
        <time>2013-03-10T08:33:46.56Z</time>
      </trkpt>
      <trkpt lat="45.86428" lon="4.77853">
        <ele>342.2</ele>
        <time>2013-03-10T08:33:47.56Z</time>
      </trkpt>
      <trkpt lat="45.86432" lon="4.77852">
        <ele>342</ele>
        <time>2013-03-10T08:33:48.56Z</time>
      </trkpt>
      <trkpt lat="45.86435" lon="4.77852">
        <ele>342</ele>
        <time>2013-03-10T08:33:49.56Z</time>
      </trkpt>
      <trkpt lat="45.86439" lon="4.77852">
        <ele>342.3</ele>
        <time>2013-03-10T08:33:50.57Z</time>
      </trkpt>
      <trkpt lat="45.86444" lon="4.77853">
        <ele>342.6</ele>
        <time>2013-03-10T08:33:51.62Z</time>
      </trkpt>
      <trkpt lat="45.86448" lon="4.77852">
        <ele>342.4</ele>
        <time>2013-03-10T08:33:52.62Z</time>
      </trkpt>
      <trkpt lat="45.86452" lon="4.77851">
        <ele>342.1</ele>
        <time>2013-03-10T08:33:53.67Z</time>
      </trkpt>
      <trkpt lat="45.86459" lon="4.7785">
        <ele>341.7</ele>
        <time>2013-03-10T08:33:55.56Z</time>
      </trkpt>
      <trkpt lat="45.86463" lon="4.7785">
        <ele>341.6</ele>
        <time>2013-03-10T08:33:56.56Z</time>
      </trkpt>
      <trkpt lat="45.86467" lon="4.77849">
        <ele>341.4</ele>
        <time>2013-03-10T08:33:57.56Z</time>
      </trkpt>
      <trkpt lat="45.8647" lon="4.77848">
        <ele>341.2</ele>
        <time>2013-03-10T08:33:58.56Z</time>
      </trkpt>
      <trkpt lat="45.86474" lon="4.77847">
        <ele>375.1</ele>
        <time>2013-03-10T08:33:59.59Z</time>
      </trkpt>
      <trkpt lat="45.86481" lon="4.77844">
        <ele>339.9</ele>
        <time>2013-03-10T08:34:01.56Z</time>
      </trkpt>
      <trkpt lat="45.86485" lon="4.77843">
        <ele>339.5</ele>
        <time>2013-03-10T08:34:02.62Z</time>
      </trkpt>
      <trkpt lat="45.86493" lon="4.7784">
        <ele>338.4</ele>
        <time>2013-03-10T08:34:04.61Z</time>
      </trkpt>
      <trkpt lat="45.86497" lon="4.77839">
        <ele>337.9</ele>
        <time>2013-03-10T08:34:05.63Z</time>
      </trkpt>
      <trkpt lat="45.86503" lon="4.77838">
        <ele>337.3</ele>
        <time>2013-03-10T08:34:07.56Z</time>
      </trkpt>
      <trkpt lat="45.86507" lon="4.77837">
        <ele>337</ele>
        <time>2013-03-10T08:34:08.56Z</time>
      </trkpt>
      <trkpt lat="45.86511" lon="4.77837">
        <ele>336.7</ele>
        <time>2013-03-10T08:34:09.56Z</time>
      </trkpt>
      <trkpt lat="45.86515" lon="4.77836">
        <ele>336.3</ele>
        <time>2013-03-10T08:34:10.56Z</time>
      </trkpt>
      <trkpt lat="45.86518" lon="4.77835">
        <ele>335.7</ele>
        <time>2013-03-10T08:34:11.56Z</time>
      </trkpt>
      <trkpt lat="45.86521" lon="4.77834">
        <ele>335.5</ele>
        <time>2013-03-10T08:34:12.56Z</time>
      </trkpt>
      <trkpt lat="45.86524" lon="4.77833">
        <ele>335</ele>
        <time>2013-03-10T08:34:13.56Z</time>
      </trkpt>
      <trkpt lat="45.86527" lon="4.77831">
        <ele>334.3</ele>
        <time>2013-03-10T08:34:14.56Z</time>
      </trkpt>
      <trkpt lat="45.8653" lon="4.7783">
        <ele>334.1</ele>
        <time>2013-03-10T08:34:15.56Z</time>
      </trkpt>
      <trkpt lat="45.86533" lon="4.77828">
        <ele>333.9</ele>
        <time>2013-03-10T08:34:16.58Z</time>
      </trkpt>
      <trkpt lat="45.86537" lon="4.77825">
        <ele>333.5</ele>
        <time>2013-03-10T08:34:17.61Z</time>
      </trkpt>
      <trkpt lat="45.86543" lon="4.77819">
        <ele>332.5</ele>
        <time>2013-03-10T08:34:19.56Z</time>
      </trkpt>
      <trkpt lat="45.86547" lon="4.77817">
        <ele>332.1</ele>
        <time>2013-03-10T08:34:20.56Z</time>
      </trkpt>
      <trkpt lat="45.86551" lon="4.77815">
        <ele>332</ele>
        <time>2013-03-10T08:34:21.56Z</time>
      </trkpt>
      <trkpt lat="45.86555" lon="4.77814">
        <ele>332.1</ele>
        <time>2013-03-10T08:34:22.56Z</time>
      </trkpt>
      <trkpt lat="45.86558" lon="4.77812">
        <ele>332.2</ele>
        <time>2013-03-10T08:34:23.56Z</time>
      </trkpt>
      <trkpt lat="45.86561" lon="4.77811">
        <ele>332</ele>
        <time>2013-03-10T08:34:24.56Z</time>
      </trkpt>
      <trkpt lat="45.86564" lon="4.77809">
        <ele>331.8</ele>
        <time>2013-03-10T08:34:25.56Z</time>
      </trkpt>
      <trkpt lat="45.86567" lon="4.77808">
        <ele>331.5</ele>
        <time>2013-03-10T08:34:26.56Z</time>
      </trkpt>
      <trkpt lat="45.8657" lon="4.77806">
        <ele>331.3</ele>
        <time>2013-03-10T08:34:27.56Z</time>
      </trkpt>
      <trkpt lat="45.86574" lon="4.77805">
        <ele>331.2</ele>
        <time>2013-03-10T08:34:28.56Z</time>
      </trkpt>
      <trkpt lat="45.86577" lon="4.77805">
        <ele>331.2</ele>
        <time>2013-03-10T08:34:29.56Z</time>
      </trkpt>
      <trkpt lat="45.8658" lon="4.77804">
        <ele>331.3</ele>
        <time>2013-03-10T08:34:30.56Z</time>
      </trkpt>
      <trkpt lat="45.86583" lon="4.77803">
        <ele>331.2</ele>
        <time>2013-03-10T08:34:31.56Z</time>
      </trkpt>
      <trkpt lat="45.86587" lon="4.77803">
        <ele>331.3</ele>
        <time>2013-03-10T08:34:32.56Z</time>
      </trkpt>
      <trkpt lat="45.8659" lon="4.77802">
        <ele>331.2</ele>
        <time>2013-03-10T08:34:33.57Z</time>
      </trkpt>
      <trkpt lat="45.86594" lon="4.77801">
        <ele>331</ele>
        <time>2013-03-10T08:34:34.61Z</time>
      </trkpt>
      <trkpt lat="45.86598" lon="4.778">
        <ele>330.9</ele>
        <time>2013-03-10T08:34:35.63Z</time>
      </trkpt>
      <trkpt lat="45.86607" lon="4.77798">
        <ele>330.9</ele>
        <time>2013-03-10T08:34:37.61Z</time>
      </trkpt>
      <trkpt lat="45.8661" lon="4.77797">
        <ele>330.9</ele>
        <time>2013-03-10T08:34:38.65Z</time>
      </trkpt>
      <trkpt lat="45.86617" lon="4.77797">
        <ele>330.6</ele>
        <time>2013-03-10T08:34:40.56Z</time>
      </trkpt>
      <trkpt lat="45.8662" lon="4.77797">
        <ele>330.3</ele>
        <time>2013-03-10T08:34:41.57Z</time>
      </trkpt>
      <trkpt lat="45.86624" lon="4.77797">
        <ele>330.2</ele>
        <time>2013-03-10T08:34:42.63Z</time>
      </trkpt>
      <trkpt lat="45.86631" lon="4.778">
        <ele>330.3</ele>
        <time>2013-03-10T08:34:44.6Z</time>
      </trkpt>
      <trkpt lat="45.86634" lon="4.77803">
        <ele>330.7</ele>
        <time>2013-03-10T08:34:45.61Z</time>
      </trkpt>
      <trkpt lat="45.86634" lon="4.77807">
        <ele>331.7</ele>
        <time>2013-03-10T08:34:47.56Z</time>
      </trkpt>
      <trkpt lat="45.86633" lon="4.77808">
        <ele>332.1</ele>
        <time>2013-03-10T08:34:48.56Z</time>
      </trkpt>
      <trkpt lat="45.86631" lon="4.77809">
        <ele>332.4</ele>
        <time>2013-03-10T08:34:49.56Z</time>
      </trkpt>
      <trkpt lat="45.86629" lon="4.7781">
        <ele>332.9</ele>
        <time>2013-03-10T08:34:50.57Z</time>
      </trkpt>
      <trkpt lat="45.86627" lon="4.77811">
        <ele>333.3</ele>
        <time>2013-03-10T08:34:51.6Z</time>
      </trkpt>
      <trkpt lat="45.86624" lon="4.77811">
        <ele>333.5</ele>
        <time>2013-03-10T08:34:52.69Z</time>
      </trkpt>
      <trkpt lat="45.8662" lon="4.77813">
        <ele>334.3</ele>
        <time>2013-03-10T08:34:54.56Z</time>
      </trkpt>
      <trkpt lat="45.86618" lon="4.77814">
        <ele>335</ele>
        <time>2013-03-10T08:34:55.56Z</time>
      </trkpt>
      <trkpt lat="45.86615" lon="4.77816">
        <ele>335.6</ele>
        <time>2013-03-10T08:34:56.56Z</time>
      </trkpt>
      <trkpt lat="45.86613" lon="4.77817">
        <ele>336.2</ele>
        <time>2013-03-10T08:34:57.56Z</time>
      </trkpt>
      <trkpt lat="45.86611" lon="4.77819">
        <ele>336.8</ele>
        <time>2013-03-10T08:34:58.56Z</time>
      </trkpt>
      <trkpt lat="45.86609" lon="4.7782">
        <ele>354.8</ele>
        <time>2013-03-10T08:34:59.64Z</time>
      </trkpt>
      <trkpt lat="45.86605" lon="4.77825">
        <ele>338.4</ele>
        <time>2013-03-10T08:35:01.6Z</time>
      </trkpt>
      <trkpt lat="45.86603" lon="4.77827">
        <ele>339</ele>
        <time>2013-03-10T08:35:02.6Z</time>
      </trkpt>
      <trkpt lat="45.86601" lon="4.77828">
        <ele>339.5</ele>
        <time>2013-03-10T08:35:03.73Z</time>
      </trkpt>
      <trkpt lat="45.86597" lon="4.77831">
        <ele>340.1</ele>
        <time>2013-03-10T08:35:05.6Z</time>
      </trkpt>
      <trkpt lat="45.86596" lon="4.77832">
        <ele>340.6</ele>
        <time>2013-03-10T08:35:06.58Z</time>
      </trkpt>
      <trkpt lat="45.86594" lon="4.77833">
        <ele>340.9</ele>
        <time>2013-03-10T08:35:07.6Z</time>
      </trkpt>
      <trkpt lat="45.86592" lon="4.77835">
        <ele>341.4</ele>
        <time>2013-03-10T08:35:08.73Z</time>
      </trkpt>
      <trkpt lat="45.86589" lon="4.77838">
        <ele>342.3</ele>
        <time>2013-03-10T08:35:10.6Z</time>
      </trkpt>
      <trkpt lat="45.86587" lon="4.7784">
        <ele>342.9</ele>
        <time>2013-03-10T08:35:11.6Z</time>
      </trkpt>
      <trkpt lat="45.86587" lon="4.77843">
        <ele>343.6</ele>
        <time>2013-03-10T08:35:12.6Z</time>
      </trkpt>
      <trkpt lat="45.86587" lon="4.77844">
        <ele>344.2</ele>
        <time>2013-03-10T08:35:13.66Z</time>
      </trkpt>
      <trkpt lat="45.8659" lon="4.77843">
        <ele>343.8</ele>
        <time>2013-03-10T08:35:15.6Z</time>
      </trkpt>
      <trkpt lat="45.86591" lon="4.77842">
        <ele>343.5</ele>
        <time>2013-03-10T08:35:16.65Z</time>
      </trkpt>
      <trkpt lat="45.86595" lon="4.77841">
        <ele>343.1</ele>
        <time>2013-03-10T08:35:18.56Z</time>
      </trkpt>
      <trkpt lat="45.86598" lon="4.77841">
        <ele>343.1</ele>
        <time>2013-03-10T08:35:19.56Z</time>
      </trkpt>
      <trkpt lat="45.866" lon="4.77841">
        <ele>343.1</ele>
        <time>2013-03-10T08:35:20.59Z</time>
      </trkpt>
      <trkpt lat="45.86601" lon="4.7784">
        <ele>343</ele>
        <time>2013-03-10T08:35:21.62Z</time>
      </trkpt>
      <trkpt lat="45.86605" lon="4.77841">
        <ele>343.1</ele>
        <time>2013-03-10T08:35:23.56Z</time>
      </trkpt>
      <trkpt lat="45.86607" lon="4.77841">
        <ele>343.2</ele>
        <time>2013-03-10T08:35:24.56Z</time>
      </trkpt>
      <trkpt lat="45.86609" lon="4.77842">
        <ele>343.6</ele>
        <time>2013-03-10T08:35:25.56Z</time>
      </trkpt>
      <trkpt lat="45.8661" lon="4.77844">
        <ele>344</ele>
        <time>2013-03-10T08:35:26.56Z</time>
      </trkpt>
      <trkpt lat="45.86612" lon="4.77846">
        <ele>344.4</ele>
        <time>2013-03-10T08:35:27.56Z</time>
      </trkpt>
      <trkpt lat="45.86614" lon="4.77848">
        <ele>344.8</ele>
        <time>2013-03-10T08:35:28.56Z</time>
      </trkpt>
      <trkpt lat="45.86616" lon="4.7785">
        <ele>345.1</ele>
        <time>2013-03-10T08:35:29.59Z</time>
      </trkpt>
      <trkpt lat="45.86618" lon="4.77852">
        <ele>345.4</ele>
        <time>2013-03-10T08:35:30.62Z</time>
      </trkpt>
      <trkpt lat="45.86624" lon="4.77856">
        <ele>345.9</ele>
        <time>2013-03-10T08:35:32.56Z</time>
      </trkpt>
      <trkpt lat="45.86625" lon="4.77858">
        <ele>346.3</ele>
        <time>2013-03-10T08:35:33.58Z</time>
      </trkpt>
      <trkpt lat="45.86628" lon="4.77862">
        <ele>346.7</ele>
        <time>2013-03-10T08:35:35.59Z</time>
      </trkpt>
      <trkpt lat="45.8663" lon="4.77865">
        <ele>346.9</ele>
        <time>2013-03-10T08:35:36.59Z</time>
      </trkpt>
      <trkpt lat="45.86632" lon="4.77867">
        <ele>347.1</ele>
        <time>2013-03-10T08:35:37.71Z</time>
      </trkpt>
      <trkpt lat="45.86636" lon="4.77871">
        <ele>347.2</ele>
        <time>2013-03-10T08:35:39.56Z</time>
      </trkpt>
      <trkpt lat="45.86638" lon="4.77874">
        <ele>347.4</ele>
        <time>2013-03-10T08:35:40.56Z</time>
      </trkpt>
      <trkpt lat="45.86639" lon="4.77877">
        <ele>347.9</ele>
        <time>2013-03-10T08:35:41.57Z</time>
      </trkpt>
      <trkpt lat="45.8664" lon="4.7788">
        <ele>348.3</ele>
        <time>2013-03-10T08:35:42.56Z</time>
      </trkpt>
      <trkpt lat="45.8664" lon="4.77883">
        <ele>348.7</ele>
        <time>2013-03-10T08:35:43.56Z</time>
      </trkpt>
      <trkpt lat="45.86642" lon="4.77887">
        <ele>349.2</ele>
        <time>2013-03-10T08:35:44.59Z</time>
      </trkpt>
      <trkpt lat="45.86643" lon="4.77891">
        <ele>349.4</ele>
        <time>2013-03-10T08:35:45.61Z</time>
      </trkpt>
      <trkpt lat="45.86643" lon="4.77896">
        <ele>349.4</ele>
        <time>2013-03-10T08:35:47.56Z</time>
      </trkpt>
      <trkpt lat="45.86642" lon="4.77899">
        <ele>349.6</ele>
        <time>2013-03-10T08:35:48.56Z</time>
      </trkpt>
      <trkpt lat="45.86642" lon="4.77901">
        <ele>349.9</ele>
        <time>2013-03-10T08:35:49.59Z</time>
      </trkpt>
      <trkpt lat="45.86641" lon="4.77903">
        <ele>350.1</ele>
        <time>2013-03-10T08:35:50.66Z</time>
      </trkpt>
      <trkpt lat="45.86638" lon="4.77908">
        <ele>350.9</ele>
        <time>2013-03-10T08:35:52.56Z</time>
      </trkpt>
      <trkpt lat="45.86636" lon="4.7791">
        <ele>351.4</ele>
        <time>2013-03-10T08:35:53.56Z</time>
      </trkpt>
      <trkpt lat="45.86634" lon="4.77911">
        <ele>351.8</ele>
        <time>2013-03-10T08:35:54.56Z</time>
      </trkpt>
      <trkpt lat="45.86632" lon="4.77912">
        <ele>352.4</ele>
        <time>2013-03-10T08:35:55.59Z</time>
      </trkpt>
      <trkpt lat="45.86629" lon="4.77913">
        <ele>352.8</ele>
        <time>2013-03-10T08:35:56.59Z</time>
      </trkpt>
      <trkpt lat="45.86628" lon="4.77913">
        <ele>353.2</ele>
        <time>2013-03-10T08:35:57.59Z</time>
      </trkpt>
      <trkpt lat="45.86626" lon="4.77914">
        <ele>353.5</ele>
        <time>2013-03-10T08:35:58.67Z</time>
      </trkpt>
      <trkpt lat="45.86623" lon="4.77915">
        <ele>356.3</ele>
        <time>2013-03-10T08:36:00.59Z</time>
      </trkpt>
      <trkpt lat="45.86619" lon="4.77919">
        <ele>355.1</ele>
        <time>2013-03-10T08:36:02.56Z</time>
      </trkpt>
      <trkpt lat="45.86618" lon="4.7792">
        <ele>355.3</ele>
        <time>2013-03-10T08:36:03.56Z</time>
      </trkpt>
      <trkpt lat="45.86616" lon="4.7792">
        <ele>355.8</ele>
        <time>2013-03-10T08:36:04.58Z</time>
      </trkpt>
      <trkpt lat="45.86614" lon="4.77922">
        <ele>356.2</ele>
        <time>2013-03-10T08:36:05.58Z</time>
      </trkpt>
      <trkpt lat="45.86613" lon="4.77923">
        <ele>356.4</ele>
        <time>2013-03-10T08:36:06.58Z</time>
      </trkpt>
      <trkpt lat="45.86611" lon="4.77924">
        <ele>356.7</ele>
        <time>2013-03-10T08:36:07.58Z</time>
      </trkpt>
      <trkpt lat="45.8661" lon="4.77925">
        <ele>357</ele>
        <time>2013-03-10T08:36:08.68Z</time>
      </trkpt>
      <trkpt lat="45.86607" lon="4.77927">
        <ele>357.6</ele>
        <time>2013-03-10T08:36:10.58Z</time>
      </trkpt>
      <trkpt lat="45.86605" lon="4.77927">
        <ele>358</ele>
        <time>2013-03-10T08:36:11.56Z</time>
      </trkpt>
      <trkpt lat="45.86603" lon="4.77928">
        <ele>358.2</ele>
        <time>2013-03-10T08:36:12.58Z</time>
      </trkpt>
      <trkpt lat="45.86601" lon="4.7793">
        <ele>358.6</ele>
        <time>2013-03-10T08:36:13.68Z</time>
      </trkpt>
      <trkpt lat="45.86597" lon="4.77933">
        <ele>359.6</ele>
        <time>2013-03-10T08:36:15.56Z</time>
      </trkpt>
      <trkpt lat="45.86595" lon="4.77934">
        <ele>360</ele>
        <time>2013-03-10T08:36:16.57Z</time>
      </trkpt>
      <trkpt lat="45.86593" lon="4.77936">
        <ele>360.4</ele>
        <time>2013-03-10T08:36:17.69Z</time>
      </trkpt>
      <trkpt lat="45.86591" lon="4.7794">
        <ele>361</ele>
        <time>2013-03-10T08:36:19.58Z</time>
      </trkpt>
      <trkpt lat="45.86589" lon="4.77942">
        <ele>361.4</ele>
        <time>2013-03-10T08:36:21.58Z</time>
      </trkpt>
      <trkpt lat="45.86588" lon="4.77944">
        <ele>361.8</ele>
        <time>2013-03-10T08:36:22.58Z</time>
      </trkpt>
      <trkpt lat="45.86586" lon="4.77945">
        <ele>362.4</ele>
        <time>2013-03-10T08:36:23.77Z</time>
      </trkpt>
      <trkpt lat="45.86582" lon="4.77947">
        <ele>363.3</ele>
        <time>2013-03-10T08:36:25.66Z</time>
      </trkpt>
      <trkpt lat="45.86579" lon="4.77947">
        <ele>363.8</ele>
        <time>2013-03-10T08:36:27.56Z</time>
      </trkpt>
      <trkpt lat="45.86578" lon="4.77946">
        <ele>363.9</ele>
        <time>2013-03-10T08:36:28.56Z</time>
      </trkpt>
      <trkpt lat="45.86576" lon="4.77944">
        <ele>364</ele>
        <time>2013-03-10T08:36:29.56Z</time>
      </trkpt>
      <trkpt lat="45.86575" lon="4.77942">
        <ele>364</ele>
        <time>2013-03-10T08:36:30.56Z</time>
      </trkpt>
      <trkpt lat="45.86574" lon="4.77942">
        <ele>364.2</ele>
        <time>2013-03-10T08:36:31.56Z</time>
      </trkpt>
      <trkpt lat="45.86572" lon="4.77942">
        <ele>364.4</ele>
        <time>2013-03-10T08:36:32.56Z</time>
      </trkpt>
      <trkpt lat="45.8657" lon="4.77943">
        <ele>364.8</ele>
        <time>2013-03-10T08:36:33.57Z</time>
      </trkpt>
      <trkpt lat="45.86567" lon="4.77943">
        <ele>365.2</ele>
        <time>2013-03-10T08:36:34.56Z</time>
      </trkpt>
      <trkpt lat="45.86565" lon="4.77944">
        <ele>365.6</ele>
        <time>2013-03-10T08:36:35.56Z</time>
      </trkpt>
      <trkpt lat="45.86563" lon="4.77945">
        <ele>366</ele>
        <time>2013-03-10T08:36:36.58Z</time>
      </trkpt>
      <trkpt lat="45.8656" lon="4.77946">
        <ele>366.5</ele>
        <time>2013-03-10T08:36:37.62Z</time>
      </trkpt>
      <trkpt lat="45.86556" lon="4.77949">
        <ele>367.6</ele>
        <time>2013-03-10T08:36:39.58Z</time>
      </trkpt>
      <trkpt lat="45.86554" lon="4.7795">
        <ele>367.9</ele>
        <time>2013-03-10T08:36:40.58Z</time>
      </trkpt>
      <trkpt lat="45.86552" lon="4.77952">
        <ele>368.1</ele>
        <time>2013-03-10T08:36:41.62Z</time>
      </trkpt>
      <trkpt lat="45.86547" lon="4.77954">
        <ele>368.7</ele>
        <time>2013-03-10T08:36:43.56Z</time>
      </trkpt>
      <trkpt lat="45.86545" lon="4.77955">
        <ele>369</ele>
        <time>2013-03-10T08:36:44.57Z</time>
      </trkpt>
      <trkpt lat="45.86542" lon="4.77957">
        <ele>369.4</ele>
        <time>2013-03-10T08:36:45.62Z</time>
      </trkpt>
      <trkpt lat="45.86537" lon="4.7796">
        <ele>370.4</ele>
        <time>2013-03-10T08:36:47.57Z</time>
      </trkpt>
      <trkpt lat="45.86535" lon="4.77962">
        <ele>370.9</ele>
        <time>2013-03-10T08:36:48.56Z</time>
      </trkpt>
      <trkpt lat="45.86533" lon="4.77963">
        <ele>371.2</ele>
        <time>2013-03-10T08:36:49.58Z</time>
      </trkpt>
      <trkpt lat="45.8653" lon="4.77963">
        <ele>371.4</ele>
        <time>2013-03-10T08:36:50.63Z</time>
      </trkpt>
      <trkpt lat="45.86526" lon="4.77962">
        <ele>371.5</ele>
        <time>2013-03-10T08:36:52.56Z</time>
      </trkpt>
      <trkpt lat="45.86523" lon="4.77963">
        <ele>371.6</ele>
        <time>2013-03-10T08:36:53.66Z</time>
      </trkpt>
      <trkpt lat="45.86518" lon="4.77963">
        <ele>371.5</ele>
        <time>2013-03-10T08:36:55.56Z</time>
      </trkpt>
      <trkpt lat="45.86516" lon="4.77963">
        <ele>371.6</ele>
        <time>2013-03-10T08:36:56.56Z</time>
      </trkpt>
      <trkpt lat="45.86514" lon="4.77964">
        <ele>371.7</ele>
        <time>2013-03-10T08:36:57.56Z</time>
      </trkpt>
      <trkpt lat="45.86512" lon="4.77964">
        <ele>371.7</ele>
        <time>2013-03-10T08:36:58.65Z</time>
      </trkpt>
      <trkpt lat="45.86506" lon="4.77965">
        <ele>370.9</ele>
        <time>2013-03-10T08:37:00.67Z</time>
      </trkpt>
      <trkpt lat="45.86502" lon="4.77965">
        <ele>372</ele>
        <time>2013-03-10T08:37:02.56Z</time>
      </trkpt>
      <trkpt lat="45.865" lon="4.77964">
        <ele>371.7</ele>
        <time>2013-03-10T08:37:03.65Z</time>
      </trkpt>
      <trkpt lat="45.86497" lon="4.77963">
        <ele>371.4</ele>
        <time>2013-03-10T08:37:05.57Z</time>
      </trkpt>
      <trkpt lat="45.86495" lon="4.77963">
        <ele>371.6</ele>
        <time>2013-03-10T08:37:06.58Z</time>
      </trkpt>
      <trkpt lat="45.86492" lon="4.77963">
        <ele>371.7</ele>
        <time>2013-03-10T08:37:07.57Z</time>
      </trkpt>
      <trkpt lat="45.8649" lon="4.77964">
        <ele>371.9</ele>
        <time>2013-03-10T08:37:08.66Z</time>
      </trkpt>
      <trkpt lat="45.86486" lon="4.77964">
        <ele>372</ele>
        <time>2013-03-10T08:37:10.56Z</time>
      </trkpt>
      <trkpt lat="45.86483" lon="4.77965">
        <ele>372.4</ele>
        <time>2013-03-10T08:37:11.56Z</time>
      </trkpt>
      <trkpt lat="45.86481" lon="4.77966">
        <ele>372.6</ele>
        <time>2013-03-10T08:37:12.56Z</time>
      </trkpt>
      <trkpt lat="45.86479" lon="4.77966">
        <ele>372.8</ele>
        <time>2013-03-10T08:37:13.56Z</time>
      </trkpt>
      <trkpt lat="45.86476" lon="4.77966">
        <ele>373</ele>
        <time>2013-03-10T08:37:14.56Z</time>
      </trkpt>
      <trkpt lat="45.86474" lon="4.77967">
        <ele>373.3</ele>
        <time>2013-03-10T08:37:15.56Z</time>
      </trkpt>
      <trkpt lat="45.86471" lon="4.77968">
        <ele>373.7</ele>
        <time>2013-03-10T08:37:16.57Z</time>
      </trkpt>
      <trkpt lat="45.86467" lon="4.7797">
        <ele>374.5</ele>
        <time>2013-03-10T08:37:18.65Z</time>
      </trkpt>
      <trkpt lat="45.86462" lon="4.77972">
        <ele>375.2</ele>
        <time>2013-03-10T08:37:20.57Z</time>
      </trkpt>
      <trkpt lat="45.8646" lon="4.77972">
        <ele>375.3</ele>
        <time>2013-03-10T08:37:21.62Z</time>
      </trkpt>
      <trkpt lat="45.86455" lon="4.77974">
        <ele>376</ele>
        <time>2013-03-10T08:37:23.56Z</time>
      </trkpt>
      <trkpt lat="45.86452" lon="4.77974">
        <ele>376.4</ele>
        <time>2013-03-10T08:37:24.66Z</time>
      </trkpt>
      <trkpt lat="45.86448" lon="4.77976">
        <ele>377.1</ele>
        <time>2013-03-10T08:37:26.66Z</time>
      </trkpt>
      <trkpt lat="45.86442" lon="4.77978">
        <ele>378</ele>
        <time>2013-03-10T08:37:28.67Z</time>
      </trkpt>
      <trkpt lat="45.86437" lon="4.77981">
        <ele>379.1</ele>
        <time>2013-03-10T08:37:30.66Z</time>
      </trkpt>
      <trkpt lat="45.86432" lon="4.77983">
        <ele>379.8</ele>
        <time>2013-03-10T08:37:32.64Z</time>
      </trkpt>
      <trkpt lat="45.8643" lon="4.77983">
        <ele>380</ele>
        <time>2013-03-10T08:37:33.57Z</time>
      </trkpt>
      <trkpt lat="45.86428" lon="4.77983">
        <ele>380.1</ele>
        <time>2013-03-10T08:37:34.56Z</time>
      </trkpt>
      <trkpt lat="45.86425" lon="4.77982">
        <ele>380</ele>
        <time>2013-03-10T08:37:35.66Z</time>
      </trkpt>
      <trkpt lat="45.86422" lon="4.77981">
        <ele>379.7</ele>
        <time>2013-03-10T08:37:36.56Z</time>
      </trkpt>
      <trkpt lat="45.8642" lon="4.77981">
        <ele>379.8</ele>
        <time>2013-03-10T08:37:37.66Z</time>
      </trkpt>
      <trkpt lat="45.86414" lon="4.77982">
        <ele>380.2</ele>
        <time>2013-03-10T08:37:39.66Z</time>
      </trkpt>
      <trkpt lat="45.86411" lon="4.77983">
        <ele>380.4</ele>
        <time>2013-03-10T08:37:40.56Z</time>
      </trkpt>
      <trkpt lat="45.86409" lon="4.77983">
        <ele>380.7</ele>
        <time>2013-03-10T08:37:41.66Z</time>
      </trkpt>
      <trkpt lat="45.86403" lon="4.77984">
        <ele>381.1</ele>
        <time>2013-03-10T08:37:43.56Z</time>
      </trkpt>
      <trkpt lat="45.864" lon="4.77984">
        <ele>381.2</ele>
        <time>2013-03-10T08:37:44.66Z</time>
      </trkpt>
      <trkpt lat="45.86395" lon="4.77985">
        <ele>381.5</ele>
        <time>2013-03-10T08:37:46.66Z</time>
      </trkpt>
      <trkpt lat="45.86392" lon="4.77986">
        <ele>381.8</ele>
        <time>2013-03-10T08:37:47.56Z</time>
      </trkpt>
      <trkpt lat="45.86389" lon="4.77986">
        <ele>382</ele>
        <time>2013-03-10T08:37:48.67Z</time>
      </trkpt>
      <trkpt lat="45.86383" lon="4.77986">
        <ele>381.7</ele>
        <time>2013-03-10T08:37:50.61Z</time>
      </trkpt>
      <trkpt lat="45.86379" lon="4.77987">
        <ele>381.9</ele>
        <time>2013-03-10T08:37:51.56Z</time>
      </trkpt>
      <trkpt lat="45.86376" lon="4.77988">
        <ele>382.1</ele>
        <time>2013-03-10T08:37:52.66Z</time>
      </trkpt>
      <trkpt lat="45.86373" lon="4.77989">
        <ele>382.3</ele>
        <time>2013-03-10T08:37:53.56Z</time>
      </trkpt>
      <trkpt lat="45.86369" lon="4.77989">
        <ele>382.4</ele>
        <time>2013-03-10T08:37:54.66Z</time>
      </trkpt>
      <trkpt lat="45.86363" lon="4.77988">
        <ele>381.8</ele>
        <time>2013-03-10T08:37:56.66Z</time>
      </trkpt>
      <trkpt lat="45.8636" lon="4.77988">
        <ele>381.5</ele>
        <time>2013-03-10T08:37:57.56Z</time>
      </trkpt>
      <trkpt lat="45.86357" lon="4.77987">
        <ele>381.4</ele>
        <time>2013-03-10T08:37:58.73Z</time>
      </trkpt>
      <trkpt lat="45.86354" lon="4.77986">
        <ele>384.3</ele>
        <time>2013-03-10T08:37:59.66Z</time>
      </trkpt>
      <trkpt lat="45.86348" lon="4.77987">
        <ele>381.6</ele>
        <time>2013-03-10T08:38:01.56Z</time>
      </trkpt>
      <trkpt lat="45.86346" lon="4.77986">
        <ele>381.5</ele>
        <time>2013-03-10T08:38:02.66Z</time>
      </trkpt>
      <trkpt lat="45.86343" lon="4.77986">
        <ele>381.7</ele>
        <time>2013-03-10T08:38:03.56Z</time>
      </trkpt>
      <trkpt lat="45.86341" lon="4.77986">
        <ele>381.7</ele>
        <time>2013-03-10T08:38:04.56Z</time>
      </trkpt>
      <trkpt lat="45.86338" lon="4.77985">
        <ele>381.5</ele>
        <time>2013-03-10T08:38:05.65Z</time>
      </trkpt>
      <trkpt lat="45.86336" lon="4.77985">
        <ele>381.3</ele>
        <time>2013-03-10T08:38:06.56Z</time>
      </trkpt>
      <trkpt lat="45.86334" lon="4.77984">
        <ele>381.2</ele>
        <time>2013-03-10T08:38:07.65Z</time>
      </trkpt>
      <trkpt lat="45.86332" lon="4.77984">
        <ele>381.3</ele>
        <time>2013-03-10T08:38:08.56Z</time>
      </trkpt>
      <trkpt lat="45.86329" lon="4.77985">
        <ele>381.6</ele>
        <time>2013-03-10T08:38:09.65Z</time>
      </trkpt>
      <trkpt lat="45.86326" lon="4.77986">
        <ele>382.1</ele>
        <time>2013-03-10T08:38:10.58Z</time>
      </trkpt>
      <trkpt lat="45.86321" lon="4.77987">
        <ele>382.5</ele>
        <time>2013-03-10T08:38:12.65Z</time>
      </trkpt>
      <trkpt lat="45.86316" lon="4.77988">
        <ele>382.8</ele>
        <time>2013-03-10T08:38:14.65Z</time>
      </trkpt>
      <trkpt lat="45.86314" lon="4.77989">
        <ele>383.2</ele>
        <time>2013-03-10T08:38:15.56Z</time>
      </trkpt>
      <trkpt lat="45.86313" lon="4.7799">
        <ele>383.5</ele>
        <time>2013-03-10T08:38:16.61Z</time>
      </trkpt>
      <trkpt lat="45.8631" lon="4.77991">
        <ele>384</ele>
        <time>2013-03-10T08:38:17.56Z</time>
      </trkpt>
      <trkpt lat="45.86308" lon="4.77992">
        <ele>384.4</ele>
        <time>2013-03-10T08:38:18.66Z</time>
      </trkpt>
      <trkpt lat="45.86304" lon="4.77993">
        <ele>385.3</ele>
        <time>2013-03-10T08:38:20.65Z</time>
      </trkpt>
      <trkpt lat="45.86302" lon="4.77993">
        <ele>385.5</ele>
        <time>2013-03-10T08:38:21.56Z</time>
      </trkpt>
      <trkpt lat="45.863" lon="4.77993">
        <ele>385.5</ele>
        <time>2013-03-10T08:38:22.65Z</time>
      </trkpt>
      <trkpt lat="45.86296" lon="4.77992">
        <ele>385.9</ele>
        <time>2013-03-10T08:38:24.65Z</time>
      </trkpt>
      <trkpt lat="45.86294" lon="4.77992">
        <ele>386</ele>
        <time>2013-03-10T08:38:25.56Z</time>
      </trkpt>
      <trkpt lat="45.86291" lon="4.77991">
        <ele>385.9</ele>
        <time>2013-03-10T08:38:26.65Z</time>
      </trkpt>
      <trkpt lat="45.86289" lon="4.7799">
        <ele>385.8</ele>
        <time>2013-03-10T08:38:27.56Z</time>
      </trkpt>
      <trkpt lat="45.86287" lon="4.77989">
        <ele>385.8</ele>
        <time>2013-03-10T08:38:28.65Z</time>
      </trkpt>
      <trkpt lat="45.86282" lon="4.77987">
        <ele>385.6</ele>
        <time>2013-03-10T08:38:30.65Z</time>
      </trkpt>
      <trkpt lat="45.86279" lon="4.77985">
        <ele>385.5</ele>
        <time>2013-03-10T08:38:31.56Z</time>
      </trkpt>
      <trkpt lat="45.86277" lon="4.77984">
        <ele>385.6</ele>
        <time>2013-03-10T08:38:32.65Z</time>
      </trkpt>
      <trkpt lat="45.86274" lon="4.77982">
        <ele>386</ele>
        <time>2013-03-10T08:38:33.57Z</time>
      </trkpt>
      <trkpt lat="45.86272" lon="4.77982">
        <ele>386.5</ele>
        <time>2013-03-10T08:38:34.56Z</time>
      </trkpt>
      <trkpt lat="45.8627" lon="4.77981">
        <ele>387.1</ele>
        <time>2013-03-10T08:38:35.63Z</time>
      </trkpt>
      <trkpt lat="45.86266" lon="4.77977">
        <ele>387.4</ele>
        <time>2013-03-10T08:38:37.65Z</time>
      </trkpt>
      <trkpt lat="45.86264" lon="4.77976">
        <ele>387.7</ele>
        <time>2013-03-10T08:38:38.56Z</time>
      </trkpt>
      <trkpt lat="45.86263" lon="4.77975">
        <ele>387.9</ele>
        <time>2013-03-10T08:38:39.65Z</time>
      </trkpt>
      <trkpt lat="45.86261" lon="4.77975">
        <ele>388.4</ele>
        <time>2013-03-10T08:38:40.56Z</time>
      </trkpt>
      <trkpt lat="45.86259" lon="4.77975">
        <ele>389</ele>
        <time>2013-03-10T08:38:41.65Z</time>
      </trkpt>
      <trkpt lat="45.86258" lon="4.77974">
        <ele>389.5</ele>
        <time>2013-03-10T08:38:42.56Z</time>
      </trkpt>
      <trkpt lat="45.86256" lon="4.77974">
        <ele>390.1</ele>
        <time>2013-03-10T08:38:44.56Z</time>
      </trkpt>
      <trkpt lat="45.86254" lon="4.77974">
        <ele>390.9</ele>
        <time>2013-03-10T08:38:45.64Z</time>
      </trkpt>
      <trkpt lat="45.86253" lon="4.77974">
        <ele>391.5</ele>
        <time>2013-03-10T08:38:46.56Z</time>
      </trkpt>
      <trkpt lat="45.86251" lon="4.77975">
        <ele>392.3</ele>
        <time>2013-03-10T08:38:47.64Z</time>
      </trkpt>
      <trkpt lat="45.86249" lon="4.77975">
        <ele>393</ele>
        <time>2013-03-10T08:38:48.56Z</time>
      </trkpt>
      <trkpt lat="45.86248" lon="4.77976">
        <ele>393.7</ele>
        <time>2013-03-10T08:38:49.64Z</time>
      </trkpt>
      <trkpt lat="45.86246" lon="4.77977">
        <ele>394.4</ele>
        <time>2013-03-10T08:38:50.57Z</time>
      </trkpt>
      <trkpt lat="45.86244" lon="4.77978">
        <ele>395.2</ele>
        <time>2013-03-10T08:38:51.56Z</time>
      </trkpt>
      <trkpt lat="45.86243" lon="4.77979">
        <ele>395.8</ele>
        <time>2013-03-10T08:38:52.64Z</time>
      </trkpt>
      <trkpt lat="45.86241" lon="4.77979">
        <ele>396.3</ele>
        <time>2013-03-10T08:38:53.56Z</time>
      </trkpt>
      <trkpt lat="45.8624" lon="4.7798">
        <ele>396.9</ele>
        <time>2013-03-10T08:38:54.64Z</time>
      </trkpt>
      <trkpt lat="45.86236" lon="4.77981">
        <ele>398.3</ele>
        <time>2013-03-10T08:38:56.64Z</time>
      </trkpt>
      <trkpt lat="45.86234" lon="4.77982">
        <ele>399.1</ele>
        <time>2013-03-10T08:38:57.56Z</time>
      </trkpt>
      <trkpt lat="45.86233" lon="4.77983">
        <ele>399.7</ele>
        <time>2013-03-10T08:38:58.66Z</time>
      </trkpt>
      <trkpt lat="45.86232" lon="4.77983">
        <ele>404</ele>
        <time>2013-03-10T08:38:59.59Z</time>
      </trkpt>
      <trkpt lat="45.86229" lon="4.77984">
        <ele>401.6</ele>
        <time>2013-03-10T08:39:01.64Z</time>
      </trkpt>
      <trkpt lat="45.86226" lon="4.77984">
        <ele>402.2</ele>
        <time>2013-03-10T08:39:02.56Z</time>
      </trkpt>
      <trkpt lat="45.86224" lon="4.77984">
        <ele>402.9</ele>
        <time>2013-03-10T08:39:03.66Z</time>
      </trkpt>
      <trkpt lat="45.8622" lon="4.77985">
        <ele>404</ele>
        <time>2013-03-10T08:39:05.56Z</time>
      </trkpt>
      <trkpt lat="45.86219" lon="4.77986">
        <ele>404.4</ele>
        <time>2013-03-10T08:39:06.64Z</time>
      </trkpt>
      <trkpt lat="45.86218" lon="4.77987">
        <ele>404.8</ele>
        <time>2013-03-10T08:39:07.56Z</time>
      </trkpt>
      <trkpt lat="45.86216" lon="4.77988">
        <ele>405.3</ele>
        <time>2013-03-10T08:39:08.65Z</time>
      </trkpt>
      <trkpt lat="45.86212" lon="4.77988">
        <ele>405.8</ele>
        <time>2013-03-10T08:39:10.64Z</time>
      </trkpt>
      <trkpt lat="45.86211" lon="4.77987">
        <ele>405.7</ele>
        <time>2013-03-10T08:39:11.56Z</time>
      </trkpt>
      <trkpt lat="45.8621" lon="4.77987">
        <ele>405.9</ele>
        <time>2013-03-10T08:39:12.63Z</time>
      </trkpt>
      <trkpt lat="45.86208" lon="4.77988">
        <ele>406.4</ele>
        <time>2013-03-10T08:39:14.64Z</time>
      </trkpt>
      <trkpt lat="45.86207" lon="4.77988">
        <ele>406.6</ele>
        <time>2013-03-10T08:39:15.56Z</time>
      </trkpt>
      <trkpt lat="45.86206" lon="4.77988">
        <ele>406.6</ele>
        <time>2013-03-10T08:39:16.57Z</time>
      </trkpt>
      <trkpt lat="45.86204" lon="4.77988">
        <ele>406.8</ele>
        <time>2013-03-10T08:39:17.56Z</time>
      </trkpt>
      <trkpt lat="45.86203" lon="4.77988">
        <ele>407.1</ele>
        <time>2013-03-10T08:39:18.56Z</time>
      </trkpt>
      <trkpt lat="45.86202" lon="4.77988">
        <ele>407.3</ele>
        <time>2013-03-10T08:39:19.56Z</time>
      </trkpt>
      <trkpt lat="45.862" lon="4.77989">
        <ele>407.6</ele>
        <time>2013-03-10T08:39:20.56Z</time>
      </trkpt>
      <trkpt lat="45.86199" lon="4.77989">
        <ele>408</ele>
        <time>2013-03-10T08:39:21.56Z</time>
      </trkpt>
      <trkpt lat="45.86197" lon="4.7799">
        <ele>408.4</ele>
        <time>2013-03-10T08:39:22.56Z</time>
      </trkpt>
      <trkpt lat="45.86195" lon="4.7799">
        <ele>408.5</ele>
        <time>2013-03-10T08:39:23.56Z</time>
      </trkpt>
      <trkpt lat="45.86193" lon="4.77989">
        <ele>408.6</ele>
        <time>2013-03-10T08:39:24.56Z</time>
      </trkpt>
      <trkpt lat="45.86192" lon="4.77989">
        <ele>408.7</ele>
        <time>2013-03-10T08:39:25.56Z</time>
      </trkpt>
      <trkpt lat="45.86191" lon="4.7799">
        <ele>409.4</ele>
        <time>2013-03-10T08:39:27.63Z</time>
      </trkpt>
      <trkpt lat="45.86188" lon="4.77991">
        <ele>409.8</ele>
        <time>2013-03-10T08:39:28.67Z</time>
      </trkpt>
      <trkpt lat="45.86184" lon="4.77992">
        <ele>410.7</ele>
        <time>2013-03-10T08:39:30.56Z</time>
      </trkpt>
      <trkpt lat="45.86183" lon="4.77993">
        <ele>411.4</ele>
        <time>2013-03-10T08:39:31.56Z</time>
      </trkpt>
      <trkpt lat="45.86181" lon="4.77995">
        <ele>411.9</ele>
        <time>2013-03-10T08:39:32.56Z</time>
      </trkpt>
      <trkpt lat="45.86181" lon="4.77995">
        <ele>412.3</ele>
        <time>2013-03-10T08:39:33.57Z</time>
      </trkpt>
      <trkpt lat="45.86179" lon="4.77996">
        <ele>412.8</ele>
        <time>2013-03-10T08:39:34.63Z</time>
      </trkpt>
      <trkpt lat="45.86177" lon="4.77998">
        <ele>413.7</ele>
        <time>2013-03-10T08:39:35.63Z</time>
      </trkpt>
      <trkpt lat="45.86176" lon="4.78">
        <ele>414.7</ele>
        <time>2013-03-10T08:39:36.63Z</time>
      </trkpt>
      <trkpt lat="45.86174" lon="4.78">
        <ele>415.1</ele>
        <time>2013-03-10T08:39:37.57Z</time>
      </trkpt>
      <trkpt lat="45.86173" lon="4.78001">
        <ele>415.5</ele>
        <time>2013-03-10T08:39:38.65Z</time>
      </trkpt>
      <trkpt lat="45.86169" lon="4.78002">
        <ele>416.4</ele>
        <time>2013-03-10T08:39:40.56Z</time>
      </trkpt>
      <trkpt lat="45.86168" lon="4.78002">
        <ele>416.7</ele>
        <time>2013-03-10T08:39:41.57Z</time>
      </trkpt>
      <trkpt lat="45.86166" lon="4.78002">
        <ele>416.7</ele>
        <time>2013-03-10T08:39:42.56Z</time>
      </trkpt>
      <trkpt lat="45.86164" lon="4.78002">
        <ele>416.8</ele>
        <time>2013-03-10T08:39:43.56Z</time>
      </trkpt>
      <trkpt lat="45.86163" lon="4.78003">
        <ele>417.4</ele>
        <time>2013-03-10T08:39:44.63Z</time>
      </trkpt>
      <trkpt lat="45.86161" lon="4.78005">
        <ele>418</ele>
        <time>2013-03-10T08:39:45.63Z</time>
      </trkpt>
      <trkpt lat="45.86159" lon="4.78006">
        <ele>418.6</ele>
        <time>2013-03-10T08:39:46.63Z</time>
      </trkpt>
      <trkpt lat="45.86157" lon="4.78007">
        <ele>419</ele>
        <time>2013-03-10T08:39:47.63Z</time>
      </trkpt>
      <trkpt lat="45.86154" lon="4.78008">
        <ele>419.5</ele>
        <time>2013-03-10T08:39:48.68Z</time>
      </trkpt>
      <trkpt lat="45.86151" lon="4.7801">
        <ele>420.2</ele>
        <time>2013-03-10T08:39:50.59Z</time>
      </trkpt>
      <trkpt lat="45.86149" lon="4.7801">
        <ele>420.6</ele>
        <time>2013-03-10T08:39:51.63Z</time>
      </trkpt>
      <trkpt lat="45.86148" lon="4.78011">
        <ele>420.8</ele>
        <time>2013-03-10T08:39:52.63Z</time>
      </trkpt>
      <trkpt lat="45.86146" lon="4.7801">
        <ele>420.8</ele>
        <time>2013-03-10T08:39:53.68Z</time>
      </trkpt>
      <trkpt lat="45.86143" lon="4.7801">
        <ele>420.8</ele>
        <time>2013-03-10T08:39:55.56Z</time>
      </trkpt>
      <trkpt lat="45.86141" lon="4.7801">
        <ele>420.7</ele>
        <time>2013-03-10T08:39:56.56Z</time>
      </trkpt>
      <trkpt lat="45.8614" lon="4.7801">
        <ele>420.9</ele>
        <time>2013-03-10T08:39:57.56Z</time>
      </trkpt>
      <trkpt lat="45.86138" lon="4.78011">
        <ele>421.3</ele>
        <time>2013-03-10T08:39:58.56Z</time>
      </trkpt>
      <trkpt lat="45.86136" lon="4.78011">
        <ele>421.6</ele>
        <time>2013-03-10T08:39:59.59Z</time>
      </trkpt>
      <trkpt lat="45.86134" lon="4.78012">
        <ele>421.8</ele>
        <time>2013-03-10T08:40:00.63Z</time>
      </trkpt>
      <trkpt lat="45.86132" lon="4.78013">
        <ele>422.1</ele>
        <time>2013-03-10T08:40:01.63Z</time>
      </trkpt>
      <trkpt lat="45.86131" lon="4.78014">
        <ele>422.6</ele>
        <time>2013-03-10T08:40:02.63Z</time>
      </trkpt>
      <trkpt lat="45.86129" lon="4.78015">
        <ele>423</ele>
        <time>2013-03-10T08:40:03.67Z</time>
      </trkpt>
      <trkpt lat="45.86124" lon="4.78016">
        <ele>423.2</ele>
        <time>2013-03-10T08:40:05.56Z</time>
      </trkpt>
      <trkpt lat="45.86122" lon="4.78017">
        <ele>423.7</ele>
        <time>2013-03-10T08:40:06.56Z</time>
      </trkpt>
      <trkpt lat="45.8612" lon="4.78017">
        <ele>423.9</ele>
        <time>2013-03-10T08:40:07.56Z</time>
      </trkpt>
      <trkpt lat="45.86118" lon="4.78018">
        <ele>423.9</ele>
        <time>2013-03-10T08:40:08.56Z</time>
      </trkpt>
      <trkpt lat="45.86117" lon="4.78019">
        <ele>424.4</ele>
        <time>2013-03-10T08:40:09.56Z</time>
      </trkpt>
      <trkpt lat="45.86114" lon="4.7802">
        <ele>425</ele>
        <time>2013-03-10T08:40:10.56Z</time>
      </trkpt>
      <trkpt lat="45.86112" lon="4.78022">
        <ele>425.8</ele>
        <time>2013-03-10T08:40:11.56Z</time>
      </trkpt>
      <trkpt lat="45.8611" lon="4.78023">
        <ele>426.1</ele>
        <time>2013-03-10T08:40:12.56Z</time>
      </trkpt>
      <trkpt lat="45.86109" lon="4.78024">
        <ele>426.3</ele>
        <time>2013-03-10T08:40:13.56Z</time>
      </trkpt>
      <trkpt lat="45.86107" lon="4.78025">
        <ele>426.7</ele>
        <time>2013-03-10T08:40:14.62Z</time>
      </trkpt>
      <trkpt lat="45.86104" lon="4.78026">
        <ele>427.1</ele>
        <time>2013-03-10T08:40:15.62Z</time>
      </trkpt>
      <trkpt lat="45.86102" lon="4.78027">
        <ele>427.2</ele>
        <time>2013-03-10T08:40:16.59Z</time>
      </trkpt>
      <trkpt lat="45.861" lon="4.78028">
        <ele>427.5</ele>
        <time>2013-03-10T08:40:17.62Z</time>
      </trkpt>
      <trkpt lat="45.86098" lon="4.78028">
        <ele>427.6</ele>
        <time>2013-03-10T08:40:18.74Z</time>
      </trkpt>
      <trkpt lat="45.86094" lon="4.7803">
        <ele>428.1</ele>
        <time>2013-03-10T08:40:20.56Z</time>
      </trkpt>
      <trkpt lat="45.86092" lon="4.78032">
        <ele>428.5</ele>
        <time>2013-03-10T08:40:21.56Z</time>
      </trkpt>
      <trkpt lat="45.86091" lon="4.78034">
        <ele>429</ele>
        <time>2013-03-10T08:40:22.56Z</time>
      </trkpt>
      <trkpt lat="45.8609" lon="4.78035">
        <ele>429.5</ele>
        <time>2013-03-10T08:40:23.56Z</time>
      </trkpt>
      <trkpt lat="45.86088" lon="4.78037">
        <ele>429.9</ele>
        <time>2013-03-10T08:40:24.56Z</time>
      </trkpt>
      <trkpt lat="45.86086" lon="4.78039">
        <ele>430.3</ele>
        <time>2013-03-10T08:40:25.56Z</time>
      </trkpt>
      <trkpt lat="45.86085" lon="4.7804">
        <ele>430.7</ele>
        <time>2013-03-10T08:40:26.56Z</time>
      </trkpt>
      <trkpt lat="45.86084" lon="4.78042">
        <ele>431.1</ele>
        <time>2013-03-10T08:40:27.57Z</time>
      </trkpt>
      <trkpt lat="45.86082" lon="4.78045">
        <ele>431.6</ele>
        <time>2013-03-10T08:40:28.56Z</time>
      </trkpt>
      <trkpt lat="45.8608" lon="4.78049">
        <ele>432.1</ele>
        <time>2013-03-10T08:40:29.56Z</time>
      </trkpt>
      <trkpt lat="45.86078" lon="4.78051">
        <ele>432.5</ele>
        <time>2013-03-10T08:40:30.56Z</time>
      </trkpt>
      <trkpt lat="45.86076" lon="4.78054">
        <ele>432.7</ele>
        <time>2013-03-10T08:40:31.62Z</time>
      </trkpt>
      <trkpt lat="45.86074" lon="4.78057">
        <ele>433</ele>
        <time>2013-03-10T08:40:32.62Z</time>
      </trkpt>
      <trkpt lat="45.86072" lon="4.7806">
        <ele>433.6</ele>
        <time>2013-03-10T08:40:33.73Z</time>
      </trkpt>
      <trkpt lat="45.86069" lon="4.78064">
        <ele>434.3</ele>
        <time>2013-03-10T08:40:35.62Z</time>
      </trkpt>
      <trkpt lat="45.86068" lon="4.78066">
        <ele>434.4</ele>
        <time>2013-03-10T08:40:36.62Z</time>
      </trkpt>
      <trkpt lat="45.86067" lon="4.78068">
        <ele>434.7</ele>
        <time>2013-03-10T08:40:37.62Z</time>
      </trkpt>
      <trkpt lat="45.86066" lon="4.7807">
        <ele>435.4</ele>
        <time>2013-03-10T08:40:38.68Z</time>
      </trkpt>
      <trkpt lat="45.86063" lon="4.78075">
        <ele>436</ele>
        <time>2013-03-10T08:40:40.56Z</time>
      </trkpt>
      <trkpt lat="45.86061" lon="4.78076">
        <ele>435.9</ele>
        <time>2013-03-10T08:40:41.57Z</time>
      </trkpt>
      <trkpt lat="45.86059" lon="4.78078">
        <ele>436</ele>
        <time>2013-03-10T08:40:42.56Z</time>
      </trkpt>
      <trkpt lat="45.86058" lon="4.78079">
        <ele>436.3</ele>
        <time>2013-03-10T08:40:43.56Z</time>
      </trkpt>
      <trkpt lat="45.86058" lon="4.78081">
        <ele>436.9</ele>
        <time>2013-03-10T08:40:45.62Z</time>
      </trkpt>
      <trkpt lat="45.86058" lon="4.78082">
        <ele>437.2</ele>
        <time>2013-03-10T08:40:46.62Z</time>
      </trkpt>
      <trkpt lat="45.86058" lon="4.78085">
        <ele>438.1</ele>
        <time>2013-03-10T08:40:53.68Z</time>
      </trkpt>
      <trkpt lat="45.86059" lon="4.78089">
        <ele>439.8</ele>
        <time>2013-03-10T08:40:55.56Z</time>
      </trkpt>
      <trkpt lat="45.86059" lon="4.78092">
        <ele>440.8</ele>
        <time>2013-03-10T08:40:57.56Z</time>
      </trkpt>
      <trkpt lat="45.86059" lon="4.78093">
        <ele>433.9</ele>
        <time>2013-03-10T08:40:59.59Z</time>
      </trkpt>
      <trkpt lat="45.86059" lon="4.78096">
        <ele>442.2</ele>
        <time>2013-03-10T08:41:01.61Z</time>
      </trkpt>
      <trkpt lat="45.8606" lon="4.78098">
        <ele>443.2</ele>
        <time>2013-03-10T08:41:02.61Z</time>
      </trkpt>
      <trkpt lat="45.86061" lon="4.78099">
        <ele>443.9</ele>
        <time>2013-03-10T08:41:03.66Z</time>
      </trkpt>
      <trkpt lat="45.86061" lon="4.78101">
        <ele>444.5</ele>
        <time>2013-03-10T08:41:05.56Z</time>
      </trkpt>
      <trkpt lat="45.86061" lon="4.78102">
        <ele>445</ele>
        <time>2013-03-10T08:41:06.56Z</time>
      </trkpt>
      <trkpt lat="45.86061" lon="4.78105">
        <ele>445.7</ele>
        <time>2013-03-10T08:41:08.56Z</time>
      </trkpt>
      <trkpt lat="45.86062" lon="4.78105">
        <ele>446.1</ele>
        <time>2013-03-10T08:41:10.56Z</time>
      </trkpt>
      <trkpt lat="45.86062" lon="4.78107">
        <ele>446.9</ele>
        <time>2013-03-10T08:41:12.56Z</time>
      </trkpt>
      <trkpt lat="45.86063" lon="4.78108">
        <ele>447.5</ele>
        <time>2013-03-10T08:41:14.56Z</time>
      </trkpt>
      <trkpt lat="45.86064" lon="4.7811">
        <ele>448.1</ele>
        <time>2013-03-10T08:41:15.56Z</time>
      </trkpt>
      <trkpt lat="45.86064" lon="4.78112">
        <ele>448.9</ele>
        <time>2013-03-10T08:41:16.57Z</time>
      </trkpt>
      <trkpt lat="45.86066" lon="4.78113">
        <ele>449.5</ele>
        <time>2013-03-10T08:41:19.61Z</time>
      </trkpt>
      <trkpt lat="45.86067" lon="4.78114">
        <ele>449.8</ele>
        <time>2013-03-10T08:41:20.6Z</time>
      </trkpt>
      <trkpt lat="45.86069" lon="4.78114">
        <ele>450</ele>
        <time>2013-03-10T08:41:21.6Z</time>
      </trkpt>
      <trkpt lat="45.86071" lon="4.78114">
        <ele>450.3</ele>
        <time>2013-03-10T08:41:22.6Z</time>
      </trkpt>
      <trkpt lat="45.86073" lon="4.78114">
        <ele>450.7</ele>
        <time>2013-03-10T08:41:23.66Z</time>
      </trkpt>
      <trkpt lat="45.86074" lon="4.78114">
        <ele>451</ele>
        <time>2013-03-10T08:41:25.6Z</time>
      </trkpt>
      <trkpt lat="45.86075" lon="4.78114">
        <ele>451.3</ele>
        <time>2013-03-10T08:41:26.6Z</time>
      </trkpt>
      <trkpt lat="45.86076" lon="4.78115">
        <ele>451.6</ele>
        <time>2013-03-10T08:41:27.6Z</time>
      </trkpt>
      <trkpt lat="45.86077" lon="4.78116">
        <ele>451.9</ele>
        <time>2013-03-10T08:41:28.64Z</time>
      </trkpt>
      <trkpt lat="45.86079" lon="4.78118">
        <ele>452.9</ele>
        <time>2013-03-10T08:41:30.56Z</time>
      </trkpt>
      <trkpt lat="45.8608" lon="4.7812">
        <ele>453.4</ele>
        <time>2013-03-10T08:41:31.56Z</time>
      </trkpt>
      <trkpt lat="45.86082" lon="4.78122">
        <ele>454.1</ele>
        <time>2013-03-10T08:41:32.56Z</time>
      </trkpt>
      <trkpt lat="45.86083" lon="4.78123">
        <ele>454.6</ele>
        <time>2013-03-10T08:41:33.57Z</time>
      </trkpt>
      <trkpt lat="45.86084" lon="4.78124">
        <ele>454.9</ele>
        <time>2013-03-10T08:41:34.6Z</time>
      </trkpt>
      <trkpt lat="45.86085" lon="4.78126">
        <ele>455.3</ele>
        <time>2013-03-10T08:41:35.58Z</time>
      </trkpt>
      <trkpt lat="45.86085" lon="4.78127">
        <ele>455.6</ele>
        <time>2013-03-10T08:41:36.6Z</time>
      </trkpt>
      <trkpt lat="45.86084" lon="4.78129">
        <ele>455.9</ele>
        <time>2013-03-10T08:41:38.65Z</time>
      </trkpt>
      <trkpt lat="45.86084" lon="4.78132">
        <ele>456.6</ele>
        <time>2013-03-10T08:41:40.56Z</time>
      </trkpt>
      <trkpt lat="45.86085" lon="4.78135">
        <ele>457.1</ele>
        <time>2013-03-10T08:41:41.57Z</time>
      </trkpt>
      <trkpt lat="45.86085" lon="4.78136">
        <ele>457.4</ele>
        <time>2013-03-10T08:41:43.65Z</time>
      </trkpt>
      <trkpt lat="45.86086" lon="4.78136">
        <ele>457.3</ele>
        <time>2013-03-10T08:41:46.56Z</time>
      </trkpt>
      <trkpt lat="45.86088" lon="4.78136">
        <ele>457.4</ele>
        <time>2013-03-10T08:41:48.56Z</time>
      </trkpt>
      <trkpt lat="45.8609" lon="4.78136">
        <ele>457.3</ele>
        <time>2013-03-10T08:41:49.58Z</time>
      </trkpt>
      <trkpt lat="45.86092" lon="4.78136">
        <ele>457.4</ele>
        <time>2013-03-10T08:41:50.65Z</time>
      </trkpt>
      <trkpt lat="45.86096" lon="4.78136">
        <ele>457.5</ele>
        <time>2013-03-10T08:41:52.56Z</time>
      </trkpt>
      <trkpt lat="45.86097" lon="4.78137">
        <ele>457.6</ele>
        <time>2013-03-10T08:41:53.56Z</time>
      </trkpt>
      <trkpt lat="45.86099" lon="4.78137">
        <ele>457.7</ele>
        <time>2013-03-10T08:41:54.6Z</time>
      </trkpt>
      <trkpt lat="45.86101" lon="4.78139">
        <ele>458</ele>
        <time>2013-03-10T08:41:55.6Z</time>
      </trkpt>
      <trkpt lat="45.86103" lon="4.78139">
        <ele>458.1</ele>
        <time>2013-03-10T08:41:56.6Z</time>
      </trkpt>
      <trkpt lat="45.86105" lon="4.7814">
        <ele>458.2</ele>
        <time>2013-03-10T08:41:57.6Z</time>
      </trkpt>
      <trkpt lat="45.86106" lon="4.7814">
        <ele>458.3</ele>
        <time>2013-03-10T08:41:58.67Z</time>
      </trkpt>
      <trkpt lat="45.8611" lon="4.78143">
        <ele>463.9</ele>
        <time>2013-03-10T08:42:00.56Z</time>
      </trkpt>
      <trkpt lat="45.86112" lon="4.78144">
        <ele>459.1</ele>
        <time>2013-03-10T08:42:01.59Z</time>
      </trkpt>
      <trkpt lat="45.86114" lon="4.78146">
        <ele>459.3</ele>
        <time>2013-03-10T08:42:02.59Z</time>
      </trkpt>
      <trkpt lat="45.86116" lon="4.78147">
        <ele>459.5</ele>
        <time>2013-03-10T08:42:03.64Z</time>
      </trkpt>
      <trkpt lat="45.8612" lon="4.78149">
        <ele>459.8</ele>
        <time>2013-03-10T08:42:05.56Z</time>
      </trkpt>
      <trkpt lat="45.86122" lon="4.7815">
        <ele>459.9</ele>
        <time>2013-03-10T08:42:06.56Z</time>
      </trkpt>
      <trkpt lat="45.86124" lon="4.7815">
        <ele>459.8</ele>
        <time>2013-03-10T08:42:07.56Z</time>
      </trkpt>
      <trkpt lat="45.86126" lon="4.7815">
        <ele>459.7</ele>
        <time>2013-03-10T08:42:08.56Z</time>
      </trkpt>
      <trkpt lat="45.86127" lon="4.78149">
        <ele>459.5</ele>
        <time>2013-03-10T08:42:09.56Z</time>
      </trkpt>
      <trkpt lat="45.86128" lon="4.78148">
        <ele>459.2</ele>
        <time>2013-03-10T08:42:10.56Z</time>
      </trkpt>
      <trkpt lat="45.8613" lon="4.78147">
        <ele>458.9</ele>
        <time>2013-03-10T08:42:11.56Z</time>
      </trkpt>
      <trkpt lat="45.86132" lon="4.78145">
        <ele>458.5</ele>
        <time>2013-03-10T08:42:12.56Z</time>
      </trkpt>
      <trkpt lat="45.86134" lon="4.78144">
        <ele>458</ele>
        <time>2013-03-10T08:42:13.56Z</time>
      </trkpt>
      <trkpt lat="45.86136" lon="4.78142">
        <ele>457.7</ele>
        <time>2013-03-10T08:42:14.56Z</time>
      </trkpt>
      <trkpt lat="45.86139" lon="4.78142">
        <ele>457.5</ele>
        <time>2013-03-10T08:42:15.56Z</time>
      </trkpt>
      <trkpt lat="45.86142" lon="4.78141">
        <ele>457.2</ele>
        <time>2013-03-10T08:42:16.57Z</time>
      </trkpt>
      <trkpt lat="45.86145" lon="4.7814">
        <ele>456.7</ele>
        <time>2013-03-10T08:42:17.59Z</time>
      </trkpt>
      <trkpt lat="45.86149" lon="4.78139">
        <ele>456.3</ele>
        <time>2013-03-10T08:42:18.72Z</time>
      </trkpt>
      <trkpt lat="45.86155" lon="4.78137">
        <ele>455.5</ele>
        <time>2013-03-10T08:42:20.59Z</time>
      </trkpt>
      <trkpt lat="45.86159" lon="4.78135">
        <ele>455</ele>
        <time>2013-03-10T08:42:21.59Z</time>
      </trkpt>
      <trkpt lat="45.86162" lon="4.78134">
        <ele>454.6</ele>
        <time>2013-03-10T08:42:22.63Z</time>
      </trkpt>
      <trkpt lat="45.86167" lon="4.78131">
        <ele>453.9</ele>
        <time>2013-03-10T08:42:24.59Z</time>
      </trkpt>
      <trkpt lat="45.8617" lon="4.7813">
        <ele>453.4</ele>
        <time>2013-03-10T08:42:25.59Z</time>
      </trkpt>
      <trkpt lat="45.86175" lon="4.78128">
        <ele>452.6</ele>
        <time>2013-03-10T08:42:26.63Z</time>
      </trkpt>
      <trkpt lat="45.86183" lon="4.78127">
        <ele>451.5</ele>
        <time>2013-03-10T08:42:28.56Z</time>
      </trkpt>
      <trkpt lat="45.86187" lon="4.78128">
        <ele>451.2</ele>
        <time>2013-03-10T08:42:29.61Z</time>
      </trkpt>
      <trkpt lat="45.86195" lon="4.78131">
        <ele>450.9</ele>
        <time>2013-03-10T08:42:31.59Z</time>
      </trkpt>
      <trkpt lat="45.86198" lon="4.78132">
        <ele>450.6</ele>
        <time>2013-03-10T08:42:32.61Z</time>
      </trkpt>
      <trkpt lat="45.86203" lon="4.78133">
        <ele>449.9</ele>
        <time>2013-03-10T08:42:34.56Z</time>
      </trkpt>
      <trkpt lat="45.86206" lon="4.78133">
        <ele>449.3</ele>
        <time>2013-03-10T08:42:35.56Z</time>
      </trkpt>
      <trkpt lat="45.8621" lon="4.78133">
        <ele>448.8</ele>
        <time>2013-03-10T08:42:36.56Z</time>
      </trkpt>
      <trkpt lat="45.86213" lon="4.78133">
        <ele>448.3</ele>
        <time>2013-03-10T08:42:37.56Z</time>
      </trkpt>
      <trkpt lat="45.86218" lon="4.78134">
        <ele>447.8</ele>
        <time>2013-03-10T08:42:38.56Z</time>
      </trkpt>
      <trkpt lat="45.86222" lon="4.78135">
        <ele>447.2</ele>
        <time>2013-03-10T08:42:39.71Z</time>
      </trkpt>
      <trkpt lat="45.86229" lon="4.78138">
        <ele>447.1</ele>
        <time>2013-03-10T08:42:41.57Z</time>
      </trkpt>
      <trkpt lat="45.86232" lon="4.78141">
        <ele>447.2</ele>
        <time>2013-03-10T08:42:42.56Z</time>
      </trkpt>
      <trkpt lat="45.86234" lon="4.78142">
        <ele>447.1</ele>
        <time>2013-03-10T08:42:43.56Z</time>
      </trkpt>
      <trkpt lat="45.86238" lon="4.78145">
        <ele>447.1</ele>
        <time>2013-03-10T08:42:44.58Z</time>
      </trkpt>
      <trkpt lat="45.86241" lon="4.78147">
        <ele>447</ele>
        <time>2013-03-10T08:42:45.58Z</time>
      </trkpt>
      <trkpt lat="45.86244" lon="4.78149">
        <ele>446.9</ele>
        <time>2013-03-10T08:42:46.62Z</time>
      </trkpt>
      <trkpt lat="45.8625" lon="4.78155">
        <ele>446.7</ele>
        <time>2013-03-10T08:42:48.56Z</time>
      </trkpt>
      <trkpt lat="45.86253" lon="4.78157">
        <ele>446.8</ele>
        <time>2013-03-10T08:42:49.62Z</time>
      </trkpt>
      <trkpt lat="45.86258" lon="4.78163">
        <ele>447.1</ele>
        <time>2013-03-10T08:42:51.56Z</time>
      </trkpt>
      <trkpt lat="45.8626" lon="4.78165">
        <ele>447.1</ele>
        <time>2013-03-10T08:42:52.63Z</time>
      </trkpt>
      <trkpt lat="45.86267" lon="4.78168">
        <ele>446.8</ele>
        <time>2013-03-10T08:42:54.56Z</time>
      </trkpt>
      <trkpt lat="45.8627" lon="4.78168">
        <ele>446.5</ele>
        <time>2013-03-10T08:42:55.56Z</time>
      </trkpt>
      <trkpt lat="45.86274" lon="4.78168">
        <ele>446.3</ele>
        <time>2013-03-10T08:42:56.58Z</time>
      </trkpt>
      <trkpt lat="45.86278" lon="4.78167">
        <ele>446</ele>
        <time>2013-03-10T08:42:57.58Z</time>
      </trkpt>
      <trkpt lat="45.86281" lon="4.78166">
        <ele>445.6</ele>
        <time>2013-03-10T08:42:58.68Z</time>
      </trkpt>
      <trkpt lat="45.86289" lon="4.78165">
        <ele>468.2</ele>
        <time>2013-03-10T08:43:00.58Z</time>
      </trkpt>
      <trkpt lat="45.86294" lon="4.78165">
        <ele>444</ele>
        <time>2013-03-10T08:43:01.71Z</time>
      </trkpt>
      <trkpt lat="45.86301" lon="4.78166">
        <ele>443.5</ele>
        <time>2013-03-10T08:43:03.56Z</time>
      </trkpt>
      <trkpt lat="45.86305" lon="4.78166">
        <ele>443</ele>
        <time>2013-03-10T08:43:04.62Z</time>
      </trkpt>
      <trkpt lat="45.86313" lon="4.78168">
        <ele>442.4</ele>
        <time>2013-03-10T08:43:06.58Z</time>
      </trkpt>
      <trkpt lat="45.86317" lon="4.7817">
        <ele>442.1</ele>
        <time>2013-03-10T08:43:07.62Z</time>
      </trkpt>
      <trkpt lat="45.86324" lon="4.78173">
        <ele>441.6</ele>
        <time>2013-03-10T08:43:09.58Z</time>
      </trkpt>
      <trkpt lat="45.86327" lon="4.78174">
        <ele>441.4</ele>
        <time>2013-03-10T08:43:10.69Z</time>
      </trkpt>
      <trkpt lat="45.86333" lon="4.78173">
        <ele>441</ele>
        <time>2013-03-10T08:43:12.58Z</time>
      </trkpt>
      <trkpt lat="45.86336" lon="4.78172">
        <ele>440.8</ele>
        <time>2013-03-10T08:43:13.68Z</time>
      </trkpt>
      <trkpt lat="45.86341" lon="4.78168">
        <ele>440.5</ele>
        <time>2013-03-10T08:43:15.56Z</time>
      </trkpt>
      <trkpt lat="45.86343" lon="4.78165">
        <ele>440.1</ele>
        <time>2013-03-10T08:43:16.63Z</time>
      </trkpt>
      <trkpt lat="45.86349" lon="4.78159">
        <ele>439</ele>
        <time>2013-03-10T08:43:18.56Z</time>
      </trkpt>
      <trkpt lat="45.86351" lon="4.78156">
        <ele>438.6</ele>
        <time>2013-03-10T08:43:19.58Z</time>
      </trkpt>
      <trkpt lat="45.86355" lon="4.78154">
        <ele>438.1</ele>
        <time>2013-03-10T08:43:20.61Z</time>
      </trkpt>
      <trkpt lat="45.86362" lon="4.78151">
        <ele>437.3</ele>
        <time>2013-03-10T08:43:22.58Z</time>
      </trkpt>
      <trkpt lat="45.86366" lon="4.78149">
        <ele>436.9</ele>
        <time>2013-03-10T08:43:23.68Z</time>
      </trkpt>
      <trkpt lat="45.86373" lon="4.78147">
        <ele>436.5</ele>
        <time>2013-03-10T08:43:25.56Z</time>
      </trkpt>
      <trkpt lat="45.86377" lon="4.78146">
        <ele>436.2</ele>
        <time>2013-03-10T08:43:26.56Z</time>
      </trkpt>
      <trkpt lat="45.8638" lon="4.78145">
        <ele>435.9</ele>
        <time>2013-03-10T08:43:27.58Z</time>
      </trkpt>
      <trkpt lat="45.86384" lon="4.78144">
        <ele>435.8</ele>
        <time>2013-03-10T08:43:28.66Z</time>
      </trkpt>
      <trkpt lat="45.86391" lon="4.78144">
        <ele>435.2</ele>
        <time>2013-03-10T08:43:30.57Z</time>
      </trkpt>
      <trkpt lat="45.86394" lon="4.78144">
        <ele>434.7</ele>
        <time>2013-03-10T08:43:31.71Z</time>
      </trkpt>
      <trkpt lat="45.86402" lon="4.78143">
        <ele>433.2</ele>
        <time>2013-03-10T08:43:33.74Z</time>
      </trkpt>
      <trkpt lat="45.86409" lon="4.78142">
        <ele>432</ele>
        <time>2013-03-10T08:43:35.62Z</time>
      </trkpt>
      <trkpt lat="45.86417" lon="4.78142">
        <ele>430.4</ele>
        <time>2013-03-10T08:43:37.62Z</time>
      </trkpt>
      <trkpt lat="45.86425" lon="4.78141">
        <ele>429</ele>
        <time>2013-03-10T08:43:39.62Z</time>
      </trkpt>
      <trkpt lat="45.86431" lon="4.7814">
        <ele>427.5</ele>
        <time>2013-03-10T08:43:41.57Z</time>
      </trkpt>
      <trkpt lat="45.86434" lon="4.78139">
        <ele>426.8</ele>
        <time>2013-03-10T08:43:42.63Z</time>
      </trkpt>
      <trkpt lat="45.86441" lon="4.78137">
        <ele>425.4</ele>
        <time>2013-03-10T08:43:44.58Z</time>
      </trkpt>
      <trkpt lat="45.86443" lon="4.78137">
        <ele>424.8</ele>
        <time>2013-03-10T08:43:45.69Z</time>
      </trkpt>
      <trkpt lat="45.8645" lon="4.78135">
        <ele>423.1</ele>
        <time>2013-03-10T08:43:47.57Z</time>
      </trkpt>
      <trkpt lat="45.86455" lon="4.78134">
        <ele>421.9</ele>
        <time>2013-03-10T08:43:48.69Z</time>
      </trkpt>
      <trkpt lat="45.86464" lon="4.78132">
        <ele>419.6</ele>
        <time>2013-03-10T08:43:50.57Z</time>
      </trkpt>
      <trkpt lat="45.86468" lon="4.78131">
        <ele>418.5</ele>
        <time>2013-03-10T08:43:51.56Z</time>
      </trkpt>
      <trkpt lat="45.86473" lon="4.7813">
        <ele>417.6</ele>
        <time>2013-03-10T08:43:52.56Z</time>
      </trkpt>
      <trkpt lat="45.86477" lon="4.78128">
        <ele>416.4</ele>
        <time>2013-03-10T08:43:53.56Z</time>
      </trkpt>
      <trkpt lat="45.86482" lon="4.78126">
        <ele>415.3</ele>
        <time>2013-03-10T08:43:54.62Z</time>
      </trkpt>
      <trkpt lat="45.8649" lon="4.78125">
        <ele>413.4</ele>
        <time>2013-03-10T08:43:56.56Z</time>
      </trkpt>
      <trkpt lat="45.86494" lon="4.78125">
        <ele>412.6</ele>
        <time>2013-03-10T08:43:57.65Z</time>
      </trkpt>
      <trkpt lat="45.86502" lon="4.78125">
        <ele>443.4</ele>
        <time>2013-03-10T08:43:59.68Z</time>
      </trkpt>
      <trkpt lat="45.86508" lon="4.78126">
        <ele>409.8</ele>
        <time>2013-03-10T08:44:01.57Z</time>
      </trkpt>
      <trkpt lat="45.86511" lon="4.78127">
        <ele>409.2</ele>
        <time>2013-03-10T08:44:02.63Z</time>
      </trkpt>
      <trkpt lat="45.86517" lon="4.78128">
        <ele>407.8</ele>
        <time>2013-03-10T08:44:04.67Z</time>
      </trkpt>
      <trkpt lat="45.86525" lon="4.78129">
        <ele>406</ele>
        <time>2013-03-10T08:44:06.66Z</time>
      </trkpt>
      <trkpt lat="45.86532" lon="4.78129">
        <ele>404.4</ele>
        <time>2013-03-10T08:44:08.69Z</time>
      </trkpt>
      <trkpt lat="45.86539" lon="4.78128">
        <ele>402.7</ele>
        <time>2013-03-10T08:44:10.56Z</time>
      </trkpt>
      <trkpt lat="45.86542" lon="4.78126">
        <ele>401.8</ele>
        <time>2013-03-10T08:44:11.66Z</time>
      </trkpt>
      <trkpt lat="45.86549" lon="4.78124">
        <ele>400</ele>
        <time>2013-03-10T08:44:13.56Z</time>
      </trkpt>
      <trkpt lat="45.86553" lon="4.78124">
        <ele>399</ele>
        <time>2013-03-10T08:44:14.66Z</time>
      </trkpt>
      <trkpt lat="45.8656" lon="4.78123">
        <ele>397.3</ele>
        <time>2013-03-10T08:44:16.64Z</time>
      </trkpt>
      <trkpt lat="45.86563" lon="4.78122">
        <ele>396.4</ele>
        <time>2013-03-10T08:44:17.71Z</time>
      </trkpt>
      <trkpt lat="45.8657" lon="4.78118">
        <ele>394.7</ele>
        <time>2013-03-10T08:44:19.56Z</time>
      </trkpt>
      <trkpt lat="45.86573" lon="4.78117">
        <ele>394.2</ele>
        <time>2013-03-10T08:44:20.66Z</time>
      </trkpt>
      <trkpt lat="45.86577" lon="4.78116">
        <ele>393.1</ele>
        <time>2013-03-10T08:44:22.66Z</time>
      </trkpt>
      <trkpt lat="45.86579" lon="4.78114">
        <ele>392.7</ele>
        <time>2013-03-10T08:44:23.56Z</time>
      </trkpt>
      <trkpt lat="45.86581" lon="4.78111">
        <ele>392.4</ele>
        <time>2013-03-10T08:44:24.66Z</time>
      </trkpt>
      <trkpt lat="45.86586" lon="4.78103">
        <ele>390.2</ele>
        <time>2013-03-10T08:44:26.66Z</time>
      </trkpt>
      <trkpt lat="45.86589" lon="4.78101">
        <ele>389.1</ele>
        <time>2013-03-10T08:44:27.56Z</time>
      </trkpt>
      <trkpt lat="45.86591" lon="4.78099">
        <ele>388.2</ele>
        <time>2013-03-10T08:44:28.66Z</time>
      </trkpt>
      <trkpt lat="45.86598" lon="4.78097">
        <ele>386.2</ele>
        <time>2013-03-10T08:44:30.66Z</time>
      </trkpt>
      <trkpt lat="45.86604" lon="4.78098">
        <ele>384.6</ele>
        <time>2013-03-10T08:44:32.66Z</time>
      </trkpt>
      <trkpt lat="45.86608" lon="4.781">
        <ele>383.7</ele>
        <time>2013-03-10T08:44:33.57Z</time>
      </trkpt>
      <trkpt lat="45.86612" lon="4.78101">
        <ele>382.8</ele>
        <time>2013-03-10T08:44:34.56Z</time>
      </trkpt>
      <trkpt lat="45.86615" lon="4.781">
        <ele>381.6</ele>
        <time>2013-03-10T08:44:35.66Z</time>
      </trkpt>
      <trkpt lat="45.86622" lon="4.78098">
        <ele>379.4</ele>
        <time>2013-03-10T08:44:37.64Z</time>
      </trkpt>
      <trkpt lat="45.86624" lon="4.78096">
        <ele>378.4</ele>
        <time>2013-03-10T08:44:38.56Z</time>
      </trkpt>
      <trkpt lat="45.86626" lon="4.78094">
        <ele>377.6</ele>
        <time>2013-03-10T08:44:39.66Z</time>
      </trkpt>
      <trkpt lat="45.86628" lon="4.78094">
        <ele>377</ele>
        <time>2013-03-10T08:44:40.56Z</time>
      </trkpt>
      <trkpt lat="45.86631" lon="4.78093">
        <ele>376</ele>
        <time>2013-03-10T08:44:41.66Z</time>
      </trkpt>
      <trkpt lat="45.86634" lon="4.78093">
        <ele>375.3</ele>
        <time>2013-03-10T08:44:42.56Z</time>
      </trkpt>
      <trkpt lat="45.86636" lon="4.78093">
        <ele>374.5</ele>
        <time>2013-03-10T08:44:43.67Z</time>
      </trkpt>
      <trkpt lat="45.86642" lon="4.78093">
        <ele>373</ele>
        <time>2013-03-10T08:44:45.56Z</time>
      </trkpt>
      <trkpt lat="45.86645" lon="4.78091">
        <ele>372.1</ele>
        <time>2013-03-10T08:44:46.65Z</time>
      </trkpt>
      <trkpt lat="45.86652" lon="4.78089">
        <ele>370.5</ele>
        <time>2013-03-10T08:44:48.65Z</time>
      </trkpt>
      <trkpt lat="45.86658" lon="4.78088">
        <ele>369</ele>
        <time>2013-03-10T08:44:50.57Z</time>
      </trkpt>
      <trkpt lat="45.86661" lon="4.78087">
        <ele>368.4</ele>
        <time>2013-03-10T08:44:51.63Z</time>
      </trkpt>
      <trkpt lat="45.86664" lon="4.78087">
        <ele>367.6</ele>
        <time>2013-03-10T08:44:52.56Z</time>
      </trkpt>
      <trkpt lat="45.86668" lon="4.78088">
        <ele>366.9</ele>
        <time>2013-03-10T08:44:53.66Z</time>
      </trkpt>
      <trkpt lat="45.86675" lon="4.7809">
        <ele>365.2</ele>
        <time>2013-03-10T08:44:55.56Z</time>
      </trkpt>
      <trkpt lat="45.86677" lon="4.7809">
        <ele>364.6</ele>
        <time>2013-03-10T08:44:56.65Z</time>
      </trkpt>
      <trkpt lat="45.86679" lon="4.7809">
        <ele>364</ele>
        <time>2013-03-10T08:44:57.56Z</time>
      </trkpt>
      <trkpt lat="45.86681" lon="4.78091">
        <ele>363.5</ele>
        <time>2013-03-10T08:44:58.67Z</time>
      </trkpt>
      <trkpt lat="45.86688" lon="4.78092">
        <ele>401.2</ele>
        <time>2013-03-10T08:45:00.56Z</time>
      </trkpt>
      <trkpt lat="45.86692" lon="4.78092">
        <ele>360.6</ele>
        <time>2013-03-10T08:45:01.65Z</time>
      </trkpt>
      <trkpt lat="45.86697" lon="4.78091">
        <ele>359.5</ele>
        <time>2013-03-10T08:45:02.57Z</time>
      </trkpt>
      <trkpt lat="45.867" lon="4.78091">
        <ele>358.5</ele>
        <time>2013-03-10T08:45:03.65Z</time>
      </trkpt>
      <trkpt lat="45.86708" lon="4.7809">
        <ele>356.6</ele>
        <time>2013-03-10T08:45:05.65Z</time>
      </trkpt>
      <trkpt lat="45.86712" lon="4.78089">
        <ele>355.6</ele>
        <time>2013-03-10T08:45:06.56Z</time>
      </trkpt>
      <trkpt lat="45.86716" lon="4.78089">
        <ele>354.6</ele>
        <time>2013-03-10T08:45:07.65Z</time>
      </trkpt>
      <trkpt lat="45.8672" lon="4.78087">
        <ele>353.6</ele>
        <time>2013-03-10T08:45:08.56Z</time>
      </trkpt>
      <trkpt lat="45.86724" lon="4.78087">
        <ele>352.6</ele>
        <time>2013-03-10T08:45:09.65Z</time>
      </trkpt>
      <trkpt lat="45.86727" lon="4.78087">
        <ele>351.9</ele>
        <time>2013-03-10T08:45:10.56Z</time>
      </trkpt>
      <trkpt lat="45.8673" lon="4.78088">
        <ele>351.2</ele>
        <time>2013-03-10T08:45:11.65Z</time>
      </trkpt>
      <trkpt lat="45.86733" lon="4.78089">
        <ele>350.6</ele>
        <time>2013-03-10T08:45:12.56Z</time>
      </trkpt>
      <trkpt lat="45.86735" lon="4.78089">
        <ele>350.2</ele>
        <time>2013-03-10T08:45:13.65Z</time>
      </trkpt>
      <trkpt lat="45.86739" lon="4.7809">
        <ele>349.1</ele>
        <time>2013-03-10T08:45:15.65Z</time>
      </trkpt>
      <trkpt lat="45.86743" lon="4.78092">
        <ele>348</ele>
        <time>2013-03-10T08:45:17.56Z</time>
      </trkpt>
      <trkpt lat="45.86746" lon="4.78093">
        <ele>347.4</ele>
        <time>2013-03-10T08:45:18.67Z</time>
      </trkpt>
      <trkpt lat="45.8675" lon="4.78094">
        <ele>346.1</ele>
        <time>2013-03-10T08:45:20.65Z</time>
      </trkpt>
      <trkpt lat="45.86754" lon="4.78095">
        <ele>345.2</ele>
        <time>2013-03-10T08:45:21.56Z</time>
      </trkpt>
      <trkpt lat="45.86757" lon="4.78096">
        <ele>344.3</ele>
        <time>2013-03-10T08:45:22.65Z</time>
      </trkpt>
      <trkpt lat="45.8676" lon="4.78096">
        <ele>343.5</ele>
        <time>2013-03-10T08:45:23.56Z</time>
      </trkpt>
      <trkpt lat="45.86763" lon="4.78095">
        <ele>342.8</ele>
        <time>2013-03-10T08:45:24.65Z</time>
      </trkpt>
      <trkpt lat="45.86766" lon="4.78095">
        <ele>341.8</ele>
        <time>2013-03-10T08:45:25.56Z</time>
      </trkpt>
      <trkpt lat="45.86769" lon="4.78096">
        <ele>340.9</ele>
        <time>2013-03-10T08:45:26.65Z</time>
      </trkpt>
      <trkpt lat="45.86776" lon="4.78095">
        <ele>339.3</ele>
        <time>2013-03-10T08:45:28.66Z</time>
      </trkpt>
      <trkpt lat="45.86781" lon="4.78092">
        <ele>338.2</ele>
        <time>2013-03-10T08:45:30.64Z</time>
      </trkpt>
      <trkpt lat="45.86783" lon="4.78091">
        <ele>337.9</ele>
        <time>2013-03-10T08:45:31.56Z</time>
      </trkpt>
      <trkpt lat="45.86786" lon="4.78089">
        <ele>337.4</ele>
        <time>2013-03-10T08:45:32.64Z</time>
      </trkpt>
      <trkpt lat="45.86789" lon="4.78089">
        <ele>336.6</ele>
        <time>2013-03-10T08:45:33.57Z</time>
      </trkpt>
      <trkpt lat="45.86792" lon="4.78089">
        <ele>335.8</ele>
        <time>2013-03-10T08:45:34.64Z</time>
      </trkpt>
      <trkpt lat="45.86799" lon="4.78088">
        <ele>334.4</ele>
        <time>2013-03-10T08:45:36.64Z</time>
      </trkpt>
      <trkpt lat="45.86802" lon="4.78087">
        <ele>333.7</ele>
        <time>2013-03-10T08:45:37.56Z</time>
      </trkpt>
      <trkpt lat="45.86805" lon="4.78087">
        <ele>333</ele>
        <time>2013-03-10T08:45:38.68Z</time>
      </trkpt>
      <trkpt lat="45.8681" lon="4.7809">
        <ele>332.1</ele>
        <time>2013-03-10T08:45:40.64Z</time>
      </trkpt>
      <trkpt lat="45.86813" lon="4.78091">
        <ele>331.7</ele>
        <time>2013-03-10T08:45:41.57Z</time>
      </trkpt>
      <trkpt lat="45.86815" lon="4.78092">
        <ele>331.4</ele>
        <time>2013-03-10T08:45:42.64Z</time>
      </trkpt>
      <trkpt lat="45.86817" lon="4.78093">
        <ele>331.1</ele>
        <time>2013-03-10T08:45:43.56Z</time>
      </trkpt>
      <trkpt lat="45.86819" lon="4.78093">
        <ele>330.9</ele>
        <time>2013-03-10T08:45:44.64Z</time>
      </trkpt>
      <trkpt lat="45.86822" lon="4.78092">
        <ele>330.6</ele>
        <time>2013-03-10T08:45:45.56Z</time>
      </trkpt>
      <trkpt lat="45.86824" lon="4.78092">
        <ele>330.3</ele>
        <time>2013-03-10T08:45:46.64Z</time>
      </trkpt>
      <trkpt lat="45.86826" lon="4.78094">
        <ele>330</ele>
        <time>2013-03-10T08:45:47.56Z</time>
      </trkpt>
      <trkpt lat="45.86826" lon="4.78097">
        <ele>329.8</ele>
        <time>2013-03-10T08:45:48.66Z</time>
      </trkpt>
      <trkpt lat="45.86822" lon="4.78103">
        <ele>329.8</ele>
        <time>2013-03-10T08:45:50.59Z</time>
      </trkpt>
      <trkpt lat="45.8682" lon="4.78106">
        <ele>329.9</ele>
        <time>2013-03-10T08:45:51.56Z</time>
      </trkpt>
      <trkpt lat="45.86817" lon="4.78109">
        <ele>329.9</ele>
        <time>2013-03-10T08:45:52.64Z</time>
      </trkpt>
      <trkpt lat="45.86813" lon="4.78112">
        <ele>329.9</ele>
        <time>2013-03-10T08:45:53.56Z</time>
      </trkpt>
      <trkpt lat="45.8681" lon="4.78116">
        <ele>329.3</ele>
        <time>2013-03-10T08:45:54.64Z</time>
      </trkpt>
      <trkpt lat="45.86807" lon="4.78121">
        <ele>328.5</ele>
        <time>2013-03-10T08:45:55.56Z</time>
      </trkpt>
      <trkpt lat="45.86805" lon="4.78127">
        <ele>327.2</ele>
        <time>2013-03-10T08:45:56.7Z</time>
      </trkpt>
      <trkpt lat="45.86798" lon="4.78135">
        <ele>326.5</ele>
        <time>2013-03-10T08:45:58.56Z</time>
      </trkpt>
      <trkpt lat="45.86795" lon="4.78138">
        <ele>353.9</ele>
        <time>2013-03-10T08:45:59.68Z</time>
      </trkpt>
      <trkpt lat="45.86789" lon="4.78146">
        <ele>325</ele>
        <time>2013-03-10T08:46:01.64Z</time>
      </trkpt>
      <trkpt lat="45.86782" lon="4.78153">
        <ele>323.8</ele>
        <time>2013-03-10T08:46:03.66Z</time>
      </trkpt>
      <trkpt lat="45.86776" lon="4.7816">
        <ele>322.4</ele>
        <time>2013-03-10T08:46:05.56Z</time>
      </trkpt>
      <trkpt lat="45.86773" lon="4.78163">
        <ele>322.1</ele>
        <time>2013-03-10T08:46:06.56Z</time>
      </trkpt>
      <trkpt lat="45.86771" lon="4.78165">
        <ele>321.7</ele>
        <time>2013-03-10T08:46:07.56Z</time>
      </trkpt>
      <trkpt lat="45.86769" lon="4.78169">
        <ele>321</ele>
        <time>2013-03-10T08:46:08.56Z</time>
      </trkpt>
      <trkpt lat="45.86766" lon="4.78172">
        <ele>320.7</ele>
        <time>2013-03-10T08:46:09.56Z</time>
      </trkpt>
      <trkpt lat="45.86763" lon="4.78175">
        <ele>320.3</ele>
        <time>2013-03-10T08:46:10.56Z</time>
      </trkpt>
      <trkpt lat="45.8676" lon="4.78177">
        <ele>319.9</ele>
        <time>2013-03-10T08:46:11.56Z</time>
      </trkpt>
      <trkpt lat="45.86757" lon="4.7818">
        <ele>319.5</ele>
        <time>2013-03-10T08:46:12.56Z</time>
      </trkpt>
      <trkpt lat="45.86755" lon="4.78182">
        <ele>319</ele>
        <time>2013-03-10T08:46:13.56Z</time>
      </trkpt>
      <trkpt lat="45.86754" lon="4.78184">
        <ele>318.7</ele>
        <time>2013-03-10T08:46:14.63Z</time>
      </trkpt>
      <trkpt lat="45.86752" lon="4.78186">
        <ele>318.4</ele>
        <time>2013-03-10T08:46:15.63Z</time>
      </trkpt>
      <trkpt lat="45.8675" lon="4.78189">
        <ele>317.8</ele>
        <time>2013-03-10T08:46:16.59Z</time>
      </trkpt>
      <trkpt lat="45.86747" lon="4.78191">
        <ele>317.6</ele>
        <time>2013-03-10T08:46:17.63Z</time>
      </trkpt>
      <trkpt lat="45.86745" lon="4.78193">
        <ele>317.6</ele>
        <time>2013-03-10T08:46:18.73Z</time>
      </trkpt>
      <trkpt lat="45.86739" lon="4.78199">
        <ele>317.6</ele>
        <time>2013-03-10T08:46:20.56Z</time>
      </trkpt>
      <trkpt lat="45.86737" lon="4.78204">
        <ele>317.4</ele>
        <time>2013-03-10T08:46:21.56Z</time>
      </trkpt>
      <trkpt lat="45.86733" lon="4.78208">
        <ele>317.3</ele>
        <time>2013-03-10T08:46:22.56Z</time>
      </trkpt>
      <trkpt lat="45.8673" lon="4.78211">
        <ele>317.2</ele>
        <time>2013-03-10T08:46:23.56Z</time>
      </trkpt>
      <trkpt lat="45.86726" lon="4.78215">
        <ele>317</ele>
        <time>2013-03-10T08:46:24.56Z</time>
      </trkpt>
      <trkpt lat="45.86722" lon="4.78219">
        <ele>316.7</ele>
        <time>2013-03-10T08:46:25.56Z</time>
      </trkpt>
      <trkpt lat="45.86719" lon="4.78222">
        <ele>316.8</ele>
        <time>2013-03-10T08:46:26.56Z</time>
      </trkpt>
      <trkpt lat="45.86715" lon="4.78227">
        <ele>317.4</ele>
        <time>2013-03-10T08:46:27.56Z</time>
      </trkpt>
      <trkpt lat="45.86712" lon="4.78232">
        <ele>317.9</ele>
        <time>2013-03-10T08:46:28.56Z</time>
      </trkpt>
      <trkpt lat="45.86708" lon="4.78236">
        <ele>318.5</ele>
        <time>2013-03-10T08:46:29.56Z</time>
      </trkpt>
      <trkpt lat="45.86705" lon="4.7824">
        <ele>319</ele>
        <time>2013-03-10T08:46:30.56Z</time>
      </trkpt>
      <trkpt lat="45.86701" lon="4.78242">
        <ele>319.5</ele>
        <time>2013-03-10T08:46:31.56Z</time>
      </trkpt>
      <trkpt lat="45.86697" lon="4.78244">
        <ele>320</ele>
        <time>2013-03-10T08:46:32.56Z</time>
      </trkpt>
      <trkpt lat="45.86693" lon="4.78246">
        <ele>320.5</ele>
        <time>2013-03-10T08:46:33.57Z</time>
      </trkpt>
      <trkpt lat="45.8669" lon="4.78249">
        <ele>320.7</ele>
        <time>2013-03-10T08:46:34.63Z</time>
      </trkpt>
      <trkpt lat="45.86687" lon="4.78251">
        <ele>321.1</ele>
        <time>2013-03-10T08:46:35.63Z</time>
      </trkpt>
      <trkpt lat="45.8668" lon="4.78257">
        <ele>322.1</ele>
        <time>2013-03-10T08:46:37.61Z</time>
      </trkpt>
      <trkpt lat="45.86676" lon="4.78259">
        <ele>322.5</ele>
        <time>2013-03-10T08:46:38.66Z</time>
      </trkpt>
      <trkpt lat="45.86671" lon="4.78263">
        <ele>323</ele>
        <time>2013-03-10T08:46:40.56Z</time>
      </trkpt>
      <trkpt lat="45.86669" lon="4.78263">
        <ele>323.2</ele>
        <time>2013-03-10T08:46:41.57Z</time>
      </trkpt>
      <trkpt lat="45.86668" lon="4.78263">
        <ele>323.4</ele>
        <time>2013-03-10T08:46:42.56Z</time>
      </trkpt>
      <trkpt lat="45.86666" lon="4.78263">
        <ele>323.6</ele>
        <time>2013-03-10T08:46:43.56Z</time>
      </trkpt>
      <trkpt lat="45.86664" lon="4.78264">
        <ele>324</ele>
        <time>2013-03-10T08:46:44.56Z</time>
      </trkpt>
      <trkpt lat="45.86662" lon="4.78265">
        <ele>324.4</ele>
        <time>2013-03-10T08:46:45.56Z</time>
      </trkpt>
      <trkpt lat="45.8666" lon="4.78266">
        <ele>324.8</ele>
        <time>2013-03-10T08:46:46.56Z</time>
      </trkpt>
      <trkpt lat="45.86658" lon="4.78268">
        <ele>325.2</ele>
        <time>2013-03-10T08:46:47.56Z</time>
      </trkpt>
      <trkpt lat="45.86655" lon="4.7827">
        <ele>325.4</ele>
        <time>2013-03-10T08:46:48.56Z</time>
      </trkpt>
      <trkpt lat="45.86652" lon="4.78273">
        <ele>325.7</ele>
        <time>2013-03-10T08:46:49.61Z</time>
      </trkpt>
      <trkpt lat="45.86649" lon="4.78275">
        <ele>325.9</ele>
        <time>2013-03-10T08:46:50.58Z</time>
      </trkpt>
      <trkpt lat="45.86647" lon="4.78276">
        <ele>326</ele>
        <time>2013-03-10T08:46:51.63Z</time>
      </trkpt>
      <trkpt lat="45.86643" lon="4.78279">
        <ele>326.4</ele>
        <time>2013-03-10T08:46:53.72Z</time>
      </trkpt>
      <trkpt lat="45.86639" lon="4.78282">
        <ele>327</ele>
        <time>2013-03-10T08:46:55.56Z</time>
      </trkpt>
      <trkpt lat="45.86637" lon="4.78283">
        <ele>327.3</ele>
        <time>2013-03-10T08:46:56.56Z</time>
      </trkpt>
      <trkpt lat="45.86635" lon="4.78283">
        <ele>327.7</ele>
        <time>2013-03-10T08:46:57.56Z</time>
      </trkpt>
      <trkpt lat="45.86632" lon="4.78283">
        <ele>328.2</ele>
        <time>2013-03-10T08:46:58.56Z</time>
      </trkpt>
      <trkpt lat="45.86629" lon="4.78284">
        <ele>346.5</ele>
        <time>2013-03-10T08:46:59.59Z</time>
      </trkpt>
      <trkpt lat="45.86626" lon="4.78287">
        <ele>329.2</ele>
        <time>2013-03-10T08:47:01.56Z</time>
      </trkpt>
      <trkpt lat="45.86624" lon="4.78288">
        <ele>329.5</ele>
        <time>2013-03-10T08:47:02.56Z</time>
      </trkpt>
      <trkpt lat="45.86622" lon="4.78289">
        <ele>329.8</ele>
        <time>2013-03-10T08:47:04.56Z</time>
      </trkpt>
      <trkpt lat="45.86621" lon="4.78291">
        <ele>329.9</ele>
        <time>2013-03-10T08:47:05.56Z</time>
      </trkpt>
      <trkpt lat="45.8662" lon="4.78293">
        <ele>330</ele>
        <time>2013-03-10T08:47:06.56Z</time>
      </trkpt>
      <trkpt lat="45.8662" lon="4.78294">
        <ele>330</ele>
        <time>2013-03-10T08:47:07.56Z</time>
      </trkpt>
      <trkpt lat="45.86619" lon="4.78295">
        <ele>330.1</ele>
        <time>2013-03-10T08:47:08.56Z</time>
      </trkpt>
      <trkpt lat="45.86619" lon="4.78297">
        <ele>330.1</ele>
        <time>2013-03-10T08:47:09.56Z</time>
      </trkpt>
      <trkpt lat="45.86618" lon="4.78298">
        <ele>330.3</ele>
        <time>2013-03-10T08:47:10.56Z</time>
      </trkpt>
      <trkpt lat="45.86616" lon="4.783">
        <ele>330.4</ele>
        <time>2013-03-10T08:47:11.56Z</time>
      </trkpt>
      <trkpt lat="45.86615" lon="4.78302">
        <ele>330.6</ele>
        <time>2013-03-10T08:47:12.62Z</time>
      </trkpt>
      <trkpt lat="45.86613" lon="4.78305">
        <ele>330.8</ele>
        <time>2013-03-10T08:47:13.66Z</time>
      </trkpt>
      <trkpt lat="45.86608" lon="4.78312">
        <ele>331.8</ele>
        <time>2013-03-10T08:47:15.56Z</time>
      </trkpt>
      <trkpt lat="45.86607" lon="4.78313">
        <ele>332.2</ele>
        <time>2013-03-10T08:47:16.57Z</time>
      </trkpt>
      <trkpt lat="45.86605" lon="4.78315">
        <ele>332.5</ele>
        <time>2013-03-10T08:47:17.62Z</time>
      </trkpt>
      <trkpt lat="45.86604" lon="4.78317">
        <ele>332.8</ele>
        <time>2013-03-10T08:47:18.65Z</time>
      </trkpt>
      <trkpt lat="45.86601" lon="4.7832">
        <ele>333.2</ele>
        <time>2013-03-10T08:47:20.56Z</time>
      </trkpt>
      <trkpt lat="45.866" lon="4.78322">
        <ele>333.4</ele>
        <time>2013-03-10T08:47:21.56Z</time>
      </trkpt>
      <trkpt lat="45.866" lon="4.78324">
        <ele>333.4</ele>
        <time>2013-03-10T08:47:22.56Z</time>
      </trkpt>
      <trkpt lat="45.866" lon="4.78325">
        <ele>333.4</ele>
        <time>2013-03-10T08:47:23.56Z</time>
      </trkpt>
      <trkpt lat="45.86599" lon="4.78328">
        <ele>333.5</ele>
        <time>2013-03-10T08:47:25.62Z</time>
      </trkpt>
      <trkpt lat="45.86598" lon="4.7833">
        <ele>333.5</ele>
        <time>2013-03-10T08:47:26.62Z</time>
      </trkpt>
      <trkpt lat="45.86597" lon="4.78333">
        <ele>333.6</ele>
        <time>2013-03-10T08:47:27.62Z</time>
      </trkpt>
      <trkpt lat="45.86595" lon="4.78334">
        <ele>333.8</ele>
        <time>2013-03-10T08:47:28.73Z</time>
      </trkpt>
      <trkpt lat="45.86592" lon="4.78337">
        <ele>334.3</ele>
        <time>2013-03-10T08:47:30.56Z</time>
      </trkpt>
      <trkpt lat="45.8659" lon="4.7834">
        <ele>334.6</ele>
        <time>2013-03-10T08:47:31.56Z</time>
      </trkpt>
      <trkpt lat="45.86588" lon="4.78341">
        <ele>334.8</ele>
        <time>2013-03-10T08:47:32.56Z</time>
      </trkpt>
      <trkpt lat="45.86586" lon="4.78342">
        <ele>335</ele>
        <time>2013-03-10T08:47:34.61Z</time>
      </trkpt>
      <trkpt lat="45.86584" lon="4.78343">
        <ele>335.3</ele>
        <time>2013-03-10T08:47:35.61Z</time>
      </trkpt>
      <trkpt lat="45.86581" lon="4.78345">
        <ele>335.9</ele>
        <time>2013-03-10T08:47:36.59Z</time>
      </trkpt>
      <trkpt lat="45.86579" lon="4.78347">
        <ele>336.4</ele>
        <time>2013-03-10T08:47:37.61Z</time>
      </trkpt>
      <trkpt lat="45.86577" lon="4.78349">
        <ele>336.8</ele>
        <time>2013-03-10T08:47:38.65Z</time>
      </trkpt>
      <trkpt lat="45.86573" lon="4.78354">
        <ele>337.5</ele>
        <time>2013-03-10T08:47:40.61Z</time>
      </trkpt>
      <trkpt lat="45.86571" lon="4.78357">
        <ele>337.8</ele>
        <time>2013-03-10T08:47:41.61Z</time>
      </trkpt>
      <trkpt lat="45.86569" lon="4.78359">
        <ele>338.1</ele>
        <time>2013-03-10T08:47:42.61Z</time>
      </trkpt>
      <trkpt lat="45.86567" lon="4.7836">
        <ele>338.4</ele>
        <time>2013-03-10T08:47:43.65Z</time>
      </trkpt>
      <trkpt lat="45.86563" lon="4.78362">
        <ele>339</ele>
        <time>2013-03-10T08:47:45.56Z</time>
      </trkpt>
      <trkpt lat="45.86561" lon="4.78363">
        <ele>339.4</ele>
        <time>2013-03-10T08:47:46.61Z</time>
      </trkpt>
      <trkpt lat="45.8656" lon="4.78365">
        <ele>339.8</ele>
        <time>2013-03-10T08:47:48.66Z</time>
      </trkpt>
      <trkpt lat="45.8656" lon="4.78368">
        <ele>340.3</ele>
        <time>2013-03-10T08:47:50.57Z</time>
      </trkpt>
      <trkpt lat="45.8656" lon="4.7837">
        <ele>340.5</ele>
        <time>2013-03-10T08:47:52.56Z</time>
      </trkpt>
      <trkpt lat="45.86561" lon="4.78371">
        <ele>340.5</ele>
        <time>2013-03-10T08:47:53.57Z</time>
      </trkpt>
      <trkpt lat="45.86562" lon="4.78372">
        <ele>340.5</ele>
        <time>2013-03-10T08:47:54.56Z</time>
      </trkpt>
      <trkpt lat="45.8656" lon="4.78374">
        <ele>341</ele>
        <time>2013-03-10T08:47:56.56Z</time>
      </trkpt>
      <trkpt lat="45.86558" lon="4.78374">
        <ele>341.2</ele>
        <time>2013-03-10T08:47:57.56Z</time>
      </trkpt>
      <trkpt lat="45.86556" lon="4.78375">
        <ele>341.5</ele>
        <time>2013-03-10T08:47:58.56Z</time>
      </trkpt>
      <trkpt lat="45.86553" lon="4.78376">
        <ele>361.3</ele>
        <time>2013-03-10T08:47:59.59Z</time>
      </trkpt>
      <trkpt lat="45.8655" lon="4.78378">
        <ele>342.4</ele>
        <time>2013-03-10T08:48:00.61Z</time>
      </trkpt>
      <trkpt lat="45.86547" lon="4.78379">
        <ele>342.9</ele>
        <time>2013-03-10T08:48:01.61Z</time>
      </trkpt>
      <trkpt lat="45.86544" lon="4.7838">
        <ele>343.2</ele>
        <time>2013-03-10T08:48:02.61Z</time>
      </trkpt>
      <trkpt lat="45.86542" lon="4.78382">
        <ele>343.6</ele>
        <time>2013-03-10T08:48:03.72Z</time>
      </trkpt>
      <trkpt lat="45.86539" lon="4.78384">
        <ele>344</ele>
        <time>2013-03-10T08:48:05.61Z</time>
      </trkpt>
      <trkpt lat="45.86537" lon="4.78385">
        <ele>344.2</ele>
        <time>2013-03-10T08:48:06.61Z</time>
      </trkpt>
      <trkpt lat="45.86535" lon="4.78386">
        <ele>344.4</ele>
        <time>2013-03-10T08:48:07.61Z</time>
      </trkpt>
      <trkpt lat="45.86533" lon="4.78386">
        <ele>344.6</ele>
        <time>2013-03-10T08:48:08.67Z</time>
      </trkpt>
      <trkpt lat="45.86529" lon="4.78388">
        <ele>344.9</ele>
        <time>2013-03-10T08:48:10.63Z</time>
      </trkpt>
      <trkpt lat="45.86526" lon="4.78391">
        <ele>345.7</ele>
        <time>2013-03-10T08:48:12.6Z</time>
      </trkpt>
      <trkpt lat="45.86525" lon="4.78394">
        <ele>346.3</ele>
        <time>2013-03-10T08:48:13.73Z</time>
      </trkpt>
      <trkpt lat="45.8652" lon="4.78399">
        <ele>347.8</ele>
        <time>2013-03-10T08:48:15.6Z</time>
      </trkpt>
      <trkpt lat="45.86517" lon="4.78401">
        <ele>348.5</ele>
        <time>2013-03-10T08:48:16.67Z</time>
      </trkpt>
      <trkpt lat="45.86513" lon="4.78405">
        <ele>349.4</ele>
        <time>2013-03-10T08:48:18.56Z</time>
      </trkpt>
      <trkpt lat="45.8651" lon="4.78406">
        <ele>349.8</ele>
        <time>2013-03-10T08:48:19.6Z</time>
      </trkpt>
      <trkpt lat="45.86508" lon="4.78407">
        <ele>350.1</ele>
        <time>2013-03-10T08:48:20.6Z</time>
      </trkpt>
      <trkpt lat="45.86506" lon="4.78409">
        <ele>350.5</ele>
        <time>2013-03-10T08:48:21.6Z</time>
      </trkpt>
      <trkpt lat="45.86505" lon="4.78409">
        <ele>350.6</ele>
        <time>2013-03-10T08:48:22.62Z</time>
      </trkpt>
      <trkpt lat="45.86502" lon="4.78408">
        <ele>350.6</ele>
        <time>2013-03-10T08:48:24.56Z</time>
      </trkpt>
      <trkpt lat="45.865" lon="4.78407">
        <ele>350.7</ele>
        <time>2013-03-10T08:48:25.6Z</time>
      </trkpt>
      <trkpt lat="45.86499" lon="4.78407">
        <ele>350.8</ele>
        <time>2013-03-10T08:48:26.6Z</time>
      </trkpt>
      <trkpt lat="45.86497" lon="4.78407">
        <ele>350.9</ele>
        <time>2013-03-10T08:48:27.6Z</time>
      </trkpt>
      <trkpt lat="45.86495" lon="4.78407">
        <ele>351.3</ele>
        <time>2013-03-10T08:48:28.66Z</time>
      </trkpt>
      <trkpt lat="45.86491" lon="4.78407">
        <ele>352</ele>
        <time>2013-03-10T08:48:30.56Z</time>
      </trkpt>
      <trkpt lat="45.86488" lon="4.78407">
        <ele>352.3</ele>
        <time>2013-03-10T08:48:31.56Z</time>
      </trkpt>
      <trkpt lat="45.86486" lon="4.78407">
        <ele>352.7</ele>
        <time>2013-03-10T08:48:32.56Z</time>
      </trkpt>
      <trkpt lat="45.86484" lon="4.78408">
        <ele>353</ele>
        <time>2013-03-10T08:48:33.57Z</time>
      </trkpt>
      <trkpt lat="45.86482" lon="4.78409">
        <ele>353.3</ele>
        <time>2013-03-10T08:48:34.6Z</time>
      </trkpt>
      <trkpt lat="45.86481" lon="4.7841">
        <ele>353.6</ele>
        <time>2013-03-10T08:48:35.6Z</time>
      </trkpt>
      <trkpt lat="45.8648" lon="4.78411">
        <ele>353.9</ele>
        <time>2013-03-10T08:48:36.6Z</time>
      </trkpt>
      <trkpt lat="45.86479" lon="4.78413">
        <ele>354.1</ele>
        <time>2013-03-10T08:48:37.6Z</time>
      </trkpt>
      <trkpt lat="45.86477" lon="4.78413">
        <ele>354.3</ele>
        <time>2013-03-10T08:48:38.65Z</time>
      </trkpt>
      <trkpt lat="45.86474" lon="4.78414">
        <ele>354.7</ele>
        <time>2013-03-10T08:48:40.56Z</time>
      </trkpt>
      <trkpt lat="45.86471" lon="4.78414">
        <ele>355</ele>
        <time>2013-03-10T08:48:41.57Z</time>
      </trkpt>
      <trkpt lat="45.8647" lon="4.78414">
        <ele>355.3</ele>
        <time>2013-03-10T08:48:42.56Z</time>
      </trkpt>
      <trkpt lat="45.86468" lon="4.78416">
        <ele>355.7</ele>
        <time>2013-03-10T08:48:43.56Z</time>
      </trkpt>
      <trkpt lat="45.86465" lon="4.78416">
        <ele>356</ele>
        <time>2013-03-10T08:48:44.56Z</time>
      </trkpt>
      <trkpt lat="45.86463" lon="4.78415">
        <ele>356.4</ele>
        <time>2013-03-10T08:48:45.56Z</time>
      </trkpt>
      <trkpt lat="45.86461" lon="4.78415">
        <ele>356.7</ele>
        <time>2013-03-10T08:48:46.56Z</time>
      </trkpt>
      <trkpt lat="45.86458" lon="4.78415">
        <ele>357.1</ele>
        <time>2013-03-10T08:48:47.56Z</time>
      </trkpt>
      <trkpt lat="45.86456" lon="4.78415">
        <ele>357.4</ele>
        <time>2013-03-10T08:48:48.66Z</time>
      </trkpt>
      <trkpt lat="45.86454" lon="4.78416">
        <ele>357.8</ele>
        <time>2013-03-10T08:48:50.57Z</time>
      </trkpt>
      <trkpt lat="45.86452" lon="4.78416">
        <ele>358</ele>
        <time>2013-03-10T08:48:51.6Z</time>
      </trkpt>
      <trkpt lat="45.8645" lon="4.78417">
        <ele>358.3</ele>
        <time>2013-03-10T08:48:52.59Z</time>
      </trkpt>
      <trkpt lat="45.86448" lon="4.78417">
        <ele>358.6</ele>
        <time>2013-03-10T08:48:53.76Z</time>
      </trkpt>
      <trkpt lat="45.86444" lon="4.78417">
        <ele>359.3</ele>
        <time>2013-03-10T08:48:55.59Z</time>
      </trkpt>
      <trkpt lat="45.86442" lon="4.78418">
        <ele>359.8</ele>
        <time>2013-03-10T08:48:56.59Z</time>
      </trkpt>
      <trkpt lat="45.86441" lon="4.78418">
        <ele>360.1</ele>
        <time>2013-03-10T08:48:57.59Z</time>
      </trkpt>
      <trkpt lat="45.8644" lon="4.78419">
        <ele>379.8</ele>
        <time>2013-03-10T08:48:59.74Z</time>
      </trkpt>
      <trkpt lat="45.86438" lon="4.7842">
        <ele>361.1</ele>
        <time>2013-03-10T08:49:01.56Z</time>
      </trkpt>
      <trkpt lat="45.86436" lon="4.78421">
        <ele>361.6</ele>
        <time>2013-03-10T08:49:02.56Z</time>
      </trkpt>
      <trkpt lat="45.86434" lon="4.78422">
        <ele>362.2</ele>
        <time>2013-03-10T08:49:03.57Z</time>
      </trkpt>
      <trkpt lat="45.86432" lon="4.78424">
        <ele>362.9</ele>
        <time>2013-03-10T08:49:04.56Z</time>
      </trkpt>
      <trkpt lat="45.86429" lon="4.78426">
        <ele>363.7</ele>
        <time>2013-03-10T08:49:05.56Z</time>
      </trkpt>
      <trkpt lat="45.86427" lon="4.78428">
        <ele>364.4</ele>
        <time>2013-03-10T08:49:06.56Z</time>
      </trkpt>
      <trkpt lat="45.86425" lon="4.78429">
        <ele>365</ele>
        <time>2013-03-10T08:49:07.56Z</time>
      </trkpt>
      <trkpt lat="45.86423" lon="4.78429">
        <ele>365.3</ele>
        <time>2013-03-10T08:49:08.56Z</time>
      </trkpt>
      <trkpt lat="45.86421" lon="4.78429">
        <ele>365.7</ele>
        <time>2013-03-10T08:49:09.59Z</time>
      </trkpt>
      <trkpt lat="45.86419" lon="4.7843">
        <ele>366.1</ele>
        <time>2013-03-10T08:49:10.57Z</time>
      </trkpt>
      <trkpt lat="45.86417" lon="4.78431">
        <ele>366.6</ele>
        <time>2013-03-10T08:49:11.59Z</time>
      </trkpt>
      <trkpt lat="45.86415" lon="4.7843">
        <ele>367</ele>
        <time>2013-03-10T08:49:13.66Z</time>
      </trkpt>
      <trkpt lat="45.86414" lon="4.78429">
        <ele>367.2</ele>
        <time>2013-03-10T08:49:15.56Z</time>
      </trkpt>
      <trkpt lat="45.86413" lon="4.7843">
        <ele>367.5</ele>
        <time>2013-03-10T08:49:16.57Z</time>
      </trkpt>
      <trkpt lat="45.86411" lon="4.78432">
        <ele>368</ele>
        <time>2013-03-10T08:49:18.56Z</time>
      </trkpt>
      <trkpt lat="45.86409" lon="4.78433">
        <ele>368.6</ele>
        <time>2013-03-10T08:49:20.59Z</time>
      </trkpt>
      <trkpt lat="45.86408" lon="4.78433">
        <ele>368.9</ele>
        <time>2013-03-10T08:49:21.59Z</time>
      </trkpt>
      <trkpt lat="45.86407" lon="4.78432">
        <ele>369.2</ele>
        <time>2013-03-10T08:49:22.59Z</time>
      </trkpt>
      <trkpt lat="45.86405" lon="4.78433">
        <ele>369.7</ele>
        <time>2013-03-10T08:49:23.66Z</time>
      </trkpt>
      <trkpt lat="45.864" lon="4.78434">
        <ele>370.8</ele>
        <time>2013-03-10T08:49:25.59Z</time>
      </trkpt>
      <trkpt lat="45.86398" lon="4.78435">
        <ele>371.3</ele>
        <time>2013-03-10T08:49:26.62Z</time>
      </trkpt>
      <trkpt lat="45.86396" lon="4.78436">
        <ele>371.6</ele>
        <time>2013-03-10T08:49:28.56Z</time>
      </trkpt>
      <trkpt lat="45.86396" lon="4.78438">
        <ele>371.6</ele>
        <time>2013-03-10T08:49:30.59Z</time>
      </trkpt>
      <trkpt lat="45.86394" lon="4.7844">
        <ele>371.7</ele>
        <time>2013-03-10T08:49:32.58Z</time>
      </trkpt>
      <trkpt lat="45.86393" lon="4.7844">
        <ele>371.9</ele>
        <time>2013-03-10T08:49:33.7Z</time>
      </trkpt>
      <trkpt lat="45.8639" lon="4.78443">
        <ele>372</ele>
        <time>2013-03-10T08:49:35.56Z</time>
      </trkpt>
      <trkpt lat="45.86389" lon="4.78445">
        <ele>372.1</ele>
        <time>2013-03-10T08:49:36.56Z</time>
      </trkpt>
      <trkpt lat="45.86388" lon="4.78447">
        <ele>372.7</ele>
        <time>2013-03-10T08:49:37.56Z</time>
      </trkpt>
      <trkpt lat="45.86387" lon="4.78447">
        <ele>373.1</ele>
        <time>2013-03-10T08:49:38.56Z</time>
      </trkpt>
      <trkpt lat="45.86385" lon="4.78447">
        <ele>373.8</ele>
        <time>2013-03-10T08:49:40.58Z</time>
      </trkpt>
      <trkpt lat="45.86383" lon="4.78448">
        <ele>374.5</ele>
        <time>2013-03-10T08:49:41.58Z</time>
      </trkpt>
      <trkpt lat="45.86381" lon="4.78449">
        <ele>375.1</ele>
        <time>2013-03-10T08:49:42.58Z</time>
      </trkpt>
      <trkpt lat="45.8638" lon="4.78449">
        <ele>375.5</ele>
        <time>2013-03-10T08:49:45.58Z</time>
      </trkpt>
      <trkpt lat="45.86379" lon="4.78449">
        <ele>375.8</ele>
        <time>2013-03-10T08:49:46.58Z</time>
      </trkpt>
      <trkpt lat="45.86377" lon="4.7845">
        <ele>376.4</ele>
        <time>2013-03-10T08:49:47.62Z</time>
      </trkpt>
      <trkpt lat="45.86375" lon="4.7845">
        <ele>376.8</ele>
        <time>2013-03-10T08:49:49.66Z</time>
      </trkpt>
      <trkpt lat="45.86374" lon="4.7845">
        <ele>377.1</ele>
        <time>2013-03-10T08:49:50.57Z</time>
      </trkpt>
      <trkpt lat="45.86373" lon="4.7845">
        <ele>377.4</ele>
        <time>2013-03-10T08:49:51.56Z</time>
      </trkpt>
      <trkpt lat="45.86372" lon="4.7845">
        <ele>377.9</ele>
        <time>2013-03-10T08:49:52.56Z</time>
      </trkpt>
      <trkpt lat="45.8637" lon="4.7845">
        <ele>378.3</ele>
        <time>2013-03-10T08:49:53.57Z</time>
      </trkpt>
      <trkpt lat="45.86368" lon="4.78451">
        <ele>378.8</ele>
        <time>2013-03-10T08:49:55.58Z</time>
      </trkpt>
      <trkpt lat="45.86367" lon="4.78451">
        <ele>379.2</ele>
        <time>2013-03-10T08:49:56.58Z</time>
      </trkpt>
      <trkpt lat="45.86367" lon="4.78453">
        <ele>379.2</ele>
        <time>2013-03-10T08:49:58.66Z</time>
      </trkpt>
      <trkpt lat="45.86366" lon="4.78454">
        <ele>396.5</ele>
        <time>2013-03-10T08:50:00.58Z</time>
      </trkpt>
      <trkpt lat="45.86365" lon="4.78455">
        <ele>379.7</ele>
        <time>2013-03-10T08:50:01.63Z</time>
      </trkpt>
      <trkpt lat="45.86363" lon="4.78458">
        <ele>380.1</ele>
        <time>2013-03-10T08:50:03.65Z</time>
      </trkpt>
      <trkpt lat="45.86364" lon="4.78461">
        <ele>379.9</ele>
        <time>2013-03-10T08:50:05.56Z</time>
      </trkpt>
      <trkpt lat="45.86363" lon="4.78463">
        <ele>380.1</ele>
        <time>2013-03-10T08:50:07.56Z</time>
      </trkpt>
      <trkpt lat="45.86361" lon="4.78463">
        <ele>380.3</ele>
        <time>2013-03-10T08:50:08.66Z</time>
      </trkpt>
      <trkpt lat="45.86358" lon="4.78464">
        <ele>381.2</ele>
        <time>2013-03-10T08:50:10.56Z</time>
      </trkpt>
      <trkpt lat="45.86357" lon="4.78464">
        <ele>381.7</ele>
        <time>2013-03-10T08:50:11.56Z</time>
      </trkpt>
      <trkpt lat="45.86356" lon="4.78465">
        <ele>382.1</ele>
        <time>2013-03-10T08:50:12.56Z</time>
      </trkpt>
      <trkpt lat="45.86354" lon="4.78466">
        <ele>382.5</ele>
        <time>2013-03-10T08:50:13.65Z</time>
      </trkpt>
      <trkpt lat="45.86352" lon="4.78467">
        <ele>383.1</ele>
        <time>2013-03-10T08:50:15.56Z</time>
      </trkpt>
      <trkpt lat="45.86351" lon="4.78467">
        <ele>383.5</ele>
        <time>2013-03-10T08:50:17.57Z</time>
      </trkpt>
      <trkpt lat="45.8635" lon="4.78467">
        <ele>384</ele>
        <time>2013-03-10T08:50:18.74Z</time>
      </trkpt>
      <trkpt lat="45.86345" lon="4.78469">
        <ele>385.4</ele>
        <time>2013-03-10T08:50:20.62Z</time>
      </trkpt>
      <trkpt lat="45.86341" lon="4.78473">
        <ele>386.5</ele>
        <time>2013-03-10T08:50:22.56Z</time>
      </trkpt>
      <trkpt lat="45.86339" lon="4.78475">
        <ele>387.1</ele>
        <time>2013-03-10T08:50:23.56Z</time>
      </trkpt>
      <trkpt lat="45.86338" lon="4.78476">
        <ele>387.5</ele>
        <time>2013-03-10T08:50:24.56Z</time>
      </trkpt>
      <trkpt lat="45.86337" lon="4.78477">
        <ele>387.8</ele>
        <time>2013-03-10T08:50:25.56Z</time>
      </trkpt>
      <trkpt lat="45.86336" lon="4.78479">
        <ele>388</ele>
        <time>2013-03-10T08:50:27.57Z</time>
      </trkpt>
      <trkpt lat="45.86336" lon="4.7848">
        <ele>388.1</ele>
        <time>2013-03-10T08:50:29.57Z</time>
      </trkpt>
      <trkpt lat="45.86334" lon="4.7848">
        <ele>388.6</ele>
        <time>2013-03-10T08:50:32.58Z</time>
      </trkpt>
      <trkpt lat="45.86332" lon="4.78481">
        <ele>389.1</ele>
        <time>2013-03-10T08:50:33.69Z</time>
      </trkpt>
      <trkpt lat="45.86328" lon="4.7848">
        <ele>390.2</ele>
        <time>2013-03-10T08:50:35.57Z</time>
      </trkpt>
      <trkpt lat="45.86326" lon="4.78479">
        <ele>390.7</ele>
        <time>2013-03-10T08:50:36.58Z</time>
      </trkpt>
      <trkpt lat="45.86325" lon="4.7848">
        <ele>391.1</ele>
        <time>2013-03-10T08:50:37.62Z</time>
      </trkpt>
      <trkpt lat="45.86322" lon="4.78481">
        <ele>391.7</ele>
        <time>2013-03-10T08:50:39.57Z</time>
      </trkpt>
      <trkpt lat="45.86321" lon="4.78481">
        <ele>392</ele>
        <time>2013-03-10T08:50:40.57Z</time>
      </trkpt>
      <trkpt lat="45.86319" lon="4.78481">
        <ele>392.5</ele>
        <time>2013-03-10T08:50:41.57Z</time>
      </trkpt>
      <trkpt lat="45.86317" lon="4.78481">
        <ele>393.1</ele>
        <time>2013-03-10T08:50:42.57Z</time>
      </trkpt>
      <trkpt lat="45.86315" lon="4.7848">
        <ele>393.5</ele>
        <time>2013-03-10T08:50:43.67Z</time>
      </trkpt>
      <trkpt lat="45.86314" lon="4.78482">
        <ele>393.8</ele>
        <time>2013-03-10T08:50:45.56Z</time>
      </trkpt>
      <trkpt lat="45.86312" lon="4.78481">
        <ele>394.4</ele>
        <time>2013-03-10T08:50:47.58Z</time>
      </trkpt>
      <trkpt lat="45.8631" lon="4.7848">
        <ele>394.9</ele>
        <time>2013-03-10T08:50:48.65Z</time>
      </trkpt>
      <trkpt lat="45.86309" lon="4.7848">
        <ele>395.2</ele>
        <time>2013-03-10T08:50:50.57Z</time>
      </trkpt>
      <trkpt lat="45.86307" lon="4.78481">
        <ele>395.6</ele>
        <time>2013-03-10T08:50:53.56Z</time>
      </trkpt>
      <trkpt lat="45.86306" lon="4.78481">
        <ele>396.1</ele>
        <time>2013-03-10T08:50:58.74Z</time>
      </trkpt>
      <trkpt lat="45.86305" lon="4.7848">
        <ele>415.1</ele>
        <time>2013-03-10T08:51:00.66Z</time>
      </trkpt>
      <trkpt lat="45.86304" lon="4.78478">
        <ele>396.8</ele>
        <time>2013-03-10T08:51:01.56Z</time>
      </trkpt>
      <trkpt lat="45.86303" lon="4.78477">
        <ele>397.3</ele>
        <time>2013-03-10T08:51:02.66Z</time>
      </trkpt>
      <trkpt lat="45.86301" lon="4.78477">
        <ele>398</ele>
        <time>2013-03-10T08:51:04.56Z</time>
      </trkpt>
      <trkpt lat="45.863" lon="4.78476">
        <ele>398.5</ele>
        <time>2013-03-10T08:51:05.66Z</time>
      </trkpt>
      <trkpt lat="45.86298" lon="4.78476">
        <ele>399.1</ele>
        <time>2013-03-10T08:51:06.56Z</time>
      </trkpt>
      <trkpt lat="45.86296" lon="4.78476">
        <ele>399.6</ele>
        <time>2013-03-10T08:51:07.66Z</time>
      </trkpt>
      <trkpt lat="45.86295" lon="4.78476">
        <ele>399.9</ele>
        <time>2013-03-10T08:51:08.56Z</time>
      </trkpt>
      <trkpt lat="45.86294" lon="4.78474">
        <ele>400.6</ele>
        <time>2013-03-10T08:51:12.56Z</time>
      </trkpt>
      <trkpt lat="45.86293" lon="4.78473">
        <ele>401</ele>
        <time>2013-03-10T08:51:13.67Z</time>
      </trkpt>
      <trkpt lat="45.86293" lon="4.78471">
        <ele>401.3</ele>
        <time>2013-03-10T08:51:15.66Z</time>
      </trkpt>
      <trkpt lat="45.86291" lon="4.78471">
        <ele>401.9</ele>
        <time>2013-03-10T08:51:17.56Z</time>
      </trkpt>
      <trkpt lat="45.8629" lon="4.7847">
        <ele>402.3</ele>
        <time>2013-03-10T08:51:18.66Z</time>
      </trkpt>
      <trkpt lat="45.86288" lon="4.78469">
        <ele>403</ele>
        <time>2013-03-10T08:51:20.66Z</time>
      </trkpt>
      <trkpt lat="45.86287" lon="4.78469">
        <ele>403.2</ele>
        <time>2013-03-10T08:51:22.66Z</time>
      </trkpt>
      <trkpt lat="45.86286" lon="4.7847">
        <ele>403.6</ele>
        <time>2013-03-10T08:51:24.66Z</time>
      </trkpt>
      <trkpt lat="45.86285" lon="4.7847">
        <ele>403.9</ele>
        <time>2013-03-10T08:51:27.56Z</time>
      </trkpt>
      <trkpt lat="45.86286" lon="4.78468">
        <ele>403.8</ele>
        <time>2013-03-10T08:51:31.57Z</time>
      </trkpt>
      <trkpt lat="45.86285" lon="4.7847">
        <ele>403.9</ele>
        <time>2013-03-10T08:51:35.65Z</time>
      </trkpt>
      <trkpt lat="45.86284" lon="4.78471">
        <ele>404.1</ele>
        <time>2013-03-10T08:51:37.65Z</time>
      </trkpt>
      <trkpt lat="45.86284" lon="4.78472">
        <ele>404.1</ele>
        <time>2013-03-10T08:51:39.65Z</time>
      </trkpt>
      <trkpt lat="45.86282" lon="4.78473">
        <ele>404.4</ele>
        <time>2013-03-10T08:51:41.65Z</time>
      </trkpt>
      <trkpt lat="45.86281" lon="4.78475">
        <ele>404.7</ele>
        <time>2013-03-10T08:51:43.68Z</time>
      </trkpt>
      <trkpt lat="45.86281" lon="4.78476">
        <ele>404.8</ele>
        <time>2013-03-10T08:51:45.56Z</time>
      </trkpt>
      <trkpt lat="45.8628" lon="4.78476">
        <ele>405.2</ele>
        <time>2013-03-10T08:51:47.57Z</time>
      </trkpt>
      <trkpt lat="45.86277" lon="4.78475">
        <ele>406.2</ele>
        <time>2013-03-10T08:51:50.6Z</time>
      </trkpt>
      <trkpt lat="45.86276" lon="4.78476">
        <ele>407</ele>
        <time>2013-03-10T08:51:51.56Z</time>
      </trkpt>
      <trkpt lat="45.86275" lon="4.78476">
        <ele>407.5</ele>
        <time>2013-03-10T08:51:52.65Z</time>
      </trkpt>
      <trkpt lat="45.86273" lon="4.78476">
        <ele>408.2</ele>
        <time>2013-03-10T08:51:54.65Z</time>
      </trkpt>
      <trkpt lat="45.86273" lon="4.78478">
        <ele>408.5</ele>
        <time>2013-03-10T08:51:56.65Z</time>
      </trkpt>
      <trkpt lat="45.86272" lon="4.78478">
        <ele>409</ele>
        <time>2013-03-10T08:51:57.57Z</time>
      </trkpt>
      <trkpt lat="45.86271" lon="4.78479">
        <ele>409.3</ele>
        <time>2013-03-10T08:51:58.68Z</time>
      </trkpt>
      <trkpt lat="45.86269" lon="4.78482">
        <ele>421.1</ele>
        <time>2013-03-10T08:52:00.65Z</time>
      </trkpt>
      <trkpt lat="45.86268" lon="4.78482">
        <ele>411.1</ele>
        <time>2013-03-10T08:52:03.56Z</time>
      </trkpt>
      <trkpt lat="45.86266" lon="4.78484">
        <ele>411.7</ele>
        <time>2013-03-10T08:52:05.56Z</time>
      </trkpt>
      <trkpt lat="45.86266" lon="4.78484">
        <ele>412.2</ele>
        <time>2013-03-10T08:52:06.65Z</time>
      </trkpt>
      <trkpt lat="45.86264" lon="4.78484">
        <ele>413.2</ele>
        <time>2013-03-10T08:52:08.67Z</time>
      </trkpt>
      <trkpt lat="45.86263" lon="4.78485">
        <ele>413.8</ele>
        <time>2013-03-10T08:52:10.65Z</time>
      </trkpt>
      <trkpt lat="45.86261" lon="4.78489">
        <ele>414.4</ele>
        <time>2013-03-10T08:52:12.64Z</time>
      </trkpt>
      <trkpt lat="45.86261" lon="4.78491">
        <ele>414.4</ele>
        <time>2013-03-10T08:52:13.56Z</time>
      </trkpt>
      <trkpt lat="45.8626" lon="4.78494">
        <ele>414.5</ele>
        <time>2013-03-10T08:52:14.64Z</time>
      </trkpt>
      <trkpt lat="45.8626" lon="4.78496">
        <ele>414.5</ele>
        <time>2013-03-10T08:52:15.56Z</time>
      </trkpt>
      <trkpt lat="45.86259" lon="4.78498">
        <ele>414.9</ele>
        <time>2013-03-10T08:52:16.6Z</time>
      </trkpt>
      <trkpt lat="45.86259" lon="4.785">
        <ele>415.1</ele>
        <time>2013-03-10T08:52:17.56Z</time>
      </trkpt>
      <trkpt lat="45.86258" lon="4.78502">
        <ele>415.3</ele>
        <time>2013-03-10T08:52:18.66Z</time>
      </trkpt>
      <trkpt lat="45.86257" lon="4.78504">
        <ele>415.6</ele>
        <time>2013-03-10T08:52:20.56Z</time>
      </trkpt>
      <trkpt lat="45.86256" lon="4.78506">
        <ele>415.7</ele>
        <time>2013-03-10T08:52:22.56Z</time>
      </trkpt>
      <trkpt lat="45.86256" lon="4.78507">
        <ele>415.8</ele>
        <time>2013-03-10T08:52:23.67Z</time>
      </trkpt>
      <trkpt lat="45.86254" lon="4.78511">
        <ele>416.2</ele>
        <time>2013-03-10T08:52:25.56Z</time>
      </trkpt>
      <trkpt lat="45.86253" lon="4.78512">
        <ele>416.6</ele>
        <time>2013-03-10T08:52:26.64Z</time>
      </trkpt>
      <trkpt lat="45.86251" lon="4.78512">
        <ele>418</ele>
        <time>2013-03-10T08:52:27.56Z</time>
      </trkpt>
      <trkpt lat="45.86248" lon="4.78512">
        <ele>418.9</ele>
        <time>2013-03-10T08:52:28.66Z</time>
      </trkpt>
      <trkpt lat="45.86244" lon="4.78512">
        <ele>420.4</ele>
        <time>2013-03-10T08:52:30.56Z</time>
      </trkpt>
      <trkpt lat="45.86241" lon="4.78511">
        <ele>421.2</ele>
        <time>2013-03-10T08:52:31.64Z</time>
      </trkpt>
      <trkpt lat="45.8624" lon="4.78512">
        <ele>421.6</ele>
        <time>2013-03-10T08:52:32.56Z</time>
      </trkpt>
      <trkpt lat="45.86238" lon="4.78514">
        <ele>421.9</ele>
        <time>2013-03-10T08:52:33.77Z</time>
      </trkpt>
      <trkpt lat="45.86236" lon="4.78519">
        <ele>422</ele>
        <time>2013-03-10T08:52:35.64Z</time>
      </trkpt>
      <trkpt lat="45.86234" lon="4.7852">
        <ele>422.1</ele>
        <time>2013-03-10T08:52:36.56Z</time>
      </trkpt>
      <trkpt lat="45.86234" lon="4.78522">
        <ele>422.2</ele>
        <time>2013-03-10T08:52:37.64Z</time>
      </trkpt>
      <trkpt lat="45.86232" lon="4.78523">
        <ele>422.4</ele>
        <time>2013-03-10T08:52:38.56Z</time>
      </trkpt>
      <trkpt lat="45.8623" lon="4.78524">
        <ele>423.1</ele>
        <time>2013-03-10T08:52:39.56Z</time>
      </trkpt>
      <trkpt lat="45.86227" lon="4.78525">
        <ele>423.8</ele>
        <time>2013-03-10T08:52:40.64Z</time>
      </trkpt>
      <trkpt lat="45.86225" lon="4.78526">
        <ele>424.5</ele>
        <time>2013-03-10T08:52:41.57Z</time>
      </trkpt>
      <trkpt lat="45.86223" lon="4.78526">
        <ele>425.2</ele>
        <time>2013-03-10T08:52:42.64Z</time>
      </trkpt>
      <trkpt lat="45.8622" lon="4.78526">
        <ele>425.7</ele>
        <time>2013-03-10T08:52:43.56Z</time>
      </trkpt>
      <trkpt lat="45.86218" lon="4.78527">
        <ele>426.1</ele>
        <time>2013-03-10T08:52:44.64Z</time>
      </trkpt>
      <trkpt lat="45.86216" lon="4.78527">
        <ele>426.4</ele>
        <time>2013-03-10T08:52:45.56Z</time>
      </trkpt>
      <trkpt lat="45.86214" lon="4.78527">
        <ele>426.9</ele>
        <time>2013-03-10T08:52:46.64Z</time>
      </trkpt>
      <trkpt lat="45.86212" lon="4.78526">
        <ele>427.5</ele>
        <time>2013-03-10T08:52:47.57Z</time>
      </trkpt>
      <trkpt lat="45.8621" lon="4.78525">
        <ele>428.1</ele>
        <time>2013-03-10T08:52:48.65Z</time>
      </trkpt>
      <trkpt lat="45.86205" lon="4.78526">
        <ele>429</ele>
        <time>2013-03-10T08:52:50.57Z</time>
      </trkpt>
      <trkpt lat="45.86203" lon="4.78527">
        <ele>429.2</ele>
        <time>2013-03-10T08:52:51.64Z</time>
      </trkpt>
      <trkpt lat="45.86202" lon="4.78529">
        <ele>429.5</ele>
        <time>2013-03-10T08:52:52.56Z</time>
      </trkpt>
      <trkpt lat="45.862" lon="4.7853">
        <ele>429.9</ele>
        <time>2013-03-10T08:52:53.65Z</time>
      </trkpt>
      <trkpt lat="45.86197" lon="4.78532">
        <ele>430.7</ele>
        <time>2013-03-10T08:52:55.43Z</time>
      </trkpt>
      <trkpt lat="45.86195" lon="4.78535">
        <ele>431.5</ele>
        <time>2013-03-10T08:52:57.56Z</time>
      </trkpt>
      <trkpt lat="45.86195" lon="4.78537">
        <ele>431.5</ele>
        <time>2013-03-10T08:52:58.56Z</time>
      </trkpt>
      <trkpt lat="45.86197" lon="4.78538">
        <ele>438.4</ele>
        <time>2013-03-10T08:52:59.59Z</time>
      </trkpt>
      <trkpt lat="45.862" lon="4.78539">
        <ele>430.4</ele>
        <time>2013-03-10T08:53:01.43Z</time>
      </trkpt>
      <trkpt lat="45.86202" lon="4.7854">
        <ele>430</ele>
        <time>2013-03-10T08:53:02.43Z</time>
      </trkpt>
      <trkpt lat="45.86204" lon="4.7854">
        <ele>429.6</ele>
        <time>2013-03-10T08:53:03.66Z</time>
      </trkpt>
      <trkpt lat="45.86206" lon="4.7854">
        <ele>429.1</ele>
        <time>2013-03-10T08:53:04.56Z</time>
      </trkpt>
      <trkpt lat="45.86209" lon="4.78542">
        <ele>428.5</ele>
        <time>2013-03-10T08:53:05.56Z</time>
      </trkpt>
      <trkpt lat="45.86211" lon="4.78543">
        <ele>428</ele>
        <time>2013-03-10T08:53:06.56Z</time>
      </trkpt>
      <trkpt lat="45.86212" lon="4.78545">
        <ele>427.7</ele>
        <time>2013-03-10T08:53:07.56Z</time>
      </trkpt>
      <trkpt lat="45.86213" lon="4.78546">
        <ele>427.4</ele>
        <time>2013-03-10T08:53:08.56Z</time>
      </trkpt>
      <trkpt lat="45.86217" lon="4.78547">
        <ele>426.5</ele>
        <time>2013-03-10T08:53:10.43Z</time>
      </trkpt>
      <trkpt lat="45.86219" lon="4.78549">
        <ele>426</ele>
        <time>2013-03-10T08:53:11.43Z</time>
      </trkpt>
      <trkpt lat="45.8622" lon="4.7855">
        <ele>425.6</ele>
        <time>2013-03-10T08:53:12.43Z</time>
      </trkpt>
      <trkpt lat="45.86222" lon="4.78551">
        <ele>425.1</ele>
        <time>2013-03-10T08:53:13.43Z</time>
      </trkpt>
      <trkpt lat="45.86225" lon="4.78555">
        <ele>423.9</ele>
        <time>2013-03-10T08:53:15.43Z</time>
      </trkpt>
      <trkpt lat="45.86227" lon="4.78557">
        <ele>423.7</ele>
        <time>2013-03-10T08:53:16.43Z</time>
      </trkpt>
      <trkpt lat="45.86228" lon="4.78559">
        <ele>423.8</ele>
        <time>2013-03-10T08:53:17.66Z</time>
      </trkpt>
      <trkpt lat="45.8623" lon="4.78561">
        <ele>423.9</ele>
        <time>2013-03-10T08:53:18.66Z</time>
      </trkpt>
      <trkpt lat="45.86233" lon="4.78566">
        <ele>424.5</ele>
        <time>2013-03-10T08:53:20.56Z</time>
      </trkpt>
      <trkpt lat="45.86235" lon="4.78569">
        <ele>424.8</ele>
        <time>2013-03-10T08:53:21.56Z</time>
      </trkpt>
      <trkpt lat="45.86238" lon="4.78571">
        <ele>424.8</ele>
        <time>2013-03-10T08:53:22.56Z</time>
      </trkpt>
      <trkpt lat="45.86241" lon="4.78573">
        <ele>424.8</ele>
        <time>2013-03-10T08:53:23.56Z</time>
      </trkpt>
      <trkpt lat="45.86243" lon="4.78574">
        <ele>424.8</ele>
        <time>2013-03-10T08:53:24.56Z</time>
      </trkpt>
      <trkpt lat="45.86245" lon="4.78575">
        <ele>424.8</ele>
        <time>2013-03-10T08:53:25.56Z</time>
      </trkpt>
      <trkpt lat="45.86246" lon="4.78576">
        <ele>424.7</ele>
        <time>2013-03-10T08:53:26.56Z</time>
      </trkpt>
      <trkpt lat="45.86248" lon="4.78577">
        <ele>424.9</ele>
        <time>2013-03-10T08:53:27.56Z</time>
      </trkpt>
      <trkpt lat="45.8625" lon="4.78579">
        <ele>425.3</ele>
        <time>2013-03-10T08:53:28.56Z</time>
      </trkpt>
      <trkpt lat="45.86253" lon="4.7858">
        <ele>425.4</ele>
        <time>2013-03-10T08:53:29.56Z</time>
      </trkpt>
      <trkpt lat="45.86256" lon="4.78581">
        <ele>425.5</ele>
        <time>2013-03-10T08:53:30.56Z</time>
      </trkpt>
      <trkpt lat="45.86259" lon="4.78582">
        <ele>425.6</ele>
        <time>2013-03-10T08:53:31.58Z</time>
      </trkpt>
      <trkpt lat="45.86262" lon="4.78583">
        <ele>425.7</ele>
        <time>2013-03-10T08:53:32.56Z</time>
      </trkpt>
      <trkpt lat="45.86266" lon="4.78584">
        <ele>425.5</ele>
        <time>2013-03-10T08:53:33.57Z</time>
      </trkpt>
      <trkpt lat="45.86271" lon="4.78585">
        <ele>425.3</ele>
        <time>2013-03-10T08:53:35.56Z</time>
      </trkpt>
      <trkpt lat="45.86273" lon="4.78586">
        <ele>425.3</ele>
        <time>2013-03-10T08:53:36.56Z</time>
      </trkpt>
      <trkpt lat="45.86276" lon="4.78587">
        <ele>425.3</ele>
        <time>2013-03-10T08:53:37.56Z</time>
      </trkpt>
      <trkpt lat="45.8628" lon="4.78588">
        <ele>425.4</ele>
        <time>2013-03-10T08:53:38.56Z</time>
      </trkpt>
      <trkpt lat="45.86283" lon="4.78591">
        <ele>425.8</ele>
        <time>2013-03-10T08:53:39.56Z</time>
      </trkpt>
      <trkpt lat="45.8629" lon="4.78595">
        <ele>426.2</ele>
        <time>2013-03-10T08:53:41.42Z</time>
      </trkpt>
      <trkpt lat="45.86293" lon="4.78597">
        <ele>426.5</ele>
        <time>2013-03-10T08:53:42.42Z</time>
      </trkpt>
      <trkpt lat="45.863" lon="4.78601">
        <ele>426.9</ele>
        <time>2013-03-10T08:53:44.42Z</time>
      </trkpt>
      <trkpt lat="45.86306" lon="4.78603">
        <ele>427.1</ele>
        <time>2013-03-10T08:53:46.56Z</time>
      </trkpt>
      <trkpt lat="45.86309" lon="4.78604">
        <ele>427.2</ele>
        <time>2013-03-10T08:53:47.57Z</time>
      </trkpt>
      <trkpt lat="45.86312" lon="4.78606">
        <ele>427.6</ele>
        <time>2013-03-10T08:53:48.56Z</time>
      </trkpt>
      <trkpt lat="45.86315" lon="4.78609">
        <ele>428.4</ele>
        <time>2013-03-10T08:53:49.56Z</time>
      </trkpt>
      <trkpt lat="45.86318" lon="4.78613">
        <ele>429</ele>
        <time>2013-03-10T08:53:50.57Z</time>
      </trkpt>
      <trkpt lat="45.86323" lon="4.78615">
        <ele>429.1</ele>
        <time>2013-03-10T08:53:52.42Z</time>
      </trkpt>
      <trkpt lat="45.86326" lon="4.78617">
        <ele>429.3</ele>
        <time>2013-03-10T08:53:53.42Z</time>
      </trkpt>
      <trkpt lat="45.86328" lon="4.7862">
        <ele>429.7</ele>
        <time>2013-03-10T08:53:54.56Z</time>
      </trkpt>
      <trkpt lat="45.8633" lon="4.78621">
        <ele>429.8</ele>
        <time>2013-03-10T08:53:55.56Z</time>
      </trkpt>
      <trkpt lat="45.86333" lon="4.78623">
        <ele>430</ele>
        <time>2013-03-10T08:53:56.56Z</time>
      </trkpt>
      <trkpt lat="45.86335" lon="4.78625">
        <ele>430.5</ele>
        <time>2013-03-10T08:53:57.56Z</time>
      </trkpt>
      <trkpt lat="45.86337" lon="4.78627">
        <ele>430.7</ele>
        <time>2013-03-10T08:53:58.56Z</time>
      </trkpt>
      <trkpt lat="45.86339" lon="4.78628">
        <ele>451.9</ele>
        <time>2013-03-10T08:53:59.59Z</time>
      </trkpt>
      <trkpt lat="45.86343" lon="4.78631">
        <ele>431.5</ele>
        <time>2013-03-10T08:54:01.42Z</time>
      </trkpt>
      <trkpt lat="45.86346" lon="4.78631">
        <ele>431.4</ele>
        <time>2013-03-10T08:54:02.42Z</time>
      </trkpt>
      <trkpt lat="45.86348" lon="4.78631">
        <ele>431.3</ele>
        <time>2013-03-10T08:54:03.75Z</time>
      </trkpt>
      <trkpt lat="45.86353" lon="4.78632">
        <ele>431.1</ele>
        <time>2013-03-10T08:54:05.56Z</time>
      </trkpt>
      <trkpt lat="45.86356" lon="4.78632">
        <ele>430.9</ele>
        <time>2013-03-10T08:54:06.56Z</time>
      </trkpt>
      <trkpt lat="45.86359" lon="4.78631">
        <ele>430.7</ele>
        <time>2013-03-10T08:54:07.56Z</time>
      </trkpt>
      <trkpt lat="45.86363" lon="4.78631">
        <ele>430.3</ele>
        <time>2013-03-10T08:54:08.56Z</time>
      </trkpt>
      <trkpt lat="45.86366" lon="4.78631">
        <ele>430.1</ele>
        <time>2013-03-10T08:54:09.69Z</time>
      </trkpt>
      <trkpt lat="45.86372" lon="4.7863">
        <ele>429.5</ele>
        <time>2013-03-10T08:54:11.56Z</time>
      </trkpt>
      <trkpt lat="45.86376" lon="4.7863">
        <ele>429.3</ele>
        <time>2013-03-10T08:54:12.56Z</time>
      </trkpt>
      <trkpt lat="45.8638" lon="4.7863">
        <ele>428.9</ele>
        <time>2013-03-10T08:54:13.56Z</time>
      </trkpt>
      <trkpt lat="45.86384" lon="4.78629">
        <ele>428.4</ele>
        <time>2013-03-10T08:54:14.62Z</time>
      </trkpt>
      <trkpt lat="45.86388" lon="4.78629">
        <ele>428.2</ele>
        <time>2013-03-10T08:54:15.61Z</time>
      </trkpt>
      <trkpt lat="45.86391" lon="4.7863">
        <ele>428.2</ele>
        <time>2013-03-10T08:54:16.67Z</time>
      </trkpt>
      <trkpt lat="45.86398" lon="4.78629">
        <ele>427.8</ele>
        <time>2013-03-10T08:54:18.56Z</time>
      </trkpt>
      <trkpt lat="45.86402" lon="4.78628">
        <ele>427.3</ele>
        <time>2013-03-10T08:54:19.56Z</time>
      </trkpt>
      <trkpt lat="45.86405" lon="4.78627">
        <ele>426.9</ele>
        <time>2013-03-10T08:54:20.56Z</time>
      </trkpt>
      <trkpt lat="45.86408" lon="4.78626">
        <ele>426.4</ele>
        <time>2013-03-10T08:54:21.56Z</time>
      </trkpt>
      <trkpt lat="45.86412" lon="4.78626">
        <ele>426</ele>
        <time>2013-03-10T08:54:22.61Z</time>
      </trkpt>
      <trkpt lat="45.86415" lon="4.78626">
        <ele>425.9</ele>
        <time>2013-03-10T08:54:23.67Z</time>
      </trkpt>
      <trkpt lat="45.86422" lon="4.78626">
        <ele>425.3</ele>
        <time>2013-03-10T08:54:25.56Z</time>
      </trkpt>
      <trkpt lat="45.86425" lon="4.78626">
        <ele>425.2</ele>
        <time>2013-03-10T08:54:26.56Z</time>
      </trkpt>
      <trkpt lat="45.86429" lon="4.78627">
        <ele>425.2</ele>
        <time>2013-03-10T08:54:27.56Z</time>
      </trkpt>
      <trkpt lat="45.86432" lon="4.78628">
        <ele>425.5</ele>
        <time>2013-03-10T08:54:28.56Z</time>
      </trkpt>
      <trkpt lat="45.86436" lon="4.7863">
        <ele>425.8</ele>
        <time>2013-03-10T08:54:29.56Z</time>
      </trkpt>
      <trkpt lat="45.86439" lon="4.78631">
        <ele>425.8</ele>
        <time>2013-03-10T08:54:30.56Z</time>
      </trkpt>
      <trkpt lat="45.86442" lon="4.78632">
        <ele>425.9</ele>
        <time>2013-03-10T08:54:31.56Z</time>
      </trkpt>
      <trkpt lat="45.86445" lon="4.78633">
        <ele>426</ele>
        <time>2013-03-10T08:54:32.56Z</time>
      </trkpt>
      <trkpt lat="45.86449" lon="4.78634">
        <ele>425.8</ele>
        <time>2013-03-10T08:54:33.57Z</time>
      </trkpt>
      <trkpt lat="45.86453" lon="4.78633">
        <ele>425.2</ele>
        <time>2013-03-10T08:54:34.61Z</time>
      </trkpt>
      <trkpt lat="45.86458" lon="4.78632">
        <ele>424.5</ele>
        <time>2013-03-10T08:54:35.61Z</time>
      </trkpt>
      <trkpt lat="45.86463" lon="4.78632">
        <ele>423.8</ele>
        <time>2013-03-10T08:54:36.63Z</time>
      </trkpt>
      <trkpt lat="45.86471" lon="4.78631">
        <ele>422.8</ele>
        <time>2013-03-10T08:54:38.65Z</time>
      </trkpt>
      <trkpt lat="45.8648" lon="4.78632">
        <ele>421.7</ele>
        <time>2013-03-10T08:54:40.62Z</time>
      </trkpt>
      <trkpt lat="45.86484" lon="4.78632">
        <ele>421.1</ele>
        <time>2013-03-10T08:54:41.61Z</time>
      </trkpt>
      <trkpt lat="45.86488" lon="4.78634">
        <ele>420.9</ele>
        <time>2013-03-10T08:54:42.62Z</time>
      </trkpt>
      <trkpt lat="45.86493" lon="4.78637">
        <ele>420.7</ele>
        <time>2013-03-10T08:54:43.67Z</time>
      </trkpt>
      <trkpt lat="45.86503" lon="4.78643">
        <ele>419.7</ele>
        <time>2013-03-10T08:54:45.63Z</time>
      </trkpt>
      <trkpt lat="45.86509" lon="4.78649">
        <ele>418.9</ele>
        <time>2013-03-10T08:54:47.61Z</time>
      </trkpt>
      <trkpt lat="45.86511" lon="4.78652">
        <ele>418.6</ele>
        <time>2013-03-10T08:54:48.75Z</time>
      </trkpt>
      <trkpt lat="45.86516" lon="4.78658">
        <ele>417.8</ele>
        <time>2013-03-10T08:54:50.66Z</time>
      </trkpt>
      <trkpt lat="45.8652" lon="4.78666">
        <ele>417.4</ele>
        <time>2013-03-10T08:54:52.56Z</time>
      </trkpt>
      <trkpt lat="45.86522" lon="4.78669">
        <ele>417.1</ele>
        <time>2013-03-10T08:54:53.56Z</time>
      </trkpt>
      <trkpt lat="45.86524" lon="4.78673">
        <ele>416.8</ele>
        <time>2013-03-10T08:54:54.57Z</time>
      </trkpt>
      <trkpt lat="45.86526" lon="4.78676">
        <ele>416.6</ele>
        <time>2013-03-10T08:54:55.56Z</time>
      </trkpt>
      <trkpt lat="45.86528" lon="4.7868">
        <ele>416.4</ele>
        <time>2013-03-10T08:54:56.56Z</time>
      </trkpt>
      <trkpt lat="45.8653" lon="4.78683">
        <ele>415.8</ele>
        <time>2013-03-10T08:54:57.56Z</time>
      </trkpt>
      <trkpt lat="45.86532" lon="4.78685">
        <ele>415</ele>
        <time>2013-03-10T08:54:58.56Z</time>
      </trkpt>
      <trkpt lat="45.86534" lon="4.78687">
        <ele>441.1</ele>
        <time>2013-03-10T08:54:59.59Z</time>
      </trkpt>
      <trkpt lat="45.86536" lon="4.7869">
        <ele>413.3</ele>
        <time>2013-03-10T08:55:00.71Z</time>
      </trkpt>
      <trkpt lat="45.8654" lon="4.78697">
        <ele>411.8</ele>
        <time>2013-03-10T08:55:02.56Z</time>
      </trkpt>
      <trkpt lat="45.86543" lon="4.787">
        <ele>410.7</ele>
        <time>2013-03-10T08:55:03.56Z</time>
      </trkpt>
      <trkpt lat="45.86546" lon="4.78704">
        <ele>409.7</ele>
        <time>2013-03-10T08:55:04.56Z</time>
      </trkpt>
      <trkpt lat="45.86549" lon="4.78708">
        <ele>408.9</ele>
        <time>2013-03-10T08:55:05.56Z</time>
      </trkpt>
      <trkpt lat="45.86551" lon="4.78713">
        <ele>408.6</ele>
        <time>2013-03-10T08:55:06.56Z</time>
      </trkpt>
      <trkpt lat="45.86553" lon="4.78717">
        <ele>408.5</ele>
        <time>2013-03-10T08:55:07.58Z</time>
      </trkpt>
      <trkpt lat="45.86555" lon="4.78722">
        <ele>408.3</ele>
        <time>2013-03-10T08:55:08.56Z</time>
      </trkpt>
      <trkpt lat="45.86557" lon="4.78726">
        <ele>408</ele>
        <time>2013-03-10T08:55:09.56Z</time>
      </trkpt>
      <trkpt lat="45.86559" lon="4.78731">
        <ele>407.4</ele>
        <time>2013-03-10T08:55:10.56Z</time>
      </trkpt>
      <trkpt lat="45.86561" lon="4.78737">
        <ele>407</ele>
        <time>2013-03-10T08:55:11.56Z</time>
      </trkpt>
      <trkpt lat="45.86564" lon="4.78742">
        <ele>406.6</ele>
        <time>2013-03-10T08:55:12.56Z</time>
      </trkpt>
      <trkpt lat="45.86566" lon="4.78746">
        <ele>406.2</ele>
        <time>2013-03-10T08:55:13.56Z</time>
      </trkpt>
      <trkpt lat="45.86569" lon="4.7875">
        <ele>405.7</ele>
        <time>2013-03-10T08:55:14.56Z</time>
      </trkpt>
      <trkpt lat="45.86572" lon="4.78754">
        <ele>405.3</ele>
        <time>2013-03-10T08:55:15.56Z</time>
      </trkpt>
      <trkpt lat="45.86575" lon="4.78756">
        <ele>404.8</ele>
        <time>2013-03-10T08:55:16.57Z</time>
      </trkpt>
      <trkpt lat="45.86578" lon="4.7876">
        <ele>404.5</ele>
        <time>2013-03-10T08:55:17.61Z</time>
      </trkpt>
      <trkpt lat="45.8658" lon="4.78765">
        <ele>404.6</ele>
        <time>2013-03-10T08:55:18.67Z</time>
      </trkpt>
      <trkpt lat="45.86584" lon="4.7877">
        <ele>404.7</ele>
        <time>2013-03-10T08:55:20.6Z</time>
      </trkpt>
      <trkpt lat="45.86586" lon="4.78772">
        <ele>404.6</ele>
        <time>2013-03-10T08:55:21.6Z</time>
      </trkpt>
      <trkpt lat="45.86589" lon="4.78775">
        <ele>404.5</ele>
        <time>2013-03-10T08:55:22.63Z</time>
      </trkpt>
      <trkpt lat="45.86595" lon="4.78782">
        <ele>404.2</ele>
        <time>2013-03-10T08:55:24.6Z</time>
      </trkpt>
      <trkpt lat="45.86598" lon="4.78786">
        <ele>404.2</ele>
        <time>2013-03-10T08:55:25.6Z</time>
      </trkpt>
      <trkpt lat="45.866" lon="4.7879">
        <ele>404.3</ele>
        <time>2013-03-10T08:55:26.63Z</time>
      </trkpt>
      <trkpt lat="45.86605" lon="4.78796">
        <ele>404.6</ele>
        <time>2013-03-10T08:55:28.56Z</time>
      </trkpt>
      <trkpt lat="45.86607" lon="4.788">
        <ele>405.1</ele>
        <time>2013-03-10T08:55:29.6Z</time>
      </trkpt>
      <trkpt lat="45.8661" lon="4.78804">
        <ele>405.8</ele>
        <time>2013-03-10T08:55:30.62Z</time>
      </trkpt>
      <trkpt lat="45.86614" lon="4.78811">
        <ele>407</ele>
        <time>2013-03-10T08:55:32.56Z</time>
      </trkpt>
      <trkpt lat="45.86616" lon="4.78813">
        <ele>407.2</ele>
        <time>2013-03-10T08:55:33.57Z</time>
      </trkpt>
      <trkpt lat="45.86618" lon="4.78814">
        <ele>407.4</ele>
        <time>2013-03-10T08:55:34.6Z</time>
      </trkpt>
      <trkpt lat="45.86622" lon="4.78816">
        <ele>407.4</ele>
        <time>2013-03-10T08:55:35.63Z</time>
      </trkpt>
      <trkpt lat="45.86627" lon="4.78817">
        <ele>407.4</ele>
        <time>2013-03-10T08:55:37.56Z</time>
      </trkpt>
      <trkpt lat="45.8663" lon="4.78818">
        <ele>407.5</ele>
        <time>2013-03-10T08:55:38.56Z</time>
      </trkpt>
      <trkpt lat="45.86633" lon="4.78819">
        <ele>407.4</ele>
        <time>2013-03-10T08:55:39.56Z</time>
      </trkpt>
      <trkpt lat="45.86636" lon="4.78819">
        <ele>407.1</ele>
        <time>2013-03-10T08:55:40.56Z</time>
      </trkpt>
      <trkpt lat="45.86639" lon="4.78819">
        <ele>406.9</ele>
        <time>2013-03-10T08:55:41.56Z</time>
      </trkpt>
      <trkpt lat="45.86643" lon="4.7882">
        <ele>406.8</ele>
        <time>2013-03-10T08:55:42.56Z</time>
      </trkpt>
      <trkpt lat="45.86646" lon="4.78821">
        <ele>406.8</ele>
        <time>2013-03-10T08:55:43.56Z</time>
      </trkpt>
      <trkpt lat="45.86649" lon="4.78822">
        <ele>406.9</ele>
        <time>2013-03-10T08:55:44.59Z</time>
      </trkpt>
      <trkpt lat="45.86651" lon="4.78823">
        <ele>407.1</ele>
        <time>2013-03-10T08:55:45.59Z</time>
      </trkpt>
      <trkpt lat="45.86654" lon="4.78824">
        <ele>407.6</ele>
        <time>2013-03-10T08:55:46.59Z</time>
      </trkpt>
      <trkpt lat="45.86656" lon="4.78827">
        <ele>408.2</ele>
        <time>2013-03-10T08:55:47.59Z</time>
      </trkpt>
      <trkpt lat="45.86658" lon="4.78829">
        <ele>408.8</ele>
        <time>2013-03-10T08:55:48.7Z</time>
      </trkpt>
      <trkpt lat="45.86666" lon="4.78833">
        <ele>410</ele>
        <time>2013-03-10T08:55:50.57Z</time>
      </trkpt>
      <trkpt lat="45.86669" lon="4.78835">
        <ele>410.1</ele>
        <time>2013-03-10T08:55:51.59Z</time>
      </trkpt>
      <trkpt lat="45.86673" lon="4.78836">
        <ele>410.2</ele>
        <time>2013-03-10T08:55:52.71Z</time>
      </trkpt>
      <trkpt lat="45.86679" lon="4.78836">
        <ele>409.9</ele>
        <time>2013-03-10T08:55:54.56Z</time>
      </trkpt>
      <trkpt lat="45.86683" lon="4.78837">
        <ele>409.9</ele>
        <time>2013-03-10T08:55:55.56Z</time>
      </trkpt>
      <trkpt lat="45.86688" lon="4.78837">
        <ele>409.6</ele>
        <time>2013-03-10T08:55:56.56Z</time>
      </trkpt>
      <trkpt lat="45.86691" lon="4.78838">
        <ele>409.4</ele>
        <time>2013-03-10T08:55:57.58Z</time>
      </trkpt>
      <trkpt lat="45.86694" lon="4.78838">
        <ele>409.4</ele>
        <time>2013-03-10T08:55:58.66Z</time>
      </trkpt>
      <trkpt lat="45.86697" lon="4.78839">
        <ele>423.4</ele>
        <time>2013-03-10T08:55:59.64Z</time>
      </trkpt>
      <trkpt lat="45.86702" lon="4.78839">
        <ele>409.1</ele>
        <time>2013-03-10T08:56:01.59Z</time>
      </trkpt>
      <trkpt lat="45.86706" lon="4.7884">
        <ele>408.9</ele>
        <time>2013-03-10T08:56:02.59Z</time>
      </trkpt>
      <trkpt lat="45.86708" lon="4.7884">
        <ele>408.9</ele>
        <time>2013-03-10T08:56:03.66Z</time>
      </trkpt>
      <trkpt lat="45.86715" lon="4.78843">
        <ele>408.9</ele>
        <time>2013-03-10T08:56:05.56Z</time>
      </trkpt>
      <trkpt lat="45.86719" lon="4.78843">
        <ele>408.7</ele>
        <time>2013-03-10T08:56:06.56Z</time>
      </trkpt>
      <trkpt lat="45.86723" lon="4.78845">
        <ele>409</ele>
        <time>2013-03-10T08:56:07.56Z</time>
      </trkpt>
      <trkpt lat="45.86725" lon="4.78848">
        <ele>409.1</ele>
        <time>2013-03-10T08:56:08.69Z</time>
      </trkpt>
      <trkpt lat="45.86731" lon="4.78853">
        <ele>409.7</ele>
        <time>2013-03-10T08:56:10.56Z</time>
      </trkpt>
      <trkpt lat="45.86734" lon="4.78856">
        <ele>409.7</ele>
        <time>2013-03-10T08:56:11.56Z</time>
      </trkpt>
      <trkpt lat="45.86738" lon="4.78859">
        <ele>409.8</ele>
        <time>2013-03-10T08:56:12.56Z</time>
      </trkpt>
      <trkpt lat="45.86741" lon="4.78862">
        <ele>409.7</ele>
        <time>2013-03-10T08:56:13.56Z</time>
      </trkpt>
      <trkpt lat="45.86744" lon="4.78865">
        <ele>409.6</ele>
        <time>2013-03-10T08:56:14.59Z</time>
      </trkpt>
      <trkpt lat="45.86747" lon="4.78868">
        <ele>409.5</ele>
        <time>2013-03-10T08:56:15.59Z</time>
      </trkpt>
      <trkpt lat="45.8675" lon="4.78871">
        <ele>409.4</ele>
        <time>2013-03-10T08:56:16.65Z</time>
      </trkpt>
      <trkpt lat="45.86756" lon="4.78878">
        <ele>409.3</ele>
        <time>2013-03-10T08:56:18.56Z</time>
      </trkpt>
      <trkpt lat="45.8676" lon="4.78882">
        <ele>409.1</ele>
        <time>2013-03-10T08:56:19.58Z</time>
      </trkpt>
      <trkpt lat="45.86763" lon="4.78886">
        <ele>408.9</ele>
        <time>2013-03-10T08:56:20.61Z</time>
      </trkpt>
      <trkpt lat="45.86768" lon="4.78894">
        <ele>408.5</ele>
        <time>2013-03-10T08:56:22.56Z</time>
      </trkpt>
      <trkpt lat="45.8677" lon="4.78897">
        <ele>408.3</ele>
        <time>2013-03-10T08:56:23.56Z</time>
      </trkpt>
      <trkpt lat="45.86771" lon="4.78901">
        <ele>408.3</ele>
        <time>2013-03-10T08:56:24.71Z</time>
      </trkpt>
      <trkpt lat="45.86772" lon="4.78909">
        <ele>408.8</ele>
        <time>2013-03-10T08:56:26.56Z</time>
      </trkpt>
      <trkpt lat="45.86771" lon="4.78913">
        <ele>409.1</ele>
        <time>2013-03-10T08:56:27.56Z</time>
      </trkpt>
      <trkpt lat="45.8677" lon="4.78916">
        <ele>409.6</ele>
        <time>2013-03-10T08:56:28.56Z</time>
      </trkpt>
      <trkpt lat="45.86769" lon="4.7892">
        <ele>410</ele>
        <time>2013-03-10T08:56:29.58Z</time>
      </trkpt>
      <trkpt lat="45.86768" lon="4.78923">
        <ele>410.4</ele>
        <time>2013-03-10T08:56:30.58Z</time>
      </trkpt>
      <trkpt lat="45.86767" lon="4.78927">
        <ele>410.8</ele>
        <time>2013-03-10T08:56:31.58Z</time>
      </trkpt>
      <trkpt lat="45.86765" lon="4.78931">
        <ele>411.3</ele>
        <time>2013-03-10T08:56:32.62Z</time>
      </trkpt>
      <trkpt lat="45.86762" lon="4.78939">
        <ele>412.2</ele>
        <time>2013-03-10T08:56:34.58Z</time>
      </trkpt>
      <trkpt lat="45.8676" lon="4.78944">
        <ele>412.8</ele>
        <time>2013-03-10T08:56:35.58Z</time>
      </trkpt>
      <trkpt lat="45.86758" lon="4.78948">
        <ele>413.3</ele>
        <time>2013-03-10T08:56:36.62Z</time>
      </trkpt>
      <trkpt lat="45.86754" lon="4.78956">
        <ele>414.2</ele>
        <time>2013-03-10T08:56:38.56Z</time>
      </trkpt>
      <trkpt lat="45.86752" lon="4.78959">
        <ele>414.5</ele>
        <time>2013-03-10T08:56:39.58Z</time>
      </trkpt>
      <trkpt lat="45.86751" lon="4.78963">
        <ele>414.8</ele>
        <time>2013-03-10T08:56:40.62Z</time>
      </trkpt>
      <trkpt lat="45.86749" lon="4.7897">
        <ele>415.3</ele>
        <time>2013-03-10T08:56:42.66Z</time>
      </trkpt>
      <trkpt lat="45.86749" lon="4.78976">
        <ele>415.3</ele>
        <time>2013-03-10T08:56:44.56Z</time>
      </trkpt>
      <trkpt lat="45.8675" lon="4.78977">
        <ele>415.3</ele>
        <time>2013-03-10T08:56:45.56Z</time>
      </trkpt>
      <trkpt lat="45.8675" lon="4.78979">
        <ele>415.2</ele>
        <time>2013-03-10T08:56:46.56Z</time>
      </trkpt>
      <trkpt lat="45.8675" lon="4.78982">
        <ele>415.2</ele>
        <time>2013-03-10T08:56:47.58Z</time>
      </trkpt>
      <trkpt lat="45.86751" lon="4.78985">
        <ele>415.2</ele>
        <time>2013-03-10T08:56:48.66Z</time>
      </trkpt>
      <trkpt lat="45.8675" lon="4.78992">
        <ele>415.7</ele>
        <time>2013-03-10T08:56:50.57Z</time>
      </trkpt>
      <trkpt lat="45.8675" lon="4.78994">
        <ele>415.7</ele>
        <time>2013-03-10T08:56:51.58Z</time>
      </trkpt>
      <trkpt lat="45.8675" lon="4.78997">
        <ele>415.8</ele>
        <time>2013-03-10T08:56:52.71Z</time>
      </trkpt>
      <trkpt lat="45.8675" lon="4.79003">
        <ele>415.8</ele>
        <time>2013-03-10T08:56:54.58Z</time>
      </trkpt>
      <trkpt lat="45.8675" lon="4.79006">
        <ele>415.9</ele>
        <time>2013-03-10T08:56:55.58Z</time>
      </trkpt>
      <trkpt lat="45.8675" lon="4.79009">
        <ele>415.8</ele>
        <time>2013-03-10T08:56:56.58Z</time>
      </trkpt>
      <trkpt lat="45.86749" lon="4.79013">
        <ele>416.1</ele>
        <time>2013-03-10T08:56:57.58Z</time>
      </trkpt>
      <trkpt lat="45.86747" lon="4.79017">
        <ele>416.5</ele>
        <time>2013-03-10T08:56:58.69Z</time>
      </trkpt>
      <trkpt lat="45.86745" lon="4.79023">
        <ele>424.1</ele>
        <time>2013-03-10T08:57:00.57Z</time>
      </trkpt>
      <trkpt lat="45.86743" lon="4.79026">
        <ele>417.7</ele>
        <time>2013-03-10T08:57:01.58Z</time>
      </trkpt>
      <trkpt lat="45.86742" lon="4.7903">
        <ele>418.2</ele>
        <time>2013-03-10T08:57:02.57Z</time>
      </trkpt>
      <trkpt lat="45.86741" lon="4.79032">
        <ele>418.5</ele>
        <time>2013-03-10T08:57:03.78Z</time>
      </trkpt>
      <trkpt lat="45.86737" lon="4.79038">
        <ele>419.7</ele>
        <time>2013-03-10T08:57:05.66Z</time>
      </trkpt>
      <trkpt lat="45.86733" lon="4.79043">
        <ele>420.7</ele>
        <time>2013-03-10T08:57:07.56Z</time>
      </trkpt>
      <trkpt lat="45.86731" lon="4.79046">
        <ele>421.4</ele>
        <time>2013-03-10T08:57:08.56Z</time>
      </trkpt>
      <trkpt lat="45.86729" lon="4.79049">
        <ele>421.9</ele>
        <time>2013-03-10T08:57:09.56Z</time>
      </trkpt>
      <trkpt lat="45.86728" lon="4.79052">
        <ele>422.3</ele>
        <time>2013-03-10T08:57:10.56Z</time>
      </trkpt>
      <trkpt lat="45.86725" lon="4.79056">
        <ele>422.8</ele>
        <time>2013-03-10T08:57:11.56Z</time>
      </trkpt>
      <trkpt lat="45.86723" lon="4.7906">
        <ele>423.4</ele>
        <time>2013-03-10T08:57:12.58Z</time>
      </trkpt>
      <trkpt lat="45.86721" lon="4.79062">
        <ele>423.8</ele>
        <time>2013-03-10T08:57:13.66Z</time>
      </trkpt>
      <trkpt lat="45.86716" lon="4.79069">
        <ele>424.3</ele>
        <time>2013-03-10T08:57:15.57Z</time>
      </trkpt>
      <trkpt lat="45.86713" lon="4.79072">
        <ele>424.6</ele>
        <time>2013-03-10T08:57:16.66Z</time>
      </trkpt>
      <trkpt lat="45.8671" lon="4.79078">
        <ele>425</ele>
        <time>2013-03-10T08:57:18.56Z</time>
      </trkpt>
      <trkpt lat="45.86707" lon="4.79082">
        <ele>425.4</ele>
        <time>2013-03-10T08:57:19.57Z</time>
      </trkpt>
      <trkpt lat="45.86705" lon="4.79085">
        <ele>425.7</ele>
        <time>2013-03-10T08:57:20.63Z</time>
      </trkpt>
      <trkpt lat="45.86702" lon="4.7909">
        <ele>425.9</ele>
        <time>2013-03-10T08:57:22.56Z</time>
      </trkpt>
      <trkpt lat="45.867" lon="4.79093">
        <ele>426.2</ele>
        <time>2013-03-10T08:57:23.56Z</time>
      </trkpt>
      <trkpt lat="45.86699" lon="4.79096">
        <ele>426.3</ele>
        <time>2013-03-10T08:57:24.62Z</time>
      </trkpt>
      <trkpt lat="45.86695" lon="4.79103">
        <ele>426.5</ele>
        <time>2013-03-10T08:57:26.57Z</time>
      </trkpt>
      <trkpt lat="45.86692" lon="4.79107">
        <ele>426.6</ele>
        <time>2013-03-10T08:57:27.58Z</time>
      </trkpt>
      <trkpt lat="45.86691" lon="4.79111">
        <ele>426.6</ele>
        <time>2013-03-10T08:57:28.68Z</time>
      </trkpt>
      <trkpt lat="45.86689" lon="4.79117">
        <ele>426.5</ele>
        <time>2013-03-10T08:57:30.56Z</time>
      </trkpt>
      <trkpt lat="45.86688" lon="4.79121">
        <ele>426.4</ele>
        <time>2013-03-10T08:57:31.58Z</time>
      </trkpt>
      <trkpt lat="45.86687" lon="4.79124">
        <ele>426.3</ele>
        <time>2013-03-10T08:57:32.61Z</time>
      </trkpt>
      <trkpt lat="45.86685" lon="4.79132">
        <ele>426.2</ele>
        <time>2013-03-10T08:57:34.56Z</time>
      </trkpt>
      <trkpt lat="45.86684" lon="4.79135">
        <ele>426.1</ele>
        <time>2013-03-10T08:57:35.56Z</time>
      </trkpt>
      <trkpt lat="45.86683" lon="4.7914">
        <ele>426.1</ele>
        <time>2013-03-10T08:57:36.62Z</time>
      </trkpt>
      <trkpt lat="45.86679" lon="4.79148">
        <ele>426.5</ele>
        <time>2013-03-10T08:57:38.56Z</time>
      </trkpt>
      <trkpt lat="45.86677" lon="4.79152">
        <ele>426.6</ele>
        <time>2013-03-10T08:57:39.62Z</time>
      </trkpt>
      <trkpt lat="45.86675" lon="4.79159">
        <ele>426.7</ele>
        <time>2013-03-10T08:57:41.66Z</time>
      </trkpt>
      <trkpt lat="45.86674" lon="4.79167">
        <ele>426.8</ele>
        <time>2013-03-10T08:57:43.68Z</time>
      </trkpt>
      <trkpt lat="45.86672" lon="4.79174">
        <ele>427.1</ele>
        <time>2013-03-10T08:57:45.56Z</time>
      </trkpt>
      <trkpt lat="45.86671" lon="4.79178">
        <ele>427.3</ele>
        <time>2013-03-10T08:57:46.66Z</time>
      </trkpt>
      <trkpt lat="45.86668" lon="4.79186">
        <ele>427.8</ele>
        <time>2013-03-10T08:57:48.68Z</time>
      </trkpt>
      <trkpt lat="45.86664" lon="4.79195">
        <ele>428.3</ele>
        <time>2013-03-10T08:57:50.57Z</time>
      </trkpt>
      <trkpt lat="45.86663" lon="4.792">
        <ele>428.4</ele>
        <time>2013-03-10T08:57:51.71Z</time>
      </trkpt>
      <trkpt lat="45.86661" lon="4.79207">
        <ele>428.6</ele>
        <time>2013-03-10T08:57:53.56Z</time>
      </trkpt>
      <trkpt lat="45.8666" lon="4.7921">
        <ele>428.7</ele>
        <time>2013-03-10T08:57:54.66Z</time>
      </trkpt>
      <trkpt lat="45.86659" lon="4.79214">
        <ele>428.9</ele>
        <time>2013-03-10T08:57:55.56Z</time>
      </trkpt>
      <trkpt lat="45.86658" lon="4.79218">
        <ele>429</ele>
        <time>2013-03-10T08:57:56.66Z</time>
      </trkpt>
      <trkpt lat="45.86658" lon="4.79222">
        <ele>429</ele>
        <time>2013-03-10T08:57:57.56Z</time>
      </trkpt>
      <trkpt lat="45.86658" lon="4.79225">
        <ele>428.9</ele>
        <time>2013-03-10T08:57:58.66Z</time>
      </trkpt>
      <trkpt lat="45.86658" lon="4.79229">
        <ele>428.5</ele>
        <time>2013-03-10T08:57:59.59Z</time>
      </trkpt>
      <trkpt lat="45.86657" lon="4.79237">
        <ele>429</ele>
        <time>2013-03-10T08:58:01.66Z</time>
      </trkpt>
      <trkpt lat="45.86657" lon="4.79241">
        <ele>429</ele>
        <time>2013-03-10T08:58:02.57Z</time>
      </trkpt>
      <trkpt lat="45.86657" lon="4.79246">
        <ele>429</ele>
        <time>2013-03-10T08:58:03.67Z</time>
      </trkpt>
      <trkpt lat="45.86658" lon="4.79254">
        <ele>429</ele>
        <time>2013-03-10T08:58:05.66Z</time>
      </trkpt>
      <trkpt lat="45.86659" lon="4.79258">
        <ele>429</ele>
        <time>2013-03-10T08:58:06.56Z</time>
      </trkpt>
      <trkpt lat="45.86659" lon="4.79263">
        <ele>429.1</ele>
        <time>2013-03-10T08:58:07.66Z</time>
      </trkpt>
      <trkpt lat="45.86659" lon="4.79266">
        <ele>429.1</ele>
        <time>2013-03-10T08:58:08.56Z</time>
      </trkpt>
      <trkpt lat="45.86658" lon="4.79269">
        <ele>429.3</ele>
        <time>2013-03-10T08:58:09.66Z</time>
      </trkpt>
      <trkpt lat="45.86658" lon="4.79272">
        <ele>429.3</ele>
        <time>2013-03-10T08:58:10.56Z</time>
      </trkpt>
      <trkpt lat="45.86659" lon="4.79277">
        <ele>429.4</ele>
        <time>2013-03-10T08:58:11.66Z</time>
      </trkpt>
      <trkpt lat="45.86658" lon="4.7928">
        <ele>429.6</ele>
        <time>2013-03-10T08:58:12.56Z</time>
      </trkpt>
      <trkpt lat="45.86658" lon="4.79284">
        <ele>429.7</ele>
        <time>2013-03-10T08:58:13.69Z</time>
      </trkpt>
      <trkpt lat="45.86658" lon="4.79291">
        <ele>430.1</ele>
        <time>2013-03-10T08:58:15.56Z</time>
      </trkpt>
      <trkpt lat="45.86657" lon="4.79295">
        <ele>430.3</ele>
        <time>2013-03-10T08:58:16.61Z</time>
      </trkpt>
      <trkpt lat="45.86657" lon="4.79298">
        <ele>430.5</ele>
        <time>2013-03-10T08:58:17.56Z</time>
      </trkpt>
      <trkpt lat="45.86656" lon="4.79301">
        <ele>430.7</ele>
        <time>2013-03-10T08:58:18.69Z</time>
      </trkpt>
      <trkpt lat="45.86656" lon="4.79308">
        <ele>431.1</ele>
        <time>2013-03-10T08:58:20.65Z</time>
      </trkpt>
      <trkpt lat="45.86655" lon="4.79311">
        <ele>431.3</ele>
        <time>2013-03-10T08:58:21.56Z</time>
      </trkpt>
      <trkpt lat="45.86654" lon="4.79316">
        <ele>431.6</ele>
        <time>2013-03-10T08:58:22.65Z</time>
      </trkpt>
      <trkpt lat="45.86654" lon="4.7932">
        <ele>431.8</ele>
        <time>2013-03-10T08:58:23.56Z</time>
      </trkpt>
      <trkpt lat="45.86654" lon="4.79324">
        <ele>431.9</ele>
        <time>2013-03-10T08:58:24.65Z</time>
      </trkpt>
      <trkpt lat="45.86655" lon="4.79329">
        <ele>431.9</ele>
        <time>2013-03-10T08:58:25.56Z</time>
      </trkpt>
      <trkpt lat="45.86656" lon="4.79333">
        <ele>431.9</ele>
        <time>2013-03-10T08:58:26.65Z</time>
      </trkpt>
      <trkpt lat="45.86656" lon="4.79337">
        <ele>432</ele>
        <time>2013-03-10T08:58:27.56Z</time>
      </trkpt>
      <trkpt lat="45.86656" lon="4.79341">
        <ele>432.3</ele>
        <time>2013-03-10T08:58:28.7Z</time>
      </trkpt>
      <trkpt lat="45.86655" lon="4.79349">
        <ele>432.9</ele>
        <time>2013-03-10T08:58:30.56Z</time>
      </trkpt>
      <trkpt lat="45.86655" lon="4.79353">
        <ele>433.1</ele>
        <time>2013-03-10T08:58:31.65Z</time>
      </trkpt>
      <trkpt lat="45.86655" lon="4.79357">
        <ele>433.4</ele>
        <time>2013-03-10T08:58:32.56Z</time>
      </trkpt>
      <trkpt lat="45.86654" lon="4.7936">
        <ele>433.6</ele>
        <time>2013-03-10T08:58:33.72Z</time>
      </trkpt>
      <trkpt lat="45.86654" lon="4.79367">
        <ele>434.2</ele>
        <time>2013-03-10T08:58:35.65Z</time>
      </trkpt>
      <trkpt lat="45.86654" lon="4.79372">
        <ele>434.5</ele>
        <time>2013-03-10T08:58:36.56Z</time>
      </trkpt>
      <trkpt lat="45.86654" lon="4.79375">
        <ele>434.6</ele>
        <time>2013-03-10T08:58:37.65Z</time>
      </trkpt>
      <trkpt lat="45.86655" lon="4.79378">
        <ele>434.6</ele>
        <time>2013-03-10T08:58:38.56Z</time>
      </trkpt>
      <trkpt lat="45.86656" lon="4.79382">
        <ele>434.9</ele>
        <time>2013-03-10T08:58:39.65Z</time>
      </trkpt>
      <trkpt lat="45.86654" lon="4.79389">
        <ele>435.7</ele>
        <time>2013-03-10T08:58:41.65Z</time>
      </trkpt>
      <trkpt lat="45.86655" lon="4.79392">
        <ele>435.8</ele>
        <time>2013-03-10T08:58:42.56Z</time>
      </trkpt>
      <trkpt lat="45.86655" lon="4.79396">
        <ele>435.9</ele>
        <time>2013-03-10T08:58:43.56Z</time>
      </trkpt>
      <trkpt lat="45.86655" lon="4.79399">
        <ele>436.2</ele>
        <time>2013-03-10T08:58:44.65Z</time>
      </trkpt>
      <trkpt lat="45.86655" lon="4.79403">
        <ele>436.5</ele>
        <time>2013-03-10T08:58:45.56Z</time>
      </trkpt>
      <trkpt lat="45.86655" lon="4.79407">
        <ele>436.8</ele>
        <time>2013-03-10T08:58:46.65Z</time>
      </trkpt>
      <trkpt lat="45.86655" lon="4.79412">
        <ele>437.2</ele>
        <time>2013-03-10T08:58:47.56Z</time>
      </trkpt>
      <trkpt lat="45.86654" lon="4.79415">
        <ele>437.4</ele>
        <time>2013-03-10T08:58:48.74Z</time>
      </trkpt>
      <trkpt lat="45.86655" lon="4.79423">
        <ele>437.7</ele>
        <time>2013-03-10T08:58:50.57Z</time>
      </trkpt>
      <trkpt lat="45.86655" lon="4.79426">
        <ele>437.8</ele>
        <time>2013-03-10T08:58:51.65Z</time>
      </trkpt>
      <trkpt lat="45.86656" lon="4.7943">
        <ele>437.8</ele>
        <time>2013-03-10T08:58:52.56Z</time>
      </trkpt>
      <trkpt lat="45.86656" lon="4.79434">
        <ele>437.9</ele>
        <time>2013-03-10T08:58:53.67Z</time>
      </trkpt>
      <trkpt lat="45.86656" lon="4.79442">
        <ele>438.2</ele>
        <time>2013-03-10T08:58:55.56Z</time>
      </trkpt>
      <trkpt lat="45.86656" lon="4.79446">
        <ele>438.4</ele>
        <time>2013-03-10T08:58:56.65Z</time>
      </trkpt>
      <trkpt lat="45.86657" lon="4.79453">
        <ele>438.6</ele>
        <time>2013-03-10T08:58:58.75Z</time>
      </trkpt>
      <trkpt lat="45.86657" lon="4.7946">
        <ele>438.1</ele>
        <time>2013-03-10T08:59:00.56Z</time>
      </trkpt>
      <trkpt lat="45.86657" lon="4.79464">
        <ele>439.1</ele>
        <time>2013-03-10T08:59:01.64Z</time>
      </trkpt>
      <trkpt lat="45.86657" lon="4.79467">
        <ele>439.2</ele>
        <time>2013-03-10T08:59:02.56Z</time>
      </trkpt>
      <trkpt lat="45.86657" lon="4.79471">
        <ele>439.3</ele>
        <time>2013-03-10T08:59:03.66Z</time>
      </trkpt>
      <trkpt lat="45.86658" lon="4.79478">
        <ele>439.4</ele>
        <time>2013-03-10T08:59:05.57Z</time>
      </trkpt>
      <trkpt lat="45.86658" lon="4.79482">
        <ele>439.4</ele>
        <time>2013-03-10T08:59:06.64Z</time>
      </trkpt>
      <trkpt lat="45.86658" lon="4.79486">
        <ele>439.5</ele>
        <time>2013-03-10T08:59:07.56Z</time>
      </trkpt>
      <trkpt lat="45.86658" lon="4.7949">
        <ele>439.6</ele>
        <time>2013-03-10T08:59:08.68Z</time>
      </trkpt>
      <trkpt lat="45.86658" lon="4.79497">
        <ele>439.6</ele>
        <time>2013-03-10T08:59:10.64Z</time>
      </trkpt>
      <trkpt lat="45.86658" lon="4.79501">
        <ele>439.8</ele>
        <time>2013-03-10T08:59:11.56Z</time>
      </trkpt>
      <trkpt lat="45.86657" lon="4.79505">
        <ele>440.1</ele>
        <time>2013-03-10T08:59:12.64Z</time>
      </trkpt>
      <trkpt lat="45.86657" lon="4.79509">
        <ele>440.2</ele>
        <time>2013-03-10T08:59:13.56Z</time>
      </trkpt>
      <trkpt lat="45.86657" lon="4.79512">
        <ele>440.4</ele>
        <time>2013-03-10T08:59:14.64Z</time>
      </trkpt>
      <trkpt lat="45.86655" lon="4.7952">
        <ele>440.9</ele>
        <time>2013-03-10T08:59:16.57Z</time>
      </trkpt>
      <trkpt lat="45.86655" lon="4.79524">
        <ele>441.2</ele>
        <time>2013-03-10T08:59:17.62Z</time>
      </trkpt>
      <trkpt lat="45.86654" lon="4.79527">
        <ele>441.4</ele>
        <time>2013-03-10T08:59:18.56Z</time>
      </trkpt>
      <trkpt lat="45.86654" lon="4.7953">
        <ele>441.4</ele>
        <time>2013-03-10T08:59:19.65Z</time>
      </trkpt>
      <trkpt lat="45.86654" lon="4.79533">
        <ele>441.6</ele>
        <time>2013-03-10T08:59:20.56Z</time>
      </trkpt>
      <trkpt lat="45.86654" lon="4.79537">
        <ele>441.7</ele>
        <time>2013-03-10T08:59:21.64Z</time>
      </trkpt>
      <trkpt lat="45.86652" lon="4.79544">
        <ele>442.2</ele>
        <time>2013-03-10T08:59:23.65Z</time>
      </trkpt>
      <trkpt lat="45.86651" lon="4.79551">
        <ele>442.5</ele>
        <time>2013-03-10T08:59:25.64Z</time>
      </trkpt>
      <trkpt lat="45.86652" lon="4.79555">
        <ele>442.3</ele>
        <time>2013-03-10T08:59:26.56Z</time>
      </trkpt>
      <trkpt lat="45.86653" lon="4.79558">
        <ele>442.1</ele>
        <time>2013-03-10T08:59:27.64Z</time>
      </trkpt>
      <trkpt lat="45.86652" lon="4.79566">
        <ele>442.5</ele>
        <time>2013-03-10T08:59:29.64Z</time>
      </trkpt>
      <trkpt lat="45.86652" lon="4.79571">
        <ele>442.4</ele>
        <time>2013-03-10T08:59:30.56Z</time>
      </trkpt>
      <trkpt lat="45.86653" lon="4.79575">
        <ele>442.3</ele>
        <time>2013-03-10T08:59:31.64Z</time>
      </trkpt>
      <trkpt lat="45.86654" lon="4.7958">
        <ele>442.1</ele>
        <time>2013-03-10T08:59:32.56Z</time>
      </trkpt>
      <trkpt lat="45.86654" lon="4.79585">
        <ele>442.1</ele>
        <time>2013-03-10T08:59:33.73Z</time>
      </trkpt>
      <trkpt lat="45.86657" lon="4.79593">
        <ele>441.9</ele>
        <time>2013-03-10T08:59:35.64Z</time>
      </trkpt>
      <trkpt lat="45.86657" lon="4.79597">
        <ele>442.2</ele>
        <time>2013-03-10T08:59:36.56Z</time>
      </trkpt>
      <trkpt lat="45.86657" lon="4.79601">
        <ele>442.5</ele>
        <time>2013-03-10T08:59:37.64Z</time>
      </trkpt>
      <trkpt lat="45.86658" lon="4.79605">
        <ele>442.4</ele>
        <time>2013-03-10T08:59:38.56Z</time>
      </trkpt>
      <trkpt lat="45.86659" lon="4.79608">
        <ele>442.3</ele>
        <time>2013-03-10T08:59:39.64Z</time>
      </trkpt>
      <trkpt lat="45.8666" lon="4.79613">
        <ele>442.2</ele>
        <time>2013-03-10T08:59:40.56Z</time>
      </trkpt>
      <trkpt lat="45.86662" lon="4.79617">
        <ele>442.1</ele>
        <time>2013-03-10T08:59:41.62Z</time>
      </trkpt>
      <trkpt lat="45.86662" lon="4.7962">
        <ele>442.1</ele>
        <time>2013-03-10T08:59:42.56Z</time>
      </trkpt>
      <trkpt lat="45.86662" lon="4.79624">
        <ele>442.3</ele>
        <time>2013-03-10T08:59:43.68Z</time>
      </trkpt>
      <trkpt lat="45.86663" lon="4.79633">
        <ele>442.7</ele>
        <time>2013-03-10T08:59:45.56Z</time>
      </trkpt>
      <trkpt lat="45.86662" lon="4.79636">
        <ele>443.4</ele>
        <time>2013-03-10T08:59:46.56Z</time>
      </trkpt>
      <trkpt lat="45.86661" lon="4.79638">
        <ele>443.7</ele>
        <time>2013-03-10T08:59:47.56Z</time>
      </trkpt>
      <trkpt lat="45.8666" lon="4.79638">
        <ele>444.2</ele>
        <time>2013-03-10T08:59:48.56Z</time>
      </trkpt>
      <trkpt lat="45.86656" lon="4.79637">
        <ele>445.3</ele>
        <time>2013-03-10T08:59:50.43Z</time>
      </trkpt>
      <trkpt lat="45.86655" lon="4.79635">
        <ele>445.7</ele>
        <time>2013-03-10T08:59:51.31Z</time>
      </trkpt>
      <trkpt lat="45.86653" lon="4.79633">
        <ele>445.9</ele>
        <time>2013-03-10T08:59:52.66Z</time>
      </trkpt>
      <trkpt lat="45.86652" lon="4.79632">
        <ele>446.1</ele>
        <time>2013-03-10T08:59:53.56Z</time>
      </trkpt>
      <trkpt lat="45.86651" lon="4.7963">
        <ele>446.3</ele>
        <time>2013-03-10T08:59:54.56Z</time>
      </trkpt>
      <trkpt lat="45.8665" lon="4.79628">
        <ele>446.5</ele>
        <time>2013-03-10T08:59:55.56Z</time>
      </trkpt>
      <trkpt lat="45.86648" lon="4.79627">
        <ele>447</ele>
        <time>2013-03-10T08:59:56.56Z</time>
      </trkpt>
      <trkpt lat="45.86646" lon="4.79626">
        <ele>447.6</ele>
        <time>2013-03-10T08:59:57.56Z</time>
      </trkpt>
      <trkpt lat="45.86645" lon="4.79623">
        <ele>447.9</ele>
        <time>2013-03-10T08:59:58.56Z</time>
      </trkpt>
      <trkpt lat="45.86644" lon="4.7962">
        <ele>451.2</ele>
        <time>2013-03-10T08:59:59.72Z</time>
      </trkpt>
      <trkpt lat="45.86642" lon="4.79616">
        <ele>448.3</ele>
        <time>2013-03-10T09:00:01.43Z</time>
      </trkpt>
      <trkpt lat="45.86641" lon="4.79613">
        <ele>448.5</ele>
        <time>2013-03-10T09:00:02.67Z</time>
      </trkpt>
      <trkpt lat="45.86639" lon="4.79611">
        <ele>448.9</ele>
        <time>2013-03-10T09:00:03.56Z</time>
      </trkpt>
      <trkpt lat="45.86636" lon="4.79607">
        <ele>450.5</ele>
        <time>2013-03-10T09:00:05.56Z</time>
      </trkpt>
      <trkpt lat="45.86635" lon="4.79605">
        <ele>450.9</ele>
        <time>2013-03-10T09:00:06.56Z</time>
      </trkpt>
      <trkpt lat="45.86633" lon="4.79602">
        <ele>451.4</ele>
        <time>2013-03-10T09:00:07.56Z</time>
      </trkpt>
      <trkpt lat="45.86632" lon="4.79598">
        <ele>451.8</ele>
        <time>2013-03-10T09:00:08.56Z</time>
      </trkpt>
      <trkpt lat="45.86631" lon="4.79595">
        <ele>452.1</ele>
        <time>2013-03-10T09:00:09.56Z</time>
      </trkpt>
      <trkpt lat="45.8663" lon="4.79593">
        <ele>452.2</ele>
        <time>2013-03-10T09:00:10.56Z</time>
      </trkpt>
      <trkpt lat="45.86629" lon="4.7959">
        <ele>452.7</ele>
        <time>2013-03-10T09:00:11.56Z</time>
      </trkpt>
      <trkpt lat="45.86628" lon="4.79588">
        <ele>453</ele>
        <time>2013-03-10T09:00:12.56Z</time>
      </trkpt>
      <trkpt lat="45.86626" lon="4.79586">
        <ele>453.6</ele>
        <time>2013-03-10T09:00:13.56Z</time>
      </trkpt>
      <trkpt lat="45.86624" lon="4.79581">
        <ele>454.4</ele>
        <time>2013-03-10T09:00:15.43Z</time>
      </trkpt>
      <trkpt lat="45.86623" lon="4.79579">
        <ele>454.7</ele>
        <time>2013-03-10T09:00:16.41Z</time>
      </trkpt>
      <trkpt lat="45.86623" lon="4.79576">
        <ele>454.9</ele>
        <time>2013-03-10T09:00:17.66Z</time>
      </trkpt>
      <trkpt lat="45.86622" lon="4.79574">
        <ele>455.3</ele>
        <time>2013-03-10T09:00:18.56Z</time>
      </trkpt>
      <trkpt lat="45.8662" lon="4.79572">
        <ele>455.8</ele>
        <time>2013-03-10T09:00:19.56Z</time>
      </trkpt>
      <trkpt lat="45.86619" lon="4.79571">
        <ele>456.6</ele>
        <time>2013-03-10T09:00:20.56Z</time>
      </trkpt>
      <trkpt lat="45.86617" lon="4.79569">
        <ele>457.1</ele>
        <time>2013-03-10T09:00:21.56Z</time>
      </trkpt>
      <trkpt lat="45.86616" lon="4.79567">
        <ele>457.5</ele>
        <time>2013-03-10T09:00:22.56Z</time>
      </trkpt>
      <trkpt lat="45.86615" lon="4.79566">
        <ele>457.8</ele>
        <time>2013-03-10T09:00:23.56Z</time>
      </trkpt>
      <trkpt lat="45.86615" lon="4.79563">
        <ele>458</ele>
        <time>2013-03-10T09:00:24.56Z</time>
      </trkpt>
      <trkpt lat="45.86613" lon="4.7956">
        <ele>458.4</ele>
        <time>2013-03-10T09:00:25.56Z</time>
      </trkpt>
      <trkpt lat="45.86612" lon="4.79557">
        <ele>458.7</ele>
        <time>2013-03-10T09:00:26.56Z</time>
      </trkpt>
      <trkpt lat="45.86611" lon="4.79554">
        <ele>458.7</ele>
        <time>2013-03-10T09:00:27.56Z</time>
      </trkpt>
      <trkpt lat="45.86609" lon="4.79549">
        <ele>459.7</ele>
        <time>2013-03-10T09:00:29.42Z</time>
      </trkpt>
      <trkpt lat="45.86607" lon="4.79544">
        <ele>460.3</ele>
        <time>2013-03-10T09:00:31.42Z</time>
      </trkpt>
      <trkpt lat="45.86606" lon="4.79542">
        <ele>460.6</ele>
        <time>2013-03-10T09:00:32.42Z</time>
      </trkpt>
      <trkpt lat="45.86605" lon="4.79539">
        <ele>460.8</ele>
        <time>2013-03-10T09:00:33.42Z</time>
      </trkpt>
      <trkpt lat="45.86604" lon="4.79536">
        <ele>461.1</ele>
        <time>2013-03-10T09:00:34.38Z</time>
      </trkpt>
      <trkpt lat="45.86601" lon="4.79532">
        <ele>461.8</ele>
        <time>2013-03-10T09:00:36.42Z</time>
      </trkpt>
      <trkpt lat="45.86599" lon="4.79531">
        <ele>462.3</ele>
        <time>2013-03-10T09:00:37.42Z</time>
      </trkpt>
      <trkpt lat="45.86598" lon="4.7953">
        <ele>462.7</ele>
        <time>2013-03-10T09:00:38.42Z</time>
      </trkpt>
      <trkpt lat="45.86596" lon="4.79528">
        <ele>463.1</ele>
        <time>2013-03-10T09:00:39.56Z</time>
      </trkpt>
      <trkpt lat="45.86594" lon="4.79526">
        <ele>463.4</ele>
        <time>2013-03-10T09:00:40.56Z</time>
      </trkpt>
      <trkpt lat="45.86592" lon="4.79524">
        <ele>463.9</ele>
        <time>2013-03-10T09:00:41.57Z</time>
      </trkpt>
      <trkpt lat="45.8659" lon="4.79522">
        <ele>464.2</ele>
        <time>2013-03-10T09:00:42.56Z</time>
      </trkpt>
      <trkpt lat="45.86589" lon="4.7952">
        <ele>464.5</ele>
        <time>2013-03-10T09:00:43.56Z</time>
      </trkpt>
      <trkpt lat="45.86588" lon="4.79519">
        <ele>464.8</ele>
        <time>2013-03-10T09:00:44.56Z</time>
      </trkpt>
      <trkpt lat="45.86586" lon="4.79518">
        <ele>465.3</ele>
        <time>2013-03-10T09:00:45.56Z</time>
      </trkpt>
      <trkpt lat="45.86584" lon="4.79516">
        <ele>465.5</ele>
        <time>2013-03-10T09:00:46.58Z</time>
      </trkpt>
      <trkpt lat="45.86583" lon="4.79514">
        <ele>465.8</ele>
        <time>2013-03-10T09:00:47.56Z</time>
      </trkpt>
      <trkpt lat="45.86582" lon="4.79512">
        <ele>465.8</ele>
        <time>2013-03-10T09:00:48.56Z</time>
      </trkpt>
      <trkpt lat="45.8658" lon="4.7951">
        <ele>466.3</ele>
        <time>2013-03-10T09:00:49.56Z</time>
      </trkpt>
      <trkpt lat="45.86578" lon="4.79508">
        <ele>467.3</ele>
        <time>2013-03-10T09:00:50.57Z</time>
      </trkpt>
      <trkpt lat="45.86572" lon="4.79505">
        <ele>469.2</ele>
        <time>2013-03-10T09:00:52.56Z</time>
      </trkpt>
      <trkpt lat="45.86571" lon="4.79503">
        <ele>469.2</ele>
        <time>2013-03-10T09:00:53.56Z</time>
      </trkpt>
      <trkpt lat="45.86569" lon="4.795">
        <ele>469.2</ele>
        <time>2013-03-10T09:00:54.56Z</time>
      </trkpt>
      <trkpt lat="45.86567" lon="4.79497">
        <ele>469.5</ele>
        <time>2013-03-10T09:00:55.56Z</time>
      </trkpt>
      <trkpt lat="45.86565" lon="4.79495">
        <ele>469.8</ele>
        <time>2013-03-10T09:00:56.56Z</time>
      </trkpt>
      <trkpt lat="45.86563" lon="4.79493">
        <ele>470.3</ele>
        <time>2013-03-10T09:00:57.57Z</time>
      </trkpt>
      <trkpt lat="45.86561" lon="4.79491">
        <ele>470.5</ele>
        <time>2013-03-10T09:00:58.56Z</time>
      </trkpt>
      <trkpt lat="45.86559" lon="4.79489">
        <ele>469.5</ele>
        <time>2013-03-10T09:00:59.59Z</time>
      </trkpt>
      <trkpt lat="45.86557" lon="4.79486">
        <ele>471</ele>
        <time>2013-03-10T09:01:00.62Z</time>
      </trkpt>
      <trkpt lat="45.86555" lon="4.79484">
        <ele>471.2</ele>
        <time>2013-03-10T09:01:01.6Z</time>
      </trkpt>
      <trkpt lat="45.86554" lon="4.79484">
        <ele>471.9</ele>
        <time>2013-03-10T09:01:02.62Z</time>
      </trkpt>
      <trkpt lat="45.86551" lon="4.79482">
        <ele>472.7</ele>
        <time>2013-03-10T09:01:03.73Z</time>
      </trkpt>
      <trkpt lat="45.86547" lon="4.79477">
        <ele>473.3</ele>
        <time>2013-03-10T09:01:05.56Z</time>
      </trkpt>
      <trkpt lat="45.86545" lon="4.79475">
        <ele>473.6</ele>
        <time>2013-03-10T09:01:06.56Z</time>
      </trkpt>
      <trkpt lat="45.86543" lon="4.79473">
        <ele>473.6</ele>
        <time>2013-03-10T09:01:07.56Z</time>
      </trkpt>
      <trkpt lat="45.86542" lon="4.7947">
        <ele>473.5</ele>
        <time>2013-03-10T09:01:08.56Z</time>
      </trkpt>
      <trkpt lat="45.86541" lon="4.79466">
        <ele>473</ele>
        <time>2013-03-10T09:01:09.56Z</time>
      </trkpt>
      <trkpt lat="45.8654" lon="4.79464">
        <ele>473</ele>
        <time>2013-03-10T09:01:10.56Z</time>
      </trkpt>
      <trkpt lat="45.86538" lon="4.79462">
        <ele>473.3</ele>
        <time>2013-03-10T09:01:11.56Z</time>
      </trkpt>
      <trkpt lat="45.86536" lon="4.7946">
        <ele>473.6</ele>
        <time>2013-03-10T09:01:12.56Z</time>
      </trkpt>
      <trkpt lat="45.86534" lon="4.79459">
        <ele>473.8</ele>
        <time>2013-03-10T09:01:13.56Z</time>
      </trkpt>
      <trkpt lat="45.86533" lon="4.79457">
        <ele>473.9</ele>
        <time>2013-03-10T09:01:14.56Z</time>
      </trkpt>
      <trkpt lat="45.86532" lon="4.79456">
        <ele>473.9</ele>
        <time>2013-03-10T09:01:15.56Z</time>
      </trkpt>
      <trkpt lat="45.8653" lon="4.79455">
        <ele>474.2</ele>
        <time>2013-03-10T09:01:16.57Z</time>
      </trkpt>
      <trkpt lat="45.86528" lon="4.79453">
        <ele>474.4</ele>
        <time>2013-03-10T09:01:17.61Z</time>
      </trkpt>
      <trkpt lat="45.86526" lon="4.79452">
        <ele>475</ele>
        <time>2013-03-10T09:01:18.64Z</time>
      </trkpt>
      <trkpt lat="45.86522" lon="4.7945">
        <ele>475.8</ele>
        <time>2013-03-10T09:01:20.56Z</time>
      </trkpt>
      <trkpt lat="45.86521" lon="4.79447">
        <ele>475.8</ele>
        <time>2013-03-10T09:01:21.56Z</time>
      </trkpt>
      <trkpt lat="45.86519" lon="4.79446">
        <ele>475.9</ele>
        <time>2013-03-10T09:01:22.56Z</time>
      </trkpt>
      <trkpt lat="45.86517" lon="4.79444">
        <ele>476.1</ele>
        <time>2013-03-10T09:01:23.56Z</time>
      </trkpt>
      <trkpt lat="45.86515" lon="4.79442">
        <ele>476.6</ele>
        <time>2013-03-10T09:01:24.56Z</time>
      </trkpt>
      <trkpt lat="45.86513" lon="4.79441">
        <ele>477.1</ele>
        <time>2013-03-10T09:01:25.56Z</time>
      </trkpt>
      <trkpt lat="45.86512" lon="4.79439">
        <ele>477.2</ele>
        <time>2013-03-10T09:01:26.56Z</time>
      </trkpt>
      <trkpt lat="45.86511" lon="4.79436">
        <ele>477</ele>
        <time>2013-03-10T09:01:27.56Z</time>
      </trkpt>
      <trkpt lat="45.8651" lon="4.79433">
        <ele>476.9</ele>
        <time>2013-03-10T09:01:28.56Z</time>
      </trkpt>
      <trkpt lat="45.86508" lon="4.79432">
        <ele>477.2</ele>
        <time>2013-03-10T09:01:29.56Z</time>
      </trkpt>
      <trkpt lat="45.86506" lon="4.7943">
        <ele>477.4</ele>
        <time>2013-03-10T09:01:30.56Z</time>
      </trkpt>
      <trkpt lat="45.86505" lon="4.79428">
        <ele>477.3</ele>
        <time>2013-03-10T09:01:31.56Z</time>
      </trkpt>
      <trkpt lat="45.86503" lon="4.79426">
        <ele>477.3</ele>
        <time>2013-03-10T09:01:32.56Z</time>
      </trkpt>
      <trkpt lat="45.86502" lon="4.79424">
        <ele>477.2</ele>
        <time>2013-03-10T09:01:33.57Z</time>
      </trkpt>
      <trkpt lat="45.86501" lon="4.79422">
        <ele>477.2</ele>
        <time>2013-03-10T09:01:34.61Z</time>
      </trkpt>
      <trkpt lat="45.86499" lon="4.7942">
        <ele>477.5</ele>
        <time>2013-03-10T09:01:35.61Z</time>
      </trkpt>
      <trkpt lat="45.86496" lon="4.79418">
        <ele>477.8</ele>
        <time>2013-03-10T09:01:36.61Z</time>
      </trkpt>
      <trkpt lat="45.86494" lon="4.79416">
        <ele>477.9</ele>
        <time>2013-03-10T09:01:37.62Z</time>
      </trkpt>
      <trkpt lat="45.86492" lon="4.79413">
        <ele>478.1</ele>
        <time>2013-03-10T09:01:38.67Z</time>
      </trkpt>
      <trkpt lat="45.86487" lon="4.79408">
        <ele>478.8</ele>
        <time>2013-03-10T09:01:40.61Z</time>
      </trkpt>
      <trkpt lat="45.86484" lon="4.79405">
        <ele>479.1</ele>
        <time>2013-03-10T09:01:41.61Z</time>
      </trkpt>
      <trkpt lat="45.86481" lon="4.79403">
        <ele>479.6</ele>
        <time>2013-03-10T09:01:42.63Z</time>
      </trkpt>
      <trkpt lat="45.86475" lon="4.794">
        <ele>480.4</ele>
        <time>2013-03-10T09:01:44.61Z</time>
      </trkpt>
      <trkpt lat="45.86472" lon="4.79399">
        <ele>480.8</ele>
        <time>2013-03-10T09:01:45.6Z</time>
      </trkpt>
      <trkpt lat="45.8647" lon="4.79397">
        <ele>481.3</ele>
        <time>2013-03-10T09:01:46.6Z</time>
      </trkpt>
      <trkpt lat="45.86469" lon="4.79396">
        <ele>481.5</ele>
        <time>2013-03-10T09:01:47.6Z</time>
      </trkpt>
      <trkpt lat="45.86467" lon="4.79393">
        <ele>481.4</ele>
        <time>2013-03-10T09:01:48.68Z</time>
      </trkpt>
      <trkpt lat="45.86464" lon="4.79389">
        <ele>481.5</ele>
        <time>2013-03-10T09:01:50.57Z</time>
      </trkpt>
      <trkpt lat="45.86462" lon="4.79387">
        <ele>481.8</ele>
        <time>2013-03-10T09:01:51.6Z</time>
      </trkpt>
      <trkpt lat="45.8646" lon="4.79385">
        <ele>482</ele>
        <time>2013-03-10T09:01:52.6Z</time>
      </trkpt>
      <trkpt lat="45.86459" lon="4.79383">
        <ele>482.3</ele>
        <time>2013-03-10T09:01:53.66Z</time>
      </trkpt>
      <trkpt lat="45.86454" lon="4.79379">
        <ele>483.1</ele>
        <time>2013-03-10T09:01:55.56Z</time>
      </trkpt>
      <trkpt lat="45.86452" lon="4.79376">
        <ele>483.4</ele>
        <time>2013-03-10T09:01:56.6Z</time>
      </trkpt>
      <trkpt lat="45.86449" lon="4.79373">
        <ele>483.6</ele>
        <time>2013-03-10T09:01:57.6Z</time>
      </trkpt>
      <trkpt lat="45.86446" lon="4.7937">
        <ele>483.6</ele>
        <time>2013-03-10T09:01:58.64Z</time>
      </trkpt>
      <trkpt lat="45.86441" lon="4.79366">
        <ele>484</ele>
        <time>2013-03-10T09:02:00.58Z</time>
      </trkpt>
      <trkpt lat="45.86438" lon="4.79364">
        <ele>485.4</ele>
        <time>2013-03-10T09:02:01.62Z</time>
      </trkpt>
      <trkpt lat="45.86435" lon="4.79362">
        <ele>486.1</ele>
        <time>2013-03-10T09:02:03.56Z</time>
      </trkpt>
      <trkpt lat="45.86433" lon="4.79359">
        <ele>486.3</ele>
        <time>2013-03-10T09:02:04.56Z</time>
      </trkpt>
      <trkpt lat="45.86431" lon="4.79356">
        <ele>486.4</ele>
        <time>2013-03-10T09:02:05.56Z</time>
      </trkpt>
      <trkpt lat="45.8643" lon="4.79354">
        <ele>486.5</ele>
        <time>2013-03-10T09:02:06.56Z</time>
      </trkpt>
      <trkpt lat="45.86428" lon="4.79352">
        <ele>486.8</ele>
        <time>2013-03-10T09:02:07.6Z</time>
      </trkpt>
      <trkpt lat="45.86425" lon="4.79349">
        <ele>487.1</ele>
        <time>2013-03-10T09:02:08.68Z</time>
      </trkpt>
      <trkpt lat="45.86423" lon="4.79344">
        <ele>486.7</ele>
        <time>2013-03-10T09:02:10.56Z</time>
      </trkpt>
      <trkpt lat="45.86421" lon="4.79342">
        <ele>486.7</ele>
        <time>2013-03-10T09:02:11.56Z</time>
      </trkpt>
      <trkpt lat="45.8642" lon="4.79339">
        <ele>486.4</ele>
        <time>2013-03-10T09:02:12.56Z</time>
      </trkpt>
      <trkpt lat="45.8642" lon="4.79336">
        <ele>485.9</ele>
        <time>2013-03-10T09:02:13.56Z</time>
      </trkpt>
      <trkpt lat="45.86419" lon="4.79334">
        <ele>485.6</ele>
        <time>2013-03-10T09:02:14.56Z</time>
      </trkpt>
      <trkpt lat="45.86417" lon="4.79331">
        <ele>485.6</ele>
        <time>2013-03-10T09:02:15.56Z</time>
      </trkpt>
      <trkpt lat="45.86415" lon="4.79329">
        <ele>486.2</ele>
        <time>2013-03-10T09:02:16.57Z</time>
      </trkpt>
      <trkpt lat="45.86413" lon="4.79326">
        <ele>486.5</ele>
        <time>2013-03-10T09:02:17.6Z</time>
      </trkpt>
      <trkpt lat="45.86411" lon="4.79324">
        <ele>486.8</ele>
        <time>2013-03-10T09:02:18.72Z</time>
      </trkpt>
      <trkpt lat="45.86408" lon="4.79319">
        <ele>487.4</ele>
        <time>2013-03-10T09:02:20.6Z</time>
      </trkpt>
      <trkpt lat="45.86406" lon="4.79317">
        <ele>487.5</ele>
        <time>2013-03-10T09:02:21.6Z</time>
      </trkpt>
      <trkpt lat="45.86405" lon="4.79315">
        <ele>487.7</ele>
        <time>2013-03-10T09:02:22.61Z</time>
      </trkpt>
      <trkpt lat="45.86401" lon="4.79311">
        <ele>487.9</ele>
        <time>2013-03-10T09:02:24.57Z</time>
      </trkpt>
      <trkpt lat="45.864" lon="4.79308">
        <ele>487.8</ele>
        <time>2013-03-10T09:02:25.56Z</time>
      </trkpt>
      <trkpt lat="45.86398" lon="4.79306">
        <ele>487.9</ele>
        <time>2013-03-10T09:02:26.56Z</time>
      </trkpt>
      <trkpt lat="45.86396" lon="4.79305">
        <ele>488.1</ele>
        <time>2013-03-10T09:02:27.56Z</time>
      </trkpt>
      <trkpt lat="45.86394" lon="4.79303">
        <ele>488.4</ele>
        <time>2013-03-10T09:02:28.56Z</time>
      </trkpt>
      <trkpt lat="45.86392" lon="4.79301">
        <ele>488.7</ele>
        <time>2013-03-10T09:02:29.69Z</time>
      </trkpt>
      <trkpt lat="45.86388" lon="4.79298">
        <ele>489.4</ele>
        <time>2013-03-10T09:02:31.56Z</time>
      </trkpt>
      <trkpt lat="45.86387" lon="4.79296">
        <ele>489.7</ele>
        <time>2013-03-10T09:02:32.56Z</time>
      </trkpt>
      <trkpt lat="45.86385" lon="4.79295">
        <ele>490</ele>
        <time>2013-03-10T09:02:33.57Z</time>
      </trkpt>
      <trkpt lat="45.86383" lon="4.7929">
        <ele>490.2</ele>
        <time>2013-03-10T09:02:35.56Z</time>
      </trkpt>
      <trkpt lat="45.86381" lon="4.79289">
        <ele>490.5</ele>
        <time>2013-03-10T09:02:36.62Z</time>
      </trkpt>
      <trkpt lat="45.86377" lon="4.79285">
        <ele>491</ele>
        <time>2013-03-10T09:02:38.56Z</time>
      </trkpt>
      <trkpt lat="45.86376" lon="4.79284">
        <ele>491.3</ele>
        <time>2013-03-10T09:02:39.56Z</time>
      </trkpt>
      <trkpt lat="45.86374" lon="4.79283">
        <ele>491.7</ele>
        <time>2013-03-10T09:02:40.56Z</time>
      </trkpt>
      <trkpt lat="45.86371" lon="4.79282">
        <ele>492.1</ele>
        <time>2013-03-10T09:02:41.57Z</time>
      </trkpt>
      <trkpt lat="45.8637" lon="4.79279">
        <ele>492.1</ele>
        <time>2013-03-10T09:02:42.56Z</time>
      </trkpt>
      <trkpt lat="45.86368" lon="4.79278">
        <ele>492.1</ele>
        <time>2013-03-10T09:02:43.56Z</time>
      </trkpt>
      <trkpt lat="45.86367" lon="4.79276">
        <ele>492.4</ele>
        <time>2013-03-10T09:02:44.59Z</time>
      </trkpt>
      <trkpt lat="45.86365" lon="4.79275">
        <ele>492.7</ele>
        <time>2013-03-10T09:02:45.59Z</time>
      </trkpt>
      <trkpt lat="45.86363" lon="4.79273">
        <ele>493</ele>
        <time>2013-03-10T09:02:46.59Z</time>
      </trkpt>
      <trkpt lat="45.86361" lon="4.7927">
        <ele>493.1</ele>
        <time>2013-03-10T09:02:47.6Z</time>
      </trkpt>
      <trkpt lat="45.8636" lon="4.79268">
        <ele>493.3</ele>
        <time>2013-03-10T09:02:48.64Z</time>
      </trkpt>
      <trkpt lat="45.86356" lon="4.79265">
        <ele>494</ele>
        <time>2013-03-10T09:02:50.57Z</time>
      </trkpt>
      <trkpt lat="45.86354" lon="4.79263">
        <ele>494.4</ele>
        <time>2013-03-10T09:02:51.62Z</time>
      </trkpt>
      <trkpt lat="45.8635" lon="4.79258">
        <ele>494.9</ele>
        <time>2013-03-10T09:02:53.56Z</time>
      </trkpt>
      <trkpt lat="45.86348" lon="4.79256">
        <ele>495.2</ele>
        <time>2013-03-10T09:02:54.56Z</time>
      </trkpt>
      <trkpt lat="45.86346" lon="4.79254">
        <ele>495.3</ele>
        <time>2013-03-10T09:02:55.56Z</time>
      </trkpt>
      <trkpt lat="45.86345" lon="4.79252">
        <ele>495.4</ele>
        <time>2013-03-10T09:02:56.56Z</time>
      </trkpt>
      <trkpt lat="45.86343" lon="4.7925">
        <ele>495.5</ele>
        <time>2013-03-10T09:02:57.56Z</time>
      </trkpt>
      <trkpt lat="45.86342" lon="4.79249">
        <ele>495.8</ele>
        <time>2013-03-10T09:02:58.56Z</time>
      </trkpt>
      <trkpt lat="45.86339" lon="4.79247">
        <ele>499.6</ele>
        <time>2013-03-10T09:02:59.64Z</time>
      </trkpt>
      <trkpt lat="45.86336" lon="4.79243">
        <ele>496.8</ele>
        <time>2013-03-10T09:03:01.57Z</time>
      </trkpt>
      <trkpt lat="45.86334" lon="4.79241">
        <ele>497.1</ele>
        <time>2013-03-10T09:03:02.56Z</time>
      </trkpt>
      <trkpt lat="45.86333" lon="4.79239">
        <ele>497.3</ele>
        <time>2013-03-10T09:03:03.56Z</time>
      </trkpt>
      <trkpt lat="45.86331" lon="4.79237">
        <ele>497.7</ele>
        <time>2013-03-10T09:03:04.69Z</time>
      </trkpt>
      <trkpt lat="45.86328" lon="4.79232">
        <ele>498.1</ele>
        <time>2013-03-10T09:03:06.56Z</time>
      </trkpt>
      <trkpt lat="45.86326" lon="4.79229">
        <ele>498.2</ele>
        <time>2013-03-10T09:03:07.56Z</time>
      </trkpt>
      <trkpt lat="45.86324" lon="4.79227">
        <ele>498.4</ele>
        <time>2013-03-10T09:03:08.56Z</time>
      </trkpt>
      <trkpt lat="45.86323" lon="4.79225">
        <ele>498.5</ele>
        <time>2013-03-10T09:03:09.56Z</time>
      </trkpt>
      <trkpt lat="45.86321" lon="4.79222">
        <ele>498.7</ele>
        <time>2013-03-10T09:03:10.58Z</time>
      </trkpt>
      <trkpt lat="45.86319" lon="4.79221">
        <ele>498.9</ele>
        <time>2013-03-10T09:03:11.62Z</time>
      </trkpt>
      <trkpt lat="45.86315" lon="4.79215">
        <ele>499.3</ele>
        <time>2013-03-10T09:03:13.56Z</time>
      </trkpt>
      <trkpt lat="45.86312" lon="4.79212">
        <ele>499.5</ele>
        <time>2013-03-10T09:03:14.57Z</time>
      </trkpt>
      <trkpt lat="45.86311" lon="4.79209">
        <ele>499.7</ele>
        <time>2013-03-10T09:03:15.56Z</time>
      </trkpt>
      <trkpt lat="45.86309" lon="4.79207">
        <ele>500</ele>
        <time>2013-03-10T09:03:16.64Z</time>
      </trkpt>
      <trkpt lat="45.86305" lon="4.79204">
        <ele>500.9</ele>
        <time>2013-03-10T09:03:18.56Z</time>
      </trkpt>
      <trkpt lat="45.86302" lon="4.79202">
        <ele>501.2</ele>
        <time>2013-03-10T09:03:19.58Z</time>
      </trkpt>
      <trkpt lat="45.863" lon="4.792">
        <ele>501.4</ele>
        <time>2013-03-10T09:03:20.58Z</time>
      </trkpt>
      <trkpt lat="45.86298" lon="4.79198">
        <ele>501.7</ele>
        <time>2013-03-10T09:03:21.66Z</time>
      </trkpt>
      <trkpt lat="45.86294" lon="4.79195">
        <ele>502.1</ele>
        <time>2013-03-10T09:03:23.56Z</time>
      </trkpt>
      <trkpt lat="45.86293" lon="4.79193">
        <ele>502</ele>
        <time>2013-03-10T09:03:24.58Z</time>
      </trkpt>
      <trkpt lat="45.86291" lon="4.7919">
        <ele>501.8</ele>
        <time>2013-03-10T09:03:25.58Z</time>
      </trkpt>
      <trkpt lat="45.86289" lon="4.79188">
        <ele>501.7</ele>
        <time>2013-03-10T09:03:26.58Z</time>
      </trkpt>
      <trkpt lat="45.86286" lon="4.79186">
        <ele>501.6</ele>
        <time>2013-03-10T09:03:27.58Z</time>
      </trkpt>
      <trkpt lat="45.86283" lon="4.79184">
        <ele>501.8</ele>
        <time>2013-03-10T09:03:28.74Z</time>
      </trkpt>
      <trkpt lat="45.86279" lon="4.79178">
        <ele>501.4</ele>
        <time>2013-03-10T09:03:30.62Z</time>
      </trkpt>
      <trkpt lat="45.86274" lon="4.79173">
        <ele>501.9</ele>
        <time>2013-03-10T09:03:32.56Z</time>
      </trkpt>
      <trkpt lat="45.86272" lon="4.79171">
        <ele>502.4</ele>
        <time>2013-03-10T09:03:33.57Z</time>
      </trkpt>
      <trkpt lat="45.86267" lon="4.79167">
        <ele>503.7</ele>
        <time>2013-03-10T09:03:35.58Z</time>
      </trkpt>
      <trkpt lat="45.86264" lon="4.79166">
        <ele>504.3</ele>
        <time>2013-03-10T09:03:36.62Z</time>
      </trkpt>
      <trkpt lat="45.86259" lon="4.79161">
        <ele>505</ele>
        <time>2013-03-10T09:03:38.57Z</time>
      </trkpt>
      <trkpt lat="45.86257" lon="4.79159">
        <ele>505.4</ele>
        <time>2013-03-10T09:03:39.58Z</time>
      </trkpt>
      <trkpt lat="45.86255" lon="4.79155">
        <ele>505.1</ele>
        <time>2013-03-10T09:03:40.58Z</time>
      </trkpt>
      <trkpt lat="45.86254" lon="4.79152">
        <ele>504.7</ele>
        <time>2013-03-10T09:03:41.62Z</time>
      </trkpt>
      <trkpt lat="45.86251" lon="4.79147">
        <ele>504.6</ele>
        <time>2013-03-10T09:03:43.56Z</time>
      </trkpt>
      <trkpt lat="45.86249" lon="4.79145">
        <ele>504.9</ele>
        <time>2013-03-10T09:03:44.58Z</time>
      </trkpt>
      <trkpt lat="45.86247" lon="4.79142">
        <ele>505.3</ele>
        <time>2013-03-10T09:03:45.62Z</time>
      </trkpt>
      <trkpt lat="45.86245" lon="4.79134">
        <ele>505</ele>
        <time>2013-03-10T09:03:47.56Z</time>
      </trkpt>
      <trkpt lat="45.86244" lon="4.7913">
        <ele>504.7</ele>
        <time>2013-03-10T09:03:48.66Z</time>
      </trkpt>
      <trkpt lat="45.86241" lon="4.79123">
        <ele>504.6</ele>
        <time>2013-03-10T09:03:50.63Z</time>
      </trkpt>
      <trkpt lat="45.86237" lon="4.79117">
        <ele>505</ele>
        <time>2013-03-10T09:03:52.56Z</time>
      </trkpt>
      <trkpt lat="45.86235" lon="4.79114">
        <ele>505</ele>
        <time>2013-03-10T09:03:53.56Z</time>
      </trkpt>
      <trkpt lat="45.86233" lon="4.79112">
        <ele>505</ele>
        <time>2013-03-10T09:03:54.57Z</time>
      </trkpt>
      <trkpt lat="45.86231" lon="4.79109">
        <ele>505.2</ele>
        <time>2013-03-10T09:03:55.58Z</time>
      </trkpt>
      <trkpt lat="45.8623" lon="4.79105">
        <ele>505.2</ele>
        <time>2013-03-10T09:03:56.57Z</time>
      </trkpt>
      <trkpt lat="45.86228" lon="4.79102">
        <ele>505.2</ele>
        <time>2013-03-10T09:03:57.63Z</time>
      </trkpt>
      <trkpt lat="45.86225" lon="4.79097">
        <ele>514.4</ele>
        <time>2013-03-10T09:03:59.62Z</time>
      </trkpt>
      <trkpt lat="45.86222" lon="4.79092">
        <ele>505.6</ele>
        <time>2013-03-10T09:04:01.62Z</time>
      </trkpt>
      <trkpt lat="45.86218" lon="4.79089">
        <ele>506.4</ele>
        <time>2013-03-10T09:04:03.56Z</time>
      </trkpt>
      <trkpt lat="45.86217" lon="4.79087">
        <ele>506.6</ele>
        <time>2013-03-10T09:04:04.67Z</time>
      </trkpt>
      <trkpt lat="45.86214" lon="4.79085">
        <ele>507.2</ele>
        <time>2013-03-10T09:04:06.56Z</time>
      </trkpt>
      <trkpt lat="45.86212" lon="4.79084">
        <ele>507.6</ele>
        <time>2013-03-10T09:04:07.62Z</time>
      </trkpt>
      <trkpt lat="45.86207" lon="4.7908">
        <ele>509</ele>
        <time>2013-03-10T09:04:09.57Z</time>
      </trkpt>
      <trkpt lat="45.86206" lon="4.79078">
        <ele>509.4</ele>
        <time>2013-03-10T09:04:10.58Z</time>
      </trkpt>
      <trkpt lat="45.86204" lon="4.79077">
        <ele>509.8</ele>
        <time>2013-03-10T09:04:11.57Z</time>
      </trkpt>
      <trkpt lat="45.86202" lon="4.79075">
        <ele>510.3</ele>
        <time>2013-03-10T09:04:12.63Z</time>
      </trkpt>
      <trkpt lat="45.86197" lon="4.79071">
        <ele>511.2</ele>
        <time>2013-03-10T09:04:14.57Z</time>
      </trkpt>
      <trkpt lat="45.86196" lon="4.79069">
        <ele>511.5</ele>
        <time>2013-03-10T09:04:15.57Z</time>
      </trkpt>
      <trkpt lat="45.86194" lon="4.79067">
        <ele>511.7</ele>
        <time>2013-03-10T09:04:16.67Z</time>
      </trkpt>
      <trkpt lat="45.86191" lon="4.79062">
        <ele>511.9</ele>
        <time>2013-03-10T09:04:18.56Z</time>
      </trkpt>
      <trkpt lat="45.8619" lon="4.7906">
        <ele>512</ele>
        <time>2013-03-10T09:04:19.58Z</time>
      </trkpt>
      <trkpt lat="45.86189" lon="4.79058">
        <ele>512.1</ele>
        <time>2013-03-10T09:04:20.57Z</time>
      </trkpt>
      <trkpt lat="45.86186" lon="4.79056">
        <ele>512.4</ele>
        <time>2013-03-10T09:04:21.63Z</time>
      </trkpt>
      <trkpt lat="45.86184" lon="4.79051">
        <ele>512.6</ele>
        <time>2013-03-10T09:04:23.67Z</time>
      </trkpt>
      <trkpt lat="45.86181" lon="4.79048">
        <ele>513</ele>
        <time>2013-03-10T09:04:25.56Z</time>
      </trkpt>
      <trkpt lat="45.86178" lon="4.79046">
        <ele>513.4</ele>
        <time>2013-03-10T09:04:26.62Z</time>
      </trkpt>
      <trkpt lat="45.86174" lon="4.79043">
        <ele>514.2</ele>
        <time>2013-03-10T09:04:28.66Z</time>
      </trkpt>
      <trkpt lat="45.86171" lon="4.79038">
        <ele>514.3</ele>
        <time>2013-03-10T09:04:30.66Z</time>
      </trkpt>
      <trkpt lat="45.86169" lon="4.79033">
        <ele>514.2</ele>
        <time>2013-03-10T09:04:32.66Z</time>
      </trkpt>
      <trkpt lat="45.86167" lon="4.79031">
        <ele>514.4</ele>
        <time>2013-03-10T09:04:33.57Z</time>
      </trkpt>
      <trkpt lat="45.86165" lon="4.79028">
        <ele>514.4</ele>
        <time>2013-03-10T09:04:34.56Z</time>
      </trkpt>
      <trkpt lat="45.86164" lon="4.79024">
        <ele>514.2</ele>
        <time>2013-03-10T09:04:35.66Z</time>
      </trkpt>
      <trkpt lat="45.8616" lon="4.79019">
        <ele>514.2</ele>
        <time>2013-03-10T09:04:37.66Z</time>
      </trkpt>
      <trkpt lat="45.86157" lon="4.79014">
        <ele>514.2</ele>
        <time>2013-03-10T09:04:39.64Z</time>
      </trkpt>
      <trkpt lat="45.86155" lon="4.79008">
        <ele>513.8</ele>
        <time>2013-03-10T09:04:41.66Z</time>
      </trkpt>
      <trkpt lat="45.86154" lon="4.79005">
        <ele>513.7</ele>
        <time>2013-03-10T09:04:42.56Z</time>
      </trkpt>
      <trkpt lat="45.86152" lon="4.79002">
        <ele>513.7</ele>
        <time>2013-03-10T09:04:43.7Z</time>
      </trkpt>
      <trkpt lat="45.86147" lon="4.78996">
        <ele>514.3</ele>
        <time>2013-03-10T09:04:45.56Z</time>
      </trkpt>
      <trkpt lat="45.86145" lon="4.78993">
        <ele>514.4</ele>
        <time>2013-03-10T09:04:46.66Z</time>
      </trkpt>
      <trkpt lat="45.86143" lon="4.78988">
        <ele>514.3</ele>
        <time>2013-03-10T09:04:47.56Z</time>
      </trkpt>
      <trkpt lat="45.86141" lon="4.78984">
        <ele>514.1</ele>
        <time>2013-03-10T09:04:48.74Z</time>
      </trkpt>
      <trkpt lat="45.86139" lon="4.78978">
        <ele>513.8</ele>
        <time>2013-03-10T09:04:50.57Z</time>
      </trkpt>
      <trkpt lat="45.86138" lon="4.78974">
        <ele>513.7</ele>
        <time>2013-03-10T09:04:51.66Z</time>
      </trkpt>
      <trkpt lat="45.86136" lon="4.78968">
        <ele>513.5</ele>
        <time>2013-03-10T09:04:53.67Z</time>
      </trkpt>
      <trkpt lat="45.86132" lon="4.78964">
        <ele>514.1</ele>
        <time>2013-03-10T09:04:55.67Z</time>
      </trkpt>
      <trkpt lat="45.86129" lon="4.78959">
        <ele>514.3</ele>
        <time>2013-03-10T09:04:57.66Z</time>
      </trkpt>
      <trkpt lat="45.86127" lon="4.78955">
        <ele>513.9</ele>
        <time>2013-03-10T09:04:58.56Z</time>
      </trkpt>
      <trkpt lat="45.86125" lon="4.7895">
        <ele>525.7</ele>
        <time>2013-03-10T09:04:59.67Z</time>
      </trkpt>
      <trkpt lat="45.86119" lon="4.78944">
        <ele>513.9</ele>
        <time>2013-03-10T09:05:01.56Z</time>
      </trkpt>
      <trkpt lat="45.86116" lon="4.78941">
        <ele>514</ele>
        <time>2013-03-10T09:05:02.66Z</time>
      </trkpt>
      <trkpt lat="45.86111" lon="4.78934">
        <ele>514.1</ele>
        <time>2013-03-10T09:05:04.56Z</time>
      </trkpt>
      <trkpt lat="45.86109" lon="4.78932">
        <ele>514.3</ele>
        <time>2013-03-10T09:05:05.66Z</time>
      </trkpt>
      <trkpt lat="45.86104" lon="4.78927">
        <ele>514.7</ele>
        <time>2013-03-10T09:05:07.66Z</time>
      </trkpt>
      <trkpt lat="45.86102" lon="4.78925">
        <ele>514.9</ele>
        <time>2013-03-10T09:05:08.56Z</time>
      </trkpt>
      <trkpt lat="45.86101" lon="4.78924">
        <ele>515</ele>
        <time>2013-03-10T09:05:09.66Z</time>
      </trkpt>
      <trkpt lat="45.86097" lon="4.7892">
        <ele>514.9</ele>
        <time>2013-03-10T09:05:11.65Z</time>
      </trkpt>
      <trkpt lat="45.86095" lon="4.78918">
        <ele>515</ele>
        <time>2013-03-10T09:05:12.56Z</time>
      </trkpt>
      <trkpt lat="45.86093" lon="4.78916">
        <ele>515</ele>
        <time>2013-03-10T09:05:13.74Z</time>
      </trkpt>
      <trkpt lat="45.86089" lon="4.78913">
        <ele>515.3</ele>
        <time>2013-03-10T09:05:15.56Z</time>
      </trkpt>
      <trkpt lat="45.86087" lon="4.78911">
        <ele>515.3</ele>
        <time>2013-03-10T09:05:16.61Z</time>
      </trkpt>
      <trkpt lat="45.86082" lon="4.78909">
        <ele>515.8</ele>
        <time>2013-03-10T09:05:18.73Z</time>
      </trkpt>
      <trkpt lat="45.86078" lon="4.78906">
        <ele>516.3</ele>
        <time>2013-03-10T09:05:20.56Z</time>
      </trkpt>
      <trkpt lat="45.86075" lon="4.78904">
        <ele>516.7</ele>
        <time>2013-03-10T09:05:21.65Z</time>
      </trkpt>
      <trkpt lat="45.86073" lon="4.78903">
        <ele>517.1</ele>
        <time>2013-03-10T09:05:22.56Z</time>
      </trkpt>
      <trkpt lat="45.8607" lon="4.78901">
        <ele>517.3</ele>
        <time>2013-03-10T09:05:23.67Z</time>
      </trkpt>
      <trkpt lat="45.86064" lon="4.78898">
        <ele>518</ele>
        <time>2013-03-10T09:05:25.56Z</time>
      </trkpt>
      <trkpt lat="45.86062" lon="4.78896">
        <ele>518.3</ele>
        <time>2013-03-10T09:05:26.65Z</time>
      </trkpt>
      <trkpt lat="45.86055" lon="4.78893">
        <ele>519</ele>
        <time>2013-03-10T09:05:28.66Z</time>
      </trkpt>
      <trkpt lat="45.86049" lon="4.78892">
        <ele>519.7</ele>
        <time>2013-03-10T09:05:30.56Z</time>
      </trkpt>
      <trkpt lat="45.86045" lon="4.78891">
        <ele>520.1</ele>
        <time>2013-03-10T09:05:31.65Z</time>
      </trkpt>
      <trkpt lat="45.86043" lon="4.7889">
        <ele>520.1</ele>
        <time>2013-03-10T09:05:32.56Z</time>
      </trkpt>
      <trkpt lat="45.8604" lon="4.78888">
        <ele>520.1</ele>
        <time>2013-03-10T09:05:33.7Z</time>
      </trkpt>
      <trkpt lat="45.86036" lon="4.78885">
        <ele>519.9</ele>
        <time>2013-03-10T09:05:35.65Z</time>
      </trkpt>
      <trkpt lat="45.86034" lon="4.78884">
        <ele>519.8</ele>
        <time>2013-03-10T09:05:36.56Z</time>
      </trkpt>
      <trkpt lat="45.86032" lon="4.78883">
        <ele>520</ele>
        <time>2013-03-10T09:05:37.65Z</time>
      </trkpt>
      <trkpt lat="45.8603" lon="4.78882">
        <ele>520.1</ele>
        <time>2013-03-10T09:05:38.56Z</time>
      </trkpt>
      <trkpt lat="45.86028" lon="4.7888">
        <ele>520.1</ele>
        <time>2013-03-10T09:05:39.65Z</time>
      </trkpt>
      <trkpt lat="45.86026" lon="4.78878">
        <ele>520</ele>
        <time>2013-03-10T09:05:40.57Z</time>
      </trkpt>
      <trkpt lat="45.86024" lon="4.78876">
        <ele>520</ele>
        <time>2013-03-10T09:05:41.65Z</time>
      </trkpt>
      <trkpt lat="45.86019" lon="4.78873">
        <ele>520.1</ele>
        <time>2013-03-10T09:05:43.66Z</time>
      </trkpt>
      <trkpt lat="45.86013" lon="4.78871">
        <ele>520.6</ele>
        <time>2013-03-10T09:05:45.65Z</time>
      </trkpt>
      <trkpt lat="45.86009" lon="4.78869">
        <ele>520.8</ele>
        <time>2013-03-10T09:05:47.65Z</time>
      </trkpt>
      <trkpt lat="45.86006" lon="4.78867">
        <ele>520.8</ele>
        <time>2013-03-10T09:05:48.56Z</time>
      </trkpt>
      <trkpt lat="45.86004" lon="4.78866">
        <ele>520.9</ele>
        <time>2013-03-10T09:05:49.65Z</time>
      </trkpt>
      <trkpt lat="45.86001" lon="4.78864">
        <ele>520.6</ele>
        <time>2013-03-10T09:05:51.56Z</time>
      </trkpt>
      <trkpt lat="45.85999" lon="4.78863">
        <ele>520.7</ele>
        <time>2013-03-10T09:05:52.64Z</time>
      </trkpt>
      <trkpt lat="45.85997" lon="4.78861">
        <ele>520.7</ele>
        <time>2013-03-10T09:05:53.57Z</time>
      </trkpt>
      <trkpt lat="45.85995" lon="4.78859">
        <ele>520.7</ele>
        <time>2013-03-10T09:05:54.64Z</time>
      </trkpt>
      <trkpt lat="45.85989" lon="4.78855">
        <ele>520.9</ele>
        <time>2013-03-10T09:05:56.64Z</time>
      </trkpt>
      <trkpt lat="45.85986" lon="4.78853">
        <ele>521.1</ele>
        <time>2013-03-10T09:05:57.58Z</time>
      </trkpt>
      <trkpt lat="45.85983" lon="4.78853">
        <ele>521.6</ele>
        <time>2013-03-10T09:05:58.68Z</time>
      </trkpt>
      <trkpt lat="45.85981" lon="4.78851">
        <ele>527.8</ele>
        <time>2013-03-10T09:05:59.61Z</time>
      </trkpt>
      <trkpt lat="45.85975" lon="4.78847">
        <ele>521.9</ele>
        <time>2013-03-10T09:06:01.56Z</time>
      </trkpt>
      <trkpt lat="45.85973" lon="4.78845">
        <ele>521.9</ele>
        <time>2013-03-10T09:06:02.64Z</time>
      </trkpt>
      <trkpt lat="45.85967" lon="4.78842">
        <ele>522.3</ele>
        <time>2013-03-10T09:06:04.64Z</time>
      </trkpt>
      <trkpt lat="45.85965" lon="4.78841">
        <ele>522.6</ele>
        <time>2013-03-10T09:06:05.56Z</time>
      </trkpt>
      <trkpt lat="45.85963" lon="4.7884">
        <ele>522.8</ele>
        <time>2013-03-10T09:06:06.7Z</time>
      </trkpt>
      <trkpt lat="45.85957" lon="4.78837">
        <ele>523.3</ele>
        <time>2013-03-10T09:06:08.58Z</time>
      </trkpt>
      <trkpt lat="45.85955" lon="4.78836">
        <ele>523.6</ele>
        <time>2013-03-10T09:06:09.64Z</time>
      </trkpt>
      <trkpt lat="45.85952" lon="4.78836">
        <ele>524</ele>
        <time>2013-03-10T09:06:10.56Z</time>
      </trkpt>
      <trkpt lat="45.85949" lon="4.78835">
        <ele>524.4</ele>
        <time>2013-03-10T09:06:11.64Z</time>
      </trkpt>
      <trkpt lat="45.85947" lon="4.78833">
        <ele>524.5</ele>
        <time>2013-03-10T09:06:12.56Z</time>
      </trkpt>
      <trkpt lat="45.85945" lon="4.78833">
        <ele>524.7</ele>
        <time>2013-03-10T09:06:13.65Z</time>
      </trkpt>
      <trkpt lat="45.85942" lon="4.78831">
        <ele>524.9</ele>
        <time>2013-03-10T09:06:15.64Z</time>
      </trkpt>
      <trkpt lat="45.8594" lon="4.78831">
        <ele>525.1</ele>
        <time>2013-03-10T09:06:16.57Z</time>
      </trkpt>
      <trkpt lat="45.85939" lon="4.78831">
        <ele>525.3</ele>
        <time>2013-03-10T09:06:17.64Z</time>
      </trkpt>
      <trkpt lat="45.85937" lon="4.7883">
        <ele>525.4</ele>
        <time>2013-03-10T09:06:18.56Z</time>
      </trkpt>
      <trkpt lat="45.85935" lon="4.7883">
        <ele>525.6</ele>
        <time>2013-03-10T09:06:19.64Z</time>
      </trkpt>
      <trkpt lat="45.85932" lon="4.78829">
        <ele>526.1</ele>
        <time>2013-03-10T09:06:21.62Z</time>
      </trkpt>
      <trkpt lat="45.8593" lon="4.78828">
        <ele>526.1</ele>
        <time>2013-03-10T09:06:22.56Z</time>
      </trkpt>
      <trkpt lat="45.85929" lon="4.78829">
        <ele>526.4</ele>
        <time>2013-03-10T09:06:23.66Z</time>
      </trkpt>
      <trkpt lat="45.85926" lon="4.78828">
        <ele>526.7</ele>
        <time>2013-03-10T09:06:25.64Z</time>
      </trkpt>
      <trkpt lat="45.85922" lon="4.78827">
        <ele>527.2</ele>
        <time>2013-03-10T09:06:27.64Z</time>
      </trkpt>
      <trkpt lat="45.8592" lon="4.78827">
        <ele>527.5</ele>
        <time>2013-03-10T09:06:28.57Z</time>
      </trkpt>
      <trkpt lat="45.85918" lon="4.78827">
        <ele>527.9</ele>
        <time>2013-03-10T09:06:29.64Z</time>
      </trkpt>
      <trkpt lat="45.85916" lon="4.78826">
        <ele>528.1</ele>
        <time>2013-03-10T09:06:30.57Z</time>
      </trkpt>
      <trkpt lat="45.85913" lon="4.78825">
        <ele>528.4</ele>
        <time>2013-03-10T09:06:31.64Z</time>
      </trkpt>
      <trkpt lat="45.8591" lon="4.78825">
        <ele>528.8</ele>
        <time>2013-03-10T09:06:32.57Z</time>
      </trkpt>
      <trkpt lat="45.85908" lon="4.78825">
        <ele>529.3</ele>
        <time>2013-03-10T09:06:33.69Z</time>
      </trkpt>
      <trkpt lat="45.85902" lon="4.78825">
        <ele>530.3</ele>
        <time>2013-03-10T09:06:35.43Z</time>
      </trkpt>
      <trkpt lat="45.85899" lon="4.78823">
        <ele>530.6</ele>
        <time>2013-03-10T09:06:37.43Z</time>
      </trkpt>
      <trkpt lat="45.85896" lon="4.78822">
        <ele>530.7</ele>
        <time>2013-03-10T09:06:38.43Z</time>
      </trkpt>
      <trkpt lat="45.85894" lon="4.78822">
        <ele>530.9</ele>
        <time>2013-03-10T09:06:39.56Z</time>
      </trkpt>
      <trkpt lat="45.85892" lon="4.78822">
        <ele>531.1</ele>
        <time>2013-03-10T09:06:40.56Z</time>
      </trkpt>
      <trkpt lat="45.8589" lon="4.78821">
        <ele>531.3</ele>
        <time>2013-03-10T09:06:41.57Z</time>
      </trkpt>
      <trkpt lat="45.85888" lon="4.78822">
        <ele>531.9</ele>
        <time>2013-03-10T09:06:42.56Z</time>
      </trkpt>
      <trkpt lat="45.85886" lon="4.78821">
        <ele>531.9</ele>
        <time>2013-03-10T09:06:43.56Z</time>
      </trkpt>
      <trkpt lat="45.85884" lon="4.78822">
        <ele>532.1</ele>
        <time>2013-03-10T09:06:44.56Z</time>
      </trkpt>
      <trkpt lat="45.85883" lon="4.78822">
        <ele>532.3</ele>
        <time>2013-03-10T09:06:45.56Z</time>
      </trkpt>
      <trkpt lat="45.85881" lon="4.78822">
        <ele>532.7</ele>
        <time>2013-03-10T09:06:46.56Z</time>
      </trkpt>
      <trkpt lat="45.85879" lon="4.78822">
        <ele>532.8</ele>
        <time>2013-03-10T09:06:47.56Z</time>
      </trkpt>
      <trkpt lat="45.85876" lon="4.78822">
        <ele>532.9</ele>
        <time>2013-03-10T09:06:48.56Z</time>
      </trkpt>
      <trkpt lat="45.85874" lon="4.78822">
        <ele>533</ele>
        <time>2013-03-10T09:06:49.56Z</time>
      </trkpt>
      <trkpt lat="45.85872" lon="4.78821">
        <ele>533.1</ele>
        <time>2013-03-10T09:06:50.57Z</time>
      </trkpt>
      <trkpt lat="45.8587" lon="4.78821">
        <ele>533.3</ele>
        <time>2013-03-10T09:06:51.56Z</time>
      </trkpt>
      <trkpt lat="45.85868" lon="4.78822">
        <ele>533.6</ele>
        <time>2013-03-10T09:06:52.56Z</time>
      </trkpt>
      <trkpt lat="45.85866" lon="4.78822">
        <ele>533.8</ele>
        <time>2013-03-10T09:06:53.56Z</time>
      </trkpt>
      <trkpt lat="45.85865" lon="4.78823">
        <ele>534.3</ele>
        <time>2013-03-10T09:06:54.56Z</time>
      </trkpt>
      <trkpt lat="45.85862" lon="4.78824">
        <ele>534.8</ele>
        <time>2013-03-10T09:06:55.56Z</time>
      </trkpt>
      <trkpt lat="45.8586" lon="4.78825">
        <ele>535.3</ele>
        <time>2013-03-10T09:06:56.56Z</time>
      </trkpt>
      <trkpt lat="45.85856" lon="4.78827">
        <ele>535.5</ele>
        <time>2013-03-10T09:06:57.56Z</time>
      </trkpt>
      <trkpt lat="45.85853" lon="4.78827">
        <ele>535.5</ele>
        <time>2013-03-10T09:06:58.56Z</time>
      </trkpt>
      <trkpt lat="45.85845" lon="4.78825">
        <ele>536.1</ele>
        <time>2013-03-10T09:07:00.56Z</time>
      </trkpt>
      <trkpt lat="45.85842" lon="4.78823">
        <ele>533.8</ele>
        <time>2013-03-10T09:07:01.56Z</time>
      </trkpt>
      <trkpt lat="45.85839" lon="4.7882">
        <ele>533.2</ele>
        <time>2013-03-10T09:07:02.56Z</time>
      </trkpt>
      <trkpt lat="45.85836" lon="4.78817">
        <ele>532.7</ele>
        <time>2013-03-10T09:07:03.56Z</time>
      </trkpt>
      <trkpt lat="45.85833" lon="4.78815">
        <ele>532.3</ele>
        <time>2013-03-10T09:07:04.56Z</time>
      </trkpt>
      <trkpt lat="45.85829" lon="4.78813">
        <ele>532.1</ele>
        <time>2013-03-10T09:07:05.56Z</time>
      </trkpt>
      <trkpt lat="45.85825" lon="4.78812">
        <ele>531.9</ele>
        <time>2013-03-10T09:07:06.56Z</time>
      </trkpt>
      <trkpt lat="45.85821" lon="4.78812">
        <ele>531.8</ele>
        <time>2013-03-10T09:07:07.56Z</time>
      </trkpt>
      <trkpt lat="45.85818" lon="4.78813">
        <ele>531.9</ele>
        <time>2013-03-10T09:07:08.56Z</time>
      </trkpt>
      <trkpt lat="45.85815" lon="4.78815">
        <ele>531.9</ele>
        <time>2013-03-10T09:07:09.62Z</time>
      </trkpt>
      <trkpt lat="45.8581" lon="4.7882">
        <ele>531.7</ele>
        <time>2013-03-10T09:07:11.42Z</time>
      </trkpt>
      <trkpt lat="45.85808" lon="4.78824">
        <ele>531.6</ele>
        <time>2013-03-10T09:07:12.56Z</time>
      </trkpt>
      <trkpt lat="45.85806" lon="4.78827">
        <ele>531.3</ele>
        <time>2013-03-10T09:07:13.56Z</time>
      </trkpt>
      <trkpt lat="45.85804" lon="4.78832">
        <ele>531</ele>
        <time>2013-03-10T09:07:14.56Z</time>
      </trkpt>
      <trkpt lat="45.85803" lon="4.78835">
        <ele>530.8</ele>
        <time>2013-03-10T09:07:15.56Z</time>
      </trkpt>
      <trkpt lat="45.85802" lon="4.78839">
        <ele>530.7</ele>
        <time>2013-03-10T09:07:16.57Z</time>
      </trkpt>
      <trkpt lat="45.85801" lon="4.78847">
        <ele>530.5</ele>
        <time>2013-03-10T09:07:18.42Z</time>
      </trkpt>
      <trkpt lat="45.858" lon="4.78852">
        <ele>530.3</ele>
        <time>2013-03-10T09:07:19.42Z</time>
      </trkpt>
      <trkpt lat="45.85798" lon="4.78862">
        <ele>529.8</ele>
        <time>2013-03-10T09:07:21.42Z</time>
      </trkpt>
      <trkpt lat="45.85797" lon="4.78868">
        <ele>529</ele>
        <time>2013-03-10T09:07:22.42Z</time>
      </trkpt>
      <trkpt lat="45.85795" lon="4.78879">
        <ele>527.6</ele>
        <time>2013-03-10T09:07:24.42Z</time>
      </trkpt>
      <trkpt lat="45.85793" lon="4.78888">
        <ele>526.3</ele>
        <time>2013-03-10T09:07:26.4Z</time>
      </trkpt>
      <trkpt lat="45.85793" lon="4.78893">
        <ele>525.8</ele>
        <time>2013-03-10T09:07:27.42Z</time>
      </trkpt>
      <trkpt lat="45.85792" lon="4.78898">
        <ele>525.4</ele>
        <time>2013-03-10T09:07:28.66Z</time>
      </trkpt>
      <trkpt lat="45.85792" lon="4.78904">
        <ele>525</ele>
        <time>2013-03-10T09:07:29.56Z</time>
      </trkpt>
      <trkpt lat="45.85792" lon="4.78908">
        <ele>524.7</ele>
        <time>2013-03-10T09:07:30.56Z</time>
      </trkpt>
      <trkpt lat="45.85793" lon="4.78914">
        <ele>524.4</ele>
        <time>2013-03-10T09:07:31.56Z</time>
      </trkpt>
      <trkpt lat="45.85795" lon="4.78919">
        <ele>524.2</ele>
        <time>2013-03-10T09:07:32.56Z</time>
      </trkpt>
      <trkpt lat="45.85796" lon="4.78924">
        <ele>524</ele>
        <time>2013-03-10T09:07:33.57Z</time>
      </trkpt>
      <trkpt lat="45.85797" lon="4.78934">
        <ele>523.3</ele>
        <time>2013-03-10T09:07:35.75Z</time>
      </trkpt>
      <trkpt lat="45.85798" lon="4.7894">
        <ele>522.9</ele>
        <time>2013-03-10T09:07:36.62Z</time>
      </trkpt>
      <trkpt lat="45.85801" lon="4.7895">
        <ele>522.3</ele>
        <time>2013-03-10T09:07:38.66Z</time>
      </trkpt>
      <trkpt lat="45.85804" lon="4.7896">
        <ele>521.8</ele>
        <time>2013-03-10T09:07:40.62Z</time>
      </trkpt>
      <trkpt lat="45.85805" lon="4.78965">
        <ele>521.5</ele>
        <time>2013-03-10T09:07:41.62Z</time>
      </trkpt>
      <trkpt lat="45.85808" lon="4.78975">
        <ele>521</ele>
        <time>2013-03-10T09:07:43.65Z</time>
      </trkpt>
      <trkpt lat="45.8581" lon="4.78986">
        <ele>520.4</ele>
        <time>2013-03-10T09:07:45.56Z</time>
      </trkpt>
      <trkpt lat="45.85811" lon="4.78991">
        <ele>520.1</ele>
        <time>2013-03-10T09:07:46.57Z</time>
      </trkpt>
      <trkpt lat="45.85812" lon="4.78997">
        <ele>519.7</ele>
        <time>2013-03-10T09:07:47.56Z</time>
      </trkpt>
      <trkpt lat="45.85813" lon="4.79001">
        <ele>519.4</ele>
        <time>2013-03-10T09:07:48.56Z</time>
      </trkpt>
      <trkpt lat="45.85814" lon="4.79006">
        <ele>519.1</ele>
        <time>2013-03-10T09:07:49.61Z</time>
      </trkpt>
      <trkpt lat="45.85815" lon="4.79011">
        <ele>518.6</ele>
        <time>2013-03-10T09:07:50.67Z</time>
      </trkpt>
      <trkpt lat="45.85817" lon="4.79016">
        <ele>518.3</ele>
        <time>2013-03-10T09:07:51.56Z</time>
      </trkpt>
      <trkpt lat="45.85819" lon="4.79021">
        <ele>518</ele>
        <time>2013-03-10T09:07:52.61Z</time>
      </trkpt>
      <trkpt lat="45.8582" lon="4.79027">
        <ele>517.7</ele>
        <time>2013-03-10T09:07:53.65Z</time>
      </trkpt>
      <trkpt lat="45.85823" lon="4.79036">
        <ele>517</ele>
        <time>2013-03-10T09:07:55.56Z</time>
      </trkpt>
      <trkpt lat="45.85825" lon="4.79041">
        <ele>516.6</ele>
        <time>2013-03-10T09:07:56.56Z</time>
      </trkpt>
      <trkpt lat="45.85826" lon="4.79046">
        <ele>516.3</ele>
        <time>2013-03-10T09:07:57.56Z</time>
      </trkpt>
      <trkpt lat="45.85828" lon="4.7905">
        <ele>515.9</ele>
        <time>2013-03-10T09:07:58.56Z</time>
      </trkpt>
      <trkpt lat="45.8583" lon="4.79055">
        <ele>525.5</ele>
        <time>2013-03-10T09:07:59.59Z</time>
      </trkpt>
      <trkpt lat="45.85832" lon="4.7906">
        <ele>515.4</ele>
        <time>2013-03-10T09:08:00.62Z</time>
      </trkpt>
      <trkpt lat="45.85835" lon="4.79069">
        <ele>514.7</ele>
        <time>2013-03-10T09:08:02.61Z</time>
      </trkpt>
      <trkpt lat="45.85838" lon="4.79079">
        <ele>514</ele>
        <time>2013-03-10T09:08:04.61Z</time>
      </trkpt>
      <trkpt lat="45.8584" lon="4.79084">
        <ele>513.7</ele>
        <time>2013-03-10T09:08:05.61Z</time>
      </trkpt>
      <trkpt lat="45.85841" lon="4.79089">
        <ele>513.2</ele>
        <time>2013-03-10T09:08:06.61Z</time>
      </trkpt>
      <trkpt lat="45.85843" lon="4.79094">
        <ele>512.7</ele>
        <time>2013-03-10T09:08:07.63Z</time>
      </trkpt>
      <trkpt lat="45.85847" lon="4.79102">
        <ele>512.2</ele>
        <time>2013-03-10T09:08:09.56Z</time>
      </trkpt>
      <trkpt lat="45.85849" lon="4.79107">
        <ele>511.7</ele>
        <time>2013-03-10T09:08:10.56Z</time>
      </trkpt>
      <trkpt lat="45.8585" lon="4.79112">
        <ele>511.3</ele>
        <time>2013-03-10T09:08:11.56Z</time>
      </trkpt>
      <trkpt lat="45.85851" lon="4.79116">
        <ele>511.2</ele>
        <time>2013-03-10T09:08:12.56Z</time>
      </trkpt>
      <trkpt lat="45.85853" lon="4.7912">
        <ele>511.1</ele>
        <time>2013-03-10T09:08:13.56Z</time>
      </trkpt>
      <trkpt lat="45.85854" lon="4.79126">
        <ele>510.9</ele>
        <time>2013-03-10T09:08:14.61Z</time>
      </trkpt>
      <trkpt lat="45.85856" lon="4.7913">
        <ele>510.9</ele>
        <time>2013-03-10T09:08:15.59Z</time>
      </trkpt>
      <trkpt lat="45.85857" lon="4.79135">
        <ele>510.7</ele>
        <time>2013-03-10T09:08:16.66Z</time>
      </trkpt>
      <trkpt lat="45.8586" lon="4.79145">
        <ele>510.1</ele>
        <time>2013-03-10T09:08:18.56Z</time>
      </trkpt>
      <trkpt lat="45.85861" lon="4.7915">
        <ele>509.7</ele>
        <time>2013-03-10T09:08:19.56Z</time>
      </trkpt>
      <trkpt lat="45.85862" lon="4.79155">
        <ele>509.4</ele>
        <time>2013-03-10T09:08:20.61Z</time>
      </trkpt>
      <trkpt lat="45.85863" lon="4.7916">
        <ele>509.1</ele>
        <time>2013-03-10T09:08:21.61Z</time>
      </trkpt>
      <trkpt lat="45.85864" lon="4.79164">
        <ele>508.8</ele>
        <time>2013-03-10T09:08:22.61Z</time>
      </trkpt>
      <trkpt lat="45.85866" lon="4.79168">
        <ele>508.5</ele>
        <time>2013-03-10T09:08:23.67Z</time>
      </trkpt>
      <trkpt lat="45.85867" lon="4.79177">
        <ele>507.6</ele>
        <time>2013-03-10T09:08:25.56Z</time>
      </trkpt>
      <trkpt lat="45.85866" lon="4.79181">
        <ele>507.1</ele>
        <time>2013-03-10T09:08:26.56Z</time>
      </trkpt>
      <trkpt lat="45.85864" lon="4.79184">
        <ele>506.5</ele>
        <time>2013-03-10T09:08:27.56Z</time>
      </trkpt>
      <trkpt lat="45.85861" lon="4.79185">
        <ele>506</ele>
        <time>2013-03-10T09:08:28.56Z</time>
      </trkpt>
      <trkpt lat="45.85857" lon="4.79185">
        <ele>505.7</ele>
        <time>2013-03-10T09:08:29.56Z</time>
      </trkpt>
      <trkpt lat="45.85854" lon="4.79184">
        <ele>505.4</ele>
        <time>2013-03-10T09:08:30.56Z</time>
      </trkpt>
      <trkpt lat="45.8585" lon="4.79183">
        <ele>505.1</ele>
        <time>2013-03-10T09:08:31.56Z</time>
      </trkpt>
      <trkpt lat="45.85845" lon="4.79183">
        <ele>504.7</ele>
        <time>2013-03-10T09:08:32.6Z</time>
      </trkpt>
      <trkpt lat="45.85841" lon="4.79181">
        <ele>504.6</ele>
        <time>2013-03-10T09:08:33.71Z</time>
      </trkpt>
      <trkpt lat="45.85833" lon="4.79177">
        <ele>504.5</ele>
        <time>2013-03-10T09:08:35.6Z</time>
      </trkpt>
      <trkpt lat="45.85829" lon="4.79175">
        <ele>504.4</ele>
        <time>2013-03-10T09:08:36.6Z</time>
      </trkpt>
      <trkpt lat="45.85826" lon="4.79173">
        <ele>504.4</ele>
        <time>2013-03-10T09:08:37.69Z</time>
      </trkpt>
      <trkpt lat="45.85819" lon="4.79168">
        <ele>504.4</ele>
        <time>2013-03-10T09:08:39.56Z</time>
      </trkpt>
      <trkpt lat="45.85816" lon="4.79166">
        <ele>504.2</ele>
        <time>2013-03-10T09:08:40.56Z</time>
      </trkpt>
      <trkpt lat="45.85813" lon="4.79164">
        <ele>504</ele>
        <time>2013-03-10T09:08:41.57Z</time>
      </trkpt>
      <trkpt lat="45.85809" lon="4.79163">
        <ele>503.7</ele>
        <time>2013-03-10T09:08:42.56Z</time>
      </trkpt>
      <trkpt lat="45.85805" lon="4.79162">
        <ele>503.4</ele>
        <time>2013-03-10T09:08:43.56Z</time>
      </trkpt>
      <trkpt lat="45.85801" lon="4.79161">
        <ele>503.2</ele>
        <time>2013-03-10T09:08:44.6Z</time>
      </trkpt>
      <trkpt lat="45.85798" lon="4.7916">
        <ele>503</ele>
        <time>2013-03-10T09:08:45.6Z</time>
      </trkpt>
      <trkpt lat="45.85794" lon="4.79159">
        <ele>502.7</ele>
        <time>2013-03-10T09:08:46.63Z</time>
      </trkpt>
      <trkpt lat="45.85788" lon="4.79156">
        <ele>502.5</ele>
        <time>2013-03-10T09:08:48.56Z</time>
      </trkpt>
      <trkpt lat="45.85784" lon="4.79155">
        <ele>502.3</ele>
        <time>2013-03-10T09:08:49.56Z</time>
      </trkpt>
      <trkpt lat="45.85781" lon="4.79153">
        <ele>502.2</ele>
        <time>2013-03-10T09:08:50.57Z</time>
      </trkpt>
      <trkpt lat="45.85778" lon="4.79152">
        <ele>502.1</ele>
        <time>2013-03-10T09:08:51.6Z</time>
      </trkpt>
      <trkpt lat="45.85775" lon="4.79151">
        <ele>502</ele>
        <time>2013-03-10T09:08:52.6Z</time>
      </trkpt>
      <trkpt lat="45.85772" lon="4.79149">
        <ele>502</ele>
        <time>2013-03-10T09:08:53.75Z</time>
      </trkpt>
      <trkpt lat="45.85766" lon="4.79146">
        <ele>501.8</ele>
        <time>2013-03-10T09:08:55.6Z</time>
      </trkpt>
      <trkpt lat="45.85763" lon="4.79144">
        <ele>501.7</ele>
        <time>2013-03-10T09:08:56.6Z</time>
      </trkpt>
      <trkpt lat="45.85761" lon="4.79142">
        <ele>501.8</ele>
        <time>2013-03-10T09:08:57.6Z</time>
      </trkpt>
      <trkpt lat="45.85758" lon="4.79141">
        <ele>501.6</ele>
        <time>2013-03-10T09:08:58.66Z</time>
      </trkpt>
      <trkpt lat="45.85754" lon="4.79139">
        <ele>506.8</ele>
        <time>2013-03-10T09:08:59.68Z</time>
      </trkpt>
      <trkpt lat="45.85748" lon="4.79135">
        <ele>501.2</ele>
        <time>2013-03-10T09:09:01.6Z</time>
      </trkpt>
      <trkpt lat="45.85744" lon="4.79134">
        <ele>500.9</ele>
        <time>2013-03-10T09:09:02.58Z</time>
      </trkpt>
      <trkpt lat="45.8574" lon="4.79132">
        <ele>500.7</ele>
        <time>2013-03-10T09:09:03.76Z</time>
      </trkpt>
      <trkpt lat="45.85733" lon="4.7913">
        <ele>500.2</ele>
        <time>2013-03-10T09:09:05.6Z</time>
      </trkpt>
      <trkpt lat="45.8573" lon="4.79129">
        <ele>499.9</ele>
        <time>2013-03-10T09:09:06.63Z</time>
      </trkpt>
      <trkpt lat="45.85724" lon="4.79127">
        <ele>499.4</ele>
        <time>2013-03-10T09:09:08.56Z</time>
      </trkpt>
      <trkpt lat="45.85721" lon="4.79126">
        <ele>499.1</ele>
        <time>2013-03-10T09:09:09.6Z</time>
      </trkpt>
      <trkpt lat="45.85717" lon="4.79126">
        <ele>498.6</ele>
        <time>2013-03-10T09:09:10.61Z</time>
      </trkpt>
      <trkpt lat="45.8571" lon="4.79124">
        <ele>497.7</ele>
        <time>2013-03-10T09:09:12.56Z</time>
      </trkpt>
      <trkpt lat="45.85707" lon="4.79122">
        <ele>497.4</ele>
        <time>2013-03-10T09:09:13.56Z</time>
      </trkpt>
      <trkpt lat="45.85703" lon="4.7912">
        <ele>497.1</ele>
        <time>2013-03-10T09:09:14.59Z</time>
      </trkpt>
      <trkpt lat="45.85697" lon="4.79114">
        <ele>496.8</ele>
        <time>2013-03-10T09:09:16.65Z</time>
      </trkpt>
      <trkpt lat="45.8569" lon="4.79111">
        <ele>496.1</ele>
        <time>2013-03-10T09:09:18.65Z</time>
      </trkpt>
      <trkpt lat="45.85683" lon="4.79107">
        <ele>495.4</ele>
        <time>2013-03-10T09:09:20.61Z</time>
      </trkpt>
      <trkpt lat="45.85676" lon="4.79101">
        <ele>494.7</ele>
        <time>2013-03-10T09:09:22.56Z</time>
      </trkpt>
      <trkpt lat="45.85673" lon="4.79099">
        <ele>494.4</ele>
        <time>2013-03-10T09:09:23.56Z</time>
      </trkpt>
      <trkpt lat="45.8567" lon="4.79097">
        <ele>494.2</ele>
        <time>2013-03-10T09:09:24.59Z</time>
      </trkpt>
      <trkpt lat="45.85667" lon="4.79095">
        <ele>493.9</ele>
        <time>2013-03-10T09:09:25.59Z</time>
      </trkpt>
      <trkpt lat="45.85665" lon="4.79092">
        <ele>493.6</ele>
        <time>2013-03-10T09:09:26.59Z</time>
      </trkpt>
      <trkpt lat="45.85662" lon="4.7909">
        <ele>493.2</ele>
        <time>2013-03-10T09:09:27.62Z</time>
      </trkpt>
      <trkpt lat="45.85656" lon="4.79085">
        <ele>492.4</ele>
        <time>2013-03-10T09:09:29.56Z</time>
      </trkpt>
      <trkpt lat="45.85653" lon="4.79082">
        <ele>492.1</ele>
        <time>2013-03-10T09:09:30.56Z</time>
      </trkpt>
      <trkpt lat="45.85649" lon="4.79079">
        <ele>491.8</ele>
        <time>2013-03-10T09:09:31.56Z</time>
      </trkpt>
      <trkpt lat="45.85646" lon="4.79077">
        <ele>491.4</ele>
        <time>2013-03-10T09:09:32.56Z</time>
      </trkpt>
      <trkpt lat="45.85641" lon="4.79075">
        <ele>490.6</ele>
        <time>2013-03-10T09:09:33.57Z</time>
      </trkpt>
      <trkpt lat="45.85638" lon="4.79074">
        <ele>490.2</ele>
        <time>2013-03-10T09:09:34.59Z</time>
      </trkpt>
      <trkpt lat="45.85634" lon="4.79072">
        <ele>490</ele>
        <time>2013-03-10T09:09:35.59Z</time>
      </trkpt>
      <trkpt lat="45.8563" lon="4.79071">
        <ele>489.7</ele>
        <time>2013-03-10T09:09:36.7Z</time>
      </trkpt>
      <trkpt lat="45.85622" lon="4.79066">
        <ele>489.5</ele>
        <time>2013-03-10T09:09:38.56Z</time>
      </trkpt>
      <trkpt lat="45.85619" lon="4.79064">
        <ele>489.3</ele>
        <time>2013-03-10T09:09:39.56Z</time>
      </trkpt>
      <trkpt lat="45.85615" lon="4.79063">
        <ele>489.2</ele>
        <time>2013-03-10T09:09:40.56Z</time>
      </trkpt>
      <trkpt lat="45.85612" lon="4.79062">
        <ele>488.9</ele>
        <time>2013-03-10T09:09:41.57Z</time>
      </trkpt>
      <trkpt lat="45.85609" lon="4.79062">
        <ele>488.7</ele>
        <time>2013-03-10T09:09:42.61Z</time>
      </trkpt>
      <trkpt lat="45.85603" lon="4.7906">
        <ele>488.7</ele>
        <time>2013-03-10T09:09:44.59Z</time>
      </trkpt>
      <trkpt lat="45.856" lon="4.79059">
        <ele>488.6</ele>
        <time>2013-03-10T09:09:45.59Z</time>
      </trkpt>
      <trkpt lat="45.85598" lon="4.79057">
        <ele>488.8</ele>
        <time>2013-03-10T09:09:46.61Z</time>
      </trkpt>
      <trkpt lat="45.85592" lon="4.79055">
        <ele>488.7</ele>
        <time>2013-03-10T09:09:48.56Z</time>
      </trkpt>
      <trkpt lat="45.85589" lon="4.79055">
        <ele>488.5</ele>
        <time>2013-03-10T09:09:49.56Z</time>
      </trkpt>
      <trkpt lat="45.85585" lon="4.79056">
        <ele>488.1</ele>
        <time>2013-03-10T09:09:50.57Z</time>
      </trkpt>
      <trkpt lat="45.85582" lon="4.79056">
        <ele>487.9</ele>
        <time>2013-03-10T09:09:51.59Z</time>
      </trkpt>
      <trkpt lat="45.85578" lon="4.79056">
        <ele>487.7</ele>
        <time>2013-03-10T09:09:52.59Z</time>
      </trkpt>
      <trkpt lat="45.85574" lon="4.79056">
        <ele>487.6</ele>
        <time>2013-03-10T09:09:53.68Z</time>
      </trkpt>
      <trkpt lat="45.85569" lon="4.79055">
        <ele>487.6</ele>
        <time>2013-03-10T09:09:55.56Z</time>
      </trkpt>
      <trkpt lat="45.85566" lon="4.79055">
        <ele>487.4</ele>
        <time>2013-03-10T09:09:56.56Z</time>
      </trkpt>
      <trkpt lat="45.85564" lon="4.79055">
        <ele>487.3</ele>
        <time>2013-03-10T09:09:57.56Z</time>
      </trkpt>
      <trkpt lat="45.85561" lon="4.79055">
        <ele>487.4</ele>
        <time>2013-03-10T09:09:58.56Z</time>
      </trkpt>
      <trkpt lat="45.85558" lon="4.79053">
        <ele>493.7</ele>
        <time>2013-03-10T09:09:59.64Z</time>
      </trkpt>
      <trkpt lat="45.85552" lon="4.79052">
        <ele>487.3</ele>
        <time>2013-03-10T09:10:01.56Z</time>
      </trkpt>
      <trkpt lat="45.85549" lon="4.79051">
        <ele>487.2</ele>
        <time>2013-03-10T09:10:02.56Z</time>
      </trkpt>
      <trkpt lat="45.85547" lon="4.7905">
        <ele>487.1</ele>
        <time>2013-03-10T09:10:03.65Z</time>
      </trkpt>
      <trkpt lat="45.85543" lon="4.79047">
        <ele>487.4</ele>
        <time>2013-03-10T09:10:05.56Z</time>
      </trkpt>
      <trkpt lat="45.85541" lon="4.79045">
        <ele>487.6</ele>
        <time>2013-03-10T09:10:06.56Z</time>
      </trkpt>
      <trkpt lat="45.85539" lon="4.79042">
        <ele>487.9</ele>
        <time>2013-03-10T09:10:07.56Z</time>
      </trkpt>
      <trkpt lat="45.85536" lon="4.7904">
        <ele>488.2</ele>
        <time>2013-03-10T09:10:08.56Z</time>
      </trkpt>
      <trkpt lat="45.85534" lon="4.79037">
        <ele>488.5</ele>
        <time>2013-03-10T09:10:09.58Z</time>
      </trkpt>
      <trkpt lat="45.85532" lon="4.79035">
        <ele>488.8</ele>
        <time>2013-03-10T09:10:10.58Z</time>
      </trkpt>
      <trkpt lat="45.8553" lon="4.79034">
        <ele>488.9</ele>
        <time>2013-03-10T09:10:11.58Z</time>
      </trkpt>
      <trkpt lat="45.85527" lon="4.79031">
        <ele>489.1</ele>
        <time>2013-03-10T09:10:12.64Z</time>
      </trkpt>
      <trkpt lat="45.8552" lon="4.79028">
        <ele>489.2</ele>
        <time>2013-03-10T09:10:14.66Z</time>
      </trkpt>
      <trkpt lat="45.85514" lon="4.79025">
        <ele>488.9</ele>
        <time>2013-03-10T09:10:16.57Z</time>
      </trkpt>
      <trkpt lat="45.8551" lon="4.79023">
        <ele>488.8</ele>
        <time>2013-03-10T09:10:17.58Z</time>
      </trkpt>
      <trkpt lat="45.85507" lon="4.79022">
        <ele>488.7</ele>
        <time>2013-03-10T09:10:18.69Z</time>
      </trkpt>
      <trkpt lat="45.85503" lon="4.79023">
        <ele>488.2</ele>
        <time>2013-03-10T09:10:20.56Z</time>
      </trkpt>
      <trkpt lat="45.85504" lon="4.79025">
        <ele>487.8</ele>
        <time>2013-03-10T09:10:21.56Z</time>
      </trkpt>
      <trkpt lat="45.85505" lon="4.79027">
        <ele>487.6</ele>
        <time>2013-03-10T09:10:22.56Z</time>
      </trkpt>
      <trkpt lat="45.85507" lon="4.79029">
        <ele>487.5</ele>
        <time>2013-03-10T09:10:23.56Z</time>
      </trkpt>
      <trkpt lat="45.8551" lon="4.7903">
        <ele>487.5</ele>
        <time>2013-03-10T09:10:24.58Z</time>
      </trkpt>
      <trkpt lat="45.85513" lon="4.79032">
        <ele>487.4</ele>
        <time>2013-03-10T09:10:25.58Z</time>
      </trkpt>
      <trkpt lat="45.85516" lon="4.79034">
        <ele>487.4</ele>
        <time>2013-03-10T09:10:26.58Z</time>
      </trkpt>
      <trkpt lat="45.85519" lon="4.79036">
        <ele>487.3</ele>
        <time>2013-03-10T09:10:27.61Z</time>
      </trkpt>
      <trkpt lat="45.85525" lon="4.79042">
        <ele>486.7</ele>
        <time>2013-03-10T09:10:29.58Z</time>
      </trkpt>
      <trkpt lat="45.85528" lon="4.79044">
        <ele>486.5</ele>
        <time>2013-03-10T09:10:30.58Z</time>
      </trkpt>
      <trkpt lat="45.85531" lon="4.79047">
        <ele>486.3</ele>
        <time>2013-03-10T09:10:31.66Z</time>
      </trkpt>
      <trkpt lat="45.85538" lon="4.7905">
        <ele>486.3</ele>
        <time>2013-03-10T09:10:33.57Z</time>
      </trkpt>
      <trkpt lat="45.85542" lon="4.79052">
        <ele>486.3</ele>
        <time>2013-03-10T09:10:34.56Z</time>
      </trkpt>
      <trkpt lat="45.85545" lon="4.79053">
        <ele>486.3</ele>
        <time>2013-03-10T09:10:35.56Z</time>
      </trkpt>
      <trkpt lat="45.85549" lon="4.79055">
        <ele>486.4</ele>
        <time>2013-03-10T09:10:36.56Z</time>
      </trkpt>
      <trkpt lat="45.85552" lon="4.79057">
        <ele>486.3</ele>
        <time>2013-03-10T09:10:37.56Z</time>
      </trkpt>
      <trkpt lat="45.85556" lon="4.79059">
        <ele>486.2</ele>
        <time>2013-03-10T09:10:38.56Z</time>
      </trkpt>
      <trkpt lat="45.85559" lon="4.79061">
        <ele>485.9</ele>
        <time>2013-03-10T09:10:39.61Z</time>
      </trkpt>
      <trkpt lat="45.85565" lon="4.79065">
        <ele>485.3</ele>
        <time>2013-03-10T09:10:41.56Z</time>
      </trkpt>
      <trkpt lat="45.85568" lon="4.79067">
        <ele>485</ele>
        <time>2013-03-10T09:10:42.56Z</time>
      </trkpt>
      <trkpt lat="45.85571" lon="4.79069">
        <ele>484.7</ele>
        <time>2013-03-10T09:10:43.56Z</time>
      </trkpt>
      <trkpt lat="45.85575" lon="4.79071">
        <ele>484.3</ele>
        <time>2013-03-10T09:10:44.58Z</time>
      </trkpt>
      <trkpt lat="45.85578" lon="4.79074">
        <ele>483.8</ele>
        <time>2013-03-10T09:10:45.57Z</time>
      </trkpt>
      <trkpt lat="45.85581" lon="4.79077">
        <ele>483.3</ele>
        <time>2013-03-10T09:10:46.63Z</time>
      </trkpt>
      <trkpt lat="45.85588" lon="4.79085">
        <ele>482.3</ele>
        <time>2013-03-10T09:10:48.56Z</time>
      </trkpt>
      <trkpt lat="45.85591" lon="4.79089">
        <ele>482.2</ele>
        <time>2013-03-10T09:10:49.61Z</time>
      </trkpt>
      <trkpt lat="45.85596" lon="4.79099">
        <ele>481.6</ele>
        <time>2013-03-10T09:10:51.65Z</time>
      </trkpt>
      <trkpt lat="45.85598" lon="4.7911">
        <ele>480.7</ele>
        <time>2013-03-10T09:10:53.56Z</time>
      </trkpt>
      <trkpt lat="45.85599" lon="4.79116">
        <ele>480.1</ele>
        <time>2013-03-10T09:10:54.57Z</time>
      </trkpt>
      <trkpt lat="45.85599" lon="4.79122">
        <ele>479.6</ele>
        <time>2013-03-10T09:10:55.61Z</time>
      </trkpt>
      <trkpt lat="45.856" lon="4.79132">
        <ele>478.5</ele>
        <time>2013-03-10T09:10:57.56Z</time>
      </trkpt>
      <trkpt lat="45.856" lon="4.79137">
        <ele>477.9</ele>
        <time>2013-03-10T09:10:58.56Z</time>
      </trkpt>
      <trkpt lat="45.856" lon="4.79143">
        <ele>486.4</ele>
        <time>2013-03-10T09:10:59.62Z</time>
      </trkpt>
      <trkpt lat="45.85599" lon="4.79155">
        <ele>476</ele>
        <time>2013-03-10T09:11:01.56Z</time>
      </trkpt>
      <trkpt lat="45.85598" lon="4.7916">
        <ele>475.4</ele>
        <time>2013-03-10T09:11:02.56Z</time>
      </trkpt>
      <trkpt lat="45.85598" lon="4.79166">
        <ele>474.8</ele>
        <time>2013-03-10T09:11:03.56Z</time>
      </trkpt>
      <trkpt lat="45.85598" lon="4.79172">
        <ele>474.5</ele>
        <time>2013-03-10T09:11:04.61Z</time>
      </trkpt>
      <trkpt lat="45.85598" lon="4.79183">
        <ele>474</ele>
        <time>2013-03-10T09:11:06.56Z</time>
      </trkpt>
      <trkpt lat="45.85598" lon="4.79189">
        <ele>473.9</ele>
        <time>2013-03-10T09:11:07.56Z</time>
      </trkpt>
      <trkpt lat="45.85598" lon="4.79195">
        <ele>473.7</ele>
        <time>2013-03-10T09:11:08.56Z</time>
      </trkpt>
      <trkpt lat="45.85599" lon="4.79199">
        <ele>473.6</ele>
        <time>2013-03-10T09:11:09.56Z</time>
      </trkpt>
      <trkpt lat="45.85599" lon="4.79204">
        <ele>473.5</ele>
        <time>2013-03-10T09:11:10.65Z</time>
      </trkpt>
      <trkpt lat="45.85599" lon="4.79215">
        <ele>473.1</ele>
        <time>2013-03-10T09:11:12.56Z</time>
      </trkpt>
      <trkpt lat="45.85599" lon="4.7922">
        <ele>473</ele>
        <time>2013-03-10T09:11:13.56Z</time>
      </trkpt>
      <trkpt lat="45.856" lon="4.79225">
        <ele>472.9</ele>
        <time>2013-03-10T09:11:14.58Z</time>
      </trkpt>
      <trkpt lat="45.856" lon="4.7923">
        <ele>472.9</ele>
        <time>2013-03-10T09:11:15.65Z</time>
      </trkpt>
      <trkpt lat="45.85601" lon="4.79235">
        <ele>472.9</ele>
        <time>2013-03-10T09:11:16.57Z</time>
      </trkpt>
      <trkpt lat="45.85601" lon="4.79245">
        <ele>472.7</ele>
        <time>2013-03-10T09:11:18.66Z</time>
      </trkpt>
      <trkpt lat="45.85602" lon="4.79255">
        <ele>472.5</ele>
        <time>2013-03-10T09:11:20.66Z</time>
      </trkpt>
      <trkpt lat="45.85603" lon="4.79265">
        <ele>472.3</ele>
        <time>2013-03-10T09:11:22.66Z</time>
      </trkpt>
      <trkpt lat="45.85604" lon="4.79274">
        <ele>472.2</ele>
        <time>2013-03-10T09:11:24.56Z</time>
      </trkpt>
      <trkpt lat="45.85605" lon="4.79279">
        <ele>472.1</ele>
        <time>2013-03-10T09:11:25.66Z</time>
      </trkpt>
      <trkpt lat="45.85607" lon="4.79288">
        <ele>472</ele>
        <time>2013-03-10T09:11:27.66Z</time>
      </trkpt>
      <trkpt lat="45.85608" lon="4.79294">
        <ele>472</ele>
        <time>2013-03-10T09:11:28.56Z</time>
      </trkpt>
      <trkpt lat="45.8561" lon="4.79299">
        <ele>472</ele>
        <time>2013-03-10T09:11:29.62Z</time>
      </trkpt>
      <trkpt lat="45.85611" lon="4.79303">
        <ele>472.1</ele>
        <time>2013-03-10T09:11:30.56Z</time>
      </trkpt>
      <trkpt lat="45.85612" lon="4.79309">
        <ele>472</ele>
        <time>2013-03-10T09:11:31.66Z</time>
      </trkpt>
      <trkpt lat="45.85614" lon="4.79318">
        <ele>471.8</ele>
        <time>2013-03-10T09:11:33.69Z</time>
      </trkpt>
      <trkpt lat="45.85615" lon="4.79328">
        <ele>471.6</ele>
        <time>2013-03-10T09:11:35.56Z</time>
      </trkpt>
      <trkpt lat="45.85617" lon="4.79332">
        <ele>471.6</ele>
        <time>2013-03-10T09:11:36.66Z</time>
      </trkpt>
      <trkpt lat="45.85618" lon="4.79337">
        <ele>471.3</ele>
        <time>2013-03-10T09:11:37.56Z</time>
      </trkpt>
      <trkpt lat="45.85618" lon="4.79342">
        <ele>470.9</ele>
        <time>2013-03-10T09:11:38.66Z</time>
      </trkpt>
      <trkpt lat="45.85618" lon="4.7935">
        <ele>470.2</ele>
        <time>2013-03-10T09:11:40.66Z</time>
      </trkpt>
      <trkpt lat="45.85613" lon="4.79349">
        <ele>469.6</ele>
        <time>2013-03-10T09:11:42.56Z</time>
      </trkpt>
      <trkpt lat="45.85611" lon="4.79345">
        <ele>469.6</ele>
        <time>2013-03-10T09:11:43.64Z</time>
      </trkpt>
      <trkpt lat="45.85606" lon="4.79336">
        <ele>469.5</ele>
        <time>2013-03-10T09:11:45.66Z</time>
      </trkpt>
      <trkpt lat="45.85601" lon="4.79328">
        <ele>469.1</ele>
        <time>2013-03-10T09:11:47.56Z</time>
      </trkpt>
      <trkpt lat="45.85599" lon="4.79324">
        <ele>468.8</ele>
        <time>2013-03-10T09:11:48.67Z</time>
      </trkpt>
      <trkpt lat="45.85594" lon="4.79316">
        <ele>468.4</ele>
        <time>2013-03-10T09:11:50.62Z</time>
      </trkpt>
      <trkpt lat="45.8559" lon="4.79309">
        <ele>467.9</ele>
        <time>2013-03-10T09:11:52.66Z</time>
      </trkpt>
      <trkpt lat="45.85587" lon="4.79306">
        <ele>467.7</ele>
        <time>2013-03-10T09:11:53.56Z</time>
      </trkpt>
      <trkpt lat="45.85585" lon="4.79302">
        <ele>467.5</ele>
        <time>2013-03-10T09:11:54.66Z</time>
      </trkpt>
      <trkpt lat="45.8558" lon="4.79295">
        <ele>467.1</ele>
        <time>2013-03-10T09:11:56.65Z</time>
      </trkpt>
      <trkpt lat="45.85577" lon="4.79291">
        <ele>466.8</ele>
        <time>2013-03-10T09:11:57.56Z</time>
      </trkpt>
      <trkpt lat="45.85575" lon="4.79286">
        <ele>466.6</ele>
        <time>2013-03-10T09:11:58.67Z</time>
      </trkpt>
      <trkpt lat="45.85569" lon="4.79279">
        <ele>470.1</ele>
        <time>2013-03-10T09:12:00.56Z</time>
      </trkpt>
      <trkpt lat="45.85566" lon="4.79275">
        <ele>465.3</ele>
        <time>2013-03-10T09:12:01.65Z</time>
      </trkpt>
      <trkpt lat="45.85563" lon="4.79272">
        <ele>464.8</ele>
        <time>2013-03-10T09:12:02.58Z</time>
      </trkpt>
      <trkpt lat="45.8556" lon="4.7927">
        <ele>464.2</ele>
        <time>2013-03-10T09:12:03.66Z</time>
      </trkpt>
      <trkpt lat="45.85552" lon="4.79267">
        <ele>463.1</ele>
        <time>2013-03-10T09:12:05.65Z</time>
      </trkpt>
      <trkpt lat="45.85545" lon="4.79266">
        <ele>462.5</ele>
        <time>2013-03-10T09:12:07.65Z</time>
      </trkpt>
      <trkpt lat="45.85541" lon="4.79266">
        <ele>462.1</ele>
        <time>2013-03-10T09:12:08.56Z</time>
      </trkpt>
      <trkpt lat="45.85536" lon="4.79266">
        <ele>461.7</ele>
        <time>2013-03-10T09:12:09.63Z</time>
      </trkpt>
      <trkpt lat="45.85532" lon="4.79267">
        <ele>461.4</ele>
        <time>2013-03-10T09:12:10.56Z</time>
      </trkpt>
      <trkpt lat="45.85528" lon="4.79268">
        <ele>461</ele>
        <time>2013-03-10T09:12:11.65Z</time>
      </trkpt>
      <trkpt lat="45.85524" lon="4.79269">
        <ele>460.6</ele>
        <time>2013-03-10T09:12:12.56Z</time>
      </trkpt>
      <trkpt lat="45.8552" lon="4.79269">
        <ele>460.2</ele>
        <time>2013-03-10T09:12:13.65Z</time>
      </trkpt>
      <trkpt lat="45.85513" lon="4.7927">
        <ele>459.4</ele>
        <time>2013-03-10T09:12:15.65Z</time>
      </trkpt>
      <trkpt lat="45.85508" lon="4.7927">
        <ele>458.9</ele>
        <time>2013-03-10T09:12:16.57Z</time>
      </trkpt>
      <trkpt lat="45.85504" lon="4.79271">
        <ele>458.5</ele>
        <time>2013-03-10T09:12:17.65Z</time>
      </trkpt>
      <trkpt lat="45.855" lon="4.79272">
        <ele>458</ele>
        <time>2013-03-10T09:12:18.56Z</time>
      </trkpt>
      <trkpt lat="45.85497" lon="4.79272">
        <ele>457.9</ele>
        <time>2013-03-10T09:12:19.65Z</time>
      </trkpt>
      <trkpt lat="45.85493" lon="4.79273">
        <ele>457.8</ele>
        <time>2013-03-10T09:12:20.56Z</time>
      </trkpt>
      <trkpt lat="45.8549" lon="4.79273">
        <ele>457.6</ele>
        <time>2013-03-10T09:12:21.65Z</time>
      </trkpt>
      <trkpt lat="45.85486" lon="4.79273">
        <ele>457.5</ele>
        <time>2013-03-10T09:12:22.56Z</time>
      </trkpt>
      <trkpt lat="45.85483" lon="4.79273">
        <ele>457.4</ele>
        <time>2013-03-10T09:12:23.69Z</time>
      </trkpt>
      <trkpt lat="45.85476" lon="4.79275">
        <ele>457.1</ele>
        <time>2013-03-10T09:12:25.56Z</time>
      </trkpt>
      <trkpt lat="45.85472" lon="4.79276">
        <ele>457</ele>
        <time>2013-03-10T09:12:26.65Z</time>
      </trkpt>
      <trkpt lat="45.85467" lon="4.79282">
        <ele>456.3</ele>
        <time>2013-03-10T09:12:28.65Z</time>
      </trkpt>
      <trkpt lat="45.85465" lon="4.79293">
        <ele>455.8</ele>
        <time>2013-03-10T09:12:30.65Z</time>
      </trkpt>
      <trkpt lat="45.85465" lon="4.79299">
        <ele>455.6</ele>
        <time>2013-03-10T09:12:31.56Z</time>
      </trkpt>
      <trkpt lat="45.85465" lon="4.79304">
        <ele>455.5</ele>
        <time>2013-03-10T09:12:32.65Z</time>
      </trkpt>
      <trkpt lat="45.85461" lon="4.79312">
        <ele>455</ele>
        <time>2013-03-10T09:12:34.56Z</time>
      </trkpt>
      <trkpt lat="45.85458" lon="4.79314">
        <ele>454.7</ele>
        <time>2013-03-10T09:12:35.64Z</time>
      </trkpt>
      <trkpt lat="45.85451" lon="4.79314">
        <ele>454.1</ele>
        <time>2013-03-10T09:12:37.56Z</time>
      </trkpt>
      <trkpt lat="45.85447" lon="4.79313">
        <ele>453.9</ele>
        <time>2013-03-10T09:12:38.68Z</time>
      </trkpt>
      <trkpt lat="45.8544" lon="4.7931">
        <ele>453.3</ele>
        <time>2013-03-10T09:12:40.56Z</time>
      </trkpt>
      <trkpt lat="45.85436" lon="4.79309">
        <ele>452.9</ele>
        <time>2013-03-10T09:12:41.64Z</time>
      </trkpt>
      <trkpt lat="45.85429" lon="4.79306">
        <ele>452.3</ele>
        <time>2013-03-10T09:12:43.66Z</time>
      </trkpt>
      <trkpt lat="45.85421" lon="4.79303">
        <ele>451.6</ele>
        <time>2013-03-10T09:12:45.64Z</time>
      </trkpt>
      <trkpt lat="45.85417" lon="4.79302">
        <ele>451.3</ele>
        <time>2013-03-10T09:12:46.56Z</time>
      </trkpt>
      <trkpt lat="45.85414" lon="4.79301">
        <ele>451.2</ele>
        <time>2013-03-10T09:12:47.64Z</time>
      </trkpt>
      <trkpt lat="45.85407" lon="4.79299">
        <ele>451.1</ele>
        <time>2013-03-10T09:12:49.62Z</time>
      </trkpt>
      <trkpt lat="45.85403" lon="4.79297">
        <ele>451.1</ele>
        <time>2013-03-10T09:12:50.57Z</time>
      </trkpt>
      <trkpt lat="45.854" lon="4.79296">
        <ele>451.1</ele>
        <time>2013-03-10T09:12:51.64Z</time>
      </trkpt>
      <trkpt lat="45.85396" lon="4.79296">
        <ele>451</ele>
        <time>2013-03-10T09:12:52.56Z</time>
      </trkpt>
      <trkpt lat="45.85394" lon="4.79297">
        <ele>450.8</ele>
        <time>2013-03-10T09:12:53.67Z</time>
      </trkpt>
      <trkpt lat="45.85391" lon="4.79306">
        <ele>450.1</ele>
        <time>2013-03-10T09:12:55.56Z</time>
      </trkpt>
      <trkpt lat="45.8539" lon="4.79312">
        <ele>449.8</ele>
        <time>2013-03-10T09:12:56.64Z</time>
      </trkpt>
      <trkpt lat="45.8539" lon="4.79318">
        <ele>449.6</ele>
        <time>2013-03-10T09:12:57.56Z</time>
      </trkpt>
      <trkpt lat="45.85389" lon="4.79324">
        <ele>449.3</ele>
        <time>2013-03-10T09:12:58.66Z</time>
      </trkpt>
      <trkpt lat="45.85389" lon="4.79329">
        <ele>453.4</ele>
        <time>2013-03-10T09:12:59.61Z</time>
      </trkpt>
      <trkpt lat="45.85387" lon="4.7934">
        <ele>448.4</ele>
        <time>2013-03-10T09:13:01.56Z</time>
      </trkpt>
      <trkpt lat="45.85386" lon="4.79346">
        <ele>448</ele>
        <time>2013-03-10T09:13:02.64Z</time>
      </trkpt>
      <trkpt lat="45.85386" lon="4.79351">
        <ele>447.6</ele>
        <time>2013-03-10T09:13:03.56Z</time>
      </trkpt>
      <trkpt lat="45.85385" lon="4.79356">
        <ele>447.2</ele>
        <time>2013-03-10T09:13:04.64Z</time>
      </trkpt>
      <trkpt lat="45.85385" lon="4.79362">
        <ele>446.8</ele>
        <time>2013-03-10T09:13:05.56Z</time>
      </trkpt>
      <trkpt lat="45.85384" lon="4.79367">
        <ele>446.6</ele>
        <time>2013-03-10T09:13:06.64Z</time>
      </trkpt>
      <trkpt lat="45.85381" lon="4.79372">
        <ele>446.2</ele>
        <time>2013-03-10T09:13:08.64Z</time>
      </trkpt>
      <trkpt lat="45.85373" lon="4.79372">
        <ele>445.8</ele>
        <time>2013-03-10T09:13:10.69Z</time>
      </trkpt>
      <trkpt lat="45.85366" lon="4.79367">
        <ele>445.8</ele>
        <time>2013-03-10T09:13:12.56Z</time>
      </trkpt>
      <trkpt lat="45.85363" lon="4.79365">
        <ele>445.8</ele>
        <time>2013-03-10T09:13:13.69Z</time>
      </trkpt>
      <trkpt lat="45.85356" lon="4.79361">
        <ele>445.8</ele>
        <time>2013-03-10T09:13:15.56Z</time>
      </trkpt>
      <trkpt lat="45.85354" lon="4.7936">
        <ele>445.8</ele>
        <time>2013-03-10T09:13:16.65Z</time>
      </trkpt>
      <trkpt lat="45.85348" lon="4.79355">
        <ele>446.1</ele>
        <time>2013-03-10T09:13:18.56Z</time>
      </trkpt>
      <trkpt lat="45.85346" lon="4.79353">
        <ele>446.3</ele>
        <time>2013-03-10T09:13:19.63Z</time>
      </trkpt>
      <trkpt lat="45.85341" lon="4.7935">
        <ele>446.6</ele>
        <time>2013-03-10T09:13:21.56Z</time>
      </trkpt>
      <trkpt lat="45.85338" lon="4.7935">
        <ele>446.7</ele>
        <time>2013-03-10T09:13:22.63Z</time>
      </trkpt>
      <trkpt lat="45.85335" lon="4.79349">
        <ele>446.8</ele>
        <time>2013-03-10T09:13:23.56Z</time>
      </trkpt>
      <trkpt lat="45.85332" lon="4.79347">
        <ele>447.2</ele>
        <time>2013-03-10T09:13:24.56Z</time>
      </trkpt>
      <trkpt lat="45.8533" lon="4.79345">
        <ele>447.6</ele>
        <time>2013-03-10T09:13:25.56Z</time>
      </trkpt>
      <trkpt lat="45.85327" lon="4.79344">
        <ele>447.9</ele>
        <time>2013-03-10T09:13:26.56Z</time>
      </trkpt>
      <trkpt lat="45.85326" lon="4.79344">
        <ele>448.1</ele>
        <time>2013-03-10T09:13:27.56Z</time>
      </trkpt>
      <trkpt lat="45.85324" lon="4.79343">
        <ele>448.4</ele>
        <time>2013-03-10T09:13:28.56Z</time>
      </trkpt>
      <trkpt lat="45.85322" lon="4.79342">
        <ele>448.5</ele>
        <time>2013-03-10T09:13:29.56Z</time>
      </trkpt>
      <trkpt lat="45.8532" lon="4.79342">
        <ele>448.8</ele>
        <time>2013-03-10T09:13:30.56Z</time>
      </trkpt>
      <trkpt lat="45.85319" lon="4.7934">
        <ele>449.2</ele>
        <time>2013-03-10T09:13:31.56Z</time>
      </trkpt>
      <trkpt lat="45.85317" lon="4.79338">
        <ele>449.8</ele>
        <time>2013-03-10T09:13:32.56Z</time>
      </trkpt>
      <trkpt lat="45.85315" lon="4.79336">
        <ele>450.3</ele>
        <time>2013-03-10T09:13:33.57Z</time>
      </trkpt>
      <trkpt lat="45.85311" lon="4.79334">
        <ele>451.2</ele>
        <time>2013-03-10T09:13:35.43Z</time>
      </trkpt>
      <trkpt lat="45.85309" lon="4.79334">
        <ele>451.5</ele>
        <time>2013-03-10T09:13:36.43Z</time>
      </trkpt>
      <trkpt lat="45.85308" lon="4.79333">
        <ele>451.7</ele>
        <time>2013-03-10T09:13:37.43Z</time>
      </trkpt>
      <trkpt lat="45.85306" lon="4.79333">
        <ele>452</ele>
        <time>2013-03-10T09:13:38.43Z</time>
      </trkpt>
      <trkpt lat="45.85304" lon="4.79332">
        <ele>452.5</ele>
        <time>2013-03-10T09:13:39.56Z</time>
      </trkpt>
      <trkpt lat="45.85302" lon="4.79332">
        <ele>452.9</ele>
        <time>2013-03-10T09:13:40.56Z</time>
      </trkpt>
      <trkpt lat="45.85301" lon="4.79331">
        <ele>453.3</ele>
        <time>2013-03-10T09:13:41.57Z</time>
      </trkpt>
      <trkpt lat="45.85299" lon="4.79331">
        <ele>453.5</ele>
        <time>2013-03-10T09:13:42.56Z</time>
      </trkpt>
      <trkpt lat="45.85298" lon="4.7933">
        <ele>454</ele>
        <time>2013-03-10T09:13:43.56Z</time>
      </trkpt>
      <trkpt lat="45.85296" lon="4.79329">
        <ele>454.5</ele>
        <time>2013-03-10T09:13:44.56Z</time>
      </trkpt>
      <trkpt lat="45.85295" lon="4.79329">
        <ele>454.7</ele>
        <time>2013-03-10T09:13:45.56Z</time>
      </trkpt>
      <trkpt lat="45.85293" lon="4.79329">
        <ele>455.1</ele>
        <time>2013-03-10T09:13:46.56Z</time>
      </trkpt>
      <trkpt lat="45.85291" lon="4.79328">
        <ele>455.5</ele>
        <time>2013-03-10T09:13:47.56Z</time>
      </trkpt>
      <trkpt lat="45.85289" lon="4.79328">
        <ele>455.9</ele>
        <time>2013-03-10T09:13:48.56Z</time>
      </trkpt>
      <trkpt lat="45.85287" lon="4.79328">
        <ele>456</ele>
        <time>2013-03-10T09:13:49.56Z</time>
      </trkpt>
      <trkpt lat="45.85286" lon="4.79329">
        <ele>456</ele>
        <time>2013-03-10T09:13:50.59Z</time>
      </trkpt>
      <trkpt lat="45.85282" lon="4.79331">
        <ele>456.2</ele>
        <time>2013-03-10T09:13:52.43Z</time>
      </trkpt>
      <trkpt lat="45.8528" lon="4.79332">
        <ele>456.2</ele>
        <time>2013-03-10T09:13:53.43Z</time>
      </trkpt>
      <trkpt lat="45.85279" lon="4.79333">
        <ele>456.1</ele>
        <time>2013-03-10T09:13:54.56Z</time>
      </trkpt>
      <trkpt lat="45.85277" lon="4.79334">
        <ele>456.1</ele>
        <time>2013-03-10T09:13:55.56Z</time>
      </trkpt>
      <trkpt lat="45.85275" lon="4.79333">
        <ele>456.4</ele>
        <time>2013-03-10T09:13:56.56Z</time>
      </trkpt>
      <trkpt lat="45.85273" lon="4.79333">
        <ele>456.9</ele>
        <time>2013-03-10T09:13:57.56Z</time>
      </trkpt>
      <trkpt lat="45.8527" lon="4.79333">
        <ele>457.3</ele>
        <time>2013-03-10T09:13:58.56Z</time>
      </trkpt>
      <trkpt lat="45.85268" lon="4.79333">
        <ele>455.1</ele>
        <time>2013-03-10T09:13:59.72Z</time>
      </trkpt>
      <trkpt lat="45.85262" lon="4.79335">
        <ele>457.5</ele>
        <time>2013-03-10T09:14:01.56Z</time>
      </trkpt>
      <trkpt lat="45.8526" lon="4.79336">
        <ele>457.7</ele>
        <time>2013-03-10T09:14:02.56Z</time>
      </trkpt>
      <trkpt lat="45.85257" lon="4.79336">
        <ele>457.9</ele>
        <time>2013-03-10T09:14:03.57Z</time>
      </trkpt>
      <trkpt lat="45.85255" lon="4.79336">
        <ele>458.1</ele>
        <time>2013-03-10T09:14:04.56Z</time>
      </trkpt>
      <trkpt lat="45.85253" lon="4.79336">
        <ele>458.6</ele>
        <time>2013-03-10T09:14:05.56Z</time>
      </trkpt>
      <trkpt lat="45.85251" lon="4.79335">
        <ele>459.2</ele>
        <time>2013-03-10T09:14:06.56Z</time>
      </trkpt>
      <trkpt lat="45.85249" lon="4.79334">
        <ele>459.8</ele>
        <time>2013-03-10T09:14:07.56Z</time>
      </trkpt>
      <trkpt lat="45.85247" lon="4.79334">
        <ele>460.2</ele>
        <time>2013-03-10T09:14:08.56Z</time>
      </trkpt>
      <trkpt lat="45.85245" lon="4.79333">
        <ele>460.6</ele>
        <time>2013-03-10T09:14:09.56Z</time>
      </trkpt>
      <trkpt lat="45.85244" lon="4.79333">
        <ele>460.8</ele>
        <time>2013-03-10T09:14:10.56Z</time>
      </trkpt>
      <trkpt lat="45.85243" lon="4.79332">
        <ele>461</ele>
        <time>2013-03-10T09:14:11.56Z</time>
      </trkpt>
      <trkpt lat="45.8524" lon="4.79333">
        <ele>461.3</ele>
        <time>2013-03-10T09:14:13.4Z</time>
      </trkpt>
      <trkpt lat="45.85238" lon="4.79332">
        <ele>461.8</ele>
        <time>2013-03-10T09:14:14.42Z</time>
      </trkpt>
      <trkpt lat="45.85236" lon="4.79328">
        <ele>463</ele>
        <time>2013-03-10T09:14:16.43Z</time>
      </trkpt>
      <trkpt lat="45.85234" lon="4.79327">
        <ele>463.6</ele>
        <time>2013-03-10T09:14:17.65Z</time>
      </trkpt>
      <trkpt lat="45.85232" lon="4.79326">
        <ele>463.9</ele>
        <time>2013-03-10T09:14:18.56Z</time>
      </trkpt>
      <trkpt lat="45.85231" lon="4.79326">
        <ele>464.2</ele>
        <time>2013-03-10T09:14:19.56Z</time>
      </trkpt>
      <trkpt lat="45.8523" lon="4.79326">
        <ele>464.3</ele>
        <time>2013-03-10T09:14:20.56Z</time>
      </trkpt>
      <trkpt lat="45.85228" lon="4.79326">
        <ele>464.7</ele>
        <time>2013-03-10T09:14:22.56Z</time>
      </trkpt>
      <trkpt lat="45.85227" lon="4.79325">
        <ele>464.8</ele>
        <time>2013-03-10T09:14:23.56Z</time>
      </trkpt>
      <trkpt lat="45.85225" lon="4.79325">
        <ele>465.2</ele>
        <time>2013-03-10T09:14:24.56Z</time>
      </trkpt>
      <trkpt lat="45.85223" lon="4.79323">
        <ele>466</ele>
        <time>2013-03-10T09:14:25.62Z</time>
      </trkpt>
      <trkpt lat="45.85222" lon="4.79321">
        <ele>466.6</ele>
        <time>2013-03-10T09:14:26.62Z</time>
      </trkpt>
      <trkpt lat="45.8522" lon="4.7932">
        <ele>466.9</ele>
        <time>2013-03-10T09:14:27.62Z</time>
      </trkpt>
      <trkpt lat="45.85219" lon="4.79319">
        <ele>467</ele>
        <time>2013-03-10T09:14:28.68Z</time>
      </trkpt>
      <trkpt lat="45.85218" lon="4.79318">
        <ele>467.1</ele>
        <time>2013-03-10T09:14:30.56Z</time>
      </trkpt>
      <trkpt lat="45.85217" lon="4.79317">
        <ele>467.4</ele>
        <time>2013-03-10T09:14:31.56Z</time>
      </trkpt>
      <trkpt lat="45.85216" lon="4.79315">
        <ele>468</ele>
        <time>2013-03-10T09:14:32.56Z</time>
      </trkpt>
      <trkpt lat="45.85214" lon="4.79313">
        <ele>468.5</ele>
        <time>2013-03-10T09:14:33.57Z</time>
      </trkpt>
      <trkpt lat="45.85212" lon="4.7931">
        <ele>469.3</ele>
        <time>2013-03-10T09:14:35.56Z</time>
      </trkpt>
      <trkpt lat="45.85212" lon="4.79309">
        <ele>469.8</ele>
        <time>2013-03-10T09:14:36.56Z</time>
      </trkpt>
      <trkpt lat="45.85211" lon="4.79307">
        <ele>470.2</ele>
        <time>2013-03-10T09:14:38.56Z</time>
      </trkpt>
      <trkpt lat="45.8521" lon="4.79306">
        <ele>470.4</ele>
        <time>2013-03-10T09:14:39.56Z</time>
      </trkpt>
      <trkpt lat="45.85208" lon="4.79304">
        <ele>470.9</ele>
        <time>2013-03-10T09:14:40.56Z</time>
      </trkpt>
      <trkpt lat="45.85207" lon="4.79302">
        <ele>471.4</ele>
        <time>2013-03-10T09:14:41.57Z</time>
      </trkpt>
      <trkpt lat="45.85205" lon="4.793">
        <ele>471.7</ele>
        <time>2013-03-10T09:14:42.56Z</time>
      </trkpt>
      <trkpt lat="45.85204" lon="4.79299">
        <ele>472</ele>
        <time>2013-03-10T09:14:43.56Z</time>
      </trkpt>
      <trkpt lat="45.85203" lon="4.79298">
        <ele>472.2</ele>
        <time>2013-03-10T09:14:44.61Z</time>
      </trkpt>
      <trkpt lat="45.85202" lon="4.79297">
        <ele>472.5</ele>
        <time>2013-03-10T09:14:45.61Z</time>
      </trkpt>
      <trkpt lat="45.85201" lon="4.79295">
        <ele>472.8</ele>
        <time>2013-03-10T09:14:47.61Z</time>
      </trkpt>
      <trkpt lat="45.85199" lon="4.79294">
        <ele>473</ele>
        <time>2013-03-10T09:14:49.62Z</time>
      </trkpt>
      <trkpt lat="45.85196" lon="4.79291">
        <ele>473.7</ele>
        <time>2013-03-10T09:14:51.61Z</time>
      </trkpt>
      <trkpt lat="45.85195" lon="4.7929">
        <ele>474</ele>
        <time>2013-03-10T09:14:52.61Z</time>
      </trkpt>
      <trkpt lat="45.85194" lon="4.79289">
        <ele>474.2</ele>
        <time>2013-03-10T09:14:53.64Z</time>
      </trkpt>
      <trkpt lat="45.8519" lon="4.79288">
        <ele>474.3</ele>
        <time>2013-03-10T09:14:55.61Z</time>
      </trkpt>
      <trkpt lat="45.85188" lon="4.79287">
        <ele>474.6</ele>
        <time>2013-03-10T09:14:56.62Z</time>
      </trkpt>
      <trkpt lat="45.85187" lon="4.79285">
        <ele>475.1</ele>
        <time>2013-03-10T09:14:57.61Z</time>
      </trkpt>
      <trkpt lat="45.85186" lon="4.79284">
        <ele>475.4</ele>
        <time>2013-03-10T09:14:58.65Z</time>
      </trkpt>
      <trkpt lat="45.85183" lon="4.79283">
        <ele>472.5</ele>
        <time>2013-03-10T09:15:00.61Z</time>
      </trkpt>
      <trkpt lat="45.85181" lon="4.79284">
        <ele>475.4</ele>
        <time>2013-03-10T09:15:01.63Z</time>
      </trkpt>
      <trkpt lat="45.85176" lon="4.79284">
        <ele>475.3</ele>
        <time>2013-03-10T09:15:03.66Z</time>
      </trkpt>
      <trkpt lat="45.85172" lon="4.79281">
        <ele>476.1</ele>
        <time>2013-03-10T09:15:05.56Z</time>
      </trkpt>
      <trkpt lat="45.8517" lon="4.79279">
        <ele>476.7</ele>
        <time>2013-03-10T09:15:06.56Z</time>
      </trkpt>
      <trkpt lat="45.8517" lon="4.79277">
        <ele>477.2</ele>
        <time>2013-03-10T09:15:07.56Z</time>
      </trkpt>
      <trkpt lat="45.85168" lon="4.79276">
        <ele>477.3</ele>
        <time>2013-03-10T09:15:09.56Z</time>
      </trkpt>
      <trkpt lat="45.85167" lon="4.79276">
        <ele>477.3</ele>
        <time>2013-03-10T09:15:10.56Z</time>
      </trkpt>
      <trkpt lat="45.85165" lon="4.79277">
        <ele>477.2</ele>
        <time>2013-03-10T09:15:11.56Z</time>
      </trkpt>
      <trkpt lat="45.85162" lon="4.79277">
        <ele>477.2</ele>
        <time>2013-03-10T09:15:12.56Z</time>
      </trkpt>
      <trkpt lat="45.8516" lon="4.79276">
        <ele>477.4</ele>
        <time>2013-03-10T09:15:13.56Z</time>
      </trkpt>
      <trkpt lat="45.85158" lon="4.79276">
        <ele>477.3</ele>
        <time>2013-03-10T09:15:14.56Z</time>
      </trkpt>
      <trkpt lat="45.85155" lon="4.79276">
        <ele>477.2</ele>
        <time>2013-03-10T09:15:15.56Z</time>
      </trkpt>
      <trkpt lat="45.85151" lon="4.79276">
        <ele>477.2</ele>
        <time>2013-03-10T09:15:16.57Z</time>
      </trkpt>
      <trkpt lat="45.85148" lon="4.79277">
        <ele>477.2</ele>
        <time>2013-03-10T09:15:17.61Z</time>
      </trkpt>
      <trkpt lat="45.85145" lon="4.79277">
        <ele>477.1</ele>
        <time>2013-03-10T09:15:18.67Z</time>
      </trkpt>
      <trkpt lat="45.85137" lon="4.79278">
        <ele>476.9</ele>
        <time>2013-03-10T09:15:20.56Z</time>
      </trkpt>
      <trkpt lat="45.85133" lon="4.79277">
        <ele>476.7</ele>
        <time>2013-03-10T09:15:21.56Z</time>
      </trkpt>
      <trkpt lat="45.85129" lon="4.79277">
        <ele>476.4</ele>
        <time>2013-03-10T09:15:22.56Z</time>
      </trkpt>
      <trkpt lat="45.85126" lon="4.79277">
        <ele>476.1</ele>
        <time>2013-03-10T09:15:23.56Z</time>
      </trkpt>
      <trkpt lat="45.85122" lon="4.79277">
        <ele>475.8</ele>
        <time>2013-03-10T09:15:24.56Z</time>
      </trkpt>
      <trkpt lat="45.85119" lon="4.79277">
        <ele>475.6</ele>
        <time>2013-03-10T09:15:25.6Z</time>
      </trkpt>
      <trkpt lat="45.85116" lon="4.79277">
        <ele>475.5</ele>
        <time>2013-03-10T09:15:26.61Z</time>
      </trkpt>
      <trkpt lat="45.8511" lon="4.79277">
        <ele>474.9</ele>
        <time>2013-03-10T09:15:28.65Z</time>
      </trkpt>
      <trkpt lat="45.85103" lon="4.79276">
        <ele>474.3</ele>
        <time>2013-03-10T09:15:30.61Z</time>
      </trkpt>
      <trkpt lat="45.85098" lon="4.79277">
        <ele>473.7</ele>
        <time>2013-03-10T09:15:32.56Z</time>
      </trkpt>
      <trkpt lat="45.85095" lon="4.79279">
        <ele>473.1</ele>
        <time>2013-03-10T09:15:33.57Z</time>
      </trkpt>
      <trkpt lat="45.85092" lon="4.79279">
        <ele>472.8</ele>
        <time>2013-03-10T09:15:34.69Z</time>
      </trkpt>
      <trkpt lat="45.85083" lon="4.79277">
        <ele>472.1</ele>
        <time>2013-03-10T09:15:36.56Z</time>
      </trkpt>
      <trkpt lat="45.8508" lon="4.79274">
        <ele>471.9</ele>
        <time>2013-03-10T09:15:37.56Z</time>
      </trkpt>
      <trkpt lat="45.85076" lon="4.79271">
        <ele>471.6</ele>
        <time>2013-03-10T09:15:38.57Z</time>
      </trkpt>
      <trkpt lat="45.85073" lon="4.79268">
        <ele>471.4</ele>
        <time>2013-03-10T09:15:39.6Z</time>
      </trkpt>
      <trkpt lat="45.8507" lon="4.79265">
        <ele>471.2</ele>
        <time>2013-03-10T09:15:40.6Z</time>
      </trkpt>
      <trkpt lat="45.85067" lon="4.79263">
        <ele>471</ele>
        <time>2013-03-10T09:15:41.62Z</time>
      </trkpt>
      <trkpt lat="45.85061" lon="4.79259">
        <ele>470.4</ele>
        <time>2013-03-10T09:15:43.56Z</time>
      </trkpt>
      <trkpt lat="45.85058" lon="4.79258">
        <ele>470.1</ele>
        <time>2013-03-10T09:15:44.56Z</time>
      </trkpt>
      <trkpt lat="45.85055" lon="4.79257">
        <ele>469.7</ele>
        <time>2013-03-10T09:15:45.56Z</time>
      </trkpt>
      <trkpt lat="45.85052" lon="4.79257">
        <ele>469.5</ele>
        <time>2013-03-10T09:15:46.6Z</time>
      </trkpt>
      <trkpt lat="45.85049" lon="4.79257">
        <ele>469.3</ele>
        <time>2013-03-10T09:15:47.6Z</time>
      </trkpt>
      <trkpt lat="45.85046" lon="4.79256">
        <ele>469.1</ele>
        <time>2013-03-10T09:15:48.64Z</time>
      </trkpt>
      <trkpt lat="45.85041" lon="4.79254">
        <ele>468.8</ele>
        <time>2013-03-10T09:15:50.57Z</time>
      </trkpt>
      <trkpt lat="45.85038" lon="4.79253">
        <ele>468.6</ele>
        <time>2013-03-10T09:15:51.57Z</time>
      </trkpt>
      <trkpt lat="45.85034" lon="4.79252">
        <ele>468.4</ele>
        <time>2013-03-10T09:15:52.56Z</time>
      </trkpt>
      <trkpt lat="45.85031" lon="4.79251">
        <ele>468.2</ele>
        <time>2013-03-10T09:15:53.56Z</time>
      </trkpt>
      <trkpt lat="45.85027" lon="4.79251">
        <ele>467.9</ele>
        <time>2013-03-10T09:15:54.56Z</time>
      </trkpt>
      <trkpt lat="45.85024" lon="4.79251">
        <ele>467.7</ele>
        <time>2013-03-10T09:15:55.56Z</time>
      </trkpt>
      <trkpt lat="45.8502" lon="4.79251">
        <ele>467.5</ele>
        <time>2013-03-10T09:15:56.56Z</time>
      </trkpt>
      <trkpt lat="45.85017" lon="4.79251">
        <ele>467.2</ele>
        <time>2013-03-10T09:15:57.56Z</time>
      </trkpt>
      <trkpt lat="45.85013" lon="4.79251">
        <ele>467</ele>
        <time>2013-03-10T09:15:58.65Z</time>
      </trkpt>
      <trkpt lat="45.85006" lon="4.7925">
        <ele>479.4</ele>
        <time>2013-03-10T09:16:00.61Z</time>
      </trkpt>
      <trkpt lat="45.84999" lon="4.7925">
        <ele>465.9</ele>
        <time>2013-03-10T09:16:02.56Z</time>
      </trkpt>
      <trkpt lat="45.84996" lon="4.79249">
        <ele>465.6</ele>
        <time>2013-03-10T09:16:03.56Z</time>
      </trkpt>
      <trkpt lat="45.84992" lon="4.79248">
        <ele>465.3</ele>
        <time>2013-03-10T09:16:04.59Z</time>
      </trkpt>
      <trkpt lat="45.84989" lon="4.79248">
        <ele>465.1</ele>
        <time>2013-03-10T09:16:05.59Z</time>
      </trkpt>
      <trkpt lat="45.84986" lon="4.79248">
        <ele>464.9</ele>
        <time>2013-03-10T09:16:06.59Z</time>
      </trkpt>
      <trkpt lat="45.84981" lon="4.79247">
        <ele>464.7</ele>
        <time>2013-03-10T09:16:07.62Z</time>
      </trkpt>
      <trkpt lat="45.84974" lon="4.79247">
        <ele>464.1</ele>
        <time>2013-03-10T09:16:09.59Z</time>
      </trkpt>
      <trkpt lat="45.8497" lon="4.79246">
        <ele>463.6</ele>
        <time>2013-03-10T09:16:10.63Z</time>
      </trkpt>
      <trkpt lat="45.84962" lon="4.79245">
        <ele>462.3</ele>
        <time>2013-03-10T09:16:12.56Z</time>
      </trkpt>
      <trkpt lat="45.84959" lon="4.79245">
        <ele>461.8</ele>
        <time>2013-03-10T09:16:13.56Z</time>
      </trkpt>
      <trkpt lat="45.84954" lon="4.79245">
        <ele>461.1</ele>
        <time>2013-03-10T09:16:14.59Z</time>
      </trkpt>
      <trkpt lat="45.8495" lon="4.79245">
        <ele>460.6</ele>
        <time>2013-03-10T09:16:15.61Z</time>
      </trkpt>
      <trkpt lat="45.84947" lon="4.79246">
        <ele>460.4</ele>
        <time>2013-03-10T09:16:16.67Z</time>
      </trkpt>
      <trkpt lat="45.84945" lon="4.79251">
        <ele>461</ele>
        <time>2013-03-10T09:16:18.68Z</time>
      </trkpt>
      <trkpt lat="45.84946" lon="4.79259">
        <ele>460.3</ele>
        <time>2013-03-10T09:16:20.59Z</time>
      </trkpt>
      <trkpt lat="45.84947" lon="4.79263">
        <ele>460.2</ele>
        <time>2013-03-10T09:16:21.59Z</time>
      </trkpt>
      <trkpt lat="45.84948" lon="4.79267">
        <ele>460.1</ele>
        <time>2013-03-10T09:16:22.62Z</time>
      </trkpt>
      <trkpt lat="45.8495" lon="4.79275">
        <ele>460</ele>
        <time>2013-03-10T09:16:24.56Z</time>
      </trkpt>
      <trkpt lat="45.84951" lon="4.7928">
        <ele>459.8</ele>
        <time>2013-03-10T09:16:25.56Z</time>
      </trkpt>
      <trkpt lat="45.84953" lon="4.79284">
        <ele>459.3</ele>
        <time>2013-03-10T09:16:26.56Z</time>
      </trkpt>
      <trkpt lat="45.84955" lon="4.79287">
        <ele>458.8</ele>
        <time>2013-03-10T09:16:27.56Z</time>
      </trkpt>
      <trkpt lat="45.84957" lon="4.79291">
        <ele>458.3</ele>
        <time>2013-03-10T09:16:28.56Z</time>
      </trkpt>
      <trkpt lat="45.84959" lon="4.79295">
        <ele>457.7</ele>
        <time>2013-03-10T09:16:29.56Z</time>
      </trkpt>
      <trkpt lat="45.84961" lon="4.79298">
        <ele>457.2</ele>
        <time>2013-03-10T09:16:30.56Z</time>
      </trkpt>
      <trkpt lat="45.84962" lon="4.79302">
        <ele>456.4</ele>
        <time>2013-03-10T09:16:31.62Z</time>
      </trkpt>
      <trkpt lat="45.84961" lon="4.79303">
        <ele>455.8</ele>
        <time>2013-03-10T09:16:33.57Z</time>
      </trkpt>
      <trkpt lat="45.84958" lon="4.79302">
        <ele>455.3</ele>
        <time>2013-03-10T09:16:34.59Z</time>
      </trkpt>
      <trkpt lat="45.84954" lon="4.79302">
        <ele>454.9</ele>
        <time>2013-03-10T09:16:35.59Z</time>
      </trkpt>
      <trkpt lat="45.84951" lon="4.79301">
        <ele>454.3</ele>
        <time>2013-03-10T09:16:36.59Z</time>
      </trkpt>
      <trkpt lat="45.84947" lon="4.79302">
        <ele>453.3</ele>
        <time>2013-03-10T09:16:37.57Z</time>
      </trkpt>
      <trkpt lat="45.84944" lon="4.79303">
        <ele>452.4</ele>
        <time>2013-03-10T09:16:38.68Z</time>
      </trkpt>
      <trkpt lat="45.84937" lon="4.79304">
        <ele>450.4</ele>
        <time>2013-03-10T09:16:40.56Z</time>
      </trkpt>
      <trkpt lat="45.84933" lon="4.79305">
        <ele>449.1</ele>
        <time>2013-03-10T09:16:41.57Z</time>
      </trkpt>
      <trkpt lat="45.84929" lon="4.79306">
        <ele>448</ele>
        <time>2013-03-10T09:16:42.63Z</time>
      </trkpt>
      <trkpt lat="45.84922" lon="4.79304">
        <ele>446.7</ele>
        <time>2013-03-10T09:16:44.56Z</time>
      </trkpt>
      <trkpt lat="45.84918" lon="4.793">
        <ele>446.7</ele>
        <time>2013-03-10T09:16:45.56Z</time>
      </trkpt>
      <trkpt lat="45.84915" lon="4.79297">
        <ele>446.4</ele>
        <time>2013-03-10T09:16:46.56Z</time>
      </trkpt>
      <trkpt lat="45.84912" lon="4.79293">
        <ele>445.8</ele>
        <time>2013-03-10T09:16:47.56Z</time>
      </trkpt>
      <trkpt lat="45.84909" lon="4.79289">
        <ele>445.6</ele>
        <time>2013-03-10T09:16:48.56Z</time>
      </trkpt>
      <trkpt lat="45.84906" lon="4.79286">
        <ele>444.9</ele>
        <time>2013-03-10T09:16:49.58Z</time>
      </trkpt>
      <trkpt lat="45.84903" lon="4.79281">
        <ele>444.6</ele>
        <time>2013-03-10T09:16:50.64Z</time>
      </trkpt>
      <trkpt lat="45.84897" lon="4.79273">
        <ele>443.8</ele>
        <time>2013-03-10T09:16:52.56Z</time>
      </trkpt>
      <trkpt lat="45.84895" lon="4.79269">
        <ele>443.8</ele>
        <time>2013-03-10T09:16:53.56Z</time>
      </trkpt>
      <trkpt lat="45.84893" lon="4.79263">
        <ele>444.2</ele>
        <time>2013-03-10T09:16:54.69Z</time>
      </trkpt>
      <trkpt lat="45.8489" lon="4.79255">
        <ele>445</ele>
        <time>2013-03-10T09:16:56.58Z</time>
      </trkpt>
      <trkpt lat="45.84887" lon="4.7925">
        <ele>445.2</ele>
        <time>2013-03-10T09:16:57.62Z</time>
      </trkpt>
      <trkpt lat="45.84883" lon="4.79242">
        <ele>463.8</ele>
        <time>2013-03-10T09:16:59.59Z</time>
      </trkpt>
      <trkpt lat="45.84881" lon="4.79236">
        <ele>442.9</ele>
        <time>2013-03-10T09:17:00.57Z</time>
      </trkpt>
      <trkpt lat="45.8488" lon="4.79232">
        <ele>442.7</ele>
        <time>2013-03-10T09:17:01.58Z</time>
      </trkpt>
      <trkpt lat="45.8488" lon="4.79227">
        <ele>442.8</ele>
        <time>2013-03-10T09:17:02.58Z</time>
      </trkpt>
      <trkpt lat="45.84881" lon="4.79221">
        <ele>443.1</ele>
        <time>2013-03-10T09:17:03.68Z</time>
      </trkpt>
      <trkpt lat="45.84881" lon="4.7921">
        <ele>442.4</ele>
        <time>2013-03-10T09:17:05.58Z</time>
      </trkpt>
      <trkpt lat="45.84881" lon="4.79203">
        <ele>442.3</ele>
        <time>2013-03-10T09:17:06.63Z</time>
      </trkpt>
      <trkpt lat="45.84881" lon="4.79189">
        <ele>441.9</ele>
        <time>2013-03-10T09:17:08.56Z</time>
      </trkpt>
      <trkpt lat="45.84879" lon="4.79182">
        <ele>441.7</ele>
        <time>2013-03-10T09:17:09.62Z</time>
      </trkpt>
      <trkpt lat="45.84876" lon="4.7917">
        <ele>441.3</ele>
        <time>2013-03-10T09:17:11.58Z</time>
      </trkpt>
      <trkpt lat="45.84874" lon="4.79164">
        <ele>440.9</ele>
        <time>2013-03-10T09:17:12.61Z</time>
      </trkpt>
      <trkpt lat="45.84871" lon="4.79154">
        <ele>440.3</ele>
        <time>2013-03-10T09:17:14.58Z</time>
      </trkpt>
      <trkpt lat="45.84869" lon="4.79147">
        <ele>440</ele>
        <time>2013-03-10T09:17:15.58Z</time>
      </trkpt>
      <trkpt lat="45.84868" lon="4.79143">
        <ele>439.9</ele>
        <time>2013-03-10T09:17:16.65Z</time>
      </trkpt>
      <trkpt lat="45.8487" lon="4.79133">
        <ele>440.6</ele>
        <time>2013-03-10T09:17:18.66Z</time>
      </trkpt>
      <trkpt lat="45.84871" lon="4.79126">
        <ele>441.1</ele>
        <time>2013-03-10T09:17:20.58Z</time>
      </trkpt>
      <trkpt lat="45.84872" lon="4.79123">
        <ele>441.6</ele>
        <time>2013-03-10T09:17:21.63Z</time>
      </trkpt>
      <trkpt lat="45.84874" lon="4.79117">
        <ele>442</ele>
        <time>2013-03-10T09:17:23.56Z</time>
      </trkpt>
      <trkpt lat="45.84873" lon="4.79115">
        <ele>442</ele>
        <time>2013-03-10T09:17:24.57Z</time>
      </trkpt>
      <trkpt lat="45.84874" lon="4.79112">
        <ele>442.2</ele>
        <time>2013-03-10T09:17:25.57Z</time>
      </trkpt>
      <trkpt lat="45.84874" lon="4.7911">
        <ele>442.3</ele>
        <time>2013-03-10T09:17:26.65Z</time>
      </trkpt>
      <trkpt lat="45.84876" lon="4.79105">
        <ele>443.2</ele>
        <time>2013-03-10T09:17:28.57Z</time>
      </trkpt>
      <trkpt lat="45.84876" lon="4.79102">
        <ele>443.6</ele>
        <time>2013-03-10T09:17:29.57Z</time>
      </trkpt>
      <trkpt lat="45.84877" lon="4.791">
        <ele>444</ele>
        <time>2013-03-10T09:17:30.58Z</time>
      </trkpt>
      <trkpt lat="45.84877" lon="4.79098">
        <ele>444.3</ele>
        <time>2013-03-10T09:17:31.57Z</time>
      </trkpt>
      <trkpt lat="45.84878" lon="4.79096">
        <ele>444.7</ele>
        <time>2013-03-10T09:17:32.58Z</time>
      </trkpt>
      <trkpt lat="45.84879" lon="4.79093">
        <ele>445.1</ele>
        <time>2013-03-10T09:17:33.69Z</time>
      </trkpt>
      <trkpt lat="45.84879" lon="4.79088">
        <ele>445.6</ele>
        <time>2013-03-10T09:17:35.57Z</time>
      </trkpt>
      <trkpt lat="45.84879" lon="4.79085">
        <ele>446</ele>
        <time>2013-03-10T09:17:36.63Z</time>
      </trkpt>
      <trkpt lat="45.8488" lon="4.7908">
        <ele>447.1</ele>
        <time>2013-03-10T09:17:38.66Z</time>
      </trkpt>
      <trkpt lat="45.84881" lon="4.79077">
        <ele>447.8</ele>
        <time>2013-03-10T09:17:40.57Z</time>
      </trkpt>
      <trkpt lat="45.84881" lon="4.79075">
        <ele>448.1</ele>
        <time>2013-03-10T09:17:41.57Z</time>
      </trkpt>
      <trkpt lat="45.8488" lon="4.79073">
        <ele>448.3</ele>
        <time>2013-03-10T09:17:42.57Z</time>
      </trkpt>
      <trkpt lat="45.84879" lon="4.79071">
        <ele>448.3</ele>
        <time>2013-03-10T09:17:43.69Z</time>
      </trkpt>
      <trkpt lat="45.84876" lon="4.79066">
        <ele>448.1</ele>
        <time>2013-03-10T09:17:45.58Z</time>
      </trkpt>
      <trkpt lat="45.84875" lon="4.79064">
        <ele>448</ele>
        <time>2013-03-10T09:17:46.57Z</time>
      </trkpt>
      <trkpt lat="45.84874" lon="4.79062">
        <ele>448.1</ele>
        <time>2013-03-10T09:17:47.58Z</time>
      </trkpt>
      <trkpt lat="45.84873" lon="4.79059">
        <ele>448.3</ele>
        <time>2013-03-10T09:17:48.66Z</time>
      </trkpt>
      <trkpt lat="45.84871" lon="4.79055">
        <ele>448.2</ele>
        <time>2013-03-10T09:17:50.57Z</time>
      </trkpt>
      <trkpt lat="45.84869" lon="4.79053">
        <ele>448</ele>
        <time>2013-03-10T09:17:51.65Z</time>
      </trkpt>
      <trkpt lat="45.84866" lon="4.79048">
        <ele>447.7</ele>
        <time>2013-03-10T09:17:53.64Z</time>
      </trkpt>
      <trkpt lat="45.84863" lon="4.7904">
        <ele>447.8</ele>
        <time>2013-03-10T09:17:55.56Z</time>
      </trkpt>
      <trkpt lat="45.84862" lon="4.79035">
        <ele>448.2</ele>
        <time>2013-03-10T09:17:56.56Z</time>
      </trkpt>
      <trkpt lat="45.84861" lon="4.79031">
        <ele>448.6</ele>
        <time>2013-03-10T09:17:57.56Z</time>
      </trkpt>
      <trkpt lat="45.84861" lon="4.79026">
        <ele>449</ele>
        <time>2013-03-10T09:17:58.56Z</time>
      </trkpt>
      <trkpt lat="45.84861" lon="4.79021">
        <ele>462.1</ele>
        <time>2013-03-10T09:17:59.64Z</time>
      </trkpt>
      <trkpt lat="45.84859" lon="4.79013">
        <ele>449.2</ele>
        <time>2013-03-10T09:18:01.57Z</time>
      </trkpt>
      <trkpt lat="45.84857" lon="4.79009">
        <ele>449.1</ele>
        <time>2013-03-10T09:18:02.58Z</time>
      </trkpt>
      <trkpt lat="45.84856" lon="4.79003">
        <ele>449.1</ele>
        <time>2013-03-10T09:18:03.64Z</time>
      </trkpt>
      <trkpt lat="45.84855" lon="4.78995">
        <ele>450.2</ele>
        <time>2013-03-10T09:18:05.56Z</time>
      </trkpt>
      <trkpt lat="45.84854" lon="4.78993">
        <ele>450.5</ele>
        <time>2013-03-10T09:18:06.66Z</time>
      </trkpt>
      <trkpt lat="45.84852" lon="4.78992">
        <ele>450.4</ele>
        <time>2013-03-10T09:18:08.66Z</time>
      </trkpt>
      <trkpt lat="45.84848" lon="4.78989">
        <ele>450.6</ele>
        <time>2013-03-10T09:18:10.67Z</time>
      </trkpt>
      <trkpt lat="45.84845" lon="4.78986">
        <ele>451.1</ele>
        <time>2013-03-10T09:18:12.66Z</time>
      </trkpt>
      <trkpt lat="45.84844" lon="4.78981">
        <ele>452</ele>
        <time>2013-03-10T09:18:14.66Z</time>
      </trkpt>
      <trkpt lat="45.84844" lon="4.78979">
        <ele>452.6</ele>
        <time>2013-03-10T09:18:15.56Z</time>
      </trkpt>
      <trkpt lat="45.84843" lon="4.78977">
        <ele>452.9</ele>
        <time>2013-03-10T09:18:16.62Z</time>
      </trkpt>
      <trkpt lat="45.84843" lon="4.78974">
        <ele>453.7</ele>
        <time>2013-03-10T09:18:18.66Z</time>
      </trkpt>
      <trkpt lat="45.84841" lon="4.78968">
        <ele>454.7</ele>
        <time>2013-03-10T09:18:20.66Z</time>
      </trkpt>
      <trkpt lat="45.8484" lon="4.78966">
        <ele>455</ele>
        <time>2013-03-10T09:18:21.56Z</time>
      </trkpt>
      <trkpt lat="45.84839" lon="4.78964">
        <ele>455.3</ele>
        <time>2013-03-10T09:18:22.66Z</time>
      </trkpt>
      <trkpt lat="45.84838" lon="4.78961">
        <ele>455.8</ele>
        <time>2013-03-10T09:18:23.56Z</time>
      </trkpt>
      <trkpt lat="45.84838" lon="4.78959">
        <ele>456.1</ele>
        <time>2013-03-10T09:18:24.66Z</time>
      </trkpt>
      <trkpt lat="45.84837" lon="4.78957">
        <ele>456.4</ele>
        <time>2013-03-10T09:18:25.56Z</time>
      </trkpt>
      <trkpt lat="45.84836" lon="4.78955">
        <ele>456.5</ele>
        <time>2013-03-10T09:18:26.66Z</time>
      </trkpt>
      <trkpt lat="45.84834" lon="4.78953">
        <ele>456.7</ele>
        <time>2013-03-10T09:18:27.56Z</time>
      </trkpt>
      <trkpt lat="45.84833" lon="4.78952">
        <ele>456.7</ele>
        <time>2013-03-10T09:18:28.74Z</time>
      </trkpt>
      <trkpt lat="45.84831" lon="4.7895">
        <ele>456.7</ele>
        <time>2013-03-10T09:18:30.56Z</time>
      </trkpt>
      <trkpt lat="45.84828" lon="4.78949">
        <ele>456.7</ele>
        <time>2013-03-10T09:18:31.66Z</time>
      </trkpt>
      <trkpt lat="45.84826" lon="4.78947">
        <ele>456.8</ele>
        <time>2013-03-10T09:18:32.56Z</time>
      </trkpt>
      <trkpt lat="45.84824" lon="4.78946">
        <ele>456.8</ele>
        <time>2013-03-10T09:18:33.69Z</time>
      </trkpt>
      <trkpt lat="45.8482" lon="4.78945">
        <ele>456.5</ele>
        <time>2013-03-10T09:18:35.66Z</time>
      </trkpt>
      <trkpt lat="45.84815" lon="4.78944">
        <ele>456.2</ele>
        <time>2013-03-10T09:18:37.66Z</time>
      </trkpt>
      <trkpt lat="45.84811" lon="4.78943">
        <ele>456</ele>
        <time>2013-03-10T09:18:38.56Z</time>
      </trkpt>
      <trkpt lat="45.84807" lon="4.78943">
        <ele>455.6</ele>
        <time>2013-03-10T09:18:39.65Z</time>
      </trkpt>
      <trkpt lat="45.84803" lon="4.78943">
        <ele>455</ele>
        <time>2013-03-10T09:18:40.66Z</time>
      </trkpt>
      <trkpt lat="45.848" lon="4.78943">
        <ele>454.4</ele>
        <time>2013-03-10T09:18:41.57Z</time>
      </trkpt>
      <trkpt lat="45.84796" lon="4.78943">
        <ele>453.7</ele>
        <time>2013-03-10T09:18:42.66Z</time>
      </trkpt>
      <trkpt lat="45.84793" lon="4.78943">
        <ele>453.1</ele>
        <time>2013-03-10T09:18:43.56Z</time>
      </trkpt>
      <trkpt lat="45.84789" lon="4.78943">
        <ele>452.4</ele>
        <time>2013-03-10T09:18:44.65Z</time>
      </trkpt>
      <trkpt lat="45.84785" lon="4.78943">
        <ele>451.6</ele>
        <time>2013-03-10T09:18:45.56Z</time>
      </trkpt>
      <trkpt lat="45.84782" lon="4.78944">
        <ele>451</ele>
        <time>2013-03-10T09:18:46.65Z</time>
      </trkpt>
      <trkpt lat="45.84778" lon="4.78943">
        <ele>450.3</ele>
        <time>2013-03-10T09:18:47.56Z</time>
      </trkpt>
      <trkpt lat="45.84774" lon="4.78943">
        <ele>450.6</ele>
        <time>2013-03-10T09:18:48.65Z</time>
      </trkpt>
      <trkpt lat="45.84769" lon="4.7894">
        <ele>451.5</ele>
        <time>2013-03-10T09:18:50.61Z</time>
      </trkpt>
      <trkpt lat="45.84766" lon="4.78937">
        <ele>452</ele>
        <time>2013-03-10T09:18:51.56Z</time>
      </trkpt>
      <trkpt lat="45.84764" lon="4.78935">
        <ele>452.3</ele>
        <time>2013-03-10T09:18:52.56Z</time>
      </trkpt>
      <trkpt lat="45.84762" lon="4.78933">
        <ele>452.6</ele>
        <time>2013-03-10T09:18:53.65Z</time>
      </trkpt>
      <trkpt lat="45.84757" lon="4.78929">
        <ele>452.9</ele>
        <time>2013-03-10T09:18:55.65Z</time>
      </trkpt>
      <trkpt lat="45.84755" lon="4.78926">
        <ele>453</ele>
        <time>2013-03-10T09:18:56.56Z</time>
      </trkpt>
      <trkpt lat="45.84753" lon="4.78924">
        <ele>453</ele>
        <time>2013-03-10T09:18:57.65Z</time>
      </trkpt>
      <trkpt lat="45.84752" lon="4.78922">
        <ele>453</ele>
        <time>2013-03-10T09:18:58.56Z</time>
      </trkpt>
      <trkpt lat="45.8475" lon="4.78919">
        <ele>452.9</ele>
        <time>2013-03-10T09:18:59.67Z</time>
      </trkpt>
      <trkpt lat="45.84746" lon="4.78913">
        <ele>465.4</ele>
        <time>2013-03-10T09:19:01.56Z</time>
      </trkpt>
      <trkpt lat="45.84744" lon="4.78911">
        <ele>454.5</ele>
        <time>2013-03-10T09:19:02.65Z</time>
      </trkpt>
      <trkpt lat="45.84742" lon="4.78909">
        <ele>454.9</ele>
        <time>2013-03-10T09:19:03.57Z</time>
      </trkpt>
      <trkpt lat="45.84739" lon="4.78906">
        <ele>455.3</ele>
        <time>2013-03-10T09:19:04.66Z</time>
      </trkpt>
      <trkpt lat="45.84738" lon="4.78903">
        <ele>455.7</ele>
        <time>2013-03-10T09:19:05.56Z</time>
      </trkpt>
      <trkpt lat="45.84736" lon="4.78901">
        <ele>456</ele>
        <time>2013-03-10T09:19:06.65Z</time>
      </trkpt>
      <trkpt lat="45.84735" lon="4.789">
        <ele>456</ele>
        <time>2013-03-10T09:19:07.56Z</time>
      </trkpt>
      <trkpt lat="45.84732" lon="4.78899">
        <ele>456</ele>
        <time>2013-03-10T09:19:08.68Z</time>
      </trkpt>
      <trkpt lat="45.84728" lon="4.78896">
        <ele>456</ele>
        <time>2013-03-10T09:19:10.65Z</time>
      </trkpt>
      <trkpt lat="45.84726" lon="4.78895">
        <ele>455.9</ele>
        <time>2013-03-10T09:19:11.56Z</time>
      </trkpt>
      <trkpt lat="45.84724" lon="4.78893">
        <ele>455.9</ele>
        <time>2013-03-10T09:19:12.65Z</time>
      </trkpt>
      <trkpt lat="45.84721" lon="4.78891">
        <ele>455.9</ele>
        <time>2013-03-10T09:19:13.56Z</time>
      </trkpt>
      <trkpt lat="45.84719" lon="4.78889">
        <ele>456.1</ele>
        <time>2013-03-10T09:19:14.69Z</time>
      </trkpt>
      <trkpt lat="45.84715" lon="4.78887">
        <ele>456.8</ele>
        <time>2013-03-10T09:19:16.57Z</time>
      </trkpt>
      <trkpt lat="45.84712" lon="4.78886">
        <ele>457.2</ele>
        <time>2013-03-10T09:19:17.65Z</time>
      </trkpt>
      <trkpt lat="45.84708" lon="4.78884">
        <ele>457.7</ele>
        <time>2013-03-10T09:19:19.65Z</time>
      </trkpt>
      <trkpt lat="45.84706" lon="4.78882">
        <ele>458.1</ele>
        <time>2013-03-10T09:19:20.56Z</time>
      </trkpt>
      <trkpt lat="45.84703" lon="4.7888">
        <ele>458.4</ele>
        <time>2013-03-10T09:19:21.65Z</time>
      </trkpt>
      <trkpt lat="45.84702" lon="4.7888">
        <ele>458.5</ele>
        <time>2013-03-10T09:19:22.56Z</time>
      </trkpt>
      <trkpt lat="45.847" lon="4.78879">
        <ele>458.6</ele>
        <time>2013-03-10T09:19:23.65Z</time>
      </trkpt>
      <trkpt lat="45.84695" lon="4.78877">
        <ele>458.7</ele>
        <time>2013-03-10T09:19:25.64Z</time>
      </trkpt>
      <trkpt lat="45.84693" lon="4.78877">
        <ele>458.8</ele>
        <time>2013-03-10T09:19:26.56Z</time>
      </trkpt>
      <trkpt lat="45.84691" lon="4.78875">
        <ele>459</ele>
        <time>2013-03-10T09:19:27.63Z</time>
      </trkpt>
      <trkpt lat="45.84689" lon="4.78873">
        <ele>459.4</ele>
        <time>2013-03-10T09:19:28.56Z</time>
      </trkpt>
      <trkpt lat="45.84687" lon="4.78871">
        <ele>459.6</ele>
        <time>2013-03-10T09:19:29.64Z</time>
      </trkpt>
      <trkpt lat="45.84684" lon="4.78872">
        <ele>459.5</ele>
        <time>2013-03-10T09:19:30.56Z</time>
      </trkpt>
      <trkpt lat="45.84682" lon="4.78871">
        <ele>459.6</ele>
        <time>2013-03-10T09:19:31.64Z</time>
      </trkpt>
      <trkpt lat="45.84679" lon="4.7887">
        <ele>459.7</ele>
        <time>2013-03-10T09:19:32.56Z</time>
      </trkpt>
      <trkpt lat="45.84677" lon="4.78869">
        <ele>459.7</ele>
        <time>2013-03-10T09:19:33.72Z</time>
      </trkpt>
      <trkpt lat="45.84674" lon="4.78865">
        <ele>460</ele>
        <time>2013-03-10T09:19:35.64Z</time>
      </trkpt>
      <trkpt lat="45.84672" lon="4.78863">
        <ele>460.1</ele>
        <time>2013-03-10T09:19:36.56Z</time>
      </trkpt>
      <trkpt lat="45.84671" lon="4.7886">
        <ele>460.5</ele>
        <time>2013-03-10T09:19:37.71Z</time>
      </trkpt>
      <trkpt lat="45.84667" lon="4.78857">
        <ele>461.2</ele>
        <time>2013-03-10T09:19:39.56Z</time>
      </trkpt>
      <trkpt lat="45.84665" lon="4.78857">
        <ele>461.3</ele>
        <time>2013-03-10T09:19:40.64Z</time>
      </trkpt>
      <trkpt lat="45.84664" lon="4.78856">
        <ele>461.6</ele>
        <time>2013-03-10T09:19:41.57Z</time>
      </trkpt>
      <trkpt lat="45.84662" lon="4.78854">
        <ele>462</ele>
        <time>2013-03-10T09:19:42.64Z</time>
      </trkpt>
      <trkpt lat="45.84661" lon="4.78852">
        <ele>462.4</ele>
        <time>2013-03-10T09:19:43.56Z</time>
      </trkpt>
      <trkpt lat="45.84659" lon="4.7885">
        <ele>462.9</ele>
        <time>2013-03-10T09:19:44.64Z</time>
      </trkpt>
      <trkpt lat="45.84657" lon="4.78848">
        <ele>463.3</ele>
        <time>2013-03-10T09:19:45.56Z</time>
      </trkpt>
      <trkpt lat="45.84655" lon="4.78846">
        <ele>463.7</ele>
        <time>2013-03-10T09:19:46.64Z</time>
      </trkpt>
      <trkpt lat="45.84652" lon="4.78844">
        <ele>463.9</ele>
        <time>2013-03-10T09:19:47.56Z</time>
      </trkpt>
      <trkpt lat="45.8465" lon="4.78842">
        <ele>464.1</ele>
        <time>2013-03-10T09:19:48.67Z</time>
      </trkpt>
      <trkpt lat="45.84647" lon="4.78838">
        <ele>464.4</ele>
        <time>2013-03-10T09:19:50.57Z</time>
      </trkpt>
      <trkpt lat="45.84644" lon="4.78834">
        <ele>464.5</ele>
        <time>2013-03-10T09:19:52.64Z</time>
      </trkpt>
      <trkpt lat="45.8464" lon="4.78829">
        <ele>465.3</ele>
        <time>2013-03-10T09:19:54.64Z</time>
      </trkpt>
      <trkpt lat="45.84638" lon="4.78826">
        <ele>465.8</ele>
        <time>2013-03-10T09:19:55.57Z</time>
      </trkpt>
      <trkpt lat="45.84637" lon="4.78823">
        <ele>466.4</ele>
        <time>2013-03-10T09:19:56.64Z</time>
      </trkpt>
      <trkpt lat="45.84635" lon="4.7882">
        <ele>467.1</ele>
        <time>2013-03-10T09:19:57.57Z</time>
      </trkpt>
      <trkpt lat="45.84634" lon="4.78817">
        <ele>467.7</ele>
        <time>2013-03-10T09:19:58.65Z</time>
      </trkpt>
      <trkpt lat="45.84633" lon="4.78814">
        <ele>468.2</ele>
        <time>2013-03-10T09:19:59.69Z</time>
      </trkpt>
      <trkpt lat="45.8463" lon="4.78807">
        <ele>473.8</ele>
        <time>2013-03-10T09:20:01.56Z</time>
      </trkpt>
      <trkpt lat="45.8463" lon="4.78804">
        <ele>470</ele>
        <time>2013-03-10T09:20:02.62Z</time>
      </trkpt>
      <trkpt lat="45.84629" lon="4.788">
        <ele>470.6</ele>
        <time>2013-03-10T09:20:04.64Z</time>
      </trkpt>
      <trkpt lat="45.84627" lon="4.78797">
        <ele>470.9</ele>
        <time>2013-03-10T09:20:05.56Z</time>
      </trkpt>
      <trkpt lat="45.84626" lon="4.78795">
        <ele>471.2</ele>
        <time>2013-03-10T09:20:06.63Z</time>
      </trkpt>
      <trkpt lat="45.84625" lon="4.78793">
        <ele>471.3</ele>
        <time>2013-03-10T09:20:07.56Z</time>
      </trkpt>
      <trkpt lat="45.84625" lon="4.78791">
        <ele>471.5</ele>
        <time>2013-03-10T09:20:08.64Z</time>
      </trkpt>
      <trkpt lat="45.84623" lon="4.78786">
        <ele>472</ele>
        <time>2013-03-10T09:20:10.57Z</time>
      </trkpt>
      <trkpt lat="45.84623" lon="4.78783">
        <ele>472.4</ele>
        <time>2013-03-10T09:20:11.63Z</time>
      </trkpt>
      <trkpt lat="45.84622" lon="4.7878">
        <ele>472.9</ele>
        <time>2013-03-10T09:20:12.57Z</time>
      </trkpt>
      <trkpt lat="45.84622" lon="4.78778">
        <ele>473.2</ele>
        <time>2013-03-10T09:20:13.56Z</time>
      </trkpt>
      <trkpt lat="45.84622" lon="4.78775">
        <ele>473.7</ele>
        <time>2013-03-10T09:20:14.56Z</time>
      </trkpt>
      <trkpt lat="45.84622" lon="4.78772">
        <ele>474.1</ele>
        <time>2013-03-10T09:20:15.56Z</time>
      </trkpt>
      <trkpt lat="45.84621" lon="4.78769">
        <ele>474.3</ele>
        <time>2013-03-10T09:20:16.57Z</time>
      </trkpt>
      <trkpt lat="45.84619" lon="4.78765">
        <ele>474.3</ele>
        <time>2013-03-10T09:20:18.43Z</time>
      </trkpt>
      <trkpt lat="45.84618" lon="4.78763">
        <ele>474.4</ele>
        <time>2013-03-10T09:20:19.56Z</time>
      </trkpt>
      <trkpt lat="45.84618" lon="4.78762">
        <ele>474.4</ele>
        <time>2013-03-10T09:20:20.56Z</time>
      </trkpt>
      <trkpt lat="45.84618" lon="4.78758">
        <ele>475</ele>
        <time>2013-03-10T09:20:22.56Z</time>
      </trkpt>
      <trkpt lat="45.84617" lon="4.78756">
        <ele>475.3</ele>
        <time>2013-03-10T09:20:23.56Z</time>
      </trkpt>
      <trkpt lat="45.84616" lon="4.78754">
        <ele>475.2</ele>
        <time>2013-03-10T09:20:24.56Z</time>
      </trkpt>
      <trkpt lat="45.84615" lon="4.78751">
        <ele>475.4</ele>
        <time>2013-03-10T09:20:25.56Z</time>
      </trkpt>
      <trkpt lat="45.84615" lon="4.78747">
        <ele>476</ele>
        <time>2013-03-10T09:20:26.56Z</time>
      </trkpt>
      <trkpt lat="45.84615" lon="4.78743">
        <ele>476.2</ele>
        <time>2013-03-10T09:20:27.56Z</time>
      </trkpt>
      <trkpt lat="45.84614" lon="4.78741">
        <ele>476.3</ele>
        <time>2013-03-10T09:20:28.56Z</time>
      </trkpt>
      <trkpt lat="45.84613" lon="4.78738">
        <ele>476.2</ele>
        <time>2013-03-10T09:20:29.56Z</time>
      </trkpt>
      <trkpt lat="45.84611" lon="4.78736">
        <ele>476.1</ele>
        <time>2013-03-10T09:20:30.56Z</time>
      </trkpt>
      <trkpt lat="45.8461" lon="4.78733">
        <ele>476.5</ele>
        <time>2013-03-10T09:20:31.56Z</time>
      </trkpt>
      <trkpt lat="45.84609" lon="4.78731">
        <ele>476.9</ele>
        <time>2013-03-10T09:20:32.56Z</time>
      </trkpt>
      <trkpt lat="45.84608" lon="4.78729">
        <ele>477.2</ele>
        <time>2013-03-10T09:20:33.57Z</time>
      </trkpt>
      <trkpt lat="45.84605" lon="4.78725">
        <ele>478</ele>
        <time>2013-03-10T09:20:35.43Z</time>
      </trkpt>
      <trkpt lat="45.84604" lon="4.78723">
        <ele>478.4</ele>
        <time>2013-03-10T09:20:36.43Z</time>
      </trkpt>
      <trkpt lat="45.84603" lon="4.78722">
        <ele>478.6</ele>
        <time>2013-03-10T09:20:37.43Z</time>
      </trkpt>
      <trkpt lat="45.84602" lon="4.78721">
        <ele>478.8</ele>
        <time>2013-03-10T09:20:39.56Z</time>
      </trkpt>
      <trkpt lat="45.84601" lon="4.7872">
        <ele>479.1</ele>
        <time>2013-03-10T09:20:40.56Z</time>
      </trkpt>
      <trkpt lat="45.84599" lon="4.7872">
        <ele>479.3</ele>
        <time>2013-03-10T09:20:41.57Z</time>
      </trkpt>
      <trkpt lat="45.84598" lon="4.78718">
        <ele>479.6</ele>
        <time>2013-03-10T09:20:42.56Z</time>
      </trkpt>
      <trkpt lat="45.84597" lon="4.78718">
        <ele>479.8</ele>
        <time>2013-03-10T09:20:43.56Z</time>
      </trkpt>
      <trkpt lat="45.84596" lon="4.78717">
        <ele>480.1</ele>
        <time>2013-03-10T09:20:44.56Z</time>
      </trkpt>
      <trkpt lat="45.84595" lon="4.78715">
        <ele>480.5</ele>
        <time>2013-03-10T09:20:45.56Z</time>
      </trkpt>
      <trkpt lat="45.84593" lon="4.78714">
        <ele>480.9</ele>
        <time>2013-03-10T09:20:46.56Z</time>
      </trkpt>
      <trkpt lat="45.84593" lon="4.78712">
        <ele>481.2</ele>
        <time>2013-03-10T09:20:47.56Z</time>
      </trkpt>
      <trkpt lat="45.84591" lon="4.78712">
        <ele>481.4</ele>
        <time>2013-03-10T09:20:48.56Z</time>
      </trkpt>
      <trkpt lat="45.8459" lon="4.78711">
        <ele>481.6</ele>
        <time>2013-03-10T09:20:49.56Z</time>
      </trkpt>
      <trkpt lat="45.84589" lon="4.78709">
        <ele>482</ele>
        <time>2013-03-10T09:20:50.57Z</time>
      </trkpt>
      <trkpt lat="45.84584" lon="4.78709">
        <ele>482.4</ele>
        <time>2013-03-10T09:20:52.42Z</time>
      </trkpt>
      <trkpt lat="45.84583" lon="4.78708">
        <ele>482.4</ele>
        <time>2013-03-10T09:20:53.42Z</time>
      </trkpt>
      <trkpt lat="45.84581" lon="4.78707">
        <ele>482.5</ele>
        <time>2013-03-10T09:20:54.42Z</time>
      </trkpt>
      <trkpt lat="45.84578" lon="4.78704">
        <ele>482.8</ele>
        <time>2013-03-10T09:20:56.42Z</time>
      </trkpt>
      <trkpt lat="45.84577" lon="4.78703">
        <ele>483</ele>
        <time>2013-03-10T09:20:57.42Z</time>
      </trkpt>
      <trkpt lat="45.84575" lon="4.78702">
        <ele>483</ele>
        <time>2013-03-10T09:20:58.65Z</time>
      </trkpt>
      <trkpt lat="45.84574" lon="4.78702">
        <ele>483</ele>
        <time>2013-03-10T09:20:59.65Z</time>
      </trkpt>
      <trkpt lat="45.84571" lon="4.78697">
        <ele>494.2</ele>
        <time>2013-03-10T09:21:01.42Z</time>
      </trkpt>
      <trkpt lat="45.84569" lon="4.78694">
        <ele>484</ele>
        <time>2013-03-10T09:21:02.65Z</time>
      </trkpt>
      <trkpt lat="45.84567" lon="4.78692">
        <ele>484.3</ele>
        <time>2013-03-10T09:21:03.56Z</time>
      </trkpt>
      <trkpt lat="45.84566" lon="4.78691">
        <ele>484.5</ele>
        <time>2013-03-10T09:21:04.56Z</time>
      </trkpt>
      <trkpt lat="45.84564" lon="4.78689">
        <ele>484.8</ele>
        <time>2013-03-10T09:21:05.56Z</time>
      </trkpt>
      <trkpt lat="45.84562" lon="4.78687">
        <ele>485.3</ele>
        <time>2013-03-10T09:21:06.56Z</time>
      </trkpt>
      <trkpt lat="45.8456" lon="4.78684">
        <ele>485.9</ele>
        <time>2013-03-10T09:21:07.56Z</time>
      </trkpt>
      <trkpt lat="45.84559" lon="4.78681">
        <ele>486.4</ele>
        <time>2013-03-10T09:21:08.56Z</time>
      </trkpt>
      <trkpt lat="45.84557" lon="4.78679">
        <ele>486.9</ele>
        <time>2013-03-10T09:21:09.62Z</time>
      </trkpt>
      <trkpt lat="45.84555" lon="4.78677">
        <ele>487.3</ele>
        <time>2013-03-10T09:21:10.63Z</time>
      </trkpt>
      <trkpt lat="45.84552" lon="4.78673">
        <ele>487.7</ele>
        <time>2013-03-10T09:21:12.75Z</time>
      </trkpt>
      <trkpt lat="45.8455" lon="4.78671">
        <ele>487.8</ele>
        <time>2013-03-10T09:21:13.66Z</time>
      </trkpt>
      <trkpt lat="45.84548" lon="4.78665">
        <ele>488.6</ele>
        <time>2013-03-10T09:21:15.63Z</time>
      </trkpt>
      <trkpt lat="45.84546" lon="4.78664">
        <ele>488.7</ele>
        <time>2013-03-10T09:21:16.59Z</time>
      </trkpt>
      <trkpt lat="45.84544" lon="4.78659">
        <ele>489.3</ele>
        <time>2013-03-10T09:21:18.56Z</time>
      </trkpt>
      <trkpt lat="45.84543" lon="4.78657">
        <ele>489.7</ele>
        <time>2013-03-10T09:21:19.56Z</time>
      </trkpt>
      <trkpt lat="45.84543" lon="4.78654">
        <ele>490.1</ele>
        <time>2013-03-10T09:21:20.56Z</time>
      </trkpt>
      <trkpt lat="45.84541" lon="4.78652">
        <ele>490.4</ele>
        <time>2013-03-10T09:21:21.56Z</time>
      </trkpt>
      <trkpt lat="45.8454" lon="4.78649">
        <ele>490.7</ele>
        <time>2013-03-10T09:21:22.56Z</time>
      </trkpt>
      <trkpt lat="45.84538" lon="4.78646">
        <ele>491.1</ele>
        <time>2013-03-10T09:21:23.56Z</time>
      </trkpt>
      <trkpt lat="45.84537" lon="4.78643">
        <ele>491.7</ele>
        <time>2013-03-10T09:21:24.56Z</time>
      </trkpt>
      <trkpt lat="45.84536" lon="4.7864">
        <ele>492.1</ele>
        <time>2013-03-10T09:21:25.56Z</time>
      </trkpt>
      <trkpt lat="45.84534" lon="4.78638">
        <ele>492.4</ele>
        <time>2013-03-10T09:21:26.56Z</time>
      </trkpt>
      <trkpt lat="45.84533" lon="4.78637">
        <ele>492.4</ele>
        <time>2013-03-10T09:21:27.56Z</time>
      </trkpt>
      <trkpt lat="45.8453" lon="4.78633">
        <ele>492.8</ele>
        <time>2013-03-10T09:21:28.56Z</time>
      </trkpt>
      <trkpt lat="45.84529" lon="4.78631">
        <ele>493.1</ele>
        <time>2013-03-10T09:21:29.56Z</time>
      </trkpt>
      <trkpt lat="45.84527" lon="4.78629">
        <ele>493.2</ele>
        <time>2013-03-10T09:21:30.56Z</time>
      </trkpt>
      <trkpt lat="45.84525" lon="4.78627">
        <ele>493.5</ele>
        <time>2013-03-10T09:21:31.56Z</time>
      </trkpt>
      <trkpt lat="45.84523" lon="4.78624">
        <ele>493.8</ele>
        <time>2013-03-10T09:21:32.56Z</time>
      </trkpt>
      <trkpt lat="45.84522" lon="4.78622">
        <ele>494.2</ele>
        <time>2013-03-10T09:21:33.57Z</time>
      </trkpt>
      <trkpt lat="45.8452" lon="4.78619">
        <ele>494.4</ele>
        <time>2013-03-10T09:21:34.56Z</time>
      </trkpt>
      <trkpt lat="45.84519" lon="4.78618">
        <ele>494.5</ele>
        <time>2013-03-10T09:21:35.56Z</time>
      </trkpt>
      <trkpt lat="45.84517" lon="4.78615">
        <ele>494.7</ele>
        <time>2013-03-10T09:21:36.56Z</time>
      </trkpt>
      <trkpt lat="45.84515" lon="4.78613">
        <ele>494.8</ele>
        <time>2013-03-10T09:21:37.56Z</time>
      </trkpt>
      <trkpt lat="45.84514" lon="4.78612">
        <ele>494.8</ele>
        <time>2013-03-10T09:21:38.56Z</time>
      </trkpt>
      <trkpt lat="45.84512" lon="4.7861">
        <ele>494.9</ele>
        <time>2013-03-10T09:21:39.57Z</time>
      </trkpt>
      <trkpt lat="45.8451" lon="4.78608">
        <ele>494.9</ele>
        <time>2013-03-10T09:21:40.61Z</time>
      </trkpt>
      <trkpt lat="45.84508" lon="4.78606">
        <ele>495.1</ele>
        <time>2013-03-10T09:21:41.61Z</time>
      </trkpt>
      <trkpt lat="45.84507" lon="4.78604">
        <ele>495.3</ele>
        <time>2013-03-10T09:21:42.61Z</time>
      </trkpt>
      <trkpt lat="45.84506" lon="4.78602">
        <ele>495.6</ele>
        <time>2013-03-10T09:21:43.66Z</time>
      </trkpt>
      <trkpt lat="45.84501" lon="4.78597">
        <ele>495.9</ele>
        <time>2013-03-10T09:21:45.56Z</time>
      </trkpt>
      <trkpt lat="45.845" lon="4.78594">
        <ele>496.2</ele>
        <time>2013-03-10T09:21:46.56Z</time>
      </trkpt>
      <trkpt lat="45.84497" lon="4.78592">
        <ele>496.3</ele>
        <time>2013-03-10T09:21:47.56Z</time>
      </trkpt>
      <trkpt lat="45.84496" lon="4.7859">
        <ele>496.4</ele>
        <time>2013-03-10T09:21:48.56Z</time>
      </trkpt>
      <trkpt lat="45.84494" lon="4.78589">
        <ele>496.4</ele>
        <time>2013-03-10T09:21:49.56Z</time>
      </trkpt>
      <trkpt lat="45.84492" lon="4.78587">
        <ele>496.4</ele>
        <time>2013-03-10T09:21:50.57Z</time>
      </trkpt>
      <trkpt lat="45.84491" lon="4.78584">
        <ele>496.8</ele>
        <time>2013-03-10T09:21:51.62Z</time>
      </trkpt>
      <trkpt lat="45.84489" lon="4.78581">
        <ele>497.1</ele>
        <time>2013-03-10T09:21:52.61Z</time>
      </trkpt>
      <trkpt lat="45.84487" lon="4.78579">
        <ele>497.1</ele>
        <time>2013-03-10T09:21:53.67Z</time>
      </trkpt>
      <trkpt lat="45.84482" lon="4.78575">
        <ele>497.2</ele>
        <time>2013-03-10T09:21:55.56Z</time>
      </trkpt>
      <trkpt lat="45.84481" lon="4.78572">
        <ele>497.4</ele>
        <time>2013-03-10T09:21:56.56Z</time>
      </trkpt>
      <trkpt lat="45.84479" lon="4.78569">
        <ele>497.7</ele>
        <time>2013-03-10T09:21:57.56Z</time>
      </trkpt>
      <trkpt lat="45.84477" lon="4.78566">
        <ele>497.9</ele>
        <time>2013-03-10T09:21:58.66Z</time>
      </trkpt>
      <trkpt lat="45.84474" lon="4.78561">
        <ele>509.8</ele>
        <time>2013-03-10T09:22:00.61Z</time>
      </trkpt>
      <trkpt lat="45.84473" lon="4.78558">
        <ele>498.5</ele>
        <time>2013-03-10T09:22:01.61Z</time>
      </trkpt>
      <trkpt lat="45.84471" lon="4.78556">
        <ele>498.7</ele>
        <time>2013-03-10T09:22:02.69Z</time>
      </trkpt>
      <trkpt lat="45.84469" lon="4.78552">
        <ele>499.3</ele>
        <time>2013-03-10T09:22:04.56Z</time>
      </trkpt>
      <trkpt lat="45.84467" lon="4.78549">
        <ele>499.7</ele>
        <time>2013-03-10T09:22:05.58Z</time>
      </trkpt>
      <trkpt lat="45.84466" lon="4.78546">
        <ele>500.2</ele>
        <time>2013-03-10T09:22:06.56Z</time>
      </trkpt>
      <trkpt lat="45.84465" lon="4.78543">
        <ele>500.5</ele>
        <time>2013-03-10T09:22:07.56Z</time>
      </trkpt>
      <trkpt lat="45.84464" lon="4.78541">
        <ele>500.9</ele>
        <time>2013-03-10T09:22:08.56Z</time>
      </trkpt>
      <trkpt lat="45.84462" lon="4.78538">
        <ele>501.2</ele>
        <time>2013-03-10T09:22:09.61Z</time>
      </trkpt>
      <trkpt lat="45.84461" lon="4.78535">
        <ele>501.6</ele>
        <time>2013-03-10T09:22:10.6Z</time>
      </trkpt>
      <trkpt lat="45.84459" lon="4.78532">
        <ele>501.8</ele>
        <time>2013-03-10T09:22:11.6Z</time>
      </trkpt>
      <trkpt lat="45.84457" lon="4.78529">
        <ele>501.9</ele>
        <time>2013-03-10T09:22:12.59Z</time>
      </trkpt>
      <trkpt lat="45.84453" lon="4.78525">
        <ele>501.9</ele>
        <time>2013-03-10T09:22:14.6Z</time>
      </trkpt>
      <trkpt lat="45.84452" lon="4.78522">
        <ele>502</ele>
        <time>2013-03-10T09:22:15.6Z</time>
      </trkpt>
      <trkpt lat="45.8445" lon="4.78519">
        <ele>502.3</ele>
        <time>2013-03-10T09:22:16.66Z</time>
      </trkpt>
      <trkpt lat="45.84448" lon="4.78514">
        <ele>502.8</ele>
        <time>2013-03-10T09:22:18.57Z</time>
      </trkpt>
      <trkpt lat="45.84446" lon="4.78512">
        <ele>502.8</ele>
        <time>2013-03-10T09:22:19.6Z</time>
      </trkpt>
      <trkpt lat="45.84444" lon="4.78509">
        <ele>503</ele>
        <time>2013-03-10T09:22:20.6Z</time>
      </trkpt>
      <trkpt lat="45.84443" lon="4.78507">
        <ele>503.4</ele>
        <time>2013-03-10T09:22:21.6Z</time>
      </trkpt>
      <trkpt lat="45.84441" lon="4.78505">
        <ele>503.7</ele>
        <time>2013-03-10T09:22:22.6Z</time>
      </trkpt>
      <trkpt lat="45.84439" lon="4.78502">
        <ele>504</ele>
        <time>2013-03-10T09:22:23.66Z</time>
      </trkpt>
      <trkpt lat="45.84436" lon="4.78497">
        <ele>504.7</ele>
        <time>2013-03-10T09:22:25.56Z</time>
      </trkpt>
      <trkpt lat="45.84434" lon="4.78495">
        <ele>504.8</ele>
        <time>2013-03-10T09:22:26.56Z</time>
      </trkpt>
      <trkpt lat="45.84432" lon="4.78494">
        <ele>504.9</ele>
        <time>2013-03-10T09:22:27.6Z</time>
      </trkpt>
      <trkpt lat="45.8443" lon="4.78492">
        <ele>505</ele>
        <time>2013-03-10T09:22:28.65Z</time>
      </trkpt>
      <trkpt lat="45.84427" lon="4.7849">
        <ele>505.2</ele>
        <time>2013-03-10T09:22:30.56Z</time>
      </trkpt>
      <trkpt lat="45.84426" lon="4.78487">
        <ele>505.5</ele>
        <time>2013-03-10T09:22:31.57Z</time>
      </trkpt>
      <trkpt lat="45.84424" lon="4.78485">
        <ele>505.6</ele>
        <time>2013-03-10T09:22:32.56Z</time>
      </trkpt>
      <trkpt lat="45.84422" lon="4.78483">
        <ele>505.8</ele>
        <time>2013-03-10T09:22:33.57Z</time>
      </trkpt>
      <trkpt lat="45.8442" lon="4.78481">
        <ele>505.8</ele>
        <time>2013-03-10T09:22:34.6Z</time>
      </trkpt>
      <trkpt lat="45.84418" lon="4.78479">
        <ele>506</ele>
        <time>2013-03-10T09:22:35.63Z</time>
      </trkpt>
      <trkpt lat="45.84416" lon="4.78475">
        <ele>506.6</ele>
        <time>2013-03-10T09:22:37.56Z</time>
      </trkpt>
      <trkpt lat="45.84414" lon="4.78474">
        <ele>506.7</ele>
        <time>2013-03-10T09:22:38.65Z</time>
      </trkpt>
      <trkpt lat="45.84411" lon="4.7847">
        <ele>507.5</ele>
        <time>2013-03-10T09:22:40.56Z</time>
      </trkpt>
      <trkpt lat="45.8441" lon="4.78468">
        <ele>508.1</ele>
        <time>2013-03-10T09:22:41.57Z</time>
      </trkpt>
      <trkpt lat="45.84409" lon="4.78467">
        <ele>508.3</ele>
        <time>2013-03-10T09:22:42.56Z</time>
      </trkpt>
      <trkpt lat="45.84407" lon="4.78465">
        <ele>508.5</ele>
        <time>2013-03-10T09:22:43.56Z</time>
      </trkpt>
      <trkpt lat="45.84405" lon="4.78463">
        <ele>509.1</ele>
        <time>2013-03-10T09:22:44.6Z</time>
      </trkpt>
      <trkpt lat="45.84403" lon="4.7846">
        <ele>509.6</ele>
        <time>2013-03-10T09:22:45.6Z</time>
      </trkpt>
      <trkpt lat="45.84401" lon="4.78459">
        <ele>509.8</ele>
        <time>2013-03-10T09:22:46.6Z</time>
      </trkpt>
      <trkpt lat="45.844" lon="4.78457">
        <ele>510.1</ele>
        <time>2013-03-10T09:22:47.62Z</time>
      </trkpt>
      <trkpt lat="45.84397" lon="4.78453">
        <ele>510.9</ele>
        <time>2013-03-10T09:22:49.56Z</time>
      </trkpt>
      <trkpt lat="45.84395" lon="4.78451">
        <ele>511.2</ele>
        <time>2013-03-10T09:22:50.65Z</time>
      </trkpt>
      <trkpt lat="45.84391" lon="4.78447">
        <ele>511.7</ele>
        <time>2013-03-10T09:22:52.56Z</time>
      </trkpt>
      <trkpt lat="45.8439" lon="4.78445">
        <ele>512.1</ele>
        <time>2013-03-10T09:22:53.56Z</time>
      </trkpt>
      <trkpt lat="45.84389" lon="4.78442">
        <ele>512.5</ele>
        <time>2013-03-10T09:22:54.59Z</time>
      </trkpt>
      <trkpt lat="45.84387" lon="4.78441">
        <ele>512.7</ele>
        <time>2013-03-10T09:22:55.59Z</time>
      </trkpt>
      <trkpt lat="45.84386" lon="4.7844">
        <ele>513</ele>
        <time>2013-03-10T09:22:56.6Z</time>
      </trkpt>
      <trkpt lat="45.84384" lon="4.78439">
        <ele>513.2</ele>
        <time>2013-03-10T09:22:57.59Z</time>
      </trkpt>
      <trkpt lat="45.84383" lon="4.78438">
        <ele>513.5</ele>
        <time>2013-03-10T09:22:58.66Z</time>
      </trkpt>
      <trkpt lat="45.84378" lon="4.78435">
        <ele>521.2</ele>
        <time>2013-03-10T09:23:00.61Z</time>
      </trkpt>
      <trkpt lat="45.84374" lon="4.78432">
        <ele>514.6</ele>
        <time>2013-03-10T09:23:02.56Z</time>
      </trkpt>
      <trkpt lat="45.84372" lon="4.78429">
        <ele>514.9</ele>
        <time>2013-03-10T09:23:03.56Z</time>
      </trkpt>
      <trkpt lat="45.8437" lon="4.78426">
        <ele>515.2</ele>
        <time>2013-03-10T09:23:04.59Z</time>
      </trkpt>
      <trkpt lat="45.84367" lon="4.78423">
        <ele>515.5</ele>
        <time>2013-03-10T09:23:05.63Z</time>
      </trkpt>
      <trkpt lat="45.84362" lon="4.78419">
        <ele>515.8</ele>
        <time>2013-03-10T09:23:07.56Z</time>
      </trkpt>
      <trkpt lat="45.8436" lon="4.78416">
        <ele>516.3</ele>
        <time>2013-03-10T09:23:08.56Z</time>
      </trkpt>
      <trkpt lat="45.84358" lon="4.78414">
        <ele>516.9</ele>
        <time>2013-03-10T09:23:09.56Z</time>
      </trkpt>
      <trkpt lat="45.84357" lon="4.78412">
        <ele>517.3</ele>
        <time>2013-03-10T09:23:10.56Z</time>
      </trkpt>
      <trkpt lat="45.84356" lon="4.7841">
        <ele>518</ele>
        <time>2013-03-10T09:23:11.56Z</time>
      </trkpt>
      <trkpt lat="45.84355" lon="4.78406">
        <ele>518.8</ele>
        <time>2013-03-10T09:23:12.57Z</time>
      </trkpt>
      <trkpt lat="45.84355" lon="4.78403">
        <ele>519.3</ele>
        <time>2013-03-10T09:23:13.56Z</time>
      </trkpt>
      <trkpt lat="45.84356" lon="4.78399">
        <ele>519.9</ele>
        <time>2013-03-10T09:23:14.56Z</time>
      </trkpt>
      <trkpt lat="45.84357" lon="4.78396">
        <ele>520.4</ele>
        <time>2013-03-10T09:23:15.56Z</time>
      </trkpt>
      <trkpt lat="45.84359" lon="4.78392">
        <ele>520.9</ele>
        <time>2013-03-10T09:23:16.57Z</time>
      </trkpt>
      <trkpt lat="45.84359" lon="4.78388">
        <ele>521.7</ele>
        <time>2013-03-10T09:23:17.59Z</time>
      </trkpt>
      <trkpt lat="45.84362" lon="4.78382">
        <ele>522.7</ele>
        <time>2013-03-10T09:23:18.67Z</time>
      </trkpt>
      <trkpt lat="45.84365" lon="4.78378">
        <ele>524.3</ele>
        <time>2013-03-10T09:23:20.63Z</time>
      </trkpt>
      <trkpt lat="45.84368" lon="4.78375">
        <ele>525.3</ele>
        <time>2013-03-10T09:23:22.56Z</time>
      </trkpt>
      <trkpt lat="45.84369" lon="4.78374">
        <ele>525.9</ele>
        <time>2013-03-10T09:23:23.56Z</time>
      </trkpt>
      <trkpt lat="45.84371" lon="4.78372">
        <ele>526.4</ele>
        <time>2013-03-10T09:23:25.59Z</time>
      </trkpt>
      <trkpt lat="45.84372" lon="4.78371">
        <ele>526.8</ele>
        <time>2013-03-10T09:23:26.59Z</time>
      </trkpt>
      <trkpt lat="45.84373" lon="4.78369">
        <ele>527.3</ele>
        <time>2013-03-10T09:23:27.59Z</time>
      </trkpt>
      <trkpt lat="45.84374" lon="4.78368">
        <ele>527.8</ele>
        <time>2013-03-10T09:23:28.66Z</time>
      </trkpt>
      <trkpt lat="45.84374" lon="4.78366">
        <ele>528.3</ele>
        <time>2013-03-10T09:23:30.59Z</time>
      </trkpt>
      <trkpt lat="45.84376" lon="4.78365">
        <ele>528.7</ele>
        <time>2013-03-10T09:23:32.58Z</time>
      </trkpt>
      <trkpt lat="45.84377" lon="4.78365">
        <ele>528.9</ele>
        <time>2013-03-10T09:23:33.71Z</time>
      </trkpt>
      <trkpt lat="45.84379" lon="4.78365">
        <ele>529.1</ele>
        <time>2013-03-10T09:23:35.58Z</time>
      </trkpt>
      <trkpt lat="45.8438" lon="4.78364">
        <ele>529.4</ele>
        <time>2013-03-10T09:23:36.58Z</time>
      </trkpt>
      <trkpt lat="45.8438" lon="4.78362">
        <ele>529.8</ele>
        <time>2013-03-10T09:23:37.66Z</time>
      </trkpt>
      <trkpt lat="45.84381" lon="4.78359">
        <ele>530.6</ele>
        <time>2013-03-10T09:23:39.56Z</time>
      </trkpt>
      <trkpt lat="45.8438" lon="4.78358">
        <ele>530.8</ele>
        <time>2013-03-10T09:23:40.57Z</time>
      </trkpt>
      <trkpt lat="45.8438" lon="4.78355">
        <ele>531.2</ele>
        <time>2013-03-10T09:23:41.57Z</time>
      </trkpt>
      <trkpt lat="45.84379" lon="4.78354">
        <ele>531.5</ele>
        <time>2013-03-10T09:23:43.67Z</time>
      </trkpt>
      <trkpt lat="45.84376" lon="4.78352">
        <ele>531.4</ele>
        <time>2013-03-10T09:23:45.56Z</time>
      </trkpt>
      <trkpt lat="45.84374" lon="4.78351">
        <ele>531.3</ele>
        <time>2013-03-10T09:23:46.56Z</time>
      </trkpt>
      <trkpt lat="45.84372" lon="4.78352">
        <ele>531</ele>
        <time>2013-03-10T09:23:47.56Z</time>
      </trkpt>
      <trkpt lat="45.84371" lon="4.78351">
        <ele>530.9</ele>
        <time>2013-03-10T09:23:48.56Z</time>
      </trkpt>
      <trkpt lat="45.84368" lon="4.7835">
        <ele>531</ele>
        <time>2013-03-10T09:23:49.62Z</time>
      </trkpt>
      <trkpt lat="45.84366" lon="4.78348">
        <ele>530.8</ele>
        <time>2013-03-10T09:23:50.57Z</time>
      </trkpt>
      <trkpt lat="45.84363" lon="4.78347">
        <ele>530.7</ele>
        <time>2013-03-10T09:23:51.58Z</time>
      </trkpt>
      <trkpt lat="45.8436" lon="4.78346">
        <ele>530.8</ele>
        <time>2013-03-10T09:23:52.58Z</time>
      </trkpt>
      <trkpt lat="45.84358" lon="4.78346">
        <ele>531</ele>
        <time>2013-03-10T09:23:53.74Z</time>
      </trkpt>
      <trkpt lat="45.84353" lon="4.78345">
        <ele>531.7</ele>
        <time>2013-03-10T09:23:55.58Z</time>
      </trkpt>
      <trkpt lat="45.84351" lon="4.78345">
        <ele>532.1</ele>
        <time>2013-03-10T09:23:56.58Z</time>
      </trkpt>
      <trkpt lat="45.84348" lon="4.78344">
        <ele>532.4</ele>
        <time>2013-03-10T09:23:57.58Z</time>
      </trkpt>
      <trkpt lat="45.84345" lon="4.78343">
        <ele>532.6</ele>
        <time>2013-03-10T09:23:58.66Z</time>
      </trkpt>
      <trkpt lat="45.84341" lon="4.78342">
        <ele>537.6</ele>
        <time>2013-03-10T09:24:00.56Z</time>
      </trkpt>
      <trkpt lat="45.84339" lon="4.78341">
        <ele>533.2</ele>
        <time>2013-03-10T09:24:01.56Z</time>
      </trkpt>
      <trkpt lat="45.84336" lon="4.78341">
        <ele>533.4</ele>
        <time>2013-03-10T09:24:02.56Z</time>
      </trkpt>
      <trkpt lat="45.84334" lon="4.78341">
        <ele>533.5</ele>
        <time>2013-03-10T09:24:03.56Z</time>
      </trkpt>
      <trkpt lat="45.84331" lon="4.78341">
        <ele>533.7</ele>
        <time>2013-03-10T09:24:04.58Z</time>
      </trkpt>
      <trkpt lat="45.84329" lon="4.78342">
        <ele>534</ele>
        <time>2013-03-10T09:24:05.58Z</time>
      </trkpt>
      <trkpt lat="45.84326" lon="4.78342">
        <ele>534.2</ele>
        <time>2013-03-10T09:24:06.62Z</time>
      </trkpt>
      <trkpt lat="45.8432" lon="4.78341">
        <ele>534.6</ele>
        <time>2013-03-10T09:24:08.56Z</time>
      </trkpt>
      <trkpt lat="45.84318" lon="4.7834">
        <ele>534.7</ele>
        <time>2013-03-10T09:24:09.58Z</time>
      </trkpt>
      <trkpt lat="45.84316" lon="4.78339">
        <ele>534.8</ele>
        <time>2013-03-10T09:24:10.58Z</time>
      </trkpt>
      <trkpt lat="45.84313" lon="4.78339">
        <ele>534.9</ele>
        <time>2013-03-10T09:24:11.57Z</time>
      </trkpt>
      <trkpt lat="45.84312" lon="4.78338">
        <ele>535</ele>
        <time>2013-03-10T09:24:12.66Z</time>
      </trkpt>
      <trkpt lat="45.84308" lon="4.78337">
        <ele>535.2</ele>
        <time>2013-03-10T09:24:14.58Z</time>
      </trkpt>
      <trkpt lat="45.84305" lon="4.78337">
        <ele>535.4</ele>
        <time>2013-03-10T09:24:15.57Z</time>
      </trkpt>
      <trkpt lat="45.84302" lon="4.78337">
        <ele>535.6</ele>
        <time>2013-03-10T09:24:16.63Z</time>
      </trkpt>
      <trkpt lat="45.84297" lon="4.78336">
        <ele>535.9</ele>
        <time>2013-03-10T09:24:18.56Z</time>
      </trkpt>
      <trkpt lat="45.84295" lon="4.78336">
        <ele>536</ele>
        <time>2013-03-10T09:24:19.57Z</time>
      </trkpt>
      <trkpt lat="45.84293" lon="4.78337">
        <ele>536.2</ele>
        <time>2013-03-10T09:24:20.57Z</time>
      </trkpt>
      <trkpt lat="45.84291" lon="4.78338">
        <ele>536.4</ele>
        <time>2013-03-10T09:24:21.58Z</time>
      </trkpt>
      <trkpt lat="45.84289" lon="4.78339">
        <ele>536.6</ele>
        <time>2013-03-10T09:24:22.57Z</time>
      </trkpt>
      <trkpt lat="45.84286" lon="4.78341">
        <ele>536.8</ele>
        <time>2013-03-10T09:24:23.67Z</time>
      </trkpt>
      <trkpt lat="45.84282" lon="4.78343">
        <ele>537.2</ele>
        <time>2013-03-10T09:24:25.58Z</time>
      </trkpt>
      <trkpt lat="45.84279" lon="4.78345">
        <ele>537.3</ele>
        <time>2013-03-10T09:24:26.57Z</time>
      </trkpt>
      <trkpt lat="45.84278" lon="4.78346">
        <ele>537.5</ele>
        <time>2013-03-10T09:24:27.58Z</time>
      </trkpt>
      <trkpt lat="45.84276" lon="4.78347">
        <ele>537.6</ele>
        <time>2013-03-10T09:24:28.66Z</time>
      </trkpt>
      <trkpt lat="45.84272" lon="4.7835">
        <ele>537.9</ele>
        <time>2013-03-10T09:24:30.56Z</time>
      </trkpt>
      <trkpt lat="45.84271" lon="4.78351">
        <ele>538.1</ele>
        <time>2013-03-10T09:24:31.56Z</time>
      </trkpt>
      <trkpt lat="45.84269" lon="4.78353">
        <ele>538.2</ele>
        <time>2013-03-10T09:24:32.57Z</time>
      </trkpt>
      <trkpt lat="45.84268" lon="4.78354">
        <ele>538.3</ele>
        <time>2013-03-10T09:24:33.57Z</time>
      </trkpt>
      <trkpt lat="45.84266" lon="4.78356">
        <ele>538.4</ele>
        <time>2013-03-10T09:24:34.57Z</time>
      </trkpt>
      <trkpt lat="45.84264" lon="4.78355">
        <ele>538.5</ele>
        <time>2013-03-10T09:24:35.57Z</time>
      </trkpt>
      <trkpt lat="45.84261" lon="4.78354">
        <ele>538.7</ele>
        <time>2013-03-10T09:24:36.65Z</time>
      </trkpt>
      <trkpt lat="45.84256" lon="4.7835">
        <ele>539</ele>
        <time>2013-03-10T09:24:38.56Z</time>
      </trkpt>
      <trkpt lat="45.84254" lon="4.78349">
        <ele>539.2</ele>
        <time>2013-03-10T09:24:39.57Z</time>
      </trkpt>
      <trkpt lat="45.84251" lon="4.78348">
        <ele>539.4</ele>
        <time>2013-03-10T09:24:40.58Z</time>
      </trkpt>
      <trkpt lat="45.84249" lon="4.78346">
        <ele>539.7</ele>
        <time>2013-03-10T09:24:41.57Z</time>
      </trkpt>
      <trkpt lat="45.84247" lon="4.78345">
        <ele>540</ele>
        <time>2013-03-10T09:24:42.58Z</time>
      </trkpt>
      <trkpt lat="45.84246" lon="4.78343">
        <ele>540.2</ele>
        <time>2013-03-10T09:24:43.66Z</time>
      </trkpt>
      <trkpt lat="45.84243" lon="4.78339">
        <ele>540.6</ele>
        <time>2013-03-10T09:24:45.57Z</time>
      </trkpt>
      <trkpt lat="45.84241" lon="4.78338">
        <ele>540.9</ele>
        <time>2013-03-10T09:24:46.56Z</time>
      </trkpt>
      <trkpt lat="45.84239" lon="4.78336">
        <ele>541.2</ele>
        <time>2013-03-10T09:24:47.57Z</time>
      </trkpt>
      <trkpt lat="45.84237" lon="4.78333">
        <ele>541.4</ele>
        <time>2013-03-10T09:24:48.66Z</time>
      </trkpt>
      <trkpt lat="45.84234" lon="4.78329">
        <ele>542</ele>
        <time>2013-03-10T09:24:50.65Z</time>
      </trkpt>
      <trkpt lat="45.84232" lon="4.78322">
        <ele>542.5</ele>
        <time>2013-03-10T09:24:52.56Z</time>
      </trkpt>
      <trkpt lat="45.84231" lon="4.78319">
        <ele>542.7</ele>
        <time>2013-03-10T09:24:53.67Z</time>
      </trkpt>
      <trkpt lat="45.84229" lon="4.78313">
        <ele>543.2</ele>
        <time>2013-03-10T09:24:55.66Z</time>
      </trkpt>
      <trkpt lat="45.84227" lon="4.78305">
        <ele>543.8</ele>
        <time>2013-03-10T09:24:57.66Z</time>
      </trkpt>
      <trkpt lat="45.84225" lon="4.78297">
        <ele>544.8</ele>
        <time>2013-03-10T09:24:59.64Z</time>
      </trkpt>
      <trkpt lat="45.84222" lon="4.78289">
        <ele>546.5</ele>
        <time>2013-03-10T09:25:01.56Z</time>
      </trkpt>
      <trkpt lat="45.84221" lon="4.78287">
        <ele>546</ele>
        <time>2013-03-10T09:25:02.66Z</time>
      </trkpt>
      <trkpt lat="45.84219" lon="4.78283">
        <ele>546.2</ele>
        <time>2013-03-10T09:25:03.56Z</time>
      </trkpt>
      <trkpt lat="45.84217" lon="4.78281">
        <ele>546.3</ele>
        <time>2013-03-10T09:25:04.66Z</time>
      </trkpt>
      <trkpt lat="45.84214" lon="4.78279">
        <ele>546.3</ele>
        <time>2013-03-10T09:25:06.66Z</time>
      </trkpt>
      <trkpt lat="45.84212" lon="4.7828">
        <ele>546.2</ele>
        <time>2013-03-10T09:25:07.56Z</time>
      </trkpt>
      <trkpt lat="45.84211" lon="4.7828">
        <ele>546.1</ele>
        <time>2013-03-10T09:25:08.69Z</time>
      </trkpt>
      <trkpt lat="45.84208" lon="4.78283">
        <ele>545.7</ele>
        <time>2013-03-10T09:25:10.56Z</time>
      </trkpt>
      <trkpt lat="45.84207" lon="4.78285">
        <ele>545.5</ele>
        <time>2013-03-10T09:25:11.66Z</time>
      </trkpt>
      <trkpt lat="45.84205" lon="4.78287">
        <ele>545.4</ele>
        <time>2013-03-10T09:25:12.56Z</time>
      </trkpt>
      <trkpt lat="45.84203" lon="4.78289">
        <ele>545.2</ele>
        <time>2013-03-10T09:25:13.73Z</time>
      </trkpt>
      <trkpt lat="45.84199" lon="4.78292">
        <ele>545.1</ele>
        <time>2013-03-10T09:25:15.58Z</time>
      </trkpt>
      <trkpt lat="45.84197" lon="4.78295">
        <ele>545</ele>
        <time>2013-03-10T09:25:16.65Z</time>
      </trkpt>
      <trkpt lat="45.84195" lon="4.78302">
        <ele>545</ele>
        <time>2013-03-10T09:25:18.56Z</time>
      </trkpt>
      <trkpt lat="45.84194" lon="4.78306">
        <ele>544.9</ele>
        <time>2013-03-10T09:25:19.66Z</time>
      </trkpt>
      <trkpt lat="45.84191" lon="4.78313">
        <ele>544.8</ele>
        <time>2013-03-10T09:25:21.66Z</time>
      </trkpt>
      <trkpt lat="45.84191" lon="4.78315">
        <ele>545</ele>
        <time>2013-03-10T09:25:22.56Z</time>
      </trkpt>
      <trkpt lat="45.8419" lon="4.78318">
        <ele>545</ele>
        <time>2013-03-10T09:25:23.67Z</time>
      </trkpt>
      <trkpt lat="45.84189" lon="4.78326">
        <ele>545.1</ele>
        <time>2013-03-10T09:25:25.56Z</time>
      </trkpt>
      <trkpt lat="45.84187" lon="4.78329">
        <ele>545.1</ele>
        <time>2013-03-10T09:25:26.66Z</time>
      </trkpt>
      <trkpt lat="45.84185" lon="4.78335">
        <ele>545</ele>
        <time>2013-03-10T09:25:28.73Z</time>
      </trkpt>
      <trkpt lat="45.84182" lon="4.78341">
        <ele>545.2</ele>
        <time>2013-03-10T09:25:30.56Z</time>
      </trkpt>
      <trkpt lat="45.8418" lon="4.78344">
        <ele>545.3</ele>
        <time>2013-03-10T09:25:31.65Z</time>
      </trkpt>
      <trkpt lat="45.84179" lon="4.78347">
        <ele>545.3</ele>
        <time>2013-03-10T09:25:32.56Z</time>
      </trkpt>
      <trkpt lat="45.84177" lon="4.78349">
        <ele>545.4</ele>
        <time>2013-03-10T09:25:33.69Z</time>
      </trkpt>
      <trkpt lat="45.84172" lon="4.78351">
        <ele>545.2</ele>
        <time>2013-03-10T09:25:35.65Z</time>
      </trkpt>
      <trkpt lat="45.84169" lon="4.78353">
        <ele>545.2</ele>
        <time>2013-03-10T09:25:36.56Z</time>
      </trkpt>
      <trkpt lat="45.84167" lon="4.78353">
        <ele>545.2</ele>
        <time>2013-03-10T09:25:37.65Z</time>
      </trkpt>
      <trkpt lat="45.84165" lon="4.78354">
        <ele>545.1</ele>
        <time>2013-03-10T09:25:38.56Z</time>
      </trkpt>
      <trkpt lat="45.84162" lon="4.78355">
        <ele>545.1</ele>
        <time>2013-03-10T09:25:39.65Z</time>
      </trkpt>
      <trkpt lat="45.84159" lon="4.78356">
        <ele>545.2</ele>
        <time>2013-03-10T09:25:40.56Z</time>
      </trkpt>
      <trkpt lat="45.84155" lon="4.78358">
        <ele>545.2</ele>
        <time>2013-03-10T09:25:41.63Z</time>
      </trkpt>
      <trkpt lat="45.84152" lon="4.7836">
        <ele>545.3</ele>
        <time>2013-03-10T09:25:42.56Z</time>
      </trkpt>
      <trkpt lat="45.84149" lon="4.78361">
        <ele>545.3</ele>
        <time>2013-03-10T09:25:43.66Z</time>
      </trkpt>
      <trkpt lat="45.84143" lon="4.78362">
        <ele>545.3</ele>
        <time>2013-03-10T09:25:45.71Z</time>
      </trkpt>
      <trkpt lat="45.84139" lon="4.78362">
        <ele>545.2</ele>
        <time>2013-03-10T09:25:47.57Z</time>
      </trkpt>
      <trkpt lat="45.84137" lon="4.78363">
        <ele>545.1</ele>
        <time>2013-03-10T09:25:48.65Z</time>
      </trkpt>
      <trkpt lat="45.84132" lon="4.78364">
        <ele>544.8</ele>
        <time>2013-03-10T09:25:50.6Z</time>
      </trkpt>
      <trkpt lat="45.84129" lon="4.78365">
        <ele>544.8</ele>
        <time>2013-03-10T09:25:51.56Z</time>
      </trkpt>
      <trkpt lat="45.84127" lon="4.78366">
        <ele>544.7</ele>
        <time>2013-03-10T09:25:52.65Z</time>
      </trkpt>
      <trkpt lat="45.84124" lon="4.78368">
        <ele>544.8</ele>
        <time>2013-03-10T09:25:53.56Z</time>
      </trkpt>
      <trkpt lat="45.84122" lon="4.78369">
        <ele>544.9</ele>
        <time>2013-03-10T09:25:54.63Z</time>
      </trkpt>
      <trkpt lat="45.8412" lon="4.78369">
        <ele>544.7</ele>
        <time>2013-03-10T09:25:55.56Z</time>
      </trkpt>
      <trkpt lat="45.84118" lon="4.78369">
        <ele>544.5</ele>
        <time>2013-03-10T09:25:56.65Z</time>
      </trkpt>
      <trkpt lat="45.84115" lon="4.78369">
        <ele>544.2</ele>
        <time>2013-03-10T09:25:57.56Z</time>
      </trkpt>
      <trkpt lat="45.84111" lon="4.78369">
        <ele>543.8</ele>
        <time>2013-03-10T09:25:58.69Z</time>
      </trkpt>
      <trkpt lat="45.84105" lon="4.78368">
        <ele>555.7</ele>
        <time>2013-03-10T09:26:00.56Z</time>
      </trkpt>
      <trkpt lat="45.84102" lon="4.78367">
        <ele>543</ele>
        <time>2013-03-10T09:26:01.65Z</time>
      </trkpt>
      <trkpt lat="45.84099" lon="4.78366">
        <ele>542.6</ele>
        <time>2013-03-10T09:26:02.56Z</time>
      </trkpt>
      <trkpt lat="45.84095" lon="4.78367">
        <ele>542.4</ele>
        <time>2013-03-10T09:26:03.65Z</time>
      </trkpt>
      <trkpt lat="45.84089" lon="4.78367">
        <ele>542.3</ele>
        <time>2013-03-10T09:26:05.63Z</time>
      </trkpt>
      <trkpt lat="45.84086" lon="4.78368">
        <ele>542.2</ele>
        <time>2013-03-10T09:26:06.56Z</time>
      </trkpt>
      <trkpt lat="45.84084" lon="4.78368">
        <ele>542.2</ele>
        <time>2013-03-10T09:26:07.65Z</time>
      </trkpt>
      <trkpt lat="45.84081" lon="4.78368">
        <ele>542.4</ele>
        <time>2013-03-10T09:26:08.56Z</time>
      </trkpt>
      <trkpt lat="45.84077" lon="4.78369">
        <ele>542.6</ele>
        <time>2013-03-10T09:26:09.57Z</time>
      </trkpt>
      <trkpt lat="45.84074" lon="4.78369">
        <ele>542.8</ele>
        <time>2013-03-10T09:26:10.64Z</time>
      </trkpt>
      <trkpt lat="45.84069" lon="4.78368">
        <ele>542.9</ele>
        <time>2013-03-10T09:26:12.64Z</time>
      </trkpt>
      <trkpt lat="45.84066" lon="4.78368">
        <ele>542.9</ele>
        <time>2013-03-10T09:26:13.56Z</time>
      </trkpt>
      <trkpt lat="45.84063" lon="4.78368">
        <ele>542.8</ele>
        <time>2013-03-10T09:26:14.7Z</time>
      </trkpt>
      <trkpt lat="45.84056" lon="4.78366">
        <ele>542.6</ele>
        <time>2013-03-10T09:26:16.57Z</time>
      </trkpt>
      <trkpt lat="45.84053" lon="4.78366">
        <ele>542.8</ele>
        <time>2013-03-10T09:26:17.63Z</time>
      </trkpt>
      <trkpt lat="45.84047" lon="4.78367">
        <ele>543.5</ele>
        <time>2013-03-10T09:26:19.56Z</time>
      </trkpt>
      <trkpt lat="45.84044" lon="4.78367">
        <ele>543.6</ele>
        <time>2013-03-10T09:26:20.64Z</time>
      </trkpt>
      <trkpt lat="45.84042" lon="4.78367">
        <ele>543.7</ele>
        <time>2013-03-10T09:26:21.56Z</time>
      </trkpt>
      <trkpt lat="45.84039" lon="4.78366">
        <ele>543.8</ele>
        <time>2013-03-10T09:26:22.64Z</time>
      </trkpt>
      <trkpt lat="45.84036" lon="4.78365">
        <ele>543.5</ele>
        <time>2013-03-10T09:26:23.56Z</time>
      </trkpt>
      <trkpt lat="45.84033" lon="4.78365">
        <ele>543.6</ele>
        <time>2013-03-10T09:26:24.64Z</time>
      </trkpt>
      <trkpt lat="45.84031" lon="4.78364">
        <ele>543.7</ele>
        <time>2013-03-10T09:26:25.56Z</time>
      </trkpt>
      <trkpt lat="45.84027" lon="4.78366">
        <ele>544.4</ele>
        <time>2013-03-10T09:26:26.64Z</time>
      </trkpt>
      <trkpt lat="45.84023" lon="4.78366">
        <ele>544.7</ele>
        <time>2013-03-10T09:26:27.56Z</time>
      </trkpt>
      <trkpt lat="45.8402" lon="4.78366">
        <ele>545</ele>
        <time>2013-03-10T09:26:28.69Z</time>
      </trkpt>
      <trkpt lat="45.84012" lon="4.78366">
        <ele>545.5</ele>
        <time>2013-03-10T09:26:30.56Z</time>
      </trkpt>
      <trkpt lat="45.84009" lon="4.78365">
        <ele>545.5</ele>
        <time>2013-03-10T09:26:31.64Z</time>
      </trkpt>
      <trkpt lat="45.84004" lon="4.78366">
        <ele>546</ele>
        <time>2013-03-10T09:26:33.69Z</time>
      </trkpt>
      <trkpt lat="45.83999" lon="4.78366">
        <ele>546.5</ele>
        <time>2013-03-10T09:26:35.56Z</time>
      </trkpt>
      <trkpt lat="45.83997" lon="4.78366">
        <ele>546.7</ele>
        <time>2013-03-10T09:26:36.65Z</time>
      </trkpt>
      <trkpt lat="45.83991" lon="4.78365">
        <ele>546.6</ele>
        <time>2013-03-10T09:26:38.65Z</time>
      </trkpt>
      <trkpt lat="45.83986" lon="4.78365">
        <ele>547</ele>
        <time>2013-03-10T09:26:40.56Z</time>
      </trkpt>
      <trkpt lat="45.83983" lon="4.78365">
        <ele>547.2</ele>
        <time>2013-03-10T09:26:41.64Z</time>
      </trkpt>
      <trkpt lat="45.8398" lon="4.78364">
        <ele>547.4</ele>
        <time>2013-03-10T09:26:42.56Z</time>
      </trkpt>
      <trkpt lat="45.83977" lon="4.78364">
        <ele>547.5</ele>
        <time>2013-03-10T09:26:43.66Z</time>
      </trkpt>
      <trkpt lat="45.83973" lon="4.78365">
        <ele>548</ele>
        <time>2013-03-10T09:26:45.56Z</time>
      </trkpt>
      <trkpt lat="45.83971" lon="4.78365">
        <ele>548.1</ele>
        <time>2013-03-10T09:26:46.64Z</time>
      </trkpt>
      <trkpt lat="45.83969" lon="4.78365">
        <ele>548.1</ele>
        <time>2013-03-10T09:26:47.57Z</time>
      </trkpt>
      <trkpt lat="45.83966" lon="4.78366">
        <ele>548.1</ele>
        <time>2013-03-10T09:26:48.65Z</time>
      </trkpt>
      <trkpt lat="45.83961" lon="4.78368">
        <ele>548.5</ele>
        <time>2013-03-10T09:26:50.61Z</time>
      </trkpt>
      <trkpt lat="45.83955" lon="4.7837">
        <ele>548.9</ele>
        <time>2013-03-10T09:26:52.56Z</time>
      </trkpt>
      <trkpt lat="45.83952" lon="4.78371">
        <ele>549</ele>
        <time>2013-03-10T09:26:53.68Z</time>
      </trkpt>
      <trkpt lat="45.83945" lon="4.78372">
        <ele>549.2</ele>
        <time>2013-03-10T09:26:55.56Z</time>
      </trkpt>
      <trkpt lat="45.83941" lon="4.78373">
        <ele>549</ele>
        <time>2013-03-10T09:26:56.63Z</time>
      </trkpt>
      <trkpt lat="45.83933" lon="4.78375">
        <ele>548.3</ele>
        <time>2013-03-10T09:26:58.56Z</time>
      </trkpt>
      <trkpt lat="45.8393" lon="4.78375">
        <ele>547.9</ele>
        <time>2013-03-10T09:26:59.69Z</time>
      </trkpt>
      <trkpt lat="45.83922" lon="4.78376">
        <ele>560.7</ele>
        <time>2013-03-10T09:27:01.56Z</time>
      </trkpt>
      <trkpt lat="45.83918" lon="4.78376">
        <ele>546.6</ele>
        <time>2013-03-10T09:27:02.7Z</time>
      </trkpt>
      <trkpt lat="45.83912" lon="4.78375">
        <ele>545.9</ele>
        <time>2013-03-10T09:27:04.56Z</time>
      </trkpt>
      <trkpt lat="45.83908" lon="4.78375">
        <ele>545.7</ele>
        <time>2013-03-10T09:27:05.56Z</time>
      </trkpt>
      <trkpt lat="45.83905" lon="4.78375">
        <ele>545.6</ele>
        <time>2013-03-10T09:27:06.56Z</time>
      </trkpt>
      <trkpt lat="45.83902" lon="4.78375">
        <ele>545.6</ele>
        <time>2013-03-10T09:27:07.56Z</time>
      </trkpt>
      <trkpt lat="45.83899" lon="4.78376">
        <ele>545.5</ele>
        <time>2013-03-10T09:27:08.56Z</time>
      </trkpt>
      <trkpt lat="45.83897" lon="4.78376">
        <ele>545.5</ele>
        <time>2013-03-10T09:27:09.56Z</time>
      </trkpt>
      <trkpt lat="45.83895" lon="4.78374">
        <ele>545</ele>
        <time>2013-03-10T09:27:10.56Z</time>
      </trkpt>
      <trkpt lat="45.83893" lon="4.78373">
        <ele>544.6</ele>
        <time>2013-03-10T09:27:11.56Z</time>
      </trkpt>
      <trkpt lat="45.8389" lon="4.78373">
        <ele>544.4</ele>
        <time>2013-03-10T09:27:12.56Z</time>
      </trkpt>
      <trkpt lat="45.83886" lon="4.78372">
        <ele>544.2</ele>
        <time>2013-03-10T09:27:13.56Z</time>
      </trkpt>
      <trkpt lat="45.83883" lon="4.78371">
        <ele>544</ele>
        <time>2013-03-10T09:27:14.56Z</time>
      </trkpt>
      <trkpt lat="45.8388" lon="4.7837">
        <ele>544.1</ele>
        <time>2013-03-10T09:27:15.56Z</time>
      </trkpt>
      <trkpt lat="45.83877" lon="4.7837">
        <ele>544.4</ele>
        <time>2013-03-10T09:27:16.57Z</time>
      </trkpt>
      <trkpt lat="45.83873" lon="4.78369">
        <ele>544.6</ele>
        <time>2013-03-10T09:27:17.56Z</time>
      </trkpt>
      <trkpt lat="45.8387" lon="4.78367">
        <ele>544.5</ele>
        <time>2013-03-10T09:27:18.56Z</time>
      </trkpt>
      <trkpt lat="45.83866" lon="4.78365">
        <ele>544.5</ele>
        <time>2013-03-10T09:27:19.56Z</time>
      </trkpt>
      <trkpt lat="45.83863" lon="4.78364">
        <ele>544.6</ele>
        <time>2013-03-10T09:27:20.56Z</time>
      </trkpt>
      <trkpt lat="45.83859" lon="4.78365">
        <ele>544.7</ele>
        <time>2013-03-10T09:27:21.56Z</time>
      </trkpt>
      <trkpt lat="45.83856" lon="4.78365">
        <ele>544.6</ele>
        <time>2013-03-10T09:27:22.56Z</time>
      </trkpt>
      <trkpt lat="45.83854" lon="4.78365">
        <ele>544.4</ele>
        <time>2013-03-10T09:27:23.56Z</time>
      </trkpt>
      <trkpt lat="45.83851" lon="4.78365">
        <ele>544.4</ele>
        <time>2013-03-10T09:27:24.56Z</time>
      </trkpt>
      <trkpt lat="45.83848" lon="4.78367">
        <ele>544.6</ele>
        <time>2013-03-10T09:27:25.56Z</time>
      </trkpt>
      <trkpt lat="45.83846" lon="4.78368">
        <ele>544.7</ele>
        <time>2013-03-10T09:27:26.56Z</time>
      </trkpt>
      <trkpt lat="45.83843" lon="4.78369">
        <ele>544.9</ele>
        <time>2013-03-10T09:27:27.56Z</time>
      </trkpt>
      <trkpt lat="45.8384" lon="4.78371">
        <ele>545.3</ele>
        <time>2013-03-10T09:27:28.56Z</time>
      </trkpt>
      <trkpt lat="45.83836" lon="4.78373">
        <ele>545.6</ele>
        <time>2013-03-10T09:27:29.58Z</time>
      </trkpt>
      <trkpt lat="45.83833" lon="4.78375">
        <ele>545.8</ele>
        <time>2013-03-10T09:27:30.56Z</time>
      </trkpt>
      <trkpt lat="45.8383" lon="4.78376">
        <ele>545.3</ele>
        <time>2013-03-10T09:27:31.56Z</time>
      </trkpt>
      <trkpt lat="45.83827" lon="4.78377">
        <ele>544.9</ele>
        <time>2013-03-10T09:27:32.56Z</time>
      </trkpt>
      <trkpt lat="45.83824" lon="4.78378">
        <ele>544.4</ele>
        <time>2013-03-10T09:27:33.57Z</time>
      </trkpt>
      <trkpt lat="45.83819" lon="4.7838">
        <ele>543.8</ele>
        <time>2013-03-10T09:27:35.43Z</time>
      </trkpt>
      <trkpt lat="45.83816" lon="4.78381">
        <ele>543.4</ele>
        <time>2013-03-10T09:27:36.42Z</time>
      </trkpt>
      <trkpt lat="45.8381" lon="4.78382">
        <ele>542.4</ele>
        <time>2013-03-10T09:27:38.42Z</time>
      </trkpt>
      <trkpt lat="45.83807" lon="4.78382">
        <ele>541.6</ele>
        <time>2013-03-10T09:27:39.42Z</time>
      </trkpt>
      <trkpt lat="45.83802" lon="4.78384">
        <ele>541.4</ele>
        <time>2013-03-10T09:27:41.41Z</time>
      </trkpt>
      <trkpt lat="45.83795" lon="4.78386">
        <ele>541.5</ele>
        <time>2013-03-10T09:27:43.42Z</time>
      </trkpt>
      <trkpt lat="45.83791" lon="4.78388">
        <ele>541.5</ele>
        <time>2013-03-10T09:27:44.42Z</time>
      </trkpt>
      <trkpt lat="45.83783" lon="4.78391">
        <ele>541.4</ele>
        <time>2013-03-10T09:27:46.42Z</time>
      </trkpt>
      <trkpt lat="45.83779" lon="4.78392">
        <ele>541.5</ele>
        <time>2013-03-10T09:27:47.42Z</time>
      </trkpt>
      <trkpt lat="45.83773" lon="4.78393">
        <ele>541.5</ele>
        <time>2013-03-10T09:27:49.42Z</time>
      </trkpt>
      <trkpt lat="45.83767" lon="4.78394">
        <ele>541.8</ele>
        <time>2013-03-10T09:27:51.56Z</time>
      </trkpt>
      <trkpt lat="45.83764" lon="4.78395">
        <ele>541.9</ele>
        <time>2013-03-10T09:27:52.56Z</time>
      </trkpt>
      <trkpt lat="45.83761" lon="4.78395">
        <ele>541.8</ele>
        <time>2013-03-10T09:27:53.56Z</time>
      </trkpt>
      <trkpt lat="45.83758" lon="4.78395">
        <ele>541.8</ele>
        <time>2013-03-10T09:27:54.56Z</time>
      </trkpt>
      <trkpt lat="45.83754" lon="4.78395">
        <ele>541.7</ele>
        <time>2013-03-10T09:27:55.57Z</time>
      </trkpt>
      <trkpt lat="45.83752" lon="4.78395">
        <ele>541.7</ele>
        <time>2013-03-10T09:27:56.56Z</time>
      </trkpt>
      <trkpt lat="45.83749" lon="4.78394">
        <ele>541.4</ele>
        <time>2013-03-10T09:27:57.56Z</time>
      </trkpt>
      <trkpt lat="45.83747" lon="4.78394">
        <ele>541.1</ele>
        <time>2013-03-10T09:27:58.56Z</time>
      </trkpt>
      <trkpt lat="45.83745" lon="4.78392">
        <ele>540.6</ele>
        <time>2013-03-10T09:27:59.64Z</time>
      </trkpt>
      <trkpt lat="45.83739" lon="4.78391">
        <ele>560.9</ele>
        <time>2013-03-10T09:28:01.62Z</time>
      </trkpt>
      <trkpt lat="45.83736" lon="4.78391">
        <ele>539.5</ele>
        <time>2013-03-10T09:28:02.62Z</time>
      </trkpt>
      <trkpt lat="45.83733" lon="4.7839">
        <ele>539.3</ele>
        <time>2013-03-10T09:28:03.66Z</time>
      </trkpt>
      <trkpt lat="45.83725" lon="4.78392">
        <ele>539.5</ele>
        <time>2013-03-10T09:28:05.56Z</time>
      </trkpt>
      <trkpt lat="45.83722" lon="4.78393">
        <ele>539.6</ele>
        <time>2013-03-10T09:28:06.56Z</time>
      </trkpt>
      <trkpt lat="45.83719" lon="4.78394">
        <ele>540.2</ele>
        <time>2013-03-10T09:28:07.56Z</time>
      </trkpt>
      <trkpt lat="45.83716" lon="4.78393">
        <ele>540.6</ele>
        <time>2013-03-10T09:28:08.56Z</time>
      </trkpt>
      <trkpt lat="45.83713" lon="4.78393">
        <ele>540.8</ele>
        <time>2013-03-10T09:28:09.56Z</time>
      </trkpt>
      <trkpt lat="45.83711" lon="4.78392">
        <ele>540.9</ele>
        <time>2013-03-10T09:28:10.56Z</time>
      </trkpt>
      <trkpt lat="45.83708" lon="4.78391">
        <ele>541.1</ele>
        <time>2013-03-10T09:28:11.57Z</time>
      </trkpt>
      <trkpt lat="45.83705" lon="4.7839">
        <ele>541.4</ele>
        <time>2013-03-10T09:28:12.56Z</time>
      </trkpt>
      <trkpt lat="45.83702" lon="4.7839">
        <ele>542</ele>
        <time>2013-03-10T09:28:13.56Z</time>
      </trkpt>
      <trkpt lat="45.837" lon="4.7839">
        <ele>542.4</ele>
        <time>2013-03-10T09:28:14.56Z</time>
      </trkpt>
      <trkpt lat="45.83696" lon="4.7839">
        <ele>542.9</ele>
        <time>2013-03-10T09:28:15.56Z</time>
      </trkpt>
      <trkpt lat="45.83694" lon="4.78389">
        <ele>543.1</ele>
        <time>2013-03-10T09:28:16.57Z</time>
      </trkpt>
      <trkpt lat="45.83691" lon="4.78389">
        <ele>543.5</ele>
        <time>2013-03-10T09:28:17.61Z</time>
      </trkpt>
      <trkpt lat="45.83687" lon="4.78388">
        <ele>543.9</ele>
        <time>2013-03-10T09:28:18.65Z</time>
      </trkpt>
      <trkpt lat="45.83681" lon="4.7839">
        <ele>545.1</ele>
        <time>2013-03-10T09:28:20.56Z</time>
      </trkpt>
      <trkpt lat="45.83679" lon="4.78391">
        <ele>545.7</ele>
        <time>2013-03-10T09:28:21.56Z</time>
      </trkpt>
      <trkpt lat="45.83678" lon="4.78393">
        <ele>546.1</ele>
        <time>2013-03-10T09:28:22.58Z</time>
      </trkpt>
      <trkpt lat="45.83676" lon="4.78394">
        <ele>546.6</ele>
        <time>2013-03-10T09:28:23.56Z</time>
      </trkpt>
      <trkpt lat="45.83674" lon="4.78395">
        <ele>547.1</ele>
        <time>2013-03-10T09:28:24.61Z</time>
      </trkpt>
      <trkpt lat="45.83672" lon="4.78396">
        <ele>547.4</ele>
        <time>2013-03-10T09:28:25.61Z</time>
      </trkpt>
      <trkpt lat="45.8367" lon="4.78397">
        <ele>547.8</ele>
        <time>2013-03-10T09:28:26.61Z</time>
      </trkpt>
      <trkpt lat="45.83668" lon="4.78397">
        <ele>548</ele>
        <time>2013-03-10T09:28:27.61Z</time>
      </trkpt>
      <trkpt lat="45.83666" lon="4.78398">
        <ele>548.3</ele>
        <time>2013-03-10T09:28:28.69Z</time>
      </trkpt>
      <trkpt lat="45.83663" lon="4.784">
        <ele>548.6</ele>
        <time>2013-03-10T09:28:30.61Z</time>
      </trkpt>
      <trkpt lat="45.83662" lon="4.78401">
        <ele>548.8</ele>
        <time>2013-03-10T09:28:31.61Z</time>
      </trkpt>
      <trkpt lat="45.8366" lon="4.78402">
        <ele>549</ele>
        <time>2013-03-10T09:28:32.61Z</time>
      </trkpt>
      <trkpt lat="45.83658" lon="4.78403">
        <ele>549.2</ele>
        <time>2013-03-10T09:28:33.71Z</time>
      </trkpt>
      <trkpt lat="45.83654" lon="4.78406">
        <ele>549.6</ele>
        <time>2013-03-10T09:28:35.61Z</time>
      </trkpt>
      <trkpt lat="45.83652" lon="4.78407">
        <ele>549.8</ele>
        <time>2013-03-10T09:28:36.61Z</time>
      </trkpt>
      <trkpt lat="45.8365" lon="4.78407">
        <ele>549.9</ele>
        <time>2013-03-10T09:28:37.61Z</time>
      </trkpt>
      <trkpt lat="45.83648" lon="4.78409">
        <ele>550</ele>
        <time>2013-03-10T09:28:38.68Z</time>
      </trkpt>
      <trkpt lat="45.83643" lon="4.78411">
        <ele>550.4</ele>
        <time>2013-03-10T09:28:40.56Z</time>
      </trkpt>
      <trkpt lat="45.8364" lon="4.78413">
        <ele>550.6</ele>
        <time>2013-03-10T09:28:41.56Z</time>
      </trkpt>
      <trkpt lat="45.83638" lon="4.78414">
        <ele>550.7</ele>
        <time>2013-03-10T09:28:42.56Z</time>
      </trkpt>
      <trkpt lat="45.83634" lon="4.78416">
        <ele>550.8</ele>
        <time>2013-03-10T09:28:43.56Z</time>
      </trkpt>
      <trkpt lat="45.83632" lon="4.78419">
        <ele>551.1</ele>
        <time>2013-03-10T09:28:44.56Z</time>
      </trkpt>
      <trkpt lat="45.83629" lon="4.78421">
        <ele>551.4</ele>
        <time>2013-03-10T09:28:45.56Z</time>
      </trkpt>
      <trkpt lat="45.83628" lon="4.78423">
        <ele>551.6</ele>
        <time>2013-03-10T09:28:46.56Z</time>
      </trkpt>
      <trkpt lat="45.83626" lon="4.78424">
        <ele>551.8</ele>
        <time>2013-03-10T09:28:47.56Z</time>
      </trkpt>
      <trkpt lat="45.83624" lon="4.78427">
        <ele>552</ele>
        <time>2013-03-10T09:28:48.56Z</time>
      </trkpt>
      <trkpt lat="45.83621" lon="4.78429">
        <ele>552.3</ele>
        <time>2013-03-10T09:28:49.56Z</time>
      </trkpt>
      <trkpt lat="45.83618" lon="4.78432">
        <ele>552.5</ele>
        <time>2013-03-10T09:28:50.57Z</time>
      </trkpt>
      <trkpt lat="45.83616" lon="4.78433">
        <ele>552.7</ele>
        <time>2013-03-10T09:28:51.61Z</time>
      </trkpt>
      <trkpt lat="45.83614" lon="4.78435">
        <ele>552.8</ele>
        <time>2013-03-10T09:28:52.63Z</time>
      </trkpt>
      <trkpt lat="45.83611" lon="4.7844">
        <ele>553.4</ele>
        <time>2013-03-10T09:28:54.56Z</time>
      </trkpt>
      <trkpt lat="45.83609" lon="4.78443">
        <ele>553.6</ele>
        <time>2013-03-10T09:28:55.56Z</time>
      </trkpt>
      <trkpt lat="45.83607" lon="4.78446">
        <ele>553.7</ele>
        <time>2013-03-10T09:28:56.56Z</time>
      </trkpt>
      <trkpt lat="45.83605" lon="4.78449">
        <ele>553.9</ele>
        <time>2013-03-10T09:28:57.56Z</time>
      </trkpt>
      <trkpt lat="45.83602" lon="4.78451">
        <ele>553.8</ele>
        <time>2013-03-10T09:28:58.56Z</time>
      </trkpt>
      <trkpt lat="45.836" lon="4.78454">
        <ele>553.9</ele>
        <time>2013-03-10T09:28:59.68Z</time>
      </trkpt>
      <trkpt lat="45.83597" lon="4.78459">
        <ele>560.7</ele>
        <time>2013-03-10T09:29:01.6Z</time>
      </trkpt>
      <trkpt lat="45.83595" lon="4.78461">
        <ele>554.3</ele>
        <time>2013-03-10T09:29:02.6Z</time>
      </trkpt>
      <trkpt lat="45.83593" lon="4.78464">
        <ele>554.5</ele>
        <time>2013-03-10T09:29:03.68Z</time>
      </trkpt>
      <trkpt lat="45.8359" lon="4.78469">
        <ele>554.7</ele>
        <time>2013-03-10T09:29:05.56Z</time>
      </trkpt>
      <trkpt lat="45.83589" lon="4.78472">
        <ele>554.9</ele>
        <time>2013-03-10T09:29:06.56Z</time>
      </trkpt>
      <trkpt lat="45.83587" lon="4.78475">
        <ele>555.1</ele>
        <time>2013-03-10T09:29:07.56Z</time>
      </trkpt>
      <trkpt lat="45.83586" lon="4.78478">
        <ele>555.2</ele>
        <time>2013-03-10T09:29:08.56Z</time>
      </trkpt>
      <trkpt lat="45.83584" lon="4.7848">
        <ele>555.3</ele>
        <time>2013-03-10T09:29:09.56Z</time>
      </trkpt>
      <trkpt lat="45.83582" lon="4.78484">
        <ele>555.5</ele>
        <time>2013-03-10T09:29:10.56Z</time>
      </trkpt>
      <trkpt lat="45.83581" lon="4.78487">
        <ele>555.6</ele>
        <time>2013-03-10T09:29:11.56Z</time>
      </trkpt>
      <trkpt lat="45.83579" lon="4.7849">
        <ele>555.7</ele>
        <time>2013-03-10T09:29:12.56Z</time>
      </trkpt>
      <trkpt lat="45.83577" lon="4.78492">
        <ele>555.5</ele>
        <time>2013-03-10T09:29:13.56Z</time>
      </trkpt>
      <trkpt lat="45.83575" lon="4.78495">
        <ele>555.5</ele>
        <time>2013-03-10T09:29:14.56Z</time>
      </trkpt>
      <trkpt lat="45.83573" lon="4.78499">
        <ele>555.6</ele>
        <time>2013-03-10T09:29:15.56Z</time>
      </trkpt>
      <trkpt lat="45.83571" lon="4.78502">
        <ele>555.7</ele>
        <time>2013-03-10T09:29:16.58Z</time>
      </trkpt>
      <trkpt lat="45.8357" lon="4.78506">
        <ele>555.9</ele>
        <time>2013-03-10T09:29:17.6Z</time>
      </trkpt>
      <trkpt lat="45.83569" lon="4.7851">
        <ele>556.1</ele>
        <time>2013-03-10T09:29:18.68Z</time>
      </trkpt>
      <trkpt lat="45.83566" lon="4.78518">
        <ele>556.5</ele>
        <time>2013-03-10T09:29:20.56Z</time>
      </trkpt>
      <trkpt lat="45.83564" lon="4.7852">
        <ele>556.4</ele>
        <time>2013-03-10T09:29:21.56Z</time>
      </trkpt>
      <trkpt lat="45.83561" lon="4.78523">
        <ele>556.4</ele>
        <time>2013-03-10T09:29:22.56Z</time>
      </trkpt>
      <trkpt lat="45.8356" lon="4.78526">
        <ele>556.5</ele>
        <time>2013-03-10T09:29:23.64Z</time>
      </trkpt>
      <trkpt lat="45.83556" lon="4.78532">
        <ele>556.4</ele>
        <time>2013-03-10T09:29:25.56Z</time>
      </trkpt>
      <trkpt lat="45.83553" lon="4.78535">
        <ele>556.1</ele>
        <time>2013-03-10T09:29:26.56Z</time>
      </trkpt>
      <trkpt lat="45.83551" lon="4.78539">
        <ele>555.9</ele>
        <time>2013-03-10T09:29:27.56Z</time>
      </trkpt>
      <trkpt lat="45.8355" lon="4.78542">
        <ele>555.8</ele>
        <time>2013-03-10T09:29:28.56Z</time>
      </trkpt>
      <trkpt lat="45.83548" lon="4.78545">
        <ele>555.6</ele>
        <time>2013-03-10T09:29:29.6Z</time>
      </trkpt>
      <trkpt lat="45.83546" lon="4.78548">
        <ele>555.3</ele>
        <time>2013-03-10T09:29:30.6Z</time>
      </trkpt>
      <trkpt lat="45.83543" lon="4.78551">
        <ele>554.9</ele>
        <time>2013-03-10T09:29:31.6Z</time>
      </trkpt>
      <trkpt lat="45.83541" lon="4.78554">
        <ele>554.5</ele>
        <time>2013-03-10T09:29:32.62Z</time>
      </trkpt>
      <trkpt lat="45.83536" lon="4.7856">
        <ele>553.8</ele>
        <time>2013-03-10T09:29:34.56Z</time>
      </trkpt>
      <trkpt lat="45.83533" lon="4.78563">
        <ele>553.6</ele>
        <time>2013-03-10T09:29:35.56Z</time>
      </trkpt>
      <trkpt lat="45.83531" lon="4.78567">
        <ele>553.3</ele>
        <time>2013-03-10T09:29:36.56Z</time>
      </trkpt>
      <trkpt lat="45.83528" lon="4.7857">
        <ele>553.1</ele>
        <time>2013-03-10T09:29:37.56Z</time>
      </trkpt>
      <trkpt lat="45.83527" lon="4.78572">
        <ele>553</ele>
        <time>2013-03-10T09:29:38.56Z</time>
      </trkpt>
      <trkpt lat="45.83524" lon="4.78573">
        <ele>552.7</ele>
        <time>2013-03-10T09:29:39.6Z</time>
      </trkpt>
      <trkpt lat="45.83522" lon="4.78576">
        <ele>552.5</ele>
        <time>2013-03-10T09:29:40.59Z</time>
      </trkpt>
      <trkpt lat="45.8352" lon="4.78579">
        <ele>552.3</ele>
        <time>2013-03-10T09:29:41.59Z</time>
      </trkpt>
      <trkpt lat="45.83517" lon="4.78581">
        <ele>552.1</ele>
        <time>2013-03-10T09:29:42.63Z</time>
      </trkpt>
      <trkpt lat="45.83512" lon="4.78587">
        <ele>551.5</ele>
        <time>2013-03-10T09:29:44.56Z</time>
      </trkpt>
      <trkpt lat="45.83511" lon="4.78589">
        <ele>551.3</ele>
        <time>2013-03-10T09:29:45.56Z</time>
      </trkpt>
      <trkpt lat="45.83508" lon="4.78592">
        <ele>551</ele>
        <time>2013-03-10T09:29:46.56Z</time>
      </trkpt>
      <trkpt lat="45.83506" lon="4.78595">
        <ele>551</ele>
        <time>2013-03-10T09:29:47.59Z</time>
      </trkpt>
      <trkpt lat="45.83503" lon="4.78598">
        <ele>550.7</ele>
        <time>2013-03-10T09:29:48.67Z</time>
      </trkpt>
      <trkpt lat="45.83495" lon="4.78606">
        <ele>550.2</ele>
        <time>2013-03-10T09:29:50.57Z</time>
      </trkpt>
      <trkpt lat="45.83492" lon="4.78609">
        <ele>549.9</ele>
        <time>2013-03-10T09:29:51.59Z</time>
      </trkpt>
      <trkpt lat="45.83489" lon="4.78611">
        <ele>549.6</ele>
        <time>2013-03-10T09:29:52.62Z</time>
      </trkpt>
      <trkpt lat="45.83483" lon="4.78617">
        <ele>548.8</ele>
        <time>2013-03-10T09:29:54.56Z</time>
      </trkpt>
      <trkpt lat="45.8348" lon="4.78621">
        <ele>548.4</ele>
        <time>2013-03-10T09:29:55.56Z</time>
      </trkpt>
      <trkpt lat="45.83476" lon="4.78624">
        <ele>548.1</ele>
        <time>2013-03-10T09:29:56.56Z</time>
      </trkpt>
      <trkpt lat="45.83473" lon="4.78627">
        <ele>547.8</ele>
        <time>2013-03-10T09:29:57.56Z</time>
      </trkpt>
      <trkpt lat="45.83469" lon="4.7863">
        <ele>547.3</ele>
        <time>2013-03-10T09:29:58.56Z</time>
      </trkpt>
      <trkpt lat="45.83465" lon="4.78633">
        <ele>546.7</ele>
        <time>2013-03-10T09:29:59.59Z</time>
      </trkpt>
      <trkpt lat="45.8346" lon="4.78637">
        <ele>556.5</ele>
        <time>2013-03-10T09:30:01.56Z</time>
      </trkpt>
      <trkpt lat="45.83457" lon="4.7864">
        <ele>545.8</ele>
        <time>2013-03-10T09:30:02.56Z</time>
      </trkpt>
      <trkpt lat="45.83454" lon="4.78643">
        <ele>545.5</ele>
        <time>2013-03-10T09:30:03.56Z</time>
      </trkpt>
      <trkpt lat="45.83451" lon="4.78646">
        <ele>545</ele>
        <time>2013-03-10T09:30:04.7Z</time>
      </trkpt>
      <trkpt lat="45.83445" lon="4.78653">
        <ele>544.5</ele>
        <time>2013-03-10T09:30:06.56Z</time>
      </trkpt>
      <trkpt lat="45.83442" lon="4.78656">
        <ele>544.4</ele>
        <time>2013-03-10T09:30:07.56Z</time>
      </trkpt>
      <trkpt lat="45.83439" lon="4.7866">
        <ele>544.3</ele>
        <time>2013-03-10T09:30:08.56Z</time>
      </trkpt>
      <trkpt lat="45.83437" lon="4.78663">
        <ele>544.3</ele>
        <time>2013-03-10T09:30:09.59Z</time>
      </trkpt>
      <trkpt lat="45.83435" lon="4.78667">
        <ele>544.2</ele>
        <time>2013-03-10T09:30:10.63Z</time>
      </trkpt>
      <trkpt lat="45.8343" lon="4.78672">
        <ele>543.7</ele>
        <time>2013-03-10T09:30:12.59Z</time>
      </trkpt>
      <trkpt lat="45.83427" lon="4.78675">
        <ele>543.5</ele>
        <time>2013-03-10T09:30:13.69Z</time>
      </trkpt>
      <trkpt lat="45.83422" lon="4.78679">
        <ele>542.9</ele>
        <time>2013-03-10T09:30:15.59Z</time>
      </trkpt>
      <trkpt lat="45.8342" lon="4.78682">
        <ele>542.7</ele>
        <time>2013-03-10T09:30:16.67Z</time>
      </trkpt>
      <trkpt lat="45.83413" lon="4.78688">
        <ele>541.9</ele>
        <time>2013-03-10T09:30:18.66Z</time>
      </trkpt>
      <trkpt lat="45.83408" lon="4.78696">
        <ele>541.5</ele>
        <time>2013-03-10T09:30:20.58Z</time>
      </trkpt>
      <trkpt lat="45.83405" lon="4.78699">
        <ele>541.3</ele>
        <time>2013-03-10T09:30:21.58Z</time>
      </trkpt>
      <trkpt lat="45.83402" lon="4.78701">
        <ele>541.1</ele>
        <time>2013-03-10T09:30:22.62Z</time>
      </trkpt>
      <trkpt lat="45.83396" lon="4.78705">
        <ele>540.3</ele>
        <time>2013-03-10T09:30:24.66Z</time>
      </trkpt>
      <trkpt lat="45.83389" lon="4.78706">
        <ele>539.4</ele>
        <time>2013-03-10T09:30:26.56Z</time>
      </trkpt>
      <trkpt lat="45.83386" lon="4.78708">
        <ele>538.9</ele>
        <time>2013-03-10T09:30:27.56Z</time>
      </trkpt>
      <trkpt lat="45.83383" lon="4.78709">
        <ele>538.5</ele>
        <time>2013-03-10T09:30:28.56Z</time>
      </trkpt>
      <trkpt lat="45.83381" lon="4.78711">
        <ele>538.3</ele>
        <time>2013-03-10T09:30:29.58Z</time>
      </trkpt>
      <trkpt lat="45.83379" lon="4.78712">
        <ele>538</ele>
        <time>2013-03-10T09:30:30.58Z</time>
      </trkpt>
      <trkpt lat="45.83376" lon="4.78712">
        <ele>537.5</ele>
        <time>2013-03-10T09:30:31.58Z</time>
      </trkpt>
      <trkpt lat="45.83373" lon="4.78712">
        <ele>537.1</ele>
        <time>2013-03-10T09:30:32.62Z</time>
      </trkpt>
      <trkpt lat="45.83368" lon="4.78713">
        <ele>536.1</ele>
        <time>2013-03-10T09:30:34.56Z</time>
      </trkpt>
      <trkpt lat="45.83364" lon="4.78714">
        <ele>535.7</ele>
        <time>2013-03-10T09:30:35.56Z</time>
      </trkpt>
      <trkpt lat="45.83361" lon="4.78715">
        <ele>535.2</ele>
        <time>2013-03-10T09:30:36.56Z</time>
      </trkpt>
      <trkpt lat="45.83357" lon="4.78717">
        <ele>534.7</ele>
        <time>2013-03-10T09:30:37.56Z</time>
      </trkpt>
      <trkpt lat="45.83353" lon="4.78719">
        <ele>534.2</ele>
        <time>2013-03-10T09:30:38.67Z</time>
      </trkpt>
      <trkpt lat="45.83345" lon="4.78722">
        <ele>533</ele>
        <time>2013-03-10T09:30:40.56Z</time>
      </trkpt>
      <trkpt lat="45.83341" lon="4.78722">
        <ele>532.4</ele>
        <time>2013-03-10T09:30:41.57Z</time>
      </trkpt>
      <trkpt lat="45.83338" lon="4.78722">
        <ele>531.8</ele>
        <time>2013-03-10T09:30:42.56Z</time>
      </trkpt>
      <trkpt lat="45.83335" lon="4.78723">
        <ele>531.3</ele>
        <time>2013-03-10T09:30:43.56Z</time>
      </trkpt>
      <trkpt lat="45.83332" lon="4.78724">
        <ele>531</ele>
        <time>2013-03-10T09:30:44.58Z</time>
      </trkpt>
      <trkpt lat="45.83328" lon="4.78724">
        <ele>530.5</ele>
        <time>2013-03-10T09:30:45.62Z</time>
      </trkpt>
      <trkpt lat="45.83322" lon="4.78725">
        <ele>529.7</ele>
        <time>2013-03-10T09:30:47.56Z</time>
      </trkpt>
      <trkpt lat="45.83319" lon="4.78726">
        <ele>529.4</ele>
        <time>2013-03-10T09:30:48.56Z</time>
      </trkpt>
      <trkpt lat="45.83316" lon="4.78727">
        <ele>529.1</ele>
        <time>2013-03-10T09:30:49.58Z</time>
      </trkpt>
      <trkpt lat="45.83312" lon="4.78728">
        <ele>528.7</ele>
        <time>2013-03-10T09:30:50.58Z</time>
      </trkpt>
      <trkpt lat="45.83305" lon="4.78732">
        <ele>528</ele>
        <time>2013-03-10T09:30:52.58Z</time>
      </trkpt>
      <trkpt lat="45.83301" lon="4.78735">
        <ele>527.6</ele>
        <time>2013-03-10T09:30:53.74Z</time>
      </trkpt>
      <trkpt lat="45.83295" lon="4.7874">
        <ele>527</ele>
        <time>2013-03-10T09:30:55.58Z</time>
      </trkpt>
      <trkpt lat="45.83292" lon="4.78742">
        <ele>526.7</ele>
        <time>2013-03-10T09:30:56.58Z</time>
      </trkpt>
      <trkpt lat="45.83289" lon="4.78744">
        <ele>526.3</ele>
        <time>2013-03-10T09:30:57.62Z</time>
      </trkpt>
      <trkpt lat="45.83283" lon="4.78748">
        <ele>525.6</ele>
        <time>2013-03-10T09:30:59.63Z</time>
      </trkpt>
      <trkpt lat="45.83277" lon="4.78751">
        <ele>538.7</ele>
        <time>2013-03-10T09:31:01.56Z</time>
      </trkpt>
      <trkpt lat="45.83274" lon="4.78753">
        <ele>524.8</ele>
        <time>2013-03-10T09:31:02.56Z</time>
      </trkpt>
      <trkpt lat="45.83271" lon="4.78756">
        <ele>524.6</ele>
        <time>2013-03-10T09:31:03.69Z</time>
      </trkpt>
      <trkpt lat="45.83265" lon="4.78762">
        <ele>524.1</ele>
        <time>2013-03-10T09:31:05.62Z</time>
      </trkpt>
      <trkpt lat="45.83258" lon="4.78768">
        <ele>523.5</ele>
        <time>2013-03-10T09:31:07.56Z</time>
      </trkpt>
      <trkpt lat="45.83254" lon="4.78772">
        <ele>523.2</ele>
        <time>2013-03-10T09:31:08.56Z</time>
      </trkpt>
      <trkpt lat="45.83251" lon="4.78775">
        <ele>522.8</ele>
        <time>2013-03-10T09:31:09.57Z</time>
      </trkpt>
      <trkpt lat="45.83247" lon="4.78777">
        <ele>522.5</ele>
        <time>2013-03-10T09:31:10.62Z</time>
      </trkpt>
      <trkpt lat="45.83241" lon="4.78782">
        <ele>522.2</ele>
        <time>2013-03-10T09:31:12.56Z</time>
      </trkpt>
      <trkpt lat="45.83238" lon="4.78784">
        <ele>521.9</ele>
        <time>2013-03-10T09:31:13.56Z</time>
      </trkpt>
      <trkpt lat="45.83235" lon="4.78787">
        <ele>521.7</ele>
        <time>2013-03-10T09:31:14.57Z</time>
      </trkpt>
      <trkpt lat="45.83233" lon="4.7879">
        <ele>521.6</ele>
        <time>2013-03-10T09:31:15.58Z</time>
      </trkpt>
      <trkpt lat="45.8323" lon="4.78794">
        <ele>521.5</ele>
        <time>2013-03-10T09:31:16.63Z</time>
      </trkpt>
      <trkpt lat="45.83226" lon="4.788">
        <ele>521.2</ele>
        <time>2013-03-10T09:31:18.65Z</time>
      </trkpt>
      <trkpt lat="45.83221" lon="4.78807">
        <ele>520.8</ele>
        <time>2013-03-10T09:31:20.57Z</time>
      </trkpt>
      <trkpt lat="45.83218" lon="4.7881">
        <ele>520.7</ele>
        <time>2013-03-10T09:31:21.57Z</time>
      </trkpt>
      <trkpt lat="45.83216" lon="4.78814">
        <ele>520.6</ele>
        <time>2013-03-10T09:31:22.62Z</time>
      </trkpt>
      <trkpt lat="45.83211" lon="4.78822">
        <ele>520.4</ele>
        <time>2013-03-10T09:31:24.57Z</time>
      </trkpt>
      <trkpt lat="45.83209" lon="4.78827">
        <ele>520.3</ele>
        <time>2013-03-10T09:31:25.62Z</time>
      </trkpt>
      <trkpt lat="45.83206" lon="4.78834">
        <ele>520.2</ele>
        <time>2013-03-10T09:31:27.57Z</time>
      </trkpt>
      <trkpt lat="45.83204" lon="4.78838">
        <ele>520.2</ele>
        <time>2013-03-10T09:31:28.69Z</time>
      </trkpt>
      <trkpt lat="45.832" lon="4.78846">
        <ele>519.9</ele>
        <time>2013-03-10T09:31:30.65Z</time>
      </trkpt>
      <trkpt lat="45.83196" lon="4.78853">
        <ele>519.7</ele>
        <time>2013-03-10T09:31:32.56Z</time>
      </trkpt>
      <trkpt lat="45.83194" lon="4.78857">
        <ele>519.5</ele>
        <time>2013-03-10T09:31:33.57Z</time>
      </trkpt>
      <trkpt lat="45.83191" lon="4.7886">
        <ele>519.2</ele>
        <time>2013-03-10T09:31:34.62Z</time>
      </trkpt>
      <trkpt lat="45.83187" lon="4.78867">
        <ele>519</ele>
        <time>2013-03-10T09:31:36.56Z</time>
      </trkpt>
      <trkpt lat="45.83185" lon="4.78872">
        <ele>519</ele>
        <time>2013-03-10T09:31:37.62Z</time>
      </trkpt>
      <trkpt lat="45.83185" lon="4.78877">
        <ele>519.4</ele>
        <time>2013-03-10T09:31:39.66Z</time>
      </trkpt>
      <trkpt lat="45.83187" lon="4.78879">
        <ele>519.9</ele>
        <time>2013-03-10T09:31:41.66Z</time>
      </trkpt>
      <trkpt lat="45.8319" lon="4.7888">
        <ele>520.6</ele>
        <time>2013-03-10T09:31:43.56Z</time>
      </trkpt>
      <trkpt lat="45.83192" lon="4.78879">
        <ele>520.8</ele>
        <time>2013-03-10T09:31:44.64Z</time>
      </trkpt>
      <trkpt lat="45.83195" lon="4.78878">
        <ele>521.2</ele>
        <time>2013-03-10T09:31:46.66Z</time>
      </trkpt>
      <trkpt lat="45.83198" lon="4.78877">
        <ele>521.7</ele>
        <time>2013-03-10T09:31:48.66Z</time>
      </trkpt>
      <trkpt lat="45.83202" lon="4.78875">
        <ele>522.2</ele>
        <time>2013-03-10T09:31:50.64Z</time>
      </trkpt>
      <trkpt lat="45.83205" lon="4.78873">
        <ele>522.6</ele>
        <time>2013-03-10T09:31:52.56Z</time>
      </trkpt>
      <trkpt lat="45.83206" lon="4.78872">
        <ele>522.7</ele>
        <time>2013-03-10T09:31:53.74Z</time>
      </trkpt>
      <trkpt lat="45.8321" lon="4.7887">
        <ele>523.4</ele>
        <time>2013-03-10T09:31:55.56Z</time>
      </trkpt>
      <trkpt lat="45.83212" lon="4.78868">
        <ele>523.7</ele>
        <time>2013-03-10T09:31:56.66Z</time>
      </trkpt>
      <trkpt lat="45.83216" lon="4.78866">
        <ele>524.6</ele>
        <time>2013-03-10T09:31:58.76Z</time>
      </trkpt>
      <trkpt lat="45.83219" lon="4.78863">
        <ele>527.2</ele>
        <time>2013-03-10T09:32:00.66Z</time>
      </trkpt>
      <trkpt lat="45.83223" lon="4.78861">
        <ele>526.2</ele>
        <time>2013-03-10T09:32:02.66Z</time>
      </trkpt>
      <trkpt lat="45.83225" lon="4.78861">
        <ele>526.4</ele>
        <time>2013-03-10T09:32:03.56Z</time>
      </trkpt>
      <trkpt lat="45.83226" lon="4.7886">
        <ele>526.5</ele>
        <time>2013-03-10T09:32:04.66Z</time>
      </trkpt>
      <trkpt lat="45.8323" lon="4.78857">
        <ele>526.8</ele>
        <time>2013-03-10T09:32:06.66Z</time>
      </trkpt>
      <trkpt lat="45.83232" lon="4.78856">
        <ele>527</ele>
        <time>2013-03-10T09:32:07.56Z</time>
      </trkpt>
      <trkpt lat="45.83233" lon="4.78855">
        <ele>527.1</ele>
        <time>2013-03-10T09:32:08.66Z</time>
      </trkpt>
      <trkpt lat="45.83237" lon="4.78852">
        <ele>527.7</ele>
        <time>2013-03-10T09:32:10.56Z</time>
      </trkpt>
      <trkpt lat="45.83239" lon="4.78851">
        <ele>527.9</ele>
        <time>2013-03-10T09:32:11.64Z</time>
      </trkpt>
      <trkpt lat="45.8324" lon="4.7885">
        <ele>528.2</ele>
        <time>2013-03-10T09:32:12.56Z</time>
      </trkpt>
      <trkpt lat="45.83242" lon="4.78849">
        <ele>528.4</ele>
        <time>2013-03-10T09:32:13.75Z</time>
      </trkpt>
      <trkpt lat="45.83245" lon="4.78847">
        <ele>529</ele>
        <time>2013-03-10T09:32:15.56Z</time>
      </trkpt>
      <trkpt lat="45.83247" lon="4.78846">
        <ele>529.4</ele>
        <time>2013-03-10T09:32:16.61Z</time>
      </trkpt>
      <trkpt lat="45.83249" lon="4.78845">
        <ele>529.8</ele>
        <time>2013-03-10T09:32:17.56Z</time>
      </trkpt>
      <trkpt lat="45.83251" lon="4.78844">
        <ele>530.1</ele>
        <time>2013-03-10T09:32:18.66Z</time>
      </trkpt>
      <trkpt lat="45.83256" lon="4.78842">
        <ele>530.9</ele>
        <time>2013-03-10T09:32:20.56Z</time>
      </trkpt>
      <trkpt lat="45.83258" lon="4.78841">
        <ele>531.2</ele>
        <time>2013-03-10T09:32:21.65Z</time>
      </trkpt>
      <trkpt lat="45.83261" lon="4.7884">
        <ele>531.8</ele>
        <time>2013-03-10T09:32:23.66Z</time>
      </trkpt>
      <trkpt lat="45.83266" lon="4.78838">
        <ele>532.6</ele>
        <time>2013-03-10T09:32:25.56Z</time>
      </trkpt>
      <trkpt lat="45.83268" lon="4.78837">
        <ele>533</ele>
        <time>2013-03-10T09:32:26.65Z</time>
      </trkpt>
      <trkpt lat="45.83269" lon="4.78836">
        <ele>533.3</ele>
        <time>2013-03-10T09:32:27.56Z</time>
      </trkpt>
      <trkpt lat="45.83271" lon="4.78836">
        <ele>533.7</ele>
        <time>2013-03-10T09:32:28.66Z</time>
      </trkpt>
      <trkpt lat="45.83276" lon="4.78834">
        <ele>534.6</ele>
        <time>2013-03-10T09:32:30.56Z</time>
      </trkpt>
      <trkpt lat="45.83277" lon="4.78834">
        <ele>534.9</ele>
        <time>2013-03-10T09:32:31.65Z</time>
      </trkpt>
      <trkpt lat="45.83279" lon="4.78833">
        <ele>535.1</ele>
        <time>2013-03-10T09:32:32.56Z</time>
      </trkpt>
      <trkpt lat="45.83281" lon="4.78832">
        <ele>535.3</ele>
        <time>2013-03-10T09:32:33.74Z</time>
      </trkpt>
      <trkpt lat="45.83285" lon="4.78831">
        <ele>535.7</ele>
        <time>2013-03-10T09:32:35.65Z</time>
      </trkpt>
      <trkpt lat="45.83287" lon="4.78829">
        <ele>535.9</ele>
        <time>2013-03-10T09:32:36.56Z</time>
      </trkpt>
      <trkpt lat="45.83289" lon="4.78828">
        <ele>536.1</ele>
        <time>2013-03-10T09:32:37.65Z</time>
      </trkpt>
      <trkpt lat="45.83293" lon="4.78825">
        <ele>536.7</ele>
        <time>2013-03-10T09:32:39.65Z</time>
      </trkpt>
      <trkpt lat="45.83295" lon="4.78825">
        <ele>537</ele>
        <time>2013-03-10T09:32:40.56Z</time>
      </trkpt>
      <trkpt lat="45.83296" lon="4.78823">
        <ele>537.2</ele>
        <time>2013-03-10T09:32:41.65Z</time>
      </trkpt>
      <trkpt lat="45.833" lon="4.7882">
        <ele>537.9</ele>
        <time>2013-03-10T09:32:43.66Z</time>
      </trkpt>
      <trkpt lat="45.83303" lon="4.78818">
        <ele>538.7</ele>
        <time>2013-03-10T09:32:45.65Z</time>
      </trkpt>
      <trkpt lat="45.83306" lon="4.78814">
        <ele>539.4</ele>
        <time>2013-03-10T09:32:47.65Z</time>
      </trkpt>
      <trkpt lat="45.83308" lon="4.78812">
        <ele>539.7</ele>
        <time>2013-03-10T09:32:48.56Z</time>
      </trkpt>
      <trkpt lat="45.8331" lon="4.7881">
        <ele>540</ele>
        <time>2013-03-10T09:32:49.65Z</time>
      </trkpt>
      <trkpt lat="45.83313" lon="4.78805">
        <ele>540.4</ele>
        <time>2013-03-10T09:32:51.56Z</time>
      </trkpt>
      <trkpt lat="45.83316" lon="4.78803">
        <ele>540.4</ele>
        <time>2013-03-10T09:32:52.63Z</time>
      </trkpt>
      <trkpt lat="45.83317" lon="4.78801">
        <ele>540.4</ele>
        <time>2013-03-10T09:32:53.56Z</time>
      </trkpt>
      <trkpt lat="45.83319" lon="4.78799">
        <ele>540.4</ele>
        <time>2013-03-10T09:32:54.65Z</time>
      </trkpt>
      <trkpt lat="45.83321" lon="4.78798">
        <ele>540.5</ele>
        <time>2013-03-10T09:32:55.56Z</time>
      </trkpt>
      <trkpt lat="45.83324" lon="4.78797">
        <ele>540.7</ele>
        <time>2013-03-10T09:32:56.65Z</time>
      </trkpt>
      <trkpt lat="45.83326" lon="4.78796">
        <ele>540.9</ele>
        <time>2013-03-10T09:32:57.56Z</time>
      </trkpt>
      <trkpt lat="45.83329" lon="4.78795">
        <ele>541.1</ele>
        <time>2013-03-10T09:32:58.66Z</time>
      </trkpt>
      <trkpt lat="45.83332" lon="4.78796">
        <ele>541.1</ele>
        <time>2013-03-10T09:33:00.56Z</time>
      </trkpt>
      <trkpt lat="45.83334" lon="4.78797">
        <ele>541.8</ele>
        <time>2013-03-10T09:33:01.64Z</time>
      </trkpt>
      <trkpt lat="45.83335" lon="4.78801">
        <ele>541.9</ele>
        <time>2013-03-10T09:33:02.56Z</time>
      </trkpt>
      <trkpt lat="45.83335" lon="4.78804">
        <ele>542.1</ele>
        <time>2013-03-10T09:33:03.66Z</time>
      </trkpt>
      <trkpt lat="45.83336" lon="4.78808">
        <ele>542</ele>
        <time>2013-03-10T09:33:05.56Z</time>
      </trkpt>
      <trkpt lat="45.83336" lon="4.78811">
        <ele>541.8</ele>
        <time>2013-03-10T09:33:06.64Z</time>
      </trkpt>
      <trkpt lat="45.83336" lon="4.78814">
        <ele>541.6</ele>
        <time>2013-03-10T09:33:07.56Z</time>
      </trkpt>
      <trkpt lat="45.83335" lon="4.78817">
        <ele>541.3</ele>
        <time>2013-03-10T09:33:08.68Z</time>
      </trkpt>
      <trkpt lat="45.83334" lon="4.78823">
        <ele>540.8</ele>
        <time>2013-03-10T09:33:10.56Z</time>
      </trkpt>
      <trkpt lat="45.83335" lon="4.78827">
        <ele>540.5</ele>
        <time>2013-03-10T09:33:11.64Z</time>
      </trkpt>
      <trkpt lat="45.83334" lon="4.78832">
        <ele>540.2</ele>
        <time>2013-03-10T09:33:12.56Z</time>
      </trkpt>
      <trkpt lat="45.83335" lon="4.78837">
        <ele>539.7</ele>
        <time>2013-03-10T09:33:13.74Z</time>
      </trkpt>
      <trkpt lat="45.83336" lon="4.78848">
        <ele>538.6</ele>
        <time>2013-03-10T09:33:15.56Z</time>
      </trkpt>
      <trkpt lat="45.83336" lon="4.78853">
        <ele>538</ele>
        <time>2013-03-10T09:33:16.66Z</time>
      </trkpt>
      <trkpt lat="45.83335" lon="4.78864">
        <ele>536.9</ele>
        <time>2013-03-10T09:33:18.56Z</time>
      </trkpt>
      <trkpt lat="45.83335" lon="4.7887">
        <ele>536.5</ele>
        <time>2013-03-10T09:33:19.64Z</time>
      </trkpt>
      <trkpt lat="45.83335" lon="4.7888">
        <ele>535.7</ele>
        <time>2013-03-10T09:33:21.64Z</time>
      </trkpt>
      <trkpt lat="45.83335" lon="4.78884">
        <ele>535.4</ele>
        <time>2013-03-10T09:33:22.56Z</time>
      </trkpt>
      <trkpt lat="45.83336" lon="4.78888">
        <ele>535.1</ele>
        <time>2013-03-10T09:33:23.75Z</time>
      </trkpt>
      <trkpt lat="45.83337" lon="4.78897">
        <ele>533.8</ele>
        <time>2013-03-10T09:33:25.56Z</time>
      </trkpt>
      <trkpt lat="45.83338" lon="4.78902">
        <ele>533.1</ele>
        <time>2013-03-10T09:33:26.64Z</time>
      </trkpt>
      <trkpt lat="45.83338" lon="4.78906">
        <ele>532.5</ele>
        <time>2013-03-10T09:33:27.56Z</time>
      </trkpt>
      <trkpt lat="45.83339" lon="4.7891">
        <ele>532</ele>
        <time>2013-03-10T09:33:28.69Z</time>
      </trkpt>
      <trkpt lat="45.83339" lon="4.78916">
        <ele>531.1</ele>
        <time>2013-03-10T09:33:30.56Z</time>
      </trkpt>
      <trkpt lat="45.83339" lon="4.7892">
        <ele>530.6</ele>
        <time>2013-03-10T09:33:31.62Z</time>
      </trkpt>
      <trkpt lat="45.83339" lon="4.78924">
        <ele>530</ele>
        <time>2013-03-10T09:33:32.56Z</time>
      </trkpt>
      <trkpt lat="45.83339" lon="4.78929">
        <ele>529.3</ele>
        <time>2013-03-10T09:33:33.7Z</time>
      </trkpt>
      <trkpt lat="45.83339" lon="4.78939">
        <ele>527.9</ele>
        <time>2013-03-10T09:33:35.63Z</time>
      </trkpt>
      <trkpt lat="45.83339" lon="4.78949">
        <ele>526.7</ele>
        <time>2013-03-10T09:33:37.63Z</time>
      </trkpt>
      <trkpt lat="45.8334" lon="4.78958">
        <ele>525.7</ele>
        <time>2013-03-10T09:33:39.63Z</time>
      </trkpt>
      <trkpt lat="45.8334" lon="4.78962">
        <ele>525.2</ele>
        <time>2013-03-10T09:33:40.56Z</time>
      </trkpt>
      <trkpt lat="45.8334" lon="4.78965">
        <ele>524.8</ele>
        <time>2013-03-10T09:33:41.63Z</time>
      </trkpt>
      <trkpt lat="45.83339" lon="4.7897">
        <ele>524.3</ele>
        <time>2013-03-10T09:33:42.56Z</time>
      </trkpt>
      <trkpt lat="45.83339" lon="4.78975">
        <ele>523.8</ele>
        <time>2013-03-10T09:33:43.67Z</time>
      </trkpt>
      <trkpt lat="45.83339" lon="4.7898">
        <ele>523.2</ele>
        <time>2013-03-10T09:33:44.7Z</time>
      </trkpt>
      <trkpt lat="45.83339" lon="4.78991">
        <ele>522.2</ele>
        <time>2013-03-10T09:33:46.56Z</time>
      </trkpt>
      <trkpt lat="45.83339" lon="4.78997">
        <ele>521.7</ele>
        <time>2013-03-10T09:33:47.63Z</time>
      </trkpt>
      <trkpt lat="45.83339" lon="4.7901">
        <ele>520.7</ele>
        <time>2013-03-10T09:33:49.63Z</time>
      </trkpt>
      <trkpt lat="45.83339" lon="4.79016">
        <ele>520.3</ele>
        <time>2013-03-10T09:33:50.57Z</time>
      </trkpt>
      <trkpt lat="45.83338" lon="4.79021">
        <ele>519.9</ele>
        <time>2013-03-10T09:33:51.56Z</time>
      </trkpt>
      <trkpt lat="45.83338" lon="4.79026">
        <ele>519.5</ele>
        <time>2013-03-10T09:33:52.57Z</time>
      </trkpt>
      <trkpt lat="45.83337" lon="4.7903">
        <ele>519.1</ele>
        <time>2013-03-10T09:33:53.57Z</time>
      </trkpt>
      <trkpt lat="45.83334" lon="4.79034">
        <ele>518.6</ele>
        <time>2013-03-10T09:33:54.57Z</time>
      </trkpt>
      <trkpt lat="45.83331" lon="4.79037">
        <ele>518.2</ele>
        <time>2013-03-10T09:33:55.57Z</time>
      </trkpt>
      <trkpt lat="45.83328" lon="4.79039">
        <ele>517.8</ele>
        <time>2013-03-10T09:33:56.57Z</time>
      </trkpt>
      <trkpt lat="45.83322" lon="4.79044">
        <ele>517.1</ele>
        <time>2013-03-10T09:33:58.43Z</time>
      </trkpt>
      <trkpt lat="45.8332" lon="4.79051">
        <ele>527.5</ele>
        <time>2013-03-10T09:34:00.57Z</time>
      </trkpt>
      <trkpt lat="45.8332" lon="4.79055">
        <ele>516.1</ele>
        <time>2013-03-10T09:34:01.57Z</time>
      </trkpt>
      <trkpt lat="45.8332" lon="4.7906">
        <ele>515.6</ele>
        <time>2013-03-10T09:34:02.57Z</time>
      </trkpt>
      <trkpt lat="45.8332" lon="4.79064">
        <ele>515.3</ele>
        <time>2013-03-10T09:34:03.57Z</time>
      </trkpt>
      <trkpt lat="45.83319" lon="4.79068">
        <ele>514.9</ele>
        <time>2013-03-10T09:34:04.57Z</time>
      </trkpt>
      <trkpt lat="45.83317" lon="4.7907">
        <ele>514.6</ele>
        <time>2013-03-10T09:34:05.57Z</time>
      </trkpt>
      <trkpt lat="45.83315" lon="4.79072">
        <ele>514.3</ele>
        <time>2013-03-10T09:34:06.57Z</time>
      </trkpt>
      <trkpt lat="45.83311" lon="4.79073">
        <ele>514</ele>
        <time>2013-03-10T09:34:07.57Z</time>
      </trkpt>
      <trkpt lat="45.83309" lon="4.79073">
        <ele>513.9</ele>
        <time>2013-03-10T09:34:08.57Z</time>
      </trkpt>
      <trkpt lat="45.83305" lon="4.79073">
        <ele>513.8</ele>
        <time>2013-03-10T09:34:09.56Z</time>
      </trkpt>
      <trkpt lat="45.83301" lon="4.79072">
        <ele>513.6</ele>
        <time>2013-03-10T09:34:10.56Z</time>
      </trkpt>
      <trkpt lat="45.83296" lon="4.79072">
        <ele>513.5</ele>
        <time>2013-03-10T09:34:11.56Z</time>
      </trkpt>
      <trkpt lat="45.83293" lon="4.79072">
        <ele>513.3</ele>
        <time>2013-03-10T09:34:12.56Z</time>
      </trkpt>
      <trkpt lat="45.83288" lon="4.79072">
        <ele>513.2</ele>
        <time>2013-03-10T09:34:13.56Z</time>
      </trkpt>
      <trkpt lat="45.83284" lon="4.79073">
        <ele>513</ele>
        <time>2013-03-10T09:34:14.56Z</time>
      </trkpt>
      <trkpt lat="45.8328" lon="4.79073">
        <ele>512.9</ele>
        <time>2013-03-10T09:34:15.56Z</time>
      </trkpt>
      <trkpt lat="45.83277" lon="4.79072">
        <ele>512.8</ele>
        <time>2013-03-10T09:34:16.57Z</time>
      </trkpt>
      <trkpt lat="45.83271" lon="4.7907">
        <ele>512.6</ele>
        <time>2013-03-10T09:34:18.42Z</time>
      </trkpt>
      <trkpt lat="45.83267" lon="4.7907">
        <ele>512.4</ele>
        <time>2013-03-10T09:34:19.56Z</time>
      </trkpt>
      <trkpt lat="45.83264" lon="4.7907">
        <ele>512.2</ele>
        <time>2013-03-10T09:34:20.56Z</time>
      </trkpt>
      <trkpt lat="45.83261" lon="4.79071">
        <ele>512</ele>
        <time>2013-03-10T09:34:21.56Z</time>
      </trkpt>
      <trkpt lat="45.83259" lon="4.79075">
        <ele>511.5</ele>
        <time>2013-03-10T09:34:22.56Z</time>
      </trkpt>
      <trkpt lat="45.83258" lon="4.79079">
        <ele>511</ele>
        <time>2013-03-10T09:34:23.56Z</time>
      </trkpt>
      <trkpt lat="45.83256" lon="4.79083">
        <ele>510.4</ele>
        <time>2013-03-10T09:34:24.56Z</time>
      </trkpt>
      <trkpt lat="45.83254" lon="4.79088">
        <ele>510</ele>
        <time>2013-03-10T09:34:25.56Z</time>
      </trkpt>
      <trkpt lat="45.83252" lon="4.79092">
        <ele>509.5</ele>
        <time>2013-03-10T09:34:26.56Z</time>
      </trkpt>
      <trkpt lat="45.8325" lon="4.79097">
        <ele>509</ele>
        <time>2013-03-10T09:34:27.56Z</time>
      </trkpt>
      <trkpt lat="45.83249" lon="4.79102">
        <ele>508.6</ele>
        <time>2013-03-10T09:34:28.56Z</time>
      </trkpt>
      <trkpt lat="45.83247" lon="4.79107">
        <ele>508.1</ele>
        <time>2013-03-10T09:34:29.62Z</time>
      </trkpt>
      <trkpt lat="45.83245" lon="4.79112">
        <ele>507.6</ele>
        <time>2013-03-10T09:34:30.63Z</time>
      </trkpt>
      <trkpt lat="45.83241" lon="4.79121">
        <ele>506.4</ele>
        <time>2013-03-10T09:34:32.63Z</time>
      </trkpt>
      <trkpt lat="45.83241" lon="4.79126">
        <ele>505.9</ele>
        <time>2013-03-10T09:34:33.66Z</time>
      </trkpt>
      <trkpt lat="45.83238" lon="4.79136">
        <ele>504.8</ele>
        <time>2013-03-10T09:34:35.62Z</time>
      </trkpt>
      <trkpt lat="45.83236" lon="4.79141">
        <ele>504.3</ele>
        <time>2013-03-10T09:34:36.62Z</time>
      </trkpt>
      <trkpt lat="45.83231" lon="4.79149">
        <ele>503.2</ele>
        <time>2013-03-10T09:34:38.68Z</time>
      </trkpt>
      <trkpt lat="45.83228" lon="4.79158">
        <ele>502.1</ele>
        <time>2013-03-10T09:34:40.56Z</time>
      </trkpt>
      <trkpt lat="45.83226" lon="4.79163">
        <ele>501.5</ele>
        <time>2013-03-10T09:34:41.57Z</time>
      </trkpt>
      <trkpt lat="45.83225" lon="4.79168">
        <ele>500.9</ele>
        <time>2013-03-10T09:34:42.56Z</time>
      </trkpt>
      <trkpt lat="45.83223" lon="4.79173">
        <ele>500.3</ele>
        <time>2013-03-10T09:34:43.56Z</time>
      </trkpt>
      <trkpt lat="45.83222" lon="4.79178">
        <ele>499.8</ele>
        <time>2013-03-10T09:34:44.62Z</time>
      </trkpt>
      <trkpt lat="45.8322" lon="4.79182">
        <ele>499.3</ele>
        <time>2013-03-10T09:34:45.63Z</time>
      </trkpt>
      <trkpt lat="45.83218" lon="4.7919">
        <ele>498.3</ele>
        <time>2013-03-10T09:34:47.6Z</time>
      </trkpt>
      <trkpt lat="45.83217" lon="4.79195">
        <ele>497.8</ele>
        <time>2013-03-10T09:34:48.77Z</time>
      </trkpt>
      <trkpt lat="45.83214" lon="4.79204">
        <ele>496.5</ele>
        <time>2013-03-10T09:34:50.67Z</time>
      </trkpt>
      <trkpt lat="45.8321" lon="4.79214">
        <ele>495.2</ele>
        <time>2013-03-10T09:34:52.56Z</time>
      </trkpt>
      <trkpt lat="45.83209" lon="4.79219">
        <ele>494.4</ele>
        <time>2013-03-10T09:34:53.56Z</time>
      </trkpt>
      <trkpt lat="45.83207" lon="4.79224">
        <ele>493.7</ele>
        <time>2013-03-10T09:34:54.63Z</time>
      </trkpt>
      <trkpt lat="45.83203" lon="4.79234">
        <ele>492.6</ele>
        <time>2013-03-10T09:34:56.61Z</time>
      </trkpt>
      <trkpt lat="45.83201" lon="4.79238">
        <ele>492.2</ele>
        <time>2013-03-10T09:34:57.62Z</time>
      </trkpt>
      <trkpt lat="45.83199" lon="4.79242">
        <ele>491.8</ele>
        <time>2013-03-10T09:34:58.67Z</time>
      </trkpt>
      <trkpt lat="45.83197" lon="4.79251">
        <ele>506.6</ele>
        <time>2013-03-10T09:35:00.56Z</time>
      </trkpt>
      <trkpt lat="45.83195" lon="4.79255">
        <ele>490.3</ele>
        <time>2013-03-10T09:35:01.57Z</time>
      </trkpt>
      <trkpt lat="45.83193" lon="4.7926">
        <ele>489.5</ele>
        <time>2013-03-10T09:35:02.56Z</time>
      </trkpt>
      <trkpt lat="45.83191" lon="4.79265">
        <ele>488.6</ele>
        <time>2013-03-10T09:35:03.56Z</time>
      </trkpt>
      <trkpt lat="45.8319" lon="4.7927">
        <ele>487.9</ele>
        <time>2013-03-10T09:35:04.61Z</time>
      </trkpt>
      <trkpt lat="45.83188" lon="4.79275">
        <ele>487.2</ele>
        <time>2013-03-10T09:35:05.61Z</time>
      </trkpt>
      <trkpt lat="45.83186" lon="4.7928">
        <ele>486.4</ele>
        <time>2013-03-10T09:35:06.62Z</time>
      </trkpt>
      <trkpt lat="45.83182" lon="4.79289">
        <ele>484.8</ele>
        <time>2013-03-10T09:35:08.67Z</time>
      </trkpt>
      <trkpt lat="45.83176" lon="4.79294">
        <ele>483.6</ele>
        <time>2013-03-10T09:35:10.56Z</time>
      </trkpt>
      <trkpt lat="45.83173" lon="4.79297">
        <ele>482.9</ele>
        <time>2013-03-10T09:35:11.56Z</time>
      </trkpt>
      <trkpt lat="45.83174" lon="4.793">
        <ele>482.5</ele>
        <time>2013-03-10T09:35:12.56Z</time>
      </trkpt>
      <trkpt lat="45.83176" lon="4.793">
        <ele>482.5</ele>
        <time>2013-03-10T09:35:13.56Z</time>
      </trkpt>
      <trkpt lat="45.8318" lon="4.793">
        <ele>482.8</ele>
        <time>2013-03-10T09:35:14.57Z</time>
      </trkpt>
      <trkpt lat="45.83183" lon="4.79299">
        <ele>483.2</ele>
        <time>2013-03-10T09:35:15.56Z</time>
      </trkpt>
      <trkpt lat="45.83186" lon="4.79299">
        <ele>483.5</ele>
        <time>2013-03-10T09:35:16.57Z</time>
      </trkpt>
      <trkpt lat="45.83189" lon="4.79299">
        <ele>483.6</ele>
        <time>2013-03-10T09:35:17.62Z</time>
      </trkpt>
      <trkpt lat="45.83192" lon="4.793">
        <ele>483.7</ele>
        <time>2013-03-10T09:35:18.66Z</time>
      </trkpt>
      <trkpt lat="45.83198" lon="4.793">
        <ele>483.9</ele>
        <time>2013-03-10T09:35:20.56Z</time>
      </trkpt>
      <trkpt lat="45.83202" lon="4.793">
        <ele>484</ele>
        <time>2013-03-10T09:35:21.61Z</time>
      </trkpt>
      <trkpt lat="45.83205" lon="4.793">
        <ele>484.2</ele>
        <time>2013-03-10T09:35:22.61Z</time>
      </trkpt>
      <trkpt lat="45.83209" lon="4.793">
        <ele>484.3</ele>
        <time>2013-03-10T09:35:23.67Z</time>
      </trkpt>
      <trkpt lat="45.83214" lon="4.79302">
        <ele>484.2</ele>
        <time>2013-03-10T09:35:25.56Z</time>
      </trkpt>
      <trkpt lat="45.83217" lon="4.79303">
        <ele>484.2</ele>
        <time>2013-03-10T09:35:26.56Z</time>
      </trkpt>
      <trkpt lat="45.8322" lon="4.79304">
        <ele>484.1</ele>
        <time>2013-03-10T09:35:27.61Z</time>
      </trkpt>
      <trkpt lat="45.83223" lon="4.79305">
        <ele>484.1</ele>
        <time>2013-03-10T09:35:28.67Z</time>
      </trkpt>
      <trkpt lat="45.83229" lon="4.79308">
        <ele>484</ele>
        <time>2013-03-10T09:35:30.56Z</time>
      </trkpt>
      <trkpt lat="45.83232" lon="4.79309">
        <ele>483.9</ele>
        <time>2013-03-10T09:35:31.56Z</time>
      </trkpt>
      <trkpt lat="45.83236" lon="4.7931">
        <ele>484</ele>
        <time>2013-03-10T09:35:32.61Z</time>
      </trkpt>
      <trkpt lat="45.83239" lon="4.79311">
        <ele>484</ele>
        <time>2013-03-10T09:35:33.69Z</time>
      </trkpt>
      <trkpt lat="45.83245" lon="4.79312">
        <ele>484.2</ele>
        <time>2013-03-10T09:35:35.61Z</time>
      </trkpt>
      <trkpt lat="45.83248" lon="4.79313">
        <ele>484.2</ele>
        <time>2013-03-10T09:35:36.6Z</time>
      </trkpt>
      <trkpt lat="45.83251" lon="4.79315">
        <ele>484.1</ele>
        <time>2013-03-10T09:35:37.69Z</time>
      </trkpt>
      <trkpt lat="45.83257" lon="4.79323">
        <ele>483.4</ele>
        <time>2013-03-10T09:35:39.56Z</time>
      </trkpt>
      <trkpt lat="45.83259" lon="4.79328">
        <ele>482.9</ele>
        <time>2013-03-10T09:35:40.56Z</time>
      </trkpt>
      <trkpt lat="45.83261" lon="4.79332">
        <ele>482.6</ele>
        <time>2013-03-10T09:35:41.56Z</time>
      </trkpt>
      <trkpt lat="45.83263" lon="4.79336">
        <ele>482.4</ele>
        <time>2013-03-10T09:35:42.56Z</time>
      </trkpt>
      <trkpt lat="45.83266" lon="4.7934">
        <ele>482.4</ele>
        <time>2013-03-10T09:35:43.56Z</time>
      </trkpt>
      <trkpt lat="45.83268" lon="4.79343">
        <ele>482.4</ele>
        <time>2013-03-10T09:35:44.56Z</time>
      </trkpt>
      <trkpt lat="45.8327" lon="4.79346">
        <ele>482.4</ele>
        <time>2013-03-10T09:35:45.56Z</time>
      </trkpt>
      <trkpt lat="45.83272" lon="4.7935">
        <ele>482.3</ele>
        <time>2013-03-10T09:35:46.56Z</time>
      </trkpt>
      <trkpt lat="45.83274" lon="4.79353">
        <ele>482.3</ele>
        <time>2013-03-10T09:35:47.56Z</time>
      </trkpt>
      <trkpt lat="45.83276" lon="4.79357">
        <ele>482.1</ele>
        <time>2013-03-10T09:35:48.56Z</time>
      </trkpt>
      <trkpt lat="45.83278" lon="4.79362">
        <ele>482</ele>
        <time>2013-03-10T09:35:49.56Z</time>
      </trkpt>
      <trkpt lat="45.8328" lon="4.79366">
        <ele>482.1</ele>
        <time>2013-03-10T09:35:50.57Z</time>
      </trkpt>
      <trkpt lat="45.83282" lon="4.7937">
        <ele>482.1</ele>
        <time>2013-03-10T09:35:51.62Z</time>
      </trkpt>
      <trkpt lat="45.83285" lon="4.79379">
        <ele>482.1</ele>
        <time>2013-03-10T09:35:53.67Z</time>
      </trkpt>
      <trkpt lat="45.83289" lon="4.79385">
        <ele>482.1</ele>
        <time>2013-03-10T09:35:55.56Z</time>
      </trkpt>
      <trkpt lat="45.83292" lon="4.79386">
        <ele>482</ele>
        <time>2013-03-10T09:35:56.56Z</time>
      </trkpt>
      <trkpt lat="45.83295" lon="4.79388">
        <ele>482</ele>
        <time>2013-03-10T09:35:57.56Z</time>
      </trkpt>
      <trkpt lat="45.83298" lon="4.79389">
        <ele>482</ele>
        <time>2013-03-10T09:35:58.56Z</time>
      </trkpt>
      <trkpt lat="45.83301" lon="4.7939">
        <ele>481.8</ele>
        <time>2013-03-10T09:35:59.59Z</time>
      </trkpt>
      <trkpt lat="45.83305" lon="4.79392">
        <ele>492.5</ele>
        <time>2013-03-10T09:36:00.61Z</time>
      </trkpt>
      <trkpt lat="45.8331" lon="4.79394">
        <ele>481.3</ele>
        <time>2013-03-10T09:36:02.56Z</time>
      </trkpt>
      <trkpt lat="45.83314" lon="4.79396">
        <ele>481.2</ele>
        <time>2013-03-10T09:36:03.56Z</time>
      </trkpt>
      <trkpt lat="45.83317" lon="4.79397">
        <ele>481.1</ele>
        <time>2013-03-10T09:36:04.58Z</time>
      </trkpt>
      <trkpt lat="45.8332" lon="4.79398">
        <ele>481.1</ele>
        <time>2013-03-10T09:36:05.61Z</time>
      </trkpt>
      <trkpt lat="45.83327" lon="4.794">
        <ele>481</ele>
        <time>2013-03-10T09:36:07.56Z</time>
      </trkpt>
      <trkpt lat="45.8333" lon="4.79402">
        <ele>480.9</ele>
        <time>2013-03-10T09:36:08.56Z</time>
      </trkpt>
      <trkpt lat="45.83333" lon="4.79404">
        <ele>480.9</ele>
        <time>2013-03-10T09:36:09.56Z</time>
      </trkpt>
      <trkpt lat="45.83337" lon="4.79406">
        <ele>480.9</ele>
        <time>2013-03-10T09:36:10.56Z</time>
      </trkpt>
      <trkpt lat="45.83339" lon="4.7941">
        <ele>480.7</ele>
        <time>2013-03-10T09:36:11.56Z</time>
      </trkpt>
      <trkpt lat="45.83342" lon="4.79412">
        <ele>480.6</ele>
        <time>2013-03-10T09:36:12.56Z</time>
      </trkpt>
      <trkpt lat="45.83344" lon="4.79415">
        <ele>480.5</ele>
        <time>2013-03-10T09:36:13.68Z</time>
      </trkpt>
      <trkpt lat="45.8335" lon="4.79423">
        <ele>479.5</ele>
        <time>2013-03-10T09:36:15.56Z</time>
      </trkpt>
      <trkpt lat="45.83352" lon="4.79426">
        <ele>479</ele>
        <time>2013-03-10T09:36:16.57Z</time>
      </trkpt>
      <trkpt lat="45.83355" lon="4.7943">
        <ele>478.4</ele>
        <time>2013-03-10T09:36:17.69Z</time>
      </trkpt>
      <trkpt lat="45.8336" lon="4.79439">
        <ele>477</ele>
        <time>2013-03-10T09:36:19.62Z</time>
      </trkpt>
      <trkpt lat="45.83365" lon="4.79448">
        <ele>475.5</ele>
        <time>2013-03-10T09:36:21.63Z</time>
      </trkpt>
      <trkpt lat="45.83369" lon="4.79459">
        <ele>474.6</ele>
        <time>2013-03-10T09:36:23.56Z</time>
      </trkpt>
      <trkpt lat="45.8337" lon="4.79465">
        <ele>474.2</ele>
        <time>2013-03-10T09:36:24.59Z</time>
      </trkpt>
      <trkpt lat="45.8337" lon="4.7947">
        <ele>473.8</ele>
        <time>2013-03-10T09:36:25.63Z</time>
      </trkpt>
      <trkpt lat="45.8337" lon="4.79479">
        <ele>473.4</ele>
        <time>2013-03-10T09:36:27.56Z</time>
      </trkpt>
      <trkpt lat="45.8337" lon="4.79485">
        <ele>473.2</ele>
        <time>2013-03-10T09:36:28.56Z</time>
      </trkpt>
      <trkpt lat="45.83371" lon="4.7949">
        <ele>473</ele>
        <time>2013-03-10T09:36:29.56Z</time>
      </trkpt>
      <trkpt lat="45.83373" lon="4.79493">
        <ele>472.8</ele>
        <time>2013-03-10T09:36:30.56Z</time>
      </trkpt>
      <trkpt lat="45.83375" lon="4.79497">
        <ele>472.6</ele>
        <time>2013-03-10T09:36:31.56Z</time>
      </trkpt>
      <trkpt lat="45.83377" lon="4.79501">
        <ele>472.4</ele>
        <time>2013-03-10T09:36:32.56Z</time>
      </trkpt>
      <trkpt lat="45.8338" lon="4.79504">
        <ele>472.1</ele>
        <time>2013-03-10T09:36:33.57Z</time>
      </trkpt>
      <trkpt lat="45.83383" lon="4.79507">
        <ele>471.9</ele>
        <time>2013-03-10T09:36:34.56Z</time>
      </trkpt>
      <trkpt lat="45.83386" lon="4.7951">
        <ele>471.7</ele>
        <time>2013-03-10T09:36:35.59Z</time>
      </trkpt>
      <trkpt lat="45.83389" lon="4.79514">
        <ele>471.5</ele>
        <time>2013-03-10T09:36:36.63Z</time>
      </trkpt>
      <trkpt lat="45.83395" lon="4.79522">
        <ele>471.5</ele>
        <time>2013-03-10T09:36:38.56Z</time>
      </trkpt>
      <trkpt lat="45.83396" lon="4.79526">
        <ele>471.4</ele>
        <time>2013-03-10T09:36:39.59Z</time>
      </trkpt>
      <trkpt lat="45.83399" lon="4.79527">
        <ele>471.4</ele>
        <time>2013-03-10T09:36:40.71Z</time>
      </trkpt>
      <trkpt lat="45.83404" lon="4.79529">
        <ele>471.5</ele>
        <time>2013-03-10T09:36:42.56Z</time>
      </trkpt>
      <trkpt lat="45.83407" lon="4.79529">
        <ele>471.6</ele>
        <time>2013-03-10T09:36:43.56Z</time>
      </trkpt>
      <trkpt lat="45.8341" lon="4.79529">
        <ele>471.7</ele>
        <time>2013-03-10T09:36:44.59Z</time>
      </trkpt>
      <trkpt lat="45.83413" lon="4.79529">
        <ele>471.8</ele>
        <time>2013-03-10T09:36:45.59Z</time>
      </trkpt>
      <trkpt lat="45.83416" lon="4.79529">
        <ele>471.9</ele>
        <time>2013-03-10T09:36:46.62Z</time>
      </trkpt>
      <trkpt lat="45.83422" lon="4.79529">
        <ele>472.1</ele>
        <time>2013-03-10T09:36:48.56Z</time>
      </trkpt>
      <trkpt lat="45.83425" lon="4.79529">
        <ele>472.2</ele>
        <time>2013-03-10T09:36:49.56Z</time>
      </trkpt>
      <trkpt lat="45.83427" lon="4.79529">
        <ele>472.3</ele>
        <time>2013-03-10T09:36:50.57Z</time>
      </trkpt>
      <trkpt lat="45.8343" lon="4.79529">
        <ele>472.4</ele>
        <time>2013-03-10T09:36:51.59Z</time>
      </trkpt>
      <trkpt lat="45.83432" lon="4.79529">
        <ele>472.5</ele>
        <time>2013-03-10T09:36:52.59Z</time>
      </trkpt>
      <trkpt lat="45.83434" lon="4.7953">
        <ele>472.5</ele>
        <time>2013-03-10T09:36:53.68Z</time>
      </trkpt>
      <trkpt lat="45.8344" lon="4.79531">
        <ele>472.7</ele>
        <time>2013-03-10T09:36:55.56Z</time>
      </trkpt>
      <trkpt lat="45.83443" lon="4.79532">
        <ele>472.8</ele>
        <time>2013-03-10T09:36:56.56Z</time>
      </trkpt>
      <trkpt lat="45.83445" lon="4.79535">
        <ele>472.7</ele>
        <time>2013-03-10T09:36:57.56Z</time>
      </trkpt>
      <trkpt lat="45.83447" lon="4.79538">
        <ele>472.6</ele>
        <time>2013-03-10T09:36:58.64Z</time>
      </trkpt>
      <trkpt lat="45.83449" lon="4.79548">
        <ele>479.4</ele>
        <time>2013-03-10T09:37:00.58Z</time>
      </trkpt>
      <trkpt lat="45.83449" lon="4.79551">
        <ele>472.3</ele>
        <time>2013-03-10T09:37:01.58Z</time>
      </trkpt>
      <trkpt lat="45.83449" lon="4.79555">
        <ele>472.2</ele>
        <time>2013-03-10T09:37:02.71Z</time>
      </trkpt>
      <trkpt lat="45.83447" lon="4.79565">
        <ele>471.8</ele>
        <time>2013-03-10T09:37:04.58Z</time>
      </trkpt>
      <trkpt lat="45.83446" lon="4.79569">
        <ele>471.6</ele>
        <time>2013-03-10T09:37:05.62Z</time>
      </trkpt>
      <trkpt lat="45.83446" lon="4.79579">
        <ele>471.2</ele>
        <time>2013-03-10T09:37:07.56Z</time>
      </trkpt>
      <trkpt lat="45.83445" lon="4.79584">
        <ele>471</ele>
        <time>2013-03-10T09:37:08.68Z</time>
      </trkpt>
      <trkpt lat="45.83445" lon="4.79592">
        <ele>471</ele>
        <time>2013-03-10T09:37:10.56Z</time>
      </trkpt>
      <trkpt lat="45.83446" lon="4.79596">
        <ele>471</ele>
        <time>2013-03-10T09:37:11.62Z</time>
      </trkpt>
      <trkpt lat="45.8345" lon="4.796">
        <ele>471.1</ele>
        <time>2013-03-10T09:37:13.58Z</time>
      </trkpt>
      <trkpt lat="45.83452" lon="4.79601">
        <ele>471.1</ele>
        <time>2013-03-10T09:37:14.58Z</time>
      </trkpt>
      <trkpt lat="45.83455" lon="4.79601">
        <ele>471.1</ele>
        <time>2013-03-10T09:37:15.63Z</time>
      </trkpt>
      <trkpt lat="45.8346" lon="4.796">
        <ele>471.2</ele>
        <time>2013-03-10T09:37:17.58Z</time>
      </trkpt>
      <trkpt lat="45.83463" lon="4.796">
        <ele>471.3</ele>
        <time>2013-03-10T09:37:18.72Z</time>
      </trkpt>
      <trkpt lat="45.83469" lon="4.79603">
        <ele>471.3</ele>
        <time>2013-03-10T09:37:20.58Z</time>
      </trkpt>
      <trkpt lat="45.83472" lon="4.79605">
        <ele>471.2</ele>
        <time>2013-03-10T09:37:21.58Z</time>
      </trkpt>
      <trkpt lat="45.83475" lon="4.79609">
        <ele>471.2</ele>
        <time>2013-03-10T09:37:22.62Z</time>
      </trkpt>
      <trkpt lat="45.83479" lon="4.79617">
        <ele>471.2</ele>
        <time>2013-03-10T09:37:24.66Z</time>
      </trkpt>
      <trkpt lat="45.83482" lon="4.79627">
        <ele>471.1</ele>
        <time>2013-03-10T09:37:26.57Z</time>
      </trkpt>
      <trkpt lat="45.83483" lon="4.79632">
        <ele>471.1</ele>
        <time>2013-03-10T09:37:27.56Z</time>
      </trkpt>
      <trkpt lat="45.83483" lon="4.79636">
        <ele>471</ele>
        <time>2013-03-10T09:37:28.56Z</time>
      </trkpt>
      <trkpt lat="45.83484" lon="4.79641">
        <ele>471</ele>
        <time>2013-03-10T09:37:29.56Z</time>
      </trkpt>
      <trkpt lat="45.83484" lon="4.79644">
        <ele>470.9</ele>
        <time>2013-03-10T09:37:30.56Z</time>
      </trkpt>
      <trkpt lat="45.83484" lon="4.79649">
        <ele>470.8</ele>
        <time>2013-03-10T09:37:31.56Z</time>
      </trkpt>
      <trkpt lat="45.83484" lon="4.79653">
        <ele>470.7</ele>
        <time>2013-03-10T09:37:32.56Z</time>
      </trkpt>
      <trkpt lat="45.83485" lon="4.79657">
        <ele>470.6</ele>
        <time>2013-03-10T09:37:33.57Z</time>
      </trkpt>
      <trkpt lat="45.83485" lon="4.79662">
        <ele>470.5</ele>
        <time>2013-03-10T09:37:34.63Z</time>
      </trkpt>
      <trkpt lat="45.83486" lon="4.7967">
        <ele>470.8</ele>
        <time>2013-03-10T09:37:36.58Z</time>
      </trkpt>
      <trkpt lat="45.83487" lon="4.79675">
        <ele>471.1</ele>
        <time>2013-03-10T09:37:37.66Z</time>
      </trkpt>
      <trkpt lat="45.83487" lon="4.79683">
        <ele>471.7</ele>
        <time>2013-03-10T09:37:39.57Z</time>
      </trkpt>
      <trkpt lat="45.83486" lon="4.79687">
        <ele>471.9</ele>
        <time>2013-03-10T09:37:40.62Z</time>
      </trkpt>
      <trkpt lat="45.83484" lon="4.79695">
        <ele>472.5</ele>
        <time>2013-03-10T09:37:42.56Z</time>
      </trkpt>
      <trkpt lat="45.83483" lon="4.79699">
        <ele>472.8</ele>
        <time>2013-03-10T09:37:43.56Z</time>
      </trkpt>
      <trkpt lat="45.83483" lon="4.79703">
        <ele>473.3</ele>
        <time>2013-03-10T09:37:44.57Z</time>
      </trkpt>
      <trkpt lat="45.83483" lon="4.79706">
        <ele>473.6</ele>
        <time>2013-03-10T09:37:45.58Z</time>
      </trkpt>
      <trkpt lat="45.83483" lon="4.79709">
        <ele>474</ele>
        <time>2013-03-10T09:37:46.61Z</time>
      </trkpt>
      <trkpt lat="45.83482" lon="4.79716">
        <ele>474.7</ele>
        <time>2013-03-10T09:37:48.56Z</time>
      </trkpt>
      <trkpt lat="45.83483" lon="4.79719">
        <ele>475</ele>
        <time>2013-03-10T09:37:49.56Z</time>
      </trkpt>
      <trkpt lat="45.83484" lon="4.79721">
        <ele>475.3</ele>
        <time>2013-03-10T09:37:50.57Z</time>
      </trkpt>
      <trkpt lat="45.83485" lon="4.79724">
        <ele>475.6</ele>
        <time>2013-03-10T09:37:51.58Z</time>
      </trkpt>
      <trkpt lat="45.83487" lon="4.79729">
        <ele>476.2</ele>
        <time>2013-03-10T09:37:53.64Z</time>
      </trkpt>
      <trkpt lat="45.83489" lon="4.79734">
        <ele>476.9</ele>
        <time>2013-03-10T09:37:55.56Z</time>
      </trkpt>
      <trkpt lat="45.83489" lon="4.79737">
        <ele>477.2</ele>
        <time>2013-03-10T09:37:56.56Z</time>
      </trkpt>
      <trkpt lat="45.83489" lon="4.7974">
        <ele>477.5</ele>
        <time>2013-03-10T09:37:57.57Z</time>
      </trkpt>
      <trkpt lat="45.83489" lon="4.79742">
        <ele>477.8</ele>
        <time>2013-03-10T09:37:58.65Z</time>
      </trkpt>
      <trkpt lat="45.8349" lon="4.79748">
        <ele>478.5</ele>
        <time>2013-03-10T09:38:00.63Z</time>
      </trkpt>
      <trkpt lat="45.83492" lon="4.7975">
        <ele>478.7</ele>
        <time>2013-03-10T09:38:02.56Z</time>
      </trkpt>
      <trkpt lat="45.83493" lon="4.79751">
        <ele>478.8</ele>
        <time>2013-03-10T09:38:03.65Z</time>
      </trkpt>
      <trkpt lat="45.83494" lon="4.79753">
        <ele>479.2</ele>
        <time>2013-03-10T09:38:05.57Z</time>
      </trkpt>
      <trkpt lat="45.83494" lon="4.79754">
        <ele>479.4</ele>
        <time>2013-03-10T09:38:06.57Z</time>
      </trkpt>
      <trkpt lat="45.83494" lon="4.79756">
        <ele>479.7</ele>
        <time>2013-03-10T09:38:07.71Z</time>
      </trkpt>
      <trkpt lat="45.83492" lon="4.79762">
        <ele>480.5</ele>
        <time>2013-03-10T09:38:09.58Z</time>
      </trkpt>
      <trkpt lat="45.8349" lon="4.79765">
        <ele>481</ele>
        <time>2013-03-10T09:38:10.57Z</time>
      </trkpt>
      <trkpt lat="45.8349" lon="4.79768">
        <ele>481.5</ele>
        <time>2013-03-10T09:38:11.63Z</time>
      </trkpt>
      <trkpt lat="45.8349" lon="4.79771">
        <ele>481.9</ele>
        <time>2013-03-10T09:38:13.66Z</time>
      </trkpt>
      <trkpt lat="45.83489" lon="4.79774">
        <ele>482.3</ele>
        <time>2013-03-10T09:38:15.56Z</time>
      </trkpt>
      <trkpt lat="45.83489" lon="4.79775">
        <ele>482.6</ele>
        <time>2013-03-10T09:38:16.57Z</time>
      </trkpt>
      <trkpt lat="45.83489" lon="4.79777">
        <ele>482.9</ele>
        <time>2013-03-10T09:38:17.69Z</time>
      </trkpt>
      <trkpt lat="45.83489" lon="4.7978">
        <ele>483.3</ele>
        <time>2013-03-10T09:38:19.56Z</time>
      </trkpt>
      <trkpt lat="45.83488" lon="4.79781">
        <ele>483.5</ele>
        <time>2013-03-10T09:38:20.56Z</time>
      </trkpt>
      <trkpt lat="45.83487" lon="4.79783">
        <ele>483.9</ele>
        <time>2013-03-10T09:38:21.56Z</time>
      </trkpt>
      <trkpt lat="45.83486" lon="4.79786">
        <ele>484.4</ele>
        <time>2013-03-10T09:38:22.66Z</time>
      </trkpt>
      <trkpt lat="45.83483" lon="4.79791">
        <ele>485.1</ele>
        <time>2013-03-10T09:38:24.56Z</time>
      </trkpt>
      <trkpt lat="45.83482" lon="4.79794">
        <ele>485.5</ele>
        <time>2013-03-10T09:38:25.66Z</time>
      </trkpt>
      <trkpt lat="45.83479" lon="4.79799">
        <ele>486.2</ele>
        <time>2013-03-10T09:38:27.66Z</time>
      </trkpt>
      <trkpt lat="45.83478" lon="4.79802">
        <ele>486.7</ele>
        <time>2013-03-10T09:38:29.66Z</time>
      </trkpt>
      <trkpt lat="45.83476" lon="4.79805">
        <ele>487</ele>
        <time>2013-03-10T09:38:31.64Z</time>
      </trkpt>
      <trkpt lat="45.83475" lon="4.79807">
        <ele>487.3</ele>
        <time>2013-03-10T09:38:32.56Z</time>
      </trkpt>
      <trkpt lat="45.83474" lon="4.7981">
        <ele>487.7</ele>
        <time>2013-03-10T09:38:33.73Z</time>
      </trkpt>
      <trkpt lat="45.83474" lon="4.79816">
        <ele>488.5</ele>
        <time>2013-03-10T09:38:35.66Z</time>
      </trkpt>
      <trkpt lat="45.83474" lon="4.79818">
        <ele>488.9</ele>
        <time>2013-03-10T09:38:37.66Z</time>
      </trkpt>
      <trkpt lat="45.83474" lon="4.79822">
        <ele>489.5</ele>
        <time>2013-03-10T09:38:39.66Z</time>
      </trkpt>
      <trkpt lat="45.83473" lon="4.79825">
        <ele>489.8</ele>
        <time>2013-03-10T09:38:40.56Z</time>
      </trkpt>
      <trkpt lat="45.83473" lon="4.79826">
        <ele>490</ele>
        <time>2013-03-10T09:38:41.66Z</time>
      </trkpt>
      <trkpt lat="45.83474" lon="4.79829">
        <ele>490.4</ele>
        <time>2013-03-10T09:38:43.68Z</time>
      </trkpt>
      <trkpt lat="45.83474" lon="4.79832">
        <ele>491</ele>
        <time>2013-03-10T09:38:45.56Z</time>
      </trkpt>
      <trkpt lat="45.83473" lon="4.79836">
        <ele>491.5</ele>
        <time>2013-03-10T09:38:46.66Z</time>
      </trkpt>
      <trkpt lat="45.83472" lon="4.79838">
        <ele>491.9</ele>
        <time>2013-03-10T09:38:47.56Z</time>
      </trkpt>
      <trkpt lat="45.83471" lon="4.79841">
        <ele>492.2</ele>
        <time>2013-03-10T09:38:48.69Z</time>
      </trkpt>
      <trkpt lat="45.83471" lon="4.79843">
        <ele>492.6</ele>
        <time>2013-03-10T09:38:50.57Z</time>
      </trkpt>
      <trkpt lat="45.8347" lon="4.79848">
        <ele>493.5</ele>
        <time>2013-03-10T09:38:52.66Z</time>
      </trkpt>
      <trkpt lat="45.83469" lon="4.79852">
        <ele>494</ele>
        <time>2013-03-10T09:38:53.56Z</time>
      </trkpt>
      <trkpt lat="45.83469" lon="4.79854">
        <ele>494.4</ele>
        <time>2013-03-10T09:38:54.66Z</time>
      </trkpt>
      <trkpt lat="45.83469" lon="4.79855">
        <ele>494.7</ele>
        <time>2013-03-10T09:38:56.66Z</time>
      </trkpt>
      <trkpt lat="45.83469" lon="4.79857">
        <ele>495.1</ele>
        <time>2013-03-10T09:38:57.56Z</time>
      </trkpt>
      <trkpt lat="45.83469" lon="4.79859">
        <ele>495.5</ele>
        <time>2013-03-10T09:38:58.73Z</time>
      </trkpt>
      <trkpt lat="45.83471" lon="4.79863">
        <ele>493</ele>
        <time>2013-03-10T09:39:00.56Z</time>
      </trkpt>
      <trkpt lat="45.83472" lon="4.79864">
        <ele>496.4</ele>
        <time>2013-03-10T09:39:01.65Z</time>
      </trkpt>
      <trkpt lat="45.83473" lon="4.79865">
        <ele>496.7</ele>
        <time>2013-03-10T09:39:02.56Z</time>
      </trkpt>
      <trkpt lat="45.83472" lon="4.79868">
        <ele>497.2</ele>
        <time>2013-03-10T09:39:03.74Z</time>
      </trkpt>
      <trkpt lat="45.8347" lon="4.79874">
        <ele>498.1</ele>
        <time>2013-03-10T09:39:05.56Z</time>
      </trkpt>
      <trkpt lat="45.8347" lon="4.79877">
        <ele>498.6</ele>
        <time>2013-03-10T09:39:06.65Z</time>
      </trkpt>
      <trkpt lat="45.8347" lon="4.79879">
        <ele>499</ele>
        <time>2013-03-10T09:39:07.56Z</time>
      </trkpt>
      <trkpt lat="45.8347" lon="4.79881">
        <ele>499.3</ele>
        <time>2013-03-10T09:39:10.63Z</time>
      </trkpt>
      <trkpt lat="45.83466" lon="4.79886">
        <ele>500.1</ele>
        <time>2013-03-10T09:39:12.65Z</time>
      </trkpt>
      <trkpt lat="45.83465" lon="4.79889">
        <ele>500.4</ele>
        <time>2013-03-10T09:39:13.56Z</time>
      </trkpt>
      <trkpt lat="45.83464" lon="4.7989">
        <ele>500.5</ele>
        <time>2013-03-10T09:39:14.65Z</time>
      </trkpt>
      <trkpt lat="45.83463" lon="4.79891">
        <ele>500.6</ele>
        <time>2013-03-10T09:39:15.56Z</time>
      </trkpt>
      <trkpt lat="45.83462" lon="4.79892">
        <ele>500.8</ele>
        <time>2013-03-10T09:39:16.61Z</time>
      </trkpt>
      <trkpt lat="45.83461" lon="4.79895">
        <ele>501</ele>
        <time>2013-03-10T09:39:18.67Z</time>
      </trkpt>
      <trkpt lat="45.83458" lon="4.799">
        <ele>501.5</ele>
        <time>2013-03-10T09:39:20.65Z</time>
      </trkpt>
      <trkpt lat="45.83456" lon="4.79902">
        <ele>501.7</ele>
        <time>2013-03-10T09:39:21.56Z</time>
      </trkpt>
      <trkpt lat="45.83454" lon="4.79905">
        <ele>502</ele>
        <time>2013-03-10T09:39:22.65Z</time>
      </trkpt>
      <trkpt lat="45.83453" lon="4.79908">
        <ele>502.3</ele>
        <time>2013-03-10T09:39:23.57Z</time>
      </trkpt>
      <trkpt lat="45.83451" lon="4.7991">
        <ele>502.5</ele>
        <time>2013-03-10T09:39:24.64Z</time>
      </trkpt>
      <trkpt lat="45.83448" lon="4.79915">
        <ele>503</ele>
        <time>2013-03-10T09:39:26.65Z</time>
      </trkpt>
      <trkpt lat="45.83446" lon="4.79917">
        <ele>503.1</ele>
        <time>2013-03-10T09:39:27.56Z</time>
      </trkpt>
      <trkpt lat="45.83443" lon="4.79919">
        <ele>503.1</ele>
        <time>2013-03-10T09:39:28.66Z</time>
      </trkpt>
      <trkpt lat="45.83438" lon="4.79922">
        <ele>503</ele>
        <time>2013-03-10T09:39:30.65Z</time>
      </trkpt>
      <trkpt lat="45.83432" lon="4.79925">
        <ele>502.9</ele>
        <time>2013-03-10T09:39:32.56Z</time>
      </trkpt>
      <trkpt lat="45.83429" lon="4.79927">
        <ele>502.8</ele>
        <time>2013-03-10T09:39:33.73Z</time>
      </trkpt>
      <trkpt lat="45.83424" lon="4.7993">
        <ele>502.6</ele>
        <time>2013-03-10T09:39:35.65Z</time>
      </trkpt>
      <trkpt lat="45.83421" lon="4.79931">
        <ele>502.4</ele>
        <time>2013-03-10T09:39:36.57Z</time>
      </trkpt>
      <trkpt lat="45.83418" lon="4.79933">
        <ele>502.3</ele>
        <time>2013-03-10T09:39:37.65Z</time>
      </trkpt>
      <trkpt lat="45.83415" lon="4.79934">
        <ele>502.1</ele>
        <time>2013-03-10T09:39:38.56Z</time>
      </trkpt>
      <trkpt lat="45.83412" lon="4.79935">
        <ele>501.9</ele>
        <time>2013-03-10T09:39:39.65Z</time>
      </trkpt>
      <trkpt lat="45.83406" lon="4.79938">
        <ele>501.7</ele>
        <time>2013-03-10T09:39:41.7Z</time>
      </trkpt>
      <trkpt lat="45.83401" lon="4.79941">
        <ele>501.5</ele>
        <time>2013-03-10T09:39:43.56Z</time>
      </trkpt>
      <trkpt lat="45.83398" lon="4.79942">
        <ele>501.4</ele>
        <time>2013-03-10T09:39:44.64Z</time>
      </trkpt>
      <trkpt lat="45.83392" lon="4.79945">
        <ele>501.3</ele>
        <time>2013-03-10T09:39:46.7Z</time>
      </trkpt>
      <trkpt lat="45.83387" lon="4.79947">
        <ele>501</ele>
        <time>2013-03-10T09:39:48.56Z</time>
      </trkpt>
      <trkpt lat="45.83384" lon="4.79949">
        <ele>501</ele>
        <time>2013-03-10T09:39:49.64Z</time>
      </trkpt>
      <trkpt lat="45.83381" lon="4.79952">
        <ele>501</ele>
        <time>2013-03-10T09:39:51.64Z</time>
      </trkpt>
      <trkpt lat="45.8338" lon="4.79953">
        <ele>501</ele>
        <time>2013-03-10T09:39:52.56Z</time>
      </trkpt>
      <trkpt lat="45.83379" lon="4.79953">
        <ele>501</ele>
        <time>2013-03-10T09:39:56.56Z</time>
      </trkpt>
      <trkpt lat="45.83378" lon="4.79954">
        <ele>501</ele>
        <time>2013-03-10T09:39:59.61Z</time>
      </trkpt>
      <trkpt lat="45.83377" lon="4.79955">
        <ele>503.4</ele>
        <time>2013-03-10T09:40:00.56Z</time>
      </trkpt>
      <trkpt lat="45.83376" lon="4.79955">
        <ele>500.9</ele>
        <time>2013-03-10T09:40:07.64Z</time>
      </trkpt>
      <trkpt lat="45.83376" lon="4.79957">
        <ele>501</ele>
        <time>2013-03-10T09:40:12.56Z</time>
      </trkpt>
      <trkpt lat="45.83377" lon="4.79958">
        <ele>501</ele>
        <time>2013-03-10T09:40:15.64Z</time>
      </trkpt>
      <trkpt lat="45.83378" lon="4.79959">
        <ele>501.1</ele>
        <time>2013-03-10T09:40:16.57Z</time>
      </trkpt>
      <trkpt lat="45.83379" lon="4.7996">
        <ele>501.2</ele>
        <time>2013-03-10T09:40:17.64Z</time>
      </trkpt>
      <trkpt lat="45.83381" lon="4.7996">
        <ele>501.3</ele>
        <time>2013-03-10T09:40:18.56Z</time>
      </trkpt>
      <trkpt lat="45.83383" lon="4.7996">
        <ele>501.3</ele>
        <time>2013-03-10T09:40:19.64Z</time>
      </trkpt>
      <trkpt lat="45.83389" lon="4.79958">
        <ele>501.5</ele>
        <time>2013-03-10T09:40:21.63Z</time>
      </trkpt>
      <trkpt lat="45.83395" lon="4.79956">
        <ele>501.8</ele>
        <time>2013-03-10T09:40:23.56Z</time>
      </trkpt>
      <trkpt lat="45.83397" lon="4.79955">
        <ele>501.9</ele>
        <time>2013-03-10T09:40:24.63Z</time>
      </trkpt>
      <trkpt lat="45.83399" lon="4.79954">
        <ele>501.9</ele>
        <time>2013-03-10T09:40:25.56Z</time>
      </trkpt>
      <trkpt lat="45.83402" lon="4.79953">
        <ele>502.1</ele>
        <time>2013-03-10T09:40:26.63Z</time>
      </trkpt>
      <trkpt lat="45.83404" lon="4.79952">
        <ele>502.2</ele>
        <time>2013-03-10T09:40:27.56Z</time>
      </trkpt>
      <trkpt lat="45.83407" lon="4.79952">
        <ele>502.4</ele>
        <time>2013-03-10T09:40:28.78Z</time>
      </trkpt>
      <trkpt lat="45.83413" lon="4.7995">
        <ele>502.8</ele>
        <time>2013-03-10T09:40:30.63Z</time>
      </trkpt>
      <trkpt lat="45.83419" lon="4.79948">
        <ele>503.2</ele>
        <time>2013-03-10T09:40:32.63Z</time>
      </trkpt>
      <trkpt lat="45.83422" lon="4.79947">
        <ele>503.5</ele>
        <time>2013-03-10T09:40:33.7Z</time>
      </trkpt>
      <trkpt lat="45.83427" lon="4.79946">
        <ele>504.1</ele>
        <time>2013-03-10T09:40:35.63Z</time>
      </trkpt>
      <trkpt lat="45.8343" lon="4.79945">
        <ele>504.4</ele>
        <time>2013-03-10T09:40:36.56Z</time>
      </trkpt>
      <trkpt lat="45.83433" lon="4.79944">
        <ele>504.7</ele>
        <time>2013-03-10T09:40:37.7Z</time>
      </trkpt>
      <trkpt lat="45.83438" lon="4.79943">
        <ele>505.2</ele>
        <time>2013-03-10T09:40:39.57Z</time>
      </trkpt>
      <trkpt lat="45.83441" lon="4.79942">
        <ele>505.4</ele>
        <time>2013-03-10T09:40:40.63Z</time>
      </trkpt>
      <trkpt lat="45.83446" lon="4.7994">
        <ele>505.7</ele>
        <time>2013-03-10T09:40:42.63Z</time>
      </trkpt>
      <trkpt lat="45.83452" lon="4.79938">
        <ele>505.9</ele>
        <time>2013-03-10T09:40:44.43Z</time>
      </trkpt>
      <trkpt lat="45.83457" lon="4.79936">
        <ele>506</ele>
        <time>2013-03-10T09:40:46.43Z</time>
      </trkpt>
      <trkpt lat="45.83461" lon="4.79935">
        <ele>506.2</ele>
        <time>2013-03-10T09:40:47.43Z</time>
      </trkpt>
      <trkpt lat="45.83464" lon="4.79933">
        <ele>506.2</ele>
        <time>2013-03-10T09:40:48.43Z</time>
      </trkpt>
      <trkpt lat="45.83467" lon="4.79932">
        <ele>506.3</ele>
        <time>2013-03-10T09:40:49.56Z</time>
      </trkpt>
      <trkpt lat="45.8347" lon="4.79931">
        <ele>506.4</ele>
        <time>2013-03-10T09:40:50.57Z</time>
      </trkpt>
      <trkpt lat="45.83473" lon="4.7993">
        <ele>506.5</ele>
        <time>2013-03-10T09:40:51.56Z</time>
      </trkpt>
      <trkpt lat="45.83475" lon="4.79929">
        <ele>506.6</ele>
        <time>2013-03-10T09:40:52.56Z</time>
      </trkpt>
      <trkpt lat="45.83478" lon="4.79928">
        <ele>506.6</ele>
        <time>2013-03-10T09:40:53.56Z</time>
      </trkpt>
      <trkpt lat="45.83483" lon="4.79926">
        <ele>506.9</ele>
        <time>2013-03-10T09:40:55.43Z</time>
      </trkpt>
      <trkpt lat="45.83487" lon="4.79923">
        <ele>507</ele>
        <time>2013-03-10T09:40:57.43Z</time>
      </trkpt>
      <trkpt lat="45.83489" lon="4.79922">
        <ele>507.2</ele>
        <time>2013-03-10T09:40:58.76Z</time>
      </trkpt>
      <trkpt lat="45.83493" lon="4.79919">
        <ele>513.7</ele>
        <time>2013-03-10T09:41:00.63Z</time>
      </trkpt>
      <trkpt lat="45.83498" lon="4.79916">
        <ele>507.7</ele>
        <time>2013-03-10T09:41:02.63Z</time>
      </trkpt>
      <trkpt lat="45.83501" lon="4.79915">
        <ele>507.7</ele>
        <time>2013-03-10T09:41:03.75Z</time>
      </trkpt>
      <trkpt lat="45.83506" lon="4.79913">
        <ele>507.5</ele>
        <time>2013-03-10T09:41:05.62Z</time>
      </trkpt>
      <trkpt lat="45.83508" lon="4.79912">
        <ele>507.5</ele>
        <time>2013-03-10T09:41:06.62Z</time>
      </trkpt>
      <trkpt lat="45.83513" lon="4.79911">
        <ele>507.5</ele>
        <time>2013-03-10T09:41:08.73Z</time>
      </trkpt>
      <trkpt lat="45.83518" lon="4.79911">
        <ele>507.6</ele>
        <time>2013-03-10T09:41:10.56Z</time>
      </trkpt>
      <trkpt lat="45.83521" lon="4.79911">
        <ele>507.7</ele>
        <time>2013-03-10T09:41:11.56Z</time>
      </trkpt>
      <trkpt lat="45.83523" lon="4.79911">
        <ele>507.7</ele>
        <time>2013-03-10T09:41:12.56Z</time>
      </trkpt>
      <trkpt lat="45.83525" lon="4.7991">
        <ele>507.8</ele>
        <time>2013-03-10T09:41:13.56Z</time>
      </trkpt>
      <trkpt lat="45.83527" lon="4.7991">
        <ele>507.7</ele>
        <time>2013-03-10T09:41:14.56Z</time>
      </trkpt>
      <trkpt lat="45.8353" lon="4.79909">
        <ele>507.8</ele>
        <time>2013-03-10T09:41:15.63Z</time>
      </trkpt>
      <trkpt lat="45.83535" lon="4.79909">
        <ele>508.1</ele>
        <time>2013-03-10T09:41:17.62Z</time>
      </trkpt>
      <trkpt lat="45.83537" lon="4.79909">
        <ele>508.2</ele>
        <time>2013-03-10T09:41:18.68Z</time>
      </trkpt>
      <trkpt lat="45.83543" lon="4.79909">
        <ele>508.5</ele>
        <time>2013-03-10T09:41:20.62Z</time>
      </trkpt>
      <trkpt lat="45.83545" lon="4.79909">
        <ele>508.6</ele>
        <time>2013-03-10T09:41:21.62Z</time>
      </trkpt>
      <trkpt lat="45.83552" lon="4.79908">
        <ele>508.9</ele>
        <time>2013-03-10T09:41:23.66Z</time>
      </trkpt>
      <trkpt lat="45.83558" lon="4.79906">
        <ele>508.9</ele>
        <time>2013-03-10T09:41:25.62Z</time>
      </trkpt>
      <trkpt lat="45.83562" lon="4.79906">
        <ele>509</ele>
        <time>2013-03-10T09:41:26.63Z</time>
      </trkpt>
      <trkpt lat="45.83569" lon="4.79907">
        <ele>509.5</ele>
        <time>2013-03-10T09:41:28.78Z</time>
      </trkpt>
      <trkpt lat="45.83574" lon="4.79907">
        <ele>509.8</ele>
        <time>2013-03-10T09:41:30.62Z</time>
      </trkpt>
      <trkpt lat="45.83576" lon="4.79908">
        <ele>510.1</ele>
        <time>2013-03-10T09:41:31.62Z</time>
      </trkpt>
      <trkpt lat="45.83581" lon="4.79908">
        <ele>510.3</ele>
        <time>2013-03-10T09:41:33.78Z</time>
      </trkpt>
      <trkpt lat="45.83586" lon="4.79908">
        <ele>510.6</ele>
        <time>2013-03-10T09:41:35.56Z</time>
      </trkpt>
      <trkpt lat="45.83588" lon="4.79907">
        <ele>510.6</ele>
        <time>2013-03-10T09:41:36.56Z</time>
      </trkpt>
      <trkpt lat="45.83591" lon="4.79907">
        <ele>510.8</ele>
        <time>2013-03-10T09:41:37.56Z</time>
      </trkpt>
      <trkpt lat="45.83595" lon="4.79907">
        <ele>511</ele>
        <time>2013-03-10T09:41:38.56Z</time>
      </trkpt>
      <trkpt lat="45.83598" lon="4.79907">
        <ele>511.3</ele>
        <time>2013-03-10T09:41:39.56Z</time>
      </trkpt>
      <trkpt lat="45.83601" lon="4.79907">
        <ele>511.5</ele>
        <time>2013-03-10T09:41:40.56Z</time>
      </trkpt>
      <trkpt lat="45.83604" lon="4.79907">
        <ele>511.8</ele>
        <time>2013-03-10T09:41:41.57Z</time>
      </trkpt>
      <trkpt lat="45.83607" lon="4.79908">
        <ele>512.1</ele>
        <time>2013-03-10T09:41:42.56Z</time>
      </trkpt>
      <trkpt lat="45.8361" lon="4.79908">
        <ele>512.3</ele>
        <time>2013-03-10T09:41:43.56Z</time>
      </trkpt>
      <trkpt lat="45.83613" lon="4.79908">
        <ele>512.5</ele>
        <time>2013-03-10T09:41:44.56Z</time>
      </trkpt>
      <trkpt lat="45.83615" lon="4.79908">
        <ele>512.7</ele>
        <time>2013-03-10T09:41:45.56Z</time>
      </trkpt>
      <trkpt lat="45.83618" lon="4.79908">
        <ele>512.9</ele>
        <time>2013-03-10T09:41:46.56Z</time>
      </trkpt>
      <trkpt lat="45.8362" lon="4.79908">
        <ele>513</ele>
        <time>2013-03-10T09:41:47.56Z</time>
      </trkpt>
      <trkpt lat="45.83623" lon="4.79907">
        <ele>513.1</ele>
        <time>2013-03-10T09:41:48.56Z</time>
      </trkpt>
      <trkpt lat="45.83625" lon="4.79907">
        <ele>513.3</ele>
        <time>2013-03-10T09:41:49.56Z</time>
      </trkpt>
      <trkpt lat="45.83628" lon="4.79907">
        <ele>513.5</ele>
        <time>2013-03-10T09:41:50.57Z</time>
      </trkpt>
      <trkpt lat="45.8363" lon="4.79907">
        <ele>513.5</ele>
        <time>2013-03-10T09:41:51.61Z</time>
      </trkpt>
      <trkpt lat="45.83632" lon="4.79907">
        <ele>513.7</ele>
        <time>2013-03-10T09:41:52.61Z</time>
      </trkpt>
      <trkpt lat="45.83634" lon="4.79907">
        <ele>513.8</ele>
        <time>2013-03-10T09:41:53.66Z</time>
      </trkpt>
      <trkpt lat="45.8364" lon="4.79906">
        <ele>514.1</ele>
        <time>2013-03-10T09:41:55.56Z</time>
      </trkpt>
      <trkpt lat="45.83643" lon="4.79905">
        <ele>514.1</ele>
        <time>2013-03-10T09:41:56.56Z</time>
      </trkpt>
      <trkpt lat="45.83646" lon="4.79905">
        <ele>514.2</ele>
        <time>2013-03-10T09:41:57.56Z</time>
      </trkpt>
      <trkpt lat="45.83649" lon="4.79904">
        <ele>514.2</ele>
        <time>2013-03-10T09:41:58.66Z</time>
      </trkpt>
      <trkpt lat="45.83651" lon="4.79904">
        <ele>514.3</ele>
        <time>2013-03-10T09:41:59.65Z</time>
      </trkpt>
      <trkpt lat="45.83655" lon="4.79903">
        <ele>524.9</ele>
        <time>2013-03-10T09:42:01.56Z</time>
      </trkpt>
      <trkpt lat="45.83658" lon="4.79904">
        <ele>514.7</ele>
        <time>2013-03-10T09:42:02.56Z</time>
      </trkpt>
      <trkpt lat="45.8366" lon="4.79904">
        <ele>514.9</ele>
        <time>2013-03-10T09:42:03.56Z</time>
      </trkpt>
      <trkpt lat="45.83663" lon="4.79904">
        <ele>515</ele>
        <time>2013-03-10T09:42:04.56Z</time>
      </trkpt>
      <trkpt lat="45.83665" lon="4.79904">
        <ele>515.1</ele>
        <time>2013-03-10T09:42:05.56Z</time>
      </trkpt>
      <trkpt lat="45.83667" lon="4.79904">
        <ele>515.2</ele>
        <time>2013-03-10T09:42:06.56Z</time>
      </trkpt>
      <trkpt lat="45.83669" lon="4.79904">
        <ele>515.3</ele>
        <time>2013-03-10T09:42:07.56Z</time>
      </trkpt>
      <trkpt lat="45.83672" lon="4.79904">
        <ele>515.5</ele>
        <time>2013-03-10T09:42:08.56Z</time>
      </trkpt>
      <trkpt lat="45.83675" lon="4.79904">
        <ele>515.6</ele>
        <time>2013-03-10T09:42:09.62Z</time>
      </trkpt>
      <trkpt lat="45.83681" lon="4.79903">
        <ele>515.7</ele>
        <time>2013-03-10T09:42:11.61Z</time>
      </trkpt>
      <trkpt lat="45.83684" lon="4.79902">
        <ele>515.9</ele>
        <time>2013-03-10T09:42:12.62Z</time>
      </trkpt>
      <trkpt lat="45.83687" lon="4.79902">
        <ele>516</ele>
        <time>2013-03-10T09:42:13.73Z</time>
      </trkpt>
      <trkpt lat="45.83692" lon="4.79903">
        <ele>516.3</ele>
        <time>2013-03-10T09:42:15.61Z</time>
      </trkpt>
      <trkpt lat="45.83694" lon="4.79903">
        <ele>516.5</ele>
        <time>2013-03-10T09:42:16.66Z</time>
      </trkpt>
      <trkpt lat="45.83699" lon="4.79903">
        <ele>516.7</ele>
        <time>2013-03-10T09:42:18.56Z</time>
      </trkpt>
      <trkpt lat="45.83702" lon="4.79903">
        <ele>516.9</ele>
        <time>2013-03-10T09:42:19.61Z</time>
      </trkpt>
      <trkpt lat="45.83704" lon="4.79903">
        <ele>517.1</ele>
        <time>2013-03-10T09:42:20.63Z</time>
      </trkpt>
      <trkpt lat="45.83708" lon="4.79904">
        <ele>517.4</ele>
        <time>2013-03-10T09:42:22.61Z</time>
      </trkpt>
      <trkpt lat="45.83711" lon="4.79904">
        <ele>517.5</ele>
        <time>2013-03-10T09:42:23.73Z</time>
      </trkpt>
      <trkpt lat="45.83716" lon="4.79904">
        <ele>517.8</ele>
        <time>2013-03-10T09:42:25.6Z</time>
      </trkpt>
      <trkpt lat="45.8372" lon="4.79904">
        <ele>518</ele>
        <time>2013-03-10T09:42:26.6Z</time>
      </trkpt>
      <trkpt lat="45.83722" lon="4.79904">
        <ele>518.1</ele>
        <time>2013-03-10T09:42:27.63Z</time>
      </trkpt>
      <trkpt lat="45.83727" lon="4.79902">
        <ele>518.3</ele>
        <time>2013-03-10T09:42:29.6Z</time>
      </trkpt>
      <trkpt lat="45.8373" lon="4.79902">
        <ele>518.5</ele>
        <time>2013-03-10T09:42:30.6Z</time>
      </trkpt>
      <trkpt lat="45.83732" lon="4.79902">
        <ele>518.6</ele>
        <time>2013-03-10T09:42:31.63Z</time>
      </trkpt>
      <trkpt lat="45.83739" lon="4.79901">
        <ele>518.9</ele>
        <time>2013-03-10T09:42:33.57Z</time>
      </trkpt>
      <trkpt lat="45.83745" lon="4.799">
        <ele>519.2</ele>
        <time>2013-03-10T09:42:35.56Z</time>
      </trkpt>
      <trkpt lat="45.83749" lon="4.799">
        <ele>519.5</ele>
        <time>2013-03-10T09:42:36.56Z</time>
      </trkpt>
      <trkpt lat="45.83754" lon="4.79899">
        <ele>520.1</ele>
        <time>2013-03-10T09:42:37.56Z</time>
      </trkpt>
      <trkpt lat="45.83758" lon="4.79899">
        <ele>520.6</ele>
        <time>2013-03-10T09:42:38.56Z</time>
      </trkpt>
      <trkpt lat="45.83761" lon="4.79898">
        <ele>521.1</ele>
        <time>2013-03-10T09:42:39.56Z</time>
      </trkpt>
      <trkpt lat="45.83765" lon="4.79898">
        <ele>521.7</ele>
        <time>2013-03-10T09:42:40.56Z</time>
      </trkpt>
      <trkpt lat="45.83769" lon="4.79899">
        <ele>522.2</ele>
        <time>2013-03-10T09:42:41.6Z</time>
      </trkpt>
      <trkpt lat="45.83772" lon="4.79899">
        <ele>522.8</ele>
        <time>2013-03-10T09:42:42.6Z</time>
      </trkpt>
      <trkpt lat="45.83775" lon="4.79899">
        <ele>523.2</ele>
        <time>2013-03-10T09:42:43.68Z</time>
      </trkpt>
      <trkpt lat="45.83781" lon="4.79901">
        <ele>523.8</ele>
        <time>2013-03-10T09:42:45.56Z</time>
      </trkpt>
      <trkpt lat="45.83782" lon="4.79902">
        <ele>524</ele>
        <time>2013-03-10T09:42:46.56Z</time>
      </trkpt>
      <trkpt lat="45.83785" lon="4.79902">
        <ele>524.1</ele>
        <time>2013-03-10T09:42:47.61Z</time>
      </trkpt>
      <trkpt lat="45.83788" lon="4.79902">
        <ele>524.5</ele>
        <time>2013-03-10T09:42:49.56Z</time>
      </trkpt>
      <trkpt lat="45.8379" lon="4.79901">
        <ele>524.6</ele>
        <time>2013-03-10T09:42:50.57Z</time>
      </trkpt>
      <trkpt lat="45.83791" lon="4.79901">
        <ele>524.8</ele>
        <time>2013-03-10T09:42:51.6Z</time>
      </trkpt>
      <trkpt lat="45.83793" lon="4.799">
        <ele>525</ele>
        <time>2013-03-10T09:42:52.6Z</time>
      </trkpt>
      <trkpt lat="45.83795" lon="4.799">
        <ele>525.2</ele>
        <time>2013-03-10T09:42:53.67Z</time>
      </trkpt>
      <trkpt lat="45.838" lon="4.79899">
        <ele>525.7</ele>
        <time>2013-03-10T09:42:55.56Z</time>
      </trkpt>
      <trkpt lat="45.83802" lon="4.79899">
        <ele>525.9</ele>
        <time>2013-03-10T09:42:56.56Z</time>
      </trkpt>
      <trkpt lat="45.83804" lon="4.79899">
        <ele>526.2</ele>
        <time>2013-03-10T09:42:57.56Z</time>
      </trkpt>
      <trkpt lat="45.83806" lon="4.79898">
        <ele>526.4</ele>
        <time>2013-03-10T09:42:58.66Z</time>
      </trkpt>
      <trkpt lat="45.83809" lon="4.79896">
        <ele>534</ele>
        <time>2013-03-10T09:43:00.61Z</time>
      </trkpt>
      <trkpt lat="45.83813" lon="4.79894">
        <ele>527.6</ele>
        <time>2013-03-10T09:43:02.6Z</time>
      </trkpt>
      <trkpt lat="45.83815" lon="4.79893">
        <ele>527.9</ele>
        <time>2013-03-10T09:43:03.65Z</time>
      </trkpt>
      <trkpt lat="45.83818" lon="4.79891">
        <ele>528.7</ele>
        <time>2013-03-10T09:43:05.56Z</time>
      </trkpt>
      <trkpt lat="45.8382" lon="4.7989">
        <ele>529</ele>
        <time>2013-03-10T09:43:06.56Z</time>
      </trkpt>
      <trkpt lat="45.83824" lon="4.79888">
        <ele>529.6</ele>
        <time>2013-03-10T09:43:07.56Z</time>
      </trkpt>
      <trkpt lat="45.83827" lon="4.79888">
        <ele>530.1</ele>
        <time>2013-03-10T09:43:08.56Z</time>
      </trkpt>
      <trkpt lat="45.8383" lon="4.79887">
        <ele>530.6</ele>
        <time>2013-03-10T09:43:09.56Z</time>
      </trkpt>
      <trkpt lat="45.83833" lon="4.79886">
        <ele>531.1</ele>
        <time>2013-03-10T09:43:10.56Z</time>
      </trkpt>
      <trkpt lat="45.83835" lon="4.79885">
        <ele>531.4</ele>
        <time>2013-03-10T09:43:11.56Z</time>
      </trkpt>
      <trkpt lat="45.83838" lon="4.79884">
        <ele>531.7</ele>
        <time>2013-03-10T09:43:12.56Z</time>
      </trkpt>
      <trkpt lat="45.8384" lon="4.79884">
        <ele>531.9</ele>
        <time>2013-03-10T09:43:13.56Z</time>
      </trkpt>
      <trkpt lat="45.83842" lon="4.79884">
        <ele>532.1</ele>
        <time>2013-03-10T09:43:14.59Z</time>
      </trkpt>
      <trkpt lat="45.83845" lon="4.79883">
        <ele>532.4</ele>
        <time>2013-03-10T09:43:15.62Z</time>
      </trkpt>
      <trkpt lat="45.8385" lon="4.79882">
        <ele>533</ele>
        <time>2013-03-10T09:43:17.59Z</time>
      </trkpt>
      <trkpt lat="45.83852" lon="4.79882">
        <ele>533.1</ele>
        <time>2013-03-10T09:43:18.65Z</time>
      </trkpt>
      <trkpt lat="45.83855" lon="4.79881">
        <ele>533.5</ele>
        <time>2013-03-10T09:43:20.62Z</time>
      </trkpt>
      <trkpt lat="45.8386" lon="4.79882">
        <ele>533.9</ele>
        <time>2013-03-10T09:43:22.56Z</time>
      </trkpt>
      <trkpt lat="45.83862" lon="4.79882">
        <ele>534</ele>
        <time>2013-03-10T09:43:23.56Z</time>
      </trkpt>
      <trkpt lat="45.83863" lon="4.79883">
        <ele>534.2</ele>
        <time>2013-03-10T09:43:24.59Z</time>
      </trkpt>
      <trkpt lat="45.83865" lon="4.79883">
        <ele>534.4</ele>
        <time>2013-03-10T09:43:25.59Z</time>
      </trkpt>
      <trkpt lat="45.83867" lon="4.79884">
        <ele>534.6</ele>
        <time>2013-03-10T09:43:26.62Z</time>
      </trkpt>
      <trkpt lat="45.83872" lon="4.79886">
        <ele>535</ele>
        <time>2013-03-10T09:43:28.56Z</time>
      </trkpt>
      <trkpt lat="45.83875" lon="4.79887">
        <ele>535.2</ele>
        <time>2013-03-10T09:43:29.56Z</time>
      </trkpt>
      <trkpt lat="45.83878" lon="4.79889">
        <ele>535.5</ele>
        <time>2013-03-10T09:43:30.59Z</time>
      </trkpt>
      <trkpt lat="45.83881" lon="4.7989">
        <ele>535.8</ele>
        <time>2013-03-10T09:43:31.62Z</time>
      </trkpt>
      <trkpt lat="45.83887" lon="4.79893">
        <ele>536.2</ele>
        <time>2013-03-10T09:43:33.57Z</time>
      </trkpt>
      <trkpt lat="45.83891" lon="4.79898">
        <ele>536.5</ele>
        <time>2013-03-10T09:43:35.61Z</time>
      </trkpt>
      <trkpt lat="45.83896" lon="4.79905">
        <ele>536.7</ele>
        <time>2013-03-10T09:43:37.56Z</time>
      </trkpt>
      <trkpt lat="45.83899" lon="4.79909">
        <ele>536.8</ele>
        <time>2013-03-10T09:43:38.56Z</time>
      </trkpt>
      <trkpt lat="45.83901" lon="4.79913">
        <ele>536.8</ele>
        <time>2013-03-10T09:43:39.61Z</time>
      </trkpt>
      <trkpt lat="45.83903" lon="4.79921">
        <ele>536.6</ele>
        <time>2013-03-10T09:43:41.59Z</time>
      </trkpt>
      <trkpt lat="45.83905" lon="4.79925">
        <ele>536.5</ele>
        <time>2013-03-10T09:43:42.59Z</time>
      </trkpt>
      <trkpt lat="45.83906" lon="4.79928">
        <ele>536.5</ele>
        <time>2013-03-10T09:43:43.68Z</time>
      </trkpt>
      <trkpt lat="45.8391" lon="4.79935">
        <ele>536.2</ele>
        <time>2013-03-10T09:43:45.56Z</time>
      </trkpt>
      <trkpt lat="45.83911" lon="4.79938">
        <ele>535.9</ele>
        <time>2013-03-10T09:43:46.57Z</time>
      </trkpt>
      <trkpt lat="45.83913" lon="4.79943">
        <ele>535.6</ele>
        <time>2013-03-10T09:43:48.56Z</time>
      </trkpt>
      <trkpt lat="45.83914" lon="4.79947">
        <ele>535.5</ele>
        <time>2013-03-10T09:43:49.58Z</time>
      </trkpt>
      <trkpt lat="45.83915" lon="4.7995">
        <ele>535.4</ele>
        <time>2013-03-10T09:43:50.66Z</time>
      </trkpt>
      <trkpt lat="45.83919" lon="4.79955">
        <ele>535.8</ele>
        <time>2013-03-10T09:43:52.62Z</time>
      </trkpt>
      <trkpt lat="45.83922" lon="4.7996">
        <ele>536.4</ele>
        <time>2013-03-10T09:43:54.58Z</time>
      </trkpt>
      <trkpt lat="45.83923" lon="4.79963">
        <ele>536.5</ele>
        <time>2013-03-10T09:43:55.58Z</time>
      </trkpt>
      <trkpt lat="45.83924" lon="4.79968">
        <ele>536.4</ele>
        <time>2013-03-10T09:43:56.58Z</time>
      </trkpt>
      <trkpt lat="45.83924" lon="4.79972">
        <ele>536.1</ele>
        <time>2013-03-10T09:43:57.62Z</time>
      </trkpt>
      <trkpt lat="45.83924" lon="4.7998">
        <ele>536.2</ele>
        <time>2013-03-10T09:43:59.69Z</time>
      </trkpt>
      <trkpt lat="45.83924" lon="4.79987">
        <ele>547.2</ele>
        <time>2013-03-10T09:44:01.58Z</time>
      </trkpt>
      <trkpt lat="45.83924" lon="4.79991">
        <ele>536.4</ele>
        <time>2013-03-10T09:44:02.63Z</time>
      </trkpt>
      <trkpt lat="45.83926" lon="4.79997">
        <ele>536.9</ele>
        <time>2013-03-10T09:44:04.58Z</time>
      </trkpt>
      <trkpt lat="45.83926" lon="4.80001">
        <ele>536.9</ele>
        <time>2013-03-10T09:44:05.58Z</time>
      </trkpt>
      <trkpt lat="45.83927" lon="4.80006">
        <ele>537.2</ele>
        <time>2013-03-10T09:44:06.58Z</time>
      </trkpt>
      <trkpt lat="45.83928" lon="4.80009">
        <ele>537.5</ele>
        <time>2013-03-10T09:44:07.58Z</time>
      </trkpt>
      <trkpt lat="45.83928" lon="4.80011">
        <ele>537.6</ele>
        <time>2013-03-10T09:44:08.7Z</time>
      </trkpt>
      <trkpt lat="45.8393" lon="4.80015">
        <ele>538</ele>
        <time>2013-03-10T09:44:10.56Z</time>
      </trkpt>
      <trkpt lat="45.83931" lon="4.80018">
        <ele>538.5</ele>
        <time>2013-03-10T09:44:11.58Z</time>
      </trkpt>
      <trkpt lat="45.83933" lon="4.8002">
        <ele>538.8</ele>
        <time>2013-03-10T09:44:12.58Z</time>
      </trkpt>
      <trkpt lat="45.83934" lon="4.80022">
        <ele>539.1</ele>
        <time>2013-03-10T09:44:13.67Z</time>
      </trkpt>
      <trkpt lat="45.83935" lon="4.80026">
        <ele>539.5</ele>
        <time>2013-03-10T09:44:15.56Z</time>
      </trkpt>
      <trkpt lat="45.83935" lon="4.80029">
        <ele>539.7</ele>
        <time>2013-03-10T09:44:16.57Z</time>
      </trkpt>
      <trkpt lat="45.83936" lon="4.80032">
        <ele>539.9</ele>
        <time>2013-03-10T09:44:17.58Z</time>
      </trkpt>
      <trkpt lat="45.83936" lon="4.80034">
        <ele>540.1</ele>
        <time>2013-03-10T09:44:18.66Z</time>
      </trkpt>
      <trkpt lat="45.83937" lon="4.80038">
        <ele>540.3</ele>
        <time>2013-03-10T09:44:20.56Z</time>
      </trkpt>
      <trkpt lat="45.83938" lon="4.80039">
        <ele>540.6</ele>
        <time>2013-03-10T09:44:21.56Z</time>
      </trkpt>
      <trkpt lat="45.83938" lon="4.80041">
        <ele>540.8</ele>
        <time>2013-03-10T09:44:22.56Z</time>
      </trkpt>
      <trkpt lat="45.83939" lon="4.80043">
        <ele>541.1</ele>
        <time>2013-03-10T09:44:23.66Z</time>
      </trkpt>
      <trkpt lat="45.8394" lon="4.80048">
        <ele>541.6</ele>
        <time>2013-03-10T09:44:25.56Z</time>
      </trkpt>
      <trkpt lat="45.83941" lon="4.80051">
        <ele>541.9</ele>
        <time>2013-03-10T09:44:26.57Z</time>
      </trkpt>
      <trkpt lat="45.83942" lon="4.80056">
        <ele>542.3</ele>
        <time>2013-03-10T09:44:27.56Z</time>
      </trkpt>
      <trkpt lat="45.83943" lon="4.80061">
        <ele>542.4</ele>
        <time>2013-03-10T09:44:28.56Z</time>
      </trkpt>
      <trkpt lat="45.83944" lon="4.80065">
        <ele>542.4</ele>
        <time>2013-03-10T09:44:29.56Z</time>
      </trkpt>
      <trkpt lat="45.83944" lon="4.80068">
        <ele>542.4</ele>
        <time>2013-03-10T09:44:30.56Z</time>
      </trkpt>
      <trkpt lat="45.83943" lon="4.80072">
        <ele>542.1</ele>
        <time>2013-03-10T09:44:31.56Z</time>
      </trkpt>
      <trkpt lat="45.83943" lon="4.80075">
        <ele>542</ele>
        <time>2013-03-10T09:44:32.56Z</time>
      </trkpt>
      <trkpt lat="45.83945" lon="4.80078">
        <ele>542.2</ele>
        <time>2013-03-10T09:44:33.57Z</time>
      </trkpt>
      <trkpt lat="45.83946" lon="4.80082">
        <ele>542.3</ele>
        <time>2013-03-10T09:44:34.56Z</time>
      </trkpt>
      <trkpt lat="45.83947" lon="4.80086">
        <ele>542.4</ele>
        <time>2013-03-10T09:44:35.57Z</time>
      </trkpt>
      <trkpt lat="45.83948" lon="4.8009">
        <ele>542.4</ele>
        <time>2013-03-10T09:44:36.62Z</time>
      </trkpt>
      <trkpt lat="45.8395" lon="4.80097">
        <ele>542.5</ele>
        <time>2013-03-10T09:44:38.56Z</time>
      </trkpt>
      <trkpt lat="45.8395" lon="4.801">
        <ele>542.6</ele>
        <time>2013-03-10T09:44:39.57Z</time>
      </trkpt>
      <trkpt lat="45.83951" lon="4.80102">
        <ele>542.5</ele>
        <time>2013-03-10T09:44:40.57Z</time>
      </trkpt>
      <trkpt lat="45.83951" lon="4.80106">
        <ele>542.3</ele>
        <time>2013-03-10T09:44:41.58Z</time>
      </trkpt>
      <trkpt lat="45.83951" lon="4.8011">
        <ele>542.2</ele>
        <time>2013-03-10T09:44:42.62Z</time>
      </trkpt>
      <trkpt lat="45.83953" lon="4.80117">
        <ele>542.1</ele>
        <time>2013-03-10T09:44:44.57Z</time>
      </trkpt>
      <trkpt lat="45.83954" lon="4.80121">
        <ele>542</ele>
        <time>2013-03-10T09:44:45.58Z</time>
      </trkpt>
      <trkpt lat="45.83955" lon="4.80124">
        <ele>542</ele>
        <time>2013-03-10T09:44:46.57Z</time>
      </trkpt>
      <trkpt lat="45.83958" lon="4.80131">
        <ele>542</ele>
        <time>2013-03-10T09:44:48.56Z</time>
      </trkpt>
      <trkpt lat="45.8396" lon="4.80134">
        <ele>542.1</ele>
        <time>2013-03-10T09:44:49.58Z</time>
      </trkpt>
      <trkpt lat="45.83961" lon="4.80137">
        <ele>542.2</ele>
        <time>2013-03-10T09:44:50.62Z</time>
      </trkpt>
      <trkpt lat="45.83964" lon="4.80144">
        <ele>541.8</ele>
        <time>2013-03-10T09:44:52.57Z</time>
      </trkpt>
      <trkpt lat="45.83965" lon="4.80147">
        <ele>541.6</ele>
        <time>2013-03-10T09:44:53.69Z</time>
      </trkpt>
      <trkpt lat="45.83967" lon="4.80153">
        <ele>541.2</ele>
        <time>2013-03-10T09:44:55.57Z</time>
      </trkpt>
      <trkpt lat="45.83969" lon="4.80156">
        <ele>541</ele>
        <time>2013-03-10T09:44:56.58Z</time>
      </trkpt>
      <trkpt lat="45.8397" lon="4.8016">
        <ele>540.6</ele>
        <time>2013-03-10T09:44:57.57Z</time>
      </trkpt>
      <trkpt lat="45.83971" lon="4.80166">
        <ele>540</ele>
        <time>2013-03-10T09:44:58.78Z</time>
      </trkpt>
      <trkpt lat="45.83971" lon="4.80173">
        <ele>550.8</ele>
        <time>2013-03-10T09:45:00.58Z</time>
      </trkpt>
      <trkpt lat="45.8397" lon="4.80176">
        <ele>538.7</ele>
        <time>2013-03-10T09:45:01.57Z</time>
      </trkpt>
      <trkpt lat="45.83969" lon="4.80178">
        <ele>538.3</ele>
        <time>2013-03-10T09:45:02.58Z</time>
      </trkpt>
      <trkpt lat="45.8397" lon="4.80182">
        <ele>538.1</ele>
        <time>2013-03-10T09:45:03.77Z</time>
      </trkpt>
      <trkpt lat="45.83972" lon="4.80191">
        <ele>537.3</ele>
        <time>2013-03-10T09:45:05.57Z</time>
      </trkpt>
      <trkpt lat="45.83971" lon="4.80195">
        <ele>536.8</ele>
        <time>2013-03-10T09:45:06.57Z</time>
      </trkpt>
      <trkpt lat="45.83972" lon="4.80198">
        <ele>536.3</ele>
        <time>2013-03-10T09:45:07.63Z</time>
      </trkpt>
      <trkpt lat="45.83974" lon="4.80203">
        <ele>535.6</ele>
        <time>2013-03-10T09:45:09.56Z</time>
      </trkpt>
      <trkpt lat="45.83976" lon="4.80206">
        <ele>535.2</ele>
        <time>2013-03-10T09:45:10.66Z</time>
      </trkpt>
      <trkpt lat="45.83976" lon="4.80214">
        <ele>533.8</ele>
        <time>2013-03-10T09:45:12.66Z</time>
      </trkpt>
      <trkpt lat="45.83976" lon="4.80223">
        <ele>532.3</ele>
        <time>2013-03-10T09:45:14.66Z</time>
      </trkpt>
      <trkpt lat="45.83976" lon="4.80227">
        <ele>531.7</ele>
        <time>2013-03-10T09:45:15.56Z</time>
      </trkpt>
      <trkpt lat="45.83977" lon="4.80231">
        <ele>531.3</ele>
        <time>2013-03-10T09:45:16.62Z</time>
      </trkpt>
      <trkpt lat="45.83977" lon="4.80235">
        <ele>530.9</ele>
        <time>2013-03-10T09:45:17.56Z</time>
      </trkpt>
      <trkpt lat="45.83978" lon="4.80238">
        <ele>530.6</ele>
        <time>2013-03-10T09:45:18.66Z</time>
      </trkpt>
      <trkpt lat="45.83981" lon="4.80238">
        <ele>530.7</ele>
        <time>2013-03-10T09:45:20.66Z</time>
      </trkpt>
      <trkpt lat="45.83984" lon="4.80239">
        <ele>530.8</ele>
        <time>2013-03-10T09:45:21.56Z</time>
      </trkpt>
      <trkpt lat="45.83986" lon="4.8024">
        <ele>530.8</ele>
        <time>2013-03-10T09:45:22.66Z</time>
      </trkpt>
      <trkpt lat="45.83988" lon="4.8024">
        <ele>530.8</ele>
        <time>2013-03-10T09:45:23.56Z</time>
      </trkpt>
      <trkpt lat="45.83989" lon="4.8024">
        <ele>531</ele>
        <time>2013-03-10T09:45:24.66Z</time>
      </trkpt>
      <trkpt lat="45.83991" lon="4.80238">
        <ele>531.2</ele>
        <time>2013-03-10T09:45:25.56Z</time>
      </trkpt>
      <trkpt lat="45.83992" lon="4.80237">
        <ele>531.5</ele>
        <time>2013-03-10T09:45:26.66Z</time>
      </trkpt>
      <trkpt lat="45.83994" lon="4.80237">
        <ele>531.6</ele>
        <time>2013-03-10T09:45:27.56Z</time>
      </trkpt>
      <trkpt lat="45.83996" lon="4.80237">
        <ele>531.7</ele>
        <time>2013-03-10T09:45:28.67Z</time>
      </trkpt>
      <trkpt lat="45.83999" lon="4.80235">
        <ele>532.2</ele>
        <time>2013-03-10T09:45:30.66Z</time>
      </trkpt>
      <trkpt lat="45.84002" lon="4.80235">
        <ele>532.3</ele>
        <time>2013-03-10T09:45:31.57Z</time>
      </trkpt>
      <trkpt lat="45.84004" lon="4.80236">
        <ele>532.2</ele>
        <time>2013-03-10T09:45:32.7Z</time>
      </trkpt>
      <trkpt lat="45.84006" lon="4.80236">
        <ele>532.2</ele>
        <time>2013-03-10T09:45:33.71Z</time>
      </trkpt>
      <trkpt lat="45.84012" lon="4.80239">
        <ele>532</ele>
        <time>2013-03-10T09:45:35.66Z</time>
      </trkpt>
      <trkpt lat="45.84014" lon="4.80241">
        <ele>531.9</ele>
        <time>2013-03-10T09:45:36.56Z</time>
      </trkpt>
      <trkpt lat="45.84017" lon="4.80242">
        <ele>531.7</ele>
        <time>2013-03-10T09:45:37.66Z</time>
      </trkpt>
      <trkpt lat="45.84019" lon="4.80243">
        <ele>531.7</ele>
        <time>2013-03-10T09:45:38.56Z</time>
      </trkpt>
      <trkpt lat="45.84021" lon="4.80243">
        <ele>531.7</ele>
        <time>2013-03-10T09:45:39.66Z</time>
      </trkpt>
      <trkpt lat="45.84024" lon="4.80242">
        <ele>532</ele>
        <time>2013-03-10T09:45:40.57Z</time>
      </trkpt>
      <trkpt lat="45.84026" lon="4.80241">
        <ele>532.2</ele>
        <time>2013-03-10T09:45:41.66Z</time>
      </trkpt>
      <trkpt lat="45.84028" lon="4.8024">
        <ele>532.5</ele>
        <time>2013-03-10T09:45:42.56Z</time>
      </trkpt>
      <trkpt lat="45.8403" lon="4.80239">
        <ele>532.7</ele>
        <time>2013-03-10T09:45:43.74Z</time>
      </trkpt>
      <trkpt lat="45.84032" lon="4.80237">
        <ele>533</ele>
        <time>2013-03-10T09:45:45.56Z</time>
      </trkpt>
      <trkpt lat="45.84033" lon="4.80235">
        <ele>533.3</ele>
        <time>2013-03-10T09:45:46.66Z</time>
      </trkpt>
      <trkpt lat="45.84035" lon="4.80234">
        <ele>533.5</ele>
        <time>2013-03-10T09:45:47.56Z</time>
      </trkpt>
      <trkpt lat="45.84037" lon="4.80233">
        <ele>533.7</ele>
        <time>2013-03-10T09:45:48.75Z</time>
      </trkpt>
      <trkpt lat="45.84041" lon="4.80228">
        <ele>534.5</ele>
        <time>2013-03-10T09:45:50.57Z</time>
      </trkpt>
      <trkpt lat="45.84042" lon="4.80225">
        <ele>535.1</ele>
        <time>2013-03-10T09:45:51.65Z</time>
      </trkpt>
      <trkpt lat="45.84044" lon="4.80222">
        <ele>535.6</ele>
        <time>2013-03-10T09:45:53.74Z</time>
      </trkpt>
      <trkpt lat="45.84045" lon="4.80219">
        <ele>536.1</ele>
        <time>2013-03-10T09:45:55.57Z</time>
      </trkpt>
      <trkpt lat="45.84046" lon="4.80216">
        <ele>536.5</ele>
        <time>2013-03-10T09:45:56.66Z</time>
      </trkpt>
      <trkpt lat="45.84047" lon="4.80215">
        <ele>536.8</ele>
        <time>2013-03-10T09:45:57.56Z</time>
      </trkpt>
      <trkpt lat="45.84049" lon="4.80214">
        <ele>537</ele>
        <time>2013-03-10T09:45:58.74Z</time>
      </trkpt>
      <trkpt lat="45.84051" lon="4.8021">
        <ele>545.4</ele>
        <time>2013-03-10T09:46:00.56Z</time>
      </trkpt>
      <trkpt lat="45.84052" lon="4.80209">
        <ele>537.9</ele>
        <time>2013-03-10T09:46:01.65Z</time>
      </trkpt>
      <trkpt lat="45.84053" lon="4.80207">
        <ele>538.1</ele>
        <time>2013-03-10T09:46:02.56Z</time>
      </trkpt>
      <trkpt lat="45.84055" lon="4.80206">
        <ele>538.3</ele>
        <time>2013-03-10T09:46:03.67Z</time>
      </trkpt>
      <trkpt lat="45.84059" lon="4.80204">
        <ele>538.7</ele>
        <time>2013-03-10T09:46:05.56Z</time>
      </trkpt>
      <trkpt lat="45.84061" lon="4.80203">
        <ele>538.9</ele>
        <time>2013-03-10T09:46:06.65Z</time>
      </trkpt>
      <trkpt lat="45.84064" lon="4.80201">
        <ele>539.4</ele>
        <time>2013-03-10T09:46:08.66Z</time>
      </trkpt>
      <trkpt lat="45.84067" lon="4.80198">
        <ele>539.9</ele>
        <time>2013-03-10T09:46:10.56Z</time>
      </trkpt>
      <trkpt lat="45.84069" lon="4.80197">
        <ele>540.1</ele>
        <time>2013-03-10T09:46:11.65Z</time>
      </trkpt>
      <trkpt lat="45.84071" lon="4.80196">
        <ele>540.3</ele>
        <time>2013-03-10T09:46:12.56Z</time>
      </trkpt>
      <trkpt lat="45.84073" lon="4.80195">
        <ele>540.6</ele>
        <time>2013-03-10T09:46:13.69Z</time>
      </trkpt>
      <trkpt lat="45.84076" lon="4.80191">
        <ele>541.3</ele>
        <time>2013-03-10T09:46:15.65Z</time>
      </trkpt>
      <trkpt lat="45.84078" lon="4.80191">
        <ele>541.5</ele>
        <time>2013-03-10T09:46:16.57Z</time>
      </trkpt>
      <trkpt lat="45.8408" lon="4.8019">
        <ele>541.7</ele>
        <time>2013-03-10T09:46:17.65Z</time>
      </trkpt>
      <trkpt lat="45.84083" lon="4.80189">
        <ele>542</ele>
        <time>2013-03-10T09:46:18.56Z</time>
      </trkpt>
      <trkpt lat="45.84085" lon="4.80187">
        <ele>542.3</ele>
        <time>2013-03-10T09:46:19.65Z</time>
      </trkpt>
      <trkpt lat="45.84089" lon="4.80184">
        <ele>543</ele>
        <time>2013-03-10T09:46:21.56Z</time>
      </trkpt>
      <trkpt lat="45.8409" lon="4.80183">
        <ele>543.3</ele>
        <time>2013-03-10T09:46:22.65Z</time>
      </trkpt>
      <trkpt lat="45.84093" lon="4.80181">
        <ele>543.5</ele>
        <time>2013-03-10T09:46:23.56Z</time>
      </trkpt>
      <trkpt lat="45.84094" lon="4.8018">
        <ele>543.7</ele>
        <time>2013-03-10T09:46:24.65Z</time>
      </trkpt>
      <trkpt lat="45.84095" lon="4.80179">
        <ele>543.9</ele>
        <time>2013-03-10T09:46:25.56Z</time>
      </trkpt>
      <trkpt lat="45.84097" lon="4.80179">
        <ele>544</ele>
        <time>2013-03-10T09:46:26.65Z</time>
      </trkpt>
      <trkpt lat="45.84103" lon="4.80178">
        <ele>544.2</ele>
        <time>2013-03-10T09:46:28.65Z</time>
      </trkpt>
      <trkpt lat="45.84108" lon="4.80176">
        <ele>544.7</ele>
        <time>2013-03-10T09:46:30.64Z</time>
      </trkpt>
      <trkpt lat="45.8411" lon="4.80174">
        <ele>545</ele>
        <time>2013-03-10T09:46:31.56Z</time>
      </trkpt>
      <trkpt lat="45.84111" lon="4.80172">
        <ele>545.2</ele>
        <time>2013-03-10T09:46:32.64Z</time>
      </trkpt>
      <trkpt lat="45.84112" lon="4.8017">
        <ele>545.5</ele>
        <time>2013-03-10T09:46:33.57Z</time>
      </trkpt>
      <trkpt lat="45.84113" lon="4.80168">
        <ele>545.9</ele>
        <time>2013-03-10T09:46:35.65Z</time>
      </trkpt>
      <trkpt lat="45.84115" lon="4.80166">
        <ele>546.3</ele>
        <time>2013-03-10T09:46:36.56Z</time>
      </trkpt>
      <trkpt lat="45.84117" lon="4.80164">
        <ele>546.8</ele>
        <time>2013-03-10T09:46:37.64Z</time>
      </trkpt>
      <trkpt lat="45.84118" lon="4.80162">
        <ele>547.2</ele>
        <time>2013-03-10T09:46:38.56Z</time>
      </trkpt>
      <trkpt lat="45.84119" lon="4.8016">
        <ele>547.6</ele>
        <time>2013-03-10T09:46:39.64Z</time>
      </trkpt>
      <trkpt lat="45.84121" lon="4.80157">
        <ele>548.4</ele>
        <time>2013-03-10T09:46:41.64Z</time>
      </trkpt>
      <trkpt lat="45.84121" lon="4.80155">
        <ele>548.8</ele>
        <time>2013-03-10T09:46:44.56Z</time>
      </trkpt>
      <trkpt lat="45.84122" lon="4.80153">
        <ele>549.1</ele>
        <time>2013-03-10T09:46:45.64Z</time>
      </trkpt>
      <trkpt lat="45.84122" lon="4.80151">
        <ele>549.6</ele>
        <time>2013-03-10T09:46:46.56Z</time>
      </trkpt>
      <trkpt lat="45.84123" lon="4.80149">
        <ele>550</ele>
        <time>2013-03-10T09:46:47.64Z</time>
      </trkpt>
      <trkpt lat="45.84123" lon="4.80148">
        <ele>550.2</ele>
        <time>2013-03-10T09:46:48.56Z</time>
      </trkpt>
      <trkpt lat="45.84123" lon="4.80145">
        <ele>550.8</ele>
        <time>2013-03-10T09:46:50.59Z</time>
      </trkpt>
      <trkpt lat="45.84124" lon="4.80142">
        <ele>551.4</ele>
        <time>2013-03-10T09:46:52.64Z</time>
      </trkpt>
      <trkpt lat="45.84124" lon="4.8014">
        <ele>551.9</ele>
        <time>2013-03-10T09:46:53.56Z</time>
      </trkpt>
      <trkpt lat="45.84125" lon="4.80137">
        <ele>552.4</ele>
        <time>2013-03-10T09:46:54.64Z</time>
      </trkpt>
      <trkpt lat="45.84124" lon="4.80134">
        <ele>552.8</ele>
        <time>2013-03-10T09:46:55.56Z</time>
      </trkpt>
      <trkpt lat="45.84123" lon="4.80133">
        <ele>553.1</ele>
        <time>2013-03-10T09:46:56.64Z</time>
      </trkpt>
      <trkpt lat="45.84122" lon="4.80132">
        <ele>553.3</ele>
        <time>2013-03-10T09:46:57.56Z</time>
      </trkpt>
      <trkpt lat="45.84123" lon="4.80129">
        <ele>553.7</ele>
        <time>2013-03-10T09:46:59.59Z</time>
      </trkpt>
      <trkpt lat="45.84123" lon="4.80127">
        <ele>558</ele>
        <time>2013-03-10T09:47:00.56Z</time>
      </trkpt>
      <trkpt lat="45.84125" lon="4.80125">
        <ele>554.6</ele>
        <time>2013-03-10T09:47:01.7Z</time>
      </trkpt>
      <trkpt lat="45.84125" lon="4.80122">
        <ele>555.1</ele>
        <time>2013-03-10T09:47:03.56Z</time>
      </trkpt>
      <trkpt lat="45.84125" lon="4.8012">
        <ele>555.4</ele>
        <time>2013-03-10T09:47:04.64Z</time>
      </trkpt>
      <trkpt lat="45.84125" lon="4.80119">
        <ele>555.7</ele>
        <time>2013-03-10T09:47:05.56Z</time>
      </trkpt>
      <trkpt lat="45.84126" lon="4.80117">
        <ele>556</ele>
        <time>2013-03-10T09:47:06.64Z</time>
      </trkpt>
      <trkpt lat="45.84127" lon="4.80114">
        <ele>556.4</ele>
        <time>2013-03-10T09:47:07.56Z</time>
      </trkpt>
      <trkpt lat="45.84127" lon="4.80112">
        <ele>556.9</ele>
        <time>2013-03-10T09:47:08.65Z</time>
      </trkpt>
      <trkpt lat="45.84128" lon="4.80106">
        <ele>557.6</ele>
        <time>2013-03-10T09:47:10.56Z</time>
      </trkpt>
      <trkpt lat="45.84128" lon="4.80104">
        <ele>557.9</ele>
        <time>2013-03-10T09:47:11.63Z</time>
      </trkpt>
      <trkpt lat="45.84129" lon="4.80102">
        <ele>558.1</ele>
        <time>2013-03-10T09:47:12.56Z</time>
      </trkpt>
      <trkpt lat="45.8413" lon="4.801">
        <ele>558.5</ele>
        <time>2013-03-10T09:47:13.65Z</time>
      </trkpt>
      <trkpt lat="45.84132" lon="4.80094">
        <ele>559.3</ele>
        <time>2013-03-10T09:47:15.63Z</time>
      </trkpt>
      <trkpt lat="45.84133" lon="4.80092">
        <ele>559.6</ele>
        <time>2013-03-10T09:47:16.57Z</time>
      </trkpt>
      <trkpt lat="45.84134" lon="4.8009">
        <ele>559.9</ele>
        <time>2013-03-10T09:47:17.63Z</time>
      </trkpt>
      <trkpt lat="45.84135" lon="4.80087">
        <ele>560.4</ele>
        <time>2013-03-10T09:47:18.56Z</time>
      </trkpt>
      <trkpt lat="45.84137" lon="4.80084">
        <ele>560.8</ele>
        <time>2013-03-10T09:47:19.63Z</time>
      </trkpt>
      <trkpt lat="45.84139" lon="4.80082">
        <ele>561.2</ele>
        <time>2013-03-10T09:47:21.63Z</time>
      </trkpt>
      <trkpt lat="45.84142" lon="4.8008">
        <ele>561.4</ele>
        <time>2013-03-10T09:47:22.56Z</time>
      </trkpt>
      <trkpt lat="45.84148" lon="4.80077">
        <ele>561.8</ele>
        <time>2013-03-10T09:47:24.63Z</time>
      </trkpt>
      <trkpt lat="45.8415" lon="4.80076">
        <ele>561.9</ele>
        <time>2013-03-10T09:47:25.56Z</time>
      </trkpt>
      <trkpt lat="45.84153" lon="4.80076">
        <ele>562</ele>
        <time>2013-03-10T09:47:26.63Z</time>
      </trkpt>
      <trkpt lat="45.84159" lon="4.80076">
        <ele>562</ele>
        <time>2013-03-10T09:47:28.69Z</time>
      </trkpt>
      <trkpt lat="45.84166" lon="4.80077">
        <ele>562</ele>
        <time>2013-03-10T09:47:30.56Z</time>
      </trkpt>
      <trkpt lat="45.84169" lon="4.80077">
        <ele>561.8</ele>
        <time>2013-03-10T09:47:31.56Z</time>
      </trkpt>
      <trkpt lat="45.84172" lon="4.80078">
        <ele>561.7</ele>
        <time>2013-03-10T09:47:32.56Z</time>
      </trkpt>
      <trkpt lat="45.84175" lon="4.80078">
        <ele>561.5</ele>
        <time>2013-03-10T09:47:33.57Z</time>
      </trkpt>
      <trkpt lat="45.84178" lon="4.80079">
        <ele>561.3</ele>
        <time>2013-03-10T09:47:34.56Z</time>
      </trkpt>
      <trkpt lat="45.84181" lon="4.80079">
        <ele>561.2</ele>
        <time>2013-03-10T09:47:35.56Z</time>
      </trkpt>
      <trkpt lat="45.84185" lon="4.80079">
        <ele>561</ele>
        <time>2013-03-10T09:47:36.56Z</time>
      </trkpt>
      <trkpt lat="45.84187" lon="4.8008">
        <ele>560.8</ele>
        <time>2013-03-10T09:47:37.56Z</time>
      </trkpt>
      <trkpt lat="45.8419" lon="4.8008">
        <ele>560.7</ele>
        <time>2013-03-10T09:47:38.56Z</time>
      </trkpt>
      <trkpt lat="45.84196" lon="4.8008">
        <ele>560.6</ele>
        <time>2013-03-10T09:47:40.43Z</time>
      </trkpt>
      <trkpt lat="45.84198" lon="4.80079">
        <ele>560.8</ele>
        <time>2013-03-10T09:47:41.43Z</time>
      </trkpt>
      <trkpt lat="45.84203" lon="4.80075">
        <ele>561.5</ele>
        <time>2013-03-10T09:47:43.43Z</time>
      </trkpt>
      <trkpt lat="45.84205" lon="4.80073">
        <ele>561.8</ele>
        <time>2013-03-10T09:47:44.56Z</time>
      </trkpt>
      <trkpt lat="45.84206" lon="4.80072">
        <ele>562</ele>
        <time>2013-03-10T09:47:45.56Z</time>
      </trkpt>
      <trkpt lat="45.84208" lon="4.80071">
        <ele>562.3</ele>
        <time>2013-03-10T09:47:46.56Z</time>
      </trkpt>
      <trkpt lat="45.8421" lon="4.80069">
        <ele>562.5</ele>
        <time>2013-03-10T09:47:47.56Z</time>
      </trkpt>
      <trkpt lat="45.84211" lon="4.80068">
        <ele>562.7</ele>
        <time>2013-03-10T09:47:48.56Z</time>
      </trkpt>
      <trkpt lat="45.84212" lon="4.80067">
        <ele>563</ele>
        <time>2013-03-10T09:47:49.56Z</time>
      </trkpt>
      <trkpt lat="45.84213" lon="4.80065">
        <ele>563.4</ele>
        <time>2013-03-10T09:47:50.57Z</time>
      </trkpt>
      <trkpt lat="45.84215" lon="4.80062">
        <ele>563.8</ele>
        <time>2013-03-10T09:47:51.63Z</time>
      </trkpt>
      <trkpt lat="45.84217" lon="4.80058">
        <ele>564.5</ele>
        <time>2013-03-10T09:47:53.64Z</time>
      </trkpt>
      <trkpt lat="45.84219" lon="4.80053">
        <ele>565.3</ele>
        <time>2013-03-10T09:47:55.56Z</time>
      </trkpt>
      <trkpt lat="45.8422" lon="4.80051">
        <ele>565.6</ele>
        <time>2013-03-10T09:47:56.56Z</time>
      </trkpt>
      <trkpt lat="45.8422" lon="4.80049">
        <ele>565.9</ele>
        <time>2013-03-10T09:47:57.56Z</time>
      </trkpt>
      <trkpt lat="45.84221" lon="4.80047">
        <ele>566.2</ele>
        <time>2013-03-10T09:47:58.56Z</time>
      </trkpt>
      <trkpt lat="45.84222" lon="4.80045">
        <ele>566.5</ele>
        <time>2013-03-10T09:47:59.59Z</time>
      </trkpt>
      <trkpt lat="45.84223" lon="4.80043">
        <ele>569.5</ele>
        <time>2013-03-10T09:48:00.63Z</time>
      </trkpt>
      <trkpt lat="45.84225" lon="4.8004">
        <ele>567.3</ele>
        <time>2013-03-10T09:48:02.56Z</time>
      </trkpt>
      <trkpt lat="45.84225" lon="4.80037">
        <ele>567.6</ele>
        <time>2013-03-10T09:48:03.56Z</time>
      </trkpt>
      <trkpt lat="45.84227" lon="4.80035">
        <ele>567.9</ele>
        <time>2013-03-10T09:48:04.56Z</time>
      </trkpt>
      <trkpt lat="45.84229" lon="4.80033">
        <ele>568.2</ele>
        <time>2013-03-10T09:48:05.56Z</time>
      </trkpt>
      <trkpt lat="45.8423" lon="4.80032">
        <ele>568.4</ele>
        <time>2013-03-10T09:48:06.56Z</time>
      </trkpt>
      <trkpt lat="45.84231" lon="4.80029">
        <ele>568.8</ele>
        <time>2013-03-10T09:48:08.65Z</time>
      </trkpt>
      <trkpt lat="45.84232" lon="4.80025">
        <ele>569.6</ele>
        <time>2013-03-10T09:48:10.56Z</time>
      </trkpt>
      <trkpt lat="45.84233" lon="4.80023">
        <ele>569.9</ele>
        <time>2013-03-10T09:48:11.56Z</time>
      </trkpt>
      <trkpt lat="45.84233" lon="4.80021">
        <ele>570.2</ele>
        <time>2013-03-10T09:48:12.56Z</time>
      </trkpt>
      <trkpt lat="45.84234" lon="4.80019">
        <ele>570.5</ele>
        <time>2013-03-10T09:48:13.56Z</time>
      </trkpt>
      <trkpt lat="45.84235" lon="4.80017">
        <ele>571</ele>
        <time>2013-03-10T09:48:14.6Z</time>
      </trkpt>
      <trkpt lat="45.84236" lon="4.80015">
        <ele>571.4</ele>
        <time>2013-03-10T09:48:15.62Z</time>
      </trkpt>
      <trkpt lat="45.84236" lon="4.80013">
        <ele>571.7</ele>
        <time>2013-03-10T09:48:16.67Z</time>
      </trkpt>
      <trkpt lat="45.84237" lon="4.8001">
        <ele>572.3</ele>
        <time>2013-03-10T09:48:18.56Z</time>
      </trkpt>
      <trkpt lat="45.84238" lon="4.80008">
        <ele>572.6</ele>
        <time>2013-03-10T09:48:19.62Z</time>
      </trkpt>
      <trkpt lat="45.8424" lon="4.80003">
        <ele>573.5</ele>
        <time>2013-03-10T09:48:21.62Z</time>
      </trkpt>
      <trkpt lat="45.84241" lon="4.80001">
        <ele>573.8</ele>
        <time>2013-03-10T09:48:22.62Z</time>
      </trkpt>
      <trkpt lat="45.84241" lon="4.79999">
        <ele>574.1</ele>
        <time>2013-03-10T09:48:23.67Z</time>
      </trkpt>
      <trkpt lat="45.84242" lon="4.79995">
        <ele>574.6</ele>
        <time>2013-03-10T09:48:25.56Z</time>
      </trkpt>
      <trkpt lat="45.84243" lon="4.79992">
        <ele>574.9</ele>
        <time>2013-03-10T09:48:26.56Z</time>
      </trkpt>
      <trkpt lat="45.84244" lon="4.7999">
        <ele>575.1</ele>
        <time>2013-03-10T09:48:27.56Z</time>
      </trkpt>
      <trkpt lat="45.84245" lon="4.79988">
        <ele>575.3</ele>
        <time>2013-03-10T09:48:28.56Z</time>
      </trkpt>
      <trkpt lat="45.84245" lon="4.79986">
        <ele>575.5</ele>
        <time>2013-03-10T09:48:29.56Z</time>
      </trkpt>
      <trkpt lat="45.84244" lon="4.79984">
        <ele>575.7</ele>
        <time>2013-03-10T09:48:30.56Z</time>
      </trkpt>
      <trkpt lat="45.84245" lon="4.79981">
        <ele>576</ele>
        <time>2013-03-10T09:48:31.56Z</time>
      </trkpt>
      <trkpt lat="45.84245" lon="4.79979">
        <ele>576.3</ele>
        <time>2013-03-10T09:48:32.56Z</time>
      </trkpt>
      <trkpt lat="45.84245" lon="4.79977">
        <ele>576.5</ele>
        <time>2013-03-10T09:48:33.57Z</time>
      </trkpt>
      <trkpt lat="45.84245" lon="4.79975">
        <ele>576.7</ele>
        <time>2013-03-10T09:48:34.61Z</time>
      </trkpt>
      <trkpt lat="45.84246" lon="4.79973">
        <ele>576.9</ele>
        <time>2013-03-10T09:48:35.63Z</time>
      </trkpt>
      <trkpt lat="45.84247" lon="4.79968">
        <ele>577.4</ele>
        <time>2013-03-10T09:48:37.61Z</time>
      </trkpt>
      <trkpt lat="45.84247" lon="4.79967">
        <ele>577.6</ele>
        <time>2013-03-10T09:48:38.67Z</time>
      </trkpt>
      <trkpt lat="45.84247" lon="4.79962">
        <ele>578.1</ele>
        <time>2013-03-10T09:48:40.56Z</time>
      </trkpt>
      <trkpt lat="45.84248" lon="4.79959">
        <ele>578.5</ele>
        <time>2013-03-10T09:48:41.57Z</time>
      </trkpt>
      <trkpt lat="45.84248" lon="4.79956">
        <ele>578.8</ele>
        <time>2013-03-10T09:48:42.61Z</time>
      </trkpt>
      <trkpt lat="45.84248" lon="4.79954">
        <ele>579</ele>
        <time>2013-03-10T09:48:43.69Z</time>
      </trkpt>
      <trkpt lat="45.84248" lon="4.79949">
        <ele>579.5</ele>
        <time>2013-03-10T09:48:45.56Z</time>
      </trkpt>
      <trkpt lat="45.84248" lon="4.79946">
        <ele>579.8</ele>
        <time>2013-03-10T09:48:46.56Z</time>
      </trkpt>
      <trkpt lat="45.84249" lon="4.79944">
        <ele>580.1</ele>
        <time>2013-03-10T09:48:47.57Z</time>
      </trkpt>
      <trkpt lat="45.84249" lon="4.79942">
        <ele>580.3</ele>
        <time>2013-03-10T09:48:48.56Z</time>
      </trkpt>
      <trkpt lat="45.84249" lon="4.79939">
        <ele>580.6</ele>
        <time>2013-03-10T09:48:49.56Z</time>
      </trkpt>
      <trkpt lat="45.84249" lon="4.79937">
        <ele>580.9</ele>
        <time>2013-03-10T09:48:50.57Z</time>
      </trkpt>
      <trkpt lat="45.84249" lon="4.79935">
        <ele>581.1</ele>
        <time>2013-03-10T09:48:51.61Z</time>
      </trkpt>
      <trkpt lat="45.84249" lon="4.79933">
        <ele>581.3</ele>
        <time>2013-03-10T09:48:52.63Z</time>
      </trkpt>
      <trkpt lat="45.84249" lon="4.7993">
        <ele>581.6</ele>
        <time>2013-03-10T09:48:53.73Z</time>
      </trkpt>
      <trkpt lat="45.8425" lon="4.79923">
        <ele>582.3</ele>
        <time>2013-03-10T09:48:55.61Z</time>
      </trkpt>
      <trkpt lat="45.8425" lon="4.79919">
        <ele>582.8</ele>
        <time>2013-03-10T09:48:57.61Z</time>
      </trkpt>
      <trkpt lat="45.8425" lon="4.79916">
        <ele>583.1</ele>
        <time>2013-03-10T09:48:58.67Z</time>
      </trkpt>
      <trkpt lat="45.8425" lon="4.79912">
        <ele>583.3</ele>
        <time>2013-03-10T09:48:59.65Z</time>
      </trkpt>
      <trkpt lat="45.8425" lon="4.79907">
        <ele>583.8</ele>
        <time>2013-03-10T09:49:01.56Z</time>
      </trkpt>
      <trkpt lat="45.8425" lon="4.79905">
        <ele>583.9</ele>
        <time>2013-03-10T09:49:02.56Z</time>
      </trkpt>
      <trkpt lat="45.84249" lon="4.79902">
        <ele>584.1</ele>
        <time>2013-03-10T09:49:03.56Z</time>
      </trkpt>
      <trkpt lat="45.84249" lon="4.79899">
        <ele>584.3</ele>
        <time>2013-03-10T09:49:04.61Z</time>
      </trkpt>
      <trkpt lat="45.84249" lon="4.79896">
        <ele>584.5</ele>
        <time>2013-03-10T09:49:05.63Z</time>
      </trkpt>
      <trkpt lat="45.84248" lon="4.79892">
        <ele>584.8</ele>
        <time>2013-03-10T09:49:07.56Z</time>
      </trkpt>
      <trkpt lat="45.84247" lon="4.7989">
        <ele>585.1</ele>
        <time>2013-03-10T09:49:08.56Z</time>
      </trkpt>
      <trkpt lat="45.84246" lon="4.79886">
        <ele>585.4</ele>
        <time>2013-03-10T09:49:09.56Z</time>
      </trkpt>
      <trkpt lat="45.84246" lon="4.79883">
        <ele>585.6</ele>
        <time>2013-03-10T09:49:10.56Z</time>
      </trkpt>
      <trkpt lat="45.84245" lon="4.79882">
        <ele>585.8</ele>
        <time>2013-03-10T09:49:11.56Z</time>
      </trkpt>
      <trkpt lat="45.84244" lon="4.79879">
        <ele>586</ele>
        <time>2013-03-10T09:49:12.56Z</time>
      </trkpt>
      <trkpt lat="45.84243" lon="4.79877">
        <ele>586.2</ele>
        <time>2013-03-10T09:49:13.56Z</time>
      </trkpt>
      <trkpt lat="45.84242" lon="4.79874">
        <ele>586.5</ele>
        <time>2013-03-10T09:49:14.57Z</time>
      </trkpt>
      <trkpt lat="45.84241" lon="4.79873">
        <ele>586.6</ele>
        <time>2013-03-10T09:49:15.56Z</time>
      </trkpt>
      <trkpt lat="45.8424" lon="4.79871">
        <ele>586.9</ele>
        <time>2013-03-10T09:49:16.57Z</time>
      </trkpt>
      <trkpt lat="45.84239" lon="4.79869">
        <ele>587.2</ele>
        <time>2013-03-10T09:49:17.6Z</time>
      </trkpt>
      <trkpt lat="45.84238" lon="4.79867">
        <ele>587.4</ele>
        <time>2013-03-10T09:49:18.65Z</time>
      </trkpt>
      <trkpt lat="45.84235" lon="4.79862">
        <ele>588</ele>
        <time>2013-03-10T09:49:20.6Z</time>
      </trkpt>
      <trkpt lat="45.84234" lon="4.7986">
        <ele>588.3</ele>
        <time>2013-03-10T09:49:21.6Z</time>
      </trkpt>
      <trkpt lat="45.84233" lon="4.79857">
        <ele>588.5</ele>
        <time>2013-03-10T09:49:22.63Z</time>
      </trkpt>
      <trkpt lat="45.8423" lon="4.79853">
        <ele>589</ele>
        <time>2013-03-10T09:49:24.56Z</time>
      </trkpt>
      <trkpt lat="45.84229" lon="4.7985">
        <ele>589.3</ele>
        <time>2013-03-10T09:49:25.56Z</time>
      </trkpt>
      <trkpt lat="45.84229" lon="4.79847">
        <ele>589.5</ele>
        <time>2013-03-10T09:49:26.6Z</time>
      </trkpt>
      <trkpt lat="45.84228" lon="4.79845">
        <ele>589.7</ele>
        <time>2013-03-10T09:49:27.6Z</time>
      </trkpt>
      <trkpt lat="45.84227" lon="4.79843">
        <ele>590</ele>
        <time>2013-03-10T09:49:28.68Z</time>
      </trkpt>
      <trkpt lat="45.84227" lon="4.79837">
        <ele>590.4</ele>
        <time>2013-03-10T09:49:30.56Z</time>
      </trkpt>
      <trkpt lat="45.84227" lon="4.79834">
        <ele>590.6</ele>
        <time>2013-03-10T09:49:31.56Z</time>
      </trkpt>
      <trkpt lat="45.84226" lon="4.79832">
        <ele>590.8</ele>
        <time>2013-03-10T09:49:32.58Z</time>
      </trkpt>
      <trkpt lat="45.84225" lon="4.79825">
        <ele>591.1</ele>
        <time>2013-03-10T09:49:34.61Z</time>
      </trkpt>
      <trkpt lat="45.84223" lon="4.7982">
        <ele>591.5</ele>
        <time>2013-03-10T09:49:36.62Z</time>
      </trkpt>
      <trkpt lat="45.8422" lon="4.79814">
        <ele>591.7</ele>
        <time>2013-03-10T09:49:38.56Z</time>
      </trkpt>
      <trkpt lat="45.84219" lon="4.79812">
        <ele>591.9</ele>
        <time>2013-03-10T09:49:39.56Z</time>
      </trkpt>
      <trkpt lat="45.8422" lon="4.7981">
        <ele>591.9</ele>
        <time>2013-03-10T09:49:40.56Z</time>
      </trkpt>
      <trkpt lat="45.84221" lon="4.79808">
        <ele>591.9</ele>
        <time>2013-03-10T09:49:41.57Z</time>
      </trkpt>
      <trkpt lat="45.84223" lon="4.79808">
        <ele>591.8</ele>
        <time>2013-03-10T09:49:42.56Z</time>
      </trkpt>
      <trkpt lat="45.84226" lon="4.79808">
        <ele>591.5</ele>
        <time>2013-03-10T09:49:43.56Z</time>
      </trkpt>
      <trkpt lat="45.84229" lon="4.7981">
        <ele>591.2</ele>
        <time>2013-03-10T09:49:44.56Z</time>
      </trkpt>
      <trkpt lat="45.84232" lon="4.79812">
        <ele>590.8</ele>
        <time>2013-03-10T09:49:45.56Z</time>
      </trkpt>
      <trkpt lat="45.84235" lon="4.79814">
        <ele>590.5</ele>
        <time>2013-03-10T09:49:46.56Z</time>
      </trkpt>
      <trkpt lat="45.84237" lon="4.79817">
        <ele>590.2</ele>
        <time>2013-03-10T09:49:47.57Z</time>
      </trkpt>
      <trkpt lat="45.8424" lon="4.79822">
        <ele>589.9</ele>
        <time>2013-03-10T09:49:48.56Z</time>
      </trkpt>
      <trkpt lat="45.84242" lon="4.79825">
        <ele>589.7</ele>
        <time>2013-03-10T09:49:49.6Z</time>
      </trkpt>
      <trkpt lat="45.84244" lon="4.79829">
        <ele>589.5</ele>
        <time>2013-03-10T09:49:50.66Z</time>
      </trkpt>
      <trkpt lat="45.84249" lon="4.79837">
        <ele>588.8</ele>
        <time>2013-03-10T09:49:52.56Z</time>
      </trkpt>
      <trkpt lat="45.84252" lon="4.7984">
        <ele>588.3</ele>
        <time>2013-03-10T09:49:53.56Z</time>
      </trkpt>
      <trkpt lat="45.84254" lon="4.79844">
        <ele>587.7</ele>
        <time>2013-03-10T09:49:54.61Z</time>
      </trkpt>
      <trkpt lat="45.84258" lon="4.79852">
        <ele>586.8</ele>
        <time>2013-03-10T09:49:56.56Z</time>
      </trkpt>
      <trkpt lat="45.84261" lon="4.79855">
        <ele>586.4</ele>
        <time>2013-03-10T09:49:57.56Z</time>
      </trkpt>
      <trkpt lat="45.84263" lon="4.79858">
        <ele>586.1</ele>
        <time>2013-03-10T09:49:58.56Z</time>
      </trkpt>
      <trkpt lat="45.84265" lon="4.79861">
        <ele>585.9</ele>
        <time>2013-03-10T09:49:59.62Z</time>
      </trkpt>
      <trkpt lat="45.8427" lon="4.79867">
        <ele>592.6</ele>
        <time>2013-03-10T09:50:01.56Z</time>
      </trkpt>
      <trkpt lat="45.84273" lon="4.79871">
        <ele>585</ele>
        <time>2013-03-10T09:50:02.56Z</time>
      </trkpt>
      <trkpt lat="45.84275" lon="4.79874">
        <ele>584.7</ele>
        <time>2013-03-10T09:50:03.56Z</time>
      </trkpt>
      <trkpt lat="45.84277" lon="4.79877">
        <ele>584.5</ele>
        <time>2013-03-10T09:50:04.62Z</time>
      </trkpt>
      <trkpt lat="45.84283" lon="4.79883">
        <ele>583.5</ele>
        <time>2013-03-10T09:50:06.56Z</time>
      </trkpt>
      <trkpt lat="45.84286" lon="4.79885">
        <ele>583.1</ele>
        <time>2013-03-10T09:50:07.56Z</time>
      </trkpt>
      <trkpt lat="45.84289" lon="4.79888">
        <ele>582.8</ele>
        <time>2013-03-10T09:50:08.56Z</time>
      </trkpt>
      <trkpt lat="45.84292" lon="4.79892">
        <ele>582.3</ele>
        <time>2013-03-10T09:50:09.56Z</time>
      </trkpt>
      <trkpt lat="45.84295" lon="4.79895">
        <ele>581.8</ele>
        <time>2013-03-10T09:50:10.59Z</time>
      </trkpt>
      <trkpt lat="45.84298" lon="4.79898">
        <ele>581.4</ele>
        <time>2013-03-10T09:50:11.61Z</time>
      </trkpt>
      <trkpt lat="45.84304" lon="4.79904">
        <ele>580.6</ele>
        <time>2013-03-10T09:50:13.56Z</time>
      </trkpt>
      <trkpt lat="45.84307" lon="4.79907">
        <ele>580</ele>
        <time>2013-03-10T09:50:14.59Z</time>
      </trkpt>
      <trkpt lat="45.84311" lon="4.7991">
        <ele>579.3</ele>
        <time>2013-03-10T09:50:15.61Z</time>
      </trkpt>
      <trkpt lat="45.84316" lon="4.79916">
        <ele>578.5</ele>
        <time>2013-03-10T09:50:17.61Z</time>
      </trkpt>
      <trkpt lat="45.84321" lon="4.79922">
        <ele>577.7</ele>
        <time>2013-03-10T09:50:19.57Z</time>
      </trkpt>
      <trkpt lat="45.84324" lon="4.79925">
        <ele>577.2</ele>
        <time>2013-03-10T09:50:20.59Z</time>
      </trkpt>
      <trkpt lat="45.84327" lon="4.79926">
        <ele>576.8</ele>
        <time>2013-03-10T09:50:21.63Z</time>
      </trkpt>
      <trkpt lat="45.84333" lon="4.79928">
        <ele>576.1</ele>
        <time>2013-03-10T09:50:23.56Z</time>
      </trkpt>
      <trkpt lat="45.84335" lon="4.79927">
        <ele>575.5</ele>
        <time>2013-03-10T09:50:24.59Z</time>
      </trkpt>
      <trkpt lat="45.84337" lon="4.79926">
        <ele>574.8</ele>
        <time>2013-03-10T09:50:25.58Z</time>
      </trkpt>
      <trkpt lat="45.84339" lon="4.79924">
        <ele>574.2</ele>
        <time>2013-03-10T09:50:26.62Z</time>
      </trkpt>
      <trkpt lat="45.84342" lon="4.7992">
        <ele>572.8</ele>
        <time>2013-03-10T09:50:28.56Z</time>
      </trkpt>
      <trkpt lat="45.84344" lon="4.7992">
        <ele>572</ele>
        <time>2013-03-10T09:50:29.56Z</time>
      </trkpt>
      <trkpt lat="45.84346" lon="4.7992">
        <ele>571.3</ele>
        <time>2013-03-10T09:50:30.61Z</time>
      </trkpt>
      <trkpt lat="45.84351" lon="4.79921">
        <ele>569.6</ele>
        <time>2013-03-10T09:50:32.56Z</time>
      </trkpt>
      <trkpt lat="45.84353" lon="4.79923">
        <ele>569.1</ele>
        <time>2013-03-10T09:50:33.57Z</time>
      </trkpt>
      <trkpt lat="45.84355" lon="4.79925">
        <ele>568.7</ele>
        <time>2013-03-10T09:50:34.56Z</time>
      </trkpt>
      <trkpt lat="45.84357" lon="4.79926">
        <ele>568.2</ele>
        <time>2013-03-10T09:50:35.56Z</time>
      </trkpt>
      <trkpt lat="45.84359" lon="4.79927">
        <ele>568.1</ele>
        <time>2013-03-10T09:50:36.58Z</time>
      </trkpt>
      <trkpt lat="45.8436" lon="4.79929">
        <ele>568</ele>
        <time>2013-03-10T09:50:37.58Z</time>
      </trkpt>
      <trkpt lat="45.84361" lon="4.79929">
        <ele>567.7</ele>
        <time>2013-03-10T09:50:38.68Z</time>
      </trkpt>
      <trkpt lat="45.84364" lon="4.79932">
        <ele>566.9</ele>
        <time>2013-03-10T09:50:40.56Z</time>
      </trkpt>
      <trkpt lat="45.84365" lon="4.79934">
        <ele>567</ele>
        <time>2013-03-10T09:50:41.58Z</time>
      </trkpt>
      <trkpt lat="45.84367" lon="4.79937">
        <ele>567</ele>
        <time>2013-03-10T09:50:42.58Z</time>
      </trkpt>
      <trkpt lat="45.84368" lon="4.79939">
        <ele>566.8</ele>
        <time>2013-03-10T09:50:43.68Z</time>
      </trkpt>
      <trkpt lat="45.84372" lon="4.7994">
        <ele>565.5</ele>
        <time>2013-03-10T09:50:45.56Z</time>
      </trkpt>
      <trkpt lat="45.84374" lon="4.79942">
        <ele>565.3</ele>
        <time>2013-03-10T09:50:46.56Z</time>
      </trkpt>
      <trkpt lat="45.84376" lon="4.79946">
        <ele>565.4</ele>
        <time>2013-03-10T09:50:47.63Z</time>
      </trkpt>
      <trkpt lat="45.8438" lon="4.79954">
        <ele>565.3</ele>
        <time>2013-03-10T09:50:49.56Z</time>
      </trkpt>
      <trkpt lat="45.84381" lon="4.79958">
        <ele>565.9</ele>
        <time>2013-03-10T09:50:50.57Z</time>
      </trkpt>
      <trkpt lat="45.84382" lon="4.79961">
        <ele>566</ele>
        <time>2013-03-10T09:50:51.58Z</time>
      </trkpt>
      <trkpt lat="45.84385" lon="4.79964">
        <ele>566.1</ele>
        <time>2013-03-10T09:50:52.58Z</time>
      </trkpt>
      <trkpt lat="45.84388" lon="4.79968">
        <ele>566.2</ele>
        <time>2013-03-10T09:50:53.69Z</time>
      </trkpt>
      <trkpt lat="45.84393" lon="4.79975">
        <ele>565.2</ele>
        <time>2013-03-10T09:50:55.56Z</time>
      </trkpt>
      <trkpt lat="45.84395" lon="4.79979">
        <ele>564.5</ele>
        <time>2013-03-10T09:50:56.56Z</time>
      </trkpt>
      <trkpt lat="45.84397" lon="4.79982">
        <ele>563.9</ele>
        <time>2013-03-10T09:50:57.56Z</time>
      </trkpt>
      <trkpt lat="45.844" lon="4.79986">
        <ele>563.2</ele>
        <time>2013-03-10T09:50:58.65Z</time>
      </trkpt>
      <trkpt lat="45.84405" lon="4.79992">
        <ele>578.2</ele>
        <time>2013-03-10T09:51:00.58Z</time>
      </trkpt>
      <trkpt lat="45.84408" lon="4.79995">
        <ele>562.2</ele>
        <time>2013-03-10T09:51:01.58Z</time>
      </trkpt>
      <trkpt lat="45.8441" lon="4.79999">
        <ele>562.5</ele>
        <time>2013-03-10T09:51:02.63Z</time>
      </trkpt>
      <trkpt lat="45.84412" lon="4.80004">
        <ele>562.4</ele>
        <time>2013-03-10T09:51:03.66Z</time>
      </trkpt>
      <trkpt lat="45.84413" lon="4.80013">
        <ele>562.6</ele>
        <time>2013-03-10T09:51:05.56Z</time>
      </trkpt>
      <trkpt lat="45.84414" lon="4.80017">
        <ele>562.7</ele>
        <time>2013-03-10T09:51:06.56Z</time>
      </trkpt>
      <trkpt lat="45.84415" lon="4.80021">
        <ele>562.8</ele>
        <time>2013-03-10T09:51:07.56Z</time>
      </trkpt>
      <trkpt lat="45.84417" lon="4.80026">
        <ele>562.8</ele>
        <time>2013-03-10T09:51:08.66Z</time>
      </trkpt>
      <trkpt lat="45.84424" lon="4.80031">
        <ele>561.3</ele>
        <time>2013-03-10T09:51:10.56Z</time>
      </trkpt>
      <trkpt lat="45.84428" lon="4.80034">
        <ele>560.2</ele>
        <time>2013-03-10T09:51:11.56Z</time>
      </trkpt>
      <trkpt lat="45.84432" lon="4.80038">
        <ele>559.6</ele>
        <time>2013-03-10T09:51:12.56Z</time>
      </trkpt>
      <trkpt lat="45.84435" lon="4.80042">
        <ele>559.2</ele>
        <time>2013-03-10T09:51:13.57Z</time>
      </trkpt>
      <trkpt lat="45.84438" lon="4.80045">
        <ele>558.8</ele>
        <time>2013-03-10T09:51:14.56Z</time>
      </trkpt>
      <trkpt lat="45.84442" lon="4.80048">
        <ele>558.5</ele>
        <time>2013-03-10T09:51:15.56Z</time>
      </trkpt>
      <trkpt lat="45.84445" lon="4.80052">
        <ele>558.4</ele>
        <time>2013-03-10T09:51:16.65Z</time>
      </trkpt>
      <trkpt lat="45.8445" lon="4.80059">
        <ele>557.6</ele>
        <time>2013-03-10T09:51:18.73Z</time>
      </trkpt>
      <trkpt lat="45.84455" lon="4.80068">
        <ele>557</ele>
        <time>2013-03-10T09:51:20.61Z</time>
      </trkpt>
      <trkpt lat="45.84461" lon="4.80077">
        <ele>556.6</ele>
        <time>2013-03-10T09:51:22.56Z</time>
      </trkpt>
      <trkpt lat="45.84463" lon="4.80082">
        <ele>556.9</ele>
        <time>2013-03-10T09:51:23.56Z</time>
      </trkpt>
      <trkpt lat="45.84464" lon="4.80087">
        <ele>556.8</ele>
        <time>2013-03-10T09:51:24.62Z</time>
      </trkpt>
      <trkpt lat="45.84467" lon="4.80096">
        <ele>556.4</ele>
        <time>2013-03-10T09:51:26.56Z</time>
      </trkpt>
      <trkpt lat="45.84469" lon="4.80098">
        <ele>556.2</ele>
        <time>2013-03-10T09:51:27.56Z</time>
      </trkpt>
      <trkpt lat="45.84471" lon="4.80099">
        <ele>556.1</ele>
        <time>2013-03-10T09:51:28.56Z</time>
      </trkpt>
      <trkpt lat="45.84473" lon="4.80099">
        <ele>555.9</ele>
        <time>2013-03-10T09:51:29.56Z</time>
      </trkpt>
      <trkpt lat="45.84475" lon="4.80097">
        <ele>555.5</ele>
        <time>2013-03-10T09:51:30.56Z</time>
      </trkpt>
      <trkpt lat="45.84476" lon="4.80094">
        <ele>555.2</ele>
        <time>2013-03-10T09:51:31.56Z</time>
      </trkpt>
      <trkpt lat="45.84477" lon="4.80091">
        <ele>554.8</ele>
        <time>2013-03-10T09:51:32.56Z</time>
      </trkpt>
      <trkpt lat="45.84479" lon="4.80088">
        <ele>554.3</ele>
        <time>2013-03-10T09:51:33.57Z</time>
      </trkpt>
      <trkpt lat="45.84481" lon="4.80084">
        <ele>553.4</ele>
        <time>2013-03-10T09:51:34.63Z</time>
      </trkpt>
      <trkpt lat="45.84486" lon="4.80077">
        <ele>550.7</ele>
        <time>2013-03-10T09:51:36.58Z</time>
      </trkpt>
      <trkpt lat="45.84487" lon="4.80075">
        <ele>549.6</ele>
        <time>2013-03-10T09:51:37.57Z</time>
      </trkpt>
      <trkpt lat="45.84488" lon="4.80073">
        <ele>548.9</ele>
        <time>2013-03-10T09:51:38.67Z</time>
      </trkpt>
      <trkpt lat="45.84488" lon="4.80066">
        <ele>547.3</ele>
        <time>2013-03-10T09:51:40.56Z</time>
      </trkpt>
      <trkpt lat="45.84487" lon="4.80063">
        <ele>546.6</ele>
        <time>2013-03-10T09:51:41.58Z</time>
      </trkpt>
      <trkpt lat="45.84487" lon="4.80058">
        <ele>545.9</ele>
        <time>2013-03-10T09:51:42.57Z</time>
      </trkpt>
      <trkpt lat="45.84486" lon="4.80055">
        <ele>545.4</ele>
        <time>2013-03-10T09:51:43.65Z</time>
      </trkpt>
      <trkpt lat="45.84483" lon="4.8005">
        <ele>544.8</ele>
        <time>2013-03-10T09:51:45.56Z</time>
      </trkpt>
      <trkpt lat="45.84482" lon="4.80047">
        <ele>544.6</ele>
        <time>2013-03-10T09:51:46.57Z</time>
      </trkpt>
      <trkpt lat="45.84481" lon="4.80045">
        <ele>544.2</ele>
        <time>2013-03-10T09:51:47.58Z</time>
      </trkpt>
      <trkpt lat="45.8448" lon="4.80041">
        <ele>543.7</ele>
        <time>2013-03-10T09:51:48.65Z</time>
      </trkpt>
      <trkpt lat="45.84478" lon="4.80036">
        <ele>542.9</ele>
        <time>2013-03-10T09:51:50.57Z</time>
      </trkpt>
      <trkpt lat="45.84477" lon="4.80033">
        <ele>542.4</ele>
        <time>2013-03-10T09:51:51.57Z</time>
      </trkpt>
      <trkpt lat="45.84476" lon="4.8003">
        <ele>541.8</ele>
        <time>2013-03-10T09:51:52.57Z</time>
      </trkpt>
      <trkpt lat="45.84476" lon="4.80028">
        <ele>541.4</ele>
        <time>2013-03-10T09:51:53.65Z</time>
      </trkpt>
      <trkpt lat="45.84475" lon="4.80022">
        <ele>539.8</ele>
        <time>2013-03-10T09:51:55.56Z</time>
      </trkpt>
      <trkpt lat="45.84475" lon="4.80019">
        <ele>538.9</ele>
        <time>2013-03-10T09:51:56.56Z</time>
      </trkpt>
      <trkpt lat="45.84475" lon="4.80015">
        <ele>537.8</ele>
        <time>2013-03-10T09:51:57.66Z</time>
      </trkpt>
      <trkpt lat="45.84474" lon="4.80008">
        <ele>536.1</ele>
        <time>2013-03-10T09:51:59.62Z</time>
      </trkpt>
      <trkpt lat="45.84472" lon="4.80003">
        <ele>561.7</ele>
        <time>2013-03-10T09:52:01.66Z</time>
      </trkpt>
      <trkpt lat="45.84472" lon="4.8">
        <ele>534.1</ele>
        <time>2013-03-10T09:52:02.56Z</time>
      </trkpt>
      <trkpt lat="45.84471" lon="4.79997">
        <ele>533.9</ele>
        <time>2013-03-10T09:52:03.66Z</time>
      </trkpt>
      <trkpt lat="45.8447" lon="4.79993">
        <ele>533.6</ele>
        <time>2013-03-10T09:52:05.56Z</time>
      </trkpt>
      <trkpt lat="45.84469" lon="4.7999">
        <ele>533.7</ele>
        <time>2013-03-10T09:52:06.66Z</time>
      </trkpt>
      <trkpt lat="45.84467" lon="4.79987">
        <ele>533.8</ele>
        <time>2013-03-10T09:52:07.57Z</time>
      </trkpt>
      <trkpt lat="45.84466" lon="4.79984">
        <ele>533.7</ele>
        <time>2013-03-10T09:52:08.74Z</time>
      </trkpt>
      <trkpt lat="45.84466" lon="4.79977">
        <ele>532.4</ele>
        <time>2013-03-10T09:52:10.56Z</time>
      </trkpt>
      <trkpt lat="45.84467" lon="4.79975">
        <ele>531.4</ele>
        <time>2013-03-10T09:52:11.66Z</time>
      </trkpt>
      <trkpt lat="45.84469" lon="4.79974">
        <ele>530.6</ele>
        <time>2013-03-10T09:52:12.56Z</time>
      </trkpt>
      <trkpt lat="45.84471" lon="4.79973">
        <ele>529.8</ele>
        <time>2013-03-10T09:52:13.67Z</time>
      </trkpt>
      <trkpt lat="45.84473" lon="4.79971">
        <ele>528.6</ele>
        <time>2013-03-10T09:52:15.56Z</time>
      </trkpt>
      <trkpt lat="45.84473" lon="4.79969">
        <ele>528.3</ele>
        <time>2013-03-10T09:52:16.65Z</time>
      </trkpt>
      <trkpt lat="45.84473" lon="4.79963">
        <ele>527.5</ele>
        <time>2013-03-10T09:52:18.56Z</time>
      </trkpt>
      <trkpt lat="45.84474" lon="4.79959">
        <ele>526.6</ele>
        <time>2013-03-10T09:52:19.56Z</time>
      </trkpt>
      <trkpt lat="45.84476" lon="4.79956">
        <ele>525.5</ele>
        <time>2013-03-10T09:52:20.66Z</time>
      </trkpt>
      <trkpt lat="45.84477" lon="4.79955">
        <ele>524.5</ele>
        <time>2013-03-10T09:52:21.56Z</time>
      </trkpt>
      <trkpt lat="45.8448" lon="4.79954">
        <ele>523.6</ele>
        <time>2013-03-10T09:52:22.66Z</time>
      </trkpt>
      <trkpt lat="45.84481" lon="4.79956">
        <ele>523.3</ele>
        <time>2013-03-10T09:52:23.56Z</time>
      </trkpt>
      <trkpt lat="45.84482" lon="4.79957">
        <ele>523</ele>
        <time>2013-03-10T09:52:24.66Z</time>
      </trkpt>
      <trkpt lat="45.84484" lon="4.79959">
        <ele>522.6</ele>
        <time>2013-03-10T09:52:25.56Z</time>
      </trkpt>
      <trkpt lat="45.84487" lon="4.79961">
        <ele>522</ele>
        <time>2013-03-10T09:52:26.66Z</time>
      </trkpt>
      <trkpt lat="45.84489" lon="4.79964">
        <ele>521.5</ele>
        <time>2013-03-10T09:52:27.56Z</time>
      </trkpt>
      <trkpt lat="45.84492" lon="4.79967">
        <ele>521.1</ele>
        <time>2013-03-10T09:52:28.66Z</time>
      </trkpt>
      <trkpt lat="45.84496" lon="4.79972">
        <ele>520.5</ele>
        <time>2013-03-10T09:52:30.66Z</time>
      </trkpt>
      <trkpt lat="45.84498" lon="4.79975">
        <ele>520.3</ele>
        <time>2013-03-10T09:52:31.56Z</time>
      </trkpt>
      <trkpt lat="45.845" lon="4.79977">
        <ele>520</ele>
        <time>2013-03-10T09:52:32.66Z</time>
      </trkpt>
      <trkpt lat="45.84501" lon="4.79981">
        <ele>520.1</ele>
        <time>2013-03-10T09:52:33.57Z</time>
      </trkpt>
      <trkpt lat="45.84504" lon="4.79984">
        <ele>519.7</ele>
        <time>2013-03-10T09:52:35.66Z</time>
      </trkpt>
      <trkpt lat="45.84506" lon="4.79985">
        <ele>519.2</ele>
        <time>2013-03-10T09:52:36.56Z</time>
      </trkpt>
      <trkpt lat="45.84508" lon="4.79986">
        <ele>518.7</ele>
        <time>2013-03-10T09:52:37.65Z</time>
      </trkpt>
      <trkpt lat="45.8451" lon="4.79987">
        <ele>518.3</ele>
        <time>2013-03-10T09:52:38.56Z</time>
      </trkpt>
      <trkpt lat="45.84513" lon="4.79988">
        <ele>517.5</ele>
        <time>2013-03-10T09:52:39.65Z</time>
      </trkpt>
      <trkpt lat="45.84519" lon="4.79992">
        <ele>516.1</ele>
        <time>2013-03-10T09:52:41.65Z</time>
      </trkpt>
      <trkpt lat="45.84521" lon="4.79994">
        <ele>515.8</ele>
        <time>2013-03-10T09:52:42.56Z</time>
      </trkpt>
      <trkpt lat="45.84524" lon="4.79997">
        <ele>515.4</ele>
        <time>2013-03-10T09:52:43.74Z</time>
      </trkpt>
      <trkpt lat="45.84529" lon="4.80004">
        <ele>515.3</ele>
        <time>2013-03-10T09:52:45.56Z</time>
      </trkpt>
      <trkpt lat="45.84531" lon="4.80007">
        <ele>515.1</ele>
        <time>2013-03-10T09:52:46.65Z</time>
      </trkpt>
      <trkpt lat="45.84534" lon="4.80009">
        <ele>514.4</ele>
        <time>2013-03-10T09:52:47.56Z</time>
      </trkpt>
      <trkpt lat="45.84537" lon="4.80011">
        <ele>513.8</ele>
        <time>2013-03-10T09:52:48.7Z</time>
      </trkpt>
      <trkpt lat="45.84544" lon="4.80017">
        <ele>512.8</ele>
        <time>2013-03-10T09:52:50.61Z</time>
      </trkpt>
      <trkpt lat="45.84546" lon="4.8002">
        <ele>512.6</ele>
        <time>2013-03-10T09:52:51.56Z</time>
      </trkpt>
      <trkpt lat="45.84548" lon="4.80024">
        <ele>512.6</ele>
        <time>2013-03-10T09:52:52.63Z</time>
      </trkpt>
      <trkpt lat="45.84554" lon="4.8003">
        <ele>511.7</ele>
        <time>2013-03-10T09:52:54.56Z</time>
      </trkpt>
      <trkpt lat="45.84557" lon="4.80032">
        <ele>511.1</ele>
        <time>2013-03-10T09:52:55.65Z</time>
      </trkpt>
      <trkpt lat="45.84559" lon="4.80034">
        <ele>510.8</ele>
        <time>2013-03-10T09:52:56.56Z</time>
      </trkpt>
      <trkpt lat="45.84561" lon="4.80034">
        <ele>510.2</ele>
        <time>2013-03-10T09:52:57.65Z</time>
      </trkpt>
      <trkpt lat="45.84566" lon="4.80034">
        <ele>508.2</ele>
        <time>2013-03-10T09:52:59.61Z</time>
      </trkpt>
      <trkpt lat="45.84569" lon="4.80034">
        <ele>542.7</ele>
        <time>2013-03-10T09:53:00.56Z</time>
      </trkpt>
      <trkpt lat="45.84572" lon="4.80036">
        <ele>506.3</ele>
        <time>2013-03-10T09:53:01.65Z</time>
      </trkpt>
      <trkpt lat="45.84576" lon="4.80038">
        <ele>505.4</ele>
        <time>2013-03-10T09:53:02.56Z</time>
      </trkpt>
      <trkpt lat="45.84581" lon="4.80043">
        <ele>504.5</ele>
        <time>2013-03-10T09:53:04.65Z</time>
      </trkpt>
      <trkpt lat="45.84584" lon="4.80045">
        <ele>503.8</ele>
        <time>2013-03-10T09:53:05.56Z</time>
      </trkpt>
      <trkpt lat="45.84588" lon="4.80047">
        <ele>503.1</ele>
        <time>2013-03-10T09:53:06.65Z</time>
      </trkpt>
      <trkpt lat="45.84591" lon="4.80049">
        <ele>502.7</ele>
        <time>2013-03-10T09:53:07.56Z</time>
      </trkpt>
      <trkpt lat="45.84592" lon="4.8005">
        <ele>502.3</ele>
        <time>2013-03-10T09:53:08.66Z</time>
      </trkpt>
      <trkpt lat="45.84597" lon="4.80049">
        <ele>500.9</ele>
        <time>2013-03-10T09:53:10.65Z</time>
      </trkpt>
      <trkpt lat="45.846" lon="4.80051">
        <ele>500.2</ele>
        <time>2013-03-10T09:53:11.56Z</time>
      </trkpt>
      <trkpt lat="45.84604" lon="4.80053">
        <ele>499.7</ele>
        <time>2013-03-10T09:53:12.65Z</time>
      </trkpt>
      <trkpt lat="45.84607" lon="4.80056">
        <ele>499.4</ele>
        <time>2013-03-10T09:53:13.56Z</time>
      </trkpt>
      <trkpt lat="45.8461" lon="4.80059">
        <ele>498.9</ele>
        <time>2013-03-10T09:53:14.65Z</time>
      </trkpt>
      <trkpt lat="45.84618" lon="4.80062">
        <ele>496.3</ele>
        <time>2013-03-10T09:53:16.6Z</time>
      </trkpt>
      <trkpt lat="45.84621" lon="4.80063">
        <ele>495</ele>
        <time>2013-03-10T09:53:17.56Z</time>
      </trkpt>
      <trkpt lat="45.84624" lon="4.80065">
        <ele>494.1</ele>
        <time>2013-03-10T09:53:18.66Z</time>
      </trkpt>
      <trkpt lat="45.84629" lon="4.80071">
        <ele>493.1</ele>
        <time>2013-03-10T09:53:20.56Z</time>
      </trkpt>
      <trkpt lat="45.84631" lon="4.80074">
        <ele>493.4</ele>
        <time>2013-03-10T09:53:21.64Z</time>
      </trkpt>
      <trkpt lat="45.84632" lon="4.80078">
        <ele>493.6</ele>
        <time>2013-03-10T09:53:22.56Z</time>
      </trkpt>
      <trkpt lat="45.84634" lon="4.80082">
        <ele>493.7</ele>
        <time>2013-03-10T09:53:23.67Z</time>
      </trkpt>
      <trkpt lat="45.84635" lon="4.80091">
        <ele>494.8</ele>
        <time>2013-03-10T09:53:25.56Z</time>
      </trkpt>
      <trkpt lat="45.84637" lon="4.80095">
        <ele>494.9</ele>
        <time>2013-03-10T09:53:26.64Z</time>
      </trkpt>
      <trkpt lat="45.84638" lon="4.80098">
        <ele>495</ele>
        <time>2013-03-10T09:53:27.56Z</time>
      </trkpt>
      <trkpt lat="45.8464" lon="4.80102">
        <ele>495</ele>
        <time>2013-03-10T09:53:28.56Z</time>
      </trkpt>
      <trkpt lat="45.84643" lon="4.80105">
        <ele>494.8</ele>
        <time>2013-03-10T09:53:29.64Z</time>
      </trkpt>
      <trkpt lat="45.84646" lon="4.80108">
        <ele>494.6</ele>
        <time>2013-03-10T09:53:30.56Z</time>
      </trkpt>
      <trkpt lat="45.8465" lon="4.80112">
        <ele>494.4</ele>
        <time>2013-03-10T09:53:31.64Z</time>
      </trkpt>
      <trkpt lat="45.84654" lon="4.80116">
        <ele>493.9</ele>
        <time>2013-03-10T09:53:32.56Z</time>
      </trkpt>
      <trkpt lat="45.84658" lon="4.8012">
        <ele>493.2</ele>
        <time>2013-03-10T09:53:33.71Z</time>
      </trkpt>
      <trkpt lat="45.84665" lon="4.80128">
        <ele>492.3</ele>
        <time>2013-03-10T09:53:35.64Z</time>
      </trkpt>
      <trkpt lat="45.8467" lon="4.80136">
        <ele>491.8</ele>
        <time>2013-03-10T09:53:37.64Z</time>
      </trkpt>
      <trkpt lat="45.84673" lon="4.80139">
        <ele>491.4</ele>
        <time>2013-03-10T09:53:38.56Z</time>
      </trkpt>
      <trkpt lat="45.84675" lon="4.80142">
        <ele>491.3</ele>
        <time>2013-03-10T09:53:39.64Z</time>
      </trkpt>
      <trkpt lat="45.84681" lon="4.80147">
        <ele>490.7</ele>
        <time>2013-03-10T09:53:41.57Z</time>
      </trkpt>
      <trkpt lat="45.84684" lon="4.8015">
        <ele>490.3</ele>
        <time>2013-03-10T09:53:42.64Z</time>
      </trkpt>
      <trkpt lat="45.84686" lon="4.80152">
        <ele>490.2</ele>
        <time>2013-03-10T09:53:43.56Z</time>
      </trkpt>
      <trkpt lat="45.84689" lon="4.80156">
        <ele>490</ele>
        <time>2013-03-10T09:53:44.7Z</time>
      </trkpt>
      <trkpt lat="45.84694" lon="4.80162">
        <ele>489.5</ele>
        <time>2013-03-10T09:53:46.56Z</time>
      </trkpt>
      <trkpt lat="45.84696" lon="4.80167">
        <ele>489.4</ele>
        <time>2013-03-10T09:53:47.64Z</time>
      </trkpt>
      <trkpt lat="45.84698" lon="4.8017">
        <ele>489.3</ele>
        <time>2013-03-10T09:53:48.56Z</time>
      </trkpt>
      <trkpt lat="45.84699" lon="4.80172">
        <ele>489.3</ele>
        <time>2013-03-10T09:53:49.64Z</time>
      </trkpt>
      <trkpt lat="45.847" lon="4.80175">
        <ele>489.4</ele>
        <time>2013-03-10T09:53:50.57Z</time>
      </trkpt>
      <trkpt lat="45.84702" lon="4.80179">
        <ele>489.5</ele>
        <time>2013-03-10T09:53:51.56Z</time>
      </trkpt>
      <trkpt lat="45.84703" lon="4.80182">
        <ele>489.5</ele>
        <time>2013-03-10T09:53:52.64Z</time>
      </trkpt>
      <trkpt lat="45.84706" lon="4.80185">
        <ele>489.2</ele>
        <time>2013-03-10T09:53:53.56Z</time>
      </trkpt>
      <trkpt lat="45.84708" lon="4.80187">
        <ele>488.8</ele>
        <time>2013-03-10T09:53:54.64Z</time>
      </trkpt>
      <trkpt lat="45.84715" lon="4.80194">
        <ele>487.6</ele>
        <time>2013-03-10T09:53:56.64Z</time>
      </trkpt>
      <trkpt lat="45.84718" lon="4.80197">
        <ele>487.3</ele>
        <time>2013-03-10T09:53:57.56Z</time>
      </trkpt>
      <trkpt lat="45.8472" lon="4.80201">
        <ele>487.2</ele>
        <time>2013-03-10T09:53:58.67Z</time>
      </trkpt>
      <trkpt lat="45.84723" lon="4.80205">
        <ele>487</ele>
        <time>2013-03-10T09:53:59.69Z</time>
      </trkpt>
      <trkpt lat="45.84727" lon="4.80209">
        <ele>519</ele>
        <time>2013-03-10T09:54:01.56Z</time>
      </trkpt>
      <trkpt lat="45.84729" lon="4.80211">
        <ele>485.7</ele>
        <time>2013-03-10T09:54:02.63Z</time>
      </trkpt>
      <trkpt lat="45.84731" lon="4.80212">
        <ele>485.1</ele>
        <time>2013-03-10T09:54:03.56Z</time>
      </trkpt>
      <trkpt lat="45.84734" lon="4.80215">
        <ele>484.5</ele>
        <time>2013-03-10T09:54:04.63Z</time>
      </trkpt>
      <trkpt lat="45.84737" lon="4.80217">
        <ele>483.8</ele>
        <time>2013-03-10T09:54:05.56Z</time>
      </trkpt>
      <trkpt lat="45.8474" lon="4.80221">
        <ele>483.2</ele>
        <time>2013-03-10T09:54:06.63Z</time>
      </trkpt>
      <trkpt lat="45.84742" lon="4.80224">
        <ele>482.8</ele>
        <time>2013-03-10T09:54:07.56Z</time>
      </trkpt>
      <trkpt lat="45.84746" lon="4.80228">
        <ele>482.1</ele>
        <time>2013-03-10T09:54:08.64Z</time>
      </trkpt>
      <trkpt lat="45.84751" lon="4.80236">
        <ele>482.3</ele>
        <time>2013-03-10T09:54:10.56Z</time>
      </trkpt>
      <trkpt lat="45.84753" lon="4.8024">
        <ele>482.4</ele>
        <time>2013-03-10T09:54:11.63Z</time>
      </trkpt>
      <trkpt lat="45.84754" lon="4.80243">
        <ele>482.5</ele>
        <time>2013-03-10T09:54:12.56Z</time>
      </trkpt>
      <trkpt lat="45.84756" lon="4.80245">
        <ele>482.3</ele>
        <time>2013-03-10T09:54:13.65Z</time>
      </trkpt>
      <trkpt lat="45.84761" lon="4.8025">
        <ele>481.2</ele>
        <time>2013-03-10T09:54:15.63Z</time>
      </trkpt>
      <trkpt lat="45.84765" lon="4.80254">
        <ele>480.4</ele>
        <time>2013-03-10T09:54:16.57Z</time>
      </trkpt>
      <trkpt lat="45.84771" lon="4.8026">
        <ele>478.8</ele>
        <time>2013-03-10T09:54:18.76Z</time>
      </trkpt>
      <trkpt lat="45.84776" lon="4.80267">
        <ele>477.7</ele>
        <time>2013-03-10T09:54:20.63Z</time>
      </trkpt>
      <trkpt lat="45.84782" lon="4.80275">
        <ele>477.1</ele>
        <time>2013-03-10T09:54:22.43Z</time>
      </trkpt>
      <trkpt lat="45.84784" lon="4.80278">
        <ele>476.7</ele>
        <time>2013-03-10T09:54:23.43Z</time>
      </trkpt>
      <trkpt lat="45.8479" lon="4.80284">
        <ele>476.1</ele>
        <time>2013-03-10T09:54:25.43Z</time>
      </trkpt>
      <trkpt lat="45.84792" lon="4.80287">
        <ele>475.7</ele>
        <time>2013-03-10T09:54:26.43Z</time>
      </trkpt>
      <trkpt lat="45.84794" lon="4.8029">
        <ele>475.3</ele>
        <time>2013-03-10T09:54:27.41Z</time>
      </trkpt>
      <trkpt lat="45.848" lon="4.80296">
        <ele>474.6</ele>
        <time>2013-03-10T09:54:29.56Z</time>
      </trkpt>
      <trkpt lat="45.84802" lon="4.80299">
        <ele>474.1</ele>
        <time>2013-03-10T09:54:30.56Z</time>
      </trkpt>
      <trkpt lat="45.84805" lon="4.80302">
        <ele>473.7</ele>
        <time>2013-03-10T09:54:31.56Z</time>
      </trkpt>
      <trkpt lat="45.84807" lon="4.80305">
        <ele>473.5</ele>
        <time>2013-03-10T09:54:32.56Z</time>
      </trkpt>
      <trkpt lat="45.84809" lon="4.80308">
        <ele>473.3</ele>
        <time>2013-03-10T09:54:33.57Z</time>
      </trkpt>
      <trkpt lat="45.84813" lon="4.80314">
        <ele>473.1</ele>
        <time>2013-03-10T09:54:35.42Z</time>
      </trkpt>
      <trkpt lat="45.84815" lon="4.80317">
        <ele>473</ele>
        <time>2013-03-10T09:54:36.56Z</time>
      </trkpt>
      <trkpt lat="45.84818" lon="4.80321">
        <ele>472.9</ele>
        <time>2013-03-10T09:54:37.56Z</time>
      </trkpt>
      <trkpt lat="45.8482" lon="4.80324">
        <ele>473</ele>
        <time>2013-03-10T09:54:38.56Z</time>
      </trkpt>
      <trkpt lat="45.84823" lon="4.80328">
        <ele>472.7</ele>
        <time>2013-03-10T09:54:39.56Z</time>
      </trkpt>
      <trkpt lat="45.84825" lon="4.80332">
        <ele>472.5</ele>
        <time>2013-03-10T09:54:40.56Z</time>
      </trkpt>
      <trkpt lat="45.84829" lon="4.80336">
        <ele>472</ele>
        <time>2013-03-10T09:54:41.57Z</time>
      </trkpt>
      <trkpt lat="45.84831" lon="4.8034">
        <ele>471.7</ele>
        <time>2013-03-10T09:54:42.56Z</time>
      </trkpt>
      <trkpt lat="45.84834" lon="4.80343">
        <ele>471.1</ele>
        <time>2013-03-10T09:54:43.56Z</time>
      </trkpt>
      <trkpt lat="45.84836" lon="4.80347">
        <ele>470.7</ele>
        <time>2013-03-10T09:54:44.56Z</time>
      </trkpt>
      <trkpt lat="45.84838" lon="4.8035">
        <ele>470.6</ele>
        <time>2013-03-10T09:54:45.56Z</time>
      </trkpt>
      <trkpt lat="45.84839" lon="4.80353">
        <ele>470.5</ele>
        <time>2013-03-10T09:54:46.56Z</time>
      </trkpt>
      <trkpt lat="45.84841" lon="4.80356">
        <ele>470.4</ele>
        <time>2013-03-10T09:54:47.56Z</time>
      </trkpt>
      <trkpt lat="45.84843" lon="4.80361">
        <ele>470.3</ele>
        <time>2013-03-10T09:54:48.56Z</time>
      </trkpt>
      <trkpt lat="45.84846" lon="4.80369">
        <ele>469.7</ele>
        <time>2013-03-10T09:54:50.42Z</time>
      </trkpt>
      <trkpt lat="45.84848" lon="4.80373">
        <ele>469.3</ele>
        <time>2013-03-10T09:54:51.66Z</time>
      </trkpt>
      <trkpt lat="45.84851" lon="4.80377">
        <ele>468.5</ele>
        <time>2013-03-10T09:54:52.57Z</time>
      </trkpt>
      <trkpt lat="45.84855" lon="4.80381">
        <ele>467.5</ele>
        <time>2013-03-10T09:54:53.56Z</time>
      </trkpt>
      <trkpt lat="45.84859" lon="4.80385">
        <ele>466.3</ele>
        <time>2013-03-10T09:54:54.56Z</time>
      </trkpt>
      <trkpt lat="45.84863" lon="4.80389">
        <ele>465.5</ele>
        <time>2013-03-10T09:54:55.56Z</time>
      </trkpt>
      <trkpt lat="45.84866" lon="4.80392">
        <ele>465</ele>
        <time>2013-03-10T09:54:56.56Z</time>
      </trkpt>
      <trkpt lat="45.84869" lon="4.80397">
        <ele>464.7</ele>
        <time>2013-03-10T09:54:57.56Z</time>
      </trkpt>
      <trkpt lat="45.84872" lon="4.804">
        <ele>464.3</ele>
        <time>2013-03-10T09:54:58.56Z</time>
      </trkpt>
      <trkpt lat="45.84875" lon="4.80404">
        <ele>464</ele>
        <time>2013-03-10T09:54:59.59Z</time>
      </trkpt>
      <trkpt lat="45.84877" lon="4.80408">
        <ele>496.5</ele>
        <time>2013-03-10T09:55:00.62Z</time>
      </trkpt>
      <trkpt lat="45.84879" lon="4.80412">
        <ele>463.7</ele>
        <time>2013-03-10T09:55:01.62Z</time>
      </trkpt>
      <trkpt lat="45.84884" lon="4.80419">
        <ele>463.1</ele>
        <time>2013-03-10T09:55:03.64Z</time>
      </trkpt>
      <trkpt lat="45.8489" lon="4.80424">
        <ele>462</ele>
        <time>2013-03-10T09:55:05.57Z</time>
      </trkpt>
      <trkpt lat="45.84892" lon="4.80427">
        <ele>461.9</ele>
        <time>2013-03-10T09:55:06.62Z</time>
      </trkpt>
      <trkpt lat="45.84895" lon="4.8043">
        <ele>461.6</ele>
        <time>2013-03-10T09:55:07.62Z</time>
      </trkpt>
      <trkpt lat="45.84897" lon="4.80432">
        <ele>461.4</ele>
        <time>2013-03-10T09:55:08.64Z</time>
      </trkpt>
      <trkpt lat="45.84899" lon="4.80436">
        <ele>461.3</ele>
        <time>2013-03-10T09:55:10.56Z</time>
      </trkpt>
      <trkpt lat="45.84901" lon="4.80439">
        <ele>461.3</ele>
        <time>2013-03-10T09:55:11.56Z</time>
      </trkpt>
      <trkpt lat="45.84903" lon="4.80442">
        <ele>461.1</ele>
        <time>2013-03-10T09:55:12.56Z</time>
      </trkpt>
      <trkpt lat="45.84905" lon="4.80445">
        <ele>460.8</ele>
        <time>2013-03-10T09:55:13.56Z</time>
      </trkpt>
      <trkpt lat="45.84908" lon="4.80448">
        <ele>460.5</ele>
        <time>2013-03-10T09:55:14.56Z</time>
      </trkpt>
      <trkpt lat="45.84911" lon="4.80451">
        <ele>460.2</ele>
        <time>2013-03-10T09:55:15.56Z</time>
      </trkpt>
      <trkpt lat="45.84914" lon="4.80453">
        <ele>459.7</ele>
        <time>2013-03-10T09:55:16.57Z</time>
      </trkpt>
      <trkpt lat="45.84917" lon="4.80456">
        <ele>459</ele>
        <time>2013-03-10T09:55:17.62Z</time>
      </trkpt>
      <trkpt lat="45.84919" lon="4.80458">
        <ele>458.4</ele>
        <time>2013-03-10T09:55:18.66Z</time>
      </trkpt>
      <trkpt lat="45.84924" lon="4.80463">
        <ele>457.3</ele>
        <time>2013-03-10T09:55:20.56Z</time>
      </trkpt>
      <trkpt lat="45.84926" lon="4.80466">
        <ele>457.1</ele>
        <time>2013-03-10T09:55:21.56Z</time>
      </trkpt>
      <trkpt lat="45.84929" lon="4.8047">
        <ele>456.8</ele>
        <time>2013-03-10T09:55:22.56Z</time>
      </trkpt>
      <trkpt lat="45.84931" lon="4.80474">
        <ele>456.6</ele>
        <time>2013-03-10T09:55:23.56Z</time>
      </trkpt>
      <trkpt lat="45.84934" lon="4.80478">
        <ele>456.5</ele>
        <time>2013-03-10T09:55:24.59Z</time>
      </trkpt>
      <trkpt lat="45.84937" lon="4.80483">
        <ele>456.4</ele>
        <time>2013-03-10T09:55:25.61Z</time>
      </trkpt>
      <trkpt lat="45.84939" lon="4.80487">
        <ele>456.6</ele>
        <time>2013-03-10T09:55:26.63Z</time>
      </trkpt>
      <trkpt lat="45.84944" lon="4.80495">
        <ele>456.2</ele>
        <time>2013-03-10T09:55:28.72Z</time>
      </trkpt>
      <trkpt lat="45.84951" lon="4.80504">
        <ele>454.9</ele>
        <time>2013-03-10T09:55:30.61Z</time>
      </trkpt>
      <trkpt lat="45.84957" lon="4.80506">
        <ele>453</ele>
        <time>2013-03-10T09:55:32.61Z</time>
      </trkpt>
      <trkpt lat="45.84958" lon="4.80505">
        <ele>452.2</ele>
        <time>2013-03-10T09:55:33.78Z</time>
      </trkpt>
      <trkpt lat="45.84957" lon="4.805">
        <ele>451.4</ele>
        <time>2013-03-10T09:55:35.56Z</time>
      </trkpt>
      <trkpt lat="45.84957" lon="4.80497">
        <ele>451.2</ele>
        <time>2013-03-10T09:55:36.56Z</time>
      </trkpt>
      <trkpt lat="45.84956" lon="4.80493">
        <ele>450.8</ele>
        <time>2013-03-10T09:55:37.56Z</time>
      </trkpt>
      <trkpt lat="45.84955" lon="4.8049">
        <ele>450.5</ele>
        <time>2013-03-10T09:55:38.56Z</time>
      </trkpt>
      <trkpt lat="45.84954" lon="4.80487">
        <ele>450.5</ele>
        <time>2013-03-10T09:55:39.62Z</time>
      </trkpt>
      <trkpt lat="45.84952" lon="4.80484">
        <ele>450.5</ele>
        <time>2013-03-10T09:55:40.61Z</time>
      </trkpt>
      <trkpt lat="45.8495" lon="4.80481">
        <ele>450.7</ele>
        <time>2013-03-10T09:55:41.62Z</time>
      </trkpt>
      <trkpt lat="45.84944" lon="4.80472">
        <ele>451.1</ele>
        <time>2013-03-10T09:55:43.65Z</time>
      </trkpt>
      <trkpt lat="45.84941" lon="4.80464">
        <ele>451.2</ele>
        <time>2013-03-10T09:55:45.62Z</time>
      </trkpt>
      <trkpt lat="45.84938" lon="4.80455">
        <ele>450.5</ele>
        <time>2013-03-10T09:55:47.61Z</time>
      </trkpt>
      <trkpt lat="45.84937" lon="4.80452">
        <ele>450.4</ele>
        <time>2013-03-10T09:55:48.66Z</time>
      </trkpt>
      <trkpt lat="45.84934" lon="4.80443">
        <ele>449.7</ele>
        <time>2013-03-10T09:55:50.64Z</time>
      </trkpt>
      <trkpt lat="45.8493" lon="4.80435">
        <ele>450.2</ele>
        <time>2013-03-10T09:55:52.61Z</time>
      </trkpt>
      <trkpt lat="45.84928" lon="4.80432">
        <ele>450.3</ele>
        <time>2013-03-10T09:55:53.73Z</time>
      </trkpt>
      <trkpt lat="45.84929" lon="4.80426">
        <ele>449.3</ele>
        <time>2013-03-10T09:55:55.63Z</time>
      </trkpt>
      <trkpt lat="45.84933" lon="4.80426">
        <ele>447.4</ele>
        <time>2013-03-10T09:55:57.56Z</time>
      </trkpt>
      <trkpt lat="45.84936" lon="4.80429">
        <ele>446.6</ele>
        <time>2013-03-10T09:55:58.56Z</time>
      </trkpt>
      <trkpt lat="45.84939" lon="4.80432">
        <ele>446</ele>
        <time>2013-03-10T09:55:59.68Z</time>
      </trkpt>
      <trkpt lat="45.84944" lon="4.80437">
        <ele>474.2</ele>
        <time>2013-03-10T09:56:01.56Z</time>
      </trkpt>
      <trkpt lat="45.84947" lon="4.8044">
        <ele>444.4</ele>
        <time>2013-03-10T09:56:02.56Z</time>
      </trkpt>
      <trkpt lat="45.8495" lon="4.80444">
        <ele>444.2</ele>
        <time>2013-03-10T09:56:03.56Z</time>
      </trkpt>
      <trkpt lat="45.84953" lon="4.80448">
        <ele>443.8</ele>
        <time>2013-03-10T09:56:04.6Z</time>
      </trkpt>
      <trkpt lat="45.84956" lon="4.8045">
        <ele>443.4</ele>
        <time>2013-03-10T09:56:05.62Z</time>
      </trkpt>
      <trkpt lat="45.8496" lon="4.80455">
        <ele>442.6</ele>
        <time>2013-03-10T09:56:07.56Z</time>
      </trkpt>
      <trkpt lat="45.84962" lon="4.80457">
        <ele>442.4</ele>
        <time>2013-03-10T09:56:08.56Z</time>
      </trkpt>
      <trkpt lat="45.84964" lon="4.80459">
        <ele>442</ele>
        <time>2013-03-10T09:56:09.56Z</time>
      </trkpt>
      <trkpt lat="45.84965" lon="4.80462">
        <ele>442.1</ele>
        <time>2013-03-10T09:56:10.56Z</time>
      </trkpt>
      <trkpt lat="45.84965" lon="4.80465">
        <ele>442.4</ele>
        <time>2013-03-10T09:56:11.56Z</time>
      </trkpt>
      <trkpt lat="45.84967" lon="4.80468">
        <ele>442.2</ele>
        <time>2013-03-10T09:56:12.56Z</time>
      </trkpt>
      <trkpt lat="45.84969" lon="4.80471">
        <ele>442</ele>
        <time>2013-03-10T09:56:13.56Z</time>
      </trkpt>
      <trkpt lat="45.84972" lon="4.80475">
        <ele>441.4</ele>
        <time>2013-03-10T09:56:14.56Z</time>
      </trkpt>
      <trkpt lat="45.84975" lon="4.80479">
        <ele>441</ele>
        <time>2013-03-10T09:56:15.56Z</time>
      </trkpt>
      <trkpt lat="45.84979" lon="4.80482">
        <ele>440.3</ele>
        <time>2013-03-10T09:56:16.65Z</time>
      </trkpt>
      <trkpt lat="45.84986" lon="4.80489">
        <ele>438.8</ele>
        <time>2013-03-10T09:56:18.56Z</time>
      </trkpt>
      <trkpt lat="45.84989" lon="4.80493">
        <ele>438.1</ele>
        <time>2013-03-10T09:56:19.56Z</time>
      </trkpt>
      <trkpt lat="45.84992" lon="4.80497">
        <ele>437.5</ele>
        <time>2013-03-10T09:56:20.56Z</time>
      </trkpt>
      <trkpt lat="45.84995" lon="4.80501">
        <ele>437</ele>
        <time>2013-03-10T09:56:21.56Z</time>
      </trkpt>
      <trkpt lat="45.84998" lon="4.80504">
        <ele>436.5</ele>
        <time>2013-03-10T09:56:22.56Z</time>
      </trkpt>
      <trkpt lat="45.85" lon="4.80506">
        <ele>435.9</ele>
        <time>2013-03-10T09:56:23.56Z</time>
      </trkpt>
      <trkpt lat="45.85002" lon="4.80509">
        <ele>435.8</ele>
        <time>2013-03-10T09:56:24.58Z</time>
      </trkpt>
      <trkpt lat="45.85007" lon="4.80518">
        <ele>435.1</ele>
        <time>2013-03-10T09:56:26.56Z</time>
      </trkpt>
      <trkpt lat="45.8501" lon="4.80523">
        <ele>434.8</ele>
        <time>2013-03-10T09:56:27.56Z</time>
      </trkpt>
      <trkpt lat="45.85013" lon="4.80527">
        <ele>434.8</ele>
        <time>2013-03-10T09:56:28.65Z</time>
      </trkpt>
      <trkpt lat="45.85017" lon="4.80534">
        <ele>434.2</ele>
        <time>2013-03-10T09:56:30.56Z</time>
      </trkpt>
      <trkpt lat="45.85019" lon="4.80537">
        <ele>434.2</ele>
        <time>2013-03-10T09:56:31.56Z</time>
      </trkpt>
      <trkpt lat="45.85021" lon="4.8054">
        <ele>433.9</ele>
        <time>2013-03-10T09:56:32.56Z</time>
      </trkpt>
      <trkpt lat="45.85023" lon="4.80543">
        <ele>433.8</ele>
        <time>2013-03-10T09:56:33.57Z</time>
      </trkpt>
      <trkpt lat="45.85025" lon="4.80547">
        <ele>433.6</ele>
        <time>2013-03-10T09:56:34.56Z</time>
      </trkpt>
      <trkpt lat="45.85027" lon="4.8055">
        <ele>433.5</ele>
        <time>2013-03-10T09:56:35.56Z</time>
      </trkpt>
      <trkpt lat="45.85028" lon="4.80552">
        <ele>433.3</ele>
        <time>2013-03-10T09:56:36.56Z</time>
      </trkpt>
      <trkpt lat="45.8503" lon="4.80554">
        <ele>432.8</ele>
        <time>2013-03-10T09:56:37.56Z</time>
      </trkpt>
      <trkpt lat="45.85033" lon="4.80558">
        <ele>432.2</ele>
        <time>2013-03-10T09:56:38.56Z</time>
      </trkpt>
      <trkpt lat="45.85034" lon="4.80563">
        <ele>432.1</ele>
        <time>2013-03-10T09:56:39.6Z</time>
      </trkpt>
      <trkpt lat="45.85037" lon="4.80568">
        <ele>431.7</ele>
        <time>2013-03-10T09:56:40.6Z</time>
      </trkpt>
      <trkpt lat="45.8504" lon="4.80574">
        <ele>431.3</ele>
        <time>2013-03-10T09:56:41.62Z</time>
      </trkpt>
      <trkpt lat="45.85044" lon="4.80583">
        <ele>431.1</ele>
        <time>2013-03-10T09:56:43.56Z</time>
      </trkpt>
      <trkpt lat="45.85046" lon="4.80588">
        <ele>430.7</ele>
        <time>2013-03-10T09:56:44.56Z</time>
      </trkpt>
      <trkpt lat="45.85048" lon="4.80592">
        <ele>430.3</ele>
        <time>2013-03-10T09:56:45.56Z</time>
      </trkpt>
      <trkpt lat="45.8505" lon="4.80595">
        <ele>429.9</ele>
        <time>2013-03-10T09:56:46.59Z</time>
      </trkpt>
      <trkpt lat="45.85052" lon="4.806">
        <ele>429.5</ele>
        <time>2013-03-10T09:56:47.59Z</time>
      </trkpt>
      <trkpt lat="45.85054" lon="4.80604">
        <ele>429.1</ele>
        <time>2013-03-10T09:56:48.66Z</time>
      </trkpt>
      <trkpt lat="45.85058" lon="4.80612">
        <ele>428.3</ele>
        <time>2013-03-10T09:56:50.57Z</time>
      </trkpt>
      <trkpt lat="45.8506" lon="4.80615">
        <ele>427.9</ele>
        <time>2013-03-10T09:56:51.59Z</time>
      </trkpt>
      <trkpt lat="45.85063" lon="4.80619">
        <ele>427.2</ele>
        <time>2013-03-10T09:56:52.59Z</time>
      </trkpt>
      <trkpt lat="45.85066" lon="4.80623">
        <ele>426.7</ele>
        <time>2013-03-10T09:56:53.69Z</time>
      </trkpt>
      <trkpt lat="45.85072" lon="4.80632">
        <ele>425.4</ele>
        <time>2013-03-10T09:56:55.56Z</time>
      </trkpt>
      <trkpt lat="45.85074" lon="4.80636">
        <ele>425</ele>
        <time>2013-03-10T09:56:56.56Z</time>
      </trkpt>
      <trkpt lat="45.85076" lon="4.80641">
        <ele>424.9</ele>
        <time>2013-03-10T09:56:57.59Z</time>
      </trkpt>
      <trkpt lat="45.85078" lon="4.80646">
        <ele>424.8</ele>
        <time>2013-03-10T09:56:58.67Z</time>
      </trkpt>
      <trkpt lat="45.85081" lon="4.80654">
        <ele>455.1</ele>
        <time>2013-03-10T09:57:00.63Z</time>
      </trkpt>
      <trkpt lat="45.85083" lon="4.80663">
        <ele>424.6</ele>
        <time>2013-03-10T09:57:02.59Z</time>
      </trkpt>
      <trkpt lat="45.85085" lon="4.80666">
        <ele>424.4</ele>
        <time>2013-03-10T09:57:03.66Z</time>
      </trkpt>
      <trkpt lat="45.85088" lon="4.80673">
        <ele>424.5</ele>
        <time>2013-03-10T09:57:05.56Z</time>
      </trkpt>
      <trkpt lat="45.8509" lon="4.80677">
        <ele>424.4</ele>
        <time>2013-03-10T09:57:06.56Z</time>
      </trkpt>
      <trkpt lat="45.85092" lon="4.8068">
        <ele>424.2</ele>
        <time>2013-03-10T09:57:07.59Z</time>
      </trkpt>
      <trkpt lat="45.85094" lon="4.80683">
        <ele>424</ele>
        <time>2013-03-10T09:57:08.65Z</time>
      </trkpt>
      <trkpt lat="45.85099" lon="4.80691">
        <ele>423.3</ele>
        <time>2013-03-10T09:57:10.56Z</time>
      </trkpt>
      <trkpt lat="45.85102" lon="4.80694">
        <ele>423.1</ele>
        <time>2013-03-10T09:57:11.56Z</time>
      </trkpt>
      <trkpt lat="45.85103" lon="4.80697">
        <ele>423</ele>
        <time>2013-03-10T09:57:12.59Z</time>
      </trkpt>
      <trkpt lat="45.85104" lon="4.807">
        <ele>422.9</ele>
        <time>2013-03-10T09:57:13.69Z</time>
      </trkpt>
      <trkpt lat="45.85108" lon="4.80707">
        <ele>422.2</ele>
        <time>2013-03-10T09:57:15.56Z</time>
      </trkpt>
      <trkpt lat="45.8511" lon="4.80708">
        <ele>422</ele>
        <time>2013-03-10T09:57:16.57Z</time>
      </trkpt>
      <trkpt lat="45.85111" lon="4.80709">
        <ele>421.5</ele>
        <time>2013-03-10T09:57:17.59Z</time>
      </trkpt>
      <trkpt lat="45.85112" lon="4.80712">
        <ele>421.5</ele>
        <time>2013-03-10T09:57:18.68Z</time>
      </trkpt>
      <trkpt lat="45.85116" lon="4.80718">
        <ele>421</ele>
        <time>2013-03-10T09:57:20.56Z</time>
      </trkpt>
      <trkpt lat="45.85118" lon="4.80722">
        <ele>420.9</ele>
        <time>2013-03-10T09:57:21.56Z</time>
      </trkpt>
      <trkpt lat="45.8512" lon="4.80725">
        <ele>420.8</ele>
        <time>2013-03-10T09:57:22.56Z</time>
      </trkpt>
      <trkpt lat="45.85123" lon="4.80729">
        <ele>420.5</ele>
        <time>2013-03-10T09:57:23.56Z</time>
      </trkpt>
      <trkpt lat="45.85127" lon="4.80737">
        <ele>420.3</ele>
        <time>2013-03-10T09:57:25.56Z</time>
      </trkpt>
      <trkpt lat="45.85129" lon="4.8074">
        <ele>420.1</ele>
        <time>2013-03-10T09:57:26.56Z</time>
      </trkpt>
      <trkpt lat="45.85132" lon="4.80743">
        <ele>419.4</ele>
        <time>2013-03-10T09:57:27.56Z</time>
      </trkpt>
      <trkpt lat="45.85136" lon="4.80747">
        <ele>418.6</ele>
        <time>2013-03-10T09:57:28.56Z</time>
      </trkpt>
      <trkpt lat="45.85139" lon="4.8075">
        <ele>418.1</ele>
        <time>2013-03-10T09:57:29.58Z</time>
      </trkpt>
      <trkpt lat="45.85141" lon="4.80753">
        <ele>417.7</ele>
        <time>2013-03-10T09:57:30.58Z</time>
      </trkpt>
      <trkpt lat="45.85143" lon="4.80757">
        <ele>417.4</ele>
        <time>2013-03-10T09:57:31.62Z</time>
      </trkpt>
      <trkpt lat="45.85149" lon="4.80763">
        <ele>416.1</ele>
        <time>2013-03-10T09:57:33.57Z</time>
      </trkpt>
      <trkpt lat="45.85155" lon="4.80771">
        <ele>415.1</ele>
        <time>2013-03-10T09:57:35.56Z</time>
      </trkpt>
      <trkpt lat="45.85158" lon="4.80775">
        <ele>414.6</ele>
        <time>2013-03-10T09:57:36.66Z</time>
      </trkpt>
      <trkpt lat="45.85165" lon="4.80782">
        <ele>413</ele>
        <time>2013-03-10T09:57:38.56Z</time>
      </trkpt>
      <trkpt lat="45.85168" lon="4.80786">
        <ele>412.2</ele>
        <time>2013-03-10T09:57:39.58Z</time>
      </trkpt>
      <trkpt lat="45.85171" lon="4.8079">
        <ele>411.2</ele>
        <time>2013-03-10T09:57:40.58Z</time>
      </trkpt>
      <trkpt lat="45.85174" lon="4.80795">
        <ele>410.4</ele>
        <time>2013-03-10T09:57:41.71Z</time>
      </trkpt>
      <trkpt lat="45.8518" lon="4.80805">
        <ele>408.7</ele>
        <time>2013-03-10T09:57:43.65Z</time>
      </trkpt>
      <trkpt lat="45.85185" lon="4.80814">
        <ele>408</ele>
        <time>2013-03-10T09:57:45.56Z</time>
      </trkpt>
      <trkpt lat="45.85187" lon="4.80818">
        <ele>407.7</ele>
        <time>2013-03-10T09:57:46.57Z</time>
      </trkpt>
      <trkpt lat="45.85189" lon="4.80822">
        <ele>407.7</ele>
        <time>2013-03-10T09:57:47.58Z</time>
      </trkpt>
      <trkpt lat="45.8519" lon="4.80825">
        <ele>407.7</ele>
        <time>2013-03-10T09:57:48.67Z</time>
      </trkpt>
      <trkpt lat="45.85195" lon="4.80832">
        <ele>406.7</ele>
        <time>2013-03-10T09:57:50.57Z</time>
      </trkpt>
      <trkpt lat="45.85198" lon="4.80836">
        <ele>406.5</ele>
        <time>2013-03-10T09:57:51.58Z</time>
      </trkpt>
      <trkpt lat="45.85202" lon="4.80838">
        <ele>406.3</ele>
        <time>2013-03-10T09:57:52.58Z</time>
      </trkpt>
      <trkpt lat="45.85205" lon="4.80841">
        <ele>405.8</ele>
        <time>2013-03-10T09:57:53.65Z</time>
      </trkpt>
      <trkpt lat="45.85211" lon="4.80844">
        <ele>405</ele>
        <time>2013-03-10T09:57:55.56Z</time>
      </trkpt>
      <trkpt lat="45.85214" lon="4.80846">
        <ele>404.9</ele>
        <time>2013-03-10T09:57:56.56Z</time>
      </trkpt>
      <trkpt lat="45.85216" lon="4.80847">
        <ele>404.6</ele>
        <time>2013-03-10T09:57:57.56Z</time>
      </trkpt>
      <trkpt lat="45.85218" lon="4.80849">
        <ele>404.3</ele>
        <time>2013-03-10T09:57:58.68Z</time>
      </trkpt>
      <trkpt lat="45.85224" lon="4.80852">
        <ele>435.7</ele>
        <time>2013-03-10T09:58:00.57Z</time>
      </trkpt>
      <trkpt lat="45.85226" lon="4.80854">
        <ele>403.3</ele>
        <time>2013-03-10T09:58:01.58Z</time>
      </trkpt>
      <trkpt lat="45.85228" lon="4.80855">
        <ele>403.1</ele>
        <time>2013-03-10T09:58:02.7Z</time>
      </trkpt>
      <trkpt lat="45.85234" lon="4.8086">
        <ele>402.8</ele>
        <time>2013-03-10T09:58:04.57Z</time>
      </trkpt>
      <trkpt lat="45.85236" lon="4.80863">
        <ele>402.9</ele>
        <time>2013-03-10T09:58:05.58Z</time>
      </trkpt>
      <trkpt lat="45.85238" lon="4.80866">
        <ele>403</ele>
        <time>2013-03-10T09:58:06.57Z</time>
      </trkpt>
      <trkpt lat="45.8524" lon="4.80869">
        <ele>403</ele>
        <time>2013-03-10T09:58:07.63Z</time>
      </trkpt>
      <trkpt lat="45.85246" lon="4.80876">
        <ele>402.8</ele>
        <time>2013-03-10T09:58:09.57Z</time>
      </trkpt>
      <trkpt lat="45.8525" lon="4.8088">
        <ele>402.5</ele>
        <time>2013-03-10T09:58:10.57Z</time>
      </trkpt>
      <trkpt lat="45.85252" lon="4.80883">
        <ele>402.3</ele>
        <time>2013-03-10T09:58:11.65Z</time>
      </trkpt>
      <trkpt lat="45.85256" lon="4.80887">
        <ele>401.7</ele>
        <time>2013-03-10T09:58:13.65Z</time>
      </trkpt>
      <trkpt lat="45.85261" lon="4.80891">
        <ele>400.8</ele>
        <time>2013-03-10T09:58:15.56Z</time>
      </trkpt>
      <trkpt lat="45.85264" lon="4.80895">
        <ele>400.4</ele>
        <time>2013-03-10T09:58:16.57Z</time>
      </trkpt>
      <trkpt lat="45.85266" lon="4.80898">
        <ele>400.2</ele>
        <time>2013-03-10T09:58:17.57Z</time>
      </trkpt>
      <trkpt lat="45.85269" lon="4.809">
        <ele>399.7</ele>
        <time>2013-03-10T09:58:18.74Z</time>
      </trkpt>
      <trkpt lat="45.85274" lon="4.80903">
        <ele>398.4</ele>
        <time>2013-03-10T09:58:20.58Z</time>
      </trkpt>
      <trkpt lat="45.85277" lon="4.80906">
        <ele>397.6</ele>
        <time>2013-03-10T09:58:21.62Z</time>
      </trkpt>
      <trkpt lat="45.85282" lon="4.80912">
        <ele>397</ele>
        <time>2013-03-10T09:58:23.56Z</time>
      </trkpt>
      <trkpt lat="45.85284" lon="4.80914">
        <ele>396.8</ele>
        <time>2013-03-10T09:58:24.56Z</time>
      </trkpt>
      <trkpt lat="45.85286" lon="4.80916">
        <ele>396.4</ele>
        <time>2013-03-10T09:58:25.67Z</time>
      </trkpt>
      <trkpt lat="45.85291" lon="4.8092">
        <ele>395.6</ele>
        <time>2013-03-10T09:58:27.56Z</time>
      </trkpt>
      <trkpt lat="45.85294" lon="4.80923">
        <ele>395.2</ele>
        <time>2013-03-10T09:58:28.56Z</time>
      </trkpt>
      <trkpt lat="45.85297" lon="4.80925">
        <ele>394.7</ele>
        <time>2013-03-10T09:58:29.58Z</time>
      </trkpt>
      <trkpt lat="45.85299" lon="4.80927">
        <ele>394.1</ele>
        <time>2013-03-10T09:58:30.57Z</time>
      </trkpt>
      <trkpt lat="45.85302" lon="4.80928">
        <ele>393.4</ele>
        <time>2013-03-10T09:58:31.63Z</time>
      </trkpt>
      <trkpt lat="45.85306" lon="4.8093">
        <ele>392.2</ele>
        <time>2013-03-10T09:58:33.57Z</time>
      </trkpt>
      <trkpt lat="45.85309" lon="4.80932">
        <ele>391.8</ele>
        <time>2013-03-10T09:58:34.56Z</time>
      </trkpt>
      <trkpt lat="45.85311" lon="4.80934">
        <ele>391.3</ele>
        <time>2013-03-10T09:58:35.56Z</time>
      </trkpt>
      <trkpt lat="45.85314" lon="4.80935">
        <ele>390.7</ele>
        <time>2013-03-10T09:58:36.65Z</time>
      </trkpt>
      <trkpt lat="45.8532" lon="4.8094">
        <ele>389.9</ele>
        <time>2013-03-10T09:58:38.56Z</time>
      </trkpt>
      <trkpt lat="45.85322" lon="4.80941">
        <ele>389.5</ele>
        <time>2013-03-10T09:58:39.57Z</time>
      </trkpt>
      <trkpt lat="45.85325" lon="4.80941">
        <ele>388.7</ele>
        <time>2013-03-10T09:58:40.58Z</time>
      </trkpt>
      <trkpt lat="45.85328" lon="4.8094">
        <ele>387.8</ele>
        <time>2013-03-10T09:58:41.67Z</time>
      </trkpt>
      <trkpt lat="45.85334" lon="4.8094">
        <ele>386</ele>
        <time>2013-03-10T09:58:43.56Z</time>
      </trkpt>
      <trkpt lat="45.85337" lon="4.8094">
        <ele>385.1</ele>
        <time>2013-03-10T09:58:44.66Z</time>
      </trkpt>
      <trkpt lat="45.85342" lon="4.80941">
        <ele>383.7</ele>
        <time>2013-03-10T09:58:46.71Z</time>
      </trkpt>
      <trkpt lat="45.85349" lon="4.80942">
        <ele>381.5</ele>
        <time>2013-03-10T09:58:48.56Z</time>
      </trkpt>
      <trkpt lat="45.85352" lon="4.80943">
        <ele>380.8</ele>
        <time>2013-03-10T09:58:49.64Z</time>
      </trkpt>
      <trkpt lat="45.85354" lon="4.80942">
        <ele>379.9</ele>
        <time>2013-03-10T09:58:50.57Z</time>
      </trkpt>
      <trkpt lat="45.85356" lon="4.80941">
        <ele>379</ele>
        <time>2013-03-10T09:58:51.71Z</time>
      </trkpt>
      <trkpt lat="45.85358" lon="4.80938">
        <ele>377.7</ele>
        <time>2013-03-10T09:58:53.56Z</time>
      </trkpt>
      <trkpt lat="45.85357" lon="4.80935">
        <ele>377.8</ele>
        <time>2013-03-10T09:58:54.66Z</time>
      </trkpt>
      <trkpt lat="45.85355" lon="4.80932">
        <ele>377.8</ele>
        <time>2013-03-10T09:58:55.56Z</time>
      </trkpt>
      <trkpt lat="45.85354" lon="4.80928">
        <ele>377.5</ele>
        <time>2013-03-10T09:58:56.66Z</time>
      </trkpt>
      <trkpt lat="45.85353" lon="4.80924">
        <ele>377.1</ele>
        <time>2013-03-10T09:58:57.56Z</time>
      </trkpt>
      <trkpt lat="45.85352" lon="4.8092">
        <ele>376.8</ele>
        <time>2013-03-10T09:58:58.66Z</time>
      </trkpt>
      <trkpt lat="45.8535" lon="4.80913">
        <ele>410.7</ele>
        <time>2013-03-10T09:59:00.66Z</time>
      </trkpt>
      <trkpt lat="45.8535" lon="4.80906">
        <ele>374.9</ele>
        <time>2013-03-10T09:59:02.66Z</time>
      </trkpt>
      <trkpt lat="45.85349" lon="4.80902">
        <ele>374.3</ele>
        <time>2013-03-10T09:59:03.56Z</time>
      </trkpt>
      <trkpt lat="45.85349" lon="4.80899">
        <ele>373.9</ele>
        <time>2013-03-10T09:59:04.66Z</time>
      </trkpt>
      <trkpt lat="45.85348" lon="4.80891">
        <ele>372.4</ele>
        <time>2013-03-10T09:59:06.66Z</time>
      </trkpt>
      <trkpt lat="45.85348" lon="4.80886">
        <ele>371.7</ele>
        <time>2013-03-10T09:59:07.56Z</time>
      </trkpt>
      <trkpt lat="45.85347" lon="4.80882">
        <ele>370.9</ele>
        <time>2013-03-10T09:59:08.75Z</time>
      </trkpt>
      <trkpt lat="45.85346" lon="4.80875">
        <ele>369.7</ele>
        <time>2013-03-10T09:59:10.56Z</time>
      </trkpt>
      <trkpt lat="45.85345" lon="4.80871">
        <ele>369.4</ele>
        <time>2013-03-10T09:59:11.66Z</time>
      </trkpt>
      <trkpt lat="45.85344" lon="4.80867">
        <ele>368.7</ele>
        <time>2013-03-10T09:59:12.56Z</time>
      </trkpt>
      <trkpt lat="45.85344" lon="4.80864">
        <ele>368.3</ele>
        <time>2013-03-10T09:59:13.74Z</time>
      </trkpt>
      <trkpt lat="45.85344" lon="4.80858">
        <ele>366.8</ele>
        <time>2013-03-10T09:59:15.57Z</time>
      </trkpt>
      <trkpt lat="45.85344" lon="4.80855">
        <ele>366.3</ele>
        <time>2013-03-10T09:59:16.63Z</time>
      </trkpt>
      <trkpt lat="45.85344" lon="4.80848">
        <ele>365</ele>
        <time>2013-03-10T09:59:18.56Z</time>
      </trkpt>
      <trkpt lat="45.85347" lon="4.80843">
        <ele>363.2</ele>
        <time>2013-03-10T09:59:19.66Z</time>
      </trkpt>
      <trkpt lat="45.85349" lon="4.80839">
        <ele>361.6</ele>
        <time>2013-03-10T09:59:20.56Z</time>
      </trkpt>
      <trkpt lat="45.85352" lon="4.80835">
        <ele>360.2</ele>
        <time>2013-03-10T09:59:21.66Z</time>
      </trkpt>
      <trkpt lat="45.85355" lon="4.80827">
        <ele>358.3</ele>
        <time>2013-03-10T09:59:23.66Z</time>
      </trkpt>
      <trkpt lat="45.85355" lon="4.80818">
        <ele>357.1</ele>
        <time>2013-03-10T09:59:25.64Z</time>
      </trkpt>
      <trkpt lat="45.85358" lon="4.80814">
        <ele>355.8</ele>
        <time>2013-03-10T09:59:27.65Z</time>
      </trkpt>
      <trkpt lat="45.8536" lon="4.80811">
        <ele>354.9</ele>
        <time>2013-03-10T09:59:28.57Z</time>
      </trkpt>
      <trkpt lat="45.85363" lon="4.80809">
        <ele>353.9</ele>
        <time>2013-03-10T09:59:29.65Z</time>
      </trkpt>
      <trkpt lat="45.85366" lon="4.80806">
        <ele>353.1</ele>
        <time>2013-03-10T09:59:30.56Z</time>
      </trkpt>
      <trkpt lat="45.85368" lon="4.80804">
        <ele>352.3</ele>
        <time>2013-03-10T09:59:31.65Z</time>
      </trkpt>
      <trkpt lat="45.85372" lon="4.808">
        <ele>351.4</ele>
        <time>2013-03-10T09:59:32.56Z</time>
      </trkpt>
      <trkpt lat="45.85375" lon="4.80798">
        <ele>350.6</ele>
        <time>2013-03-10T09:59:33.69Z</time>
      </trkpt>
      <trkpt lat="45.85379" lon="4.80793">
        <ele>349.7</ele>
        <time>2013-03-10T09:59:35.56Z</time>
      </trkpt>
      <trkpt lat="45.8538" lon="4.80791">
        <ele>349.4</ele>
        <time>2013-03-10T09:59:36.65Z</time>
      </trkpt>
      <trkpt lat="45.85382" lon="4.80789">
        <ele>349</ele>
        <time>2013-03-10T09:59:37.56Z</time>
      </trkpt>
      <trkpt lat="45.85385" lon="4.80785">
        <ele>348.5</ele>
        <time>2013-03-10T09:59:38.66Z</time>
      </trkpt>
      <trkpt lat="45.85391" lon="4.80778">
        <ele>347.7</ele>
        <time>2013-03-10T09:59:40.7Z</time>
      </trkpt>
      <trkpt lat="45.85396" lon="4.80772">
        <ele>346.3</ele>
        <time>2013-03-10T09:59:42.56Z</time>
      </trkpt>
      <trkpt lat="45.85399" lon="4.80769">
        <ele>345.7</ele>
        <time>2013-03-10T09:59:43.67Z</time>
      </trkpt>
      <trkpt lat="45.85405" lon="4.80762">
        <ele>344.3</ele>
        <time>2013-03-10T09:59:45.56Z</time>
      </trkpt>
      <trkpt lat="45.85408" lon="4.80758">
        <ele>343.7</ele>
        <time>2013-03-10T09:59:46.65Z</time>
      </trkpt>
      <trkpt lat="45.8541" lon="4.80754">
        <ele>343.1</ele>
        <time>2013-03-10T09:59:47.56Z</time>
      </trkpt>
      <trkpt lat="45.85414" lon="4.8075">
        <ele>342.4</ele>
        <time>2013-03-10T09:59:48.66Z</time>
      </trkpt>
      <trkpt lat="45.85421" lon="4.80746">
        <ele>341.2</ele>
        <time>2013-03-10T09:59:50.57Z</time>
      </trkpt>
      <trkpt lat="45.85426" lon="4.80746">
        <ele>340.6</ele>
        <time>2013-03-10T09:59:51.56Z</time>
      </trkpt>
      <trkpt lat="45.85429" lon="4.80746">
        <ele>340.1</ele>
        <time>2013-03-10T09:59:52.65Z</time>
      </trkpt>
      <trkpt lat="45.85432" lon="4.80745">
        <ele>339.8</ele>
        <time>2013-03-10T09:59:53.56Z</time>
      </trkpt>
      <trkpt lat="45.85435" lon="4.80745">
        <ele>339.4</ele>
        <time>2013-03-10T09:59:54.65Z</time>
      </trkpt>
      <trkpt lat="45.85438" lon="4.80744">
        <ele>338.9</ele>
        <time>2013-03-10T09:59:55.56Z</time>
      </trkpt>
      <trkpt lat="45.85442" lon="4.80743">
        <ele>338.4</ele>
        <time>2013-03-10T09:59:56.65Z</time>
      </trkpt>
      <trkpt lat="45.85445" lon="4.80743">
        <ele>337.8</ele>
        <time>2013-03-10T09:59:57.56Z</time>
      </trkpt>
      <trkpt lat="45.85448" lon="4.80744">
        <ele>337.2</ele>
        <time>2013-03-10T09:59:58.66Z</time>
      </trkpt>
      <trkpt lat="45.8545" lon="4.80746">
        <ele>336.8</ele>
        <time>2013-03-10T09:59:59.72Z</time>
      </trkpt>
      <trkpt lat="45.85454" lon="4.80748">
        <ele>367.7</ele>
        <time>2013-03-10T10:00:01.64Z</time>
      </trkpt>
      <trkpt lat="45.85458" lon="4.80747">
        <ele>335.1</ele>
        <time>2013-03-10T10:00:02.56Z</time>
      </trkpt>
      <trkpt lat="45.85461" lon="4.80745">
        <ele>333.9</ele>
        <time>2013-03-10T10:00:03.65Z</time>
      </trkpt>
      <trkpt lat="45.85467" lon="4.80738">
        <ele>330.8</ele>
        <time>2013-03-10T10:00:05.64Z</time>
      </trkpt>
      <trkpt lat="45.85473" lon="4.80731">
        <ele>326.8</ele>
        <time>2013-03-10T10:00:07.64Z</time>
      </trkpt>
      <trkpt lat="45.85475" lon="4.80729">
        <ele>325.2</ele>
        <time>2013-03-10T10:00:08.56Z</time>
      </trkpt>
      <trkpt lat="45.85476" lon="4.80728">
        <ele>324.5</ele>
        <time>2013-03-10T10:00:09.64Z</time>
      </trkpt>
      <trkpt lat="45.85478" lon="4.80725">
        <ele>323.2</ele>
        <time>2013-03-10T10:00:11.64Z</time>
      </trkpt>
      <trkpt lat="45.85479" lon="4.80724">
        <ele>322.5</ele>
        <time>2013-03-10T10:00:12.56Z</time>
      </trkpt>
      <trkpt lat="45.85482" lon="4.80723">
        <ele>321.4</ele>
        <time>2013-03-10T10:00:14.64Z</time>
      </trkpt>
      <trkpt lat="45.85483" lon="4.80723">
        <ele>321.1</ele>
        <time>2013-03-10T10:00:15.56Z</time>
      </trkpt>
      <trkpt lat="45.85484" lon="4.80723">
        <ele>320.8</ele>
        <time>2013-03-10T10:00:16.62Z</time>
      </trkpt>
      <trkpt lat="45.85487" lon="4.80725">
        <ele>320.4</ele>
        <time>2013-03-10T10:00:18.57Z</time>
      </trkpt>
      <trkpt lat="45.85489" lon="4.80726">
        <ele>320.1</ele>
        <time>2013-03-10T10:00:19.56Z</time>
      </trkpt>
      <trkpt lat="45.8549" lon="4.80727">
        <ele>319.8</ele>
        <time>2013-03-10T10:00:20.64Z</time>
      </trkpt>
      <trkpt lat="45.85494" lon="4.80731">
        <ele>319.3</ele>
        <time>2013-03-10T10:00:22.64Z</time>
      </trkpt>
      <trkpt lat="45.85496" lon="4.80733">
        <ele>318.9</ele>
        <time>2013-03-10T10:00:23.56Z</time>
      </trkpt>
      <trkpt lat="45.85499" lon="4.80734">
        <ele>318.2</ele>
        <time>2013-03-10T10:00:24.64Z</time>
      </trkpt>
      <trkpt lat="45.855" lon="4.80733">
        <ele>317.4</ele>
        <time>2013-03-10T10:00:26.64Z</time>
      </trkpt>
      <trkpt lat="45.855" lon="4.8073">
        <ele>317.2</ele>
        <time>2013-03-10T10:00:27.56Z</time>
      </trkpt>
      <trkpt lat="45.85498" lon="4.80727">
        <ele>317.4</ele>
        <time>2013-03-10T10:00:28.65Z</time>
      </trkpt>
      <trkpt lat="45.85493" lon="4.80722">
        <ele>318.2</ele>
        <time>2013-03-10T10:00:30.64Z</time>
      </trkpt>
      <trkpt lat="45.8549" lon="4.8072">
        <ele>318.6</ele>
        <time>2013-03-10T10:00:31.57Z</time>
      </trkpt>
      <trkpt lat="45.85487" lon="4.80717">
        <ele>318.8</ele>
        <time>2013-03-10T10:00:32.64Z</time>
      </trkpt>
      <trkpt lat="45.85483" lon="4.80712">
        <ele>318.8</ele>
        <time>2013-03-10T10:00:33.57Z</time>
      </trkpt>
      <trkpt lat="45.8548" lon="4.80708">
        <ele>318.7</ele>
        <time>2013-03-10T10:00:34.56Z</time>
      </trkpt>
      <trkpt lat="45.85478" lon="4.80707">
        <ele>318.9</ele>
        <time>2013-03-10T10:00:35.64Z</time>
      </trkpt>
      <trkpt lat="45.85476" lon="4.80705">
        <ele>318.8</ele>
        <time>2013-03-10T10:00:36.56Z</time>
      </trkpt>
      <trkpt lat="45.85475" lon="4.80703">
        <ele>318.5</ele>
        <time>2013-03-10T10:00:37.63Z</time>
      </trkpt>
      <trkpt lat="45.85475" lon="4.80697">
        <ele>317</ele>
        <time>2013-03-10T10:00:39.64Z</time>
      </trkpt>
      <trkpt lat="45.85476" lon="4.80693">
        <ele>316.1</ele>
        <time>2013-03-10T10:00:40.56Z</time>
      </trkpt>
      <trkpt lat="45.85478" lon="4.8069">
        <ele>315.5</ele>
        <time>2013-03-10T10:00:41.64Z</time>
      </trkpt>
      <trkpt lat="45.8548" lon="4.80687">
        <ele>314.7</ele>
        <time>2013-03-10T10:00:42.56Z</time>
      </trkpt>
      <trkpt lat="45.85483" lon="4.80684">
        <ele>313.9</ele>
        <time>2013-03-10T10:00:43.66Z</time>
      </trkpt>
      <trkpt lat="45.8549" lon="4.80679">
        <ele>312.1</ele>
        <time>2013-03-10T10:00:45.56Z</time>
      </trkpt>
      <trkpt lat="45.85493" lon="4.80678">
        <ele>311.5</ele>
        <time>2013-03-10T10:00:46.63Z</time>
      </trkpt>
      <trkpt lat="45.85495" lon="4.80678">
        <ele>311.2</ele>
        <time>2013-03-10T10:00:47.56Z</time>
      </trkpt>
      <trkpt lat="45.85497" lon="4.80681">
        <ele>311</ele>
        <time>2013-03-10T10:00:48.68Z</time>
      </trkpt>
      <trkpt lat="45.85498" lon="4.80679">
        <ele>310.6</ele>
        <time>2013-03-10T10:00:50.57Z</time>
      </trkpt>
      <trkpt lat="45.85499" lon="4.80676">
        <ele>310.2</ele>
        <time>2013-03-10T10:00:51.63Z</time>
      </trkpt>
      <trkpt lat="45.85498" lon="4.80673">
        <ele>310.1</ele>
        <time>2013-03-10T10:00:52.56Z</time>
      </trkpt>
      <trkpt lat="45.85497" lon="4.8067">
        <ele>310</ele>
        <time>2013-03-10T10:00:53.65Z</time>
      </trkpt>
      <trkpt lat="45.85493" lon="4.80664">
        <ele>310</ele>
        <time>2013-03-10T10:00:55.57Z</time>
      </trkpt>
      <trkpt lat="45.85491" lon="4.8066">
        <ele>309.9</ele>
        <time>2013-03-10T10:00:56.63Z</time>
      </trkpt>
      <trkpt lat="45.85491" lon="4.80654">
        <ele>309.5</ele>
        <time>2013-03-10T10:00:57.57Z</time>
      </trkpt>
      <trkpt lat="45.85492" lon="4.80649">
        <ele>308.8</ele>
        <time>2013-03-10T10:00:58.73Z</time>
      </trkpt>
      <trkpt lat="45.85498" lon="4.80642">
        <ele>333.5</ele>
        <time>2013-03-10T10:01:00.63Z</time>
      </trkpt>
      <trkpt lat="45.85502" lon="4.80642">
        <ele>306</ele>
        <time>2013-03-10T10:01:01.56Z</time>
      </trkpt>
      <trkpt lat="45.85508" lon="4.80642">
        <ele>305.1</ele>
        <time>2013-03-10T10:01:02.63Z</time>
      </trkpt>
      <trkpt lat="45.85513" lon="4.80642">
        <ele>304.4</ele>
        <time>2013-03-10T10:01:03.56Z</time>
      </trkpt>
      <trkpt lat="45.85517" lon="4.80641">
        <ele>303.7</ele>
        <time>2013-03-10T10:01:04.56Z</time>
      </trkpt>
      <trkpt lat="45.85521" lon="4.80641">
        <ele>303.1</ele>
        <time>2013-03-10T10:01:05.63Z</time>
      </trkpt>
      <trkpt lat="45.85525" lon="4.8064">
        <ele>302.5</ele>
        <time>2013-03-10T10:01:06.57Z</time>
      </trkpt>
      <trkpt lat="45.85529" lon="4.80641">
        <ele>302</ele>
        <time>2013-03-10T10:01:07.63Z</time>
      </trkpt>
      <trkpt lat="45.85536" lon="4.80641">
        <ele>301.5</ele>
        <time>2013-03-10T10:01:09.63Z</time>
      </trkpt>
      <trkpt lat="45.85543" lon="4.80642">
        <ele>301</ele>
        <time>2013-03-10T10:01:11.43Z</time>
      </trkpt>
      <trkpt lat="45.8555" lon="4.80643">
        <ele>300.4</ele>
        <time>2013-03-10T10:01:13.41Z</time>
      </trkpt>
      <trkpt lat="45.85558" lon="4.80646">
        <ele>299.8</ele>
        <time>2013-03-10T10:01:15.43Z</time>
      </trkpt>
      <trkpt lat="45.85561" lon="4.80646">
        <ele>299.6</ele>
        <time>2013-03-10T10:01:16.43Z</time>
      </trkpt>
      <trkpt lat="45.85565" lon="4.80644">
        <ele>299.2</ele>
        <time>2013-03-10T10:01:18.66Z</time>
      </trkpt>
      <trkpt lat="45.85567" lon="4.80642">
        <ele>299.2</ele>
        <time>2013-03-10T10:01:19.56Z</time>
      </trkpt>
      <trkpt lat="45.85568" lon="4.80638">
        <ele>299.1</ele>
        <time>2013-03-10T10:01:20.56Z</time>
      </trkpt>
      <trkpt lat="45.85569" lon="4.80633">
        <ele>299.2</ele>
        <time>2013-03-10T10:01:21.56Z</time>
      </trkpt>
      <trkpt lat="45.8557" lon="4.8063">
        <ele>299.3</ele>
        <time>2013-03-10T10:01:22.56Z</time>
      </trkpt>
      <trkpt lat="45.8557" lon="4.80626">
        <ele>299.4</ele>
        <time>2013-03-10T10:01:23.56Z</time>
      </trkpt>
      <trkpt lat="45.85571" lon="4.80622">
        <ele>299.5</ele>
        <time>2013-03-10T10:01:24.56Z</time>
      </trkpt>
      <trkpt lat="45.8557" lon="4.80618">
        <ele>299.7</ele>
        <time>2013-03-10T10:01:25.56Z</time>
      </trkpt>
      <trkpt lat="45.8557" lon="4.80614">
        <ele>299.8</ele>
        <time>2013-03-10T10:01:26.56Z</time>
      </trkpt>
      <trkpt lat="45.85571" lon="4.8061">
        <ele>300</ele>
        <time>2013-03-10T10:01:27.56Z</time>
      </trkpt>
      <trkpt lat="45.85572" lon="4.80605">
        <ele>300.2</ele>
        <time>2013-03-10T10:01:28.56Z</time>
      </trkpt>
      <trkpt lat="45.85573" lon="4.80601">
        <ele>300.4</ele>
        <time>2013-03-10T10:01:29.56Z</time>
      </trkpt>
      <trkpt lat="45.85574" lon="4.80597">
        <ele>300.7</ele>
        <time>2013-03-10T10:01:30.56Z</time>
      </trkpt>
      <trkpt lat="45.85575" lon="4.80593">
        <ele>300.9</ele>
        <time>2013-03-10T10:01:31.56Z</time>
      </trkpt>
      <trkpt lat="45.85577" lon="4.8059">
        <ele>301.3</ele>
        <time>2013-03-10T10:01:32.56Z</time>
      </trkpt>
      <trkpt lat="45.85579" lon="4.80586">
        <ele>301.6</ele>
        <time>2013-03-10T10:01:33.57Z</time>
      </trkpt>
      <trkpt lat="45.85582" lon="4.80579">
        <ele>302</ele>
        <time>2013-03-10T10:01:35.42Z</time>
      </trkpt>
      <trkpt lat="45.85583" lon="4.80575">
        <ele>302</ele>
        <time>2013-03-10T10:01:36.43Z</time>
      </trkpt>
      <trkpt lat="45.85585" lon="4.80567">
        <ele>302.3</ele>
        <time>2013-03-10T10:01:38.42Z</time>
      </trkpt>
      <trkpt lat="45.85587" lon="4.80564">
        <ele>302.6</ele>
        <time>2013-03-10T10:01:39.42Z</time>
      </trkpt>
      <trkpt lat="45.85587" lon="4.80562">
        <ele>302.7</ele>
        <time>2013-03-10T10:01:40.76Z</time>
      </trkpt>
      <trkpt lat="45.85591" lon="4.80557">
        <ele>303.7</ele>
        <time>2013-03-10T10:01:42.42Z</time>
      </trkpt>
      <trkpt lat="45.85593" lon="4.80555">
        <ele>304.2</ele>
        <time>2013-03-10T10:01:43.75Z</time>
      </trkpt>
      <trkpt lat="45.85597" lon="4.80552">
        <ele>305.4</ele>
        <time>2013-03-10T10:01:45.62Z</time>
      </trkpt>
      <trkpt lat="45.85601" lon="4.80549">
        <ele>306.5</ele>
        <time>2013-03-10T10:01:47.62Z</time>
      </trkpt>
      <trkpt lat="45.85603" lon="4.80548">
        <ele>307.1</ele>
        <time>2013-03-10T10:01:48.65Z</time>
      </trkpt>
      <trkpt lat="45.85607" lon="4.80547">
        <ele>308</ele>
        <time>2013-03-10T10:01:50.64Z</time>
      </trkpt>
      <trkpt lat="45.85612" lon="4.80547">
        <ele>309.3</ele>
        <time>2013-03-10T10:01:52.56Z</time>
      </trkpt>
      <trkpt lat="45.85615" lon="4.80547">
        <ele>310</ele>
        <time>2013-03-10T10:01:53.56Z</time>
      </trkpt>
      <trkpt lat="45.85616" lon="4.80547">
        <ele>310.4</ele>
        <time>2013-03-10T10:01:54.56Z</time>
      </trkpt>
      <trkpt lat="45.85617" lon="4.80548">
        <ele>310.8</ele>
        <time>2013-03-10T10:01:55.56Z</time>
      </trkpt>
      <trkpt lat="45.85619" lon="4.80549">
        <ele>311.1</ele>
        <time>2013-03-10T10:01:56.56Z</time>
      </trkpt>
      <trkpt lat="45.85621" lon="4.8055">
        <ele>311.6</ele>
        <time>2013-03-10T10:01:57.56Z</time>
      </trkpt>
      <trkpt lat="45.85623" lon="4.80551">
        <ele>311.9</ele>
        <time>2013-03-10T10:01:58.56Z</time>
      </trkpt>
      <trkpt lat="45.85625" lon="4.80551">
        <ele>312.6</ele>
        <time>2013-03-10T10:01:59.59Z</time>
      </trkpt>
      <trkpt lat="45.85629" lon="4.80551">
        <ele>316.9</ele>
        <time>2013-03-10T10:02:01.56Z</time>
      </trkpt>
      <trkpt lat="45.85631" lon="4.8055">
        <ele>314.6</ele>
        <time>2013-03-10T10:02:02.57Z</time>
      </trkpt>
      <trkpt lat="45.85632" lon="4.80549">
        <ele>315.1</ele>
        <time>2013-03-10T10:02:03.56Z</time>
      </trkpt>
      <trkpt lat="45.85633" lon="4.80549">
        <ele>315.4</ele>
        <time>2013-03-10T10:02:05.56Z</time>
      </trkpt>
      <trkpt lat="45.85634" lon="4.80548">
        <ele>315.9</ele>
        <time>2013-03-10T10:02:08.56Z</time>
      </trkpt>
      <trkpt lat="45.85634" lon="4.80546">
        <ele>316.3</ele>
        <time>2013-03-10T10:02:12.56Z</time>
      </trkpt>
      <trkpt lat="45.85634" lon="4.80544">
        <ele>316.7</ele>
        <time>2013-03-10T10:02:13.56Z</time>
      </trkpt>
      <trkpt lat="45.85634" lon="4.80541">
        <ele>317</ele>
        <time>2013-03-10T10:02:14.56Z</time>
      </trkpt>
      <trkpt lat="45.85633" lon="4.80539">
        <ele>317.2</ele>
        <time>2013-03-10T10:02:16.57Z</time>
      </trkpt>
      <trkpt lat="45.85633" lon="4.80538">
        <ele>317.1</ele>
        <time>2013-03-10T10:02:17.61Z</time>
      </trkpt>
      <trkpt lat="45.85632" lon="4.80536">
        <ele>317.4</ele>
        <time>2013-03-10T10:02:18.64Z</time>
      </trkpt>
      <trkpt lat="45.85632" lon="4.80532">
        <ele>317.7</ele>
        <time>2013-03-10T10:02:20.56Z</time>
      </trkpt>
      <trkpt lat="45.85631" lon="4.8053">
        <ele>317.9</ele>
        <time>2013-03-10T10:02:23.56Z</time>
      </trkpt>
      <trkpt lat="45.85632" lon="4.80528">
        <ele>318.4</ele>
        <time>2013-03-10T10:02:24.56Z</time>
      </trkpt>
      <trkpt lat="45.85632" lon="4.80527">
        <ele>318.8</ele>
        <time>2013-03-10T10:02:26.56Z</time>
      </trkpt>
      <trkpt lat="45.85633" lon="4.80524">
        <ele>319.4</ele>
        <time>2013-03-10T10:02:27.56Z</time>
      </trkpt>
      <trkpt lat="45.85633" lon="4.80521">
        <ele>320.1</ele>
        <time>2013-03-10T10:02:28.56Z</time>
      </trkpt>
      <trkpt lat="45.85633" lon="4.80518">
        <ele>320.9</ele>
        <time>2013-03-10T10:02:29.56Z</time>
      </trkpt>
      <trkpt lat="45.85633" lon="4.80515">
        <ele>321.4</ele>
        <time>2013-03-10T10:02:30.58Z</time>
      </trkpt>
      <trkpt lat="45.85633" lon="4.80513">
        <ele>321.7</ele>
        <time>2013-03-10T10:02:31.56Z</time>
      </trkpt>
      <trkpt lat="45.85633" lon="4.80511">
        <ele>322.3</ele>
        <time>2013-03-10T10:02:32.56Z</time>
      </trkpt>
      <trkpt lat="45.85633" lon="4.80508">
        <ele>322.9</ele>
        <time>2013-03-10T10:02:33.57Z</time>
      </trkpt>
      <trkpt lat="45.85633" lon="4.80506">
        <ele>323.3</ele>
        <time>2013-03-10T10:02:34.61Z</time>
      </trkpt>
      <trkpt lat="45.85633" lon="4.80504">
        <ele>323.7</ele>
        <time>2013-03-10T10:02:38.66Z</time>
      </trkpt>
      <trkpt lat="45.85633" lon="4.80501">
        <ele>324.1</ele>
        <time>2013-03-10T10:02:40.56Z</time>
      </trkpt>
      <trkpt lat="45.85632" lon="4.80499">
        <ele>324.1</ele>
        <time>2013-03-10T10:02:41.57Z</time>
      </trkpt>
      <trkpt lat="45.85631" lon="4.80498">
        <ele>324.1</ele>
        <time>2013-03-10T10:02:42.56Z</time>
      </trkpt>
      <trkpt lat="45.85632" lon="4.80496">
        <ele>324.9</ele>
        <time>2013-03-10T10:02:43.58Z</time>
      </trkpt>
      <trkpt lat="45.85632" lon="4.80493">
        <ele>325.5</ele>
        <time>2013-03-10T10:02:44.56Z</time>
      </trkpt>
      <trkpt lat="45.85632" lon="4.80491">
        <ele>325.8</ele>
        <time>2013-03-10T10:02:45.56Z</time>
      </trkpt>
      <trkpt lat="45.85631" lon="4.80489">
        <ele>325.7</ele>
        <time>2013-03-10T10:02:46.56Z</time>
      </trkpt>
      <trkpt lat="45.85631" lon="4.80488">
        <ele>326</ele>
        <time>2013-03-10T10:02:47.56Z</time>
      </trkpt>
      <trkpt lat="45.85633" lon="4.80486">
        <ele>327</ele>
        <time>2013-03-10T10:02:49.61Z</time>
      </trkpt>
      <trkpt lat="45.85633" lon="4.80485">
        <ele>327.3</ele>
        <time>2013-03-10T10:02:50.66Z</time>
      </trkpt>
      <trkpt lat="45.85633" lon="4.80483">
        <ele>327.9</ele>
        <time>2013-03-10T10:02:53.56Z</time>
      </trkpt>
      <trkpt lat="45.85633" lon="4.80481">
        <ele>328.2</ele>
        <time>2013-03-10T10:02:54.56Z</time>
      </trkpt>
      <trkpt lat="45.85632" lon="4.80479">
        <ele>328.3</ele>
        <time>2013-03-10T10:02:55.56Z</time>
      </trkpt>
      <trkpt lat="45.85632" lon="4.80478">
        <ele>328.4</ele>
        <time>2013-03-10T10:02:56.58Z</time>
      </trkpt>
      <trkpt lat="45.85632" lon="4.80476">
        <ele>328.9</ele>
        <time>2013-03-10T10:02:58.56Z</time>
      </trkpt>
      <trkpt lat="45.85633" lon="4.80473">
        <ele>329.7</ele>
        <time>2013-03-10T10:02:59.59Z</time>
      </trkpt>
      <trkpt lat="45.85633" lon="4.80471">
        <ele>330.2</ele>
        <time>2013-03-10T10:03:00.63Z</time>
      </trkpt>
      <trkpt lat="45.85634" lon="4.80468">
        <ele>331.4</ele>
        <time>2013-03-10T10:03:02.56Z</time>
      </trkpt>
      <trkpt lat="45.85635" lon="4.80466">
        <ele>332.2</ele>
        <time>2013-03-10T10:03:03.56Z</time>
      </trkpt>
      <trkpt lat="45.85636" lon="4.80464">
        <ele>332.6</ele>
        <time>2013-03-10T10:03:04.56Z</time>
      </trkpt>
      <trkpt lat="45.85636" lon="4.80463">
        <ele>332.9</ele>
        <time>2013-03-10T10:03:05.56Z</time>
      </trkpt>
      <trkpt lat="45.85636" lon="4.80462">
        <ele>333.3</ele>
        <time>2013-03-10T10:03:06.56Z</time>
      </trkpt>
      <trkpt lat="45.85637" lon="4.8046">
        <ele>334</ele>
        <time>2013-03-10T10:03:07.56Z</time>
      </trkpt>
      <trkpt lat="45.85638" lon="4.80459">
        <ele>334.6</ele>
        <time>2013-03-10T10:03:08.56Z</time>
      </trkpt>
      <trkpt lat="45.85638" lon="4.80456">
        <ele>334.9</ele>
        <time>2013-03-10T10:03:11.56Z</time>
      </trkpt>
      <trkpt lat="45.85639" lon="4.80454">
        <ele>335.5</ele>
        <time>2013-03-10T10:03:12.56Z</time>
      </trkpt>
      <trkpt lat="45.8564" lon="4.80453">
        <ele>336.1</ele>
        <time>2013-03-10T10:03:14.6Z</time>
      </trkpt>
      <trkpt lat="45.8564" lon="4.80451">
        <ele>336.4</ele>
        <time>2013-03-10T10:03:15.6Z</time>
      </trkpt>
      <trkpt lat="45.85641" lon="4.8045">
        <ele>336.9</ele>
        <time>2013-03-10T10:03:16.65Z</time>
      </trkpt>
      <trkpt lat="45.85642" lon="4.80448">
        <ele>337.4</ele>
        <time>2013-03-10T10:03:18.56Z</time>
      </trkpt>
      <trkpt lat="45.85643" lon="4.80447">
        <ele>337.9</ele>
        <time>2013-03-10T10:03:19.56Z</time>
      </trkpt>
      <trkpt lat="45.85644" lon="4.80446">
        <ele>338.6</ele>
        <time>2013-03-10T10:03:20.56Z</time>
      </trkpt>
      <trkpt lat="45.85645" lon="4.80444">
        <ele>339.1</ele>
        <time>2013-03-10T10:03:21.56Z</time>
      </trkpt>
      <trkpt lat="45.85645" lon="4.80443">
        <ele>339.5</ele>
        <time>2013-03-10T10:03:22.57Z</time>
      </trkpt>
      <trkpt lat="45.85646" lon="4.80441">
        <ele>339.8</ele>
        <time>2013-03-10T10:03:23.56Z</time>
      </trkpt>
      <trkpt lat="45.85646" lon="4.8044">
        <ele>340.1</ele>
        <time>2013-03-10T10:03:24.56Z</time>
      </trkpt>
      <trkpt lat="45.85646" lon="4.80438">
        <ele>340.4</ele>
        <time>2013-03-10T10:03:25.56Z</time>
      </trkpt>
      <trkpt lat="45.85647" lon="4.80436">
        <ele>341</ele>
        <time>2013-03-10T10:03:26.56Z</time>
      </trkpt>
      <trkpt lat="45.85649" lon="4.80434">
        <ele>341.9</ele>
        <time>2013-03-10T10:03:27.56Z</time>
      </trkpt>
      <trkpt lat="45.8565" lon="4.80433">
        <ele>342.5</ele>
        <time>2013-03-10T10:03:28.56Z</time>
      </trkpt>
      <trkpt lat="45.8565" lon="4.80431">
        <ele>342.7</ele>
        <time>2013-03-10T10:03:29.6Z</time>
      </trkpt>
      <trkpt lat="45.8565" lon="4.80428">
        <ele>343.1</ele>
        <time>2013-03-10T10:03:31.59Z</time>
      </trkpt>
      <trkpt lat="45.8565" lon="4.80426">
        <ele>343.4</ele>
        <time>2013-03-10T10:03:33.57Z</time>
      </trkpt>
      <trkpt lat="45.85651" lon="4.80424">
        <ele>343.8</ele>
        <time>2013-03-10T10:03:34.59Z</time>
      </trkpt>
      <trkpt lat="45.85651" lon="4.80423">
        <ele>344</ele>
        <time>2013-03-10T10:03:36.59Z</time>
      </trkpt>
      <trkpt lat="45.8565" lon="4.80421">
        <ele>344.1</ele>
        <time>2013-03-10T10:03:37.59Z</time>
      </trkpt>
      <trkpt lat="45.8565" lon="4.8042">
        <ele>344.2</ele>
        <time>2013-03-10T10:03:38.64Z</time>
      </trkpt>
      <trkpt lat="45.85649" lon="4.80417">
        <ele>344.1</ele>
        <time>2013-03-10T10:03:40.56Z</time>
      </trkpt>
      <trkpt lat="45.85648" lon="4.80415">
        <ele>344</ele>
        <time>2013-03-10T10:03:41.57Z</time>
      </trkpt>
      <trkpt lat="45.85648" lon="4.80412">
        <ele>344.3</ele>
        <time>2013-03-10T10:03:42.56Z</time>
      </trkpt>
      <trkpt lat="45.85648" lon="4.80409">
        <ele>344.7</ele>
        <time>2013-03-10T10:03:43.56Z</time>
      </trkpt>
      <trkpt lat="45.85648" lon="4.80406">
        <ele>345.1</ele>
        <time>2013-03-10T10:03:44.62Z</time>
      </trkpt>
      <trkpt lat="45.85647" lon="4.804">
        <ele>345.5</ele>
        <time>2013-03-10T10:03:46.56Z</time>
      </trkpt>
      <trkpt lat="45.85647" lon="4.80397">
        <ele>345.7</ele>
        <time>2013-03-10T10:03:47.56Z</time>
      </trkpt>
      <trkpt lat="45.85646" lon="4.80394">
        <ele>345.8</ele>
        <time>2013-03-10T10:03:48.57Z</time>
      </trkpt>
      <trkpt lat="45.85645" lon="4.80392">
        <ele>345.8</ele>
        <time>2013-03-10T10:03:49.59Z</time>
      </trkpt>
      <trkpt lat="45.85645" lon="4.80389">
        <ele>345.8</ele>
        <time>2013-03-10T10:03:50.62Z</time>
      </trkpt>
      <trkpt lat="45.85643" lon="4.80382">
        <ele>345.6</ele>
        <time>2013-03-10T10:03:52.56Z</time>
      </trkpt>
      <trkpt lat="45.85642" lon="4.80379">
        <ele>345.6</ele>
        <time>2013-03-10T10:03:53.56Z</time>
      </trkpt>
      <trkpt lat="45.85643" lon="4.80375">
        <ele>346</ele>
        <time>2013-03-10T10:03:54.56Z</time>
      </trkpt>
      <trkpt lat="45.85643" lon="4.8037">
        <ele>346.3</ele>
        <time>2013-03-10T10:03:55.56Z</time>
      </trkpt>
      <trkpt lat="45.85643" lon="4.80366">
        <ele>346.4</ele>
        <time>2013-03-10T10:03:56.56Z</time>
      </trkpt>
      <trkpt lat="45.85643" lon="4.80362">
        <ele>346.6</ele>
        <time>2013-03-10T10:03:57.56Z</time>
      </trkpt>
      <trkpt lat="45.85643" lon="4.80357">
        <ele>347.1</ele>
        <time>2013-03-10T10:03:58.56Z</time>
      </trkpt>
      <trkpt lat="45.85644" lon="4.80354">
        <ele>347.6</ele>
        <time>2013-03-10T10:03:59.59Z</time>
      </trkpt>
      <trkpt lat="45.85644" lon="4.80348">
        <ele>348</ele>
        <time>2013-03-10T10:04:01.56Z</time>
      </trkpt>
      <trkpt lat="45.85645" lon="4.80346">
        <ele>348.6</ele>
        <time>2013-03-10T10:04:02.56Z</time>
      </trkpt>
      <trkpt lat="45.85646" lon="4.80344">
        <ele>349.2</ele>
        <time>2013-03-10T10:04:03.56Z</time>
      </trkpt>
      <trkpt lat="45.85646" lon="4.80342">
        <ele>349.6</ele>
        <time>2013-03-10T10:04:04.59Z</time>
      </trkpt>
      <trkpt lat="45.85647" lon="4.80341">
        <ele>350.2</ele>
        <time>2013-03-10T10:04:05.63Z</time>
      </trkpt>
      <trkpt lat="45.8565" lon="4.80339">
        <ele>351.5</ele>
        <time>2013-03-10T10:04:07.56Z</time>
      </trkpt>
      <trkpt lat="45.85651" lon="4.80338">
        <ele>352.1</ele>
        <time>2013-03-10T10:04:08.56Z</time>
      </trkpt>
      <trkpt lat="45.85652" lon="4.80338">
        <ele>352.8</ele>
        <time>2013-03-10T10:04:09.59Z</time>
      </trkpt>
      <trkpt lat="45.85654" lon="4.80337">
        <ele>353.4</ele>
        <time>2013-03-10T10:04:10.62Z</time>
      </trkpt>
      <trkpt lat="45.85656" lon="4.80335">
        <ele>354.6</ele>
        <time>2013-03-10T10:04:12.56Z</time>
      </trkpt>
      <trkpt lat="45.85657" lon="4.80333">
        <ele>355.6</ele>
        <time>2013-03-10T10:04:14.57Z</time>
      </trkpt>
      <trkpt lat="45.85658" lon="4.80332">
        <ele>356.2</ele>
        <time>2013-03-10T10:04:15.56Z</time>
      </trkpt>
      <trkpt lat="45.85659" lon="4.80331">
        <ele>356.7</ele>
        <time>2013-03-10T10:04:16.58Z</time>
      </trkpt>
      <trkpt lat="45.8566" lon="4.8033">
        <ele>357.2</ele>
        <time>2013-03-10T10:04:17.58Z</time>
      </trkpt>
      <trkpt lat="45.85661" lon="4.80329">
        <ele>357.4</ele>
        <time>2013-03-10T10:04:20.58Z</time>
      </trkpt>
      <trkpt lat="45.85662" lon="4.80329">
        <ele>357.8</ele>
        <time>2013-03-10T10:04:21.58Z</time>
      </trkpt>
      <trkpt lat="45.85663" lon="4.80328">
        <ele>358.6</ele>
        <time>2013-03-10T10:04:23.68Z</time>
      </trkpt>
      <trkpt lat="45.85665" lon="4.80326">
        <ele>359.3</ele>
        <time>2013-03-10T10:04:25.56Z</time>
      </trkpt>
      <trkpt lat="45.85665" lon="4.80324">
        <ele>359.7</ele>
        <time>2013-03-10T10:04:26.59Z</time>
      </trkpt>
      <trkpt lat="45.85666" lon="4.80323">
        <ele>360.1</ele>
        <time>2013-03-10T10:04:27.58Z</time>
      </trkpt>
      <trkpt lat="45.85668" lon="4.80321">
        <ele>360.8</ele>
        <time>2013-03-10T10:04:28.66Z</time>
      </trkpt>
      <trkpt lat="45.85669" lon="4.80318">
        <ele>361.6</ele>
        <time>2013-03-10T10:04:30.56Z</time>
      </trkpt>
      <trkpt lat="45.8567" lon="4.80318">
        <ele>362</ele>
        <time>2013-03-10T10:04:31.56Z</time>
      </trkpt>
      <trkpt lat="45.85671" lon="4.80317">
        <ele>362.5</ele>
        <time>2013-03-10T10:04:33.57Z</time>
      </trkpt>
      <trkpt lat="45.85672" lon="4.80316">
        <ele>362.9</ele>
        <time>2013-03-10T10:04:35.58Z</time>
      </trkpt>
      <trkpt lat="45.85673" lon="4.80314">
        <ele>363.2</ele>
        <time>2013-03-10T10:04:37.58Z</time>
      </trkpt>
      <trkpt lat="45.85673" lon="4.80311">
        <ele>363.7</ele>
        <time>2013-03-10T10:04:41.57Z</time>
      </trkpt>
      <trkpt lat="45.85674" lon="4.80309">
        <ele>364</ele>
        <time>2013-03-10T10:04:43.56Z</time>
      </trkpt>
      <trkpt lat="45.85674" lon="4.80308">
        <ele>364.4</ele>
        <time>2013-03-10T10:04:45.62Z</time>
      </trkpt>
      <trkpt lat="45.85675" lon="4.80308">
        <ele>364.8</ele>
        <time>2013-03-10T10:04:47.58Z</time>
      </trkpt>
      <trkpt lat="45.85677" lon="4.80306">
        <ele>365.8</ele>
        <time>2013-03-10T10:04:49.58Z</time>
      </trkpt>
      <trkpt lat="45.85678" lon="4.80305">
        <ele>366.3</ele>
        <time>2013-03-10T10:04:50.63Z</time>
      </trkpt>
      <trkpt lat="45.85681" lon="4.80303">
        <ele>367.5</ele>
        <time>2013-03-10T10:04:52.56Z</time>
      </trkpt>
      <trkpt lat="45.85682" lon="4.80303">
        <ele>368.1</ele>
        <time>2013-03-10T10:04:53.57Z</time>
      </trkpt>
      <trkpt lat="45.85684" lon="4.80302">
        <ele>369</ele>
        <time>2013-03-10T10:04:56.56Z</time>
      </trkpt>
      <trkpt lat="45.85684" lon="4.803">
        <ele>369.4</ele>
        <time>2013-03-10T10:04:58.56Z</time>
      </trkpt>
      <trkpt lat="45.85686" lon="4.80298">
        <ele>369.7</ele>
        <time>2013-03-10T10:05:01.56Z</time>
      </trkpt>
      <trkpt lat="45.85687" lon="4.80296">
        <ele>370.6</ele>
        <time>2013-03-10T10:05:03.56Z</time>
      </trkpt>
      <trkpt lat="45.85688" lon="4.80294">
        <ele>371.2</ele>
        <time>2013-03-10T10:05:04.57Z</time>
      </trkpt>
      <trkpt lat="45.85689" lon="4.80293">
        <ele>372</ele>
        <time>2013-03-10T10:05:05.58Z</time>
      </trkpt>
      <trkpt lat="45.8569" lon="4.80291">
        <ele>372.3</ele>
        <time>2013-03-10T10:05:06.7Z</time>
      </trkpt>
      <trkpt lat="45.8569" lon="4.80288">
        <ele>372.5</ele>
        <time>2013-03-10T10:05:08.65Z</time>
      </trkpt>
      <trkpt lat="45.85692" lon="4.80285">
        <ele>373.4</ele>
        <time>2013-03-10T10:05:10.57Z</time>
      </trkpt>
      <trkpt lat="45.85693" lon="4.80284">
        <ele>373.8</ele>
        <time>2013-03-10T10:05:11.57Z</time>
      </trkpt>
      <trkpt lat="45.85693" lon="4.80283">
        <ele>374.3</ele>
        <time>2013-03-10T10:05:12.63Z</time>
      </trkpt>
      <trkpt lat="45.85696" lon="4.80281">
        <ele>375.2</ele>
        <time>2013-03-10T10:05:14.58Z</time>
      </trkpt>
      <trkpt lat="45.85696" lon="4.8028">
        <ele>375.4</ele>
        <time>2013-03-10T10:05:15.57Z</time>
      </trkpt>
      <trkpt lat="45.85697" lon="4.80278">
        <ele>375.7</ele>
        <time>2013-03-10T10:05:16.62Z</time>
      </trkpt>
      <trkpt lat="45.857" lon="4.80274">
        <ele>376.6</ele>
        <time>2013-03-10T10:05:18.56Z</time>
      </trkpt>
      <trkpt lat="45.85701" lon="4.80273">
        <ele>376.8</ele>
        <time>2013-03-10T10:05:19.57Z</time>
      </trkpt>
      <trkpt lat="45.85702" lon="4.80271">
        <ele>377.2</ele>
        <time>2013-03-10T10:05:21.57Z</time>
      </trkpt>
      <trkpt lat="45.85702" lon="4.80269">
        <ele>377.3</ele>
        <time>2013-03-10T10:05:23.66Z</time>
      </trkpt>
      <trkpt lat="45.85703" lon="4.80267">
        <ele>377.9</ele>
        <time>2013-03-10T10:05:25.56Z</time>
      </trkpt>
      <trkpt lat="45.85703" lon="4.80266">
        <ele>378.1</ele>
        <time>2013-03-10T10:05:26.56Z</time>
      </trkpt>
      <trkpt lat="45.85704" lon="4.80264">
        <ele>378.5</ele>
        <time>2013-03-10T10:05:27.56Z</time>
      </trkpt>
      <trkpt lat="45.85705" lon="4.80262">
        <ele>378.9</ele>
        <time>2013-03-10T10:05:28.66Z</time>
      </trkpt>
      <trkpt lat="45.85706" lon="4.80261">
        <ele>379.3</ele>
        <time>2013-03-10T10:05:30.56Z</time>
      </trkpt>
      <trkpt lat="45.85707" lon="4.8026">
        <ele>379.7</ele>
        <time>2013-03-10T10:05:31.56Z</time>
      </trkpt>
      <trkpt lat="45.85708" lon="4.80258">
        <ele>380.1</ele>
        <time>2013-03-10T10:05:32.56Z</time>
      </trkpt>
      <trkpt lat="45.85709" lon="4.80256">
        <ele>380.5</ele>
        <time>2013-03-10T10:05:33.79Z</time>
      </trkpt>
      <trkpt lat="45.85709" lon="4.80255">
        <ele>380.8</ele>
        <time>2013-03-10T10:05:35.66Z</time>
      </trkpt>
      <trkpt lat="45.8571" lon="4.80252">
        <ele>381.4</ele>
        <time>2013-03-10T10:05:37.66Z</time>
      </trkpt>
      <trkpt lat="45.8571" lon="4.8025">
        <ele>381.7</ele>
        <time>2013-03-10T10:05:39.56Z</time>
      </trkpt>
      <trkpt lat="45.85711" lon="4.80248">
        <ele>381.9</ele>
        <time>2013-03-10T10:05:40.66Z</time>
      </trkpt>
      <trkpt lat="45.85711" lon="4.80246">
        <ele>382.2</ele>
        <time>2013-03-10T10:05:42.66Z</time>
      </trkpt>
      <trkpt lat="45.85711" lon="4.80245">
        <ele>382.4</ele>
        <time>2013-03-10T10:05:43.56Z</time>
      </trkpt>
      <trkpt lat="45.85712" lon="4.80243">
        <ele>382.6</ele>
        <time>2013-03-10T10:05:44.66Z</time>
      </trkpt>
      <trkpt lat="45.85712" lon="4.8024">
        <ele>382.9</ele>
        <time>2013-03-10T10:05:45.56Z</time>
      </trkpt>
      <trkpt lat="45.85712" lon="4.80237">
        <ele>383.1</ele>
        <time>2013-03-10T10:05:46.66Z</time>
      </trkpt>
      <trkpt lat="45.85712" lon="4.80231">
        <ele>383.4</ele>
        <time>2013-03-10T10:05:48.66Z</time>
      </trkpt>
      <trkpt lat="45.85711" lon="4.80224">
        <ele>383.7</ele>
        <time>2013-03-10T10:05:50.57Z</time>
      </trkpt>
      <trkpt lat="45.85711" lon="4.80219">
        <ele>383.9</ele>
        <time>2013-03-10T10:05:52.66Z</time>
      </trkpt>
      <trkpt lat="45.85711" lon="4.80215">
        <ele>384.1</ele>
        <time>2013-03-10T10:05:53.56Z</time>
      </trkpt>
      <trkpt lat="45.85711" lon="4.80212">
        <ele>384.3</ele>
        <time>2013-03-10T10:05:54.67Z</time>
      </trkpt>
      <trkpt lat="45.85711" lon="4.80206">
        <ele>384.8</ele>
        <time>2013-03-10T10:05:56.56Z</time>
      </trkpt>
      <trkpt lat="45.85712" lon="4.80204">
        <ele>385.1</ele>
        <time>2013-03-10T10:05:57.66Z</time>
      </trkpt>
      <trkpt lat="45.85714" lon="4.80204">
        <ele>385.6</ele>
        <time>2013-03-10T10:05:58.56Z</time>
      </trkpt>
      <trkpt lat="45.85715" lon="4.80205">
        <ele>385.9</ele>
        <time>2013-03-10T10:05:59.61Z</time>
      </trkpt>
      <trkpt lat="45.85717" lon="4.80207">
        <ele>387.6</ele>
        <time>2013-03-10T10:06:00.56Z</time>
      </trkpt>
      <trkpt lat="45.8572" lon="4.80209">
        <ele>387.1</ele>
        <time>2013-03-10T10:06:01.66Z</time>
      </trkpt>
      <trkpt lat="45.85722" lon="4.80211">
        <ele>387.7</ele>
        <time>2013-03-10T10:06:02.56Z</time>
      </trkpt>
      <trkpt lat="45.85724" lon="4.80213">
        <ele>387.8</ele>
        <time>2013-03-10T10:06:03.66Z</time>
      </trkpt>
      <trkpt lat="45.8573" lon="4.80216">
        <ele>388</ele>
        <time>2013-03-10T10:06:05.66Z</time>
      </trkpt>
      <trkpt lat="45.85734" lon="4.8022">
        <ele>388</ele>
        <time>2013-03-10T10:06:07.56Z</time>
      </trkpt>
      <trkpt lat="45.85737" lon="4.80222">
        <ele>388.1</ele>
        <time>2013-03-10T10:06:08.7Z</time>
      </trkpt>
      <trkpt lat="45.85742" lon="4.80225">
        <ele>388.3</ele>
        <time>2013-03-10T10:06:10.56Z</time>
      </trkpt>
      <trkpt lat="45.85746" lon="4.80227">
        <ele>388.4</ele>
        <time>2013-03-10T10:06:11.7Z</time>
      </trkpt>
      <trkpt lat="45.85751" lon="4.80231">
        <ele>388.4</ele>
        <time>2013-03-10T10:06:13.56Z</time>
      </trkpt>
      <trkpt lat="45.85754" lon="4.80234">
        <ele>388.4</ele>
        <time>2013-03-10T10:06:14.64Z</time>
      </trkpt>
      <trkpt lat="45.8576" lon="4.80239">
        <ele>388.3</ele>
        <time>2013-03-10T10:06:16.61Z</time>
      </trkpt>
      <trkpt lat="45.85763" lon="4.80241">
        <ele>388.3</ele>
        <time>2013-03-10T10:06:17.56Z</time>
      </trkpt>
      <trkpt lat="45.85766" lon="4.80243">
        <ele>388.3</ele>
        <time>2013-03-10T10:06:18.66Z</time>
      </trkpt>
      <trkpt lat="45.85771" lon="4.80247">
        <ele>388.1</ele>
        <time>2013-03-10T10:06:20.65Z</time>
      </trkpt>
      <trkpt lat="45.85777" lon="4.8025">
        <ele>387.9</ele>
        <time>2013-03-10T10:06:22.56Z</time>
      </trkpt>
      <trkpt lat="45.8578" lon="4.80252">
        <ele>387.9</ele>
        <time>2013-03-10T10:06:23.7Z</time>
      </trkpt>
      <trkpt lat="45.85785" lon="4.80255">
        <ele>387.9</ele>
        <time>2013-03-10T10:06:25.56Z</time>
      </trkpt>
      <trkpt lat="45.85788" lon="4.80257">
        <ele>387.8</ele>
        <time>2013-03-10T10:06:26.7Z</time>
      </trkpt>
      <trkpt lat="45.85793" lon="4.80262">
        <ele>387.7</ele>
        <time>2013-03-10T10:06:28.56Z</time>
      </trkpt>
      <trkpt lat="45.85795" lon="4.80264">
        <ele>387.6</ele>
        <time>2013-03-10T10:06:29.65Z</time>
      </trkpt>
      <trkpt lat="45.858" lon="4.80269">
        <ele>387.4</ele>
        <time>2013-03-10T10:06:31.65Z</time>
      </trkpt>
      <trkpt lat="45.85802" lon="4.80271">
        <ele>387.4</ele>
        <time>2013-03-10T10:06:32.56Z</time>
      </trkpt>
      <trkpt lat="45.85804" lon="4.80273">
        <ele>387.3</ele>
        <time>2013-03-10T10:06:33.7Z</time>
      </trkpt>
      <trkpt lat="45.8581" lon="4.80275">
        <ele>387.3</ele>
        <time>2013-03-10T10:06:35.56Z</time>
      </trkpt>
      <trkpt lat="45.85812" lon="4.80277">
        <ele>387.3</ele>
        <time>2013-03-10T10:06:36.65Z</time>
      </trkpt>
      <trkpt lat="45.85815" lon="4.8028">
        <ele>387.1</ele>
        <time>2013-03-10T10:06:37.56Z</time>
      </trkpt>
      <trkpt lat="45.85817" lon="4.80282">
        <ele>387</ele>
        <time>2013-03-10T10:06:38.7Z</time>
      </trkpt>
      <trkpt lat="45.85821" lon="4.80288">
        <ele>386.5</ele>
        <time>2013-03-10T10:06:40.56Z</time>
      </trkpt>
      <trkpt lat="45.85824" lon="4.80289">
        <ele>386.4</ele>
        <time>2013-03-10T10:06:41.65Z</time>
      </trkpt>
      <trkpt lat="45.85831" lon="4.80293">
        <ele>386.2</ele>
        <time>2013-03-10T10:06:43.57Z</time>
      </trkpt>
      <trkpt lat="45.85834" lon="4.80296">
        <ele>386.1</ele>
        <time>2013-03-10T10:06:44.65Z</time>
      </trkpt>
      <trkpt lat="45.8584" lon="4.80302">
        <ele>385.9</ele>
        <time>2013-03-10T10:06:46.65Z</time>
      </trkpt>
      <trkpt lat="45.85843" lon="4.80304">
        <ele>385.8</ele>
        <time>2013-03-10T10:06:47.57Z</time>
      </trkpt>
      <trkpt lat="45.85846" lon="4.80307">
        <ele>385.8</ele>
        <time>2013-03-10T10:06:48.66Z</time>
      </trkpt>
      <trkpt lat="45.85853" lon="4.8031">
        <ele>385.8</ele>
        <time>2013-03-10T10:06:50.57Z</time>
      </trkpt>
      <trkpt lat="45.85856" lon="4.80312">
        <ele>385.7</ele>
        <time>2013-03-10T10:06:51.65Z</time>
      </trkpt>
      <trkpt lat="45.85859" lon="4.80314">
        <ele>385.6</ele>
        <time>2013-03-10T10:06:52.56Z</time>
      </trkpt>
      <trkpt lat="45.85861" lon="4.80316">
        <ele>385.5</ele>
        <time>2013-03-10T10:06:53.78Z</time>
      </trkpt>
      <trkpt lat="45.85867" lon="4.80321">
        <ele>385.1</ele>
        <time>2013-03-10T10:06:55.64Z</time>
      </trkpt>
      <trkpt lat="45.85869" lon="4.80322">
        <ele>384.9</ele>
        <time>2013-03-10T10:06:56.56Z</time>
      </trkpt>
      <trkpt lat="45.85872" lon="4.80324">
        <ele>384.7</ele>
        <time>2013-03-10T10:06:57.64Z</time>
      </trkpt>
      <trkpt lat="45.85875" lon="4.80327">
        <ele>384.5</ele>
        <time>2013-03-10T10:06:58.56Z</time>
      </trkpt>
      <trkpt lat="45.85878" lon="4.80329">
        <ele>384.2</ele>
        <time>2013-03-10T10:06:59.64Z</time>
      </trkpt>
      <trkpt lat="45.85883" lon="4.80334">
        <ele>390.1</ele>
        <time>2013-03-10T10:07:01.64Z</time>
      </trkpt>
      <trkpt lat="45.8589" lon="4.80337">
        <ele>383.5</ele>
        <time>2013-03-10T10:07:03.73Z</time>
      </trkpt>
      <trkpt lat="45.85896" lon="4.8034">
        <ele>383.3</ele>
        <time>2013-03-10T10:07:05.56Z</time>
      </trkpt>
      <trkpt lat="45.85899" lon="4.80342">
        <ele>383.1</ele>
        <time>2013-03-10T10:07:06.64Z</time>
      </trkpt>
      <trkpt lat="45.85901" lon="4.80344">
        <ele>382.9</ele>
        <time>2013-03-10T10:07:07.56Z</time>
      </trkpt>
      <trkpt lat="45.85904" lon="4.80347">
        <ele>382.6</ele>
        <time>2013-03-10T10:07:08.73Z</time>
      </trkpt>
      <trkpt lat="45.85909" lon="4.80351">
        <ele>382.1</ele>
        <time>2013-03-10T10:07:10.56Z</time>
      </trkpt>
      <trkpt lat="45.85912" lon="4.80353">
        <ele>382</ele>
        <time>2013-03-10T10:07:11.64Z</time>
      </trkpt>
      <trkpt lat="45.85914" lon="4.80355">
        <ele>381.9</ele>
        <time>2013-03-10T10:07:12.56Z</time>
      </trkpt>
      <trkpt lat="45.85918" lon="4.80357">
        <ele>381.7</ele>
        <time>2013-03-10T10:07:13.69Z</time>
      </trkpt>
      <trkpt lat="45.85925" lon="4.80361">
        <ele>381.3</ele>
        <time>2013-03-10T10:07:15.64Z</time>
      </trkpt>
      <trkpt lat="45.85929" lon="4.80363">
        <ele>381.1</ele>
        <time>2013-03-10T10:07:16.57Z</time>
      </trkpt>
      <trkpt lat="45.85936" lon="4.80367">
        <ele>380.7</ele>
        <time>2013-03-10T10:07:18.65Z</time>
      </trkpt>
      <trkpt lat="45.85944" lon="4.80372">
        <ele>380.1</ele>
        <time>2013-03-10T10:07:20.56Z</time>
      </trkpt>
      <trkpt lat="45.85947" lon="4.80374">
        <ele>379.6</ele>
        <time>2013-03-10T10:07:21.63Z</time>
      </trkpt>
      <trkpt lat="45.85954" lon="4.80379">
        <ele>378.7</ele>
        <time>2013-03-10T10:07:23.67Z</time>
      </trkpt>
      <trkpt lat="45.8596" lon="4.80383">
        <ele>378</ele>
        <time>2013-03-10T10:07:25.64Z</time>
      </trkpt>
      <trkpt lat="45.85967" lon="4.80388">
        <ele>377.2</ele>
        <time>2013-03-10T10:07:27.64Z</time>
      </trkpt>
      <trkpt lat="45.85973" lon="4.80393">
        <ele>376.5</ele>
        <time>2013-03-10T10:07:29.56Z</time>
      </trkpt>
      <trkpt lat="45.85975" lon="4.80395">
        <ele>376.4</ele>
        <time>2013-03-10T10:07:30.64Z</time>
      </trkpt>
      <trkpt lat="45.85979" lon="4.80398">
        <ele>376.3</ele>
        <time>2013-03-10T10:07:31.56Z</time>
      </trkpt>
      <trkpt lat="45.85982" lon="4.80401">
        <ele>376.3</ele>
        <time>2013-03-10T10:07:32.64Z</time>
      </trkpt>
      <trkpt lat="45.85985" lon="4.80404">
        <ele>376.1</ele>
        <time>2013-03-10T10:07:33.57Z</time>
      </trkpt>
      <trkpt lat="45.85988" lon="4.80408">
        <ele>376</ele>
        <time>2013-03-10T10:07:34.56Z</time>
      </trkpt>
      <trkpt lat="45.85992" lon="4.80411">
        <ele>375.9</ele>
        <time>2013-03-10T10:07:35.63Z</time>
      </trkpt>
      <trkpt lat="45.86" lon="4.80418">
        <ele>375.8</ele>
        <time>2013-03-10T10:07:37.56Z</time>
      </trkpt>
      <trkpt lat="45.86003" lon="4.8042">
        <ele>375.6</ele>
        <time>2013-03-10T10:07:38.66Z</time>
      </trkpt>
      <trkpt lat="45.86006" lon="4.80423">
        <ele>375.4</ele>
        <time>2013-03-10T10:07:39.71Z</time>
      </trkpt>
      <trkpt lat="45.86011" lon="4.8043">
        <ele>374.8</ele>
        <time>2013-03-10T10:07:41.56Z</time>
      </trkpt>
      <trkpt lat="45.86014" lon="4.80433">
        <ele>374.5</ele>
        <time>2013-03-10T10:07:42.63Z</time>
      </trkpt>
      <trkpt lat="45.86017" lon="4.80436">
        <ele>374.3</ele>
        <time>2013-03-10T10:07:43.56Z</time>
      </trkpt>
      <trkpt lat="45.8602" lon="4.80439">
        <ele>374.1</ele>
        <time>2013-03-10T10:07:44.63Z</time>
      </trkpt>
      <trkpt lat="45.86022" lon="4.80442">
        <ele>373.8</ele>
        <time>2013-03-10T10:07:45.56Z</time>
      </trkpt>
      <trkpt lat="45.86025" lon="4.80444">
        <ele>373.8</ele>
        <time>2013-03-10T10:07:46.63Z</time>
      </trkpt>
      <trkpt lat="45.86028" lon="4.80447">
        <ele>373.6</ele>
        <time>2013-03-10T10:07:47.56Z</time>
      </trkpt>
      <trkpt lat="45.8603" lon="4.8045">
        <ele>373.3</ele>
        <time>2013-03-10T10:07:48.66Z</time>
      </trkpt>
      <trkpt lat="45.86036" lon="4.80454">
        <ele>372.9</ele>
        <time>2013-03-10T10:07:50.59Z</time>
      </trkpt>
      <trkpt lat="45.86039" lon="4.80456">
        <ele>372.7</ele>
        <time>2013-03-10T10:07:51.56Z</time>
      </trkpt>
      <trkpt lat="45.86042" lon="4.80459">
        <ele>372.4</ele>
        <time>2013-03-10T10:07:52.63Z</time>
      </trkpt>
      <trkpt lat="45.86044" lon="4.80461">
        <ele>372.3</ele>
        <time>2013-03-10T10:07:53.56Z</time>
      </trkpt>
      <trkpt lat="45.86047" lon="4.80463">
        <ele>372.1</ele>
        <time>2013-03-10T10:07:54.63Z</time>
      </trkpt>
      <trkpt lat="45.8605" lon="4.80465">
        <ele>371.9</ele>
        <time>2013-03-10T10:07:55.56Z</time>
      </trkpt>
      <trkpt lat="45.86053" lon="4.80467">
        <ele>371.8</ele>
        <time>2013-03-10T10:07:56.63Z</time>
      </trkpt>
      <trkpt lat="45.86058" lon="4.80471">
        <ele>371.3</ele>
        <time>2013-03-10T10:07:58.66Z</time>
      </trkpt>
      <trkpt lat="45.86061" lon="4.80473">
        <ele>371</ele>
        <time>2013-03-10T10:07:59.68Z</time>
      </trkpt>
      <trkpt lat="45.86067" lon="4.80477">
        <ele>380.2</ele>
        <time>2013-03-10T10:08:01.63Z</time>
      </trkpt>
      <trkpt lat="45.8607" lon="4.80479">
        <ele>370.6</ele>
        <time>2013-03-10T10:08:02.64Z</time>
      </trkpt>
      <trkpt lat="45.86076" lon="4.80483">
        <ele>370.2</ele>
        <time>2013-03-10T10:08:04.63Z</time>
      </trkpt>
      <trkpt lat="45.8608" lon="4.80485">
        <ele>370</ele>
        <time>2013-03-10T10:08:05.63Z</time>
      </trkpt>
      <trkpt lat="45.86086" lon="4.8049">
        <ele>369.6</ele>
        <time>2013-03-10T10:08:07.63Z</time>
      </trkpt>
      <trkpt lat="45.86092" lon="4.80493">
        <ele>369.4</ele>
        <time>2013-03-10T10:08:09.71Z</time>
      </trkpt>
      <trkpt lat="45.86099" lon="4.80496">
        <ele>369.2</ele>
        <time>2013-03-10T10:08:11.56Z</time>
      </trkpt>
      <trkpt lat="45.86103" lon="4.80499">
        <ele>368.9</ele>
        <time>2013-03-10T10:08:12.56Z</time>
      </trkpt>
      <trkpt lat="45.86106" lon="4.80501">
        <ele>368.7</ele>
        <time>2013-03-10T10:08:13.56Z</time>
      </trkpt>
      <trkpt lat="45.86109" lon="4.80502">
        <ele>368.5</ele>
        <time>2013-03-10T10:08:14.56Z</time>
      </trkpt>
      <trkpt lat="45.86113" lon="4.80504">
        <ele>368.3</ele>
        <time>2013-03-10T10:08:15.63Z</time>
      </trkpt>
      <trkpt lat="45.86116" lon="4.80506">
        <ele>368</ele>
        <time>2013-03-10T10:08:16.68Z</time>
      </trkpt>
      <trkpt lat="45.86123" lon="4.80509">
        <ele>367.4</ele>
        <time>2013-03-10T10:08:18.56Z</time>
      </trkpt>
      <trkpt lat="45.86126" lon="4.8051">
        <ele>367.1</ele>
        <time>2013-03-10T10:08:19.56Z</time>
      </trkpt>
      <trkpt lat="45.8613" lon="4.80512">
        <ele>366.9</ele>
        <time>2013-03-10T10:08:20.56Z</time>
      </trkpt>
      <trkpt lat="45.86134" lon="4.80513">
        <ele>366.6</ele>
        <time>2013-03-10T10:08:21.56Z</time>
      </trkpt>
      <trkpt lat="45.86139" lon="4.80515">
        <ele>366.4</ele>
        <time>2013-03-10T10:08:22.56Z</time>
      </trkpt>
      <trkpt lat="45.86142" lon="4.80516">
        <ele>366.3</ele>
        <time>2013-03-10T10:08:23.56Z</time>
      </trkpt>
      <trkpt lat="45.86145" lon="4.80517">
        <ele>366.2</ele>
        <time>2013-03-10T10:08:24.56Z</time>
      </trkpt>
      <trkpt lat="45.86149" lon="4.80518">
        <ele>366.1</ele>
        <time>2013-03-10T10:08:25.56Z</time>
      </trkpt>
      <trkpt lat="45.86152" lon="4.8052">
        <ele>365.9</ele>
        <time>2013-03-10T10:08:26.56Z</time>
      </trkpt>
      <trkpt lat="45.86155" lon="4.80521">
        <ele>365.8</ele>
        <time>2013-03-10T10:08:27.56Z</time>
      </trkpt>
      <trkpt lat="45.86158" lon="4.80522">
        <ele>365.7</ele>
        <time>2013-03-10T10:08:28.66Z</time>
      </trkpt>
      <trkpt lat="45.86164" lon="4.80525">
        <ele>365.5</ele>
        <time>2013-03-10T10:08:30.62Z</time>
      </trkpt>
      <trkpt lat="45.86171" lon="4.80528">
        <ele>364.8</ele>
        <time>2013-03-10T10:08:32.62Z</time>
      </trkpt>
      <trkpt lat="45.86175" lon="4.80529">
        <ele>364.4</ele>
        <time>2013-03-10T10:08:33.71Z</time>
      </trkpt>
      <trkpt lat="45.8618" lon="4.80532">
        <ele>363.8</ele>
        <time>2013-03-10T10:08:35.62Z</time>
      </trkpt>
      <trkpt lat="45.86184" lon="4.80533">
        <ele>363.4</ele>
        <time>2013-03-10T10:08:36.62Z</time>
      </trkpt>
      <trkpt lat="45.86187" lon="4.80534">
        <ele>363.1</ele>
        <time>2013-03-10T10:08:37.63Z</time>
      </trkpt>
      <trkpt lat="45.86194" lon="4.80536">
        <ele>362.5</ele>
        <time>2013-03-10T10:08:39.63Z</time>
      </trkpt>
      <trkpt lat="45.86201" lon="4.80537">
        <ele>361.5</ele>
        <time>2013-03-10T10:08:41.62Z</time>
      </trkpt>
      <trkpt lat="45.86208" lon="4.80536">
        <ele>360.9</ele>
        <time>2013-03-10T10:08:43.56Z</time>
      </trkpt>
      <trkpt lat="45.86211" lon="4.80536">
        <ele>360.7</ele>
        <time>2013-03-10T10:08:44.56Z</time>
      </trkpt>
      <trkpt lat="45.86213" lon="4.80535">
        <ele>360.6</ele>
        <time>2013-03-10T10:08:45.56Z</time>
      </trkpt>
      <trkpt lat="45.86216" lon="4.80533">
        <ele>360.5</ele>
        <time>2013-03-10T10:08:46.56Z</time>
      </trkpt>
      <trkpt lat="45.8622" lon="4.80532">
        <ele>360.4</ele>
        <time>2013-03-10T10:08:47.56Z</time>
      </trkpt>
      <trkpt lat="45.86224" lon="4.80531">
        <ele>360.1</ele>
        <time>2013-03-10T10:08:48.56Z</time>
      </trkpt>
      <trkpt lat="45.86228" lon="4.80529">
        <ele>359.4</ele>
        <time>2013-03-10T10:08:49.62Z</time>
      </trkpt>
      <trkpt lat="45.86233" lon="4.80528">
        <ele>358.3</ele>
        <time>2013-03-10T10:08:50.67Z</time>
      </trkpt>
      <trkpt lat="45.86241" lon="4.80525">
        <ele>356.7</ele>
        <time>2013-03-10T10:08:52.56Z</time>
      </trkpt>
      <trkpt lat="45.86243" lon="4.80523">
        <ele>356.5</ele>
        <time>2013-03-10T10:08:53.56Z</time>
      </trkpt>
      <trkpt lat="45.86246" lon="4.8052">
        <ele>356.3</ele>
        <time>2013-03-10T10:08:54.56Z</time>
      </trkpt>
      <trkpt lat="45.86248" lon="4.80517">
        <ele>356.1</ele>
        <time>2013-03-10T10:08:55.6Z</time>
      </trkpt>
      <trkpt lat="45.86251" lon="4.80515">
        <ele>355.8</ele>
        <time>2013-03-10T10:08:56.61Z</time>
      </trkpt>
      <trkpt lat="45.86254" lon="4.80512">
        <ele>356.1</ele>
        <time>2013-03-10T10:08:57.61Z</time>
      </trkpt>
      <trkpt lat="45.86257" lon="4.80509">
        <ele>356.3</ele>
        <time>2013-03-10T10:08:58.67Z</time>
      </trkpt>
      <trkpt lat="45.8626" lon="4.80508">
        <ele>356.4</ele>
        <time>2013-03-10T10:08:59.69Z</time>
      </trkpt>
      <trkpt lat="45.86266" lon="4.80505">
        <ele>369.6</ele>
        <time>2013-03-10T10:09:01.63Z</time>
      </trkpt>
      <trkpt lat="45.86273" lon="4.80506">
        <ele>356.2</ele>
        <time>2013-03-10T10:09:03.67Z</time>
      </trkpt>
      <trkpt lat="45.8628" lon="4.80509">
        <ele>355.4</ele>
        <time>2013-03-10T10:09:05.61Z</time>
      </trkpt>
      <trkpt lat="45.86282" lon="4.8051">
        <ele>355.1</ele>
        <time>2013-03-10T10:09:06.59Z</time>
      </trkpt>
      <trkpt lat="45.86285" lon="4.80511">
        <ele>354.9</ele>
        <time>2013-03-10T10:09:07.61Z</time>
      </trkpt>
      <trkpt lat="45.86288" lon="4.80513">
        <ele>354.7</ele>
        <time>2013-03-10T10:09:08.75Z</time>
      </trkpt>
      <trkpt lat="45.86293" lon="4.80515">
        <ele>354.4</ele>
        <time>2013-03-10T10:09:10.63Z</time>
      </trkpt>
      <trkpt lat="45.86299" lon="4.80512">
        <ele>354.7</ele>
        <time>2013-03-10T10:09:12.61Z</time>
      </trkpt>
      <trkpt lat="45.86301" lon="4.80511">
        <ele>354.8</ele>
        <time>2013-03-10T10:09:13.74Z</time>
      </trkpt>
      <trkpt lat="45.86306" lon="4.80507">
        <ele>355.3</ele>
        <time>2013-03-10T10:09:15.61Z</time>
      </trkpt>
      <trkpt lat="45.86308" lon="4.80505">
        <ele>355.9</ele>
        <time>2013-03-10T10:09:16.66Z</time>
      </trkpt>
      <trkpt lat="45.86312" lon="4.80501">
        <ele>357</ele>
        <time>2013-03-10T10:09:18.56Z</time>
      </trkpt>
      <trkpt lat="45.86313" lon="4.80498">
        <ele>357.6</ele>
        <time>2013-03-10T10:09:19.61Z</time>
      </trkpt>
      <trkpt lat="45.86315" lon="4.80497">
        <ele>358.3</ele>
        <time>2013-03-10T10:09:20.6Z</time>
      </trkpt>
      <trkpt lat="45.86317" lon="4.80494">
        <ele>359.1</ele>
        <time>2013-03-10T10:09:21.61Z</time>
      </trkpt>
      <trkpt lat="45.86319" lon="4.80491">
        <ele>360</ele>
        <time>2013-03-10T10:09:22.61Z</time>
      </trkpt>
      <trkpt lat="45.86321" lon="4.80489">
        <ele>360.8</ele>
        <time>2013-03-10T10:09:23.67Z</time>
      </trkpt>
      <trkpt lat="45.86322" lon="4.80484">
        <ele>361.9</ele>
        <time>2013-03-10T10:09:25.61Z</time>
      </trkpt>
      <trkpt lat="45.86323" lon="4.80481">
        <ele>362.5</ele>
        <time>2013-03-10T10:09:26.61Z</time>
      </trkpt>
      <trkpt lat="45.86322" lon="4.80479">
        <ele>362.8</ele>
        <time>2013-03-10T10:09:28.66Z</time>
      </trkpt>
      <trkpt lat="45.86322" lon="4.80476">
        <ele>363.3</ele>
        <time>2013-03-10T10:09:30.61Z</time>
      </trkpt>
      <trkpt lat="45.86324" lon="4.80476">
        <ele>363.7</ele>
        <time>2013-03-10T10:09:32.61Z</time>
      </trkpt>
      <trkpt lat="45.86326" lon="4.80476">
        <ele>363.9</ele>
        <time>2013-03-10T10:09:33.7Z</time>
      </trkpt>
      <trkpt lat="45.86328" lon="4.80476">
        <ele>364.3</ele>
        <time>2013-03-10T10:09:35.56Z</time>
      </trkpt>
      <trkpt lat="45.86329" lon="4.80474">
        <ele>364.8</ele>
        <time>2013-03-10T10:09:37.56Z</time>
      </trkpt>
      <trkpt lat="45.86329" lon="4.80473">
        <ele>365.2</ele>
        <time>2013-03-10T10:09:38.56Z</time>
      </trkpt>
      <trkpt lat="45.86331" lon="4.8047">
        <ele>366</ele>
        <time>2013-03-10T10:09:39.56Z</time>
      </trkpt>
      <trkpt lat="45.86333" lon="4.80468">
        <ele>366.7</ele>
        <time>2013-03-10T10:09:40.56Z</time>
      </trkpt>
      <trkpt lat="45.86332" lon="4.80465">
        <ele>367</ele>
        <time>2013-03-10T10:09:41.57Z</time>
      </trkpt>
      <trkpt lat="45.86332" lon="4.80464">
        <ele>367.3</ele>
        <time>2013-03-10T10:09:42.56Z</time>
      </trkpt>
      <trkpt lat="45.86331" lon="4.80462">
        <ele>367.4</ele>
        <time>2013-03-10T10:09:43.56Z</time>
      </trkpt>
      <trkpt lat="45.86331" lon="4.80461">
        <ele>367.5</ele>
        <time>2013-03-10T10:09:44.56Z</time>
      </trkpt>
      <trkpt lat="45.86331" lon="4.80458">
        <ele>367.9</ele>
        <time>2013-03-10T10:09:46.56Z</time>
      </trkpt>
      <trkpt lat="45.8633" lon="4.80456">
        <ele>368.2</ele>
        <time>2013-03-10T10:09:47.56Z</time>
      </trkpt>
      <trkpt lat="45.8633" lon="4.80455">
        <ele>368.4</ele>
        <time>2013-03-10T10:09:48.56Z</time>
      </trkpt>
      <trkpt lat="45.8633" lon="4.80453">
        <ele>368.7</ele>
        <time>2013-03-10T10:09:50.66Z</time>
      </trkpt>
      <trkpt lat="45.86332" lon="4.80453">
        <ele>369.3</ele>
        <time>2013-03-10T10:09:52.56Z</time>
      </trkpt>
      <trkpt lat="45.86333" lon="4.80453">
        <ele>369.5</ele>
        <time>2013-03-10T10:09:53.56Z</time>
      </trkpt>
      <trkpt lat="45.86335" lon="4.80452">
        <ele>370</ele>
        <time>2013-03-10T10:09:56.6Z</time>
      </trkpt>
      <trkpt lat="45.86336" lon="4.80452">
        <ele>370.3</ele>
        <time>2013-03-10T10:09:57.6Z</time>
      </trkpt>
      <trkpt lat="45.86337" lon="4.80452">
        <ele>370.8</ele>
        <time>2013-03-10T10:09:58.65Z</time>
      </trkpt>
      <trkpt lat="45.86338" lon="4.80451">
        <ele>374</ele>
        <time>2013-03-10T10:10:00.56Z</time>
      </trkpt>
      <trkpt lat="45.8634" lon="4.80451">
        <ele>372</ele>
        <time>2013-03-10T10:10:01.56Z</time>
      </trkpt>
      <trkpt lat="45.86341" lon="4.80451">
        <ele>372.4</ele>
        <time>2013-03-10T10:10:02.57Z</time>
      </trkpt>
      <trkpt lat="45.86343" lon="4.80451">
        <ele>373</ele>
        <time>2013-03-10T10:10:03.56Z</time>
      </trkpt>
      <trkpt lat="45.86344" lon="4.80451">
        <ele>373.5</ele>
        <time>2013-03-10T10:10:04.56Z</time>
      </trkpt>
      <trkpt lat="45.86345" lon="4.80451">
        <ele>373.8</ele>
        <time>2013-03-10T10:10:05.56Z</time>
      </trkpt>
      <trkpt lat="45.86346" lon="4.8045">
        <ele>374.3</ele>
        <time>2013-03-10T10:10:06.56Z</time>
      </trkpt>
      <trkpt lat="45.86347" lon="4.80449">
        <ele>374.7</ele>
        <time>2013-03-10T10:10:07.56Z</time>
      </trkpt>
      <trkpt lat="45.86347" lon="4.80448">
        <ele>375.2</ele>
        <time>2013-03-10T10:10:08.56Z</time>
      </trkpt>
      <trkpt lat="45.86348" lon="4.80447">
        <ele>375.8</ele>
        <time>2013-03-10T10:10:09.56Z</time>
      </trkpt>
      <trkpt lat="45.86348" lon="4.80445">
        <ele>376.1</ele>
        <time>2013-03-10T10:10:11.56Z</time>
      </trkpt>
      <trkpt lat="45.86348" lon="4.80443">
        <ele>376.6</ele>
        <time>2013-03-10T10:10:12.56Z</time>
      </trkpt>
      <trkpt lat="45.86349" lon="4.80441">
        <ele>377.2</ele>
        <time>2013-03-10T10:10:13.68Z</time>
      </trkpt>
      <trkpt lat="45.86349" lon="4.80439">
        <ele>377.9</ele>
        <time>2013-03-10T10:10:15.56Z</time>
      </trkpt>
      <trkpt lat="45.8635" lon="4.80437">
        <ele>378.5</ele>
        <time>2013-03-10T10:10:17.59Z</time>
      </trkpt>
      <trkpt lat="45.86348" lon="4.80437">
        <ele>378.1</ele>
        <time>2013-03-10T10:10:19.59Z</time>
      </trkpt>
      <trkpt lat="45.86348" lon="4.80435">
        <ele>378.4</ele>
        <time>2013-03-10T10:10:20.59Z</time>
      </trkpt>
      <trkpt lat="45.86348" lon="4.80434">
        <ele>378.8</ele>
        <time>2013-03-10T10:10:21.63Z</time>
      </trkpt>
      <trkpt lat="45.86348" lon="4.80429">
        <ele>379.5</ele>
        <time>2013-03-10T10:10:23.56Z</time>
      </trkpt>
      <trkpt lat="45.86347" lon="4.80426">
        <ele>379.8</ele>
        <time>2013-03-10T10:10:24.59Z</time>
      </trkpt>
      <trkpt lat="45.86346" lon="4.80423">
        <ele>380.1</ele>
        <time>2013-03-10T10:10:25.63Z</time>
      </trkpt>
      <trkpt lat="45.86345" lon="4.80419">
        <ele>380.5</ele>
        <time>2013-03-10T10:10:27.56Z</time>
      </trkpt>
      <trkpt lat="45.86344" lon="4.80416">
        <ele>381</ele>
        <time>2013-03-10T10:10:28.56Z</time>
      </trkpt>
      <trkpt lat="45.86343" lon="4.80413">
        <ele>381.3</ele>
        <time>2013-03-10T10:10:29.62Z</time>
      </trkpt>
      <trkpt lat="45.86341" lon="4.80409">
        <ele>381.2</ele>
        <time>2013-03-10T10:10:31.56Z</time>
      </trkpt>
      <trkpt lat="45.8634" lon="4.80406">
        <ele>381.3</ele>
        <time>2013-03-10T10:10:32.56Z</time>
      </trkpt>
      <trkpt lat="45.86339" lon="4.80403">
        <ele>381.5</ele>
        <time>2013-03-10T10:10:33.57Z</time>
      </trkpt>
      <trkpt lat="45.86338" lon="4.804">
        <ele>381.7</ele>
        <time>2013-03-10T10:10:34.59Z</time>
      </trkpt>
      <trkpt lat="45.86337" lon="4.80397">
        <ele>381.9</ele>
        <time>2013-03-10T10:10:35.59Z</time>
      </trkpt>
      <trkpt lat="45.86337" lon="4.80394">
        <ele>382.3</ele>
        <time>2013-03-10T10:10:36.63Z</time>
      </trkpt>
      <trkpt lat="45.86335" lon="4.80386">
        <ele>383</ele>
        <time>2013-03-10T10:10:38.56Z</time>
      </trkpt>
      <trkpt lat="45.86334" lon="4.80384">
        <ele>383.3</ele>
        <time>2013-03-10T10:10:39.62Z</time>
      </trkpt>
      <trkpt lat="45.86332" lon="4.80379">
        <ele>383.7</ele>
        <time>2013-03-10T10:10:41.57Z</time>
      </trkpt>
      <trkpt lat="45.86332" lon="4.80377">
        <ele>384</ele>
        <time>2013-03-10T10:10:42.56Z</time>
      </trkpt>
      <trkpt lat="45.86331" lon="4.80376">
        <ele>383.9</ele>
        <time>2013-03-10T10:10:43.56Z</time>
      </trkpt>
      <trkpt lat="45.8633" lon="4.80374">
        <ele>384</ele>
        <time>2013-03-10T10:10:44.56Z</time>
      </trkpt>
      <trkpt lat="45.86329" lon="4.80371">
        <ele>384.4</ele>
        <time>2013-03-10T10:10:45.56Z</time>
      </trkpt>
      <trkpt lat="45.86328" lon="4.80368">
        <ele>384.6</ele>
        <time>2013-03-10T10:10:46.59Z</time>
      </trkpt>
      <trkpt lat="45.86328" lon="4.80366">
        <ele>385</ele>
        <time>2013-03-10T10:10:47.59Z</time>
      </trkpt>
      <trkpt lat="45.86328" lon="4.80363">
        <ele>385.7</ele>
        <time>2013-03-10T10:10:48.65Z</time>
      </trkpt>
      <trkpt lat="45.86328" lon="4.80358">
        <ele>386.2</ele>
        <time>2013-03-10T10:10:50.57Z</time>
      </trkpt>
      <trkpt lat="45.86326" lon="4.80353">
        <ele>386.6</ele>
        <time>2013-03-10T10:10:52.59Z</time>
      </trkpt>
      <trkpt lat="45.86326" lon="4.8035">
        <ele>386.7</ele>
        <time>2013-03-10T10:10:53.67Z</time>
      </trkpt>
      <trkpt lat="45.86325" lon="4.80343">
        <ele>387.5</ele>
        <time>2013-03-10T10:10:55.56Z</time>
      </trkpt>
      <trkpt lat="45.86324" lon="4.8034">
        <ele>387.6</ele>
        <time>2013-03-10T10:10:56.56Z</time>
      </trkpt>
      <trkpt lat="45.86323" lon="4.80338">
        <ele>387.5</ele>
        <time>2013-03-10T10:10:57.58Z</time>
      </trkpt>
      <trkpt lat="45.86321" lon="4.80336">
        <ele>387.1</ele>
        <time>2013-03-10T10:10:58.7Z</time>
      </trkpt>
      <trkpt lat="45.86318" lon="4.80331">
        <ele>388.6</ele>
        <time>2013-03-10T10:11:00.56Z</time>
      </trkpt>
      <trkpt lat="45.86316" lon="4.80328">
        <ele>386.7</ele>
        <time>2013-03-10T10:11:01.56Z</time>
      </trkpt>
      <trkpt lat="45.86314" lon="4.80326">
        <ele>386.5</ele>
        <time>2013-03-10T10:11:02.56Z</time>
      </trkpt>
      <trkpt lat="45.86312" lon="4.80324">
        <ele>386.4</ele>
        <time>2013-03-10T10:11:03.66Z</time>
      </trkpt>
      <trkpt lat="45.8631" lon="4.80318">
        <ele>386.9</ele>
        <time>2013-03-10T10:11:05.56Z</time>
      </trkpt>
      <trkpt lat="45.86308" lon="4.80315">
        <ele>387.4</ele>
        <time>2013-03-10T10:11:06.56Z</time>
      </trkpt>
      <trkpt lat="45.86307" lon="4.80313">
        <ele>387.6</ele>
        <time>2013-03-10T10:11:07.58Z</time>
      </trkpt>
      <trkpt lat="45.86306" lon="4.8031">
        <ele>388</ele>
        <time>2013-03-10T10:11:08.69Z</time>
      </trkpt>
      <trkpt lat="45.86304" lon="4.80304">
        <ele>388.9</ele>
        <time>2013-03-10T10:11:10.56Z</time>
      </trkpt>
      <trkpt lat="45.86303" lon="4.80302">
        <ele>389.2</ele>
        <time>2013-03-10T10:11:11.56Z</time>
      </trkpt>
      <trkpt lat="45.86302" lon="4.80299">
        <ele>389.5</ele>
        <time>2013-03-10T10:11:12.56Z</time>
      </trkpt>
      <trkpt lat="45.86301" lon="4.80296">
        <ele>389.9</ele>
        <time>2013-03-10T10:11:13.56Z</time>
      </trkpt>
      <trkpt lat="45.863" lon="4.80293">
        <ele>390.3</ele>
        <time>2013-03-10T10:11:14.62Z</time>
      </trkpt>
      <trkpt lat="45.86298" lon="4.80288">
        <ele>391</ele>
        <time>2013-03-10T10:11:16.57Z</time>
      </trkpt>
      <trkpt lat="45.86298" lon="4.80286">
        <ele>391.3</ele>
        <time>2013-03-10T10:11:17.63Z</time>
      </trkpt>
      <trkpt lat="45.86296" lon="4.8028">
        <ele>392.2</ele>
        <time>2013-03-10T10:11:19.58Z</time>
      </trkpt>
      <trkpt lat="45.86296" lon="4.80277">
        <ele>392.6</ele>
        <time>2013-03-10T10:11:20.58Z</time>
      </trkpt>
      <trkpt lat="45.86295" lon="4.80276">
        <ele>392.8</ele>
        <time>2013-03-10T10:11:21.62Z</time>
      </trkpt>
      <trkpt lat="45.86294" lon="4.80272">
        <ele>393.3</ele>
        <time>2013-03-10T10:11:23.56Z</time>
      </trkpt>
      <trkpt lat="45.86294" lon="4.80269">
        <ele>393.8</ele>
        <time>2013-03-10T10:11:24.58Z</time>
      </trkpt>
      <trkpt lat="45.86294" lon="4.80267">
        <ele>394.1</ele>
        <time>2013-03-10T10:11:25.58Z</time>
      </trkpt>
      <trkpt lat="45.86294" lon="4.80265">
        <ele>394.4</ele>
        <time>2013-03-10T10:11:26.63Z</time>
      </trkpt>
      <trkpt lat="45.86293" lon="4.8026">
        <ele>395.1</ele>
        <time>2013-03-10T10:11:28.56Z</time>
      </trkpt>
      <trkpt lat="45.86292" lon="4.80257">
        <ele>395.6</ele>
        <time>2013-03-10T10:11:29.58Z</time>
      </trkpt>
      <trkpt lat="45.86292" lon="4.80254">
        <ele>395.9</ele>
        <time>2013-03-10T10:11:30.63Z</time>
      </trkpt>
      <trkpt lat="45.86291" lon="4.80249">
        <ele>396.6</ele>
        <time>2013-03-10T10:11:32.56Z</time>
      </trkpt>
      <trkpt lat="45.86291" lon="4.80245">
        <ele>397</ele>
        <time>2013-03-10T10:11:33.57Z</time>
      </trkpt>
      <trkpt lat="45.8629" lon="4.8024">
        <ele>397.6</ele>
        <time>2013-03-10T10:11:35.58Z</time>
      </trkpt>
      <trkpt lat="45.86289" lon="4.80237">
        <ele>398</ele>
        <time>2013-03-10T10:11:36.58Z</time>
      </trkpt>
      <trkpt lat="45.86289" lon="4.80234">
        <ele>398.3</ele>
        <time>2013-03-10T10:11:37.58Z</time>
      </trkpt>
      <trkpt lat="45.86288" lon="4.80231">
        <ele>398.6</ele>
        <time>2013-03-10T10:11:38.68Z</time>
      </trkpt>
      <trkpt lat="45.86287" lon="4.80226">
        <ele>399.1</ele>
        <time>2013-03-10T10:11:40.57Z</time>
      </trkpt>
      <trkpt lat="45.86286" lon="4.80223">
        <ele>399.4</ele>
        <time>2013-03-10T10:11:41.58Z</time>
      </trkpt>
      <trkpt lat="45.86285" lon="4.8022">
        <ele>399.6</ele>
        <time>2013-03-10T10:11:42.61Z</time>
      </trkpt>
      <trkpt lat="45.86283" lon="4.80217">
        <ele>399.7</ele>
        <time>2013-03-10T10:11:44.57Z</time>
      </trkpt>
      <trkpt lat="45.86282" lon="4.80216">
        <ele>399.8</ele>
        <time>2013-03-10T10:11:45.58Z</time>
      </trkpt>
      <trkpt lat="45.8628" lon="4.80214">
        <ele>399.9</ele>
        <time>2013-03-10T10:11:46.7Z</time>
      </trkpt>
      <trkpt lat="45.86277" lon="4.80209">
        <ele>400.4</ele>
        <time>2013-03-10T10:11:48.56Z</time>
      </trkpt>
      <trkpt lat="45.86275" lon="4.80207">
        <ele>400.8</ele>
        <time>2013-03-10T10:11:49.58Z</time>
      </trkpt>
      <trkpt lat="45.86274" lon="4.80205">
        <ele>401.3</ele>
        <time>2013-03-10T10:11:50.65Z</time>
      </trkpt>
      <trkpt lat="45.86271" lon="4.80201">
        <ele>402.2</ele>
        <time>2013-03-10T10:11:52.57Z</time>
      </trkpt>
      <trkpt lat="45.8627" lon="4.80199">
        <ele>402.5</ele>
        <time>2013-03-10T10:11:53.66Z</time>
      </trkpt>
      <trkpt lat="45.86269" lon="4.80194">
        <ele>403.4</ele>
        <time>2013-03-10T10:11:55.56Z</time>
      </trkpt>
      <trkpt lat="45.86268" lon="4.80191">
        <ele>403.6</ele>
        <time>2013-03-10T10:11:56.56Z</time>
      </trkpt>
      <trkpt lat="45.86268" lon="4.80188">
        <ele>403.9</ele>
        <time>2013-03-10T10:11:57.57Z</time>
      </trkpt>
      <trkpt lat="45.86267" lon="4.80184">
        <ele>404.2</ele>
        <time>2013-03-10T10:11:58.7Z</time>
      </trkpt>
      <trkpt lat="45.86267" lon="4.8018">
        <ele>404.9</ele>
        <time>2013-03-10T10:12:00.56Z</time>
      </trkpt>
      <trkpt lat="45.86267" lon="4.80179">
        <ele>404.8</ele>
        <time>2013-03-10T10:12:01.56Z</time>
      </trkpt>
      <trkpt lat="45.86267" lon="4.80177">
        <ele>404.9</ele>
        <time>2013-03-10T10:12:03.68Z</time>
      </trkpt>
      <trkpt lat="45.86268" lon="4.80175">
        <ele>405</ele>
        <time>2013-03-10T10:12:05.56Z</time>
      </trkpt>
      <trkpt lat="45.86268" lon="4.80173">
        <ele>405.2</ele>
        <time>2013-03-10T10:12:06.56Z</time>
      </trkpt>
      <trkpt lat="45.86268" lon="4.8017">
        <ele>405.5</ele>
        <time>2013-03-10T10:12:07.57Z</time>
      </trkpt>
      <trkpt lat="45.86267" lon="4.80167">
        <ele>405.7</ele>
        <time>2013-03-10T10:12:08.65Z</time>
      </trkpt>
      <trkpt lat="45.86266" lon="4.80165">
        <ele>406.1</ele>
        <time>2013-03-10T10:12:10.56Z</time>
      </trkpt>
      <trkpt lat="45.86265" lon="4.80163">
        <ele>406.3</ele>
        <time>2013-03-10T10:12:12.56Z</time>
      </trkpt>
      <trkpt lat="45.86266" lon="4.80161">
        <ele>406.4</ele>
        <time>2013-03-10T10:12:13.66Z</time>
      </trkpt>
      <trkpt lat="45.86267" lon="4.80156">
        <ele>406.8</ele>
        <time>2013-03-10T10:12:15.56Z</time>
      </trkpt>
      <trkpt lat="45.86267" lon="4.80155">
        <ele>407</ele>
        <time>2013-03-10T10:12:16.57Z</time>
      </trkpt>
      <trkpt lat="45.86267" lon="4.8015">
        <ele>407.5</ele>
        <time>2013-03-10T10:12:20.56Z</time>
      </trkpt>
      <trkpt lat="45.86267" lon="4.80147">
        <ele>407.8</ele>
        <time>2013-03-10T10:12:21.66Z</time>
      </trkpt>
      <trkpt lat="45.86266" lon="4.80143">
        <ele>408.3</ele>
        <time>2013-03-10T10:12:23.67Z</time>
      </trkpt>
      <trkpt lat="45.86265" lon="4.8014">
        <ele>408.7</ele>
        <time>2013-03-10T10:12:25.66Z</time>
      </trkpt>
      <trkpt lat="45.86265" lon="4.80138">
        <ele>408.9</ele>
        <time>2013-03-10T10:12:27.64Z</time>
      </trkpt>
      <trkpt lat="45.86264" lon="4.80135">
        <ele>409.6</ele>
        <time>2013-03-10T10:12:29.66Z</time>
      </trkpt>
      <trkpt lat="45.86262" lon="4.80132">
        <ele>410</ele>
        <time>2013-03-10T10:12:30.56Z</time>
      </trkpt>
      <trkpt lat="45.86261" lon="4.8013">
        <ele>410.5</ele>
        <time>2013-03-10T10:12:31.66Z</time>
      </trkpt>
      <trkpt lat="45.86261" lon="4.80129">
        <ele>410.7</ele>
        <time>2013-03-10T10:12:32.56Z</time>
      </trkpt>
      <trkpt lat="45.8626" lon="4.80127">
        <ele>411</ele>
        <time>2013-03-10T10:12:33.7Z</time>
      </trkpt>
      <trkpt lat="45.86258" lon="4.80126">
        <ele>411.4</ele>
        <time>2013-03-10T10:12:35.66Z</time>
      </trkpt>
      <trkpt lat="45.86258" lon="4.80124">
        <ele>411.6</ele>
        <time>2013-03-10T10:12:36.56Z</time>
      </trkpt>
      <trkpt lat="45.86256" lon="4.80121">
        <ele>412.2</ele>
        <time>2013-03-10T10:12:37.66Z</time>
      </trkpt>
      <trkpt lat="45.86254" lon="4.80117">
        <ele>412.9</ele>
        <time>2013-03-10T10:12:38.56Z</time>
      </trkpt>
      <trkpt lat="45.86253" lon="4.80113">
        <ele>413.6</ele>
        <time>2013-03-10T10:12:39.66Z</time>
      </trkpt>
      <trkpt lat="45.86251" lon="4.80109">
        <ele>414.1</ele>
        <time>2013-03-10T10:12:40.56Z</time>
      </trkpt>
      <trkpt lat="45.8625" lon="4.80107">
        <ele>414.5</ele>
        <time>2013-03-10T10:12:41.66Z</time>
      </trkpt>
      <trkpt lat="45.86249" lon="4.80105">
        <ele>414.9</ele>
        <time>2013-03-10T10:12:43.56Z</time>
      </trkpt>
      <trkpt lat="45.86247" lon="4.80103">
        <ele>415.3</ele>
        <time>2013-03-10T10:12:46.66Z</time>
      </trkpt>
      <trkpt lat="45.86246" lon="4.80099">
        <ele>415.8</ele>
        <time>2013-03-10T10:12:47.56Z</time>
      </trkpt>
      <trkpt lat="45.86246" lon="4.80096">
        <ele>416.1</ele>
        <time>2013-03-10T10:12:48.76Z</time>
      </trkpt>
      <trkpt lat="45.86246" lon="4.8009">
        <ele>416.7</ele>
        <time>2013-03-10T10:12:50.57Z</time>
      </trkpt>
      <trkpt lat="45.86246" lon="4.80087">
        <ele>417</ele>
        <time>2013-03-10T10:12:51.66Z</time>
      </trkpt>
      <trkpt lat="45.86246" lon="4.80085">
        <ele>417.2</ele>
        <time>2013-03-10T10:12:52.56Z</time>
      </trkpt>
      <trkpt lat="45.86245" lon="4.80083">
        <ele>417.5</ele>
        <time>2013-03-10T10:12:53.67Z</time>
      </trkpt>
      <trkpt lat="45.86244" lon="4.80083">
        <ele>417.7</ele>
        <time>2013-03-10T10:12:55.56Z</time>
      </trkpt>
      <trkpt lat="45.86244" lon="4.80081">
        <ele>417.9</ele>
        <time>2013-03-10T10:12:57.56Z</time>
      </trkpt>
      <trkpt lat="45.86244" lon="4.80079">
        <ele>418.1</ele>
        <time>2013-03-10T10:12:58.67Z</time>
      </trkpt>
      <trkpt lat="45.86245" lon="4.80074">
        <ele>419.1</ele>
        <time>2013-03-10T10:13:00.56Z</time>
      </trkpt>
      <trkpt lat="45.86246" lon="4.80072">
        <ele>418.8</ele>
        <time>2013-03-10T10:13:01.65Z</time>
      </trkpt>
      <trkpt lat="45.86246" lon="4.80069">
        <ele>418.9</ele>
        <time>2013-03-10T10:13:02.56Z</time>
      </trkpt>
      <trkpt lat="45.86246" lon="4.80068">
        <ele>419.1</ele>
        <time>2013-03-10T10:13:03.66Z</time>
      </trkpt>
      <trkpt lat="45.86247" lon="4.80062">
        <ele>419.6</ele>
        <time>2013-03-10T10:13:05.65Z</time>
      </trkpt>
      <trkpt lat="45.86247" lon="4.8006">
        <ele>419.9</ele>
        <time>2013-03-10T10:13:06.56Z</time>
      </trkpt>
      <trkpt lat="45.86246" lon="4.80056">
        <ele>420.4</ele>
        <time>2013-03-10T10:13:07.65Z</time>
      </trkpt>
      <trkpt lat="45.86245" lon="4.80053">
        <ele>420.9</ele>
        <time>2013-03-10T10:13:08.56Z</time>
      </trkpt>
      <trkpt lat="45.86244" lon="4.80049">
        <ele>421.4</ele>
        <time>2013-03-10T10:13:09.65Z</time>
      </trkpt>
      <trkpt lat="45.86243" lon="4.80046">
        <ele>421.8</ele>
        <time>2013-03-10T10:13:10.56Z</time>
      </trkpt>
      <trkpt lat="45.86243" lon="4.80043">
        <ele>422.2</ele>
        <time>2013-03-10T10:13:11.65Z</time>
      </trkpt>
      <trkpt lat="45.86242" lon="4.80041">
        <ele>422.5</ele>
        <time>2013-03-10T10:13:12.56Z</time>
      </trkpt>
      <trkpt lat="45.86241" lon="4.80037">
        <ele>422.9</ele>
        <time>2013-03-10T10:13:13.67Z</time>
      </trkpt>
      <trkpt lat="45.86241" lon="4.80032">
        <ele>423.6</ele>
        <time>2013-03-10T10:13:15.56Z</time>
      </trkpt>
      <trkpt lat="45.86241" lon="4.8003">
        <ele>423.8</ele>
        <time>2013-03-10T10:13:16.73Z</time>
      </trkpt>
      <trkpt lat="45.86241" lon="4.80024">
        <ele>424.4</ele>
        <time>2013-03-10T10:13:18.66Z</time>
      </trkpt>
      <trkpt lat="45.8624" lon="4.80019">
        <ele>425</ele>
        <time>2013-03-10T10:13:20.65Z</time>
      </trkpt>
      <trkpt lat="45.8624" lon="4.80016">
        <ele>425.4</ele>
        <time>2013-03-10T10:13:21.56Z</time>
      </trkpt>
      <trkpt lat="45.86239" lon="4.80013">
        <ele>425.8</ele>
        <time>2013-03-10T10:13:22.65Z</time>
      </trkpt>
      <trkpt lat="45.86238" lon="4.80011">
        <ele>426.1</ele>
        <time>2013-03-10T10:13:23.56Z</time>
      </trkpt>
      <trkpt lat="45.86237" lon="4.8001">
        <ele>426.3</ele>
        <time>2013-03-10T10:13:24.65Z</time>
      </trkpt>
      <trkpt lat="45.86237" lon="4.80009">
        <ele>426.5</ele>
        <time>2013-03-10T10:13:25.56Z</time>
      </trkpt>
      <trkpt lat="45.86236" lon="4.80007">
        <ele>426.8</ele>
        <time>2013-03-10T10:13:26.65Z</time>
      </trkpt>
      <trkpt lat="45.86236" lon="4.80005">
        <ele>427</ele>
        <time>2013-03-10T10:13:28.56Z</time>
      </trkpt>
      <trkpt lat="45.86235" lon="4.80003">
        <ele>427.3</ele>
        <time>2013-03-10T10:13:29.65Z</time>
      </trkpt>
      <trkpt lat="45.86235" lon="4.80001">
        <ele>427.5</ele>
        <time>2013-03-10T10:13:30.56Z</time>
      </trkpt>
      <trkpt lat="45.86235" lon="4.79999">
        <ele>427.8</ele>
        <time>2013-03-10T10:13:32.56Z</time>
      </trkpt>
      <trkpt lat="45.86235" lon="4.79997">
        <ele>428.1</ele>
        <time>2013-03-10T10:13:33.69Z</time>
      </trkpt>
      <trkpt lat="45.86234" lon="4.79995">
        <ele>428.6</ele>
        <time>2013-03-10T10:13:35.65Z</time>
      </trkpt>
      <trkpt lat="45.86232" lon="4.79994">
        <ele>429</ele>
        <time>2013-03-10T10:13:38.56Z</time>
      </trkpt>
      <trkpt lat="45.86231" lon="4.79993">
        <ele>429.4</ele>
        <time>2013-03-10T10:13:39.56Z</time>
      </trkpt>
      <trkpt lat="45.86229" lon="4.79991">
        <ele>429.9</ele>
        <time>2013-03-10T10:13:40.64Z</time>
      </trkpt>
      <trkpt lat="45.86227" lon="4.7999">
        <ele>430.2</ele>
        <time>2013-03-10T10:13:41.57Z</time>
      </trkpt>
      <trkpt lat="45.86225" lon="4.7999">
        <ele>430.5</ele>
        <time>2013-03-10T10:13:42.64Z</time>
      </trkpt>
      <trkpt lat="45.86223" lon="4.79988">
        <ele>431.2</ele>
        <time>2013-03-10T10:13:44.64Z</time>
      </trkpt>
      <trkpt lat="45.86221" lon="4.79986">
        <ele>431.5</ele>
        <time>2013-03-10T10:13:45.56Z</time>
      </trkpt>
      <trkpt lat="45.8622" lon="4.79985">
        <ele>431.7</ele>
        <time>2013-03-10T10:13:46.64Z</time>
      </trkpt>
      <trkpt lat="45.86219" lon="4.79985">
        <ele>431.9</ele>
        <time>2013-03-10T10:13:47.56Z</time>
      </trkpt>
      <trkpt lat="45.86218" lon="4.79984">
        <ele>432.1</ele>
        <time>2013-03-10T10:13:48.7Z</time>
      </trkpt>
      <trkpt lat="45.86215" lon="4.79983">
        <ele>432.3</ele>
        <time>2013-03-10T10:13:50.6Z</time>
      </trkpt>
      <trkpt lat="45.86213" lon="4.79981">
        <ele>432.8</ele>
        <time>2013-03-10T10:13:52.64Z</time>
      </trkpt>
      <trkpt lat="45.86211" lon="4.79978">
        <ele>433.4</ele>
        <time>2013-03-10T10:13:53.56Z</time>
      </trkpt>
      <trkpt lat="45.8621" lon="4.79974">
        <ele>434.1</ele>
        <time>2013-03-10T10:13:54.64Z</time>
      </trkpt>
      <trkpt lat="45.8621" lon="4.79967">
        <ele>435</ele>
        <time>2013-03-10T10:13:56.56Z</time>
      </trkpt>
      <trkpt lat="45.8621" lon="4.79964">
        <ele>435.2</ele>
        <time>2013-03-10T10:13:57.64Z</time>
      </trkpt>
      <trkpt lat="45.8621" lon="4.79958">
        <ele>435.8</ele>
        <time>2013-03-10T10:13:59.69Z</time>
      </trkpt>
      <trkpt lat="45.8621" lon="4.79952">
        <ele>438.4</ele>
        <time>2013-03-10T10:14:01.62Z</time>
      </trkpt>
      <trkpt lat="45.86211" lon="4.79945">
        <ele>437</ele>
        <time>2013-03-10T10:14:03.68Z</time>
      </trkpt>
      <trkpt lat="45.86212" lon="4.79938">
        <ele>437.8</ele>
        <time>2013-03-10T10:14:05.56Z</time>
      </trkpt>
      <trkpt lat="45.86213" lon="4.79934">
        <ele>438.2</ele>
        <time>2013-03-10T10:14:06.64Z</time>
      </trkpt>
      <trkpt lat="45.86214" lon="4.7993">
        <ele>438.7</ele>
        <time>2013-03-10T10:14:07.56Z</time>
      </trkpt>
      <trkpt lat="45.86215" lon="4.79927">
        <ele>439</ele>
        <time>2013-03-10T10:14:08.66Z</time>
      </trkpt>
      <trkpt lat="45.86216" lon="4.79924">
        <ele>439.4</ele>
        <time>2013-03-10T10:14:09.71Z</time>
      </trkpt>
      <trkpt lat="45.86218" lon="4.79917">
        <ele>440.1</ele>
        <time>2013-03-10T10:14:11.56Z</time>
      </trkpt>
      <trkpt lat="45.8622" lon="4.79914">
        <ele>440.6</ele>
        <time>2013-03-10T10:14:12.64Z</time>
      </trkpt>
      <trkpt lat="45.86222" lon="4.79912">
        <ele>440.8</ele>
        <time>2013-03-10T10:14:13.56Z</time>
      </trkpt>
      <trkpt lat="45.86225" lon="4.79911">
        <ele>441</ele>
        <time>2013-03-10T10:14:14.64Z</time>
      </trkpt>
      <trkpt lat="45.86227" lon="4.79909">
        <ele>441.2</ele>
        <time>2013-03-10T10:14:15.56Z</time>
      </trkpt>
      <trkpt lat="45.86229" lon="4.79909">
        <ele>441.2</ele>
        <time>2013-03-10T10:14:16.59Z</time>
      </trkpt>
      <trkpt lat="45.86231" lon="4.79909">
        <ele>441.1</ele>
        <time>2013-03-10T10:14:17.56Z</time>
      </trkpt>
      <trkpt lat="45.86234" lon="4.79909">
        <ele>441</ele>
        <time>2013-03-10T10:14:18.67Z</time>
      </trkpt>
      <trkpt lat="45.8624" lon="4.79907">
        <ele>441.3</ele>
        <time>2013-03-10T10:14:20.56Z</time>
      </trkpt>
      <trkpt lat="45.86243" lon="4.79905">
        <ele>441.6</ele>
        <time>2013-03-10T10:14:21.63Z</time>
      </trkpt>
      <trkpt lat="45.86248" lon="4.79902">
        <ele>442.2</ele>
        <time>2013-03-10T10:14:23.65Z</time>
      </trkpt>
      <trkpt lat="45.86252" lon="4.79899">
        <ele>442.6</ele>
        <time>2013-03-10T10:14:25.56Z</time>
      </trkpt>
      <trkpt lat="45.86254" lon="4.79898">
        <ele>442.6</ele>
        <time>2013-03-10T10:14:26.57Z</time>
      </trkpt>
      <trkpt lat="45.86256" lon="4.79896">
        <ele>442.8</ele>
        <time>2013-03-10T10:14:27.63Z</time>
      </trkpt>
      <trkpt lat="45.86259" lon="4.79894">
        <ele>443</ele>
        <time>2013-03-10T10:14:28.56Z</time>
      </trkpt>
      <trkpt lat="45.86261" lon="4.79892">
        <ele>443.2</ele>
        <time>2013-03-10T10:14:29.63Z</time>
      </trkpt>
      <trkpt lat="45.86266" lon="4.79889">
        <ele>443.3</ele>
        <time>2013-03-10T10:14:31.63Z</time>
      </trkpt>
      <trkpt lat="45.86268" lon="4.79888">
        <ele>443.3</ele>
        <time>2013-03-10T10:14:32.56Z</time>
      </trkpt>
      <trkpt lat="45.8627" lon="4.79885">
        <ele>443.5</ele>
        <time>2013-03-10T10:14:33.73Z</time>
      </trkpt>
      <trkpt lat="45.86274" lon="4.79881">
        <ele>443.8</ele>
        <time>2013-03-10T10:14:35.63Z</time>
      </trkpt>
      <trkpt lat="45.86276" lon="4.79879">
        <ele>443.9</ele>
        <time>2013-03-10T10:14:36.56Z</time>
      </trkpt>
      <trkpt lat="45.86279" lon="4.79878">
        <ele>443.8</ele>
        <time>2013-03-10T10:14:37.63Z</time>
      </trkpt>
      <trkpt lat="45.86284" lon="4.79874">
        <ele>444</ele>
        <time>2013-03-10T10:14:39.63Z</time>
      </trkpt>
      <trkpt lat="45.86285" lon="4.79872">
        <ele>444.3</ele>
        <time>2013-03-10T10:14:40.56Z</time>
      </trkpt>
      <trkpt lat="45.86287" lon="4.79869">
        <ele>444.5</ele>
        <time>2013-03-10T10:14:41.63Z</time>
      </trkpt>
      <trkpt lat="45.8629" lon="4.79868">
        <ele>444.5</ele>
        <time>2013-03-10T10:14:42.56Z</time>
      </trkpt>
      <trkpt lat="45.86292" lon="4.79866">
        <ele>444.6</ele>
        <time>2013-03-10T10:14:43.65Z</time>
      </trkpt>
      <trkpt lat="45.86297" lon="4.79862">
        <ele>444.7</ele>
        <time>2013-03-10T10:14:45.56Z</time>
      </trkpt>
      <trkpt lat="45.863" lon="4.79861">
        <ele>444.7</ele>
        <time>2013-03-10T10:14:46.63Z</time>
      </trkpt>
      <trkpt lat="45.86302" lon="4.79859">
        <ele>444.6</ele>
        <time>2013-03-10T10:14:47.56Z</time>
      </trkpt>
      <trkpt lat="45.86305" lon="4.79858">
        <ele>444.5</ele>
        <time>2013-03-10T10:14:48.69Z</time>
      </trkpt>
      <trkpt lat="45.86309" lon="4.79856">
        <ele>444.7</ele>
        <time>2013-03-10T10:14:50.57Z</time>
      </trkpt>
      <trkpt lat="45.8631" lon="4.79856">
        <ele>444.8</ele>
        <time>2013-03-10T10:14:51.56Z</time>
      </trkpt>
      <trkpt lat="45.86312" lon="4.79856">
        <ele>444.8</ele>
        <time>2013-03-10T10:14:52.56Z</time>
      </trkpt>
      <trkpt lat="45.86314" lon="4.79855">
        <ele>444.9</ele>
        <time>2013-03-10T10:14:53.56Z</time>
      </trkpt>
      <trkpt lat="45.86317" lon="4.79854">
        <ele>445</ele>
        <time>2013-03-10T10:14:54.56Z</time>
      </trkpt>
      <trkpt lat="45.86321" lon="4.79854">
        <ele>445</ele>
        <time>2013-03-10T10:14:55.56Z</time>
      </trkpt>
      <trkpt lat="45.86323" lon="4.79854">
        <ele>445</ele>
        <time>2013-03-10T10:14:56.56Z</time>
      </trkpt>
      <trkpt lat="45.86326" lon="4.79854">
        <ele>445.1</ele>
        <time>2013-03-10T10:14:57.56Z</time>
      </trkpt>
      <trkpt lat="45.86329" lon="4.79854">
        <ele>445</ele>
        <time>2013-03-10T10:14:58.56Z</time>
      </trkpt>
      <trkpt lat="45.86332" lon="4.79854">
        <ele>445</ele>
        <time>2013-03-10T10:14:59.59Z</time>
      </trkpt>
      <trkpt lat="45.86336" lon="4.79854">
        <ele>448.9</ele>
        <time>2013-03-10T10:15:00.62Z</time>
      </trkpt>
      <trkpt lat="45.86342" lon="4.79855">
        <ele>444.9</ele>
        <time>2013-03-10T10:15:02.62Z</time>
      </trkpt>
      <trkpt lat="45.86345" lon="4.79854">
        <ele>445</ele>
        <time>2013-03-10T10:15:03.69Z</time>
      </trkpt>
      <trkpt lat="45.86351" lon="4.79855">
        <ele>444.9</ele>
        <time>2013-03-10T10:15:05.62Z</time>
      </trkpt>
      <trkpt lat="45.86354" lon="4.79855">
        <ele>444.8</ele>
        <time>2013-03-10T10:15:06.62Z</time>
      </trkpt>
      <trkpt lat="45.8636" lon="4.79856">
        <ele>444.8</ele>
        <time>2013-03-10T10:15:08.65Z</time>
      </trkpt>
      <trkpt lat="45.86366" lon="4.79856">
        <ele>445.2</ele>
        <time>2013-03-10T10:15:10.56Z</time>
      </trkpt>
      <trkpt lat="45.86369" lon="4.79857">
        <ele>445.5</ele>
        <time>2013-03-10T10:15:11.56Z</time>
      </trkpt>
      <trkpt lat="45.86372" lon="4.79857">
        <ele>445.8</ele>
        <time>2013-03-10T10:15:12.62Z</time>
      </trkpt>
      <trkpt lat="45.86377" lon="4.79857">
        <ele>446.3</ele>
        <time>2013-03-10T10:15:14.62Z</time>
      </trkpt>
      <trkpt lat="45.8638" lon="4.79857">
        <ele>446.6</ele>
        <time>2013-03-10T10:15:15.62Z</time>
      </trkpt>
      <trkpt lat="45.86383" lon="4.79858">
        <ele>446.8</ele>
        <time>2013-03-10T10:15:16.67Z</time>
      </trkpt>
      <trkpt lat="45.86389" lon="4.79858">
        <ele>447.3</ele>
        <time>2013-03-10T10:15:18.56Z</time>
      </trkpt>
      <trkpt lat="45.86391" lon="4.79859">
        <ele>447.3</ele>
        <time>2013-03-10T10:15:19.56Z</time>
      </trkpt>
      <trkpt lat="45.86394" lon="4.7986">
        <ele>447.4</ele>
        <time>2013-03-10T10:15:20.62Z</time>
      </trkpt>
      <trkpt lat="45.86397" lon="4.7986">
        <ele>447.4</ele>
        <time>2013-03-10T10:15:21.62Z</time>
      </trkpt>
      <trkpt lat="45.86399" lon="4.79862">
        <ele>447.3</ele>
        <time>2013-03-10T10:15:22.63Z</time>
      </trkpt>
      <trkpt lat="45.86404" lon="4.79865">
        <ele>447</ele>
        <time>2013-03-10T10:15:24.62Z</time>
      </trkpt>
      <trkpt lat="45.86407" lon="4.79866">
        <ele>446.9</ele>
        <time>2013-03-10T10:15:25.7Z</time>
      </trkpt>
      <trkpt lat="45.86412" lon="4.79869">
        <ele>446.9</ele>
        <time>2013-03-10T10:15:27.58Z</time>
      </trkpt>
      <trkpt lat="45.86414" lon="4.7987">
        <ele>447</ele>
        <time>2013-03-10T10:15:28.56Z</time>
      </trkpt>
      <trkpt lat="45.86418" lon="4.7987">
        <ele>447.1</ele>
        <time>2013-03-10T10:15:29.56Z</time>
      </trkpt>
      <trkpt lat="45.8642" lon="4.79871">
        <ele>447.2</ele>
        <time>2013-03-10T10:15:30.56Z</time>
      </trkpt>
      <trkpt lat="45.86423" lon="4.79872">
        <ele>447.3</ele>
        <time>2013-03-10T10:15:31.56Z</time>
      </trkpt>
      <trkpt lat="45.86426" lon="4.79874">
        <ele>447.3</ele>
        <time>2013-03-10T10:15:32.56Z</time>
      </trkpt>
      <trkpt lat="45.86428" lon="4.79875">
        <ele>447.3</ele>
        <time>2013-03-10T10:15:33.57Z</time>
      </trkpt>
      <trkpt lat="45.8643" lon="4.79876">
        <ele>447.4</ele>
        <time>2013-03-10T10:15:34.62Z</time>
      </trkpt>
      <trkpt lat="45.86436" lon="4.79878">
        <ele>447.5</ele>
        <time>2013-03-10T10:15:36.62Z</time>
      </trkpt>
      <trkpt lat="45.86438" lon="4.79879">
        <ele>447.6</ele>
        <time>2013-03-10T10:15:37.63Z</time>
      </trkpt>
      <trkpt lat="45.86444" lon="4.79882">
        <ele>447.7</ele>
        <time>2013-03-10T10:15:39.62Z</time>
      </trkpt>
      <trkpt lat="45.86446" lon="4.79883">
        <ele>447.7</ele>
        <time>2013-03-10T10:15:40.56Z</time>
      </trkpt>
      <trkpt lat="45.86448" lon="4.79884">
        <ele>447.8</ele>
        <time>2013-03-10T10:15:41.57Z</time>
      </trkpt>
      <trkpt lat="45.8645" lon="4.79885">
        <ele>447.8</ele>
        <time>2013-03-10T10:15:42.56Z</time>
      </trkpt>
      <trkpt lat="45.86452" lon="4.79886">
        <ele>447.9</ele>
        <time>2013-03-10T10:15:43.56Z</time>
      </trkpt>
      <trkpt lat="45.86453" lon="4.79887">
        <ele>447.8</ele>
        <time>2013-03-10T10:15:44.56Z</time>
      </trkpt>
      <trkpt lat="45.86455" lon="4.79888">
        <ele>447.9</ele>
        <time>2013-03-10T10:15:45.56Z</time>
      </trkpt>
      <trkpt lat="45.86457" lon="4.79889">
        <ele>447.9</ele>
        <time>2013-03-10T10:15:46.56Z</time>
      </trkpt>
      <trkpt lat="45.86459" lon="4.7989">
        <ele>447.9</ele>
        <time>2013-03-10T10:15:47.56Z</time>
      </trkpt>
      <trkpt lat="45.86461" lon="4.7989">
        <ele>448</ele>
        <time>2013-03-10T10:15:48.56Z</time>
      </trkpt>
      <trkpt lat="45.86465" lon="4.79891">
        <ele>448.3</ele>
        <time>2013-03-10T10:15:49.61Z</time>
      </trkpt>
      <trkpt lat="45.86468" lon="4.79891">
        <ele>448.4</ele>
        <time>2013-03-10T10:15:50.59Z</time>
      </trkpt>
      <trkpt lat="45.86474" lon="4.79894">
        <ele>448.6</ele>
        <time>2013-03-10T10:15:52.56Z</time>
      </trkpt>
      <trkpt lat="45.86477" lon="4.79896">
        <ele>448.7</ele>
        <time>2013-03-10T10:15:53.56Z</time>
      </trkpt>
      <trkpt lat="45.8648" lon="4.79897">
        <ele>448.8</ele>
        <time>2013-03-10T10:15:54.56Z</time>
      </trkpt>
      <trkpt lat="45.86483" lon="4.79898">
        <ele>448.9</ele>
        <time>2013-03-10T10:15:55.56Z</time>
      </trkpt>
      <trkpt lat="45.86486" lon="4.79899">
        <ele>449.1</ele>
        <time>2013-03-10T10:15:56.61Z</time>
      </trkpt>
      <trkpt lat="45.86493" lon="4.79902">
        <ele>449.4</ele>
        <time>2013-03-10T10:15:58.65Z</time>
      </trkpt>
      <trkpt lat="45.86498" lon="4.79904">
        <ele>453.5</ele>
        <time>2013-03-10T10:16:00.61Z</time>
      </trkpt>
      <trkpt lat="45.86504" lon="4.79907">
        <ele>449.8</ele>
        <time>2013-03-10T10:16:02.61Z</time>
      </trkpt>
      <trkpt lat="45.86507" lon="4.79909">
        <ele>449.8</ele>
        <time>2013-03-10T10:16:03.65Z</time>
      </trkpt>
      <trkpt lat="45.8651" lon="4.7991">
        <ele>449.8</ele>
        <time>2013-03-10T10:16:05.61Z</time>
      </trkpt>
      <trkpt lat="45.86513" lon="4.79911">
        <ele>449.9</ele>
        <time>2013-03-10T10:16:06.61Z</time>
      </trkpt>
      <trkpt lat="45.86516" lon="4.79912">
        <ele>449.9</ele>
        <time>2013-03-10T10:16:07.6Z</time>
      </trkpt>
      <trkpt lat="45.8652" lon="4.79913">
        <ele>450</ele>
        <time>2013-03-10T10:16:08.64Z</time>
      </trkpt>
      <trkpt lat="45.86526" lon="4.79913">
        <ele>450.2</ele>
        <time>2013-03-10T10:16:10.61Z</time>
      </trkpt>
      <trkpt lat="45.86529" lon="4.79912">
        <ele>450.3</ele>
        <time>2013-03-10T10:16:11.61Z</time>
      </trkpt>
      <trkpt lat="45.86532" lon="4.79912">
        <ele>450.4</ele>
        <time>2013-03-10T10:16:12.61Z</time>
      </trkpt>
      <trkpt lat="45.86535" lon="4.79913">
        <ele>450.5</ele>
        <time>2013-03-10T10:16:13.67Z</time>
      </trkpt>
      <trkpt lat="45.86539" lon="4.79912">
        <ele>450.8</ele>
        <time>2013-03-10T10:16:15.56Z</time>
      </trkpt>
      <trkpt lat="45.86541" lon="4.79911">
        <ele>450.9</ele>
        <time>2013-03-10T10:16:16.57Z</time>
      </trkpt>
      <trkpt lat="45.86544" lon="4.79912">
        <ele>451</ele>
        <time>2013-03-10T10:16:17.61Z</time>
      </trkpt>
      <trkpt lat="45.86546" lon="4.79911">
        <ele>451.1</ele>
        <time>2013-03-10T10:16:18.68Z</time>
      </trkpt>
      <trkpt lat="45.86551" lon="4.79909">
        <ele>451.4</ele>
        <time>2013-03-10T10:16:20.56Z</time>
      </trkpt>
      <trkpt lat="45.86553" lon="4.79908">
        <ele>451.6</ele>
        <time>2013-03-10T10:16:21.56Z</time>
      </trkpt>
      <trkpt lat="45.86556" lon="4.79907">
        <ele>451.7</ele>
        <time>2013-03-10T10:16:22.56Z</time>
      </trkpt>
      <trkpt lat="45.86558" lon="4.79906">
        <ele>451.7</ele>
        <time>2013-03-10T10:16:23.56Z</time>
      </trkpt>
      <trkpt lat="45.86561" lon="4.79906">
        <ele>451.7</ele>
        <time>2013-03-10T10:16:24.56Z</time>
      </trkpt>
      <trkpt lat="45.86564" lon="4.79905">
        <ele>451.7</ele>
        <time>2013-03-10T10:16:25.56Z</time>
      </trkpt>
      <trkpt lat="45.86566" lon="4.79904">
        <ele>451.8</ele>
        <time>2013-03-10T10:16:26.56Z</time>
      </trkpt>
      <trkpt lat="45.86569" lon="4.79902">
        <ele>451.8</ele>
        <time>2013-03-10T10:16:27.56Z</time>
      </trkpt>
      <trkpt lat="45.86571" lon="4.79901">
        <ele>451.8</ele>
        <time>2013-03-10T10:16:28.56Z</time>
      </trkpt>
      <trkpt lat="45.86574" lon="4.79899">
        <ele>451.8</ele>
        <time>2013-03-10T10:16:29.56Z</time>
      </trkpt>
      <trkpt lat="45.86576" lon="4.79898">
        <ele>451.9</ele>
        <time>2013-03-10T10:16:30.56Z</time>
      </trkpt>
      <trkpt lat="45.86579" lon="4.79896">
        <ele>451.8</ele>
        <time>2013-03-10T10:16:31.56Z</time>
      </trkpt>
      <trkpt lat="45.86583" lon="4.79895">
        <ele>451.8</ele>
        <time>2013-03-10T10:16:32.56Z</time>
      </trkpt>
      <trkpt lat="45.86586" lon="4.79894">
        <ele>451.6</ele>
        <time>2013-03-10T10:16:33.57Z</time>
      </trkpt>
      <trkpt lat="45.86588" lon="4.79892">
        <ele>451.6</ele>
        <time>2013-03-10T10:16:34.56Z</time>
      </trkpt>
      <trkpt lat="45.86591" lon="4.7989">
        <ele>451.4</ele>
        <time>2013-03-10T10:16:35.56Z</time>
      </trkpt>
      <trkpt lat="45.86593" lon="4.79888">
        <ele>451.4</ele>
        <time>2013-03-10T10:16:36.57Z</time>
      </trkpt>
      <trkpt lat="45.86595" lon="4.79886">
        <ele>451.3</ele>
        <time>2013-03-10T10:16:37.56Z</time>
      </trkpt>
      <trkpt lat="45.86597" lon="4.79883">
        <ele>451.2</ele>
        <time>2013-03-10T10:16:38.56Z</time>
      </trkpt>
      <trkpt lat="45.86599" lon="4.7988">
        <ele>451.1</ele>
        <time>2013-03-10T10:16:39.6Z</time>
      </trkpt>
      <trkpt lat="45.86602" lon="4.79877">
        <ele>451</ele>
        <time>2013-03-10T10:16:40.6Z</time>
      </trkpt>
      <trkpt lat="45.86604" lon="4.79874">
        <ele>450.8</ele>
        <time>2013-03-10T10:16:41.6Z</time>
      </trkpt>
      <trkpt lat="45.86606" lon="4.79872">
        <ele>450.5</ele>
        <time>2013-03-10T10:16:42.63Z</time>
      </trkpt>
      <trkpt lat="45.86611" lon="4.79866">
        <ele>449.9</ele>
        <time>2013-03-10T10:16:44.56Z</time>
      </trkpt>
      <trkpt lat="45.86613" lon="4.79864">
        <ele>449.3</ele>
        <time>2013-03-10T10:16:45.56Z</time>
      </trkpt>
      <trkpt lat="45.86615" lon="4.79861">
        <ele>448.7</ele>
        <time>2013-03-10T10:16:46.56Z</time>
      </trkpt>
      <trkpt lat="45.86617" lon="4.79857">
        <ele>448.4</ele>
        <time>2013-03-10T10:16:47.56Z</time>
      </trkpt>
      <trkpt lat="45.86618" lon="4.79853">
        <ele>448.3</ele>
        <time>2013-03-10T10:16:48.56Z</time>
      </trkpt>
      <trkpt lat="45.86619" lon="4.79849">
        <ele>448.5</ele>
        <time>2013-03-10T10:16:49.56Z</time>
      </trkpt>
      <trkpt lat="45.86619" lon="4.79845">
        <ele>448.8</ele>
        <time>2013-03-10T10:16:50.57Z</time>
      </trkpt>
      <trkpt lat="45.86619" lon="4.79841">
        <ele>449</ele>
        <time>2013-03-10T10:16:51.6Z</time>
      </trkpt>
      <trkpt lat="45.86619" lon="4.79836">
        <ele>449.3</ele>
        <time>2013-03-10T10:16:52.6Z</time>
      </trkpt>
      <trkpt lat="45.86619" lon="4.7983">
        <ele>449.7</ele>
        <time>2013-03-10T10:16:53.66Z</time>
      </trkpt>
      <trkpt lat="45.86621" lon="4.79821">
        <ele>450</ele>
        <time>2013-03-10T10:16:55.56Z</time>
      </trkpt>
      <trkpt lat="45.86623" lon="4.79817">
        <ele>449.8</ele>
        <time>2013-03-10T10:16:56.56Z</time>
      </trkpt>
      <trkpt lat="45.86624" lon="4.79812">
        <ele>449.7</ele>
        <time>2013-03-10T10:16:57.56Z</time>
      </trkpt>
      <trkpt lat="45.86625" lon="4.79808">
        <ele>449.8</ele>
        <time>2013-03-10T10:16:58.67Z</time>
      </trkpt>
      <trkpt lat="45.86629" lon="4.79802">
        <ele>454.6</ele>
        <time>2013-03-10T10:17:00.59Z</time>
      </trkpt>
      <trkpt lat="45.86632" lon="4.79798">
        <ele>448.2</ele>
        <time>2013-03-10T10:17:01.6Z</time>
      </trkpt>
      <trkpt lat="45.86633" lon="4.79794">
        <ele>447.9</ele>
        <time>2013-03-10T10:17:02.6Z</time>
      </trkpt>
      <trkpt lat="45.86636" lon="4.7979">
        <ele>447.6</ele>
        <time>2013-03-10T10:17:03.76Z</time>
      </trkpt>
      <trkpt lat="45.86639" lon="4.79782">
        <ele>447.2</ele>
        <time>2013-03-10T10:17:05.58Z</time>
      </trkpt>
      <trkpt lat="45.86643" lon="4.79775">
        <ele>446.6</ele>
        <time>2013-03-10T10:17:07.61Z</time>
      </trkpt>
      <trkpt lat="45.86647" lon="4.79767">
        <ele>446.2</ele>
        <time>2013-03-10T10:17:09.56Z</time>
      </trkpt>
      <trkpt lat="45.86648" lon="4.79763">
        <ele>446.1</ele>
        <time>2013-03-10T10:17:10.56Z</time>
      </trkpt>
      <trkpt lat="45.8665" lon="4.79758">
        <ele>445.9</ele>
        <time>2013-03-10T10:17:11.56Z</time>
      </trkpt>
      <trkpt lat="45.86653" lon="4.79754">
        <ele>445.4</ele>
        <time>2013-03-10T10:17:12.56Z</time>
      </trkpt>
      <trkpt lat="45.86656" lon="4.7975">
        <ele>444.8</ele>
        <time>2013-03-10T10:17:13.57Z</time>
      </trkpt>
      <trkpt lat="45.86658" lon="4.79746">
        <ele>444.2</ele>
        <time>2013-03-10T10:17:14.56Z</time>
      </trkpt>
      <trkpt lat="45.8666" lon="4.7974">
        <ele>443.8</ele>
        <time>2013-03-10T10:17:15.56Z</time>
      </trkpt>
      <trkpt lat="45.86662" lon="4.79735">
        <ele>443.3</ele>
        <time>2013-03-10T10:17:16.57Z</time>
      </trkpt>
      <trkpt lat="45.86665" lon="4.7973">
        <ele>442.8</ele>
        <time>2013-03-10T10:17:17.59Z</time>
      </trkpt>
      <trkpt lat="45.86667" lon="4.79725">
        <ele>442.5</ele>
        <time>2013-03-10T10:17:18.73Z</time>
      </trkpt>
      <trkpt lat="45.86672" lon="4.79718">
        <ele>441.3</ele>
        <time>2013-03-10T10:17:20.59Z</time>
      </trkpt>
      <trkpt lat="45.86674" lon="4.79715">
        <ele>440.6</ele>
        <time>2013-03-10T10:17:21.59Z</time>
      </trkpt>
      <trkpt lat="45.86676" lon="4.79711">
        <ele>440.2</ele>
        <time>2013-03-10T10:17:22.59Z</time>
      </trkpt>
      <trkpt lat="45.86677" lon="4.79708">
        <ele>440</ele>
        <time>2013-03-10T10:17:23.66Z</time>
      </trkpt>
      <trkpt lat="45.86675" lon="4.79702">
        <ele>441</ele>
        <time>2013-03-10T10:17:25.6Z</time>
      </trkpt>
      <trkpt lat="45.86674" lon="4.79699">
        <ele>441.4</ele>
        <time>2013-03-10T10:17:26.59Z</time>
      </trkpt>
      <trkpt lat="45.86673" lon="4.79696">
        <ele>442.1</ele>
        <time>2013-03-10T10:17:27.62Z</time>
      </trkpt>
      <trkpt lat="45.86671" lon="4.79687">
        <ele>442.5</ele>
        <time>2013-03-10T10:17:29.56Z</time>
      </trkpt>
      <trkpt lat="45.86672" lon="4.79684">
        <ele>442.1</ele>
        <time>2013-03-10T10:17:30.58Z</time>
      </trkpt>
      <trkpt lat="45.86672" lon="4.79681">
        <ele>441.8</ele>
        <time>2013-03-10T10:17:31.59Z</time>
      </trkpt>
      <trkpt lat="45.8667" lon="4.79678">
        <ele>442.3</ele>
        <time>2013-03-10T10:17:32.59Z</time>
      </trkpt>
      <trkpt lat="45.86668" lon="4.79675">
        <ele>443</ele>
        <time>2013-03-10T10:17:33.69Z</time>
      </trkpt>
      <trkpt lat="45.86664" lon="4.79668">
        <ele>444.2</ele>
        <time>2013-03-10T10:17:35.56Z</time>
      </trkpt>
      <trkpt lat="45.86662" lon="4.79664">
        <ele>444.7</ele>
        <time>2013-03-10T10:17:36.56Z</time>
      </trkpt>
      <trkpt lat="45.86661" lon="4.7966">
        <ele>445.1</ele>
        <time>2013-03-10T10:17:37.56Z</time>
      </trkpt>
      <trkpt lat="45.86659" lon="4.79657">
        <ele>445.7</ele>
        <time>2013-03-10T10:17:38.56Z</time>
      </trkpt>
      <trkpt lat="45.86657" lon="4.79654">
        <ele>446</ele>
        <time>2013-03-10T10:17:39.59Z</time>
      </trkpt>
      <trkpt lat="45.86656" lon="4.7965">
        <ele>446.2</ele>
        <time>2013-03-10T10:17:40.62Z</time>
      </trkpt>
      <trkpt lat="45.86653" lon="4.79644">
        <ele>446.6</ele>
        <time>2013-03-10T10:17:42.57Z</time>
      </trkpt>
      <trkpt lat="45.86653" lon="4.7964">
        <ele>446.6</ele>
        <time>2013-03-10T10:17:43.66Z</time>
      </trkpt>
      <trkpt lat="45.86651" lon="4.79633">
        <ele>446.8</ele>
        <time>2013-03-10T10:17:45.56Z</time>
      </trkpt>
      <trkpt lat="45.86649" lon="4.79629">
        <ele>446.9</ele>
        <time>2013-03-10T10:17:46.58Z</time>
      </trkpt>
      <trkpt lat="45.8665" lon="4.79625">
        <ele>446.5</ele>
        <time>2013-03-10T10:17:47.63Z</time>
      </trkpt>
      <trkpt lat="45.8665" lon="4.79617">
        <ele>445.8</ele>
        <time>2013-03-10T10:17:49.56Z</time>
      </trkpt>
      <trkpt lat="45.86649" lon="4.79613">
        <ele>445.9</ele>
        <time>2013-03-10T10:17:50.57Z</time>
      </trkpt>
      <trkpt lat="45.86649" lon="4.79609">
        <ele>445.7</ele>
        <time>2013-03-10T10:17:51.58Z</time>
      </trkpt>
      <trkpt lat="45.86649" lon="4.79605">
        <ele>445.2</ele>
        <time>2013-03-10T10:17:52.58Z</time>
      </trkpt>
      <trkpt lat="45.86649" lon="4.796">
        <ele>445</ele>
        <time>2013-03-10T10:17:53.65Z</time>
      </trkpt>
      <trkpt lat="45.86647" lon="4.79592">
        <ele>444.8</ele>
        <time>2013-03-10T10:17:55.58Z</time>
      </trkpt>
      <trkpt lat="45.86647" lon="4.79587">
        <ele>444.7</ele>
        <time>2013-03-10T10:17:56.58Z</time>
      </trkpt>
      <trkpt lat="45.86646" lon="4.79583">
        <ele>444.8</ele>
        <time>2013-03-10T10:17:57.58Z</time>
      </trkpt>
      <trkpt lat="45.86646" lon="4.79578">
        <ele>444.8</ele>
        <time>2013-03-10T10:17:58.66Z</time>
      </trkpt>
      <trkpt lat="45.86644" lon="4.79567">
        <ele>458.6</ele>
        <time>2013-03-10T10:18:00.63Z</time>
      </trkpt>
      <trkpt lat="45.86645" lon="4.79558">
        <ele>444.7</ele>
        <time>2013-03-10T10:18:02.58Z</time>
      </trkpt>
      <trkpt lat="45.86645" lon="4.79552">
        <ele>444.7</ele>
        <time>2013-03-10T10:18:03.65Z</time>
      </trkpt>
      <trkpt lat="45.86647" lon="4.79543">
        <ele>444.1</ele>
        <time>2013-03-10T10:18:05.56Z</time>
      </trkpt>
      <trkpt lat="45.86648" lon="4.79537">
        <ele>443.6</ele>
        <time>2013-03-10T10:18:06.58Z</time>
      </trkpt>
      <trkpt lat="45.86649" lon="4.79531">
        <ele>443.5</ele>
        <time>2013-03-10T10:18:07.58Z</time>
      </trkpt>
      <trkpt lat="45.8665" lon="4.79525">
        <ele>443.1</ele>
        <time>2013-03-10T10:18:08.65Z</time>
      </trkpt>
      <trkpt lat="45.86653" lon="4.79515">
        <ele>441.8</ele>
        <time>2013-03-10T10:18:10.56Z</time>
      </trkpt>
      <trkpt lat="45.86654" lon="4.7951">
        <ele>441.3</ele>
        <time>2013-03-10T10:18:11.56Z</time>
      </trkpt>
      <trkpt lat="45.86653" lon="4.79504">
        <ele>441.6</ele>
        <time>2013-03-10T10:18:12.56Z</time>
      </trkpt>
      <trkpt lat="45.86653" lon="4.79499">
        <ele>441.4</ele>
        <time>2013-03-10T10:18:13.66Z</time>
      </trkpt>
      <trkpt lat="45.86655" lon="4.79488">
        <ele>440.7</ele>
        <time>2013-03-10T10:18:15.56Z</time>
      </trkpt>
      <trkpt lat="45.86654" lon="4.79483">
        <ele>440.6</ele>
        <time>2013-03-10T10:18:16.57Z</time>
      </trkpt>
      <trkpt lat="45.86653" lon="4.79477">
        <ele>440.9</ele>
        <time>2013-03-10T10:18:17.66Z</time>
      </trkpt>
      <trkpt lat="45.86654" lon="4.79468">
        <ele>440.5</ele>
        <time>2013-03-10T10:18:19.58Z</time>
      </trkpt>
      <trkpt lat="45.86653" lon="4.79463">
        <ele>440.5</ele>
        <time>2013-03-10T10:18:20.62Z</time>
      </trkpt>
      <trkpt lat="45.86652" lon="4.79454">
        <ele>440.3</ele>
        <time>2013-03-10T10:18:22.57Z</time>
      </trkpt>
      <trkpt lat="45.86652" lon="4.7945">
        <ele>440.1</ele>
        <time>2013-03-10T10:18:23.56Z</time>
      </trkpt>
      <trkpt lat="45.86653" lon="4.79445">
        <ele>439.6</ele>
        <time>2013-03-10T10:18:24.58Z</time>
      </trkpt>
      <trkpt lat="45.86654" lon="4.7944">
        <ele>439</ele>
        <time>2013-03-10T10:18:25.58Z</time>
      </trkpt>
      <trkpt lat="45.86654" lon="4.79435">
        <ele>438.7</ele>
        <time>2013-03-10T10:18:26.63Z</time>
      </trkpt>
      <trkpt lat="45.86655" lon="4.79425">
        <ele>437.7</ele>
        <time>2013-03-10T10:18:28.56Z</time>
      </trkpt>
      <trkpt lat="45.86656" lon="4.79421">
        <ele>437.4</ele>
        <time>2013-03-10T10:18:29.57Z</time>
      </trkpt>
      <trkpt lat="45.86655" lon="4.79415">
        <ele>437.2</ele>
        <time>2013-03-10T10:18:30.66Z</time>
      </trkpt>
      <trkpt lat="45.86655" lon="4.79404">
        <ele>436.4</ele>
        <time>2013-03-10T10:18:32.56Z</time>
      </trkpt>
      <trkpt lat="45.86656" lon="4.79399">
        <ele>435.9</ele>
        <time>2013-03-10T10:18:33.57Z</time>
      </trkpt>
      <trkpt lat="45.86657" lon="4.79395">
        <ele>435.4</ele>
        <time>2013-03-10T10:18:34.57Z</time>
      </trkpt>
      <trkpt lat="45.86657" lon="4.7939">
        <ele>435.3</ele>
        <time>2013-03-10T10:18:35.57Z</time>
      </trkpt>
      <trkpt lat="45.86656" lon="4.79386">
        <ele>435.1</ele>
        <time>2013-03-10T10:18:36.62Z</time>
      </trkpt>
      <trkpt lat="45.86652" lon="4.79374">
        <ele>435</ele>
        <time>2013-03-10T10:18:38.56Z</time>
      </trkpt>
      <trkpt lat="45.86651" lon="4.79369">
        <ele>434.9</ele>
        <time>2013-03-10T10:18:39.58Z</time>
      </trkpt>
      <trkpt lat="45.86651" lon="4.79364">
        <ele>434.5</ele>
        <time>2013-03-10T10:18:40.62Z</time>
      </trkpt>
      <trkpt lat="45.86651" lon="4.7935">
        <ele>433.8</ele>
        <time>2013-03-10T10:18:42.65Z</time>
      </trkpt>
      <trkpt lat="45.86651" lon="4.79338">
        <ele>433.1</ele>
        <time>2013-03-10T10:18:44.57Z</time>
      </trkpt>
      <trkpt lat="45.86651" lon="4.79333">
        <ele>432.9</ele>
        <time>2013-03-10T10:18:45.58Z</time>
      </trkpt>
      <trkpt lat="45.8665" lon="4.79328">
        <ele>432.8</ele>
        <time>2013-03-10T10:18:46.69Z</time>
      </trkpt>
      <trkpt lat="45.86649" lon="4.79318">
        <ele>432.5</ele>
        <time>2013-03-10T10:18:48.66Z</time>
      </trkpt>
      <trkpt lat="45.8665" lon="4.7931">
        <ele>432.1</ele>
        <time>2013-03-10T10:18:50.58Z</time>
      </trkpt>
      <trkpt lat="45.86651" lon="4.79306">
        <ele>431.9</ele>
        <time>2013-03-10T10:18:51.57Z</time>
      </trkpt>
      <trkpt lat="45.8665" lon="4.79301">
        <ele>431.8</ele>
        <time>2013-03-10T10:18:52.58Z</time>
      </trkpt>
      <trkpt lat="45.8665" lon="4.79296">
        <ele>431.6</ele>
        <time>2013-03-10T10:18:53.66Z</time>
      </trkpt>
      <trkpt lat="45.86651" lon="4.79286">
        <ele>431.1</ele>
        <time>2013-03-10T10:18:55.56Z</time>
      </trkpt>
      <trkpt lat="45.86651" lon="4.7928">
        <ele>430.9</ele>
        <time>2013-03-10T10:18:56.58Z</time>
      </trkpt>
      <trkpt lat="45.86651" lon="4.79275">
        <ele>430.9</ele>
        <time>2013-03-10T10:18:57.57Z</time>
      </trkpt>
      <trkpt lat="45.86651" lon="4.7927">
        <ele>430.7</ele>
        <time>2013-03-10T10:18:58.68Z</time>
      </trkpt>
      <trkpt lat="45.86653" lon="4.7926">
        <ele>444.3</ele>
        <time>2013-03-10T10:19:00.57Z</time>
      </trkpt>
      <trkpt lat="45.86654" lon="4.79255">
        <ele>429.9</ele>
        <time>2013-03-10T10:19:01.57Z</time>
      </trkpt>
      <trkpt lat="45.86654" lon="4.7925">
        <ele>429.8</ele>
        <time>2013-03-10T10:19:02.57Z</time>
      </trkpt>
      <trkpt lat="45.86654" lon="4.79245">
        <ele>429.8</ele>
        <time>2013-03-10T10:19:03.69Z</time>
      </trkpt>
      <trkpt lat="45.86654" lon="4.79235">
        <ele>429.7</ele>
        <time>2013-03-10T10:19:05.58Z</time>
      </trkpt>
      <trkpt lat="45.86654" lon="4.79231">
        <ele>429.7</ele>
        <time>2013-03-10T10:19:06.57Z</time>
      </trkpt>
      <trkpt lat="45.86655" lon="4.79226">
        <ele>429.6</ele>
        <time>2013-03-10T10:19:07.71Z</time>
      </trkpt>
      <trkpt lat="45.86655" lon="4.79216">
        <ele>429.5</ele>
        <time>2013-03-10T10:19:09.56Z</time>
      </trkpt>
      <trkpt lat="45.86656" lon="4.79211">
        <ele>429.4</ele>
        <time>2013-03-10T10:19:10.66Z</time>
      </trkpt>
      <trkpt lat="45.86658" lon="4.79202">
        <ele>429.2</ele>
        <time>2013-03-10T10:19:12.66Z</time>
      </trkpt>
      <trkpt lat="45.8666" lon="4.79193">
        <ele>428.9</ele>
        <time>2013-03-10T10:19:14.57Z</time>
      </trkpt>
      <trkpt lat="45.86661" lon="4.79189">
        <ele>428.8</ele>
        <time>2013-03-10T10:19:15.66Z</time>
      </trkpt>
      <trkpt lat="45.86663" lon="4.79184">
        <ele>428.6</ele>
        <time>2013-03-10T10:19:16.57Z</time>
      </trkpt>
      <trkpt lat="45.86664" lon="4.79179">
        <ele>428.4</ele>
        <time>2013-03-10T10:19:17.66Z</time>
      </trkpt>
      <trkpt lat="45.86666" lon="4.79169">
        <ele>428.1</ele>
        <time>2013-03-10T10:19:19.56Z</time>
      </trkpt>
      <trkpt lat="45.86668" lon="4.79164">
        <ele>427.9</ele>
        <time>2013-03-10T10:19:20.66Z</time>
      </trkpt>
      <trkpt lat="45.8667" lon="4.79155">
        <ele>427.8</ele>
        <time>2013-03-10T10:19:22.66Z</time>
      </trkpt>
      <trkpt lat="45.86673" lon="4.79145">
        <ele>427.7</ele>
        <time>2013-03-10T10:19:24.56Z</time>
      </trkpt>
      <trkpt lat="45.86674" lon="4.7914">
        <ele>427.6</ele>
        <time>2013-03-10T10:19:25.66Z</time>
      </trkpt>
      <trkpt lat="45.86677" lon="4.79132">
        <ele>427.5</ele>
        <time>2013-03-10T10:19:27.66Z</time>
      </trkpt>
      <trkpt lat="45.8668" lon="4.79123">
        <ele>427.5</ele>
        <time>2013-03-10T10:19:29.57Z</time>
      </trkpt>
      <trkpt lat="45.86681" lon="4.79118">
        <ele>427.5</ele>
        <time>2013-03-10T10:19:30.66Z</time>
      </trkpt>
      <trkpt lat="45.86683" lon="4.79114">
        <ele>427.5</ele>
        <time>2013-03-10T10:19:31.57Z</time>
      </trkpt>
      <trkpt lat="45.86684" lon="4.79111">
        <ele>427.5</ele>
        <time>2013-03-10T10:19:32.64Z</time>
      </trkpt>
      <trkpt lat="45.86688" lon="4.79102">
        <ele>427.5</ele>
        <time>2013-03-10T10:19:34.66Z</time>
      </trkpt>
      <trkpt lat="45.8669" lon="4.79098">
        <ele>427.5</ele>
        <time>2013-03-10T10:19:35.56Z</time>
      </trkpt>
      <trkpt lat="45.86692" lon="4.79094">
        <ele>427.5</ele>
        <time>2013-03-10T10:19:36.66Z</time>
      </trkpt>
      <trkpt lat="45.86694" lon="4.79091">
        <ele>427.5</ele>
        <time>2013-03-10T10:19:37.56Z</time>
      </trkpt>
      <trkpt lat="45.86697" lon="4.79087">
        <ele>427.2</ele>
        <time>2013-03-10T10:19:38.68Z</time>
      </trkpt>
      <trkpt lat="45.86702" lon="4.7908">
        <ele>426.6</ele>
        <time>2013-03-10T10:19:40.57Z</time>
      </trkpt>
      <trkpt lat="45.86704" lon="4.79077">
        <ele>426.2</ele>
        <time>2013-03-10T10:19:41.66Z</time>
      </trkpt>
      <trkpt lat="45.86709" lon="4.7907">
        <ele>425.6</ele>
        <time>2013-03-10T10:19:43.66Z</time>
      </trkpt>
      <trkpt lat="45.86713" lon="4.79062">
        <ele>425.2</ele>
        <time>2013-03-10T10:19:45.66Z</time>
      </trkpt>
      <trkpt lat="45.86715" lon="4.79059">
        <ele>425</ele>
        <time>2013-03-10T10:19:46.56Z</time>
      </trkpt>
      <trkpt lat="45.86717" lon="4.79056">
        <ele>425</ele>
        <time>2013-03-10T10:19:47.66Z</time>
      </trkpt>
      <trkpt lat="45.86718" lon="4.79052">
        <ele>425</ele>
        <time>2013-03-10T10:19:48.56Z</time>
      </trkpt>
      <trkpt lat="45.8672" lon="4.79049">
        <ele>424.8</ele>
        <time>2013-03-10T10:19:49.65Z</time>
      </trkpt>
      <trkpt lat="45.86722" lon="4.79046">
        <ele>424.6</ele>
        <time>2013-03-10T10:19:50.57Z</time>
      </trkpt>
      <trkpt lat="45.86725" lon="4.79043">
        <ele>424</ele>
        <time>2013-03-10T10:19:51.56Z</time>
      </trkpt>
      <trkpt lat="45.86727" lon="4.79039">
        <ele>423.4</ele>
        <time>2013-03-10T10:19:52.65Z</time>
      </trkpt>
      <trkpt lat="45.86729" lon="4.79036">
        <ele>422.9</ele>
        <time>2013-03-10T10:19:53.57Z</time>
      </trkpt>
      <trkpt lat="45.86731" lon="4.79032">
        <ele>422.3</ele>
        <time>2013-03-10T10:19:54.65Z</time>
      </trkpt>
      <trkpt lat="45.86734" lon="4.79027">
        <ele>421.3</ele>
        <time>2013-03-10T10:19:55.57Z</time>
      </trkpt>
      <trkpt lat="45.86737" lon="4.79023">
        <ele>420.4</ele>
        <time>2013-03-10T10:19:56.65Z</time>
      </trkpt>
      <trkpt lat="45.86739" lon="4.79019">
        <ele>419.5</ele>
        <time>2013-03-10T10:19:57.57Z</time>
      </trkpt>
      <trkpt lat="45.86742" lon="4.79011">
        <ele>418.3</ele>
        <time>2013-03-10T10:19:59.61Z</time>
      </trkpt>
      <trkpt lat="45.86743" lon="4.79007">
        <ele>432.1</ele>
        <time>2013-03-10T10:20:00.56Z</time>
      </trkpt>
      <trkpt lat="45.86743" lon="4.79002">
        <ele>418.1</ele>
        <time>2013-03-10T10:20:01.65Z</time>
      </trkpt>
      <trkpt lat="45.86744" lon="4.78992">
        <ele>417.7</ele>
        <time>2013-03-10T10:20:03.67Z</time>
      </trkpt>
      <trkpt lat="45.86745" lon="4.78984">
        <ele>417.1</ele>
        <time>2013-03-10T10:20:05.56Z</time>
      </trkpt>
      <trkpt lat="45.86746" lon="4.7898">
        <ele>416.6</ele>
        <time>2013-03-10T10:20:06.65Z</time>
      </trkpt>
      <trkpt lat="45.86745" lon="4.78976">
        <ele>416.6</ele>
        <time>2013-03-10T10:20:07.56Z</time>
      </trkpt>
      <trkpt lat="45.86745" lon="4.78972">
        <ele>416.5</ele>
        <time>2013-03-10T10:20:08.66Z</time>
      </trkpt>
      <trkpt lat="45.86745" lon="4.78964">
        <ele>416.2</ele>
        <time>2013-03-10T10:20:10.65Z</time>
      </trkpt>
      <trkpt lat="45.86748" lon="4.78954">
        <ele>415.4</ele>
        <time>2013-03-10T10:20:12.65Z</time>
      </trkpt>
      <trkpt lat="45.8675" lon="4.7895">
        <ele>415.1</ele>
        <time>2013-03-10T10:20:13.56Z</time>
      </trkpt>
      <trkpt lat="45.86751" lon="4.78947">
        <ele>414.7</ele>
        <time>2013-03-10T10:20:14.65Z</time>
      </trkpt>
      <trkpt lat="45.86756" lon="4.78938">
        <ele>413.5</ele>
        <time>2013-03-10T10:20:16.6Z</time>
      </trkpt>
      <trkpt lat="45.86758" lon="4.78934">
        <ele>412.9</ele>
        <time>2013-03-10T10:20:17.56Z</time>
      </trkpt>
      <trkpt lat="45.8676" lon="4.78929">
        <ele>412.3</ele>
        <time>2013-03-10T10:20:18.77Z</time>
      </trkpt>
      <trkpt lat="45.86764" lon="4.78919">
        <ele>411.1</ele>
        <time>2013-03-10T10:20:20.65Z</time>
      </trkpt>
      <trkpt lat="45.86765" lon="4.78915">
        <ele>410.7</ele>
        <time>2013-03-10T10:20:21.56Z</time>
      </trkpt>
      <trkpt lat="45.86765" lon="4.78911">
        <ele>410.3</ele>
        <time>2013-03-10T10:20:22.65Z</time>
      </trkpt>
      <trkpt lat="45.86766" lon="4.78908">
        <ele>409.8</ele>
        <time>2013-03-10T10:20:23.57Z</time>
      </trkpt>
      <trkpt lat="45.86767" lon="4.78903">
        <ele>409.5</ele>
        <time>2013-03-10T10:20:24.56Z</time>
      </trkpt>
      <trkpt lat="45.86767" lon="4.78899">
        <ele>409.1</ele>
        <time>2013-03-10T10:20:25.65Z</time>
      </trkpt>
      <trkpt lat="45.86767" lon="4.78895">
        <ele>408.7</ele>
        <time>2013-03-10T10:20:26.56Z</time>
      </trkpt>
      <trkpt lat="45.86767" lon="4.78891">
        <ele>408.4</ele>
        <time>2013-03-10T10:20:27.65Z</time>
      </trkpt>
      <trkpt lat="45.86767" lon="4.78886">
        <ele>408</ele>
        <time>2013-03-10T10:20:28.56Z</time>
      </trkpt>
      <trkpt lat="45.86767" lon="4.78882">
        <ele>407.6</ele>
        <time>2013-03-10T10:20:29.65Z</time>
      </trkpt>
      <trkpt lat="45.86767" lon="4.78877">
        <ele>407.3</ele>
        <time>2013-03-10T10:20:30.56Z</time>
      </trkpt>
      <trkpt lat="45.86766" lon="4.78874">
        <ele>407.1</ele>
        <time>2013-03-10T10:20:31.64Z</time>
      </trkpt>
      <trkpt lat="45.86764" lon="4.78867">
        <ele>406.6</ele>
        <time>2013-03-10T10:20:33.7Z</time>
      </trkpt>
      <trkpt lat="45.86762" lon="4.78859">
        <ele>405.9</ele>
        <time>2013-03-10T10:20:35.56Z</time>
      </trkpt>
      <trkpt lat="45.86761" lon="4.78855">
        <ele>405.5</ele>
        <time>2013-03-10T10:20:36.64Z</time>
      </trkpt>
      <trkpt lat="45.86758" lon="4.78848">
        <ele>404.5</ele>
        <time>2013-03-10T10:20:38.65Z</time>
      </trkpt>
      <trkpt lat="45.86757" lon="4.7884">
        <ele>403.2</ele>
        <time>2013-03-10T10:20:40.64Z</time>
      </trkpt>
      <trkpt lat="45.86758" lon="4.78834">
        <ele>401.9</ele>
        <time>2013-03-10T10:20:42.64Z</time>
      </trkpt>
      <trkpt lat="45.86761" lon="4.78832">
        <ele>401.2</ele>
        <time>2013-03-10T10:20:43.56Z</time>
      </trkpt>
      <trkpt lat="45.86764" lon="4.78831">
        <ele>400.6</ele>
        <time>2013-03-10T10:20:44.64Z</time>
      </trkpt>
      <trkpt lat="45.86767" lon="4.7883">
        <ele>400.1</ele>
        <time>2013-03-10T10:20:45.56Z</time>
      </trkpt>
      <trkpt lat="45.86769" lon="4.7883">
        <ele>399.7</ele>
        <time>2013-03-10T10:20:46.56Z</time>
      </trkpt>
      <trkpt lat="45.86772" lon="4.78829">
        <ele>399.2</ele>
        <time>2013-03-10T10:20:47.64Z</time>
      </trkpt>
      <trkpt lat="45.86775" lon="4.78828">
        <ele>398.7</ele>
        <time>2013-03-10T10:20:48.56Z</time>
      </trkpt>
      <trkpt lat="45.86778" lon="4.78828">
        <ele>398.1</ele>
        <time>2013-03-10T10:20:49.64Z</time>
      </trkpt>
      <trkpt lat="45.86784" lon="4.78827">
        <ele>397.2</ele>
        <time>2013-03-10T10:20:51.57Z</time>
      </trkpt>
      <trkpt lat="45.86787" lon="4.78827">
        <ele>396.8</ele>
        <time>2013-03-10T10:20:52.64Z</time>
      </trkpt>
      <trkpt lat="45.8679" lon="4.78826">
        <ele>396.3</ele>
        <time>2013-03-10T10:20:53.57Z</time>
      </trkpt>
      <trkpt lat="45.86792" lon="4.78824">
        <ele>395.8</ele>
        <time>2013-03-10T10:20:54.64Z</time>
      </trkpt>
      <trkpt lat="45.86795" lon="4.78823">
        <ele>395.2</ele>
        <time>2013-03-10T10:20:55.56Z</time>
      </trkpt>
      <trkpt lat="45.86799" lon="4.78822">
        <ele>394.6</ele>
        <time>2013-03-10T10:20:56.64Z</time>
      </trkpt>
      <trkpt lat="45.86801" lon="4.7882">
        <ele>394.1</ele>
        <time>2013-03-10T10:20:57.56Z</time>
      </trkpt>
      <trkpt lat="45.86808" lon="4.78818">
        <ele>393</ele>
        <time>2013-03-10T10:20:59.69Z</time>
      </trkpt>
      <trkpt lat="45.86815" lon="4.78815">
        <ele>412.8</ele>
        <time>2013-03-10T10:21:01.56Z</time>
      </trkpt>
      <trkpt lat="45.86819" lon="4.78814">
        <ele>391.2</ele>
        <time>2013-03-10T10:21:02.69Z</time>
      </trkpt>
      <trkpt lat="45.86824" lon="4.78812">
        <ele>390.3</ele>
        <time>2013-03-10T10:21:04.57Z</time>
      </trkpt>
      <trkpt lat="45.86827" lon="4.78811">
        <ele>390</ele>
        <time>2013-03-10T10:21:05.64Z</time>
      </trkpt>
      <trkpt lat="45.8683" lon="4.7881">
        <ele>389.6</ele>
        <time>2013-03-10T10:21:06.56Z</time>
      </trkpt>
      <trkpt lat="45.86832" lon="4.78808">
        <ele>389.2</ele>
        <time>2013-03-10T10:21:07.64Z</time>
      </trkpt>
      <trkpt lat="45.86835" lon="4.78806">
        <ele>388.9</ele>
        <time>2013-03-10T10:21:08.56Z</time>
      </trkpt>
      <trkpt lat="45.86838" lon="4.78805">
        <ele>388.6</ele>
        <time>2013-03-10T10:21:09.56Z</time>
      </trkpt>
      <trkpt lat="45.86843" lon="4.78805">
        <ele>388.3</ele>
        <time>2013-03-10T10:21:10.63Z</time>
      </trkpt>
      <trkpt lat="45.8685" lon="4.78803">
        <ele>387.7</ele>
        <time>2013-03-10T10:21:12.63Z</time>
      </trkpt>
      <trkpt lat="45.86853" lon="4.78801">
        <ele>387.4</ele>
        <time>2013-03-10T10:21:13.56Z</time>
      </trkpt>
      <trkpt lat="45.86856" lon="4.78798">
        <ele>387</ele>
        <time>2013-03-10T10:21:14.56Z</time>
      </trkpt>
      <trkpt lat="45.86859" lon="4.78795">
        <ele>386.8</ele>
        <time>2013-03-10T10:21:15.63Z</time>
      </trkpt>
      <trkpt lat="45.86861" lon="4.78793">
        <ele>386.5</ele>
        <time>2013-03-10T10:21:16.57Z</time>
      </trkpt>
      <trkpt lat="45.86864" lon="4.78792">
        <ele>386.2</ele>
        <time>2013-03-10T10:21:17.63Z</time>
      </trkpt>
      <trkpt lat="45.8687" lon="4.78788">
        <ele>385.6</ele>
        <time>2013-03-10T10:21:19.63Z</time>
      </trkpt>
      <trkpt lat="45.86873" lon="4.78786">
        <ele>385.3</ele>
        <time>2013-03-10T10:21:20.56Z</time>
      </trkpt>
      <trkpt lat="45.86877" lon="4.78784">
        <ele>385</ele>
        <time>2013-03-10T10:21:21.63Z</time>
      </trkpt>
      <trkpt lat="45.86882" lon="4.78782">
        <ele>384.5</ele>
        <time>2013-03-10T10:21:23.67Z</time>
      </trkpt>
      <trkpt lat="45.86887" lon="4.78778">
        <ele>384.1</ele>
        <time>2013-03-10T10:21:25.63Z</time>
      </trkpt>
      <trkpt lat="45.8689" lon="4.78775">
        <ele>383.5</ele>
        <time>2013-03-10T10:21:27.63Z</time>
      </trkpt>
      <trkpt lat="45.86892" lon="4.78774">
        <ele>383.2</ele>
        <time>2013-03-10T10:21:28.56Z</time>
      </trkpt>
      <trkpt lat="45.86893" lon="4.78772">
        <ele>382.8</ele>
        <time>2013-03-10T10:21:29.63Z</time>
      </trkpt>
      <trkpt lat="45.86896" lon="4.7877">
        <ele>382.3</ele>
        <time>2013-03-10T10:21:30.56Z</time>
      </trkpt>
      <trkpt lat="45.86898" lon="4.78769">
        <ele>381.7</ele>
        <time>2013-03-10T10:21:31.63Z</time>
      </trkpt>
      <trkpt lat="45.86905" lon="4.78766">
        <ele>380.3</ele>
        <time>2013-03-10T10:21:33.68Z</time>
      </trkpt>
      <trkpt lat="45.86913" lon="4.78765">
        <ele>378.8</ele>
        <time>2013-03-10T10:21:35.56Z</time>
      </trkpt>
      <trkpt lat="45.86916" lon="4.78763">
        <ele>378.1</ele>
        <time>2013-03-10T10:21:36.63Z</time>
      </trkpt>
      <trkpt lat="45.86919" lon="4.78762">
        <ele>377.4</ele>
        <time>2013-03-10T10:21:37.56Z</time>
      </trkpt>
      <trkpt lat="45.86923" lon="4.7876">
        <ele>376.7</ele>
        <time>2013-03-10T10:21:38.66Z</time>
      </trkpt>
      <trkpt lat="45.86928" lon="4.78757">
        <ele>375.4</ele>
        <time>2013-03-10T10:21:40.56Z</time>
      </trkpt>
      <trkpt lat="45.86932" lon="4.78756">
        <ele>374.7</ele>
        <time>2013-03-10T10:21:41.57Z</time>
      </trkpt>
      <trkpt lat="45.86935" lon="4.78755">
        <ele>374.1</ele>
        <time>2013-03-10T10:21:42.56Z</time>
      </trkpt>
      <trkpt lat="45.86938" lon="4.78753">
        <ele>373.5</ele>
        <time>2013-03-10T10:21:43.56Z</time>
      </trkpt>
      <trkpt lat="45.8694" lon="4.78751">
        <ele>372.8</ele>
        <time>2013-03-10T10:21:44.56Z</time>
      </trkpt>
      <trkpt lat="45.86943" lon="4.7875">
        <ele>372.2</ele>
        <time>2013-03-10T10:21:45.56Z</time>
      </trkpt>
      <trkpt lat="45.86946" lon="4.78749">
        <ele>371.6</ele>
        <time>2013-03-10T10:21:46.56Z</time>
      </trkpt>
      <trkpt lat="45.86949" lon="4.78748">
        <ele>371.2</ele>
        <time>2013-03-10T10:21:47.57Z</time>
      </trkpt>
      <trkpt lat="45.86952" lon="4.78746">
        <ele>370.7</ele>
        <time>2013-03-10T10:21:48.56Z</time>
      </trkpt>
      <trkpt lat="45.86955" lon="4.78744">
        <ele>370.2</ele>
        <time>2013-03-10T10:21:49.56Z</time>
      </trkpt>
      <trkpt lat="45.86958" lon="4.78742">
        <ele>369.7</ele>
        <time>2013-03-10T10:21:50.57Z</time>
      </trkpt>
      <trkpt lat="45.86962" lon="4.78741">
        <ele>369.2</ele>
        <time>2013-03-10T10:21:51.56Z</time>
      </trkpt>
      <trkpt lat="45.86965" lon="4.78739">
        <ele>368.8</ele>
        <time>2013-03-10T10:21:52.56Z</time>
      </trkpt>
      <trkpt lat="45.86968" lon="4.78737">
        <ele>368.4</ele>
        <time>2013-03-10T10:21:53.66Z</time>
      </trkpt>
      <trkpt lat="45.86975" lon="4.78734">
        <ele>367.7</ele>
        <time>2013-03-10T10:21:55.56Z</time>
      </trkpt>
      <trkpt lat="45.86978" lon="4.78732">
        <ele>367.4</ele>
        <time>2013-03-10T10:21:56.56Z</time>
      </trkpt>
      <trkpt lat="45.86981" lon="4.7873">
        <ele>367.1</ele>
        <time>2013-03-10T10:21:57.56Z</time>
      </trkpt>
      <trkpt lat="45.86985" lon="4.78728">
        <ele>366.9</ele>
        <time>2013-03-10T10:21:58.65Z</time>
      </trkpt>
      <trkpt lat="45.86991" lon="4.78726">
        <ele>389.5</ele>
        <time>2013-03-10T10:22:00.62Z</time>
      </trkpt>
      <trkpt lat="45.86998" lon="4.78724">
        <ele>366.1</ele>
        <time>2013-03-10T10:22:02.62Z</time>
      </trkpt>
      <trkpt lat="45.87" lon="4.78722">
        <ele>366</ele>
        <time>2013-03-10T10:22:03.65Z</time>
      </trkpt>
      <trkpt lat="45.87005" lon="4.78719">
        <ele>365.3</ele>
        <time>2013-03-10T10:22:05.56Z</time>
      </trkpt>
      <trkpt lat="45.87009" lon="4.78719">
        <ele>365.2</ele>
        <time>2013-03-10T10:22:06.56Z</time>
      </trkpt>
      <trkpt lat="45.87013" lon="4.78718">
        <ele>365</ele>
        <time>2013-03-10T10:22:07.56Z</time>
      </trkpt>
      <trkpt lat="45.87017" lon="4.78716">
        <ele>364.7</ele>
        <time>2013-03-10T10:22:08.56Z</time>
      </trkpt>
      <trkpt lat="45.8702" lon="4.78714">
        <ele>364.3</ele>
        <time>2013-03-10T10:22:09.56Z</time>
      </trkpt>
      <trkpt lat="45.87024" lon="4.78714">
        <ele>364.1</ele>
        <time>2013-03-10T10:22:10.56Z</time>
      </trkpt>
      <trkpt lat="45.87028" lon="4.78713">
        <ele>364.1</ele>
        <time>2013-03-10T10:22:11.56Z</time>
      </trkpt>
      <trkpt lat="45.87031" lon="4.78713">
        <ele>364</ele>
        <time>2013-03-10T10:22:12.56Z</time>
      </trkpt>
      <trkpt lat="45.87035" lon="4.78714">
        <ele>364</ele>
        <time>2013-03-10T10:22:13.56Z</time>
      </trkpt>
      <trkpt lat="45.87039" lon="4.78715">
        <ele>364.3</ele>
        <time>2013-03-10T10:22:14.63Z</time>
      </trkpt>
      <trkpt lat="45.87047" lon="4.7872">
        <ele>365.5</ele>
        <time>2013-03-10T10:22:16.67Z</time>
      </trkpt>
      <trkpt lat="45.87055" lon="4.78725">
        <ele>365.9</ele>
        <time>2013-03-10T10:22:18.56Z</time>
      </trkpt>
      <trkpt lat="45.87059" lon="4.78727">
        <ele>365.8</ele>
        <time>2013-03-10T10:22:19.56Z</time>
      </trkpt>
      <trkpt lat="45.87063" lon="4.78728">
        <ele>365.8</ele>
        <time>2013-03-10T10:22:20.62Z</time>
      </trkpt>
      <trkpt lat="45.8707" lon="4.78726">
        <ele>365.9</ele>
        <time>2013-03-10T10:22:22.62Z</time>
      </trkpt>
      <trkpt lat="45.87073" lon="4.78724">
        <ele>365.9</ele>
        <time>2013-03-10T10:22:23.67Z</time>
      </trkpt>
      <trkpt lat="45.87079" lon="4.7872">
        <ele>365.4</ele>
        <time>2013-03-10T10:22:25.62Z</time>
      </trkpt>
      <trkpt lat="45.87082" lon="4.78718">
        <ele>365</ele>
        <time>2013-03-10T10:22:26.62Z</time>
      </trkpt>
      <trkpt lat="45.87085" lon="4.78717">
        <ele>364.6</ele>
        <time>2013-03-10T10:22:27.63Z</time>
      </trkpt>
      <trkpt lat="45.87091" lon="4.78715">
        <ele>363.9</ele>
        <time>2013-03-10T10:22:29.61Z</time>
      </trkpt>
      <trkpt lat="45.87094" lon="4.78716">
        <ele>363.9</ele>
        <time>2013-03-10T10:22:30.61Z</time>
      </trkpt>
      <trkpt lat="45.87097" lon="4.78717">
        <ele>364.3</ele>
        <time>2013-03-10T10:22:31.62Z</time>
      </trkpt>
      <trkpt lat="45.87101" lon="4.78722">
        <ele>365.2</ele>
        <time>2013-03-10T10:22:33.69Z</time>
      </trkpt>
      <trkpt lat="45.87106" lon="4.78727">
        <ele>365.2</ele>
        <time>2013-03-10T10:22:35.56Z</time>
      </trkpt>
      <trkpt lat="45.87107" lon="4.7873">
        <ele>365.1</ele>
        <time>2013-03-10T10:22:36.56Z</time>
      </trkpt>
      <trkpt lat="45.87108" lon="4.78733">
        <ele>365.1</ele>
        <time>2013-03-10T10:22:37.56Z</time>
      </trkpt>
      <trkpt lat="45.87109" lon="4.78737">
        <ele>365</ele>
        <time>2013-03-10T10:22:38.56Z</time>
      </trkpt>
      <trkpt lat="45.8711" lon="4.78741">
        <ele>365</ele>
        <time>2013-03-10T10:22:39.56Z</time>
      </trkpt>
      <trkpt lat="45.87111" lon="4.78745">
        <ele>365</ele>
        <time>2013-03-10T10:22:40.56Z</time>
      </trkpt>
      <trkpt lat="45.87112" lon="4.78749">
        <ele>365</ele>
        <time>2013-03-10T10:22:41.57Z</time>
      </trkpt>
      <trkpt lat="45.87113" lon="4.78754">
        <ele>364.4</ele>
        <time>2013-03-10T10:22:42.56Z</time>
      </trkpt>
      <trkpt lat="45.87113" lon="4.78758">
        <ele>363.8</ele>
        <time>2013-03-10T10:22:43.56Z</time>
      </trkpt>
      <trkpt lat="45.87113" lon="4.78762">
        <ele>363.2</ele>
        <time>2013-03-10T10:22:44.59Z</time>
      </trkpt>
      <trkpt lat="45.87114" lon="4.78766">
        <ele>362.6</ele>
        <time>2013-03-10T10:22:45.61Z</time>
      </trkpt>
      <trkpt lat="45.87115" lon="4.7877">
        <ele>362</ele>
        <time>2013-03-10T10:22:46.61Z</time>
      </trkpt>
      <trkpt lat="45.87117" lon="4.78773">
        <ele>361.4</ele>
        <time>2013-03-10T10:22:47.61Z</time>
      </trkpt>
      <trkpt lat="45.87118" lon="4.78776">
        <ele>361</ele>
        <time>2013-03-10T10:22:48.68Z</time>
      </trkpt>
      <trkpt lat="45.87119" lon="4.78784">
        <ele>359.6</ele>
        <time>2013-03-10T10:22:50.57Z</time>
      </trkpt>
      <trkpt lat="45.87119" lon="4.78789">
        <ele>358.8</ele>
        <time>2013-03-10T10:22:51.61Z</time>
      </trkpt>
      <trkpt lat="45.8712" lon="4.78793">
        <ele>358</ele>
        <time>2013-03-10T10:22:52.61Z</time>
      </trkpt>
      <trkpt lat="45.87121" lon="4.78797">
        <ele>357.2</ele>
        <time>2013-03-10T10:22:53.69Z</time>
      </trkpt>
      <trkpt lat="45.87122" lon="4.78803">
        <ele>356.1</ele>
        <time>2013-03-10T10:22:55.56Z</time>
      </trkpt>
      <trkpt lat="45.87123" lon="4.78806">
        <ele>355.4</ele>
        <time>2013-03-10T10:22:56.56Z</time>
      </trkpt>
      <trkpt lat="45.87124" lon="4.78809">
        <ele>354.6</ele>
        <time>2013-03-10T10:22:57.56Z</time>
      </trkpt>
      <trkpt lat="45.87125" lon="4.78812">
        <ele>353.9</ele>
        <time>2013-03-10T10:22:58.56Z</time>
      </trkpt>
      <trkpt lat="45.87126" lon="4.78815">
        <ele>353</ele>
        <time>2013-03-10T10:22:59.59Z</time>
      </trkpt>
      <trkpt lat="45.87127" lon="4.78818">
        <ele>371.2</ele>
        <time>2013-03-10T10:23:00.61Z</time>
      </trkpt>
      <trkpt lat="45.87129" lon="4.78822">
        <ele>351.4</ele>
        <time>2013-03-10T10:23:01.61Z</time>
      </trkpt>
      <trkpt lat="45.8713" lon="4.78824">
        <ele>350.7</ele>
        <time>2013-03-10T10:23:02.61Z</time>
      </trkpt>
      <trkpt lat="45.87131" lon="4.78827">
        <ele>349.8</ele>
        <time>2013-03-10T10:23:03.65Z</time>
      </trkpt>
      <trkpt lat="45.87134" lon="4.78834">
        <ele>347.9</ele>
        <time>2013-03-10T10:23:05.62Z</time>
      </trkpt>
      <trkpt lat="45.87137" lon="4.78839">
        <ele>346.4</ele>
        <time>2013-03-10T10:23:07.59Z</time>
      </trkpt>
      <trkpt lat="45.87138" lon="4.78842">
        <ele>345.7</ele>
        <time>2013-03-10T10:23:08.74Z</time>
      </trkpt>
      <trkpt lat="45.87142" lon="4.78846">
        <ele>343.9</ele>
        <time>2013-03-10T10:23:10.6Z</time>
      </trkpt>
      <trkpt lat="45.87144" lon="4.78848">
        <ele>342.9</ele>
        <time>2013-03-10T10:23:11.6Z</time>
      </trkpt>
      <trkpt lat="45.87146" lon="4.78851">
        <ele>341.9</ele>
        <time>2013-03-10T10:23:12.62Z</time>
      </trkpt>
      <trkpt lat="45.87149" lon="4.78854">
        <ele>340.5</ele>
        <time>2013-03-10T10:23:14.6Z</time>
      </trkpt>
      <trkpt lat="45.87151" lon="4.78854">
        <ele>340.1</ele>
        <time>2013-03-10T10:23:15.6Z</time>
      </trkpt>
      <trkpt lat="45.87153" lon="4.78855">
        <ele>339.5</ele>
        <time>2013-03-10T10:23:16.66Z</time>
      </trkpt>
      <trkpt lat="45.87157" lon="4.78859">
        <ele>338</ele>
        <time>2013-03-10T10:23:18.56Z</time>
      </trkpt>
      <trkpt lat="45.87159" lon="4.78859">
        <ele>337.6</ele>
        <time>2013-03-10T10:23:19.56Z</time>
      </trkpt>
      <trkpt lat="45.87161" lon="4.78859">
        <ele>337.2</ele>
        <time>2013-03-10T10:23:20.6Z</time>
      </trkpt>
      <trkpt lat="45.87162" lon="4.7886">
        <ele>336.9</ele>
        <time>2013-03-10T10:23:21.6Z</time>
      </trkpt>
      <trkpt lat="45.87164" lon="4.78861">
        <ele>336.5</ele>
        <time>2013-03-10T10:23:23.65Z</time>
      </trkpt>
      <trkpt lat="45.87167" lon="4.78864">
        <ele>335.2</ele>
        <time>2013-03-10T10:23:25.56Z</time>
      </trkpt>
      <trkpt lat="45.87169" lon="4.78866">
        <ele>334.4</ele>
        <time>2013-03-10T10:23:26.56Z</time>
      </trkpt>
      <trkpt lat="45.8717" lon="4.78866">
        <ele>334</ele>
        <time>2013-03-10T10:23:27.56Z</time>
      </trkpt>
      <trkpt lat="45.87171" lon="4.78867">
        <ele>333.6</ele>
        <time>2013-03-10T10:23:28.56Z</time>
      </trkpt>
      <trkpt lat="45.87173" lon="4.78868">
        <ele>333.1</ele>
        <time>2013-03-10T10:23:29.6Z</time>
      </trkpt>
      <trkpt lat="45.87174" lon="4.78869">
        <ele>332.4</ele>
        <time>2013-03-10T10:23:30.6Z</time>
      </trkpt>
      <trkpt lat="45.87176" lon="4.7887">
        <ele>331.9</ele>
        <time>2013-03-10T10:23:31.58Z</time>
      </trkpt>
      <trkpt lat="45.87179" lon="4.7887">
        <ele>331.3</ele>
        <time>2013-03-10T10:23:32.6Z</time>
      </trkpt>
      <trkpt lat="45.87181" lon="4.78871">
        <ele>330.8</ele>
        <time>2013-03-10T10:23:33.68Z</time>
      </trkpt>
      <trkpt lat="45.87184" lon="4.78871">
        <ele>330</ele>
        <time>2013-03-10T10:23:35.6Z</time>
      </trkpt>
      <trkpt lat="45.87186" lon="4.78871">
        <ele>329.6</ele>
        <time>2013-03-10T10:23:36.6Z</time>
      </trkpt>
      <trkpt lat="45.87189" lon="4.7887">
        <ele>329.1</ele>
        <time>2013-03-10T10:23:37.71Z</time>
      </trkpt>
      <trkpt lat="45.87194" lon="4.78869">
        <ele>328.3</ele>
        <time>2013-03-10T10:23:39.56Z</time>
      </trkpt>
      <trkpt lat="45.87197" lon="4.78869">
        <ele>327.8</ele>
        <time>2013-03-10T10:23:40.56Z</time>
      </trkpt>
      <trkpt lat="45.87201" lon="4.7887">
        <ele>327</ele>
        <time>2013-03-10T10:23:41.57Z</time>
      </trkpt>
      <trkpt lat="45.87204" lon="4.78869">
        <ele>326.6</ele>
        <time>2013-03-10T10:23:42.56Z</time>
      </trkpt>
      <trkpt lat="45.87207" lon="4.78868">
        <ele>326.3</ele>
        <time>2013-03-10T10:23:43.56Z</time>
      </trkpt>
      <trkpt lat="45.8721" lon="4.78867">
        <ele>326</ele>
        <time>2013-03-10T10:23:44.56Z</time>
      </trkpt>
      <trkpt lat="45.87213" lon="4.78867">
        <ele>325.5</ele>
        <time>2013-03-10T10:23:45.56Z</time>
      </trkpt>
      <trkpt lat="45.87216" lon="4.78866">
        <ele>324.9</ele>
        <time>2013-03-10T10:23:46.56Z</time>
      </trkpt>
      <trkpt lat="45.8722" lon="4.78866">
        <ele>324.4</ele>
        <time>2013-03-10T10:23:47.57Z</time>
      </trkpt>
      <trkpt lat="45.87224" lon="4.78866">
        <ele>323.6</ele>
        <time>2013-03-10T10:23:48.56Z</time>
      </trkpt>
      <trkpt lat="45.87228" lon="4.78866">
        <ele>322.8</ele>
        <time>2013-03-10T10:23:49.56Z</time>
      </trkpt>
      <trkpt lat="45.87231" lon="4.78865">
        <ele>322.2</ele>
        <time>2013-03-10T10:23:50.65Z</time>
      </trkpt>
      <trkpt lat="45.87237" lon="4.78863">
        <ele>321.4</ele>
        <time>2013-03-10T10:23:52.56Z</time>
      </trkpt>
      <trkpt lat="45.8724" lon="4.78863">
        <ele>320.7</ele>
        <time>2013-03-10T10:23:53.56Z</time>
      </trkpt>
      <trkpt lat="45.87244" lon="4.78863">
        <ele>319.9</ele>
        <time>2013-03-10T10:23:54.56Z</time>
      </trkpt>
      <trkpt lat="45.87248" lon="4.78863">
        <ele>319</ele>
        <time>2013-03-10T10:23:55.56Z</time>
      </trkpt>
      <trkpt lat="45.87253" lon="4.78864">
        <ele>318</ele>
        <time>2013-03-10T10:23:56.59Z</time>
      </trkpt>
      <trkpt lat="45.87257" lon="4.78864">
        <ele>317.4</ele>
        <time>2013-03-10T10:23:57.59Z</time>
      </trkpt>
      <trkpt lat="45.87261" lon="4.78864">
        <ele>316.8</ele>
        <time>2013-03-10T10:23:58.64Z</time>
      </trkpt>
      <trkpt lat="45.87268" lon="4.78865">
        <ele>348.1</ele>
        <time>2013-03-10T10:24:00.61Z</time>
      </trkpt>
      <trkpt lat="45.87273" lon="4.78864">
        <ele>315</ele>
        <time>2013-03-10T10:24:02.56Z</time>
      </trkpt>
      <trkpt lat="45.87277" lon="4.78864">
        <ele>314.5</ele>
        <time>2013-03-10T10:24:03.56Z</time>
      </trkpt>
      <trkpt lat="45.87279" lon="4.78864">
        <ele>314.1</ele>
        <time>2013-03-10T10:24:04.56Z</time>
      </trkpt>
      <trkpt lat="45.87282" lon="4.78864">
        <ele>313.7</ele>
        <time>2013-03-10T10:24:05.56Z</time>
      </trkpt>
      <trkpt lat="45.87285" lon="4.78865">
        <ele>312.9</ele>
        <time>2013-03-10T10:24:06.56Z</time>
      </trkpt>
      <trkpt lat="45.87288" lon="4.78866">
        <ele>312.2</ele>
        <time>2013-03-10T10:24:07.56Z</time>
      </trkpt>
      <trkpt lat="45.8729" lon="4.78867">
        <ele>311.5</ele>
        <time>2013-03-10T10:24:08.56Z</time>
      </trkpt>
      <trkpt lat="45.87293" lon="4.78868">
        <ele>310.8</ele>
        <time>2013-03-10T10:24:09.56Z</time>
      </trkpt>
      <trkpt lat="45.87295" lon="4.78869">
        <ele>310.2</ele>
        <time>2013-03-10T10:24:10.56Z</time>
      </trkpt>
      <trkpt lat="45.87298" lon="4.78869">
        <ele>309.6</ele>
        <time>2013-03-10T10:24:11.56Z</time>
      </trkpt>
      <trkpt lat="45.87299" lon="4.7887">
        <ele>309.1</ele>
        <time>2013-03-10T10:24:12.56Z</time>
      </trkpt>
      <trkpt lat="45.87301" lon="4.7887">
        <ele>308.8</ele>
        <time>2013-03-10T10:24:13.56Z</time>
      </trkpt>
      <trkpt lat="45.87303" lon="4.78871">
        <ele>308.3</ele>
        <time>2013-03-10T10:24:14.63Z</time>
      </trkpt>
      <trkpt lat="45.87308" lon="4.78873">
        <ele>307.1</ele>
        <time>2013-03-10T10:24:16.57Z</time>
      </trkpt>
      <trkpt lat="45.87311" lon="4.78874">
        <ele>306.3</ele>
        <time>2013-03-10T10:24:17.57Z</time>
      </trkpt>
      <trkpt lat="45.87313" lon="4.78875">
        <ele>305.7</ele>
        <time>2013-03-10T10:24:18.73Z</time>
      </trkpt>
      <trkpt lat="45.87316" lon="4.78876">
        <ele>304.9</ele>
        <time>2013-03-10T10:24:20.59Z</time>
      </trkpt>
      <trkpt lat="45.87318" lon="4.78878">
        <ele>304.3</ele>
        <time>2013-03-10T10:24:21.59Z</time>
      </trkpt>
      <trkpt lat="45.8732" lon="4.78879">
        <ele>303.7</ele>
        <time>2013-03-10T10:24:22.63Z</time>
      </trkpt>
      <trkpt lat="45.87323" lon="4.7888">
        <ele>303.1</ele>
        <time>2013-03-10T10:24:24.59Z</time>
      </trkpt>
      <trkpt lat="45.87324" lon="4.7888">
        <ele>302.9</ele>
        <time>2013-03-10T10:24:25.59Z</time>
      </trkpt>
      <trkpt lat="45.87326" lon="4.7888">
        <ele>302.5</ele>
        <time>2013-03-10T10:24:26.59Z</time>
      </trkpt>
      <trkpt lat="45.87328" lon="4.7888">
        <ele>302.1</ele>
        <time>2013-03-10T10:24:27.59Z</time>
      </trkpt>
      <trkpt lat="45.87329" lon="4.78878">
        <ele>302.2</ele>
        <time>2013-03-10T10:24:28.64Z</time>
      </trkpt>
      <trkpt lat="45.87332" lon="4.78875">
        <ele>302.3</ele>
        <time>2013-03-10T10:24:30.57Z</time>
      </trkpt>
      <trkpt lat="45.87334" lon="4.78874">
        <ele>302</ele>
        <time>2013-03-10T10:24:31.59Z</time>
      </trkpt>
      <trkpt lat="45.87336" lon="4.78874">
        <ele>301.6</ele>
        <time>2013-03-10T10:24:32.61Z</time>
      </trkpt>
      <trkpt lat="45.87338" lon="4.78873">
        <ele>301.3</ele>
        <time>2013-03-10T10:24:33.57Z</time>
      </trkpt>
      <trkpt lat="45.87343" lon="4.78872">
        <ele>300.6</ele>
        <time>2013-03-10T10:24:35.58Z</time>
      </trkpt>
      <trkpt lat="45.87346" lon="4.7887">
        <ele>300.4</ele>
        <time>2013-03-10T10:24:36.58Z</time>
      </trkpt>
      <trkpt lat="45.87348" lon="4.78868">
        <ele>300.1</ele>
        <time>2013-03-10T10:24:37.62Z</time>
      </trkpt>
      <trkpt lat="45.87354" lon="4.78864">
        <ele>299.4</ele>
        <time>2013-03-10T10:24:39.56Z</time>
      </trkpt>
      <trkpt lat="45.87356" lon="4.7886">
        <ele>299</ele>
        <time>2013-03-10T10:24:40.57Z</time>
      </trkpt>
      <trkpt lat="45.87359" lon="4.78859">
        <ele>298.5</ele>
        <time>2013-03-10T10:24:41.58Z</time>
      </trkpt>
      <trkpt lat="45.87361" lon="4.78857">
        <ele>298</ele>
        <time>2013-03-10T10:24:42.66Z</time>
      </trkpt>
      <trkpt lat="45.87364" lon="4.78852">
        <ele>297.1</ele>
        <time>2013-03-10T10:24:44.56Z</time>
      </trkpt>
      <trkpt lat="45.87365" lon="4.78849">
        <ele>296.7</ele>
        <time>2013-03-10T10:24:45.56Z</time>
      </trkpt>
      <trkpt lat="45.87367" lon="4.78846">
        <ele>296.2</ele>
        <time>2013-03-10T10:24:46.58Z</time>
      </trkpt>
      <trkpt lat="45.87368" lon="4.78843">
        <ele>295.7</ele>
        <time>2013-03-10T10:24:47.58Z</time>
      </trkpt>
      <trkpt lat="45.8737" lon="4.78841">
        <ele>295.2</ele>
        <time>2013-03-10T10:24:48.68Z</time>
      </trkpt>
      <trkpt lat="45.87373" lon="4.78836">
        <ele>294.1</ele>
        <time>2013-03-10T10:24:50.57Z</time>
      </trkpt>
      <trkpt lat="45.87374" lon="4.78833">
        <ele>293.6</ele>
        <time>2013-03-10T10:24:51.58Z</time>
      </trkpt>
      <trkpt lat="45.87375" lon="4.78831">
        <ele>293.1</ele>
        <time>2013-03-10T10:24:52.58Z</time>
      </trkpt>
      <trkpt lat="45.87376" lon="4.78828">
        <ele>292.7</ele>
        <time>2013-03-10T10:24:53.64Z</time>
      </trkpt>
      <trkpt lat="45.87378" lon="4.78824">
        <ele>291.8</ele>
        <time>2013-03-10T10:24:55.58Z</time>
      </trkpt>
      <trkpt lat="45.87379" lon="4.78823">
        <ele>291.4</ele>
        <time>2013-03-10T10:24:56.58Z</time>
      </trkpt>
      <trkpt lat="45.87379" lon="4.7882">
        <ele>291.1</ele>
        <time>2013-03-10T10:24:57.58Z</time>
      </trkpt>
      <trkpt lat="45.87379" lon="4.78817">
        <ele>290.7</ele>
        <time>2013-03-10T10:24:58.64Z</time>
      </trkpt>
      <trkpt lat="45.87381" lon="4.78809">
        <ele>318.4</ele>
        <time>2013-03-10T10:25:00.58Z</time>
      </trkpt>
      <trkpt lat="45.87382" lon="4.78806">
        <ele>288.8</ele>
        <time>2013-03-10T10:25:01.63Z</time>
      </trkpt>
      <trkpt lat="45.87385" lon="4.78802">
        <ele>288</ele>
        <time>2013-03-10T10:25:03.66Z</time>
      </trkpt>
      <trkpt lat="45.87388" lon="4.78798">
        <ele>287.4</ele>
        <time>2013-03-10T10:25:05.56Z</time>
      </trkpt>
      <trkpt lat="45.87389" lon="4.78796">
        <ele>287.1</ele>
        <time>2013-03-10T10:25:06.58Z</time>
      </trkpt>
      <trkpt lat="45.87389" lon="4.78795">
        <ele>286.9</ele>
        <time>2013-03-10T10:25:07.61Z</time>
      </trkpt>
      <trkpt lat="45.87392" lon="4.78794">
        <ele>286.3</ele>
        <time>2013-03-10T10:25:09.58Z</time>
      </trkpt>
      <trkpt lat="45.87393" lon="4.78792">
        <ele>286</ele>
        <time>2013-03-10T10:25:10.58Z</time>
      </trkpt>
      <trkpt lat="45.87395" lon="4.78791">
        <ele>285.7</ele>
        <time>2013-03-10T10:25:11.58Z</time>
      </trkpt>
      <trkpt lat="45.87393" lon="4.78791">
        <ele>286</ele>
        <time>2013-03-10T10:25:16.63Z</time>
      </trkpt>
      <trkpt lat="45.87394" lon="4.78793">
        <ele>285.9</ele>
        <time>2013-03-10T10:25:28.66Z</time>
      </trkpt>
      <trkpt lat="45.87394" lon="4.78795">
        <ele>285.8</ele>
        <time>2013-03-10T10:25:30.56Z</time>
      </trkpt>
      <trkpt lat="45.87396" lon="4.78795">
        <ele>285.4</ele>
        <time>2013-03-10T10:25:32.57Z</time>
      </trkpt>
      <trkpt lat="45.87397" lon="4.78793">
        <ele>285.1</ele>
        <time>2013-03-10T10:25:33.71Z</time>
      </trkpt>
      <trkpt lat="45.874" lon="4.78791">
        <ele>284.5</ele>
        <time>2013-03-10T10:25:35.56Z</time>
      </trkpt>
      <trkpt lat="45.87401" lon="4.7879">
        <ele>284.2</ele>
        <time>2013-03-10T10:25:36.56Z</time>
      </trkpt>
      <trkpt lat="45.87402" lon="4.7879">
        <ele>283.9</ele>
        <time>2013-03-10T10:25:38.67Z</time>
      </trkpt>
      <trkpt lat="45.87403" lon="4.78788">
        <ele>283.7</ele>
        <time>2013-03-10T10:25:42.56Z</time>
      </trkpt>
      <trkpt lat="45.87404" lon="4.78788">
        <ele>283.5</ele>
        <time>2013-03-10T10:25:43.66Z</time>
      </trkpt>
      <trkpt lat="45.87405" lon="4.78788">
        <ele>283.1</ele>
        <time>2013-03-10T10:25:45.56Z</time>
      </trkpt>
      <trkpt lat="45.87406" lon="4.78787">
        <ele>282.9</ele>
        <time>2013-03-10T10:25:47.56Z</time>
      </trkpt>
      <trkpt lat="45.87406" lon="4.78785">
        <ele>282.8</ele>
        <time>2013-03-10T10:25:49.56Z</time>
      </trkpt>
      <trkpt lat="45.87407" lon="4.78784">
        <ele>282.7</ele>
        <time>2013-03-10T10:25:50.57Z</time>
      </trkpt>
      <trkpt lat="45.87408" lon="4.78783">
        <ele>282.4</ele>
        <time>2013-03-10T10:25:51.58Z</time>
      </trkpt>
      <trkpt lat="45.87408" lon="4.78782">
        <ele>282.3</ele>
        <time>2013-03-10T10:25:55.58Z</time>
      </trkpt>
      <trkpt lat="45.87407" lon="4.78781">
        <ele>282.6</ele>
        <time>2013-03-10T10:25:59.59Z</time>
      </trkpt>
      <trkpt lat="45.87407" lon="4.7878">
        <ele>307.6</ele>
        <time>2013-03-10T10:26:00.66Z</time>
      </trkpt>
      <trkpt lat="45.87408" lon="4.78779">
        <ele>282.3</ele>
        <time>2013-03-10T10:26:02.66Z</time>
      </trkpt>
      <trkpt lat="45.87409" lon="4.78779">
        <ele>282</ele>
        <time>2013-03-10T10:26:05.56Z</time>
      </trkpt>
      <trkpt lat="45.8741" lon="4.78778">
        <ele>281.6</ele>
        <time>2013-03-10T10:26:08.67Z</time>
      </trkpt>
      <trkpt lat="45.8741" lon="4.78779">
        <ele>281.8</ele>
        <time>2013-03-10T10:26:10.66Z</time>
      </trkpt>
      <trkpt lat="45.87409" lon="4.7878">
        <ele>282.1</ele>
        <time>2013-03-10T10:26:11.56Z</time>
      </trkpt>
      <trkpt lat="45.87408" lon="4.78781">
        <ele>282.3</ele>
        <time>2013-03-10T10:26:13.56Z</time>
      </trkpt>
      <trkpt lat="45.87408" lon="4.78783">
        <ele>282.3</ele>
        <time>2013-03-10T10:26:15.57Z</time>
      </trkpt>
      <trkpt lat="45.8741" lon="4.78783">
        <ele>281.8</ele>
        <time>2013-03-10T10:26:18.56Z</time>
      </trkpt>
      <trkpt lat="45.87411" lon="4.78781">
        <ele>281.4</ele>
        <time>2013-03-10T10:26:20.66Z</time>
      </trkpt>
      <trkpt lat="45.8741" lon="4.7878">
        <ele>281.7</ele>
        <time>2013-03-10T10:26:35.65Z</time>
      </trkpt>
      <trkpt lat="45.87412" lon="4.78779">
        <ele>281.2</ele>
        <time>2013-03-10T10:26:37.65Z</time>
      </trkpt>
      <trkpt lat="45.87413" lon="4.7878">
        <ele>281</ele>
        <time>2013-03-10T10:26:38.56Z</time>
      </trkpt>
      <trkpt lat="45.87414" lon="4.7878">
        <ele>280.7</ele>
        <time>2013-03-10T10:26:42.65Z</time>
      </trkpt>
      <trkpt lat="45.87417" lon="4.78779">
        <ele>280.1</ele>
        <time>2013-03-10T10:26:44.66Z</time>
      </trkpt>
      <trkpt lat="45.87417" lon="4.78779">
        <ele>279.9</ele>
        <time>2013-03-10T10:26:45.56Z</time>
      </trkpt>
      <trkpt lat="45.87419" lon="4.78777">
        <ele>279.5</ele>
        <time>2013-03-10T10:26:47.56Z</time>
      </trkpt>
      <trkpt lat="45.8742" lon="4.78776">
        <ele>279.5</ele>
        <time>2013-03-10T10:26:48.66Z</time>
      </trkpt>
      <trkpt lat="45.87421" lon="4.78775">
        <ele>279.3</ele>
        <time>2013-03-10T10:26:50.57Z</time>
      </trkpt>
      <trkpt lat="45.87422" lon="4.78775">
        <ele>279.1</ele>
        <time>2013-03-10T10:26:54.65Z</time>
      </trkpt>
      <trkpt lat="45.87423" lon="4.78774">
        <ele>279</ele>
        <time>2013-03-10T10:26:56.65Z</time>
      </trkpt>
      <trkpt lat="45.87422" lon="4.78772">
        <ele>279.2</ele>
        <time>2013-03-10T10:26:58.67Z</time>
      </trkpt>
      <trkpt lat="45.87422" lon="4.78771">
        <ele>301.9</ele>
        <time>2013-03-10T10:27:00.56Z</time>
      </trkpt>
      <trkpt lat="45.87423" lon="4.7877">
        <ele>279.1</ele>
        <time>2013-03-10T10:27:02.56Z</time>
      </trkpt>
      <trkpt lat="45.87425" lon="4.7877">
        <ele>278.8</ele>
        <time>2013-03-10T10:27:06.56Z</time>
      </trkpt>
      <trkpt lat="45.87426" lon="4.7877">
        <ele>278.6</ele>
        <time>2013-03-10T10:27:08.56Z</time>
      </trkpt>
      <trkpt lat="45.87427" lon="4.7877">
        <ele>278.3</ele>
        <time>2013-03-10T10:27:10.56Z</time>
      </trkpt>
      <trkpt lat="45.87428" lon="4.7877">
        <ele>278</ele>
        <time>2013-03-10T10:27:12.56Z</time>
      </trkpt>
      <trkpt lat="45.8743" lon="4.78769">
        <ele>277.5</ele>
        <time>2013-03-10T10:27:13.66Z</time>
      </trkpt>
      <trkpt lat="45.87433" lon="4.78769">
        <ele>276.9</ele>
        <time>2013-03-10T10:27:15.56Z</time>
      </trkpt>
      <trkpt lat="45.87435" lon="4.78769">
        <ele>276.5</ele>
        <time>2013-03-10T10:27:17.56Z</time>
      </trkpt>
      <trkpt lat="45.87437" lon="4.78769">
        <ele>276.1</ele>
        <time>2013-03-10T10:27:20.64Z</time>
      </trkpt>
      <trkpt lat="45.87438" lon="4.78767">
        <ele>276</ele>
        <time>2013-03-10T10:27:22.64Z</time>
      </trkpt>
      <trkpt lat="45.87437" lon="4.78766">
        <ele>276.2</ele>
        <time>2013-03-10T10:27:24.64Z</time>
      </trkpt>
      <trkpt lat="45.87438" lon="4.78765">
        <ele>276</ele>
        <time>2013-03-10T10:27:26.62Z</time>
      </trkpt>
      <trkpt lat="45.87437" lon="4.78765">
        <ele>276.2</ele>
        <time>2013-03-10T10:27:31.56Z</time>
      </trkpt>
      <trkpt lat="45.87436" lon="4.78764">
        <ele>276.5</ele>
        <time>2013-03-10T10:27:33.57Z</time>
      </trkpt>
      <trkpt lat="45.87437" lon="4.78764">
        <ele>276.3</ele>
        <time>2013-03-10T10:27:37.64Z</time>
      </trkpt>
      <trkpt lat="45.87438" lon="4.78764">
        <ele>276</ele>
        <time>2013-03-10T10:27:38.56Z</time>
      </trkpt>
      <trkpt lat="45.8744" lon="4.78763">
        <ele>275.7</ele>
        <time>2013-03-10T10:27:39.64Z</time>
      </trkpt>
      <trkpt lat="45.87441" lon="4.78763">
        <ele>275.4</ele>
        <time>2013-03-10T10:27:41.64Z</time>
      </trkpt>
      <trkpt lat="45.87442" lon="4.78762">
        <ele>275.1</ele>
        <time>2013-03-10T10:27:42.56Z</time>
      </trkpt>
      <trkpt lat="45.87443" lon="4.78762">
        <ele>274.9</ele>
        <time>2013-03-10T10:27:43.67Z</time>
      </trkpt>
      <trkpt lat="45.87446" lon="4.78763">
        <ele>274.3</ele>
        <time>2013-03-10T10:27:45.56Z</time>
      </trkpt>
      <trkpt lat="45.87447" lon="4.78763">
        <ele>273.9</ele>
        <time>2013-03-10T10:27:47.57Z</time>
      </trkpt>
      <trkpt lat="45.87448" lon="4.78762">
        <ele>273.7</ele>
        <time>2013-03-10T10:27:48.66Z</time>
      </trkpt>
      <trkpt lat="45.8745" lon="4.78762">
        <ele>273.3</ele>
        <time>2013-03-10T10:27:50.57Z</time>
      </trkpt>
      <trkpt lat="45.87452" lon="4.78761">
        <ele>273</ele>
        <time>2013-03-10T10:27:52.56Z</time>
      </trkpt>
      <trkpt lat="45.87451" lon="4.78759">
        <ele>273.1</ele>
        <time>2013-03-10T10:27:54.56Z</time>
      </trkpt>
      <trkpt lat="45.87451" lon="4.78757">
        <ele>273.2</ele>
        <time>2013-03-10T10:27:55.63Z</time>
      </trkpt>
      <trkpt lat="45.87451" lon="4.78755">
        <ele>273.2</ele>
        <time>2013-03-10T10:27:56.56Z</time>
      </trkpt>
      <trkpt lat="45.8745" lon="4.78753">
        <ele>273.5</ele>
        <time>2013-03-10T10:27:58.56Z</time>
      </trkpt>
      <trkpt lat="45.87448" lon="4.78751">
        <ele>295.9</ele>
        <time>2013-03-10T10:28:01.56Z</time>
      </trkpt>
      <trkpt lat="45.87448" lon="4.7875">
        <ele>274.2</ele>
        <time>2013-03-10T10:28:02.63Z</time>
      </trkpt>
      <trkpt lat="45.87447" lon="4.78749">
        <ele>274.4</ele>
        <time>2013-03-10T10:28:05.57Z</time>
      </trkpt>
      <trkpt lat="45.87446" lon="4.78745">
        <ele>274.7</ele>
        <time>2013-03-10T10:28:07.56Z</time>
      </trkpt>
      <trkpt lat="45.87445" lon="4.78743">
        <ele>275</ele>
        <time>2013-03-10T10:28:08.66Z</time>
      </trkpt>
      <trkpt lat="45.87442" lon="4.78738">
        <ele>275.6</ele>
        <time>2013-03-10T10:28:10.63Z</time>
      </trkpt>
      <trkpt lat="45.87441" lon="4.78735">
        <ele>275.9</ele>
        <time>2013-03-10T10:28:11.56Z</time>
      </trkpt>
      <trkpt lat="45.8744" lon="4.78732">
        <ele>276.2</ele>
        <time>2013-03-10T10:28:12.63Z</time>
      </trkpt>
      <trkpt lat="45.87439" lon="4.7873">
        <ele>276.6</ele>
        <time>2013-03-10T10:28:13.56Z</time>
      </trkpt>
      <trkpt lat="45.87436" lon="4.78728">
        <ele>277.3</ele>
        <time>2013-03-10T10:28:14.63Z</time>
      </trkpt>
      <trkpt lat="45.87434" lon="4.78725">
        <ele>278.1</ele>
        <time>2013-03-10T10:28:15.56Z</time>
      </trkpt>
      <trkpt lat="45.87432" lon="4.78722">
        <ele>278.6</ele>
        <time>2013-03-10T10:28:16.57Z</time>
      </trkpt>
      <trkpt lat="45.8743" lon="4.78719">
        <ele>278.9</ele>
        <time>2013-03-10T10:28:17.63Z</time>
      </trkpt>
      <trkpt lat="45.87429" lon="4.78716">
        <ele>279</ele>
        <time>2013-03-10T10:28:18.56Z</time>
      </trkpt>
      <trkpt lat="45.87428" lon="4.78713">
        <ele>279.1</ele>
        <time>2013-03-10T10:28:19.63Z</time>
      </trkpt>
      <trkpt lat="45.87427" lon="4.7871">
        <ele>279.2</ele>
        <time>2013-03-10T10:28:20.56Z</time>
      </trkpt>
      <trkpt lat="45.87426" lon="4.78707">
        <ele>279.3</ele>
        <time>2013-03-10T10:28:21.69Z</time>
      </trkpt>
      <trkpt lat="45.87423" lon="4.78701">
        <ele>279.8</ele>
        <time>2013-03-10T10:28:23.56Z</time>
      </trkpt>
      <trkpt lat="45.87422" lon="4.78698">
        <ele>279.9</ele>
        <time>2013-03-10T10:28:24.63Z</time>
      </trkpt>
      <trkpt lat="45.8742" lon="4.78695">
        <ele>280.1</ele>
        <time>2013-03-10T10:28:25.56Z</time>
      </trkpt>
      <trkpt lat="45.87419" lon="4.78691">
        <ele>280.2</ele>
        <time>2013-03-10T10:28:26.63Z</time>
      </trkpt>
      <trkpt lat="45.87416" lon="4.78687">
        <ele>280.3</ele>
        <time>2013-03-10T10:28:27.56Z</time>
      </trkpt>
      <trkpt lat="45.87414" lon="4.78683">
        <ele>280.4</ele>
        <time>2013-03-10T10:28:28.56Z</time>
      </trkpt>
      <trkpt lat="45.87412" lon="4.7868">
        <ele>280.5</ele>
        <time>2013-03-10T10:28:29.56Z</time>
      </trkpt>
      <trkpt lat="45.87411" lon="4.78676">
        <ele>280.4</ele>
        <time>2013-03-10T10:28:30.56Z</time>
      </trkpt>
      <trkpt lat="45.87409" lon="4.78673">
        <ele>280.3</ele>
        <time>2013-03-10T10:28:31.56Z</time>
      </trkpt>
      <trkpt lat="45.87407" lon="4.78669">
        <ele>280.4</ele>
        <time>2013-03-10T10:28:32.56Z</time>
      </trkpt>
      <trkpt lat="45.87405" lon="4.78666">
        <ele>280.5</ele>
        <time>2013-03-10T10:28:33.57Z</time>
      </trkpt>
      <trkpt lat="45.87403" lon="4.78664">
        <ele>280.6</ele>
        <time>2013-03-10T10:28:34.56Z</time>
      </trkpt>
      <trkpt lat="45.87401" lon="4.78661">
        <ele>280.7</ele>
        <time>2013-03-10T10:28:35.56Z</time>
      </trkpt>
      <trkpt lat="45.87399" lon="4.78658">
        <ele>280.9</ele>
        <time>2013-03-10T10:28:36.56Z</time>
      </trkpt>
      <trkpt lat="45.87395" lon="4.78655">
        <ele>281.3</ele>
        <time>2013-03-10T10:28:37.56Z</time>
      </trkpt>
      <trkpt lat="45.87391" lon="4.78652">
        <ele>281.9</ele>
        <time>2013-03-10T10:28:38.56Z</time>
      </trkpt>
      <trkpt lat="45.87388" lon="4.78649">
        <ele>282.3</ele>
        <time>2013-03-10T10:28:39.56Z</time>
      </trkpt>
      <trkpt lat="45.87385" lon="4.78647">
        <ele>282.8</ele>
        <time>2013-03-10T10:28:40.56Z</time>
      </trkpt>
      <trkpt lat="45.87382" lon="4.78644">
        <ele>283.3</ele>
        <time>2013-03-10T10:28:41.57Z</time>
      </trkpt>
      <trkpt lat="45.87379" lon="4.78643">
        <ele>283.6</ele>
        <time>2013-03-10T10:28:42.56Z</time>
      </trkpt>
      <trkpt lat="45.87377" lon="4.78641">
        <ele>283.8</ele>
        <time>2013-03-10T10:28:43.56Z</time>
      </trkpt>
      <trkpt lat="45.87375" lon="4.78639">
        <ele>283.9</ele>
        <time>2013-03-10T10:28:44.56Z</time>
      </trkpt>
      <trkpt lat="45.87374" lon="4.78637">
        <ele>284.1</ele>
        <time>2013-03-10T10:28:45.56Z</time>
      </trkpt>
      <trkpt lat="45.87372" lon="4.78636">
        <ele>284.2</ele>
        <time>2013-03-10T10:28:46.57Z</time>
      </trkpt>
      <trkpt lat="45.87371" lon="4.78635">
        <ele>284.3</ele>
        <time>2013-03-10T10:28:47.57Z</time>
      </trkpt>
      <trkpt lat="45.8737" lon="4.78634">
        <ele>284.2</ele>
        <time>2013-03-10T10:28:48.56Z</time>
      </trkpt>
      <trkpt lat="45.87369" lon="4.78632">
        <ele>284.1</ele>
        <time>2013-03-10T10:28:49.56Z</time>
      </trkpt>
      <trkpt lat="45.87369" lon="4.78631">
        <ele>283.9</ele>
        <time>2013-03-10T10:28:50.57Z</time>
      </trkpt>
      <trkpt lat="45.87368" lon="4.78629">
        <ele>283.8</ele>
        <time>2013-03-10T10:28:52.6Z</time>
      </trkpt>
      <trkpt lat="45.87367" lon="4.78628">
        <ele>284</ele>
        <time>2013-03-10T10:28:53.66Z</time>
      </trkpt>
      <trkpt lat="45.87362" lon="4.78625">
        <ele>284.3</ele>
        <time>2013-03-10T10:28:55.56Z</time>
      </trkpt>
      <trkpt lat="45.8736" lon="4.78622">
        <ele>284.2</ele>
        <time>2013-03-10T10:28:56.56Z</time>
      </trkpt>
      <trkpt lat="45.87359" lon="4.7862">
        <ele>284.2</ele>
        <time>2013-03-10T10:28:57.56Z</time>
      </trkpt>
      <trkpt lat="45.87357" lon="4.78617">
        <ele>284.3</ele>
        <time>2013-03-10T10:28:58.56Z</time>
      </trkpt>
      <trkpt lat="45.87355" lon="4.78615">
        <ele>284.4</ele>
        <time>2013-03-10T10:28:59.6Z</time>
      </trkpt>
      <trkpt lat="45.87353" lon="4.78613">
        <ele>297.8</ele>
        <time>2013-03-10T10:29:00.62Z</time>
      </trkpt>
      <trkpt lat="45.87351" lon="4.78611">
        <ele>284.6</ele>
        <time>2013-03-10T10:29:01.62Z</time>
      </trkpt>
      <trkpt lat="45.87349" lon="4.78609">
        <ele>284.7</ele>
        <time>2013-03-10T10:29:02.6Z</time>
      </trkpt>
      <trkpt lat="45.87344" lon="4.78606">
        <ele>285.4</ele>
        <time>2013-03-10T10:29:04.62Z</time>
      </trkpt>
      <trkpt lat="45.8734" lon="4.78602">
        <ele>285.8</ele>
        <time>2013-03-10T10:29:06.62Z</time>
      </trkpt>
      <trkpt lat="45.87337" lon="4.78599">
        <ele>286</ele>
        <time>2013-03-10T10:29:07.62Z</time>
      </trkpt>
      <trkpt lat="45.87334" lon="4.78597">
        <ele>286.1</ele>
        <time>2013-03-10T10:29:08.66Z</time>
      </trkpt>
      <trkpt lat="45.8733" lon="4.78592">
        <ele>286.3</ele>
        <time>2013-03-10T10:29:10.61Z</time>
      </trkpt>
      <trkpt lat="45.87326" lon="4.78587">
        <ele>286.2</ele>
        <time>2013-03-10T10:29:12.61Z</time>
      </trkpt>
      <trkpt lat="45.87325" lon="4.78586">
        <ele>286.2</ele>
        <time>2013-03-10T10:29:13.65Z</time>
      </trkpt>
      <trkpt lat="45.87322" lon="4.78582">
        <ele>286.3</ele>
        <time>2013-03-10T10:29:15.61Z</time>
      </trkpt>
      <trkpt lat="45.8732" lon="4.7858">
        <ele>286.4</ele>
        <time>2013-03-10T10:29:16.67Z</time>
      </trkpt>
      <trkpt lat="45.87315" lon="4.78575">
        <ele>286.6</ele>
        <time>2013-03-10T10:29:18.56Z</time>
      </trkpt>
      <trkpt lat="45.87313" lon="4.78574">
        <ele>286.8</ele>
        <time>2013-03-10T10:29:19.61Z</time>
      </trkpt>
      <trkpt lat="45.8731" lon="4.78571">
        <ele>287.1</ele>
        <time>2013-03-10T10:29:20.61Z</time>
      </trkpt>
      <trkpt lat="45.87306" lon="4.78569">
        <ele>287.3</ele>
        <time>2013-03-10T10:29:21.61Z</time>
      </trkpt>
      <trkpt lat="45.87303" lon="4.78568">
        <ele>287.6</ele>
        <time>2013-03-10T10:29:22.61Z</time>
      </trkpt>
      <trkpt lat="45.87301" lon="4.78566">
        <ele>287.7</ele>
        <time>2013-03-10T10:29:23.65Z</time>
      </trkpt>
      <trkpt lat="45.87297" lon="4.78564">
        <ele>288.2</ele>
        <time>2013-03-10T10:29:25.56Z</time>
      </trkpt>
      <trkpt lat="45.87294" lon="4.78564">
        <ele>288.5</ele>
        <time>2013-03-10T10:29:26.56Z</time>
      </trkpt>
      <trkpt lat="45.87292" lon="4.78563">
        <ele>288.8</ele>
        <time>2013-03-10T10:29:27.56Z</time>
      </trkpt>
      <trkpt lat="45.8729" lon="4.78562">
        <ele>289</ele>
        <time>2013-03-10T10:29:28.56Z</time>
      </trkpt>
      <trkpt lat="45.87288" lon="4.78561">
        <ele>289.1</ele>
        <time>2013-03-10T10:29:29.56Z</time>
      </trkpt>
      <trkpt lat="45.87286" lon="4.7856">
        <ele>289.2</ele>
        <time>2013-03-10T10:29:30.56Z</time>
      </trkpt>
      <trkpt lat="45.87284" lon="4.78559">
        <ele>289.4</ele>
        <time>2013-03-10T10:29:31.56Z</time>
      </trkpt>
      <trkpt lat="45.87283" lon="4.78559">
        <ele>289.6</ele>
        <time>2013-03-10T10:29:32.56Z</time>
      </trkpt>
      <trkpt lat="45.87281" lon="4.78558">
        <ele>289.9</ele>
        <time>2013-03-10T10:29:33.57Z</time>
      </trkpt>
      <trkpt lat="45.87277" lon="4.78557">
        <ele>290.3</ele>
        <time>2013-03-10T10:29:35.56Z</time>
      </trkpt>
      <trkpt lat="45.87276" lon="4.78556">
        <ele>290.4</ele>
        <time>2013-03-10T10:29:36.56Z</time>
      </trkpt>
      <trkpt lat="45.87274" lon="4.78557">
        <ele>290.8</ele>
        <time>2013-03-10T10:29:37.56Z</time>
      </trkpt>
      <trkpt lat="45.87271" lon="4.78556">
        <ele>291</ele>
        <time>2013-03-10T10:29:38.56Z</time>
      </trkpt>
      <trkpt lat="45.87269" lon="4.78555">
        <ele>291.1</ele>
        <time>2013-03-10T10:29:39.6Z</time>
      </trkpt>
      <trkpt lat="45.87264" lon="4.78554">
        <ele>291.6</ele>
        <time>2013-03-10T10:29:41.57Z</time>
      </trkpt>
      <trkpt lat="45.87261" lon="4.78552">
        <ele>291.6</ele>
        <time>2013-03-10T10:29:42.56Z</time>
      </trkpt>
      <trkpt lat="45.87259" lon="4.7855">
        <ele>291.5</ele>
        <time>2013-03-10T10:29:43.56Z</time>
      </trkpt>
      <trkpt lat="45.87256" lon="4.78548">
        <ele>291.5</ele>
        <time>2013-03-10T10:29:44.56Z</time>
      </trkpt>
      <trkpt lat="45.87253" lon="4.78547">
        <ele>291.7</ele>
        <time>2013-03-10T10:29:45.56Z</time>
      </trkpt>
      <trkpt lat="45.8725" lon="4.78545">
        <ele>291.8</ele>
        <time>2013-03-10T10:29:46.56Z</time>
      </trkpt>
      <trkpt lat="45.87247" lon="4.78544">
        <ele>292.1</ele>
        <time>2013-03-10T10:29:47.57Z</time>
      </trkpt>
      <trkpt lat="45.87244" lon="4.78543">
        <ele>292.4</ele>
        <time>2013-03-10T10:29:48.56Z</time>
      </trkpt>
      <trkpt lat="45.87241" lon="4.78542">
        <ele>292.6</ele>
        <time>2013-03-10T10:29:49.56Z</time>
      </trkpt>
      <trkpt lat="45.87238" lon="4.78541">
        <ele>292.8</ele>
        <time>2013-03-10T10:29:50.57Z</time>
      </trkpt>
      <trkpt lat="45.87236" lon="4.7854">
        <ele>292.9</ele>
        <time>2013-03-10T10:29:51.59Z</time>
      </trkpt>
      <trkpt lat="45.87233" lon="4.78538">
        <ele>292.9</ele>
        <time>2013-03-10T10:29:52.61Z</time>
      </trkpt>
      <trkpt lat="45.87227" lon="4.78534">
        <ele>292.7</ele>
        <time>2013-03-10T10:29:54.56Z</time>
      </trkpt>
      <trkpt lat="45.87224" lon="4.78532">
        <ele>292.7</ele>
        <time>2013-03-10T10:29:55.56Z</time>
      </trkpt>
      <trkpt lat="45.8722" lon="4.78528">
        <ele>292.4</ele>
        <time>2013-03-10T10:29:56.56Z</time>
      </trkpt>
      <trkpt lat="45.87217" lon="4.78526">
        <ele>292.4</ele>
        <time>2013-03-10T10:29:57.56Z</time>
      </trkpt>
      <trkpt lat="45.87214" lon="4.78524">
        <ele>292.5</ele>
        <time>2013-03-10T10:29:58.56Z</time>
      </trkpt>
      <trkpt lat="45.87211" lon="4.78523">
        <ele>292.6</ele>
        <time>2013-03-10T10:29:59.59Z</time>
      </trkpt>
      <trkpt lat="45.87208" lon="4.78522">
        <ele>308.7</ele>
        <time>2013-03-10T10:30:00.6Z</time>
      </trkpt>
      <trkpt lat="45.87205" lon="4.78521">
        <ele>293</ele>
        <time>2013-03-10T10:30:01.6Z</time>
      </trkpt>
      <trkpt lat="45.87198" lon="4.7852">
        <ele>293.8</ele>
        <time>2013-03-10T10:30:03.56Z</time>
      </trkpt>
      <trkpt lat="45.87195" lon="4.78519">
        <ele>294.1</ele>
        <time>2013-03-10T10:30:04.56Z</time>
      </trkpt>
      <trkpt lat="45.87192" lon="4.78519">
        <ele>294.3</ele>
        <time>2013-03-10T10:30:05.56Z</time>
      </trkpt>
      <trkpt lat="45.87189" lon="4.78518">
        <ele>294.5</ele>
        <time>2013-03-10T10:30:06.56Z</time>
      </trkpt>
      <trkpt lat="45.87186" lon="4.78518">
        <ele>294.9</ele>
        <time>2013-03-10T10:30:07.56Z</time>
      </trkpt>
      <trkpt lat="45.87184" lon="4.78517">
        <ele>295.2</ele>
        <time>2013-03-10T10:30:08.65Z</time>
      </trkpt>
      <trkpt lat="45.87178" lon="4.78517">
        <ele>295.7</ele>
        <time>2013-03-10T10:30:10.56Z</time>
      </trkpt>
      <trkpt lat="45.87174" lon="4.78516">
        <ele>296</ele>
        <time>2013-03-10T10:30:11.56Z</time>
      </trkpt>
      <trkpt lat="45.8717" lon="4.78515">
        <ele>296.2</ele>
        <time>2013-03-10T10:30:12.56Z</time>
      </trkpt>
      <trkpt lat="45.87166" lon="4.78514">
        <ele>296.6</ele>
        <time>2013-03-10T10:30:13.56Z</time>
      </trkpt>
      <trkpt lat="45.87163" lon="4.78514">
        <ele>297</ele>
        <time>2013-03-10T10:30:14.6Z</time>
      </trkpt>
      <trkpt lat="45.87159" lon="4.78514">
        <ele>297.4</ele>
        <time>2013-03-10T10:30:15.6Z</time>
      </trkpt>
      <trkpt lat="45.87157" lon="4.78514">
        <ele>297.6</ele>
        <time>2013-03-10T10:30:16.65Z</time>
      </trkpt>
      <trkpt lat="45.87154" lon="4.78513">
        <ele>297.8</ele>
        <time>2013-03-10T10:30:18.56Z</time>
      </trkpt>
      <trkpt lat="45.87151" lon="4.78512">
        <ele>297.7</ele>
        <time>2013-03-10T10:30:19.56Z</time>
      </trkpt>
      <trkpt lat="45.8715" lon="4.78511">
        <ele>297.7</ele>
        <time>2013-03-10T10:30:20.56Z</time>
      </trkpt>
      <trkpt lat="45.87147" lon="4.7851">
        <ele>297.8</ele>
        <time>2013-03-10T10:30:21.57Z</time>
      </trkpt>
      <trkpt lat="45.87145" lon="4.7851">
        <ele>298.1</ele>
        <time>2013-03-10T10:30:22.56Z</time>
      </trkpt>
      <trkpt lat="45.87142" lon="4.78509">
        <ele>298.3</ele>
        <time>2013-03-10T10:30:23.56Z</time>
      </trkpt>
      <trkpt lat="45.8714" lon="4.78509">
        <ele>298.4</ele>
        <time>2013-03-10T10:30:24.56Z</time>
      </trkpt>
      <trkpt lat="45.87138" lon="4.78509">
        <ele>298.6</ele>
        <time>2013-03-10T10:30:25.56Z</time>
      </trkpt>
      <trkpt lat="45.87136" lon="4.78508">
        <ele>298.6</ele>
        <time>2013-03-10T10:30:26.6Z</time>
      </trkpt>
      <trkpt lat="45.87134" lon="4.78507">
        <ele>298.7</ele>
        <time>2013-03-10T10:30:27.6Z</time>
      </trkpt>
      <trkpt lat="45.87132" lon="4.78507">
        <ele>298.8</ele>
        <time>2013-03-10T10:30:28.65Z</time>
      </trkpt>
      <trkpt lat="45.87127" lon="4.78505">
        <ele>298.9</ele>
        <time>2013-03-10T10:30:30.56Z</time>
      </trkpt>
      <trkpt lat="45.87125" lon="4.78504">
        <ele>298.8</ele>
        <time>2013-03-10T10:30:31.56Z</time>
      </trkpt>
      <trkpt lat="45.87122" lon="4.78502">
        <ele>298.7</ele>
        <time>2013-03-10T10:30:32.59Z</time>
      </trkpt>
      <trkpt lat="45.8712" lon="4.785">
        <ele>298.4</ele>
        <time>2013-03-10T10:30:33.7Z</time>
      </trkpt>
      <trkpt lat="45.87115" lon="4.78495">
        <ele>297.9</ele>
        <time>2013-03-10T10:30:35.59Z</time>
      </trkpt>
      <trkpt lat="45.87113" lon="4.78493">
        <ele>297.6</ele>
        <time>2013-03-10T10:30:36.59Z</time>
      </trkpt>
      <trkpt lat="45.8711" lon="4.7849">
        <ele>297.3</ele>
        <time>2013-03-10T10:30:37.63Z</time>
      </trkpt>
      <trkpt lat="45.87105" lon="4.78485">
        <ele>296.5</ele>
        <time>2013-03-10T10:30:39.59Z</time>
      </trkpt>
      <trkpt lat="45.87103" lon="4.78483">
        <ele>296.2</ele>
        <time>2013-03-10T10:30:40.59Z</time>
      </trkpt>
      <trkpt lat="45.871" lon="4.7848">
        <ele>295.9</ele>
        <time>2013-03-10T10:30:41.59Z</time>
      </trkpt>
      <trkpt lat="45.87099" lon="4.78478">
        <ele>295.5</ele>
        <time>2013-03-10T10:30:42.71Z</time>
      </trkpt>
      <trkpt lat="45.87095" lon="4.78473">
        <ele>294.8</ele>
        <time>2013-03-10T10:30:44.56Z</time>
      </trkpt>
      <trkpt lat="45.87093" lon="4.78471">
        <ele>294.4</ele>
        <time>2013-03-10T10:30:45.56Z</time>
      </trkpt>
      <trkpt lat="45.87091" lon="4.78469">
        <ele>294.2</ele>
        <time>2013-03-10T10:30:46.56Z</time>
      </trkpt>
      <trkpt lat="45.87089" lon="4.78466">
        <ele>293.9</ele>
        <time>2013-03-10T10:30:47.57Z</time>
      </trkpt>
      <trkpt lat="45.87086" lon="4.78465">
        <ele>293.8</ele>
        <time>2013-03-10T10:30:48.56Z</time>
      </trkpt>
      <trkpt lat="45.87084" lon="4.78463">
        <ele>293.6</ele>
        <time>2013-03-10T10:30:49.58Z</time>
      </trkpt>
      <trkpt lat="45.87081" lon="4.7846">
        <ele>293.3</ele>
        <time>2013-03-10T10:30:50.64Z</time>
      </trkpt>
      <trkpt lat="45.87075" lon="4.78454">
        <ele>292.5</ele>
        <time>2013-03-10T10:30:52.56Z</time>
      </trkpt>
      <trkpt lat="45.87072" lon="4.78452">
        <ele>292.1</ele>
        <time>2013-03-10T10:30:53.56Z</time>
      </trkpt>
      <trkpt lat="45.87069" lon="4.7845">
        <ele>291.9</ele>
        <time>2013-03-10T10:30:54.59Z</time>
      </trkpt>
      <trkpt lat="45.87066" lon="4.78448">
        <ele>291.6</ele>
        <time>2013-03-10T10:30:55.59Z</time>
      </trkpt>
      <trkpt lat="45.87063" lon="4.78445">
        <ele>291.1</ele>
        <time>2013-03-10T10:30:56.59Z</time>
      </trkpt>
      <trkpt lat="45.8706" lon="4.78442">
        <ele>290.6</ele>
        <time>2013-03-10T10:30:57.63Z</time>
      </trkpt>
      <trkpt lat="45.87057" lon="4.78435">
        <ele>289.6</ele>
        <time>2013-03-10T10:30:59.59Z</time>
      </trkpt>
      <trkpt lat="45.87057" lon="4.7843">
        <ele>309.3</ele>
        <time>2013-03-10T10:31:00.59Z</time>
      </trkpt>
      <trkpt lat="45.87058" lon="4.78425">
        <ele>288.2</ele>
        <time>2013-03-10T10:31:01.59Z</time>
      </trkpt>
      <trkpt lat="45.8706" lon="4.7842">
        <ele>287.4</ele>
        <time>2013-03-10T10:31:02.62Z</time>
      </trkpt>
      <trkpt lat="45.87064" lon="4.78406">
        <ele>285.5</ele>
        <time>2013-03-10T10:31:04.56Z</time>
      </trkpt>
      <trkpt lat="45.87067" lon="4.784">
        <ele>284.6</ele>
        <time>2013-03-10T10:31:05.56Z</time>
      </trkpt>
      <trkpt lat="45.87069" lon="4.78396">
        <ele>284</ele>
        <time>2013-03-10T10:31:06.63Z</time>
      </trkpt>
      <trkpt lat="45.87075" lon="4.78388">
        <ele>282.9</ele>
        <time>2013-03-10T10:31:08.56Z</time>
      </trkpt>
      <trkpt lat="45.87078" lon="4.78385">
        <ele>282.5</ele>
        <time>2013-03-10T10:31:09.59Z</time>
      </trkpt>
      <trkpt lat="45.87081" lon="4.78382">
        <ele>282</ele>
        <time>2013-03-10T10:31:10.63Z</time>
      </trkpt>
      <trkpt lat="45.87086" lon="4.78374">
        <ele>280.9</ele>
        <time>2013-03-10T10:31:12.58Z</time>
      </trkpt>
      <trkpt lat="45.87088" lon="4.78371">
        <ele>280.4</ele>
        <time>2013-03-10T10:31:13.66Z</time>
      </trkpt>
      <trkpt lat="45.87093" lon="4.78366">
        <ele>279.5</ele>
        <time>2013-03-10T10:31:15.56Z</time>
      </trkpt>
      <trkpt lat="45.87095" lon="4.78364">
        <ele>279.1</ele>
        <time>2013-03-10T10:31:16.61Z</time>
      </trkpt>
      <trkpt lat="45.87101" lon="4.78361">
        <ele>278.3</ele>
        <time>2013-03-10T10:31:18.56Z</time>
      </trkpt>
      <trkpt lat="45.87105" lon="4.7836">
        <ele>278.1</ele>
        <time>2013-03-10T10:31:19.58Z</time>
      </trkpt>
      <trkpt lat="45.87108" lon="4.78358">
        <ele>277.9</ele>
        <time>2013-03-10T10:31:20.62Z</time>
      </trkpt>
      <trkpt lat="45.87114" lon="4.78354">
        <ele>277.4</ele>
        <time>2013-03-10T10:31:22.58Z</time>
      </trkpt>
      <trkpt lat="45.87118" lon="4.78351">
        <ele>277</ele>
        <time>2013-03-10T10:31:23.66Z</time>
      </trkpt>
      <trkpt lat="45.87125" lon="4.78348">
        <ele>276.3</ele>
        <time>2013-03-10T10:31:25.56Z</time>
      </trkpt>
      <trkpt lat="45.87128" lon="4.78347">
        <ele>276.1</ele>
        <time>2013-03-10T10:31:26.58Z</time>
      </trkpt>
      <trkpt lat="45.87132" lon="4.78346">
        <ele>275.7</ele>
        <time>2013-03-10T10:31:27.58Z</time>
      </trkpt>
      <trkpt lat="45.87136" lon="4.78344">
        <ele>275.4</ele>
        <time>2013-03-10T10:31:28.67Z</time>
      </trkpt>
      <trkpt lat="45.87143" lon="4.78341">
        <ele>274.7</ele>
        <time>2013-03-10T10:31:30.56Z</time>
      </trkpt>
      <trkpt lat="45.87146" lon="4.78339">
        <ele>274.4</ele>
        <time>2013-03-10T10:31:31.56Z</time>
      </trkpt>
      <trkpt lat="45.87148" lon="4.78336">
        <ele>274</ele>
        <time>2013-03-10T10:31:32.56Z</time>
      </trkpt>
      <trkpt lat="45.8715" lon="4.78332">
        <ele>273.6</ele>
        <time>2013-03-10T10:31:33.7Z</time>
      </trkpt>
      <trkpt lat="45.87152" lon="4.78325">
        <ele>273.1</ele>
        <time>2013-03-10T10:31:35.58Z</time>
      </trkpt>
      <trkpt lat="45.87152" lon="4.7832">
        <ele>272.8</ele>
        <time>2013-03-10T10:31:36.58Z</time>
      </trkpt>
      <trkpt lat="45.87152" lon="4.78315">
        <ele>272.5</ele>
        <time>2013-03-10T10:31:37.7Z</time>
      </trkpt>
      <trkpt lat="45.87153" lon="4.78305">
        <ele>272</ele>
        <time>2013-03-10T10:31:39.58Z</time>
      </trkpt>
      <trkpt lat="45.87153" lon="4.78299">
        <ele>271.7</ele>
        <time>2013-03-10T10:31:40.58Z</time>
      </trkpt>
      <trkpt lat="45.87153" lon="4.78294">
        <ele>271.3</ele>
        <time>2013-03-10T10:31:41.62Z</time>
      </trkpt>
      <trkpt lat="45.87154" lon="4.78285">
        <ele>270.8</ele>
        <time>2013-03-10T10:31:43.65Z</time>
      </trkpt>
      <trkpt lat="45.87155" lon="4.78277">
        <ele>270.2</ele>
        <time>2013-03-10T10:31:45.56Z</time>
      </trkpt>
      <trkpt lat="45.87155" lon="4.78273">
        <ele>270</ele>
        <time>2013-03-10T10:31:46.56Z</time>
      </trkpt>
      <trkpt lat="45.87155" lon="4.78268">
        <ele>269.8</ele>
        <time>2013-03-10T10:31:47.56Z</time>
      </trkpt>
      <trkpt lat="45.87155" lon="4.78265">
        <ele>269.6</ele>
        <time>2013-03-10T10:31:48.56Z</time>
      </trkpt>
      <trkpt lat="45.87155" lon="4.7826">
        <ele>269.3</ele>
        <time>2013-03-10T10:31:49.58Z</time>
      </trkpt>
      <trkpt lat="45.87156" lon="4.78255">
        <ele>269</ele>
        <time>2013-03-10T10:31:50.65Z</time>
      </trkpt>
      <trkpt lat="45.87156" lon="4.78243">
        <ele>268.2</ele>
        <time>2013-03-10T10:31:52.58Z</time>
      </trkpt>
      <trkpt lat="45.87157" lon="4.78237">
        <ele>267.8</ele>
        <time>2013-03-10T10:31:53.74Z</time>
      </trkpt>
      <trkpt lat="45.87159" lon="4.78226">
        <ele>266.8</ele>
        <time>2013-03-10T10:31:55.57Z</time>
      </trkpt>
      <trkpt lat="45.87161" lon="4.78221">
        <ele>266.4</ele>
        <time>2013-03-10T10:31:56.57Z</time>
      </trkpt>
      <trkpt lat="45.87163" lon="4.78216">
        <ele>266.3</ele>
        <time>2013-03-10T10:31:57.61Z</time>
      </trkpt>
      <trkpt lat="45.87165" lon="4.78208">
        <ele>266.1</ele>
        <time>2013-03-10T10:31:59.59Z</time>
      </trkpt>
      <trkpt lat="45.87166" lon="4.78204">
        <ele>284.6</ele>
        <time>2013-03-10T10:32:00.58Z</time>
      </trkpt>
      <trkpt lat="45.87166" lon="4.78201">
        <ele>266</ele>
        <time>2013-03-10T10:32:01.62Z</time>
      </trkpt>
      <trkpt lat="45.87166" lon="4.78195">
        <ele>266.1</ele>
        <time>2013-03-10T10:32:03.56Z</time>
      </trkpt>
      <trkpt lat="45.87166" lon="4.78192">
        <ele>266</ele>
        <time>2013-03-10T10:32:04.58Z</time>
      </trkpt>
      <trkpt lat="45.87165" lon="4.78188">
        <ele>266</ele>
        <time>2013-03-10T10:32:05.57Z</time>
      </trkpt>
      <trkpt lat="45.87164" lon="4.78184">
        <ele>265.9</ele>
        <time>2013-03-10T10:32:06.58Z</time>
      </trkpt>
      <trkpt lat="45.87163" lon="4.78179">
        <ele>265.8</ele>
        <time>2013-03-10T10:32:07.62Z</time>
      </trkpt>
      <trkpt lat="45.87163" lon="4.78172">
        <ele>265.6</ele>
        <time>2013-03-10T10:32:09.57Z</time>
      </trkpt>
      <trkpt lat="45.87164" lon="4.78167">
        <ele>265.3</ele>
        <time>2013-03-10T10:32:10.57Z</time>
      </trkpt>
      <trkpt lat="45.87165" lon="4.78163">
        <ele>265.7</ele>
        <time>2013-03-10T10:32:11.57Z</time>
      </trkpt>
      <trkpt lat="45.87165" lon="4.78158">
        <ele>266.1</ele>
        <time>2013-03-10T10:32:12.65Z</time>
      </trkpt>
      <trkpt lat="45.87169" lon="4.78151">
        <ele>266.5</ele>
        <time>2013-03-10T10:32:14.57Z</time>
      </trkpt>
      <trkpt lat="45.87172" lon="4.78147">
        <ele>266.5</ele>
        <time>2013-03-10T10:32:15.58Z</time>
      </trkpt>
      <trkpt lat="45.87174" lon="4.78145">
        <ele>266.5</ele>
        <time>2013-03-10T10:32:16.62Z</time>
      </trkpt>
      <trkpt lat="45.87178" lon="4.78139">
        <ele>266.3</ele>
        <time>2013-03-10T10:32:18.56Z</time>
      </trkpt>
      <trkpt lat="45.8718" lon="4.78137">
        <ele>266.6</ele>
        <time>2013-03-10T10:32:19.58Z</time>
      </trkpt>
      <trkpt lat="45.87182" lon="4.78133">
        <ele>267</ele>
        <time>2013-03-10T10:32:20.57Z</time>
      </trkpt>
      <trkpt lat="45.87183" lon="4.78131">
        <ele>267.2</ele>
        <time>2013-03-10T10:32:21.58Z</time>
      </trkpt>
      <trkpt lat="45.87185" lon="4.78129">
        <ele>267.3</ele>
        <time>2013-03-10T10:32:22.57Z</time>
      </trkpt>
      <trkpt lat="45.8719" lon="4.78127">
        <ele>266.9</ele>
        <time>2013-03-10T10:32:23.66Z</time>
      </trkpt>
      <trkpt lat="45.87198" lon="4.78123">
        <ele>266.3</ele>
        <time>2013-03-10T10:32:25.65Z</time>
      </trkpt>
      <trkpt lat="45.87207" lon="4.7812">
        <ele>265.6</ele>
        <time>2013-03-10T10:32:27.57Z</time>
      </trkpt>
      <trkpt lat="45.87211" lon="4.78117">
        <ele>265.4</ele>
        <time>2013-03-10T10:32:28.67Z</time>
      </trkpt>
      <trkpt lat="45.87216" lon="4.78111">
        <ele>265.1</ele>
        <time>2013-03-10T10:32:30.56Z</time>
      </trkpt>
      <trkpt lat="45.87219" lon="4.78108">
        <ele>265.2</ele>
        <time>2013-03-10T10:32:31.56Z</time>
      </trkpt>
      <trkpt lat="45.87222" lon="4.78106">
        <ele>265.2</ele>
        <time>2013-03-10T10:32:32.56Z</time>
      </trkpt>
      <trkpt lat="45.87224" lon="4.78104">
        <ele>265.3</ele>
        <time>2013-03-10T10:32:33.7Z</time>
      </trkpt>
      <trkpt lat="45.87229" lon="4.78099">
        <ele>265.5</ele>
        <time>2013-03-10T10:32:35.62Z</time>
      </trkpt>
      <trkpt lat="45.87235" lon="4.78095">
        <ele>265.2</ele>
        <time>2013-03-10T10:32:37.56Z</time>
      </trkpt>
      <trkpt lat="45.87237" lon="4.78093">
        <ele>265.1</ele>
        <time>2013-03-10T10:32:38.67Z</time>
      </trkpt>
      <trkpt lat="45.87243" lon="4.78087">
        <ele>265</ele>
        <time>2013-03-10T10:32:40.66Z</time>
      </trkpt>
      <trkpt lat="45.87249" lon="4.78082">
        <ele>264.4</ele>
        <time>2013-03-10T10:32:42.66Z</time>
      </trkpt>
      <trkpt lat="45.87256" lon="4.78077">
        <ele>264.4</ele>
        <time>2013-03-10T10:32:44.66Z</time>
      </trkpt>
      <trkpt lat="45.87259" lon="4.78075">
        <ele>264.3</ele>
        <time>2013-03-10T10:32:45.56Z</time>
      </trkpt>
      <trkpt lat="45.87262" lon="4.78073">
        <ele>264.3</ele>
        <time>2013-03-10T10:32:46.66Z</time>
      </trkpt>
      <trkpt lat="45.87268" lon="4.78068">
        <ele>264.4</ele>
        <time>2013-03-10T10:32:48.74Z</time>
      </trkpt>
      <trkpt lat="45.87273" lon="4.78063">
        <ele>264.5</ele>
        <time>2013-03-10T10:32:50.57Z</time>
      </trkpt>
      <trkpt lat="45.87274" lon="4.7806">
        <ele>264.8</ele>
        <time>2013-03-10T10:32:51.66Z</time>
      </trkpt>
      <trkpt lat="45.87276" lon="4.78058">
        <ele>264.9</ele>
        <time>2013-03-10T10:32:52.56Z</time>
      </trkpt>
      <trkpt lat="45.87278" lon="4.78056">
        <ele>265</ele>
        <time>2013-03-10T10:32:53.74Z</time>
      </trkpt>
      <trkpt lat="45.87281" lon="4.7805">
        <ele>265.5</ele>
        <time>2013-03-10T10:32:55.56Z</time>
      </trkpt>
      <trkpt lat="45.87283" lon="4.78048">
        <ele>265.6</ele>
        <time>2013-03-10T10:32:56.66Z</time>
      </trkpt>
      <trkpt lat="45.87285" lon="4.78045">
        <ele>265.8</ele>
        <time>2013-03-10T10:32:57.56Z</time>
      </trkpt>
      <trkpt lat="45.87286" lon="4.78043">
        <ele>266</ele>
        <time>2013-03-10T10:32:58.7Z</time>
      </trkpt>
      <trkpt lat="45.87288" lon="4.78036">
        <ele>275.8</ele>
        <time>2013-03-10T10:33:00.66Z</time>
      </trkpt>
      <trkpt lat="45.87288" lon="4.78033">
        <ele>267.4</ele>
        <time>2013-03-10T10:33:01.56Z</time>
      </trkpt>
      <trkpt lat="45.87289" lon="4.7803">
        <ele>267.9</ele>
        <time>2013-03-10T10:33:02.66Z</time>
      </trkpt>
      <trkpt lat="45.8729" lon="4.78026">
        <ele>268.1</ele>
        <time>2013-03-10T10:33:03.56Z</time>
      </trkpt>
      <trkpt lat="45.8729" lon="4.78022">
        <ele>268</ele>
        <time>2013-03-10T10:33:04.7Z</time>
      </trkpt>
      <trkpt lat="45.8729" lon="4.78016">
        <ele>268.4</ele>
        <time>2013-03-10T10:33:06.56Z</time>
      </trkpt>
      <trkpt lat="45.8729" lon="4.78012">
        <ele>268.5</ele>
        <time>2013-03-10T10:33:07.66Z</time>
      </trkpt>
      <trkpt lat="45.8729" lon="4.78009">
        <ele>268.6</ele>
        <time>2013-03-10T10:33:08.56Z</time>
      </trkpt>
      <trkpt lat="45.8729" lon="4.78005">
        <ele>268.7</ele>
        <time>2013-03-10T10:33:09.66Z</time>
      </trkpt>
      <trkpt lat="45.87291" lon="4.77999">
        <ele>268.5</ele>
        <time>2013-03-10T10:33:11.56Z</time>
      </trkpt>
      <trkpt lat="45.87291" lon="4.77995">
        <ele>268.4</ele>
        <time>2013-03-10T10:33:12.66Z</time>
      </trkpt>
      <trkpt lat="45.87291" lon="4.77991">
        <ele>268.4</ele>
        <time>2013-03-10T10:33:13.56Z</time>
      </trkpt>
      <trkpt lat="45.8729" lon="4.77987">
        <ele>268.3</ele>
        <time>2013-03-10T10:33:14.66Z</time>
      </trkpt>
      <trkpt lat="45.87289" lon="4.7798">
        <ele>268.2</ele>
        <time>2013-03-10T10:33:16.57Z</time>
      </trkpt>
      <trkpt lat="45.87289" lon="4.77971">
        <ele>268</ele>
        <time>2013-03-10T10:33:18.68Z</time>
      </trkpt>
      <trkpt lat="45.87288" lon="4.77963">
        <ele>267.5</ele>
        <time>2013-03-10T10:33:20.56Z</time>
      </trkpt>
      <trkpt lat="45.87287" lon="4.77959">
        <ele>267.3</ele>
        <time>2013-03-10T10:33:21.66Z</time>
      </trkpt>
      <trkpt lat="45.87286" lon="4.77952">
        <ele>267.1</ele>
        <time>2013-03-10T10:33:23.65Z</time>
      </trkpt>
      <trkpt lat="45.87284" lon="4.77945">
        <ele>267</ele>
        <time>2013-03-10T10:33:25.65Z</time>
      </trkpt>
      <trkpt lat="45.87282" lon="4.77941">
        <ele>267</ele>
        <time>2013-03-10T10:33:26.56Z</time>
      </trkpt>
      <trkpt lat="45.8728" lon="4.77932">
        <ele>266.6</ele>
        <time>2013-03-10T10:33:28.56Z</time>
      </trkpt>
      <trkpt lat="45.8728" lon="4.77927">
        <ele>266.4</ele>
        <time>2013-03-10T10:33:29.65Z</time>
      </trkpt>
      <trkpt lat="45.87279" lon="4.77923">
        <ele>266.2</ele>
        <time>2013-03-10T10:33:30.56Z</time>
      </trkpt>
      <trkpt lat="45.87278" lon="4.77918">
        <ele>266</ele>
        <time>2013-03-10T10:33:31.71Z</time>
      </trkpt>
      <trkpt lat="45.87277" lon="4.77909">
        <ele>265.6</ele>
        <time>2013-03-10T10:33:33.57Z</time>
      </trkpt>
      <trkpt lat="45.87276" lon="4.77905">
        <ele>265.4</ele>
        <time>2013-03-10T10:33:34.56Z</time>
      </trkpt>
      <trkpt lat="45.87275" lon="4.77899">
        <ele>265.2</ele>
        <time>2013-03-10T10:33:35.65Z</time>
      </trkpt>
      <trkpt lat="45.87273" lon="4.77889">
        <ele>264.8</ele>
        <time>2013-03-10T10:33:37.65Z</time>
      </trkpt>
      <trkpt lat="45.87273" lon="4.77884">
        <ele>264.8</ele>
        <time>2013-03-10T10:33:38.56Z</time>
      </trkpt>
      <trkpt lat="45.87272" lon="4.77879">
        <ele>264.7</ele>
        <time>2013-03-10T10:33:39.63Z</time>
      </trkpt>
      <trkpt lat="45.87271" lon="4.77874">
        <ele>264.8</ele>
        <time>2013-03-10T10:33:40.56Z</time>
      </trkpt>
      <trkpt lat="45.87271" lon="4.77869">
        <ele>264.8</ele>
        <time>2013-03-10T10:33:41.65Z</time>
      </trkpt>
      <trkpt lat="45.8727" lon="4.77864">
        <ele>264.8</ele>
        <time>2013-03-10T10:33:42.57Z</time>
      </trkpt>
      <trkpt lat="45.87269" lon="4.77859">
        <ele>264.8</ele>
        <time>2013-03-10T10:33:43.66Z</time>
      </trkpt>
      <trkpt lat="45.87268" lon="4.77851">
        <ele>265</ele>
        <time>2013-03-10T10:33:45.56Z</time>
      </trkpt>
      <trkpt lat="45.87267" lon="4.77846">
        <ele>265.1</ele>
        <time>2013-03-10T10:33:46.65Z</time>
      </trkpt>
      <trkpt lat="45.87265" lon="4.77836">
        <ele>265.2</ele>
        <time>2013-03-10T10:33:48.67Z</time>
      </trkpt>
      <trkpt lat="45.87265" lon="4.77825">
        <ele>265.2</ele>
        <time>2013-03-10T10:33:50.57Z</time>
      </trkpt>
      <trkpt lat="45.87264" lon="4.77819">
        <ele>265.2</ele>
        <time>2013-03-10T10:33:51.63Z</time>
      </trkpt>
      <trkpt lat="45.87264" lon="4.77814">
        <ele>265.1</ele>
        <time>2013-03-10T10:33:52.56Z</time>
      </trkpt>
      <trkpt lat="45.87265" lon="4.77809">
        <ele>264.8</ele>
        <time>2013-03-10T10:33:53.66Z</time>
      </trkpt>
      <trkpt lat="45.87268" lon="4.778">
        <ele>263.8</ele>
        <time>2013-03-10T10:33:55.56Z</time>
      </trkpt>
      <trkpt lat="45.8727" lon="4.77796">
        <ele>263.3</ele>
        <time>2013-03-10T10:33:56.65Z</time>
      </trkpt>
      <trkpt lat="45.87272" lon="4.77794">
        <ele>262.8</ele>
        <time>2013-03-10T10:33:57.56Z</time>
      </trkpt>
      <trkpt lat="45.87275" lon="4.77792">
        <ele>262.1</ele>
        <time>2013-03-10T10:33:58.74Z</time>
      </trkpt>
      <trkpt lat="45.87282" lon="4.77792">
        <ele>271.9</ele>
        <time>2013-03-10T10:34:00.56Z</time>
      </trkpt>
      <trkpt lat="45.87284" lon="4.77792">
        <ele>260.2</ele>
        <time>2013-03-10T10:34:01.64Z</time>
      </trkpt>
      <trkpt lat="45.87287" lon="4.77792">
        <ele>259.7</ele>
        <time>2013-03-10T10:34:02.56Z</time>
      </trkpt>
      <trkpt lat="45.8729" lon="4.77792">
        <ele>259.1</ele>
        <time>2013-03-10T10:34:03.75Z</time>
      </trkpt>
      <trkpt lat="45.87297" lon="4.77793">
        <ele>257.8</ele>
        <time>2013-03-10T10:34:05.56Z</time>
      </trkpt>
      <trkpt lat="45.873" lon="4.77793">
        <ele>257.2</ele>
        <time>2013-03-10T10:34:06.64Z</time>
      </trkpt>
      <trkpt lat="45.87305" lon="4.77793">
        <ele>256</ele>
        <time>2013-03-10T10:34:08.73Z</time>
      </trkpt>
      <trkpt lat="45.87312" lon="4.77794">
        <ele>254.8</ele>
        <time>2013-03-10T10:34:10.57Z</time>
      </trkpt>
      <trkpt lat="45.87316" lon="4.77795">
        <ele>254.2</ele>
        <time>2013-03-10T10:34:11.65Z</time>
      </trkpt>
      <trkpt lat="45.87322" lon="4.77797">
        <ele>253.1</ele>
        <time>2013-03-10T10:34:13.74Z</time>
      </trkpt>
      <trkpt lat="45.87329" lon="4.77799">
        <ele>251.8</ele>
        <time>2013-03-10T10:34:15.56Z</time>
      </trkpt>
      <trkpt lat="45.87331" lon="4.77799">
        <ele>251.4</ele>
        <time>2013-03-10T10:34:16.67Z</time>
      </trkpt>
      <trkpt lat="45.87337" lon="4.778">
        <ele>250.5</ele>
        <time>2013-03-10T10:34:18.56Z</time>
      </trkpt>
      <trkpt lat="45.8734" lon="4.778">
        <ele>250.1</ele>
        <time>2013-03-10T10:34:19.64Z</time>
      </trkpt>
      <trkpt lat="45.87343" lon="4.778">
        <ele>249.7</ele>
        <time>2013-03-10T10:34:20.56Z</time>
      </trkpt>
      <trkpt lat="45.87346" lon="4.778">
        <ele>249.1</ele>
        <time>2013-03-10T10:34:21.64Z</time>
      </trkpt>
      <trkpt lat="45.87354" lon="4.778">
        <ele>248</ele>
        <time>2013-03-10T10:34:23.73Z</time>
      </trkpt>
      <trkpt lat="45.87362" lon="4.77799">
        <ele>246.9</ele>
        <time>2013-03-10T10:34:25.56Z</time>
      </trkpt>
      <trkpt lat="45.87366" lon="4.77799">
        <ele>246.3</ele>
        <time>2013-03-10T10:34:26.64Z</time>
      </trkpt>
      <trkpt lat="45.87371" lon="4.77798">
        <ele>245.7</ele>
        <time>2013-03-10T10:34:27.56Z</time>
      </trkpt>
      <trkpt lat="45.87375" lon="4.77797">
        <ele>245.2</ele>
        <time>2013-03-10T10:34:28.74Z</time>
      </trkpt>
      <trkpt lat="45.87382" lon="4.77794">
        <ele>244.3</ele>
        <time>2013-03-10T10:34:30.64Z</time>
      </trkpt>
      <trkpt lat="45.87388" lon="4.77792">
        <ele>243.6</ele>
        <time>2013-03-10T10:34:32.64Z</time>
      </trkpt>
      <trkpt lat="45.87391" lon="4.77791">
        <ele>243.3</ele>
        <time>2013-03-10T10:34:33.57Z</time>
      </trkpt>
      <trkpt lat="45.87394" lon="4.7779">
        <ele>243</ele>
        <time>2013-03-10T10:34:34.64Z</time>
      </trkpt>
      <trkpt lat="45.87399" lon="4.77788">
        <ele>242.4</ele>
        <time>2013-03-10T10:34:36.64Z</time>
      </trkpt>
      <trkpt lat="45.87402" lon="4.77787">
        <ele>242.1</ele>
        <time>2013-03-10T10:34:37.56Z</time>
      </trkpt>
      <trkpt lat="45.87405" lon="4.77786">
        <ele>241.7</ele>
        <time>2013-03-10T10:34:38.66Z</time>
      </trkpt>
      <trkpt lat="45.87412" lon="4.77785">
        <ele>240.9</ele>
        <time>2013-03-10T10:34:40.56Z</time>
      </trkpt>
      <trkpt lat="45.87414" lon="4.77786">
        <ele>240.6</ele>
        <time>2013-03-10T10:34:41.61Z</time>
      </trkpt>
      <trkpt lat="45.87418" lon="4.77787">
        <ele>240.3</ele>
        <time>2013-03-10T10:34:42.56Z</time>
      </trkpt>
      <trkpt lat="45.87421" lon="4.77788">
        <ele>240.1</ele>
        <time>2013-03-10T10:34:43.67Z</time>
      </trkpt>
      <trkpt lat="45.87428" lon="4.77787">
        <ele>239.7</ele>
        <time>2013-03-10T10:34:45.63Z</time>
      </trkpt>
      <trkpt lat="45.87431" lon="4.77786">
        <ele>239.5</ele>
        <time>2013-03-10T10:34:46.56Z</time>
      </trkpt>
      <trkpt lat="45.87435" lon="4.77786">
        <ele>239.3</ele>
        <time>2013-03-10T10:34:47.63Z</time>
      </trkpt>
      <trkpt lat="45.87443" lon="4.77785">
        <ele>238.8</ele>
        <time>2013-03-10T10:34:49.63Z</time>
      </trkpt>
      <trkpt lat="45.87447" lon="4.77785">
        <ele>238.5</ele>
        <time>2013-03-10T10:34:50.57Z</time>
      </trkpt>
      <trkpt lat="45.87451" lon="4.77784">
        <ele>238.1</ele>
        <time>2013-03-10T10:34:51.63Z</time>
      </trkpt>
      <trkpt lat="45.87457" lon="4.77784">
        <ele>237.6</ele>
        <time>2013-03-10T10:34:53.66Z</time>
      </trkpt>
      <trkpt lat="45.87461" lon="4.7778">
        <ele>237.2</ele>
        <time>2013-03-10T10:34:55.63Z</time>
      </trkpt>
      <trkpt lat="45.87463" lon="4.77772">
        <ele>237</ele>
        <time>2013-03-10T10:34:57.63Z</time>
      </trkpt>
      <trkpt lat="45.87463" lon="4.77767">
        <ele>237</ele>
        <time>2013-03-10T10:34:58.56Z</time>
      </trkpt>
      <trkpt lat="45.87462" lon="4.77762">
        <ele>237.1</ele>
        <time>2013-03-10T10:34:59.8Z</time>
      </trkpt>
      <trkpt lat="45.87459" lon="4.77752">
        <ele>254.6</ele>
        <time>2013-03-10T10:35:01.63Z</time>
      </trkpt>
      <trkpt lat="45.87458" lon="4.77747">
        <ele>237.5</ele>
        <time>2013-03-10T10:35:02.56Z</time>
      </trkpt>
      <trkpt lat="45.87456" lon="4.77742">
        <ele>237.5</ele>
        <time>2013-03-10T10:35:03.66Z</time>
      </trkpt>
      <trkpt lat="45.87455" lon="4.77738">
        <ele>237.5</ele>
        <time>2013-03-10T10:35:04.63Z</time>
      </trkpt>
      <trkpt lat="45.87454" lon="4.7773">
        <ele>237.5</ele>
        <time>2013-03-10T10:35:06.56Z</time>
      </trkpt>
      <trkpt lat="45.87454" lon="4.77726">
        <ele>237.4</ele>
        <time>2013-03-10T10:35:07.63Z</time>
      </trkpt>
      <trkpt lat="45.87453" lon="4.77721">
        <ele>237.4</ele>
        <time>2013-03-10T10:35:08.56Z</time>
      </trkpt>
      <trkpt lat="45.87453" lon="4.77717">
        <ele>237.4</ele>
        <time>2013-03-10T10:35:09.63Z</time>
      </trkpt>
      <trkpt lat="45.87452" lon="4.77712">
        <ele>237.4</ele>
        <time>2013-03-10T10:35:10.56Z</time>
      </trkpt>
      <trkpt lat="45.87451" lon="4.77707">
        <ele>237.5</ele>
        <time>2013-03-10T10:35:11.63Z</time>
      </trkpt>
      <trkpt lat="45.8745" lon="4.77698">
        <ele>237.6</ele>
        <time>2013-03-10T10:35:13.66Z</time>
      </trkpt>
      <trkpt lat="45.87448" lon="4.77689">
        <ele>237.6</ele>
        <time>2013-03-10T10:35:15.56Z</time>
      </trkpt>
      <trkpt lat="45.87446" lon="4.77685">
        <ele>237.5</ele>
        <time>2013-03-10T10:35:16.58Z</time>
      </trkpt>
      <trkpt lat="45.87446" lon="4.77681">
        <ele>237.4</ele>
        <time>2013-03-10T10:35:17.56Z</time>
      </trkpt>
      <trkpt lat="45.87446" lon="4.77678">
        <ele>237.3</ele>
        <time>2013-03-10T10:35:18.56Z</time>
      </trkpt>
      <trkpt lat="45.87446" lon="4.77675">
        <ele>237.2</ele>
        <time>2013-03-10T10:35:19.56Z</time>
      </trkpt>
      <trkpt lat="45.87445" lon="4.77671">
        <ele>237.2</ele>
        <time>2013-03-10T10:35:20.56Z</time>
      </trkpt>
      <trkpt lat="45.87444" lon="4.77668">
        <ele>237.1</ele>
        <time>2013-03-10T10:35:21.62Z</time>
      </trkpt>
      <trkpt lat="45.87443" lon="4.77664">
        <ele>237.2</ele>
        <time>2013-03-10T10:35:22.62Z</time>
      </trkpt>
      <trkpt lat="45.87443" lon="4.77659">
        <ele>237.2</ele>
        <time>2013-03-10T10:35:23.67Z</time>
      </trkpt>
      <trkpt lat="45.87441" lon="4.77651">
        <ele>237.4</ele>
        <time>2013-03-10T10:35:25.56Z</time>
      </trkpt>
      <trkpt lat="45.8744" lon="4.77646">
        <ele>237.4</ele>
        <time>2013-03-10T10:35:26.56Z</time>
      </trkpt>
      <trkpt lat="45.87439" lon="4.77642">
        <ele>237.4</ele>
        <time>2013-03-10T10:35:27.56Z</time>
      </trkpt>
      <trkpt lat="45.87438" lon="4.77639">
        <ele>237.5</ele>
        <time>2013-03-10T10:35:28.56Z</time>
      </trkpt>
      <trkpt lat="45.87437" lon="4.77634">
        <ele>237.5</ele>
        <time>2013-03-10T10:35:29.56Z</time>
      </trkpt>
      <trkpt lat="45.87436" lon="4.7763">
        <ele>237.6</ele>
        <time>2013-03-10T10:35:30.56Z</time>
      </trkpt>
      <trkpt lat="45.87435" lon="4.77626">
        <ele>237.7</ele>
        <time>2013-03-10T10:35:31.56Z</time>
      </trkpt>
      <trkpt lat="45.87434" lon="4.77621">
        <ele>237.8</ele>
        <time>2013-03-10T10:35:32.56Z</time>
      </trkpt>
      <trkpt lat="45.87433" lon="4.77616">
        <ele>237.8</ele>
        <time>2013-03-10T10:35:33.57Z</time>
      </trkpt>
      <trkpt lat="45.87432" lon="4.77611">
        <ele>237.9</ele>
        <time>2013-03-10T10:35:34.62Z</time>
      </trkpt>
      <trkpt lat="45.87432" lon="4.77606">
        <ele>237.9</ele>
        <time>2013-03-10T10:35:35.62Z</time>
      </trkpt>
      <trkpt lat="45.87432" lon="4.77601">
        <ele>237.9</ele>
        <time>2013-03-10T10:35:36.62Z</time>
      </trkpt>
      <trkpt lat="45.87431" lon="4.77596">
        <ele>238</ele>
        <time>2013-03-10T10:35:37.62Z</time>
      </trkpt>
      <trkpt lat="45.8743" lon="4.77591">
        <ele>238</ele>
        <time>2013-03-10T10:35:38.74Z</time>
      </trkpt>
      <trkpt lat="45.8743" lon="4.77581">
        <ele>238</ele>
        <time>2013-03-10T10:35:40.62Z</time>
      </trkpt>
      <trkpt lat="45.87428" lon="4.77572">
        <ele>237.9</ele>
        <time>2013-03-10T10:35:42.56Z</time>
      </trkpt>
      <trkpt lat="45.87427" lon="4.77567">
        <ele>237.9</ele>
        <time>2013-03-10T10:35:43.56Z</time>
      </trkpt>
      <trkpt lat="45.87427" lon="4.77562">
        <ele>237.8</ele>
        <time>2013-03-10T10:35:44.56Z</time>
      </trkpt>
      <trkpt lat="45.87426" lon="4.77558">
        <ele>237.7</ele>
        <time>2013-03-10T10:35:45.56Z</time>
      </trkpt>
      <trkpt lat="45.87424" lon="4.77553">
        <ele>237.6</ele>
        <time>2013-03-10T10:35:46.56Z</time>
      </trkpt>
      <trkpt lat="45.87423" lon="4.77547">
        <ele>237.5</ele>
        <time>2013-03-10T10:35:47.56Z</time>
      </trkpt>
      <trkpt lat="45.87422" lon="4.77543">
        <ele>237.3</ele>
        <time>2013-03-10T10:35:48.56Z</time>
      </trkpt>
      <trkpt lat="45.87421" lon="4.77538">
        <ele>237.2</ele>
        <time>2013-03-10T10:35:49.56Z</time>
      </trkpt>
      <trkpt lat="45.8742" lon="4.77533">
        <ele>237.1</ele>
        <time>2013-03-10T10:35:50.67Z</time>
      </trkpt>
      <trkpt lat="45.87418" lon="4.77524">
        <ele>236.9</ele>
        <time>2013-03-10T10:35:52.56Z</time>
      </trkpt>
      <trkpt lat="45.87418" lon="4.77519">
        <ele>237</ele>
        <time>2013-03-10T10:35:53.56Z</time>
      </trkpt>
      <trkpt lat="45.87418" lon="4.77515">
        <ele>237</ele>
        <time>2013-03-10T10:35:54.56Z</time>
      </trkpt>
      <trkpt lat="45.87417" lon="4.77511">
        <ele>237</ele>
        <time>2013-03-10T10:35:55.56Z</time>
      </trkpt>
      <trkpt lat="45.87417" lon="4.77507">
        <ele>237</ele>
        <time>2013-03-10T10:35:56.56Z</time>
      </trkpt>
      <trkpt lat="45.87417" lon="4.77503">
        <ele>237</ele>
        <time>2013-03-10T10:35:57.56Z</time>
      </trkpt>
      <trkpt lat="45.87417" lon="4.77499">
        <ele>237</ele>
        <time>2013-03-10T10:35:58.56Z</time>
      </trkpt>
      <trkpt lat="45.87416" lon="4.77494">
        <ele>236.8</ele>
        <time>2013-03-10T10:35:59.59Z</time>
      </trkpt>
      <trkpt lat="45.87416" lon="4.77489">
        <ele>247.9</ele>
        <time>2013-03-10T10:36:00.62Z</time>
      </trkpt>
      <trkpt lat="45.87416" lon="4.7748">
        <ele>236.3</ele>
        <time>2013-03-10T10:36:02.61Z</time>
      </trkpt>
      <trkpt lat="45.87416" lon="4.77475">
        <ele>236.2</ele>
        <time>2013-03-10T10:36:03.65Z</time>
      </trkpt>
      <trkpt lat="45.87416" lon="4.77467">
        <ele>236.1</ele>
        <time>2013-03-10T10:36:05.56Z</time>
      </trkpt>
      <trkpt lat="45.87417" lon="4.77462">
        <ele>236</ele>
        <time>2013-03-10T10:36:06.56Z</time>
      </trkpt>
      <trkpt lat="45.87417" lon="4.77458">
        <ele>236</ele>
        <time>2013-03-10T10:36:07.56Z</time>
      </trkpt>
      <trkpt lat="45.87418" lon="4.77452">
        <ele>236</ele>
        <time>2013-03-10T10:36:08.56Z</time>
      </trkpt>
      <trkpt lat="45.87419" lon="4.77447">
        <ele>235.9</ele>
        <time>2013-03-10T10:36:09.56Z</time>
      </trkpt>
      <trkpt lat="45.87419" lon="4.77443">
        <ele>235.9</ele>
        <time>2013-03-10T10:36:10.56Z</time>
      </trkpt>
      <trkpt lat="45.87421" lon="4.77439">
        <ele>235.7</ele>
        <time>2013-03-10T10:36:11.56Z</time>
      </trkpt>
      <trkpt lat="45.87421" lon="4.77434">
        <ele>235.5</ele>
        <time>2013-03-10T10:36:12.56Z</time>
      </trkpt>
      <trkpt lat="45.87421" lon="4.77431">
        <ele>235.4</ele>
        <time>2013-03-10T10:36:13.56Z</time>
      </trkpt>
      <trkpt lat="45.8742" lon="4.77427">
        <ele>235.3</ele>
        <time>2013-03-10T10:36:14.61Z</time>
      </trkpt>
      <trkpt lat="45.8742" lon="4.77423">
        <ele>235.2</ele>
        <time>2013-03-10T10:36:15.59Z</time>
      </trkpt>
      <trkpt lat="45.87419" lon="4.77418">
        <ele>235.1</ele>
        <time>2013-03-10T10:36:16.66Z</time>
      </trkpt>
      <trkpt lat="45.87419" lon="4.77411">
        <ele>235</ele>
        <time>2013-03-10T10:36:18.58Z</time>
      </trkpt>
      <trkpt lat="45.87419" lon="4.77408">
        <ele>235</ele>
        <time>2013-03-10T10:36:19.61Z</time>
      </trkpt>
      <trkpt lat="45.87419" lon="4.77405">
        <ele>235</ele>
        <time>2013-03-10T10:36:20.61Z</time>
      </trkpt>
      <trkpt lat="45.87419" lon="4.774">
        <ele>234.9</ele>
        <time>2013-03-10T10:36:21.61Z</time>
      </trkpt>
      <trkpt lat="45.8742" lon="4.77396">
        <ele>234.9</ele>
        <time>2013-03-10T10:36:22.63Z</time>
      </trkpt>
      <trkpt lat="45.8742" lon="4.77386">
        <ele>234.9</ele>
        <time>2013-03-10T10:36:24.56Z</time>
      </trkpt>
      <trkpt lat="45.8742" lon="4.77381">
        <ele>234.9</ele>
        <time>2013-03-10T10:36:25.56Z</time>
      </trkpt>
      <trkpt lat="45.8742" lon="4.77377">
        <ele>234.9</ele>
        <time>2013-03-10T10:36:26.56Z</time>
      </trkpt>
      <trkpt lat="45.87419" lon="4.77373">
        <ele>234.9</ele>
        <time>2013-03-10T10:36:27.56Z</time>
      </trkpt>
      <trkpt lat="45.87419" lon="4.77369">
        <ele>234.9</ele>
        <time>2013-03-10T10:36:28.56Z</time>
      </trkpt>
      <trkpt lat="45.87419" lon="4.77364">
        <ele>234.9</ele>
        <time>2013-03-10T10:36:29.56Z</time>
      </trkpt>
      <trkpt lat="45.87419" lon="4.7736">
        <ele>234.9</ele>
        <time>2013-03-10T10:36:30.56Z</time>
      </trkpt>
      <trkpt lat="45.87418" lon="4.77355">
        <ele>235</ele>
        <time>2013-03-10T10:36:31.61Z</time>
      </trkpt>
      <trkpt lat="45.87417" lon="4.77351">
        <ele>235</ele>
        <time>2013-03-10T10:36:32.61Z</time>
      </trkpt>
      <trkpt lat="45.87416" lon="4.77346">
        <ele>235.1</ele>
        <time>2013-03-10T10:36:33.71Z</time>
      </trkpt>
      <trkpt lat="45.87413" lon="4.77337">
        <ele>235.3</ele>
        <time>2013-03-10T10:36:35.56Z</time>
      </trkpt>
      <trkpt lat="45.87411" lon="4.77333">
        <ele>235.4</ele>
        <time>2013-03-10T10:36:36.56Z</time>
      </trkpt>
      <trkpt lat="45.8741" lon="4.77329">
        <ele>235.4</ele>
        <time>2013-03-10T10:36:37.56Z</time>
      </trkpt>
      <trkpt lat="45.87408" lon="4.77325">
        <ele>235.3</ele>
        <time>2013-03-10T10:36:38.56Z</time>
      </trkpt>
      <trkpt lat="45.87407" lon="4.7732">
        <ele>235.2</ele>
        <time>2013-03-10T10:36:39.56Z</time>
      </trkpt>
      <trkpt lat="45.87407" lon="4.77316">
        <ele>235.1</ele>
        <time>2013-03-10T10:36:40.56Z</time>
      </trkpt>
      <trkpt lat="45.87406" lon="4.77312">
        <ele>235</ele>
        <time>2013-03-10T10:36:41.57Z</time>
      </trkpt>
      <trkpt lat="45.87405" lon="4.77308">
        <ele>234.9</ele>
        <time>2013-03-10T10:36:42.56Z</time>
      </trkpt>
      <trkpt lat="45.87404" lon="4.77304">
        <ele>234.9</ele>
        <time>2013-03-10T10:36:43.56Z</time>
      </trkpt>
      <trkpt lat="45.87403" lon="4.773">
        <ele>234.9</ele>
        <time>2013-03-10T10:36:44.57Z</time>
      </trkpt>
      <trkpt lat="45.87403" lon="4.77296">
        <ele>234.8</ele>
        <time>2013-03-10T10:36:45.56Z</time>
      </trkpt>
      <trkpt lat="45.87403" lon="4.77293">
        <ele>234.8</ele>
        <time>2013-03-10T10:36:46.56Z</time>
      </trkpt>
      <trkpt lat="45.87402" lon="4.77289">
        <ele>234.8</ele>
        <time>2013-03-10T10:36:47.56Z</time>
      </trkpt>
      <trkpt lat="45.87401" lon="4.77285">
        <ele>234.7</ele>
        <time>2013-03-10T10:36:48.56Z</time>
      </trkpt>
      <trkpt lat="45.874" lon="4.77281">
        <ele>234.7</ele>
        <time>2013-03-10T10:36:49.56Z</time>
      </trkpt>
      <trkpt lat="45.87398" lon="4.77276">
        <ele>234.7</ele>
        <time>2013-03-10T10:36:50.61Z</time>
      </trkpt>
      <trkpt lat="45.87393" lon="4.77266">
        <ele>234.8</ele>
        <time>2013-03-10T10:36:52.56Z</time>
      </trkpt>
      <trkpt lat="45.87392" lon="4.77262">
        <ele>234.9</ele>
        <time>2013-03-10T10:36:53.56Z</time>
      </trkpt>
      <trkpt lat="45.87391" lon="4.77257">
        <ele>234.9</ele>
        <time>2013-03-10T10:36:54.6Z</time>
      </trkpt>
      <trkpt lat="45.87389" lon="4.77253">
        <ele>235</ele>
        <time>2013-03-10T10:36:55.6Z</time>
      </trkpt>
      <trkpt lat="45.87388" lon="4.77249">
        <ele>235</ele>
        <time>2013-03-10T10:36:56.6Z</time>
      </trkpt>
      <trkpt lat="45.87389" lon="4.77244">
        <ele>234.8</ele>
        <time>2013-03-10T10:36:57.62Z</time>
      </trkpt>
      <trkpt lat="45.8739" lon="4.77236">
        <ele>234.5</ele>
        <time>2013-03-10T10:36:59.59Z</time>
      </trkpt>
      <trkpt lat="45.8739" lon="4.77232">
        <ele>248.6</ele>
        <time>2013-03-10T10:37:00.6Z</time>
      </trkpt>
      <trkpt lat="45.8739" lon="4.77228">
        <ele>234.2</ele>
        <time>2013-03-10T10:37:01.58Z</time>
      </trkpt>
      <trkpt lat="45.87391" lon="4.77224">
        <ele>234.1</ele>
        <time>2013-03-10T10:37:02.62Z</time>
      </trkpt>
      <trkpt lat="45.87391" lon="4.77215">
        <ele>233.7</ele>
        <time>2013-03-10T10:37:04.56Z</time>
      </trkpt>
      <trkpt lat="45.87392" lon="4.77211">
        <ele>233.6</ele>
        <time>2013-03-10T10:37:05.56Z</time>
      </trkpt>
      <trkpt lat="45.87392" lon="4.77206">
        <ele>233.4</ele>
        <time>2013-03-10T10:37:06.62Z</time>
      </trkpt>
      <trkpt lat="45.87394" lon="4.77196">
        <ele>233.1</ele>
        <time>2013-03-10T10:37:08.56Z</time>
      </trkpt>
      <trkpt lat="45.87395" lon="4.77192">
        <ele>233</ele>
        <time>2013-03-10T10:37:09.56Z</time>
      </trkpt>
      <trkpt lat="45.87396" lon="4.77187">
        <ele>232.9</ele>
        <time>2013-03-10T10:37:10.56Z</time>
      </trkpt>
      <trkpt lat="45.87397" lon="4.77183">
        <ele>232.9</ele>
        <time>2013-03-10T10:37:11.56Z</time>
      </trkpt>
      <trkpt lat="45.87397" lon="4.77178">
        <ele>232.8</ele>
        <time>2013-03-10T10:37:12.57Z</time>
      </trkpt>
      <trkpt lat="45.87397" lon="4.77174">
        <ele>232.8</ele>
        <time>2013-03-10T10:37:13.56Z</time>
      </trkpt>
      <trkpt lat="45.87397" lon="4.77169">
        <ele>232.7</ele>
        <time>2013-03-10T10:37:14.6Z</time>
      </trkpt>
      <trkpt lat="45.87396" lon="4.77164">
        <ele>232.7</ele>
        <time>2013-03-10T10:37:15.6Z</time>
      </trkpt>
      <trkpt lat="45.87395" lon="4.77158">
        <ele>232.8</ele>
        <time>2013-03-10T10:37:16.67Z</time>
      </trkpt>
      <trkpt lat="45.87392" lon="4.77146">
        <ele>232.9</ele>
        <time>2013-03-10T10:37:18.67Z</time>
      </trkpt>
      <trkpt lat="45.87391" lon="4.77135">
        <ele>232.9</ele>
        <time>2013-03-10T10:37:20.56Z</time>
      </trkpt>
      <trkpt lat="45.8739" lon="4.7713">
        <ele>232.9</ele>
        <time>2013-03-10T10:37:21.56Z</time>
      </trkpt>
      <trkpt lat="45.87389" lon="4.77125">
        <ele>233</ele>
        <time>2013-03-10T10:37:22.56Z</time>
      </trkpt>
      <trkpt lat="45.87387" lon="4.77121">
        <ele>233.1</ele>
        <time>2013-03-10T10:37:23.65Z</time>
      </trkpt>
      <trkpt lat="45.87385" lon="4.77111">
        <ele>233.1</ele>
        <time>2013-03-10T10:37:25.56Z</time>
      </trkpt>
      <trkpt lat="45.87384" lon="4.77106">
        <ele>233</ele>
        <time>2013-03-10T10:37:26.56Z</time>
      </trkpt>
      <trkpt lat="45.87383" lon="4.77101">
        <ele>232.8</ele>
        <time>2013-03-10T10:37:27.56Z</time>
      </trkpt>
      <trkpt lat="45.87384" lon="4.77097">
        <ele>232.7</ele>
        <time>2013-03-10T10:37:28.68Z</time>
      </trkpt>
      <trkpt lat="45.87388" lon="4.77089">
        <ele>232.2</ele>
        <time>2013-03-10T10:37:30.56Z</time>
      </trkpt>
      <trkpt lat="45.87391" lon="4.77085">
        <ele>232</ele>
        <time>2013-03-10T10:37:31.56Z</time>
      </trkpt>
      <trkpt lat="45.87393" lon="4.77081">
        <ele>231.8</ele>
        <time>2013-03-10T10:37:32.56Z</time>
      </trkpt>
      <trkpt lat="45.87396" lon="4.77078">
        <ele>231.7</ele>
        <time>2013-03-10T10:37:33.57Z</time>
      </trkpt>
      <trkpt lat="45.87398" lon="4.77076">
        <ele>231.7</ele>
        <time>2013-03-10T10:37:34.56Z</time>
      </trkpt>
      <trkpt lat="45.87401" lon="4.77076">
        <ele>231.6</ele>
        <time>2013-03-10T10:37:35.56Z</time>
      </trkpt>
      <trkpt lat="45.87405" lon="4.77075">
        <ele>231.4</ele>
        <time>2013-03-10T10:37:36.56Z</time>
      </trkpt>
      <trkpt lat="45.8741" lon="4.77075">
        <ele>231.2</ele>
        <time>2013-03-10T10:37:37.56Z</time>
      </trkpt>
      <trkpt lat="45.87414" lon="4.77073">
        <ele>231.1</ele>
        <time>2013-03-10T10:37:38.56Z</time>
      </trkpt>
      <trkpt lat="45.87419" lon="4.77072">
        <ele>230.9</ele>
        <time>2013-03-10T10:37:39.56Z</time>
      </trkpt>
      <trkpt lat="45.87424" lon="4.77073">
        <ele>230.7</ele>
        <time>2013-03-10T10:37:40.59Z</time>
      </trkpt>
      <trkpt lat="45.87428" lon="4.77073">
        <ele>230.6</ele>
        <time>2013-03-10T10:37:41.62Z</time>
      </trkpt>
      <trkpt lat="45.87437" lon="4.77072">
        <ele>230.3</ele>
        <time>2013-03-10T10:37:43.56Z</time>
      </trkpt>
      <trkpt lat="45.8744" lon="4.77069">
        <ele>230.2</ele>
        <time>2013-03-10T10:37:44.56Z</time>
      </trkpt>
      <trkpt lat="45.87441" lon="4.77066">
        <ele>230.1</ele>
        <time>2013-03-10T10:37:45.56Z</time>
      </trkpt>
      <trkpt lat="45.87442" lon="4.77062">
        <ele>230.1</ele>
        <time>2013-03-10T10:37:46.59Z</time>
      </trkpt>
      <trkpt lat="45.87441" lon="4.77057">
        <ele>230.1</ele>
        <time>2013-03-10T10:37:47.59Z</time>
      </trkpt>
      <trkpt lat="45.8744" lon="4.77052">
        <ele>230.1</ele>
        <time>2013-03-10T10:37:48.69Z</time>
      </trkpt>
      <trkpt lat="45.87439" lon="4.77043">
        <ele>229.8</ele>
        <time>2013-03-10T10:37:50.57Z</time>
      </trkpt>
      <trkpt lat="45.87443" lon="4.77036">
        <ele>229.4</ele>
        <time>2013-03-10T10:37:52.56Z</time>
      </trkpt>
      <trkpt lat="45.87446" lon="4.77033">
        <ele>229.2</ele>
        <time>2013-03-10T10:37:53.56Z</time>
      </trkpt>
      <trkpt lat="45.87449" lon="4.77032">
        <ele>229.1</ele>
        <time>2013-03-10T10:37:54.56Z</time>
      </trkpt>
      <trkpt lat="45.87453" lon="4.77031">
        <ele>229.1</ele>
        <time>2013-03-10T10:37:55.56Z</time>
      </trkpt>
      <trkpt lat="45.87456" lon="4.77031">
        <ele>229.1</ele>
        <time>2013-03-10T10:37:56.56Z</time>
      </trkpt>
      <trkpt lat="45.87459" lon="4.7703">
        <ele>229</ele>
        <time>2013-03-10T10:37:57.56Z</time>
      </trkpt>
      <trkpt lat="45.87462" lon="4.77029">
        <ele>229</ele>
        <time>2013-03-10T10:37:58.68Z</time>
      </trkpt>
      <trkpt lat="45.87467" lon="4.77027">
        <ele>244.8</ele>
        <time>2013-03-10T10:38:00.58Z</time>
      </trkpt>
      <trkpt lat="45.8747" lon="4.77026">
        <ele>229</ele>
        <time>2013-03-10T10:38:01.63Z</time>
      </trkpt>
      <trkpt lat="45.87474" lon="4.77026">
        <ele>229</ele>
        <time>2013-03-10T10:38:03.66Z</time>
      </trkpt>
      <trkpt lat="45.87476" lon="4.77027">
        <ele>228.9</ele>
        <time>2013-03-10T10:38:05.73Z</time>
      </trkpt>
      <trkpt lat="45.87477" lon="4.7703">
        <ele>228.8</ele>
        <time>2013-03-10T10:38:07.56Z</time>
      </trkpt>
    </trkseg>
  </trk>
</gpx>